<?xml version="1.0" encoding="UTF-8" standalone="no" ?>
<gpx xmlns="http://www.topografix.com/GPX/1/1" xmlns:xsi="http://www.w3.org/2001/XMLSchema-instance" xsi:schemaLocation="http://www.topografix.com/GPX/1/1 http://www.topografix.com/GPX/1/1/gpx.xsd" version="1.1" creator="VisuGPX - https://www.visugpx.com">
  <metadata>
    <name>Grand Veymont GEMSA</name>
  </metadata>
  <trk>
    <name><![CDATA[Grand Veymont GEMSA]]></name>
    <trkseg>
      <trkpt lat="44.89184" lon="5.54732">
        <ele>1252.6</ele>
        <time>2022-01-19T08:24:22Z</time>
      </trkpt>
      <trkpt lat="44.89186" lon="5.54732">
        <ele>1252.7</ele>
        <time>2022-01-19T08:24:23Z</time>
      </trkpt>
      <trkpt lat="44.89188" lon="5.54732">
        <ele>1252.7</ele>
        <time>2022-01-19T08:24:24Z</time>
      </trkpt>
      <trkpt lat="44.89185" lon="5.54742">
        <ele>1253</ele>
        <time>2022-01-19T08:24:25Z</time>
      </trkpt>
      <trkpt lat="44.89185" lon="5.54742">
        <ele>1253</ele>
        <time>2022-01-19T08:24:26Z</time>
      </trkpt>
      <trkpt lat="44.89186" lon="5.54739">
        <ele>1253.1</ele>
        <time>2022-01-19T08:24:27Z</time>
      </trkpt>
      <trkpt lat="44.89188" lon="5.54737">
        <ele>1253.1</ele>
        <time>2022-01-19T08:24:28Z</time>
      </trkpt>
      <trkpt lat="44.89187" lon="5.54737">
        <ele>1253.1</ele>
        <time>2022-01-19T08:24:29Z</time>
      </trkpt>
      <trkpt lat="44.89187" lon="5.54737">
        <ele>1253.2</ele>
        <time>2022-01-19T08:24:30Z</time>
      </trkpt>
      <trkpt lat="44.89187" lon="5.54736">
        <ele>1253.2</ele>
        <time>2022-01-19T08:24:31Z</time>
      </trkpt>
      <trkpt lat="44.89186" lon="5.54735">
        <ele>1253.2</ele>
        <time>2022-01-19T08:24:32Z</time>
      </trkpt>
      <trkpt lat="44.89185" lon="5.54734">
        <ele>1253.3</ele>
        <time>2022-01-19T08:24:33Z</time>
      </trkpt>
      <trkpt lat="44.89184" lon="5.54732">
        <ele>1253.3</ele>
        <time>2022-01-19T08:24:34Z</time>
      </trkpt>
      <trkpt lat="44.89184" lon="5.54731">
        <ele>1253.4</ele>
        <time>2022-01-19T08:24:35Z</time>
      </trkpt>
      <trkpt lat="44.89182" lon="5.5473">
        <ele>1253.4</ele>
        <time>2022-01-19T08:24:36Z</time>
      </trkpt>
      <trkpt lat="44.8918" lon="5.5473">
        <ele>1253.5</ele>
        <time>2022-01-19T08:24:37Z</time>
      </trkpt>
      <trkpt lat="44.89179" lon="5.54729">
        <ele>1253.5</ele>
        <time>2022-01-19T08:24:38Z</time>
      </trkpt>
      <trkpt lat="44.89181" lon="5.54724">
        <ele>1253.7</ele>
        <time>2022-01-19T08:24:39Z</time>
      </trkpt>
      <trkpt lat="44.89182" lon="5.54724">
        <ele>1253.7</ele>
        <time>2022-01-19T08:24:40Z</time>
      </trkpt>
      <trkpt lat="44.8918" lon="5.54722">
        <ele>1253.8</ele>
        <time>2022-01-19T08:24:41Z</time>
      </trkpt>
      <trkpt lat="44.8918" lon="5.54721">
        <ele>1253.8</ele>
        <time>2022-01-19T08:24:42Z</time>
      </trkpt>
      <trkpt lat="44.8918" lon="5.5472">
        <ele>1253.8</ele>
        <time>2022-01-19T08:24:43Z</time>
      </trkpt>
      <trkpt lat="44.8918" lon="5.5472">
        <ele>1253.9</ele>
        <time>2022-01-19T08:24:44Z</time>
      </trkpt>
      <trkpt lat="44.8918" lon="5.54719">
        <ele>1253.9</ele>
        <time>2022-01-19T08:24:45Z</time>
      </trkpt>
      <trkpt lat="44.8918" lon="5.54719">
        <ele>1253.9</ele>
        <time>2022-01-19T08:24:46Z</time>
      </trkpt>
      <trkpt lat="44.8918" lon="5.54717">
        <ele>1254</ele>
        <time>2022-01-19T08:24:47Z</time>
      </trkpt>
      <trkpt lat="44.89181" lon="5.54715">
        <ele>1254</ele>
        <time>2022-01-19T08:24:48Z</time>
      </trkpt>
      <trkpt lat="44.89181" lon="5.54713">
        <ele>1254.1</ele>
        <time>2022-01-19T08:24:49Z</time>
      </trkpt>
      <trkpt lat="44.89181" lon="5.54712">
        <ele>1254.1</ele>
        <time>2022-01-19T08:24:50Z</time>
      </trkpt>
      <trkpt lat="44.89182" lon="5.54711">
        <ele>1254.2</ele>
        <time>2022-01-19T08:24:51Z</time>
      </trkpt>
      <trkpt lat="44.89182" lon="5.54709">
        <ele>1254.2</ele>
        <time>2022-01-19T08:24:52Z</time>
      </trkpt>
      <trkpt lat="44.89182" lon="5.54708">
        <ele>1254.3</ele>
        <time>2022-01-19T08:24:53Z</time>
      </trkpt>
      <trkpt lat="44.89182" lon="5.54707">
        <ele>1254.3</ele>
        <time>2022-01-19T08:24:54Z</time>
      </trkpt>
      <trkpt lat="44.89183" lon="5.54705">
        <ele>1254.4</ele>
        <time>2022-01-19T08:24:55Z</time>
      </trkpt>
      <trkpt lat="44.89182" lon="5.54704">
        <ele>1254.4</ele>
        <time>2022-01-19T08:24:56Z</time>
      </trkpt>
      <trkpt lat="44.89182" lon="5.54702">
        <ele>1254.5</ele>
        <time>2022-01-19T08:24:57Z</time>
      </trkpt>
      <trkpt lat="44.89182" lon="5.54701">
        <ele>1254.5</ele>
        <time>2022-01-19T08:24:58Z</time>
      </trkpt>
      <trkpt lat="44.89182" lon="5.547">
        <ele>1254.6</ele>
        <time>2022-01-19T08:24:59Z</time>
      </trkpt>
      <trkpt lat="44.89182" lon="5.54698">
        <ele>1254.6</ele>
        <time>2022-01-19T08:25:00Z</time>
      </trkpt>
      <trkpt lat="44.89182" lon="5.54697">
        <ele>1254.7</ele>
        <time>2022-01-19T08:25:01Z</time>
      </trkpt>
      <trkpt lat="44.89181" lon="5.54695">
        <ele>1254.8</ele>
        <time>2022-01-19T08:25:02Z</time>
      </trkpt>
      <trkpt lat="44.8918" lon="5.54694">
        <ele>1254.8</ele>
        <time>2022-01-19T08:25:03Z</time>
      </trkpt>
      <trkpt lat="44.89181" lon="5.54693">
        <ele>1254.8</ele>
        <time>2022-01-19T08:25:04Z</time>
      </trkpt>
      <trkpt lat="44.89181" lon="5.54693">
        <ele>1254.8</ele>
        <time>2022-01-19T08:25:05Z</time>
      </trkpt>
      <trkpt lat="44.8918" lon="5.54691">
        <ele>1254.9</ele>
        <time>2022-01-19T08:25:06Z</time>
      </trkpt>
      <trkpt lat="44.89179" lon="5.54689">
        <ele>1255</ele>
        <time>2022-01-19T08:25:07Z</time>
      </trkpt>
      <trkpt lat="44.89179" lon="5.54688">
        <ele>1255.1</ele>
        <time>2022-01-19T08:25:08Z</time>
      </trkpt>
      <trkpt lat="44.89178" lon="5.54687">
        <ele>1255.1</ele>
        <time>2022-01-19T08:25:09Z</time>
      </trkpt>
      <trkpt lat="44.89178" lon="5.54686">
        <ele>1255.1</ele>
        <time>2022-01-19T08:25:10Z</time>
      </trkpt>
      <trkpt lat="44.89179" lon="5.54685">
        <ele>1255.2</ele>
        <time>2022-01-19T08:25:11Z</time>
      </trkpt>
      <trkpt lat="44.89179" lon="5.54684">
        <ele>1255.2</ele>
        <time>2022-01-19T08:25:12Z</time>
      </trkpt>
      <trkpt lat="44.89178" lon="5.54683">
        <ele>1255.3</ele>
        <time>2022-01-19T08:25:13Z</time>
      </trkpt>
      <trkpt lat="44.89178" lon="5.54681">
        <ele>1255.3</ele>
        <time>2022-01-19T08:25:14Z</time>
      </trkpt>
      <trkpt lat="44.89177" lon="5.5468">
        <ele>1255.4</ele>
        <time>2022-01-19T08:25:15Z</time>
      </trkpt>
      <trkpt lat="44.89176" lon="5.54679">
        <ele>1255.4</ele>
        <time>2022-01-19T08:25:16Z</time>
      </trkpt>
      <trkpt lat="44.89175" lon="5.5468">
        <ele>1255.5</ele>
        <time>2022-01-19T08:25:17Z</time>
      </trkpt>
      <trkpt lat="44.89175" lon="5.5468">
        <ele>1255.5</ele>
        <time>2022-01-19T08:25:18Z</time>
      </trkpt>
      <trkpt lat="44.89174" lon="5.54681">
        <ele>1255.5</ele>
        <time>2022-01-19T08:25:19Z</time>
      </trkpt>
      <trkpt lat="44.89174" lon="5.54681">
        <ele>1255.6</ele>
        <time>2022-01-19T08:25:20Z</time>
      </trkpt>
      <trkpt lat="44.89173" lon="5.54682">
        <ele>1255.6</ele>
        <time>2022-01-19T08:25:21Z</time>
      </trkpt>
      <trkpt lat="44.89172" lon="5.54682">
        <ele>1255.6</ele>
        <time>2022-01-19T08:25:22Z</time>
      </trkpt>
      <trkpt lat="44.89172" lon="5.54683">
        <ele>1255.7</ele>
        <time>2022-01-19T08:25:23Z</time>
      </trkpt>
      <trkpt lat="44.89171" lon="5.54684">
        <ele>1255.7</ele>
        <time>2022-01-19T08:25:24Z</time>
      </trkpt>
      <trkpt lat="44.89171" lon="5.54684">
        <ele>1255.7</ele>
        <time>2022-01-19T08:25:25Z</time>
      </trkpt>
      <trkpt lat="44.8917" lon="5.54685">
        <ele>1255.8</ele>
        <time>2022-01-19T08:25:26Z</time>
      </trkpt>
      <trkpt lat="44.89169" lon="5.54685">
        <ele>1255.8</ele>
        <time>2022-01-19T08:25:27Z</time>
      </trkpt>
      <trkpt lat="44.89169" lon="5.54686">
        <ele>1255.8</ele>
        <time>2022-01-19T08:25:28Z</time>
      </trkpt>
      <trkpt lat="44.89168" lon="5.54686">
        <ele>1255.9</ele>
        <time>2022-01-19T08:25:29Z</time>
      </trkpt>
      <trkpt lat="44.89168" lon="5.54687">
        <ele>1255.9</ele>
        <time>2022-01-19T08:25:30Z</time>
      </trkpt>
      <trkpt lat="44.89167" lon="5.54687">
        <ele>1255.9</ele>
        <time>2022-01-19T08:25:31Z</time>
      </trkpt>
      <trkpt lat="44.89166" lon="5.54688">
        <ele>1255.9</ele>
        <time>2022-01-19T08:25:32Z</time>
      </trkpt>
      <trkpt lat="44.89166" lon="5.54689">
        <ele>1256</ele>
        <time>2022-01-19T08:25:33Z</time>
      </trkpt>
      <trkpt lat="44.89165" lon="5.54689">
        <ele>1256</ele>
        <time>2022-01-19T08:25:34Z</time>
      </trkpt>
      <trkpt lat="44.89165" lon="5.5469">
        <ele>1256</ele>
        <time>2022-01-19T08:25:35Z</time>
      </trkpt>
      <trkpt lat="44.89164" lon="5.5469">
        <ele>1256.1</ele>
        <time>2022-01-19T08:25:36Z</time>
      </trkpt>
      <trkpt lat="44.89163" lon="5.54691">
        <ele>1256.1</ele>
        <time>2022-01-19T08:25:37Z</time>
      </trkpt>
      <trkpt lat="44.89163" lon="5.54691">
        <ele>1256.1</ele>
        <time>2022-01-19T08:25:38Z</time>
      </trkpt>
      <trkpt lat="44.89162" lon="5.54692">
        <ele>1256.2</ele>
        <time>2022-01-19T08:25:39Z</time>
      </trkpt>
      <trkpt lat="44.89162" lon="5.54692">
        <ele>1256.2</ele>
        <time>2022-01-19T08:25:40Z</time>
      </trkpt>
      <trkpt lat="44.89161" lon="5.54693">
        <ele>1256.2</ele>
        <time>2022-01-19T08:25:41Z</time>
      </trkpt>
      <trkpt lat="44.8916" lon="5.54694">
        <ele>1256.3</ele>
        <time>2022-01-19T08:25:42Z</time>
      </trkpt>
      <trkpt lat="44.8916" lon="5.54694">
        <ele>1256.3</ele>
        <time>2022-01-19T08:25:43Z</time>
      </trkpt>
      <trkpt lat="44.89159" lon="5.54695">
        <ele>1256.3</ele>
        <time>2022-01-19T08:25:44Z</time>
      </trkpt>
      <trkpt lat="44.89158" lon="5.54695">
        <ele>1256.4</ele>
        <time>2022-01-19T08:25:45Z</time>
      </trkpt>
      <trkpt lat="44.89158" lon="5.54696">
        <ele>1256.4</ele>
        <time>2022-01-19T08:25:46Z</time>
      </trkpt>
      <trkpt lat="44.89157" lon="5.54696">
        <ele>1256.4</ele>
        <time>2022-01-19T08:25:47Z</time>
      </trkpt>
      <trkpt lat="44.89157" lon="5.54697">
        <ele>1256.5</ele>
        <time>2022-01-19T08:25:48Z</time>
      </trkpt>
      <trkpt lat="44.89156" lon="5.54697">
        <ele>1256.5</ele>
        <time>2022-01-19T08:25:49Z</time>
      </trkpt>
      <trkpt lat="44.89155" lon="5.54698">
        <ele>1256.5</ele>
        <time>2022-01-19T08:25:50Z</time>
      </trkpt>
      <trkpt lat="44.89155" lon="5.54699">
        <ele>1256.6</ele>
        <time>2022-01-19T08:25:51Z</time>
      </trkpt>
      <trkpt lat="44.89154" lon="5.54699">
        <ele>1256.6</ele>
        <time>2022-01-19T08:25:52Z</time>
      </trkpt>
      <trkpt lat="44.89154" lon="5.547">
        <ele>1256.6</ele>
        <time>2022-01-19T08:25:53Z</time>
      </trkpt>
      <trkpt lat="44.89153" lon="5.547">
        <ele>1256.7</ele>
        <time>2022-01-19T08:25:54Z</time>
      </trkpt>
      <trkpt lat="44.89152" lon="5.54701">
        <ele>1256.7</ele>
        <time>2022-01-19T08:25:55Z</time>
      </trkpt>
      <trkpt lat="44.89152" lon="5.54701">
        <ele>1256.7</ele>
        <time>2022-01-19T08:25:56Z</time>
      </trkpt>
      <trkpt lat="44.89151" lon="5.54702">
        <ele>1256.7</ele>
        <time>2022-01-19T08:25:57Z</time>
      </trkpt>
      <trkpt lat="44.89151" lon="5.54702">
        <ele>1256.8</ele>
        <time>2022-01-19T08:25:58Z</time>
      </trkpt>
      <trkpt lat="44.8915" lon="5.54703">
        <ele>1256.8</ele>
        <time>2022-01-19T08:25:59Z</time>
      </trkpt>
      <trkpt lat="44.89149" lon="5.54704">
        <ele>1256.8</ele>
        <time>2022-01-19T08:26:00Z</time>
      </trkpt>
      <trkpt lat="44.89148" lon="5.54706">
        <ele>1256.9</ele>
        <time>2022-01-19T08:26:01Z</time>
      </trkpt>
      <trkpt lat="44.89148" lon="5.54708">
        <ele>1257</ele>
        <time>2022-01-19T08:26:02Z</time>
      </trkpt>
      <trkpt lat="44.89148" lon="5.5471">
        <ele>1257</ele>
        <time>2022-01-19T08:26:03Z</time>
      </trkpt>
      <trkpt lat="44.89148" lon="5.54712">
        <ele>1257.1</ele>
        <time>2022-01-19T08:26:04Z</time>
      </trkpt>
      <trkpt lat="44.89148" lon="5.54713">
        <ele>1257.1</ele>
        <time>2022-01-19T08:26:05Z</time>
      </trkpt>
      <trkpt lat="44.89148" lon="5.54714">
        <ele>1257.1</ele>
        <time>2022-01-19T08:26:06Z</time>
      </trkpt>
      <trkpt lat="44.89149" lon="5.54715">
        <ele>1257.2</ele>
        <time>2022-01-19T08:26:07Z</time>
      </trkpt>
      <trkpt lat="44.89149" lon="5.54717">
        <ele>1257.2</ele>
        <time>2022-01-19T08:26:08Z</time>
      </trkpt>
      <trkpt lat="44.8915" lon="5.54718">
        <ele>1257.2</ele>
        <time>2022-01-19T08:26:09Z</time>
      </trkpt>
      <trkpt lat="44.8915" lon="5.54719">
        <ele>1257.3</ele>
        <time>2022-01-19T08:26:10Z</time>
      </trkpt>
      <trkpt lat="44.8915" lon="5.54721">
        <ele>1257.3</ele>
        <time>2022-01-19T08:26:11Z</time>
      </trkpt>
      <trkpt lat="44.8915" lon="5.54724">
        <ele>1257.4</ele>
        <time>2022-01-19T08:26:12Z</time>
      </trkpt>
      <trkpt lat="44.8915" lon="5.54726">
        <ele>1257.5</ele>
        <time>2022-01-19T08:26:13Z</time>
      </trkpt>
      <trkpt lat="44.8915" lon="5.54729">
        <ele>1257.6</ele>
        <time>2022-01-19T08:26:14Z</time>
      </trkpt>
      <trkpt lat="44.89149" lon="5.54732">
        <ele>1257.6</ele>
        <time>2022-01-19T08:26:15Z</time>
      </trkpt>
      <trkpt lat="44.89149" lon="5.54735">
        <ele>1257.7</ele>
        <time>2022-01-19T08:26:16Z</time>
      </trkpt>
      <trkpt lat="44.8915" lon="5.54737">
        <ele>1257.8</ele>
        <time>2022-01-19T08:26:17Z</time>
      </trkpt>
      <trkpt lat="44.8915" lon="5.54738">
        <ele>1257.8</ele>
        <time>2022-01-19T08:26:18Z</time>
      </trkpt>
      <trkpt lat="44.8915" lon="5.54738">
        <ele>1257.8</ele>
        <time>2022-01-19T08:26:19Z</time>
      </trkpt>
      <trkpt lat="44.89151" lon="5.54738">
        <ele>1257.9</ele>
        <time>2022-01-19T08:26:20Z</time>
      </trkpt>
      <trkpt lat="44.89151" lon="5.54738">
        <ele>1257.9</ele>
        <time>2022-01-19T08:26:21Z</time>
      </trkpt>
      <trkpt lat="44.89153" lon="5.54738">
        <ele>1258</ele>
        <time>2022-01-19T08:26:22Z</time>
      </trkpt>
      <trkpt lat="44.89154" lon="5.54738">
        <ele>1258</ele>
        <time>2022-01-19T08:26:23Z</time>
      </trkpt>
      <trkpt lat="44.89156" lon="5.54738">
        <ele>1258.1</ele>
        <time>2022-01-19T08:26:24Z</time>
      </trkpt>
      <trkpt lat="44.89157" lon="5.54738">
        <ele>1258.2</ele>
        <time>2022-01-19T08:26:25Z</time>
      </trkpt>
      <trkpt lat="44.89158" lon="5.54737">
        <ele>1258.2</ele>
        <time>2022-01-19T08:26:26Z</time>
      </trkpt>
      <trkpt lat="44.8916" lon="5.54737">
        <ele>1258.3</ele>
        <time>2022-01-19T08:26:27Z</time>
      </trkpt>
      <trkpt lat="44.8916" lon="5.54736">
        <ele>1258.3</ele>
        <time>2022-01-19T08:26:28Z</time>
      </trkpt>
      <trkpt lat="44.8916" lon="5.54736">
        <ele>1258.3</ele>
        <time>2022-01-19T08:26:29Z</time>
      </trkpt>
      <trkpt lat="44.8916" lon="5.54736">
        <ele>1258.3</ele>
        <time>2022-01-19T08:26:30Z</time>
      </trkpt>
      <trkpt lat="44.8916" lon="5.54736">
        <ele>1258.3</ele>
        <time>2022-01-19T08:26:31Z</time>
      </trkpt>
      <trkpt lat="44.8916" lon="5.54736">
        <ele>1258.3</ele>
        <time>2022-01-19T08:26:32Z</time>
      </trkpt>
      <trkpt lat="44.8916" lon="5.54736">
        <ele>1258.3</ele>
        <time>2022-01-19T08:26:33Z</time>
      </trkpt>
      <trkpt lat="44.8916" lon="5.54736">
        <ele>1258.3</ele>
        <time>2022-01-19T08:26:34Z</time>
      </trkpt>
      <trkpt lat="44.8916" lon="5.54736">
        <ele>1258.3</ele>
        <time>2022-01-19T08:26:35Z</time>
      </trkpt>
      <trkpt lat="44.8916" lon="5.54736">
        <ele>1258.3</ele>
        <time>2022-01-19T08:26:36Z</time>
      </trkpt>
      <trkpt lat="44.8916" lon="5.54736">
        <ele>1258.3</ele>
        <time>2022-01-19T08:26:37Z</time>
      </trkpt>
      <trkpt lat="44.8916" lon="5.54736">
        <ele>1258.3</ele>
        <time>2022-01-19T08:26:38Z</time>
      </trkpt>
      <trkpt lat="44.8916" lon="5.54736">
        <ele>1258.3</ele>
        <time>2022-01-19T08:26:39Z</time>
      </trkpt>
      <trkpt lat="44.8916" lon="5.54736">
        <ele>1258.3</ele>
        <time>2022-01-19T08:26:40Z</time>
      </trkpt>
      <trkpt lat="44.8916" lon="5.54736">
        <ele>1258.3</ele>
        <time>2022-01-19T08:26:41Z</time>
      </trkpt>
      <trkpt lat="44.8916" lon="5.54736">
        <ele>1258.3</ele>
        <time>2022-01-19T08:26:42Z</time>
      </trkpt>
      <trkpt lat="44.8916" lon="5.54736">
        <ele>1258.3</ele>
        <time>2022-01-19T08:26:43Z</time>
      </trkpt>
      <trkpt lat="44.8916" lon="5.54736">
        <ele>1258.3</ele>
        <time>2022-01-19T08:26:44Z</time>
      </trkpt>
      <trkpt lat="44.8916" lon="5.54736">
        <ele>1258.3</ele>
        <time>2022-01-19T08:26:45Z</time>
      </trkpt>
      <trkpt lat="44.8916" lon="5.54736">
        <ele>1258.3</ele>
        <time>2022-01-19T08:26:46Z</time>
      </trkpt>
      <trkpt lat="44.8916" lon="5.54736">
        <ele>1258.3</ele>
        <time>2022-01-19T08:26:47Z</time>
      </trkpt>
      <trkpt lat="44.89161" lon="5.54733">
        <ele>1258.4</ele>
        <time>2022-01-19T08:26:48Z</time>
      </trkpt>
      <trkpt lat="44.89161" lon="5.54732">
        <ele>1258.5</ele>
        <time>2022-01-19T08:26:49Z</time>
      </trkpt>
      <trkpt lat="44.89161" lon="5.54731">
        <ele>1258.5</ele>
        <time>2022-01-19T08:26:50Z</time>
      </trkpt>
      <trkpt lat="44.8916" lon="5.5473">
        <ele>1258.5</ele>
        <time>2022-01-19T08:26:51Z</time>
      </trkpt>
      <trkpt lat="44.8916" lon="5.5473">
        <ele>1258.6</ele>
        <time>2022-01-19T08:26:52Z</time>
      </trkpt>
      <trkpt lat="44.89159" lon="5.5473">
        <ele>1258.6</ele>
        <time>2022-01-19T08:26:53Z</time>
      </trkpt>
      <trkpt lat="44.89159" lon="5.54729">
        <ele>1258.6</ele>
        <time>2022-01-19T08:26:54Z</time>
      </trkpt>
      <trkpt lat="44.89158" lon="5.54728">
        <ele>1258.6</ele>
        <time>2022-01-19T08:26:55Z</time>
      </trkpt>
      <trkpt lat="44.89158" lon="5.54727">
        <ele>1258.7</ele>
        <time>2022-01-19T08:26:56Z</time>
      </trkpt>
      <trkpt lat="44.89158" lon="5.54727">
        <ele>1258.7</ele>
        <time>2022-01-19T08:26:57Z</time>
      </trkpt>
      <trkpt lat="44.89158" lon="5.54727">
        <ele>1258.7</ele>
        <time>2022-01-19T08:26:58Z</time>
      </trkpt>
      <trkpt lat="44.89159" lon="5.54727">
        <ele>1258.7</ele>
        <time>2022-01-19T08:26:59Z</time>
      </trkpt>
      <trkpt lat="44.89159" lon="5.54727">
        <ele>1258.7</ele>
        <time>2022-01-19T08:27:00Z</time>
      </trkpt>
      <trkpt lat="44.89159" lon="5.54727">
        <ele>1258.7</ele>
        <time>2022-01-19T08:27:01Z</time>
      </trkpt>
      <trkpt lat="44.89159" lon="5.54727">
        <ele>1258.7</ele>
        <time>2022-01-19T08:27:02Z</time>
      </trkpt>
      <trkpt lat="44.89159" lon="5.54727">
        <ele>1258.7</ele>
        <time>2022-01-19T08:27:03Z</time>
      </trkpt>
      <trkpt lat="44.89159" lon="5.54727">
        <ele>1258.7</ele>
        <time>2022-01-19T08:27:04Z</time>
      </trkpt>
      <trkpt lat="44.89159" lon="5.54727">
        <ele>1258.7</ele>
        <time>2022-01-19T08:27:05Z</time>
      </trkpt>
      <trkpt lat="44.89159" lon="5.54727">
        <ele>1258.7</ele>
        <time>2022-01-19T08:27:06Z</time>
      </trkpt>
      <trkpt lat="44.8916" lon="5.54727">
        <ele>1258.8</ele>
        <time>2022-01-19T08:27:07Z</time>
      </trkpt>
      <trkpt lat="44.8916" lon="5.54726">
        <ele>1258.8</ele>
        <time>2022-01-19T08:27:08Z</time>
      </trkpt>
      <trkpt lat="44.89159" lon="5.54725">
        <ele>1258.9</ele>
        <time>2022-01-19T08:27:09Z</time>
      </trkpt>
      <trkpt lat="44.89159" lon="5.54723">
        <ele>1258.9</ele>
        <time>2022-01-19T08:27:10Z</time>
      </trkpt>
      <trkpt lat="44.89159" lon="5.54722">
        <ele>1258.9</ele>
        <time>2022-01-19T08:27:11Z</time>
      </trkpt>
      <trkpt lat="44.89159" lon="5.54721">
        <ele>1259</ele>
        <time>2022-01-19T08:27:12Z</time>
      </trkpt>
      <trkpt lat="44.89158" lon="5.54719">
        <ele>1259</ele>
        <time>2022-01-19T08:27:13Z</time>
      </trkpt>
      <trkpt lat="44.89158" lon="5.54718">
        <ele>1259.1</ele>
        <time>2022-01-19T08:27:14Z</time>
      </trkpt>
      <trkpt lat="44.89158" lon="5.54716">
        <ele>1259.1</ele>
        <time>2022-01-19T08:27:15Z</time>
      </trkpt>
      <trkpt lat="44.89158" lon="5.54714">
        <ele>1259.2</ele>
        <time>2022-01-19T08:27:16Z</time>
      </trkpt>
      <trkpt lat="44.89158" lon="5.54713">
        <ele>1259.2</ele>
        <time>2022-01-19T08:27:17Z</time>
      </trkpt>
      <trkpt lat="44.89158" lon="5.54711">
        <ele>1259.3</ele>
        <time>2022-01-19T08:27:18Z</time>
      </trkpt>
      <trkpt lat="44.89157" lon="5.54709">
        <ele>1259.4</ele>
        <time>2022-01-19T08:27:19Z</time>
      </trkpt>
      <trkpt lat="44.89157" lon="5.54706">
        <ele>1259.4</ele>
        <time>2022-01-19T08:27:20Z</time>
      </trkpt>
      <trkpt lat="44.89156" lon="5.54705">
        <ele>1259.5</ele>
        <time>2022-01-19T08:27:21Z</time>
      </trkpt>
      <trkpt lat="44.89156" lon="5.54702">
        <ele>1259.6</ele>
        <time>2022-01-19T08:27:22Z</time>
      </trkpt>
      <trkpt lat="44.89156" lon="5.547">
        <ele>1259.6</ele>
        <time>2022-01-19T08:27:23Z</time>
      </trkpt>
      <trkpt lat="44.89156" lon="5.54698">
        <ele>1259.7</ele>
        <time>2022-01-19T08:27:24Z</time>
      </trkpt>
      <trkpt lat="44.89156" lon="5.54696">
        <ele>1259.8</ele>
        <time>2022-01-19T08:27:25Z</time>
      </trkpt>
      <trkpt lat="44.89156" lon="5.54694">
        <ele>1259.8</ele>
        <time>2022-01-19T08:27:26Z</time>
      </trkpt>
      <trkpt lat="44.89156" lon="5.54692">
        <ele>1259.9</ele>
        <time>2022-01-19T08:27:27Z</time>
      </trkpt>
      <trkpt lat="44.89156" lon="5.5469">
        <ele>1259.9</ele>
        <time>2022-01-19T08:27:28Z</time>
      </trkpt>
      <trkpt lat="44.89156" lon="5.54688">
        <ele>1260</ele>
        <time>2022-01-19T08:27:29Z</time>
      </trkpt>
      <trkpt lat="44.89155" lon="5.54686">
        <ele>1260.1</ele>
        <time>2022-01-19T08:27:30Z</time>
      </trkpt>
      <trkpt lat="44.89155" lon="5.54684">
        <ele>1260.1</ele>
        <time>2022-01-19T08:27:31Z</time>
      </trkpt>
      <trkpt lat="44.89155" lon="5.54682">
        <ele>1260.2</ele>
        <time>2022-01-19T08:27:32Z</time>
      </trkpt>
      <trkpt lat="44.89154" lon="5.54681">
        <ele>1260.2</ele>
        <time>2022-01-19T08:27:33Z</time>
      </trkpt>
      <trkpt lat="44.89154" lon="5.54679">
        <ele>1260.3</ele>
        <time>2022-01-19T08:27:34Z</time>
      </trkpt>
      <trkpt lat="44.89154" lon="5.54678">
        <ele>1260.4</ele>
        <time>2022-01-19T08:27:35Z</time>
      </trkpt>
      <trkpt lat="44.89154" lon="5.54676">
        <ele>1260.4</ele>
        <time>2022-01-19T08:27:36Z</time>
      </trkpt>
      <trkpt lat="44.89154" lon="5.54674">
        <ele>1260.5</ele>
        <time>2022-01-19T08:27:37Z</time>
      </trkpt>
      <trkpt lat="44.89154" lon="5.54673">
        <ele>1260.5</ele>
        <time>2022-01-19T08:27:38Z</time>
      </trkpt>
      <trkpt lat="44.89154" lon="5.54671">
        <ele>1260.6</ele>
        <time>2022-01-19T08:27:39Z</time>
      </trkpt>
      <trkpt lat="44.89154" lon="5.5467">
        <ele>1260.6</ele>
        <time>2022-01-19T08:27:40Z</time>
      </trkpt>
      <trkpt lat="44.89154" lon="5.54668">
        <ele>1260.7</ele>
        <time>2022-01-19T08:27:41Z</time>
      </trkpt>
      <trkpt lat="44.89154" lon="5.54666">
        <ele>1260.7</ele>
        <time>2022-01-19T08:27:42Z</time>
      </trkpt>
      <trkpt lat="44.89154" lon="5.54665">
        <ele>1260.8</ele>
        <time>2022-01-19T08:27:43Z</time>
      </trkpt>
      <trkpt lat="44.89154" lon="5.54663">
        <ele>1260.9</ele>
        <time>2022-01-19T08:27:44Z</time>
      </trkpt>
      <trkpt lat="44.89154" lon="5.54661">
        <ele>1260.9</ele>
        <time>2022-01-19T08:27:45Z</time>
      </trkpt>
      <trkpt lat="44.89155" lon="5.54659">
        <ele>1261</ele>
        <time>2022-01-19T08:27:46Z</time>
      </trkpt>
      <trkpt lat="44.89155" lon="5.54656">
        <ele>1261.1</ele>
        <time>2022-01-19T08:27:47Z</time>
      </trkpt>
      <trkpt lat="44.89155" lon="5.54654">
        <ele>1261.2</ele>
        <time>2022-01-19T08:27:48Z</time>
      </trkpt>
      <trkpt lat="44.89155" lon="5.54652">
        <ele>1261.2</ele>
        <time>2022-01-19T08:27:49Z</time>
      </trkpt>
      <trkpt lat="44.89156" lon="5.5465">
        <ele>1261.3</ele>
        <time>2022-01-19T08:27:50Z</time>
      </trkpt>
      <trkpt lat="44.89156" lon="5.54648">
        <ele>1261.4</ele>
        <time>2022-01-19T08:27:51Z</time>
      </trkpt>
      <trkpt lat="44.89156" lon="5.54646">
        <ele>1261.5</ele>
        <time>2022-01-19T08:27:52Z</time>
      </trkpt>
      <trkpt lat="44.89157" lon="5.54644">
        <ele>1261.5</ele>
        <time>2022-01-19T08:27:53Z</time>
      </trkpt>
      <trkpt lat="44.89157" lon="5.54642">
        <ele>1261.6</ele>
        <time>2022-01-19T08:27:54Z</time>
      </trkpt>
      <trkpt lat="44.89158" lon="5.54641">
        <ele>1261.7</ele>
        <time>2022-01-19T08:27:55Z</time>
      </trkpt>
      <trkpt lat="44.89158" lon="5.54639">
        <ele>1261.8</ele>
        <time>2022-01-19T08:27:56Z</time>
      </trkpt>
      <trkpt lat="44.89158" lon="5.54637">
        <ele>1261.8</ele>
        <time>2022-01-19T08:27:57Z</time>
      </trkpt>
      <trkpt lat="44.89158" lon="5.54635">
        <ele>1261.9</ele>
        <time>2022-01-19T08:27:58Z</time>
      </trkpt>
      <trkpt lat="44.89158" lon="5.54633">
        <ele>1262</ele>
        <time>2022-01-19T08:27:59Z</time>
      </trkpt>
      <trkpt lat="44.89158" lon="5.54631">
        <ele>1262</ele>
        <time>2022-01-19T08:28:00Z</time>
      </trkpt>
      <trkpt lat="44.89158" lon="5.54629">
        <ele>1262.1</ele>
        <time>2022-01-19T08:28:01Z</time>
      </trkpt>
      <trkpt lat="44.89158" lon="5.54627">
        <ele>1262.2</ele>
        <time>2022-01-19T08:28:02Z</time>
      </trkpt>
      <trkpt lat="44.89158" lon="5.54625">
        <ele>1262.2</ele>
        <time>2022-01-19T08:28:03Z</time>
      </trkpt>
      <trkpt lat="44.89158" lon="5.54623">
        <ele>1262.3</ele>
        <time>2022-01-19T08:28:04Z</time>
      </trkpt>
      <trkpt lat="44.89158" lon="5.54621">
        <ele>1262.4</ele>
        <time>2022-01-19T08:28:05Z</time>
      </trkpt>
      <trkpt lat="44.89158" lon="5.54619">
        <ele>1262.4</ele>
        <time>2022-01-19T08:28:06Z</time>
      </trkpt>
      <trkpt lat="44.89157" lon="5.54618">
        <ele>1262.5</ele>
        <time>2022-01-19T08:28:07Z</time>
      </trkpt>
      <trkpt lat="44.89157" lon="5.54616">
        <ele>1262.6</ele>
        <time>2022-01-19T08:28:08Z</time>
      </trkpt>
      <trkpt lat="44.89156" lon="5.54614">
        <ele>1262.6</ele>
        <time>2022-01-19T08:28:09Z</time>
      </trkpt>
      <trkpt lat="44.89156" lon="5.54613">
        <ele>1262.7</ele>
        <time>2022-01-19T08:28:10Z</time>
      </trkpt>
      <trkpt lat="44.89155" lon="5.54611">
        <ele>1262.8</ele>
        <time>2022-01-19T08:28:11Z</time>
      </trkpt>
      <trkpt lat="44.89154" lon="5.54609">
        <ele>1262.9</ele>
        <time>2022-01-19T08:28:12Z</time>
      </trkpt>
      <trkpt lat="44.89153" lon="5.54607">
        <ele>1262.9</ele>
        <time>2022-01-19T08:28:13Z</time>
      </trkpt>
      <trkpt lat="44.89153" lon="5.54605">
        <ele>1263</ele>
        <time>2022-01-19T08:28:14Z</time>
      </trkpt>
      <trkpt lat="44.89152" lon="5.54603">
        <ele>1263.1</ele>
        <time>2022-01-19T08:28:15Z</time>
      </trkpt>
      <trkpt lat="44.89151" lon="5.54602">
        <ele>1263.1</ele>
        <time>2022-01-19T08:28:16Z</time>
      </trkpt>
      <trkpt lat="44.89151" lon="5.546">
        <ele>1263.2</ele>
        <time>2022-01-19T08:28:17Z</time>
      </trkpt>
      <trkpt lat="44.89151" lon="5.54599">
        <ele>1263.2</ele>
        <time>2022-01-19T08:28:18Z</time>
      </trkpt>
      <trkpt lat="44.8915" lon="5.54597">
        <ele>1263.3</ele>
        <time>2022-01-19T08:28:19Z</time>
      </trkpt>
      <trkpt lat="44.89149" lon="5.54596">
        <ele>1263.4</ele>
        <time>2022-01-19T08:28:20Z</time>
      </trkpt>
      <trkpt lat="44.89148" lon="5.54594">
        <ele>1263.5</ele>
        <time>2022-01-19T08:28:21Z</time>
      </trkpt>
      <trkpt lat="44.89148" lon="5.54592">
        <ele>1263.5</ele>
        <time>2022-01-19T08:28:22Z</time>
      </trkpt>
      <trkpt lat="44.89147" lon="5.5459">
        <ele>1263.6</ele>
        <time>2022-01-19T08:28:23Z</time>
      </trkpt>
      <trkpt lat="44.89147" lon="5.54588">
        <ele>1263.7</ele>
        <time>2022-01-19T08:28:24Z</time>
      </trkpt>
      <trkpt lat="44.89146" lon="5.54587">
        <ele>1263.7</ele>
        <time>2022-01-19T08:28:25Z</time>
      </trkpt>
      <trkpt lat="44.89145" lon="5.54585">
        <ele>1263.8</ele>
        <time>2022-01-19T08:28:26Z</time>
      </trkpt>
      <trkpt lat="44.89145" lon="5.54584">
        <ele>1263.9</ele>
        <time>2022-01-19T08:28:27Z</time>
      </trkpt>
      <trkpt lat="44.89144" lon="5.54582">
        <ele>1263.9</ele>
        <time>2022-01-19T08:28:28Z</time>
      </trkpt>
      <trkpt lat="44.89143" lon="5.5458">
        <ele>1264</ele>
        <time>2022-01-19T08:28:29Z</time>
      </trkpt>
      <trkpt lat="44.89142" lon="5.54578">
        <ele>1264.1</ele>
        <time>2022-01-19T08:28:30Z</time>
      </trkpt>
      <trkpt lat="44.89142" lon="5.54577">
        <ele>1264.1</ele>
        <time>2022-01-19T08:28:31Z</time>
      </trkpt>
      <trkpt lat="44.89142" lon="5.54574">
        <ele>1264.2</ele>
        <time>2022-01-19T08:28:32Z</time>
      </trkpt>
      <trkpt lat="44.89142" lon="5.54572">
        <ele>1264.3</ele>
        <time>2022-01-19T08:28:33Z</time>
      </trkpt>
      <trkpt lat="44.89142" lon="5.5457">
        <ele>1264.4</ele>
        <time>2022-01-19T08:28:34Z</time>
      </trkpt>
      <trkpt lat="44.89141" lon="5.54568">
        <ele>1264.5</ele>
        <time>2022-01-19T08:28:35Z</time>
      </trkpt>
      <trkpt lat="44.8914" lon="5.54567">
        <ele>1264.5</ele>
        <time>2022-01-19T08:28:36Z</time>
      </trkpt>
      <trkpt lat="44.8914" lon="5.54565">
        <ele>1264.6</ele>
        <time>2022-01-19T08:28:37Z</time>
      </trkpt>
      <trkpt lat="44.89139" lon="5.54564">
        <ele>1264.6</ele>
        <time>2022-01-19T08:28:38Z</time>
      </trkpt>
      <trkpt lat="44.89138" lon="5.54562">
        <ele>1264.7</ele>
        <time>2022-01-19T08:28:39Z</time>
      </trkpt>
      <trkpt lat="44.89138" lon="5.54561">
        <ele>1264.8</ele>
        <time>2022-01-19T08:28:40Z</time>
      </trkpt>
      <trkpt lat="44.89137" lon="5.54559">
        <ele>1264.9</ele>
        <time>2022-01-19T08:28:41Z</time>
      </trkpt>
      <trkpt lat="44.89136" lon="5.54558">
        <ele>1264.9</ele>
        <time>2022-01-19T08:28:42Z</time>
      </trkpt>
      <trkpt lat="44.89135" lon="5.54556">
        <ele>1265</ele>
        <time>2022-01-19T08:28:43Z</time>
      </trkpt>
      <trkpt lat="44.89135" lon="5.54556">
        <ele>1265</ele>
        <time>2022-01-19T08:28:44Z</time>
      </trkpt>
      <trkpt lat="44.89135" lon="5.54555">
        <ele>1265</ele>
        <time>2022-01-19T08:28:45Z</time>
      </trkpt>
      <trkpt lat="44.89134" lon="5.54554">
        <ele>1265.1</ele>
        <time>2022-01-19T08:28:46Z</time>
      </trkpt>
      <trkpt lat="44.89134" lon="5.54553">
        <ele>1265.1</ele>
        <time>2022-01-19T08:28:47Z</time>
      </trkpt>
      <trkpt lat="44.89133" lon="5.54552">
        <ele>1265.2</ele>
        <time>2022-01-19T08:28:48Z</time>
      </trkpt>
      <trkpt lat="44.89132" lon="5.54551">
        <ele>1265.2</ele>
        <time>2022-01-19T08:28:49Z</time>
      </trkpt>
      <trkpt lat="44.89131" lon="5.54551">
        <ele>1265.3</ele>
        <time>2022-01-19T08:28:50Z</time>
      </trkpt>
      <trkpt lat="44.89131" lon="5.5455">
        <ele>1265.4</ele>
        <time>2022-01-19T08:28:51Z</time>
      </trkpt>
      <trkpt lat="44.8913" lon="5.54549">
        <ele>1265.4</ele>
        <time>2022-01-19T08:28:52Z</time>
      </trkpt>
      <trkpt lat="44.8913" lon="5.54549">
        <ele>1265.4</ele>
        <time>2022-01-19T08:28:53Z</time>
      </trkpt>
      <trkpt lat="44.89129" lon="5.54548">
        <ele>1265.5</ele>
        <time>2022-01-19T08:28:54Z</time>
      </trkpt>
      <trkpt lat="44.89129" lon="5.54548">
        <ele>1265.5</ele>
        <time>2022-01-19T08:28:55Z</time>
      </trkpt>
      <trkpt lat="44.89128" lon="5.54547">
        <ele>1265.6</ele>
        <time>2022-01-19T08:28:56Z</time>
      </trkpt>
      <trkpt lat="44.89127" lon="5.54546">
        <ele>1265.6</ele>
        <time>2022-01-19T08:28:57Z</time>
      </trkpt>
      <trkpt lat="44.89126" lon="5.54545">
        <ele>1265.7</ele>
        <time>2022-01-19T08:28:58Z</time>
      </trkpt>
      <trkpt lat="44.89125" lon="5.54544">
        <ele>1265.7</ele>
        <time>2022-01-19T08:28:59Z</time>
      </trkpt>
      <trkpt lat="44.89124" lon="5.54543">
        <ele>1265.8</ele>
        <time>2022-01-19T08:29:00Z</time>
      </trkpt>
      <trkpt lat="44.89123" lon="5.54543">
        <ele>1265.9</ele>
        <time>2022-01-19T08:29:01Z</time>
      </trkpt>
      <trkpt lat="44.89122" lon="5.54542">
        <ele>1265.9</ele>
        <time>2022-01-19T08:29:02Z</time>
      </trkpt>
      <trkpt lat="44.89121" lon="5.54542">
        <ele>1266</ele>
        <time>2022-01-19T08:29:03Z</time>
      </trkpt>
      <trkpt lat="44.89121" lon="5.54541">
        <ele>1266</ele>
        <time>2022-01-19T08:29:04Z</time>
      </trkpt>
      <trkpt lat="44.8912" lon="5.5454">
        <ele>1266.1</ele>
        <time>2022-01-19T08:29:05Z</time>
      </trkpt>
      <trkpt lat="44.89119" lon="5.54539">
        <ele>1266.1</ele>
        <time>2022-01-19T08:29:06Z</time>
      </trkpt>
      <trkpt lat="44.89119" lon="5.54539">
        <ele>1266.2</ele>
        <time>2022-01-19T08:29:07Z</time>
      </trkpt>
      <trkpt lat="44.89118" lon="5.54538">
        <ele>1266.2</ele>
        <time>2022-01-19T08:29:08Z</time>
      </trkpt>
      <trkpt lat="44.89118" lon="5.54537">
        <ele>1266.2</ele>
        <time>2022-01-19T08:29:09Z</time>
      </trkpt>
      <trkpt lat="44.89117" lon="5.54536">
        <ele>1266.3</ele>
        <time>2022-01-19T08:29:10Z</time>
      </trkpt>
      <trkpt lat="44.89117" lon="5.54536">
        <ele>1266.3</ele>
        <time>2022-01-19T08:29:11Z</time>
      </trkpt>
      <trkpt lat="44.89116" lon="5.54535">
        <ele>1266.4</ele>
        <time>2022-01-19T08:29:12Z</time>
      </trkpt>
      <trkpt lat="44.89115" lon="5.54534">
        <ele>1266.4</ele>
        <time>2022-01-19T08:29:13Z</time>
      </trkpt>
      <trkpt lat="44.89114" lon="5.54533">
        <ele>1266.5</ele>
        <time>2022-01-19T08:29:14Z</time>
      </trkpt>
      <trkpt lat="44.89114" lon="5.54532">
        <ele>1266.5</ele>
        <time>2022-01-19T08:29:15Z</time>
      </trkpt>
      <trkpt lat="44.89113" lon="5.54531">
        <ele>1266.6</ele>
        <time>2022-01-19T08:29:16Z</time>
      </trkpt>
      <trkpt lat="44.89113" lon="5.5453">
        <ele>1266.6</ele>
        <time>2022-01-19T08:29:17Z</time>
      </trkpt>
      <trkpt lat="44.89112" lon="5.54529">
        <ele>1266.7</ele>
        <time>2022-01-19T08:29:18Z</time>
      </trkpt>
      <trkpt lat="44.89111" lon="5.54527">
        <ele>1266.7</ele>
        <time>2022-01-19T08:29:19Z</time>
      </trkpt>
      <trkpt lat="44.89111" lon="5.54526">
        <ele>1266.8</ele>
        <time>2022-01-19T08:29:20Z</time>
      </trkpt>
      <trkpt lat="44.8911" lon="5.54525">
        <ele>1266.9</ele>
        <time>2022-01-19T08:29:21Z</time>
      </trkpt>
      <trkpt lat="44.89109" lon="5.54524">
        <ele>1266.9</ele>
        <time>2022-01-19T08:29:22Z</time>
      </trkpt>
      <trkpt lat="44.89108" lon="5.54522">
        <ele>1267</ele>
        <time>2022-01-19T08:29:23Z</time>
      </trkpt>
      <trkpt lat="44.89108" lon="5.54521">
        <ele>1267</ele>
        <time>2022-01-19T08:29:24Z</time>
      </trkpt>
      <trkpt lat="44.89107" lon="5.5452">
        <ele>1267.1</ele>
        <time>2022-01-19T08:29:25Z</time>
      </trkpt>
      <trkpt lat="44.89107" lon="5.5452">
        <ele>1267.1</ele>
        <time>2022-01-19T08:29:26Z</time>
      </trkpt>
      <trkpt lat="44.89106" lon="5.54519">
        <ele>1267.2</ele>
        <time>2022-01-19T08:29:27Z</time>
      </trkpt>
      <trkpt lat="44.89106" lon="5.54518">
        <ele>1267.2</ele>
        <time>2022-01-19T08:29:28Z</time>
      </trkpt>
      <trkpt lat="44.89106" lon="5.54518">
        <ele>1267.2</ele>
        <time>2022-01-19T08:29:29Z</time>
      </trkpt>
      <trkpt lat="44.89106" lon="5.54517">
        <ele>1267.2</ele>
        <time>2022-01-19T08:29:30Z</time>
      </trkpt>
      <trkpt lat="44.89106" lon="5.54517">
        <ele>1267.2</ele>
        <time>2022-01-19T08:29:31Z</time>
      </trkpt>
      <trkpt lat="44.89106" lon="5.54517">
        <ele>1267.2</ele>
        <time>2022-01-19T08:29:32Z</time>
      </trkpt>
      <trkpt lat="44.89106" lon="5.54517">
        <ele>1267.2</ele>
        <time>2022-01-19T08:29:33Z</time>
      </trkpt>
      <trkpt lat="44.89106" lon="5.54517">
        <ele>1267.2</ele>
        <time>2022-01-19T08:29:34Z</time>
      </trkpt>
      <trkpt lat="44.89106" lon="5.54517">
        <ele>1267.2</ele>
        <time>2022-01-19T08:29:35Z</time>
      </trkpt>
      <trkpt lat="44.89106" lon="5.54517">
        <ele>1267.2</ele>
        <time>2022-01-19T08:29:36Z</time>
      </trkpt>
      <trkpt lat="44.89106" lon="5.54517">
        <ele>1267.2</ele>
        <time>2022-01-19T08:29:37Z</time>
      </trkpt>
      <trkpt lat="44.89106" lon="5.54517">
        <ele>1267.2</ele>
        <time>2022-01-19T08:29:38Z</time>
      </trkpt>
      <trkpt lat="44.89104" lon="5.54515">
        <ele>1267.3</ele>
        <time>2022-01-19T08:29:39Z</time>
      </trkpt>
      <trkpt lat="44.89103" lon="5.54514">
        <ele>1267.4</ele>
        <time>2022-01-19T08:29:40Z</time>
      </trkpt>
      <trkpt lat="44.89103" lon="5.54513">
        <ele>1267.4</ele>
        <time>2022-01-19T08:29:41Z</time>
      </trkpt>
      <trkpt lat="44.89102" lon="5.54512">
        <ele>1267.5</ele>
        <time>2022-01-19T08:29:42Z</time>
      </trkpt>
      <trkpt lat="44.89102" lon="5.54512">
        <ele>1267.5</ele>
        <time>2022-01-19T08:29:43Z</time>
      </trkpt>
      <trkpt lat="44.89101" lon="5.54511">
        <ele>1267.6</ele>
        <time>2022-01-19T08:29:44Z</time>
      </trkpt>
      <trkpt lat="44.89101" lon="5.54511">
        <ele>1267.6</ele>
        <time>2022-01-19T08:29:45Z</time>
      </trkpt>
      <trkpt lat="44.891" lon="5.5451">
        <ele>1267.6</ele>
        <time>2022-01-19T08:29:46Z</time>
      </trkpt>
      <trkpt lat="44.891" lon="5.5451">
        <ele>1267.7</ele>
        <time>2022-01-19T08:29:47Z</time>
      </trkpt>
      <trkpt lat="44.891" lon="5.54509">
        <ele>1267.7</ele>
        <time>2022-01-19T08:29:48Z</time>
      </trkpt>
      <trkpt lat="44.89098" lon="5.54508">
        <ele>1267.8</ele>
        <time>2022-01-19T08:29:49Z</time>
      </trkpt>
      <trkpt lat="44.89098" lon="5.54507">
        <ele>1267.8</ele>
        <time>2022-01-19T08:29:50Z</time>
      </trkpt>
      <trkpt lat="44.89097" lon="5.54506">
        <ele>1267.9</ele>
        <time>2022-01-19T08:29:51Z</time>
      </trkpt>
      <trkpt lat="44.89096" lon="5.54505">
        <ele>1268</ele>
        <time>2022-01-19T08:29:52Z</time>
      </trkpt>
      <trkpt lat="44.89096" lon="5.54504">
        <ele>1268</ele>
        <time>2022-01-19T08:29:53Z</time>
      </trkpt>
      <trkpt lat="44.89095" lon="5.54503">
        <ele>1268.1</ele>
        <time>2022-01-19T08:29:54Z</time>
      </trkpt>
      <trkpt lat="44.89095" lon="5.54503">
        <ele>1268.1</ele>
        <time>2022-01-19T08:29:55Z</time>
      </trkpt>
      <trkpt lat="44.89094" lon="5.54502">
        <ele>1268.2</ele>
        <time>2022-01-19T08:29:56Z</time>
      </trkpt>
      <trkpt lat="44.89094" lon="5.54501">
        <ele>1268.2</ele>
        <time>2022-01-19T08:29:57Z</time>
      </trkpt>
      <trkpt lat="44.89092" lon="5.54501">
        <ele>1268.3</ele>
        <time>2022-01-19T08:29:58Z</time>
      </trkpt>
      <trkpt lat="44.89092" lon="5.545">
        <ele>1268.4</ele>
        <time>2022-01-19T08:29:59Z</time>
      </trkpt>
      <trkpt lat="44.89091" lon="5.54498">
        <ele>1268.5</ele>
        <time>2022-01-19T08:30:00Z</time>
      </trkpt>
      <trkpt lat="44.8909" lon="5.54497">
        <ele>1268.5</ele>
        <time>2022-01-19T08:30:01Z</time>
      </trkpt>
      <trkpt lat="44.8909" lon="5.54497">
        <ele>1268.6</ele>
        <time>2022-01-19T08:30:02Z</time>
      </trkpt>
      <trkpt lat="44.8909" lon="5.54496">
        <ele>1268.6</ele>
        <time>2022-01-19T08:30:03Z</time>
      </trkpt>
      <trkpt lat="44.89089" lon="5.54496">
        <ele>1268.7</ele>
        <time>2022-01-19T08:30:04Z</time>
      </trkpt>
      <trkpt lat="44.89089" lon="5.54495">
        <ele>1268.7</ele>
        <time>2022-01-19T08:30:05Z</time>
      </trkpt>
      <trkpt lat="44.89088" lon="5.54494">
        <ele>1268.8</ele>
        <time>2022-01-19T08:30:06Z</time>
      </trkpt>
      <trkpt lat="44.89088" lon="5.54493">
        <ele>1268.8</ele>
        <time>2022-01-19T08:30:07Z</time>
      </trkpt>
      <trkpt lat="44.89087" lon="5.54492">
        <ele>1268.9</ele>
        <time>2022-01-19T08:30:08Z</time>
      </trkpt>
      <trkpt lat="44.89086" lon="5.54491">
        <ele>1269</ele>
        <time>2022-01-19T08:30:09Z</time>
      </trkpt>
      <trkpt lat="44.89085" lon="5.5449">
        <ele>1269.1</ele>
        <time>2022-01-19T08:30:10Z</time>
      </trkpt>
      <trkpt lat="44.89085" lon="5.5449">
        <ele>1269.1</ele>
        <time>2022-01-19T08:30:11Z</time>
      </trkpt>
      <trkpt lat="44.89084" lon="5.54489">
        <ele>1269.2</ele>
        <time>2022-01-19T08:30:12Z</time>
      </trkpt>
      <trkpt lat="44.89084" lon="5.54489">
        <ele>1269.2</ele>
        <time>2022-01-19T08:30:13Z</time>
      </trkpt>
      <trkpt lat="44.89083" lon="5.54488">
        <ele>1269.3</ele>
        <time>2022-01-19T08:30:14Z</time>
      </trkpt>
      <trkpt lat="44.89082" lon="5.54488">
        <ele>1269.3</ele>
        <time>2022-01-19T08:30:15Z</time>
      </trkpt>
      <trkpt lat="44.89082" lon="5.54487">
        <ele>1269.4</ele>
        <time>2022-01-19T08:30:16Z</time>
      </trkpt>
      <trkpt lat="44.89082" lon="5.54487">
        <ele>1269.4</ele>
        <time>2022-01-19T08:30:17Z</time>
      </trkpt>
      <trkpt lat="44.89081" lon="5.54486">
        <ele>1269.5</ele>
        <time>2022-01-19T08:30:18Z</time>
      </trkpt>
      <trkpt lat="44.8908" lon="5.54485">
        <ele>1269.6</ele>
        <time>2022-01-19T08:30:19Z</time>
      </trkpt>
      <trkpt lat="44.8908" lon="5.54484">
        <ele>1269.6</ele>
        <time>2022-01-19T08:30:20Z</time>
      </trkpt>
      <trkpt lat="44.89079" lon="5.54483">
        <ele>1269.7</ele>
        <time>2022-01-19T08:30:21Z</time>
      </trkpt>
      <trkpt lat="44.89078" lon="5.54482">
        <ele>1269.8</ele>
        <time>2022-01-19T08:30:22Z</time>
      </trkpt>
      <trkpt lat="44.89077" lon="5.54481">
        <ele>1269.9</ele>
        <time>2022-01-19T08:30:23Z</time>
      </trkpt>
      <trkpt lat="44.89076" lon="5.54479">
        <ele>1270</ele>
        <time>2022-01-19T08:30:24Z</time>
      </trkpt>
      <trkpt lat="44.89075" lon="5.54478">
        <ele>1270.1</ele>
        <time>2022-01-19T08:30:25Z</time>
      </trkpt>
      <trkpt lat="44.89074" lon="5.54477">
        <ele>1270.2</ele>
        <time>2022-01-19T08:30:26Z</time>
      </trkpt>
      <trkpt lat="44.89073" lon="5.54475">
        <ele>1270.3</ele>
        <time>2022-01-19T08:30:27Z</time>
      </trkpt>
      <trkpt lat="44.89072" lon="5.54474">
        <ele>1270.4</ele>
        <time>2022-01-19T08:30:28Z</time>
      </trkpt>
      <trkpt lat="44.89071" lon="5.54473">
        <ele>1270.6</ele>
        <time>2022-01-19T08:30:29Z</time>
      </trkpt>
      <trkpt lat="44.89071" lon="5.54471">
        <ele>1270.6</ele>
        <time>2022-01-19T08:30:30Z</time>
      </trkpt>
      <trkpt lat="44.8907" lon="5.5447">
        <ele>1270.7</ele>
        <time>2022-01-19T08:30:31Z</time>
      </trkpt>
      <trkpt lat="44.89069" lon="5.54469">
        <ele>1270.8</ele>
        <time>2022-01-19T08:30:32Z</time>
      </trkpt>
      <trkpt lat="44.89068" lon="5.54468">
        <ele>1270.9</ele>
        <time>2022-01-19T08:30:33Z</time>
      </trkpt>
      <trkpt lat="44.89068" lon="5.54467">
        <ele>1271</ele>
        <time>2022-01-19T08:30:34Z</time>
      </trkpt>
      <trkpt lat="44.89066" lon="5.54465">
        <ele>1271.1</ele>
        <time>2022-01-19T08:30:35Z</time>
      </trkpt>
      <trkpt lat="44.89066" lon="5.54464">
        <ele>1271.2</ele>
        <time>2022-01-19T08:30:36Z</time>
      </trkpt>
      <trkpt lat="44.89065" lon="5.54462">
        <ele>1271.3</ele>
        <time>2022-01-19T08:30:37Z</time>
      </trkpt>
      <trkpt lat="44.89065" lon="5.54462">
        <ele>1271.3</ele>
        <time>2022-01-19T08:30:38Z</time>
      </trkpt>
      <trkpt lat="44.89065" lon="5.54461">
        <ele>1271.4</ele>
        <time>2022-01-19T08:30:39Z</time>
      </trkpt>
      <trkpt lat="44.89064" lon="5.54461">
        <ele>1271.4</ele>
        <time>2022-01-19T08:30:40Z</time>
      </trkpt>
      <trkpt lat="44.89064" lon="5.54461">
        <ele>1271.5</ele>
        <time>2022-01-19T08:30:41Z</time>
      </trkpt>
      <trkpt lat="44.89063" lon="5.5446">
        <ele>1271.6</ele>
        <time>2022-01-19T08:30:42Z</time>
      </trkpt>
      <trkpt lat="44.89062" lon="5.54459">
        <ele>1271.6</ele>
        <time>2022-01-19T08:30:43Z</time>
      </trkpt>
      <trkpt lat="44.89061" lon="5.54458">
        <ele>1271.7</ele>
        <time>2022-01-19T08:30:44Z</time>
      </trkpt>
      <trkpt lat="44.89061" lon="5.54457">
        <ele>1271.8</ele>
        <time>2022-01-19T08:30:45Z</time>
      </trkpt>
      <trkpt lat="44.89061" lon="5.54456">
        <ele>1271.8</ele>
        <time>2022-01-19T08:30:46Z</time>
      </trkpt>
      <trkpt lat="44.8906" lon="5.54456">
        <ele>1271.9</ele>
        <time>2022-01-19T08:30:47Z</time>
      </trkpt>
      <trkpt lat="44.8906" lon="5.54455">
        <ele>1271.9</ele>
        <time>2022-01-19T08:30:48Z</time>
      </trkpt>
      <trkpt lat="44.89059" lon="5.54454">
        <ele>1272</ele>
        <time>2022-01-19T08:30:49Z</time>
      </trkpt>
      <trkpt lat="44.89058" lon="5.54454">
        <ele>1272.1</ele>
        <time>2022-01-19T08:30:50Z</time>
      </trkpt>
      <trkpt lat="44.89058" lon="5.54452">
        <ele>1272.2</ele>
        <time>2022-01-19T08:30:51Z</time>
      </trkpt>
      <trkpt lat="44.89057" lon="5.54451">
        <ele>1272.2</ele>
        <time>2022-01-19T08:30:52Z</time>
      </trkpt>
      <trkpt lat="44.89057" lon="5.5445">
        <ele>1272.3</ele>
        <time>2022-01-19T08:30:53Z</time>
      </trkpt>
      <trkpt lat="44.89056" lon="5.54449">
        <ele>1272.4</ele>
        <time>2022-01-19T08:30:54Z</time>
      </trkpt>
      <trkpt lat="44.89055" lon="5.54448">
        <ele>1272.5</ele>
        <time>2022-01-19T08:30:55Z</time>
      </trkpt>
      <trkpt lat="44.89055" lon="5.54447">
        <ele>1272.5</ele>
        <time>2022-01-19T08:30:56Z</time>
      </trkpt>
      <trkpt lat="44.89055" lon="5.54446">
        <ele>1272.6</ele>
        <time>2022-01-19T08:30:57Z</time>
      </trkpt>
      <trkpt lat="44.89054" lon="5.54446">
        <ele>1272.7</ele>
        <time>2022-01-19T08:30:58Z</time>
      </trkpt>
      <trkpt lat="44.89053" lon="5.54445">
        <ele>1272.7</ele>
        <time>2022-01-19T08:30:59Z</time>
      </trkpt>
      <trkpt lat="44.89053" lon="5.54444">
        <ele>1272.7</ele>
        <time>2022-01-19T08:31:00Z</time>
      </trkpt>
      <trkpt lat="44.89053" lon="5.54443">
        <ele>1272.8</ele>
        <time>2022-01-19T08:31:01Z</time>
      </trkpt>
      <trkpt lat="44.89053" lon="5.54442">
        <ele>1272.9</ele>
        <time>2022-01-19T08:31:02Z</time>
      </trkpt>
      <trkpt lat="44.89052" lon="5.54441">
        <ele>1273</ele>
        <time>2022-01-19T08:31:03Z</time>
      </trkpt>
      <trkpt lat="44.89052" lon="5.5444">
        <ele>1273</ele>
        <time>2022-01-19T08:31:04Z</time>
      </trkpt>
      <trkpt lat="44.89052" lon="5.5444">
        <ele>1273.1</ele>
        <time>2022-01-19T08:31:05Z</time>
      </trkpt>
      <trkpt lat="44.89052" lon="5.54438">
        <ele>1273.1</ele>
        <time>2022-01-19T08:31:06Z</time>
      </trkpt>
      <trkpt lat="44.89051" lon="5.54437">
        <ele>1273.2</ele>
        <time>2022-01-19T08:31:07Z</time>
      </trkpt>
      <trkpt lat="44.89051" lon="5.54436">
        <ele>1273.3</ele>
        <time>2022-01-19T08:31:08Z</time>
      </trkpt>
      <trkpt lat="44.89051" lon="5.54435">
        <ele>1273.3</ele>
        <time>2022-01-19T08:31:09Z</time>
      </trkpt>
      <trkpt lat="44.8905" lon="5.54434">
        <ele>1273.4</ele>
        <time>2022-01-19T08:31:10Z</time>
      </trkpt>
      <trkpt lat="44.8905" lon="5.54433">
        <ele>1273.5</ele>
        <time>2022-01-19T08:31:11Z</time>
      </trkpt>
      <trkpt lat="44.89049" lon="5.54432">
        <ele>1273.6</ele>
        <time>2022-01-19T08:31:12Z</time>
      </trkpt>
      <trkpt lat="44.89049" lon="5.54431">
        <ele>1273.6</ele>
        <time>2022-01-19T08:31:13Z</time>
      </trkpt>
      <trkpt lat="44.89048" lon="5.5443">
        <ele>1273.8</ele>
        <time>2022-01-19T08:31:14Z</time>
      </trkpt>
      <trkpt lat="44.89048" lon="5.54429">
        <ele>1273.8</ele>
        <time>2022-01-19T08:31:15Z</time>
      </trkpt>
      <trkpt lat="44.89047" lon="5.54428">
        <ele>1274</ele>
        <time>2022-01-19T08:31:16Z</time>
      </trkpt>
      <trkpt lat="44.89046" lon="5.54427">
        <ele>1274.1</ele>
        <time>2022-01-19T08:31:17Z</time>
      </trkpt>
      <trkpt lat="44.89045" lon="5.54426">
        <ele>1274.1</ele>
        <time>2022-01-19T08:31:18Z</time>
      </trkpt>
      <trkpt lat="44.89045" lon="5.54425">
        <ele>1274.2</ele>
        <time>2022-01-19T08:31:19Z</time>
      </trkpt>
      <trkpt lat="44.89044" lon="5.54424">
        <ele>1274.3</ele>
        <time>2022-01-19T08:31:20Z</time>
      </trkpt>
      <trkpt lat="44.89043" lon="5.54423">
        <ele>1274.4</ele>
        <time>2022-01-19T08:31:21Z</time>
      </trkpt>
      <trkpt lat="44.89043" lon="5.54422">
        <ele>1274.5</ele>
        <time>2022-01-19T08:31:22Z</time>
      </trkpt>
      <trkpt lat="44.89042" lon="5.54421">
        <ele>1274.6</ele>
        <time>2022-01-19T08:31:23Z</time>
      </trkpt>
      <trkpt lat="44.89041" lon="5.54421">
        <ele>1274.6</ele>
        <time>2022-01-19T08:31:24Z</time>
      </trkpt>
      <trkpt lat="44.8904" lon="5.5442">
        <ele>1274.7</ele>
        <time>2022-01-19T08:31:25Z</time>
      </trkpt>
      <trkpt lat="44.8904" lon="5.54419">
        <ele>1274.8</ele>
        <time>2022-01-19T08:31:26Z</time>
      </trkpt>
      <trkpt lat="44.89039" lon="5.54418">
        <ele>1274.9</ele>
        <time>2022-01-19T08:31:27Z</time>
      </trkpt>
      <trkpt lat="44.89038" lon="5.54417">
        <ele>1275</ele>
        <time>2022-01-19T08:31:28Z</time>
      </trkpt>
      <trkpt lat="44.89038" lon="5.54417">
        <ele>1275</ele>
        <time>2022-01-19T08:31:29Z</time>
      </trkpt>
      <trkpt lat="44.89038" lon="5.54416">
        <ele>1275.1</ele>
        <time>2022-01-19T08:31:30Z</time>
      </trkpt>
      <trkpt lat="44.89038" lon="5.54416">
        <ele>1275.1</ele>
        <time>2022-01-19T08:31:31Z</time>
      </trkpt>
      <trkpt lat="44.89038" lon="5.54415">
        <ele>1275.2</ele>
        <time>2022-01-19T08:31:32Z</time>
      </trkpt>
      <trkpt lat="44.89038" lon="5.54415">
        <ele>1275.2</ele>
        <time>2022-01-19T08:31:33Z</time>
      </trkpt>
      <trkpt lat="44.89038" lon="5.54415">
        <ele>1275.2</ele>
        <time>2022-01-19T08:31:34Z</time>
      </trkpt>
      <trkpt lat="44.89038" lon="5.54415">
        <ele>1275.2</ele>
        <time>2022-01-19T08:31:35Z</time>
      </trkpt>
      <trkpt lat="44.89036" lon="5.54412">
        <ele>1275.4</ele>
        <time>2022-01-19T08:31:36Z</time>
      </trkpt>
      <trkpt lat="44.89036" lon="5.54412">
        <ele>1275.5</ele>
        <time>2022-01-19T08:31:37Z</time>
      </trkpt>
      <trkpt lat="44.89035" lon="5.54411">
        <ele>1275.5</ele>
        <time>2022-01-19T08:31:38Z</time>
      </trkpt>
      <trkpt lat="44.89035" lon="5.5441">
        <ele>1275.6</ele>
        <time>2022-01-19T08:31:39Z</time>
      </trkpt>
      <trkpt lat="44.89034" lon="5.54409">
        <ele>1275.7</ele>
        <time>2022-01-19T08:31:40Z</time>
      </trkpt>
      <trkpt lat="44.89034" lon="5.54408">
        <ele>1275.8</ele>
        <time>2022-01-19T08:31:41Z</time>
      </trkpt>
      <trkpt lat="44.89033" lon="5.54407">
        <ele>1275.9</ele>
        <time>2022-01-19T08:31:42Z</time>
      </trkpt>
      <trkpt lat="44.89032" lon="5.54406">
        <ele>1276</ele>
        <time>2022-01-19T08:31:43Z</time>
      </trkpt>
      <trkpt lat="44.89031" lon="5.54405">
        <ele>1276.1</ele>
        <time>2022-01-19T08:31:44Z</time>
      </trkpt>
      <trkpt lat="44.8903" lon="5.54403">
        <ele>1276.2</ele>
        <time>2022-01-19T08:31:45Z</time>
      </trkpt>
      <trkpt lat="44.89029" lon="5.54401">
        <ele>1276.4</ele>
        <time>2022-01-19T08:31:46Z</time>
      </trkpt>
      <trkpt lat="44.89028" lon="5.544">
        <ele>1276.5</ele>
        <time>2022-01-19T08:31:47Z</time>
      </trkpt>
      <trkpt lat="44.89028" lon="5.54399">
        <ele>1276.6</ele>
        <time>2022-01-19T08:31:48Z</time>
      </trkpt>
      <trkpt lat="44.89027" lon="5.54398">
        <ele>1276.7</ele>
        <time>2022-01-19T08:31:49Z</time>
      </trkpt>
      <trkpt lat="44.89026" lon="5.54396">
        <ele>1276.8</ele>
        <time>2022-01-19T08:31:50Z</time>
      </trkpt>
      <trkpt lat="44.89026" lon="5.54395">
        <ele>1276.8</ele>
        <time>2022-01-19T08:31:51Z</time>
      </trkpt>
      <trkpt lat="44.89026" lon="5.54394">
        <ele>1276.9</ele>
        <time>2022-01-19T08:31:52Z</time>
      </trkpt>
      <trkpt lat="44.89026" lon="5.54393">
        <ele>1277</ele>
        <time>2022-01-19T08:31:53Z</time>
      </trkpt>
      <trkpt lat="44.89026" lon="5.54392">
        <ele>1277.1</ele>
        <time>2022-01-19T08:31:54Z</time>
      </trkpt>
      <trkpt lat="44.89025" lon="5.5439">
        <ele>1277.2</ele>
        <time>2022-01-19T08:31:55Z</time>
      </trkpt>
      <trkpt lat="44.89024" lon="5.54389">
        <ele>1277.3</ele>
        <time>2022-01-19T08:31:56Z</time>
      </trkpt>
      <trkpt lat="44.89023" lon="5.54387">
        <ele>1277.4</ele>
        <time>2022-01-19T08:31:57Z</time>
      </trkpt>
      <trkpt lat="44.89022" lon="5.54386">
        <ele>1277.6</ele>
        <time>2022-01-19T08:31:58Z</time>
      </trkpt>
      <trkpt lat="44.89021" lon="5.54384">
        <ele>1277.7</ele>
        <time>2022-01-19T08:31:59Z</time>
      </trkpt>
      <trkpt lat="44.8902" lon="5.54382">
        <ele>1277.9</ele>
        <time>2022-01-19T08:32:00Z</time>
      </trkpt>
      <trkpt lat="44.8902" lon="5.54381">
        <ele>1278</ele>
        <time>2022-01-19T08:32:01Z</time>
      </trkpt>
      <trkpt lat="44.89019" lon="5.5438">
        <ele>1278.1</ele>
        <time>2022-01-19T08:32:02Z</time>
      </trkpt>
      <trkpt lat="44.89018" lon="5.54379">
        <ele>1278.1</ele>
        <time>2022-01-19T08:32:03Z</time>
      </trkpt>
      <trkpt lat="44.89018" lon="5.54378">
        <ele>1278.3</ele>
        <time>2022-01-19T08:32:04Z</time>
      </trkpt>
      <trkpt lat="44.89016" lon="5.54377">
        <ele>1278.4</ele>
        <time>2022-01-19T08:32:05Z</time>
      </trkpt>
      <trkpt lat="44.89016" lon="5.54375">
        <ele>1278.5</ele>
        <time>2022-01-19T08:32:06Z</time>
      </trkpt>
      <trkpt lat="44.89015" lon="5.54374">
        <ele>1278.6</ele>
        <time>2022-01-19T08:32:07Z</time>
      </trkpt>
      <trkpt lat="44.89014" lon="5.54372">
        <ele>1278.8</ele>
        <time>2022-01-19T08:32:08Z</time>
      </trkpt>
      <trkpt lat="44.89013" lon="5.54371">
        <ele>1278.9</ele>
        <time>2022-01-19T08:32:09Z</time>
      </trkpt>
      <trkpt lat="44.89012" lon="5.5437">
        <ele>1279</ele>
        <time>2022-01-19T08:32:10Z</time>
      </trkpt>
      <trkpt lat="44.89011" lon="5.54369">
        <ele>1279.2</ele>
        <time>2022-01-19T08:32:11Z</time>
      </trkpt>
      <trkpt lat="44.8901" lon="5.54368">
        <ele>1279.3</ele>
        <time>2022-01-19T08:32:12Z</time>
      </trkpt>
      <trkpt lat="44.89009" lon="5.54367">
        <ele>1279.4</ele>
        <time>2022-01-19T08:32:13Z</time>
      </trkpt>
      <trkpt lat="44.89008" lon="5.54365">
        <ele>1279.6</ele>
        <time>2022-01-19T08:32:14Z</time>
      </trkpt>
      <trkpt lat="44.89007" lon="5.54364">
        <ele>1279.8</ele>
        <time>2022-01-19T08:32:15Z</time>
      </trkpt>
      <trkpt lat="44.89006" lon="5.54363">
        <ele>1279.9</ele>
        <time>2022-01-19T08:32:16Z</time>
      </trkpt>
      <trkpt lat="44.89005" lon="5.54362">
        <ele>1280</ele>
        <time>2022-01-19T08:32:17Z</time>
      </trkpt>
      <trkpt lat="44.89004" lon="5.5436">
        <ele>1280.2</ele>
        <time>2022-01-19T08:32:18Z</time>
      </trkpt>
      <trkpt lat="44.89003" lon="5.54359">
        <ele>1280.2</ele>
        <time>2022-01-19T08:32:19Z</time>
      </trkpt>
      <trkpt lat="44.89003" lon="5.54358">
        <ele>1280.3</ele>
        <time>2022-01-19T08:32:20Z</time>
      </trkpt>
      <trkpt lat="44.89002" lon="5.54357">
        <ele>1280.5</ele>
        <time>2022-01-19T08:32:21Z</time>
      </trkpt>
      <trkpt lat="44.89001" lon="5.54356">
        <ele>1280.6</ele>
        <time>2022-01-19T08:32:22Z</time>
      </trkpt>
      <trkpt lat="44.89001" lon="5.54355">
        <ele>1280.7</ele>
        <time>2022-01-19T08:32:23Z</time>
      </trkpt>
      <trkpt lat="44.89" lon="5.54355">
        <ele>1280.7</ele>
        <time>2022-01-19T08:32:24Z</time>
      </trkpt>
      <trkpt lat="44.88999" lon="5.54354">
        <ele>1280.8</ele>
        <time>2022-01-19T08:32:25Z</time>
      </trkpt>
      <trkpt lat="44.88999" lon="5.54353">
        <ele>1280.9</ele>
        <time>2022-01-19T08:32:26Z</time>
      </trkpt>
      <trkpt lat="44.88998" lon="5.54351">
        <ele>1281.1</ele>
        <time>2022-01-19T08:32:27Z</time>
      </trkpt>
      <trkpt lat="44.88997" lon="5.54351">
        <ele>1281.2</ele>
        <time>2022-01-19T08:32:28Z</time>
      </trkpt>
      <trkpt lat="44.88997" lon="5.5435">
        <ele>1281.3</ele>
        <time>2022-01-19T08:32:29Z</time>
      </trkpt>
      <trkpt lat="44.88995" lon="5.54348">
        <ele>1281.5</ele>
        <time>2022-01-19T08:32:30Z</time>
      </trkpt>
      <trkpt lat="44.88995" lon="5.54347">
        <ele>1281.6</ele>
        <time>2022-01-19T08:32:31Z</time>
      </trkpt>
      <trkpt lat="44.88994" lon="5.54346">
        <ele>1281.7</ele>
        <time>2022-01-19T08:32:32Z</time>
      </trkpt>
      <trkpt lat="44.88993" lon="5.54345">
        <ele>1281.8</ele>
        <time>2022-01-19T08:32:33Z</time>
      </trkpt>
      <trkpt lat="44.88993" lon="5.54344">
        <ele>1281.9</ele>
        <time>2022-01-19T08:32:34Z</time>
      </trkpt>
      <trkpt lat="44.88992" lon="5.54343">
        <ele>1282</ele>
        <time>2022-01-19T08:32:35Z</time>
      </trkpt>
      <trkpt lat="44.88992" lon="5.54342">
        <ele>1282.1</ele>
        <time>2022-01-19T08:32:36Z</time>
      </trkpt>
      <trkpt lat="44.88992" lon="5.54341">
        <ele>1282.2</ele>
        <time>2022-01-19T08:32:37Z</time>
      </trkpt>
      <trkpt lat="44.88991" lon="5.5434">
        <ele>1282.3</ele>
        <time>2022-01-19T08:32:38Z</time>
      </trkpt>
      <trkpt lat="44.8899" lon="5.54339">
        <ele>1282.4</ele>
        <time>2022-01-19T08:32:39Z</time>
      </trkpt>
      <trkpt lat="44.88989" lon="5.54337">
        <ele>1282.6</ele>
        <time>2022-01-19T08:32:40Z</time>
      </trkpt>
      <trkpt lat="44.88988" lon="5.54337">
        <ele>1282.7</ele>
        <time>2022-01-19T08:32:41Z</time>
      </trkpt>
      <trkpt lat="44.88987" lon="5.54336">
        <ele>1282.8</ele>
        <time>2022-01-19T08:32:42Z</time>
      </trkpt>
      <trkpt lat="44.88987" lon="5.54335">
        <ele>1282.9</ele>
        <time>2022-01-19T08:32:43Z</time>
      </trkpt>
      <trkpt lat="44.88986" lon="5.54334">
        <ele>1283</ele>
        <time>2022-01-19T08:32:44Z</time>
      </trkpt>
      <trkpt lat="44.88986" lon="5.54332">
        <ele>1283.1</ele>
        <time>2022-01-19T08:32:45Z</time>
      </trkpt>
      <trkpt lat="44.88985" lon="5.54331">
        <ele>1283.3</ele>
        <time>2022-01-19T08:32:46Z</time>
      </trkpt>
      <trkpt lat="44.88984" lon="5.5433">
        <ele>1283.4</ele>
        <time>2022-01-19T08:32:47Z</time>
      </trkpt>
      <trkpt lat="44.88984" lon="5.54329">
        <ele>1283.5</ele>
        <time>2022-01-19T08:32:48Z</time>
      </trkpt>
      <trkpt lat="44.88984" lon="5.54328">
        <ele>1283.6</ele>
        <time>2022-01-19T08:32:49Z</time>
      </trkpt>
      <trkpt lat="44.88983" lon="5.54327">
        <ele>1283.7</ele>
        <time>2022-01-19T08:32:50Z</time>
      </trkpt>
      <trkpt lat="44.88982" lon="5.54326">
        <ele>1283.8</ele>
        <time>2022-01-19T08:32:51Z</time>
      </trkpt>
      <trkpt lat="44.88981" lon="5.54325">
        <ele>1283.9</ele>
        <time>2022-01-19T08:32:52Z</time>
      </trkpt>
      <trkpt lat="44.88981" lon="5.54324">
        <ele>1284.1</ele>
        <time>2022-01-19T08:32:53Z</time>
      </trkpt>
      <trkpt lat="44.8898" lon="5.54323">
        <ele>1284.2</ele>
        <time>2022-01-19T08:32:54Z</time>
      </trkpt>
      <trkpt lat="44.88979" lon="5.54322">
        <ele>1284.3</ele>
        <time>2022-01-19T08:32:55Z</time>
      </trkpt>
      <trkpt lat="44.88979" lon="5.54321">
        <ele>1284.4</ele>
        <time>2022-01-19T08:32:56Z</time>
      </trkpt>
      <trkpt lat="44.88978" lon="5.5432">
        <ele>1284.5</ele>
        <time>2022-01-19T08:32:57Z</time>
      </trkpt>
      <trkpt lat="44.88977" lon="5.54319">
        <ele>1284.6</ele>
        <time>2022-01-19T08:32:58Z</time>
      </trkpt>
      <trkpt lat="44.88977" lon="5.54318">
        <ele>1284.7</ele>
        <time>2022-01-19T08:32:59Z</time>
      </trkpt>
      <trkpt lat="44.88976" lon="5.54317">
        <ele>1284.9</ele>
        <time>2022-01-19T08:33:00Z</time>
      </trkpt>
      <trkpt lat="44.88975" lon="5.54317">
        <ele>1284.9</ele>
        <time>2022-01-19T08:33:01Z</time>
      </trkpt>
      <trkpt lat="44.88975" lon="5.54316">
        <ele>1285</ele>
        <time>2022-01-19T08:33:02Z</time>
      </trkpt>
      <trkpt lat="44.88974" lon="5.54315">
        <ele>1285.1</ele>
        <time>2022-01-19T08:33:03Z</time>
      </trkpt>
      <trkpt lat="44.88974" lon="5.54315">
        <ele>1285.1</ele>
        <time>2022-01-19T08:33:04Z</time>
      </trkpt>
      <trkpt lat="44.88974" lon="5.54314">
        <ele>1285.2</ele>
        <time>2022-01-19T08:33:05Z</time>
      </trkpt>
      <trkpt lat="44.88973" lon="5.54314">
        <ele>1285.3</ele>
        <time>2022-01-19T08:33:06Z</time>
      </trkpt>
      <trkpt lat="44.88973" lon="5.54313">
        <ele>1285.3</ele>
        <time>2022-01-19T08:33:07Z</time>
      </trkpt>
      <trkpt lat="44.88973" lon="5.54312">
        <ele>1285.4</ele>
        <time>2022-01-19T08:33:08Z</time>
      </trkpt>
      <trkpt lat="44.88972" lon="5.54312">
        <ele>1285.5</ele>
        <time>2022-01-19T08:33:09Z</time>
      </trkpt>
      <trkpt lat="44.88972" lon="5.54311">
        <ele>1285.6</ele>
        <time>2022-01-19T08:33:10Z</time>
      </trkpt>
      <trkpt lat="44.88971" lon="5.5431">
        <ele>1285.7</ele>
        <time>2022-01-19T08:33:11Z</time>
      </trkpt>
      <trkpt lat="44.88971" lon="5.54309">
        <ele>1285.8</ele>
        <time>2022-01-19T08:33:12Z</time>
      </trkpt>
      <trkpt lat="44.88971" lon="5.54308">
        <ele>1285.9</ele>
        <time>2022-01-19T08:33:13Z</time>
      </trkpt>
      <trkpt lat="44.8897" lon="5.54307">
        <ele>1286</ele>
        <time>2022-01-19T08:33:14Z</time>
      </trkpt>
      <trkpt lat="44.8897" lon="5.54306">
        <ele>1286.1</ele>
        <time>2022-01-19T08:33:15Z</time>
      </trkpt>
      <trkpt lat="44.88969" lon="5.54304">
        <ele>1286.2</ele>
        <time>2022-01-19T08:33:16Z</time>
      </trkpt>
      <trkpt lat="44.88969" lon="5.54304">
        <ele>1286.3</ele>
        <time>2022-01-19T08:33:17Z</time>
      </trkpt>
      <trkpt lat="44.88968" lon="5.54302">
        <ele>1286.4</ele>
        <time>2022-01-19T08:33:18Z</time>
      </trkpt>
      <trkpt lat="44.88968" lon="5.54302">
        <ele>1286.5</ele>
        <time>2022-01-19T08:33:19Z</time>
      </trkpt>
      <trkpt lat="44.88968" lon="5.543">
        <ele>1286.6</ele>
        <time>2022-01-19T08:33:20Z</time>
      </trkpt>
      <trkpt lat="44.88967" lon="5.54299">
        <ele>1286.8</ele>
        <time>2022-01-19T08:33:21Z</time>
      </trkpt>
      <trkpt lat="44.88966" lon="5.54298">
        <ele>1286.9</ele>
        <time>2022-01-19T08:33:22Z</time>
      </trkpt>
      <trkpt lat="44.88966" lon="5.54297">
        <ele>1287</ele>
        <time>2022-01-19T08:33:23Z</time>
      </trkpt>
      <trkpt lat="44.88965" lon="5.54295">
        <ele>1287.1</ele>
        <time>2022-01-19T08:33:24Z</time>
      </trkpt>
      <trkpt lat="44.88965" lon="5.54294">
        <ele>1287.3</ele>
        <time>2022-01-19T08:33:25Z</time>
      </trkpt>
      <trkpt lat="44.88964" lon="5.54293">
        <ele>1287.4</ele>
        <time>2022-01-19T08:33:26Z</time>
      </trkpt>
      <trkpt lat="44.88964" lon="5.54292">
        <ele>1287.5</ele>
        <time>2022-01-19T08:33:27Z</time>
      </trkpt>
      <trkpt lat="44.88964" lon="5.54291">
        <ele>1287.6</ele>
        <time>2022-01-19T08:33:28Z</time>
      </trkpt>
      <trkpt lat="44.88963" lon="5.5429">
        <ele>1287.7</ele>
        <time>2022-01-19T08:33:29Z</time>
      </trkpt>
      <trkpt lat="44.88963" lon="5.54289">
        <ele>1287.8</ele>
        <time>2022-01-19T08:33:30Z</time>
      </trkpt>
      <trkpt lat="44.88962" lon="5.54288">
        <ele>1287.9</ele>
        <time>2022-01-19T08:33:31Z</time>
      </trkpt>
      <trkpt lat="44.88962" lon="5.54287">
        <ele>1287.9</ele>
        <time>2022-01-19T08:33:32Z</time>
      </trkpt>
      <trkpt lat="44.88962" lon="5.54286">
        <ele>1288</ele>
        <time>2022-01-19T08:33:33Z</time>
      </trkpt>
      <trkpt lat="44.88961" lon="5.54286">
        <ele>1288.2</ele>
        <time>2022-01-19T08:33:34Z</time>
      </trkpt>
      <trkpt lat="44.8896" lon="5.54285">
        <ele>1288.3</ele>
        <time>2022-01-19T08:33:35Z</time>
      </trkpt>
      <trkpt lat="44.8896" lon="5.54283">
        <ele>1288.4</ele>
        <time>2022-01-19T08:33:36Z</time>
      </trkpt>
      <trkpt lat="44.8896" lon="5.54282">
        <ele>1288.5</ele>
        <time>2022-01-19T08:33:37Z</time>
      </trkpt>
      <trkpt lat="44.88959" lon="5.54281">
        <ele>1288.6</ele>
        <time>2022-01-19T08:33:38Z</time>
      </trkpt>
      <trkpt lat="44.88959" lon="5.54281">
        <ele>1288.7</ele>
        <time>2022-01-19T08:33:39Z</time>
      </trkpt>
      <trkpt lat="44.88958" lon="5.5428">
        <ele>1288.8</ele>
        <time>2022-01-19T08:33:40Z</time>
      </trkpt>
      <trkpt lat="44.88958" lon="5.5428">
        <ele>1288.8</ele>
        <time>2022-01-19T08:33:41Z</time>
      </trkpt>
      <trkpt lat="44.88958" lon="5.54279">
        <ele>1288.9</ele>
        <time>2022-01-19T08:33:42Z</time>
      </trkpt>
      <trkpt lat="44.88957" lon="5.54278">
        <ele>1289.1</ele>
        <time>2022-01-19T08:33:43Z</time>
      </trkpt>
      <trkpt lat="44.88957" lon="5.54277">
        <ele>1289.2</ele>
        <time>2022-01-19T08:33:44Z</time>
      </trkpt>
      <trkpt lat="44.88956" lon="5.54276">
        <ele>1289.3</ele>
        <time>2022-01-19T08:33:45Z</time>
      </trkpt>
      <trkpt lat="44.88956" lon="5.54275">
        <ele>1289.4</ele>
        <time>2022-01-19T08:33:46Z</time>
      </trkpt>
      <trkpt lat="44.88955" lon="5.54274">
        <ele>1289.6</ele>
        <time>2022-01-19T08:33:47Z</time>
      </trkpt>
      <trkpt lat="44.88955" lon="5.54273">
        <ele>1289.6</ele>
        <time>2022-01-19T08:33:48Z</time>
      </trkpt>
      <trkpt lat="44.88954" lon="5.54273">
        <ele>1289.8</ele>
        <time>2022-01-19T08:33:49Z</time>
      </trkpt>
      <trkpt lat="44.88954" lon="5.54272">
        <ele>1289.9</ele>
        <time>2022-01-19T08:33:50Z</time>
      </trkpt>
      <trkpt lat="44.88953" lon="5.5427">
        <ele>1290.1</ele>
        <time>2022-01-19T08:33:51Z</time>
      </trkpt>
      <trkpt lat="44.88952" lon="5.54269">
        <ele>1290.3</ele>
        <time>2022-01-19T08:33:52Z</time>
      </trkpt>
      <trkpt lat="44.88952" lon="5.54268">
        <ele>1290.4</ele>
        <time>2022-01-19T08:33:53Z</time>
      </trkpt>
      <trkpt lat="44.88951" lon="5.54266">
        <ele>1290.5</ele>
        <time>2022-01-19T08:33:54Z</time>
      </trkpt>
      <trkpt lat="44.8895" lon="5.54265">
        <ele>1290.7</ele>
        <time>2022-01-19T08:33:55Z</time>
      </trkpt>
      <trkpt lat="44.8895" lon="5.54264">
        <ele>1290.8</ele>
        <time>2022-01-19T08:33:56Z</time>
      </trkpt>
      <trkpt lat="44.88949" lon="5.54263">
        <ele>1291</ele>
        <time>2022-01-19T08:33:57Z</time>
      </trkpt>
      <trkpt lat="44.88949" lon="5.54262">
        <ele>1291.1</ele>
        <time>2022-01-19T08:33:58Z</time>
      </trkpt>
      <trkpt lat="44.88948" lon="5.54261">
        <ele>1291.2</ele>
        <time>2022-01-19T08:33:59Z</time>
      </trkpt>
      <trkpt lat="44.88947" lon="5.5426">
        <ele>1291.4</ele>
        <time>2022-01-19T08:34:00Z</time>
      </trkpt>
      <trkpt lat="44.88947" lon="5.54259">
        <ele>1291.5</ele>
        <time>2022-01-19T08:34:01Z</time>
      </trkpt>
      <trkpt lat="44.88946" lon="5.54258">
        <ele>1291.5</ele>
        <time>2022-01-19T08:34:02Z</time>
      </trkpt>
      <trkpt lat="44.88946" lon="5.54257">
        <ele>1291.7</ele>
        <time>2022-01-19T08:34:03Z</time>
      </trkpt>
      <trkpt lat="44.88945" lon="5.54257">
        <ele>1291.8</ele>
        <time>2022-01-19T08:34:04Z</time>
      </trkpt>
      <trkpt lat="44.88944" lon="5.54256">
        <ele>1291.8</ele>
        <time>2022-01-19T08:34:05Z</time>
      </trkpt>
      <trkpt lat="44.88944" lon="5.54255">
        <ele>1291.9</ele>
        <time>2022-01-19T08:34:06Z</time>
      </trkpt>
      <trkpt lat="44.88944" lon="5.54254">
        <ele>1292</ele>
        <time>2022-01-19T08:34:07Z</time>
      </trkpt>
      <trkpt lat="44.88943" lon="5.54253">
        <ele>1292.1</ele>
        <time>2022-01-19T08:34:08Z</time>
      </trkpt>
      <trkpt lat="44.88943" lon="5.54253">
        <ele>1292.2</ele>
        <time>2022-01-19T08:34:09Z</time>
      </trkpt>
      <trkpt lat="44.88942" lon="5.54252">
        <ele>1292.2</ele>
        <time>2022-01-19T08:34:10Z</time>
      </trkpt>
      <trkpt lat="44.88942" lon="5.54251">
        <ele>1292.3</ele>
        <time>2022-01-19T08:34:11Z</time>
      </trkpt>
      <trkpt lat="44.88942" lon="5.5425">
        <ele>1292.4</ele>
        <time>2022-01-19T08:34:12Z</time>
      </trkpt>
      <trkpt lat="44.88941" lon="5.54249">
        <ele>1292.5</ele>
        <time>2022-01-19T08:34:13Z</time>
      </trkpt>
      <trkpt lat="44.88941" lon="5.54248">
        <ele>1292.6</ele>
        <time>2022-01-19T08:34:14Z</time>
      </trkpt>
      <trkpt lat="44.88941" lon="5.54247">
        <ele>1292.7</ele>
        <time>2022-01-19T08:34:15Z</time>
      </trkpt>
      <trkpt lat="44.8894" lon="5.54245">
        <ele>1292.9</ele>
        <time>2022-01-19T08:34:16Z</time>
      </trkpt>
      <trkpt lat="44.8894" lon="5.54244">
        <ele>1293</ele>
        <time>2022-01-19T08:34:17Z</time>
      </trkpt>
      <trkpt lat="44.88939" lon="5.54243">
        <ele>1293</ele>
        <time>2022-01-19T08:34:18Z</time>
      </trkpt>
      <trkpt lat="44.88939" lon="5.54242">
        <ele>1293.1</ele>
        <time>2022-01-19T08:34:19Z</time>
      </trkpt>
      <trkpt lat="44.88939" lon="5.5424">
        <ele>1293.3</ele>
        <time>2022-01-19T08:34:20Z</time>
      </trkpt>
      <trkpt lat="44.88938" lon="5.54239">
        <ele>1293.3</ele>
        <time>2022-01-19T08:34:21Z</time>
      </trkpt>
      <trkpt lat="44.88938" lon="5.54238">
        <ele>1293.4</ele>
        <time>2022-01-19T08:34:22Z</time>
      </trkpt>
      <trkpt lat="44.88938" lon="5.54238">
        <ele>1293.5</ele>
        <time>2022-01-19T08:34:23Z</time>
      </trkpt>
      <trkpt lat="44.88937" lon="5.54237">
        <ele>1293.5</ele>
        <time>2022-01-19T08:34:24Z</time>
      </trkpt>
      <trkpt lat="44.88937" lon="5.54236">
        <ele>1293.6</ele>
        <time>2022-01-19T08:34:25Z</time>
      </trkpt>
      <trkpt lat="44.88937" lon="5.54235">
        <ele>1293.7</ele>
        <time>2022-01-19T08:34:26Z</time>
      </trkpt>
      <trkpt lat="44.88937" lon="5.54234">
        <ele>1293.8</ele>
        <time>2022-01-19T08:34:27Z</time>
      </trkpt>
      <trkpt lat="44.88937" lon="5.54234">
        <ele>1293.8</ele>
        <time>2022-01-19T08:34:28Z</time>
      </trkpt>
      <trkpt lat="44.88936" lon="5.54233">
        <ele>1293.9</ele>
        <time>2022-01-19T08:34:29Z</time>
      </trkpt>
      <trkpt lat="44.88936" lon="5.54232">
        <ele>1294</ele>
        <time>2022-01-19T08:34:30Z</time>
      </trkpt>
      <trkpt lat="44.88935" lon="5.5423">
        <ele>1294.1</ele>
        <time>2022-01-19T08:34:31Z</time>
      </trkpt>
      <trkpt lat="44.88935" lon="5.54229">
        <ele>1294.2</ele>
        <time>2022-01-19T08:34:32Z</time>
      </trkpt>
      <trkpt lat="44.88934" lon="5.54228">
        <ele>1294.3</ele>
        <time>2022-01-19T08:34:33Z</time>
      </trkpt>
      <trkpt lat="44.88934" lon="5.54227">
        <ele>1294.4</ele>
        <time>2022-01-19T08:34:34Z</time>
      </trkpt>
      <trkpt lat="44.88933" lon="5.54227">
        <ele>1294.4</ele>
        <time>2022-01-19T08:34:35Z</time>
      </trkpt>
      <trkpt lat="44.88933" lon="5.54225">
        <ele>1294.6</ele>
        <time>2022-01-19T08:34:36Z</time>
      </trkpt>
      <trkpt lat="44.88932" lon="5.54224">
        <ele>1294.7</ele>
        <time>2022-01-19T08:34:37Z</time>
      </trkpt>
      <trkpt lat="44.88932" lon="5.54223">
        <ele>1294.8</ele>
        <time>2022-01-19T08:34:38Z</time>
      </trkpt>
      <trkpt lat="44.88932" lon="5.54222">
        <ele>1294.8</ele>
        <time>2022-01-19T08:34:39Z</time>
      </trkpt>
      <trkpt lat="44.88931" lon="5.54221">
        <ele>1294.9</ele>
        <time>2022-01-19T08:34:40Z</time>
      </trkpt>
      <trkpt lat="44.88931" lon="5.5422">
        <ele>1295</ele>
        <time>2022-01-19T08:34:41Z</time>
      </trkpt>
      <trkpt lat="44.88931" lon="5.54219">
        <ele>1295.1</ele>
        <time>2022-01-19T08:34:42Z</time>
      </trkpt>
      <trkpt lat="44.8893" lon="5.54218">
        <ele>1295.2</ele>
        <time>2022-01-19T08:34:43Z</time>
      </trkpt>
      <trkpt lat="44.88929" lon="5.54216">
        <ele>1295.4</ele>
        <time>2022-01-19T08:34:44Z</time>
      </trkpt>
      <trkpt lat="44.88929" lon="5.54215">
        <ele>1295.5</ele>
        <time>2022-01-19T08:34:45Z</time>
      </trkpt>
      <trkpt lat="44.88928" lon="5.54214">
        <ele>1295.7</ele>
        <time>2022-01-19T08:34:46Z</time>
      </trkpt>
      <trkpt lat="44.88928" lon="5.54213">
        <ele>1295.8</ele>
        <time>2022-01-19T08:34:47Z</time>
      </trkpt>
      <trkpt lat="44.88927" lon="5.54211">
        <ele>1296.1</ele>
        <time>2022-01-19T08:34:48Z</time>
      </trkpt>
      <trkpt lat="44.88926" lon="5.5421">
        <ele>1296.2</ele>
        <time>2022-01-19T08:34:49Z</time>
      </trkpt>
      <trkpt lat="44.88926" lon="5.54209">
        <ele>1296.3</ele>
        <time>2022-01-19T08:34:50Z</time>
      </trkpt>
      <trkpt lat="44.88925" lon="5.54208">
        <ele>1296.6</ele>
        <time>2022-01-19T08:34:51Z</time>
      </trkpt>
      <trkpt lat="44.88924" lon="5.54207">
        <ele>1296.6</ele>
        <time>2022-01-19T08:34:52Z</time>
      </trkpt>
      <trkpt lat="44.88924" lon="5.54206">
        <ele>1296.8</ele>
        <time>2022-01-19T08:34:53Z</time>
      </trkpt>
      <trkpt lat="44.88923" lon="5.54205">
        <ele>1296.9</ele>
        <time>2022-01-19T08:34:54Z</time>
      </trkpt>
      <trkpt lat="44.88922" lon="5.54203">
        <ele>1297.1</ele>
        <time>2022-01-19T08:34:55Z</time>
      </trkpt>
      <trkpt lat="44.88921" lon="5.54202">
        <ele>1297.3</ele>
        <time>2022-01-19T08:34:56Z</time>
      </trkpt>
      <trkpt lat="44.88921" lon="5.542">
        <ele>1297.5</ele>
        <time>2022-01-19T08:34:57Z</time>
      </trkpt>
      <trkpt lat="44.8892" lon="5.54199">
        <ele>1297.7</ele>
        <time>2022-01-19T08:34:58Z</time>
      </trkpt>
      <trkpt lat="44.88919" lon="5.54198">
        <ele>1297.9</ele>
        <time>2022-01-19T08:34:59Z</time>
      </trkpt>
      <trkpt lat="44.88918" lon="5.54197">
        <ele>1298.1</ele>
        <time>2022-01-19T08:35:00Z</time>
      </trkpt>
      <trkpt lat="44.88918" lon="5.54196">
        <ele>1298.2</ele>
        <time>2022-01-19T08:35:01Z</time>
      </trkpt>
      <trkpt lat="44.88917" lon="5.54195">
        <ele>1298.4</ele>
        <time>2022-01-19T08:35:02Z</time>
      </trkpt>
      <trkpt lat="44.88917" lon="5.54194">
        <ele>1298.5</ele>
        <time>2022-01-19T08:35:03Z</time>
      </trkpt>
      <trkpt lat="44.88916" lon="5.54193">
        <ele>1298.7</ele>
        <time>2022-01-19T08:35:04Z</time>
      </trkpt>
      <trkpt lat="44.88915" lon="5.54192">
        <ele>1298.8</ele>
        <time>2022-01-19T08:35:05Z</time>
      </trkpt>
      <trkpt lat="44.88915" lon="5.54192">
        <ele>1298.9</ele>
        <time>2022-01-19T08:35:06Z</time>
      </trkpt>
      <trkpt lat="44.88915" lon="5.54192">
        <ele>1299</ele>
        <time>2022-01-19T08:35:07Z</time>
      </trkpt>
      <trkpt lat="44.88913" lon="5.54191">
        <ele>1299.2</ele>
        <time>2022-01-19T08:35:08Z</time>
      </trkpt>
      <trkpt lat="44.88913" lon="5.54191">
        <ele>1299.2</ele>
        <time>2022-01-19T08:35:09Z</time>
      </trkpt>
      <trkpt lat="44.88913" lon="5.5419">
        <ele>1299.4</ele>
        <time>2022-01-19T08:35:10Z</time>
      </trkpt>
      <trkpt lat="44.88912" lon="5.54189">
        <ele>1299.6</ele>
        <time>2022-01-19T08:35:11Z</time>
      </trkpt>
      <trkpt lat="44.88912" lon="5.54189">
        <ele>1299.6</ele>
        <time>2022-01-19T08:35:12Z</time>
      </trkpt>
      <trkpt lat="44.88911" lon="5.54188">
        <ele>1299.8</ele>
        <time>2022-01-19T08:35:13Z</time>
      </trkpt>
      <trkpt lat="44.88911" lon="5.54187">
        <ele>1299.9</ele>
        <time>2022-01-19T08:35:14Z</time>
      </trkpt>
      <trkpt lat="44.8891" lon="5.54187">
        <ele>1300.1</ele>
        <time>2022-01-19T08:35:15Z</time>
      </trkpt>
      <trkpt lat="44.8891" lon="5.54187">
        <ele>1300.1</ele>
        <time>2022-01-19T08:35:16Z</time>
      </trkpt>
      <trkpt lat="44.88909" lon="5.54186">
        <ele>1300.4</ele>
        <time>2022-01-19T08:35:17Z</time>
      </trkpt>
      <trkpt lat="44.88908" lon="5.54185">
        <ele>1300.5</ele>
        <time>2022-01-19T08:35:18Z</time>
      </trkpt>
      <trkpt lat="44.88908" lon="5.54185">
        <ele>1300.6</ele>
        <time>2022-01-19T08:35:19Z</time>
      </trkpt>
      <trkpt lat="44.88907" lon="5.54184">
        <ele>1300.8</ele>
        <time>2022-01-19T08:35:20Z</time>
      </trkpt>
      <trkpt lat="44.88906" lon="5.54183">
        <ele>1301</ele>
        <time>2022-01-19T08:35:21Z</time>
      </trkpt>
      <trkpt lat="44.88906" lon="5.54182">
        <ele>1301.1</ele>
        <time>2022-01-19T08:35:22Z</time>
      </trkpt>
      <trkpt lat="44.88905" lon="5.54181">
        <ele>1301.2</ele>
        <time>2022-01-19T08:35:23Z</time>
      </trkpt>
      <trkpt lat="44.88905" lon="5.54181">
        <ele>1301.4</ele>
        <time>2022-01-19T08:35:24Z</time>
      </trkpt>
      <trkpt lat="44.88904" lon="5.5418">
        <ele>1301.5</ele>
        <time>2022-01-19T08:35:25Z</time>
      </trkpt>
      <trkpt lat="44.88904" lon="5.54179">
        <ele>1301.6</ele>
        <time>2022-01-19T08:35:26Z</time>
      </trkpt>
      <trkpt lat="44.88903" lon="5.54178">
        <ele>1301.9</ele>
        <time>2022-01-19T08:35:27Z</time>
      </trkpt>
      <trkpt lat="44.88902" lon="5.54177">
        <ele>1302.1</ele>
        <time>2022-01-19T08:35:28Z</time>
      </trkpt>
      <trkpt lat="44.88902" lon="5.54176">
        <ele>1302.2</ele>
        <time>2022-01-19T08:35:29Z</time>
      </trkpt>
      <trkpt lat="44.88901" lon="5.54175">
        <ele>1302.4</ele>
        <time>2022-01-19T08:35:30Z</time>
      </trkpt>
      <trkpt lat="44.88901" lon="5.54175">
        <ele>1302.4</ele>
        <time>2022-01-19T08:35:31Z</time>
      </trkpt>
      <trkpt lat="44.889" lon="5.54174">
        <ele>1302.6</ele>
        <time>2022-01-19T08:35:32Z</time>
      </trkpt>
      <trkpt lat="44.889" lon="5.54174">
        <ele>1302.6</ele>
        <time>2022-01-19T08:35:33Z</time>
      </trkpt>
      <trkpt lat="44.88899" lon="5.54173">
        <ele>1302.8</ele>
        <time>2022-01-19T08:35:34Z</time>
      </trkpt>
      <trkpt lat="44.88899" lon="5.54173">
        <ele>1302.8</ele>
        <time>2022-01-19T08:35:35Z</time>
      </trkpt>
      <trkpt lat="44.88899" lon="5.54172">
        <ele>1302.9</ele>
        <time>2022-01-19T08:35:36Z</time>
      </trkpt>
      <trkpt lat="44.88899" lon="5.54172">
        <ele>1303</ele>
        <time>2022-01-19T08:35:37Z</time>
      </trkpt>
      <trkpt lat="44.88898" lon="5.54171">
        <ele>1303.1</ele>
        <time>2022-01-19T08:35:38Z</time>
      </trkpt>
      <trkpt lat="44.88897" lon="5.5417">
        <ele>1303.3</ele>
        <time>2022-01-19T08:35:39Z</time>
      </trkpt>
      <trkpt lat="44.88897" lon="5.54169">
        <ele>1303.4</ele>
        <time>2022-01-19T08:35:40Z</time>
      </trkpt>
      <trkpt lat="44.88896" lon="5.54169">
        <ele>1303.6</ele>
        <time>2022-01-19T08:35:41Z</time>
      </trkpt>
      <trkpt lat="44.88895" lon="5.54168">
        <ele>1303.8</ele>
        <time>2022-01-19T08:35:42Z</time>
      </trkpt>
      <trkpt lat="44.88894" lon="5.54167">
        <ele>1303.9</ele>
        <time>2022-01-19T08:35:43Z</time>
      </trkpt>
      <trkpt lat="44.88893" lon="5.54165">
        <ele>1304.2</ele>
        <time>2022-01-19T08:35:44Z</time>
      </trkpt>
      <trkpt lat="44.88892" lon="5.54165">
        <ele>1304.4</ele>
        <time>2022-01-19T08:35:45Z</time>
      </trkpt>
      <trkpt lat="44.88891" lon="5.54165">
        <ele>1304.6</ele>
        <time>2022-01-19T08:35:46Z</time>
      </trkpt>
      <trkpt lat="44.88891" lon="5.54164">
        <ele>1304.7</ele>
        <time>2022-01-19T08:35:47Z</time>
      </trkpt>
      <trkpt lat="44.8889" lon="5.54163">
        <ele>1304.8</ele>
        <time>2022-01-19T08:35:48Z</time>
      </trkpt>
      <trkpt lat="44.8889" lon="5.54163">
        <ele>1304.9</ele>
        <time>2022-01-19T08:35:49Z</time>
      </trkpt>
      <trkpt lat="44.88889" lon="5.54162">
        <ele>1305</ele>
        <time>2022-01-19T08:35:50Z</time>
      </trkpt>
      <trkpt lat="44.88889" lon="5.54161">
        <ele>1305.1</ele>
        <time>2022-01-19T08:35:51Z</time>
      </trkpt>
      <trkpt lat="44.88889" lon="5.5416">
        <ele>1305.2</ele>
        <time>2022-01-19T08:35:52Z</time>
      </trkpt>
      <trkpt lat="44.88888" lon="5.54159">
        <ele>1305.4</ele>
        <time>2022-01-19T08:35:53Z</time>
      </trkpt>
      <trkpt lat="44.88888" lon="5.54158">
        <ele>1305.6</ele>
        <time>2022-01-19T08:35:54Z</time>
      </trkpt>
      <trkpt lat="44.88888" lon="5.54157">
        <ele>1305.7</ele>
        <time>2022-01-19T08:35:55Z</time>
      </trkpt>
      <trkpt lat="44.88888" lon="5.54156">
        <ele>1305.8</ele>
        <time>2022-01-19T08:35:56Z</time>
      </trkpt>
      <trkpt lat="44.88888" lon="5.54155">
        <ele>1305.9</ele>
        <time>2022-01-19T08:35:57Z</time>
      </trkpt>
      <trkpt lat="44.88887" lon="5.54154">
        <ele>1306.1</ele>
        <time>2022-01-19T08:35:58Z</time>
      </trkpt>
      <trkpt lat="44.88887" lon="5.54153">
        <ele>1306.3</ele>
        <time>2022-01-19T08:35:59Z</time>
      </trkpt>
      <trkpt lat="44.88886" lon="5.54152">
        <ele>1306.4</ele>
        <time>2022-01-19T08:36:00Z</time>
      </trkpt>
      <trkpt lat="44.88886" lon="5.54151">
        <ele>1306.6</ele>
        <time>2022-01-19T08:36:01Z</time>
      </trkpt>
      <trkpt lat="44.88886" lon="5.5415">
        <ele>1306.7</ele>
        <time>2022-01-19T08:36:02Z</time>
      </trkpt>
      <trkpt lat="44.88885" lon="5.54149">
        <ele>1306.8</ele>
        <time>2022-01-19T08:36:03Z</time>
      </trkpt>
      <trkpt lat="44.88885" lon="5.54148">
        <ele>1306.9</ele>
        <time>2022-01-19T08:36:04Z</time>
      </trkpt>
      <trkpt lat="44.88884" lon="5.54147">
        <ele>1307.1</ele>
        <time>2022-01-19T08:36:05Z</time>
      </trkpt>
      <trkpt lat="44.88884" lon="5.54146">
        <ele>1307.3</ele>
        <time>2022-01-19T08:36:06Z</time>
      </trkpt>
      <trkpt lat="44.88884" lon="5.54145">
        <ele>1307.4</ele>
        <time>2022-01-19T08:36:07Z</time>
      </trkpt>
      <trkpt lat="44.88883" lon="5.54145">
        <ele>1307.5</ele>
        <time>2022-01-19T08:36:08Z</time>
      </trkpt>
      <trkpt lat="44.88882" lon="5.54144">
        <ele>1307.7</ele>
        <time>2022-01-19T08:36:09Z</time>
      </trkpt>
      <trkpt lat="44.88881" lon="5.54143">
        <ele>1307.9</ele>
        <time>2022-01-19T08:36:10Z</time>
      </trkpt>
      <trkpt lat="44.88881" lon="5.54142">
        <ele>1308.1</ele>
        <time>2022-01-19T08:36:11Z</time>
      </trkpt>
      <trkpt lat="44.8888" lon="5.54141">
        <ele>1308.2</ele>
        <time>2022-01-19T08:36:12Z</time>
      </trkpt>
      <trkpt lat="44.8888" lon="5.5414">
        <ele>1308.3</ele>
        <time>2022-01-19T08:36:13Z</time>
      </trkpt>
      <trkpt lat="44.88879" lon="5.5414">
        <ele>1308.4</ele>
        <time>2022-01-19T08:36:14Z</time>
      </trkpt>
      <trkpt lat="44.88879" lon="5.54139">
        <ele>1308.5</ele>
        <time>2022-01-19T08:36:15Z</time>
      </trkpt>
      <trkpt lat="44.88879" lon="5.54138">
        <ele>1308.6</ele>
        <time>2022-01-19T08:36:16Z</time>
      </trkpt>
      <trkpt lat="44.88878" lon="5.54138">
        <ele>1308.8</ele>
        <time>2022-01-19T08:36:17Z</time>
      </trkpt>
      <trkpt lat="44.88878" lon="5.54137">
        <ele>1308.9</ele>
        <time>2022-01-19T08:36:18Z</time>
      </trkpt>
      <trkpt lat="44.88877" lon="5.54136">
        <ele>1309.1</ele>
        <time>2022-01-19T08:36:19Z</time>
      </trkpt>
      <trkpt lat="44.88877" lon="5.54135">
        <ele>1309.1</ele>
        <time>2022-01-19T08:36:20Z</time>
      </trkpt>
      <trkpt lat="44.88876" lon="5.54134">
        <ele>1309.4</ele>
        <time>2022-01-19T08:36:21Z</time>
      </trkpt>
      <trkpt lat="44.88876" lon="5.54132">
        <ele>1309.5</ele>
        <time>2022-01-19T08:36:22Z</time>
      </trkpt>
      <trkpt lat="44.88876" lon="5.54131">
        <ele>1309.7</ele>
        <time>2022-01-19T08:36:23Z</time>
      </trkpt>
      <trkpt lat="44.88875" lon="5.5413">
        <ele>1309.8</ele>
        <time>2022-01-19T08:36:24Z</time>
      </trkpt>
      <trkpt lat="44.88875" lon="5.5413">
        <ele>1309.9</ele>
        <time>2022-01-19T08:36:25Z</time>
      </trkpt>
      <trkpt lat="44.88875" lon="5.5413">
        <ele>1310</ele>
        <time>2022-01-19T08:36:26Z</time>
      </trkpt>
      <trkpt lat="44.88875" lon="5.54129">
        <ele>1310</ele>
        <time>2022-01-19T08:36:27Z</time>
      </trkpt>
      <trkpt lat="44.88875" lon="5.54128">
        <ele>1310.2</ele>
        <time>2022-01-19T08:36:28Z</time>
      </trkpt>
      <trkpt lat="44.88875" lon="5.54127">
        <ele>1310.3</ele>
        <time>2022-01-19T08:36:29Z</time>
      </trkpt>
      <trkpt lat="44.88875" lon="5.54125">
        <ele>1310.5</ele>
        <time>2022-01-19T08:36:30Z</time>
      </trkpt>
      <trkpt lat="44.88874" lon="5.54124">
        <ele>1310.6</ele>
        <time>2022-01-19T08:36:31Z</time>
      </trkpt>
      <trkpt lat="44.88874" lon="5.54123">
        <ele>1310.8</ele>
        <time>2022-01-19T08:36:32Z</time>
      </trkpt>
      <trkpt lat="44.88874" lon="5.54122">
        <ele>1310.9</ele>
        <time>2022-01-19T08:36:33Z</time>
      </trkpt>
      <trkpt lat="44.88874" lon="5.5412">
        <ele>1311.1</ele>
        <time>2022-01-19T08:36:34Z</time>
      </trkpt>
      <trkpt lat="44.88874" lon="5.54119">
        <ele>1311.2</ele>
        <time>2022-01-19T08:36:35Z</time>
      </trkpt>
      <trkpt lat="44.88874" lon="5.54119">
        <ele>1311.3</ele>
        <time>2022-01-19T08:36:36Z</time>
      </trkpt>
      <trkpt lat="44.88873" lon="5.54117">
        <ele>1311.5</ele>
        <time>2022-01-19T08:36:37Z</time>
      </trkpt>
      <trkpt lat="44.88873" lon="5.54116">
        <ele>1311.6</ele>
        <time>2022-01-19T08:36:38Z</time>
      </trkpt>
      <trkpt lat="44.88873" lon="5.54115">
        <ele>1311.7</ele>
        <time>2022-01-19T08:36:39Z</time>
      </trkpt>
      <trkpt lat="44.88873" lon="5.54114">
        <ele>1311.9</ele>
        <time>2022-01-19T08:36:40Z</time>
      </trkpt>
      <trkpt lat="44.88873" lon="5.54113">
        <ele>1312</ele>
        <time>2022-01-19T08:36:41Z</time>
      </trkpt>
      <trkpt lat="44.88873" lon="5.54112">
        <ele>1312.1</ele>
        <time>2022-01-19T08:36:42Z</time>
      </trkpt>
      <trkpt lat="44.88873" lon="5.54111">
        <ele>1312.2</ele>
        <time>2022-01-19T08:36:43Z</time>
      </trkpt>
      <trkpt lat="44.88871" lon="5.5411">
        <ele>1312.5</ele>
        <time>2022-01-19T08:36:44Z</time>
      </trkpt>
      <trkpt lat="44.88871" lon="5.54109">
        <ele>1312.7</ele>
        <time>2022-01-19T08:36:45Z</time>
      </trkpt>
      <trkpt lat="44.88871" lon="5.54107">
        <ele>1312.8</ele>
        <time>2022-01-19T08:36:46Z</time>
      </trkpt>
      <trkpt lat="44.88871" lon="5.54106">
        <ele>1312.9</ele>
        <time>2022-01-19T08:36:47Z</time>
      </trkpt>
      <trkpt lat="44.88871" lon="5.54105">
        <ele>1313</ele>
        <time>2022-01-19T08:36:48Z</time>
      </trkpt>
      <trkpt lat="44.88871" lon="5.54104">
        <ele>1313.2</ele>
        <time>2022-01-19T08:36:49Z</time>
      </trkpt>
      <trkpt lat="44.88871" lon="5.54102">
        <ele>1313.4</ele>
        <time>2022-01-19T08:36:50Z</time>
      </trkpt>
      <trkpt lat="44.88872" lon="5.54102">
        <ele>1313.5</ele>
        <time>2022-01-19T08:36:51Z</time>
      </trkpt>
      <trkpt lat="44.88871" lon="5.541">
        <ele>1313.7</ele>
        <time>2022-01-19T08:36:52Z</time>
      </trkpt>
      <trkpt lat="44.88871" lon="5.54099">
        <ele>1313.9</ele>
        <time>2022-01-19T08:36:53Z</time>
      </trkpt>
      <trkpt lat="44.8887" lon="5.54098">
        <ele>1314.1</ele>
        <time>2022-01-19T08:36:54Z</time>
      </trkpt>
      <trkpt lat="44.88869" lon="5.54097">
        <ele>1314.2</ele>
        <time>2022-01-19T08:36:55Z</time>
      </trkpt>
      <trkpt lat="44.88868" lon="5.54096">
        <ele>1314.4</ele>
        <time>2022-01-19T08:36:56Z</time>
      </trkpt>
      <trkpt lat="44.88867" lon="5.54095">
        <ele>1314.6</ele>
        <time>2022-01-19T08:36:57Z</time>
      </trkpt>
      <trkpt lat="44.88866" lon="5.54094">
        <ele>1314.7</ele>
        <time>2022-01-19T08:36:58Z</time>
      </trkpt>
      <trkpt lat="44.88866" lon="5.54093">
        <ele>1314.9</ele>
        <time>2022-01-19T08:36:59Z</time>
      </trkpt>
      <trkpt lat="44.88865" lon="5.54092">
        <ele>1315.1</ele>
        <time>2022-01-19T08:37:00Z</time>
      </trkpt>
      <trkpt lat="44.88864" lon="5.54092">
        <ele>1315.2</ele>
        <time>2022-01-19T08:37:01Z</time>
      </trkpt>
      <trkpt lat="44.88863" lon="5.54091">
        <ele>1315.3</ele>
        <time>2022-01-19T08:37:02Z</time>
      </trkpt>
      <trkpt lat="44.88862" lon="5.5409">
        <ele>1315.5</ele>
        <time>2022-01-19T08:37:03Z</time>
      </trkpt>
      <trkpt lat="44.88862" lon="5.54089">
        <ele>1315.6</ele>
        <time>2022-01-19T08:37:04Z</time>
      </trkpt>
      <trkpt lat="44.8886" lon="5.54088">
        <ele>1315.9</ele>
        <time>2022-01-19T08:37:05Z</time>
      </trkpt>
      <trkpt lat="44.8886" lon="5.54087">
        <ele>1315.9</ele>
        <time>2022-01-19T08:37:06Z</time>
      </trkpt>
      <trkpt lat="44.88859" lon="5.54086">
        <ele>1316.1</ele>
        <time>2022-01-19T08:37:07Z</time>
      </trkpt>
      <trkpt lat="44.88858" lon="5.54085">
        <ele>1316.4</ele>
        <time>2022-01-19T08:37:08Z</time>
      </trkpt>
      <trkpt lat="44.88857" lon="5.54084">
        <ele>1316.5</ele>
        <time>2022-01-19T08:37:09Z</time>
      </trkpt>
      <trkpt lat="44.88857" lon="5.54083">
        <ele>1316.6</ele>
        <time>2022-01-19T08:37:10Z</time>
      </trkpt>
      <trkpt lat="44.88855" lon="5.54082">
        <ele>1316.8</ele>
        <time>2022-01-19T08:37:11Z</time>
      </trkpt>
      <trkpt lat="44.88855" lon="5.54081">
        <ele>1316.9</ele>
        <time>2022-01-19T08:37:12Z</time>
      </trkpt>
      <trkpt lat="44.88855" lon="5.5408">
        <ele>1317</ele>
        <time>2022-01-19T08:37:13Z</time>
      </trkpt>
      <trkpt lat="44.88854" lon="5.5408">
        <ele>1317.1</ele>
        <time>2022-01-19T08:37:14Z</time>
      </trkpt>
      <trkpt lat="44.88854" lon="5.54079">
        <ele>1317.1</ele>
        <time>2022-01-19T08:37:15Z</time>
      </trkpt>
      <trkpt lat="44.88853" lon="5.54078">
        <ele>1317.3</ele>
        <time>2022-01-19T08:37:16Z</time>
      </trkpt>
      <trkpt lat="44.88852" lon="5.54077">
        <ele>1317.4</ele>
        <time>2022-01-19T08:37:17Z</time>
      </trkpt>
      <trkpt lat="44.88852" lon="5.54077">
        <ele>1317.5</ele>
        <time>2022-01-19T08:37:18Z</time>
      </trkpt>
      <trkpt lat="44.88852" lon="5.54076">
        <ele>1317.5</ele>
        <time>2022-01-19T08:37:19Z</time>
      </trkpt>
      <trkpt lat="44.88852" lon="5.54075">
        <ele>1317.7</ele>
        <time>2022-01-19T08:37:20Z</time>
      </trkpt>
      <trkpt lat="44.88851" lon="5.54074">
        <ele>1317.8</ele>
        <time>2022-01-19T08:37:21Z</time>
      </trkpt>
      <trkpt lat="44.8885" lon="5.54073">
        <ele>1317.9</ele>
        <time>2022-01-19T08:37:22Z</time>
      </trkpt>
      <trkpt lat="44.8885" lon="5.54072">
        <ele>1318</ele>
        <time>2022-01-19T08:37:23Z</time>
      </trkpt>
      <trkpt lat="44.88849" lon="5.54072">
        <ele>1318.1</ele>
        <time>2022-01-19T08:37:24Z</time>
      </trkpt>
      <trkpt lat="44.88848" lon="5.54072">
        <ele>1318.3</ele>
        <time>2022-01-19T08:37:25Z</time>
      </trkpt>
      <trkpt lat="44.88846" lon="5.5407">
        <ele>1318.5</ele>
        <time>2022-01-19T08:37:26Z</time>
      </trkpt>
      <trkpt lat="44.88846" lon="5.54069">
        <ele>1318.6</ele>
        <time>2022-01-19T08:37:27Z</time>
      </trkpt>
      <trkpt lat="44.88845" lon="5.54068">
        <ele>1318.8</ele>
        <time>2022-01-19T08:37:28Z</time>
      </trkpt>
      <trkpt lat="44.88844" lon="5.54068">
        <ele>1318.9</ele>
        <time>2022-01-19T08:37:29Z</time>
      </trkpt>
      <trkpt lat="44.88843" lon="5.54067">
        <ele>1319.1</ele>
        <time>2022-01-19T08:37:30Z</time>
      </trkpt>
      <trkpt lat="44.88842" lon="5.54066">
        <ele>1319.3</ele>
        <time>2022-01-19T08:37:31Z</time>
      </trkpt>
      <trkpt lat="44.88842" lon="5.54065">
        <ele>1319.4</ele>
        <time>2022-01-19T08:37:32Z</time>
      </trkpt>
      <trkpt lat="44.88841" lon="5.54064">
        <ele>1319.6</ele>
        <time>2022-01-19T08:37:33Z</time>
      </trkpt>
      <trkpt lat="44.88841" lon="5.54063">
        <ele>1319.6</ele>
        <time>2022-01-19T08:37:34Z</time>
      </trkpt>
      <trkpt lat="44.8884" lon="5.54063">
        <ele>1319.8</ele>
        <time>2022-01-19T08:37:35Z</time>
      </trkpt>
      <trkpt lat="44.88839" lon="5.54062">
        <ele>1319.8</ele>
        <time>2022-01-19T08:37:36Z</time>
      </trkpt>
      <trkpt lat="44.88839" lon="5.54062">
        <ele>1320</ele>
        <time>2022-01-19T08:37:37Z</time>
      </trkpt>
      <trkpt lat="44.88838" lon="5.54061">
        <ele>1320.1</ele>
        <time>2022-01-19T08:37:38Z</time>
      </trkpt>
      <trkpt lat="44.88838" lon="5.5406">
        <ele>1320.2</ele>
        <time>2022-01-19T08:37:39Z</time>
      </trkpt>
      <trkpt lat="44.88837" lon="5.54059">
        <ele>1320.3</ele>
        <time>2022-01-19T08:37:40Z</time>
      </trkpt>
      <trkpt lat="44.88836" lon="5.54058">
        <ele>1320.5</ele>
        <time>2022-01-19T08:37:41Z</time>
      </trkpt>
      <trkpt lat="44.88835" lon="5.54057">
        <ele>1320.7</ele>
        <time>2022-01-19T08:37:42Z</time>
      </trkpt>
      <trkpt lat="44.88835" lon="5.54056">
        <ele>1320.8</ele>
        <time>2022-01-19T08:37:43Z</time>
      </trkpt>
      <trkpt lat="44.88834" lon="5.54055">
        <ele>1320.9</ele>
        <time>2022-01-19T08:37:44Z</time>
      </trkpt>
      <trkpt lat="44.88834" lon="5.54055">
        <ele>1321</ele>
        <time>2022-01-19T08:37:45Z</time>
      </trkpt>
      <trkpt lat="44.88833" lon="5.54055">
        <ele>1321.1</ele>
        <time>2022-01-19T08:37:46Z</time>
      </trkpt>
      <trkpt lat="44.88833" lon="5.54054">
        <ele>1321.3</ele>
        <time>2022-01-19T08:37:47Z</time>
      </trkpt>
      <trkpt lat="44.88831" lon="5.54052">
        <ele>1321.6</ele>
        <time>2022-01-19T08:37:48Z</time>
      </trkpt>
      <trkpt lat="44.88831" lon="5.54051">
        <ele>1321.7</ele>
        <time>2022-01-19T08:37:49Z</time>
      </trkpt>
      <trkpt lat="44.8883" lon="5.5405">
        <ele>1321.9</ele>
        <time>2022-01-19T08:37:50Z</time>
      </trkpt>
      <trkpt lat="44.88829" lon="5.54049">
        <ele>1322.1</ele>
        <time>2022-01-19T08:37:51Z</time>
      </trkpt>
      <trkpt lat="44.88828" lon="5.54049">
        <ele>1322.3</ele>
        <time>2022-01-19T08:37:52Z</time>
      </trkpt>
      <trkpt lat="44.88827" lon="5.54048">
        <ele>1322.4</ele>
        <time>2022-01-19T08:37:53Z</time>
      </trkpt>
      <trkpt lat="44.88827" lon="5.54048">
        <ele>1322.5</ele>
        <time>2022-01-19T08:37:54Z</time>
      </trkpt>
      <trkpt lat="44.88826" lon="5.54047">
        <ele>1322.7</ele>
        <time>2022-01-19T08:37:55Z</time>
      </trkpt>
      <trkpt lat="44.88826" lon="5.54046">
        <ele>1322.8</ele>
        <time>2022-01-19T08:37:56Z</time>
      </trkpt>
      <trkpt lat="44.88825" lon="5.54046">
        <ele>1322.9</ele>
        <time>2022-01-19T08:37:57Z</time>
      </trkpt>
      <trkpt lat="44.88825" lon="5.54046">
        <ele>1323</ele>
        <time>2022-01-19T08:37:58Z</time>
      </trkpt>
      <trkpt lat="44.88825" lon="5.54045">
        <ele>1323.1</ele>
        <time>2022-01-19T08:37:59Z</time>
      </trkpt>
      <trkpt lat="44.88824" lon="5.54044">
        <ele>1323.2</ele>
        <time>2022-01-19T08:38:00Z</time>
      </trkpt>
      <trkpt lat="44.88824" lon="5.54043">
        <ele>1323.3</ele>
        <time>2022-01-19T08:38:01Z</time>
      </trkpt>
      <trkpt lat="44.88823" lon="5.54041">
        <ele>1323.6</ele>
        <time>2022-01-19T08:38:02Z</time>
      </trkpt>
      <trkpt lat="44.88823" lon="5.54041">
        <ele>1323.7</ele>
        <time>2022-01-19T08:38:03Z</time>
      </trkpt>
      <trkpt lat="44.88822" lon="5.5404">
        <ele>1323.8</ele>
        <time>2022-01-19T08:38:04Z</time>
      </trkpt>
      <trkpt lat="44.88821" lon="5.54039">
        <ele>1324</ele>
        <time>2022-01-19T08:38:05Z</time>
      </trkpt>
      <trkpt lat="44.8882" lon="5.54038">
        <ele>1324.2</ele>
        <time>2022-01-19T08:38:06Z</time>
      </trkpt>
      <trkpt lat="44.8882" lon="5.54037">
        <ele>1324.4</ele>
        <time>2022-01-19T08:38:07Z</time>
      </trkpt>
      <trkpt lat="44.88819" lon="5.54036">
        <ele>1324.5</ele>
        <time>2022-01-19T08:38:08Z</time>
      </trkpt>
      <trkpt lat="44.88818" lon="5.54035">
        <ele>1324.7</ele>
        <time>2022-01-19T08:38:09Z</time>
      </trkpt>
      <trkpt lat="44.88818" lon="5.54034">
        <ele>1324.9</ele>
        <time>2022-01-19T08:38:10Z</time>
      </trkpt>
      <trkpt lat="44.88818" lon="5.54033">
        <ele>1325</ele>
        <time>2022-01-19T08:38:11Z</time>
      </trkpt>
      <trkpt lat="44.88817" lon="5.54032">
        <ele>1325.2</ele>
        <time>2022-01-19T08:38:12Z</time>
      </trkpt>
      <trkpt lat="44.88817" lon="5.54031">
        <ele>1325.3</ele>
        <time>2022-01-19T08:38:13Z</time>
      </trkpt>
      <trkpt lat="44.88816" lon="5.54031">
        <ele>1325.5</ele>
        <time>2022-01-19T08:38:14Z</time>
      </trkpt>
      <trkpt lat="44.88815" lon="5.54031">
        <ele>1325.6</ele>
        <time>2022-01-19T08:38:15Z</time>
      </trkpt>
      <trkpt lat="44.88815" lon="5.5403">
        <ele>1325.7</ele>
        <time>2022-01-19T08:38:16Z</time>
      </trkpt>
      <trkpt lat="44.88814" lon="5.54029">
        <ele>1325.9</ele>
        <time>2022-01-19T08:38:17Z</time>
      </trkpt>
      <trkpt lat="44.88813" lon="5.54028">
        <ele>1326.1</ele>
        <time>2022-01-19T08:38:18Z</time>
      </trkpt>
      <trkpt lat="44.88812" lon="5.54028">
        <ele>1326.2</ele>
        <time>2022-01-19T08:38:19Z</time>
      </trkpt>
      <trkpt lat="44.88812" lon="5.54027">
        <ele>1326.3</ele>
        <time>2022-01-19T08:38:20Z</time>
      </trkpt>
      <trkpt lat="44.88812" lon="5.54027">
        <ele>1326.4</ele>
        <time>2022-01-19T08:38:21Z</time>
      </trkpt>
      <trkpt lat="44.88811" lon="5.54027">
        <ele>1326.5</ele>
        <time>2022-01-19T08:38:22Z</time>
      </trkpt>
      <trkpt lat="44.8881" lon="5.54026">
        <ele>1326.7</ele>
        <time>2022-01-19T08:38:23Z</time>
      </trkpt>
      <trkpt lat="44.8881" lon="5.54026">
        <ele>1326.8</ele>
        <time>2022-01-19T08:38:24Z</time>
      </trkpt>
      <trkpt lat="44.88809" lon="5.54025">
        <ele>1326.9</ele>
        <time>2022-01-19T08:38:25Z</time>
      </trkpt>
      <trkpt lat="44.88808" lon="5.54025">
        <ele>1327.1</ele>
        <time>2022-01-19T08:38:26Z</time>
      </trkpt>
      <trkpt lat="44.88807" lon="5.54024">
        <ele>1327.3</ele>
        <time>2022-01-19T08:38:27Z</time>
      </trkpt>
      <trkpt lat="44.88807" lon="5.54024">
        <ele>1327.4</ele>
        <time>2022-01-19T08:38:28Z</time>
      </trkpt>
      <trkpt lat="44.88806" lon="5.54024">
        <ele>1327.5</ele>
        <time>2022-01-19T08:38:29Z</time>
      </trkpt>
      <trkpt lat="44.88805" lon="5.54023">
        <ele>1327.7</ele>
        <time>2022-01-19T08:38:30Z</time>
      </trkpt>
      <trkpt lat="44.88805" lon="5.54023">
        <ele>1327.7</ele>
        <time>2022-01-19T08:38:31Z</time>
      </trkpt>
      <trkpt lat="44.88804" lon="5.54023">
        <ele>1327.9</ele>
        <time>2022-01-19T08:38:32Z</time>
      </trkpt>
      <trkpt lat="44.88803" lon="5.54023">
        <ele>1328</ele>
        <time>2022-01-19T08:38:33Z</time>
      </trkpt>
      <trkpt lat="44.88803" lon="5.54022">
        <ele>1328</ele>
        <time>2022-01-19T08:38:34Z</time>
      </trkpt>
      <trkpt lat="44.88802" lon="5.54022">
        <ele>1328.2</ele>
        <time>2022-01-19T08:38:35Z</time>
      </trkpt>
      <trkpt lat="44.88801" lon="5.5402">
        <ele>1328.5</ele>
        <time>2022-01-19T08:38:36Z</time>
      </trkpt>
      <trkpt lat="44.88801" lon="5.5402">
        <ele>1328.6</ele>
        <time>2022-01-19T08:38:37Z</time>
      </trkpt>
      <trkpt lat="44.88801" lon="5.54019">
        <ele>1328.7</ele>
        <time>2022-01-19T08:38:38Z</time>
      </trkpt>
      <trkpt lat="44.888" lon="5.54018">
        <ele>1328.8</ele>
        <time>2022-01-19T08:38:39Z</time>
      </trkpt>
      <trkpt lat="44.88799" lon="5.54018">
        <ele>1329</ele>
        <time>2022-01-19T08:38:40Z</time>
      </trkpt>
      <trkpt lat="44.88799" lon="5.54017">
        <ele>1329.1</ele>
        <time>2022-01-19T08:38:41Z</time>
      </trkpt>
      <trkpt lat="44.88799" lon="5.54016">
        <ele>1329.3</ele>
        <time>2022-01-19T08:38:42Z</time>
      </trkpt>
      <trkpt lat="44.88798" lon="5.54016">
        <ele>1329.4</ele>
        <time>2022-01-19T08:38:43Z</time>
      </trkpt>
      <trkpt lat="44.88797" lon="5.54015">
        <ele>1329.5</ele>
        <time>2022-01-19T08:38:44Z</time>
      </trkpt>
      <trkpt lat="44.88797" lon="5.54015">
        <ele>1329.7</ele>
        <time>2022-01-19T08:38:45Z</time>
      </trkpt>
      <trkpt lat="44.88796" lon="5.54015">
        <ele>1329.8</ele>
        <time>2022-01-19T08:38:46Z</time>
      </trkpt>
      <trkpt lat="44.88796" lon="5.54015">
        <ele>1329.9</ele>
        <time>2022-01-19T08:38:47Z</time>
      </trkpt>
      <trkpt lat="44.88795" lon="5.54014">
        <ele>1330.1</ele>
        <time>2022-01-19T08:38:48Z</time>
      </trkpt>
      <trkpt lat="44.88794" lon="5.54014">
        <ele>1330.2</ele>
        <time>2022-01-19T08:38:49Z</time>
      </trkpt>
      <trkpt lat="44.88794" lon="5.54013">
        <ele>1330.4</ele>
        <time>2022-01-19T08:38:50Z</time>
      </trkpt>
      <trkpt lat="44.88793" lon="5.54012">
        <ele>1330.5</ele>
        <time>2022-01-19T08:38:51Z</time>
      </trkpt>
      <trkpt lat="44.88793" lon="5.54012">
        <ele>1330.7</ele>
        <time>2022-01-19T08:38:52Z</time>
      </trkpt>
      <trkpt lat="44.88792" lon="5.54011">
        <ele>1330.8</ele>
        <time>2022-01-19T08:38:53Z</time>
      </trkpt>
      <trkpt lat="44.88791" lon="5.5401">
        <ele>1330.9</ele>
        <time>2022-01-19T08:38:54Z</time>
      </trkpt>
      <trkpt lat="44.88791" lon="5.5401">
        <ele>1331.1</ele>
        <time>2022-01-19T08:38:55Z</time>
      </trkpt>
      <trkpt lat="44.8879" lon="5.5401">
        <ele>1331.3</ele>
        <time>2022-01-19T08:38:56Z</time>
      </trkpt>
      <trkpt lat="44.88789" lon="5.54009">
        <ele>1331.4</ele>
        <time>2022-01-19T08:38:57Z</time>
      </trkpt>
      <trkpt lat="44.88788" lon="5.54009">
        <ele>1331.6</ele>
        <time>2022-01-19T08:38:58Z</time>
      </trkpt>
      <trkpt lat="44.88787" lon="5.54009">
        <ele>1331.8</ele>
        <time>2022-01-19T08:38:59Z</time>
      </trkpt>
      <trkpt lat="44.88787" lon="5.54008">
        <ele>1331.9</ele>
        <time>2022-01-19T08:39:00Z</time>
      </trkpt>
      <trkpt lat="44.88786" lon="5.54007">
        <ele>1332</ele>
        <time>2022-01-19T08:39:01Z</time>
      </trkpt>
      <trkpt lat="44.88785" lon="5.54007">
        <ele>1332.3</ele>
        <time>2022-01-19T08:39:02Z</time>
      </trkpt>
      <trkpt lat="44.88784" lon="5.54007">
        <ele>1332.4</ele>
        <time>2022-01-19T08:39:03Z</time>
      </trkpt>
      <trkpt lat="44.88784" lon="5.54006">
        <ele>1332.5</ele>
        <time>2022-01-19T08:39:04Z</time>
      </trkpt>
      <trkpt lat="44.88783" lon="5.54006">
        <ele>1332.6</ele>
        <time>2022-01-19T08:39:05Z</time>
      </trkpt>
      <trkpt lat="44.88782" lon="5.54005">
        <ele>1332.8</ele>
        <time>2022-01-19T08:39:06Z</time>
      </trkpt>
      <trkpt lat="44.88781" lon="5.54005">
        <ele>1333</ele>
        <time>2022-01-19T08:39:07Z</time>
      </trkpt>
      <trkpt lat="44.88781" lon="5.54004">
        <ele>1333.1</ele>
        <time>2022-01-19T08:39:08Z</time>
      </trkpt>
      <trkpt lat="44.8878" lon="5.54003">
        <ele>1333.4</ele>
        <time>2022-01-19T08:39:09Z</time>
      </trkpt>
      <trkpt lat="44.88779" lon="5.54003">
        <ele>1333.5</ele>
        <time>2022-01-19T08:39:10Z</time>
      </trkpt>
      <trkpt lat="44.88777" lon="5.54003">
        <ele>1333.8</ele>
        <time>2022-01-19T08:39:11Z</time>
      </trkpt>
      <trkpt lat="44.88776" lon="5.54002">
        <ele>1334</ele>
        <time>2022-01-19T08:39:12Z</time>
      </trkpt>
      <trkpt lat="44.88776" lon="5.54002">
        <ele>1334.1</ele>
        <time>2022-01-19T08:39:13Z</time>
      </trkpt>
      <trkpt lat="44.88775" lon="5.54002">
        <ele>1334.2</ele>
        <time>2022-01-19T08:39:14Z</time>
      </trkpt>
      <trkpt lat="44.88774" lon="5.54002">
        <ele>1334.4</ele>
        <time>2022-01-19T08:39:15Z</time>
      </trkpt>
      <trkpt lat="44.88774" lon="5.54002">
        <ele>1334.5</ele>
        <time>2022-01-19T08:39:16Z</time>
      </trkpt>
      <trkpt lat="44.88773" lon="5.54002">
        <ele>1334.7</ele>
        <time>2022-01-19T08:39:17Z</time>
      </trkpt>
      <trkpt lat="44.88772" lon="5.54001">
        <ele>1334.9</ele>
        <time>2022-01-19T08:39:18Z</time>
      </trkpt>
      <trkpt lat="44.88771" lon="5.54001">
        <ele>1335.1</ele>
        <time>2022-01-19T08:39:19Z</time>
      </trkpt>
      <trkpt lat="44.8877" lon="5.54">
        <ele>1335.4</ele>
        <time>2022-01-19T08:39:20Z</time>
      </trkpt>
      <trkpt lat="44.88769" lon="5.54">
        <ele>1335.5</ele>
        <time>2022-01-19T08:39:21Z</time>
      </trkpt>
      <trkpt lat="44.88768" lon="5.53999">
        <ele>1335.7</ele>
        <time>2022-01-19T08:39:22Z</time>
      </trkpt>
      <trkpt lat="44.88768" lon="5.53999">
        <ele>1335.8</ele>
        <time>2022-01-19T08:39:23Z</time>
      </trkpt>
      <trkpt lat="44.88767" lon="5.53999">
        <ele>1336</ele>
        <time>2022-01-19T08:39:24Z</time>
      </trkpt>
      <trkpt lat="44.88766" lon="5.54">
        <ele>1336.2</ele>
        <time>2022-01-19T08:39:25Z</time>
      </trkpt>
      <trkpt lat="44.88765" lon="5.54">
        <ele>1336.2</ele>
        <time>2022-01-19T08:39:26Z</time>
      </trkpt>
      <trkpt lat="44.88765" lon="5.54">
        <ele>1336.3</ele>
        <time>2022-01-19T08:39:27Z</time>
      </trkpt>
      <trkpt lat="44.88765" lon="5.54">
        <ele>1336.4</ele>
        <time>2022-01-19T08:39:28Z</time>
      </trkpt>
      <trkpt lat="44.88764" lon="5.54">
        <ele>1336.6</ele>
        <time>2022-01-19T08:39:29Z</time>
      </trkpt>
      <trkpt lat="44.88764" lon="5.54">
        <ele>1336.6</ele>
        <time>2022-01-19T08:39:30Z</time>
      </trkpt>
      <trkpt lat="44.88764" lon="5.54">
        <ele>1336.6</ele>
        <time>2022-01-19T08:39:31Z</time>
      </trkpt>
      <trkpt lat="44.88761" lon="5.53999">
        <ele>1337.1</ele>
        <time>2022-01-19T08:39:32Z</time>
      </trkpt>
      <trkpt lat="44.8876" lon="5.53998">
        <ele>1337.4</ele>
        <time>2022-01-19T08:39:33Z</time>
      </trkpt>
      <trkpt lat="44.8876" lon="5.53998">
        <ele>1337.6</ele>
        <time>2022-01-19T08:39:34Z</time>
      </trkpt>
      <trkpt lat="44.88759" lon="5.53997">
        <ele>1337.7</ele>
        <time>2022-01-19T08:39:35Z</time>
      </trkpt>
      <trkpt lat="44.88759" lon="5.53997">
        <ele>1337.8</ele>
        <time>2022-01-19T08:39:36Z</time>
      </trkpt>
      <trkpt lat="44.88759" lon="5.53996">
        <ele>1337.9</ele>
        <time>2022-01-19T08:39:37Z</time>
      </trkpt>
      <trkpt lat="44.88758" lon="5.53996">
        <ele>1338</ele>
        <time>2022-01-19T08:39:38Z</time>
      </trkpt>
      <trkpt lat="44.88758" lon="5.53995">
        <ele>1338.1</ele>
        <time>2022-01-19T08:39:39Z</time>
      </trkpt>
      <trkpt lat="44.88757" lon="5.53995">
        <ele>1338.3</ele>
        <time>2022-01-19T08:39:40Z</time>
      </trkpt>
      <trkpt lat="44.88757" lon="5.53994">
        <ele>1338.4</ele>
        <time>2022-01-19T08:39:41Z</time>
      </trkpt>
      <trkpt lat="44.88757" lon="5.53994">
        <ele>1338.5</ele>
        <time>2022-01-19T08:39:42Z</time>
      </trkpt>
      <trkpt lat="44.88756" lon="5.53993">
        <ele>1338.6</ele>
        <time>2022-01-19T08:39:43Z</time>
      </trkpt>
      <trkpt lat="44.88756" lon="5.53993">
        <ele>1338.7</ele>
        <time>2022-01-19T08:39:44Z</time>
      </trkpt>
      <trkpt lat="44.88756" lon="5.53992">
        <ele>1338.9</ele>
        <time>2022-01-19T08:39:45Z</time>
      </trkpt>
      <trkpt lat="44.88755" lon="5.53992">
        <ele>1339</ele>
        <time>2022-01-19T08:39:46Z</time>
      </trkpt>
      <trkpt lat="44.88755" lon="5.53991">
        <ele>1339.1</ele>
        <time>2022-01-19T08:39:47Z</time>
      </trkpt>
      <trkpt lat="44.88755" lon="5.53991">
        <ele>1339.2</ele>
        <time>2022-01-19T08:39:48Z</time>
      </trkpt>
      <trkpt lat="44.88754" lon="5.53991">
        <ele>1339.4</ele>
        <time>2022-01-19T08:39:49Z</time>
      </trkpt>
      <trkpt lat="44.88754" lon="5.5399">
        <ele>1339.5</ele>
        <time>2022-01-19T08:39:50Z</time>
      </trkpt>
      <trkpt lat="44.88753" lon="5.5399">
        <ele>1339.6</ele>
        <time>2022-01-19T08:39:51Z</time>
      </trkpt>
      <trkpt lat="44.88753" lon="5.53989">
        <ele>1339.7</ele>
        <time>2022-01-19T08:39:52Z</time>
      </trkpt>
      <trkpt lat="44.88753" lon="5.53989">
        <ele>1339.9</ele>
        <time>2022-01-19T08:39:53Z</time>
      </trkpt>
      <trkpt lat="44.88752" lon="5.53988">
        <ele>1340</ele>
        <time>2022-01-19T08:39:54Z</time>
      </trkpt>
      <trkpt lat="44.88752" lon="5.53988">
        <ele>1340.1</ele>
        <time>2022-01-19T08:39:55Z</time>
      </trkpt>
      <trkpt lat="44.88752" lon="5.53987">
        <ele>1340.2</ele>
        <time>2022-01-19T08:39:56Z</time>
      </trkpt>
      <trkpt lat="44.88751" lon="5.53987">
        <ele>1340.3</ele>
        <time>2022-01-19T08:39:57Z</time>
      </trkpt>
      <trkpt lat="44.88751" lon="5.53986">
        <ele>1340.5</ele>
        <time>2022-01-19T08:39:58Z</time>
      </trkpt>
      <trkpt lat="44.8875" lon="5.53986">
        <ele>1340.6</ele>
        <time>2022-01-19T08:39:59Z</time>
      </trkpt>
      <trkpt lat="44.8875" lon="5.53985">
        <ele>1340.7</ele>
        <time>2022-01-19T08:40:00Z</time>
      </trkpt>
      <trkpt lat="44.8875" lon="5.53985">
        <ele>1340.8</ele>
        <time>2022-01-19T08:40:01Z</time>
      </trkpt>
      <trkpt lat="44.88749" lon="5.53984">
        <ele>1341</ele>
        <time>2022-01-19T08:40:02Z</time>
      </trkpt>
      <trkpt lat="44.88749" lon="5.53984">
        <ele>1341.1</ele>
        <time>2022-01-19T08:40:03Z</time>
      </trkpt>
      <trkpt lat="44.88749" lon="5.53983">
        <ele>1341.2</ele>
        <time>2022-01-19T08:40:04Z</time>
      </trkpt>
      <trkpt lat="44.88748" lon="5.53983">
        <ele>1341.3</ele>
        <time>2022-01-19T08:40:05Z</time>
      </trkpt>
      <trkpt lat="44.88748" lon="5.53982">
        <ele>1341.5</ele>
        <time>2022-01-19T08:40:06Z</time>
      </trkpt>
      <trkpt lat="44.88747" lon="5.53982">
        <ele>1341.6</ele>
        <time>2022-01-19T08:40:07Z</time>
      </trkpt>
      <trkpt lat="44.88747" lon="5.53981">
        <ele>1341.7</ele>
        <time>2022-01-19T08:40:08Z</time>
      </trkpt>
      <trkpt lat="44.88747" lon="5.53981">
        <ele>1341.8</ele>
        <time>2022-01-19T08:40:09Z</time>
      </trkpt>
      <trkpt lat="44.88746" lon="5.5398">
        <ele>1342</ele>
        <time>2022-01-19T08:40:10Z</time>
      </trkpt>
      <trkpt lat="44.88746" lon="5.5398">
        <ele>1342.1</ele>
        <time>2022-01-19T08:40:11Z</time>
      </trkpt>
      <trkpt lat="44.88746" lon="5.53979">
        <ele>1342.2</ele>
        <time>2022-01-19T08:40:12Z</time>
      </trkpt>
      <trkpt lat="44.88745" lon="5.53979">
        <ele>1342.4</ele>
        <time>2022-01-19T08:40:13Z</time>
      </trkpt>
      <trkpt lat="44.88745" lon="5.53978">
        <ele>1342.5</ele>
        <time>2022-01-19T08:40:14Z</time>
      </trkpt>
      <trkpt lat="44.88744" lon="5.53978">
        <ele>1342.6</ele>
        <time>2022-01-19T08:40:15Z</time>
      </trkpt>
      <trkpt lat="44.88744" lon="5.53977">
        <ele>1342.7</ele>
        <time>2022-01-19T08:40:16Z</time>
      </trkpt>
      <trkpt lat="44.88744" lon="5.53977">
        <ele>1342.9</ele>
        <time>2022-01-19T08:40:17Z</time>
      </trkpt>
      <trkpt lat="44.88743" lon="5.53976">
        <ele>1343</ele>
        <time>2022-01-19T08:40:18Z</time>
      </trkpt>
      <trkpt lat="44.88743" lon="5.53976">
        <ele>1343.1</ele>
        <time>2022-01-19T08:40:19Z</time>
      </trkpt>
      <trkpt lat="44.88743" lon="5.53976">
        <ele>1343.3</ele>
        <time>2022-01-19T08:40:20Z</time>
      </trkpt>
      <trkpt lat="44.88742" lon="5.53975">
        <ele>1343.4</ele>
        <time>2022-01-19T08:40:21Z</time>
      </trkpt>
      <trkpt lat="44.88742" lon="5.53975">
        <ele>1343.5</ele>
        <time>2022-01-19T08:40:22Z</time>
      </trkpt>
      <trkpt lat="44.88741" lon="5.53974">
        <ele>1343.7</ele>
        <time>2022-01-19T08:40:23Z</time>
      </trkpt>
      <trkpt lat="44.88741" lon="5.53974">
        <ele>1343.8</ele>
        <time>2022-01-19T08:40:24Z</time>
      </trkpt>
      <trkpt lat="44.88741" lon="5.53973">
        <ele>1343.9</ele>
        <time>2022-01-19T08:40:25Z</time>
      </trkpt>
      <trkpt lat="44.8874" lon="5.53973">
        <ele>1344.1</ele>
        <time>2022-01-19T08:40:26Z</time>
      </trkpt>
      <trkpt lat="44.8874" lon="5.53972">
        <ele>1344.2</ele>
        <time>2022-01-19T08:40:27Z</time>
      </trkpt>
      <trkpt lat="44.8874" lon="5.53972">
        <ele>1344.3</ele>
        <time>2022-01-19T08:40:28Z</time>
      </trkpt>
      <trkpt lat="44.88739" lon="5.53971">
        <ele>1344.5</ele>
        <time>2022-01-19T08:40:29Z</time>
      </trkpt>
      <trkpt lat="44.88739" lon="5.53971">
        <ele>1344.6</ele>
        <time>2022-01-19T08:40:30Z</time>
      </trkpt>
      <trkpt lat="44.88738" lon="5.5397">
        <ele>1344.7</ele>
        <time>2022-01-19T08:40:31Z</time>
      </trkpt>
      <trkpt lat="44.88738" lon="5.5397">
        <ele>1344.9</ele>
        <time>2022-01-19T08:40:32Z</time>
      </trkpt>
      <trkpt lat="44.88738" lon="5.53969">
        <ele>1345</ele>
        <time>2022-01-19T08:40:33Z</time>
      </trkpt>
      <trkpt lat="44.88737" lon="5.53969">
        <ele>1345.1</ele>
        <time>2022-01-19T08:40:34Z</time>
      </trkpt>
      <trkpt lat="44.88737" lon="5.53968">
        <ele>1345.3</ele>
        <time>2022-01-19T08:40:35Z</time>
      </trkpt>
      <trkpt lat="44.88737" lon="5.53968">
        <ele>1345.4</ele>
        <time>2022-01-19T08:40:36Z</time>
      </trkpt>
      <trkpt lat="44.88736" lon="5.53967">
        <ele>1345.6</ele>
        <time>2022-01-19T08:40:37Z</time>
      </trkpt>
      <trkpt lat="44.88736" lon="5.53967">
        <ele>1345.7</ele>
        <time>2022-01-19T08:40:38Z</time>
      </trkpt>
      <trkpt lat="44.88735" lon="5.53966">
        <ele>1345.8</ele>
        <time>2022-01-19T08:40:39Z</time>
      </trkpt>
      <trkpt lat="44.88735" lon="5.53966">
        <ele>1346</ele>
        <time>2022-01-19T08:40:40Z</time>
      </trkpt>
      <trkpt lat="44.88735" lon="5.53965">
        <ele>1346.1</ele>
        <time>2022-01-19T08:40:41Z</time>
      </trkpt>
      <trkpt lat="44.88734" lon="5.53965">
        <ele>1346.2</ele>
        <time>2022-01-19T08:40:42Z</time>
      </trkpt>
      <trkpt lat="44.88734" lon="5.53964">
        <ele>1346.4</ele>
        <time>2022-01-19T08:40:43Z</time>
      </trkpt>
      <trkpt lat="44.88734" lon="5.53964">
        <ele>1346.5</ele>
        <time>2022-01-19T08:40:44Z</time>
      </trkpt>
      <trkpt lat="44.88733" lon="5.53963">
        <ele>1346.7</ele>
        <time>2022-01-19T08:40:45Z</time>
      </trkpt>
      <trkpt lat="44.88733" lon="5.53963">
        <ele>1346.8</ele>
        <time>2022-01-19T08:40:46Z</time>
      </trkpt>
      <trkpt lat="44.88732" lon="5.53962">
        <ele>1346.9</ele>
        <time>2022-01-19T08:40:47Z</time>
      </trkpt>
      <trkpt lat="44.88732" lon="5.53962">
        <ele>1347.1</ele>
        <time>2022-01-19T08:40:48Z</time>
      </trkpt>
      <trkpt lat="44.88732" lon="5.53961">
        <ele>1347.2</ele>
        <time>2022-01-19T08:40:49Z</time>
      </trkpt>
      <trkpt lat="44.88731" lon="5.53961">
        <ele>1347.4</ele>
        <time>2022-01-19T08:40:50Z</time>
      </trkpt>
      <trkpt lat="44.88731" lon="5.53961">
        <ele>1347.5</ele>
        <time>2022-01-19T08:40:51Z</time>
      </trkpt>
      <trkpt lat="44.88731" lon="5.5396">
        <ele>1347.6</ele>
        <time>2022-01-19T08:40:52Z</time>
      </trkpt>
      <trkpt lat="44.8873" lon="5.5396">
        <ele>1347.8</ele>
        <time>2022-01-19T08:40:53Z</time>
      </trkpt>
      <trkpt lat="44.8873" lon="5.53959">
        <ele>1347.9</ele>
        <time>2022-01-19T08:40:54Z</time>
      </trkpt>
      <trkpt lat="44.88729" lon="5.53959">
        <ele>1348</ele>
        <time>2022-01-19T08:40:55Z</time>
      </trkpt>
      <trkpt lat="44.88729" lon="5.53958">
        <ele>1348.2</ele>
        <time>2022-01-19T08:40:56Z</time>
      </trkpt>
      <trkpt lat="44.88729" lon="5.53958">
        <ele>1348.3</ele>
        <time>2022-01-19T08:40:57Z</time>
      </trkpt>
      <trkpt lat="44.88728" lon="5.53957">
        <ele>1348.4</ele>
        <time>2022-01-19T08:40:58Z</time>
      </trkpt>
      <trkpt lat="44.88728" lon="5.53957">
        <ele>1348.6</ele>
        <time>2022-01-19T08:40:59Z</time>
      </trkpt>
      <trkpt lat="44.88728" lon="5.53956">
        <ele>1348.7</ele>
        <time>2022-01-19T08:41:00Z</time>
      </trkpt>
      <trkpt lat="44.88727" lon="5.53956">
        <ele>1348.9</ele>
        <time>2022-01-19T08:41:01Z</time>
      </trkpt>
      <trkpt lat="44.88727" lon="5.53955">
        <ele>1349</ele>
        <time>2022-01-19T08:41:02Z</time>
      </trkpt>
      <trkpt lat="44.88726" lon="5.53955">
        <ele>1349.2</ele>
        <time>2022-01-19T08:41:03Z</time>
      </trkpt>
      <trkpt lat="44.88726" lon="5.53954">
        <ele>1349.3</ele>
        <time>2022-01-19T08:41:04Z</time>
      </trkpt>
      <trkpt lat="44.88726" lon="5.53954">
        <ele>1349.4</ele>
        <time>2022-01-19T08:41:05Z</time>
      </trkpt>
      <trkpt lat="44.88725" lon="5.53953">
        <ele>1349.6</ele>
        <time>2022-01-19T08:41:06Z</time>
      </trkpt>
      <trkpt lat="44.88725" lon="5.53953">
        <ele>1349.7</ele>
        <time>2022-01-19T08:41:07Z</time>
      </trkpt>
      <trkpt lat="44.88725" lon="5.53952">
        <ele>1349.8</ele>
        <time>2022-01-19T08:41:08Z</time>
      </trkpt>
      <trkpt lat="44.88724" lon="5.53952">
        <ele>1350</ele>
        <time>2022-01-19T08:41:09Z</time>
      </trkpt>
      <trkpt lat="44.88724" lon="5.53951">
        <ele>1350.1</ele>
        <time>2022-01-19T08:41:10Z</time>
      </trkpt>
      <trkpt lat="44.88723" lon="5.53951">
        <ele>1350.2</ele>
        <time>2022-01-19T08:41:11Z</time>
      </trkpt>
      <trkpt lat="44.88723" lon="5.5395">
        <ele>1350.3</ele>
        <time>2022-01-19T08:41:12Z</time>
      </trkpt>
      <trkpt lat="44.88723" lon="5.5395">
        <ele>1350.5</ele>
        <time>2022-01-19T08:41:13Z</time>
      </trkpt>
      <trkpt lat="44.88722" lon="5.53949">
        <ele>1350.6</ele>
        <time>2022-01-19T08:41:14Z</time>
      </trkpt>
      <trkpt lat="44.88722" lon="5.53949">
        <ele>1350.8</ele>
        <time>2022-01-19T08:41:15Z</time>
      </trkpt>
      <trkpt lat="44.88722" lon="5.53948">
        <ele>1350.9</ele>
        <time>2022-01-19T08:41:16Z</time>
      </trkpt>
      <trkpt lat="44.88721" lon="5.53948">
        <ele>1351</ele>
        <time>2022-01-19T08:41:17Z</time>
      </trkpt>
      <trkpt lat="44.88721" lon="5.53947">
        <ele>1351.1</ele>
        <time>2022-01-19T08:41:18Z</time>
      </trkpt>
      <trkpt lat="44.8872" lon="5.53947">
        <ele>1351.3</ele>
        <time>2022-01-19T08:41:19Z</time>
      </trkpt>
      <trkpt lat="44.8872" lon="5.53946">
        <ele>1351.4</ele>
        <time>2022-01-19T08:41:20Z</time>
      </trkpt>
      <trkpt lat="44.8872" lon="5.53946">
        <ele>1351.5</ele>
        <time>2022-01-19T08:41:21Z</time>
      </trkpt>
      <trkpt lat="44.88719" lon="5.53945">
        <ele>1351.7</ele>
        <time>2022-01-19T08:41:22Z</time>
      </trkpt>
      <trkpt lat="44.88719" lon="5.53945">
        <ele>1351.8</ele>
        <time>2022-01-19T08:41:23Z</time>
      </trkpt>
      <trkpt lat="44.88719" lon="5.53945">
        <ele>1351.9</ele>
        <time>2022-01-19T08:41:24Z</time>
      </trkpt>
      <trkpt lat="44.88718" lon="5.53944">
        <ele>1352.1</ele>
        <time>2022-01-19T08:41:25Z</time>
      </trkpt>
      <trkpt lat="44.88718" lon="5.53944">
        <ele>1352.2</ele>
        <time>2022-01-19T08:41:26Z</time>
      </trkpt>
      <trkpt lat="44.88718" lon="5.53943">
        <ele>1352.3</ele>
        <time>2022-01-19T08:41:27Z</time>
      </trkpt>
      <trkpt lat="44.88717" lon="5.53943">
        <ele>1352.4</ele>
        <time>2022-01-19T08:41:28Z</time>
      </trkpt>
      <trkpt lat="44.88717" lon="5.53942">
        <ele>1352.6</ele>
        <time>2022-01-19T08:41:29Z</time>
      </trkpt>
      <trkpt lat="44.88716" lon="5.53942">
        <ele>1352.7</ele>
        <time>2022-01-19T08:41:30Z</time>
      </trkpt>
      <trkpt lat="44.88716" lon="5.5394">
        <ele>1352.9</ele>
        <time>2022-01-19T08:41:31Z</time>
      </trkpt>
      <trkpt lat="44.88715" lon="5.5394">
        <ele>1353.1</ele>
        <time>2022-01-19T08:41:32Z</time>
      </trkpt>
      <trkpt lat="44.88715" lon="5.53939">
        <ele>1353.2</ele>
        <time>2022-01-19T08:41:33Z</time>
      </trkpt>
      <trkpt lat="44.88715" lon="5.53939">
        <ele>1353.3</ele>
        <time>2022-01-19T08:41:34Z</time>
      </trkpt>
      <trkpt lat="44.88715" lon="5.53938">
        <ele>1353.5</ele>
        <time>2022-01-19T08:41:35Z</time>
      </trkpt>
      <trkpt lat="44.88714" lon="5.53937">
        <ele>1353.7</ele>
        <time>2022-01-19T08:41:36Z</time>
      </trkpt>
      <trkpt lat="44.88715" lon="5.53936">
        <ele>1353.9</ele>
        <time>2022-01-19T08:41:37Z</time>
      </trkpt>
      <trkpt lat="44.88715" lon="5.53935">
        <ele>1354</ele>
        <time>2022-01-19T08:41:38Z</time>
      </trkpt>
      <trkpt lat="44.88714" lon="5.53935">
        <ele>1354.2</ele>
        <time>2022-01-19T08:41:39Z</time>
      </trkpt>
      <trkpt lat="44.88714" lon="5.53934">
        <ele>1354.3</ele>
        <time>2022-01-19T08:41:40Z</time>
      </trkpt>
      <trkpt lat="44.88714" lon="5.53934">
        <ele>1354.4</ele>
        <time>2022-01-19T08:41:41Z</time>
      </trkpt>
      <trkpt lat="44.88713" lon="5.53933">
        <ele>1354.7</ele>
        <time>2022-01-19T08:41:42Z</time>
      </trkpt>
      <trkpt lat="44.88712" lon="5.53932">
        <ele>1354.8</ele>
        <time>2022-01-19T08:41:43Z</time>
      </trkpt>
      <trkpt lat="44.88712" lon="5.53932">
        <ele>1354.8</ele>
        <time>2022-01-19T08:41:44Z</time>
      </trkpt>
      <trkpt lat="44.88712" lon="5.53931">
        <ele>1355.1</ele>
        <time>2022-01-19T08:41:45Z</time>
      </trkpt>
      <trkpt lat="44.88711" lon="5.53931">
        <ele>1355.3</ele>
        <time>2022-01-19T08:41:46Z</time>
      </trkpt>
      <trkpt lat="44.8871" lon="5.5393">
        <ele>1355.5</ele>
        <time>2022-01-19T08:41:47Z</time>
      </trkpt>
      <trkpt lat="44.8871" lon="5.5393">
        <ele>1355.6</ele>
        <time>2022-01-19T08:41:48Z</time>
      </trkpt>
      <trkpt lat="44.88709" lon="5.53929">
        <ele>1355.7</ele>
        <time>2022-01-19T08:41:49Z</time>
      </trkpt>
      <trkpt lat="44.88709" lon="5.53929">
        <ele>1355.8</ele>
        <time>2022-01-19T08:41:50Z</time>
      </trkpt>
      <trkpt lat="44.88707" lon="5.53929">
        <ele>1356.1</ele>
        <time>2022-01-19T08:41:51Z</time>
      </trkpt>
      <trkpt lat="44.88707" lon="5.53929">
        <ele>1356.2</ele>
        <time>2022-01-19T08:41:52Z</time>
      </trkpt>
      <trkpt lat="44.88707" lon="5.53928">
        <ele>1356.3</ele>
        <time>2022-01-19T08:41:53Z</time>
      </trkpt>
      <trkpt lat="44.88707" lon="5.53927">
        <ele>1356.4</ele>
        <time>2022-01-19T08:41:54Z</time>
      </trkpt>
      <trkpt lat="44.88706" lon="5.53927">
        <ele>1356.6</ele>
        <time>2022-01-19T08:41:55Z</time>
      </trkpt>
      <trkpt lat="44.88706" lon="5.53926">
        <ele>1356.8</ele>
        <time>2022-01-19T08:41:56Z</time>
      </trkpt>
      <trkpt lat="44.88705" lon="5.53925">
        <ele>1356.9</ele>
        <time>2022-01-19T08:41:57Z</time>
      </trkpt>
      <trkpt lat="44.88705" lon="5.53925">
        <ele>1357</ele>
        <time>2022-01-19T08:41:58Z</time>
      </trkpt>
      <trkpt lat="44.88704" lon="5.53924">
        <ele>1357.2</ele>
        <time>2022-01-19T08:41:59Z</time>
      </trkpt>
      <trkpt lat="44.88703" lon="5.53924">
        <ele>1357.3</ele>
        <time>2022-01-19T08:42:00Z</time>
      </trkpt>
      <trkpt lat="44.88702" lon="5.53924">
        <ele>1357.5</ele>
        <time>2022-01-19T08:42:01Z</time>
      </trkpt>
      <trkpt lat="44.88702" lon="5.53924">
        <ele>1357.6</ele>
        <time>2022-01-19T08:42:02Z</time>
      </trkpt>
      <trkpt lat="44.88702" lon="5.53924">
        <ele>1357.7</ele>
        <time>2022-01-19T08:42:03Z</time>
      </trkpt>
      <trkpt lat="44.88701" lon="5.53923">
        <ele>1357.9</ele>
        <time>2022-01-19T08:42:04Z</time>
      </trkpt>
      <trkpt lat="44.88701" lon="5.53922">
        <ele>1358</ele>
        <time>2022-01-19T08:42:05Z</time>
      </trkpt>
      <trkpt lat="44.88701" lon="5.53921">
        <ele>1358.1</ele>
        <time>2022-01-19T08:42:06Z</time>
      </trkpt>
      <trkpt lat="44.88701" lon="5.53921">
        <ele>1358.3</ele>
        <time>2022-01-19T08:42:07Z</time>
      </trkpt>
      <trkpt lat="44.887" lon="5.5392">
        <ele>1358.5</ele>
        <time>2022-01-19T08:42:08Z</time>
      </trkpt>
      <trkpt lat="44.88699" lon="5.53919">
        <ele>1358.6</ele>
        <time>2022-01-19T08:42:09Z</time>
      </trkpt>
      <trkpt lat="44.88699" lon="5.53918">
        <ele>1358.8</ele>
        <time>2022-01-19T08:42:10Z</time>
      </trkpt>
      <trkpt lat="44.88698" lon="5.53918">
        <ele>1359</ele>
        <time>2022-01-19T08:42:11Z</time>
      </trkpt>
      <trkpt lat="44.88698" lon="5.53917">
        <ele>1359</ele>
        <time>2022-01-19T08:42:12Z</time>
      </trkpt>
      <trkpt lat="44.88698" lon="5.53917">
        <ele>1359.1</ele>
        <time>2022-01-19T08:42:13Z</time>
      </trkpt>
      <trkpt lat="44.88698" lon="5.53917">
        <ele>1359.1</ele>
        <time>2022-01-19T08:42:14Z</time>
      </trkpt>
      <trkpt lat="44.88698" lon="5.53917">
        <ele>1359.1</ele>
        <time>2022-01-19T08:42:15Z</time>
      </trkpt>
      <trkpt lat="44.88698" lon="5.53917">
        <ele>1359.1</ele>
        <time>2022-01-19T08:42:16Z</time>
      </trkpt>
      <trkpt lat="44.88698" lon="5.53917">
        <ele>1359.1</ele>
        <time>2022-01-19T08:42:17Z</time>
      </trkpt>
      <trkpt lat="44.88698" lon="5.53917">
        <ele>1359.1</ele>
        <time>2022-01-19T08:42:18Z</time>
      </trkpt>
      <trkpt lat="44.88698" lon="5.53917">
        <ele>1359.1</ele>
        <time>2022-01-19T08:42:19Z</time>
      </trkpt>
      <trkpt lat="44.88698" lon="5.53917">
        <ele>1359.1</ele>
        <time>2022-01-19T08:42:20Z</time>
      </trkpt>
      <trkpt lat="44.88698" lon="5.53917">
        <ele>1359.1</ele>
        <time>2022-01-19T08:42:21Z</time>
      </trkpt>
      <trkpt lat="44.88698" lon="5.53917">
        <ele>1359.1</ele>
        <time>2022-01-19T08:42:22Z</time>
      </trkpt>
      <trkpt lat="44.88698" lon="5.53917">
        <ele>1359.1</ele>
        <time>2022-01-19T08:42:23Z</time>
      </trkpt>
      <trkpt lat="44.88698" lon="5.53917">
        <ele>1359.1</ele>
        <time>2022-01-19T08:42:24Z</time>
      </trkpt>
      <trkpt lat="44.88698" lon="5.53917">
        <ele>1359.1</ele>
        <time>2022-01-19T08:42:25Z</time>
      </trkpt>
      <trkpt lat="44.88698" lon="5.53917">
        <ele>1359.1</ele>
        <time>2022-01-19T08:42:26Z</time>
      </trkpt>
      <trkpt lat="44.88698" lon="5.53917">
        <ele>1359.1</ele>
        <time>2022-01-19T08:42:27Z</time>
      </trkpt>
      <trkpt lat="44.88698" lon="5.53917">
        <ele>1359.1</ele>
        <time>2022-01-19T08:42:28Z</time>
      </trkpt>
      <trkpt lat="44.88698" lon="5.53917">
        <ele>1359.1</ele>
        <time>2022-01-19T08:42:29Z</time>
      </trkpt>
      <trkpt lat="44.88698" lon="5.53917">
        <ele>1359.1</ele>
        <time>2022-01-19T08:42:30Z</time>
      </trkpt>
      <trkpt lat="44.88698" lon="5.53917">
        <ele>1359.1</ele>
        <time>2022-01-19T08:42:31Z</time>
      </trkpt>
      <trkpt lat="44.88698" lon="5.53917">
        <ele>1359.1</ele>
        <time>2022-01-19T08:42:32Z</time>
      </trkpt>
      <trkpt lat="44.88698" lon="5.53917">
        <ele>1359.1</ele>
        <time>2022-01-19T08:42:33Z</time>
      </trkpt>
      <trkpt lat="44.88698" lon="5.53917">
        <ele>1359.1</ele>
        <time>2022-01-19T08:42:34Z</time>
      </trkpt>
      <trkpt lat="44.88698" lon="5.53917">
        <ele>1359.1</ele>
        <time>2022-01-19T08:42:35Z</time>
      </trkpt>
      <trkpt lat="44.88698" lon="5.53917">
        <ele>1359.1</ele>
        <time>2022-01-19T08:42:36Z</time>
      </trkpt>
      <trkpt lat="44.88698" lon="5.53917">
        <ele>1359.1</ele>
        <time>2022-01-19T08:42:37Z</time>
      </trkpt>
      <trkpt lat="44.88698" lon="5.53917">
        <ele>1359.1</ele>
        <time>2022-01-19T08:42:38Z</time>
      </trkpt>
      <trkpt lat="44.88698" lon="5.53917">
        <ele>1359.1</ele>
        <time>2022-01-19T08:42:39Z</time>
      </trkpt>
      <trkpt lat="44.88698" lon="5.53917">
        <ele>1359.1</ele>
        <time>2022-01-19T08:42:40Z</time>
      </trkpt>
      <trkpt lat="44.88698" lon="5.53917">
        <ele>1359.1</ele>
        <time>2022-01-19T08:42:41Z</time>
      </trkpt>
      <trkpt lat="44.88698" lon="5.53917">
        <ele>1359.1</ele>
        <time>2022-01-19T08:42:42Z</time>
      </trkpt>
      <trkpt lat="44.88698" lon="5.53917">
        <ele>1359.1</ele>
        <time>2022-01-19T08:42:43Z</time>
      </trkpt>
      <trkpt lat="44.88698" lon="5.53917">
        <ele>1359.1</ele>
        <time>2022-01-19T08:42:44Z</time>
      </trkpt>
      <trkpt lat="44.88698" lon="5.53917">
        <ele>1359.1</ele>
        <time>2022-01-19T08:42:45Z</time>
      </trkpt>
      <trkpt lat="44.88698" lon="5.53917">
        <ele>1359.1</ele>
        <time>2022-01-19T08:42:46Z</time>
      </trkpt>
      <trkpt lat="44.88698" lon="5.53917">
        <ele>1359.1</ele>
        <time>2022-01-19T08:42:47Z</time>
      </trkpt>
      <trkpt lat="44.88698" lon="5.53917">
        <ele>1359.1</ele>
        <time>2022-01-19T08:42:48Z</time>
      </trkpt>
      <trkpt lat="44.88698" lon="5.53917">
        <ele>1359.1</ele>
        <time>2022-01-19T08:42:49Z</time>
      </trkpt>
      <trkpt lat="44.88698" lon="5.53917">
        <ele>1359.1</ele>
        <time>2022-01-19T08:42:50Z</time>
      </trkpt>
      <trkpt lat="44.88698" lon="5.53917">
        <ele>1359.1</ele>
        <time>2022-01-19T08:42:51Z</time>
      </trkpt>
      <trkpt lat="44.88698" lon="5.53917">
        <ele>1359.1</ele>
        <time>2022-01-19T08:42:52Z</time>
      </trkpt>
      <trkpt lat="44.88698" lon="5.53917">
        <ele>1359.1</ele>
        <time>2022-01-19T08:42:53Z</time>
      </trkpt>
      <trkpt lat="44.88698" lon="5.53917">
        <ele>1359.1</ele>
        <time>2022-01-19T08:42:54Z</time>
      </trkpt>
      <trkpt lat="44.88698" lon="5.53917">
        <ele>1359.1</ele>
        <time>2022-01-19T08:42:55Z</time>
      </trkpt>
      <trkpt lat="44.88698" lon="5.53917">
        <ele>1359.1</ele>
        <time>2022-01-19T08:42:56Z</time>
      </trkpt>
      <trkpt lat="44.88698" lon="5.53917">
        <ele>1359.1</ele>
        <time>2022-01-19T08:42:57Z</time>
      </trkpt>
      <trkpt lat="44.88691" lon="5.53915">
        <ele>1360.7</ele>
        <time>2022-01-19T08:42:58Z</time>
      </trkpt>
      <trkpt lat="44.8869" lon="5.53914">
        <ele>1360.9</ele>
        <time>2022-01-19T08:42:59Z</time>
      </trkpt>
      <trkpt lat="44.8869" lon="5.53913">
        <ele>1361.1</ele>
        <time>2022-01-19T08:43:00Z</time>
      </trkpt>
      <trkpt lat="44.88688" lon="5.53912">
        <ele>1361.5</ele>
        <time>2022-01-19T08:43:01Z</time>
      </trkpt>
      <trkpt lat="44.88688" lon="5.53911">
        <ele>1361.7</ele>
        <time>2022-01-19T08:43:02Z</time>
      </trkpt>
      <trkpt lat="44.88688" lon="5.5391">
        <ele>1361.8</ele>
        <time>2022-01-19T08:43:03Z</time>
      </trkpt>
      <trkpt lat="44.88688" lon="5.53909">
        <ele>1361.9</ele>
        <time>2022-01-19T08:43:04Z</time>
      </trkpt>
      <trkpt lat="44.88687" lon="5.53909">
        <ele>1362</ele>
        <time>2022-01-19T08:43:05Z</time>
      </trkpt>
      <trkpt lat="44.88687" lon="5.53908">
        <ele>1362.2</ele>
        <time>2022-01-19T08:43:06Z</time>
      </trkpt>
      <trkpt lat="44.88686" lon="5.53907">
        <ele>1362.3</ele>
        <time>2022-01-19T08:43:07Z</time>
      </trkpt>
      <trkpt lat="44.88686" lon="5.53906">
        <ele>1362.4</ele>
        <time>2022-01-19T08:43:08Z</time>
      </trkpt>
      <trkpt lat="44.88685" lon="5.53906">
        <ele>1362.7</ele>
        <time>2022-01-19T08:43:09Z</time>
      </trkpt>
      <trkpt lat="44.88684" lon="5.53906">
        <ele>1362.9</ele>
        <time>2022-01-19T08:43:10Z</time>
      </trkpt>
      <trkpt lat="44.88683" lon="5.53905">
        <ele>1363.2</ele>
        <time>2022-01-19T08:43:11Z</time>
      </trkpt>
      <trkpt lat="44.88682" lon="5.53905">
        <ele>1363.4</ele>
        <time>2022-01-19T08:43:12Z</time>
      </trkpt>
      <trkpt lat="44.88681" lon="5.53904">
        <ele>1363.5</ele>
        <time>2022-01-19T08:43:13Z</time>
      </trkpt>
      <trkpt lat="44.8868" lon="5.53903">
        <ele>1363.7</ele>
        <time>2022-01-19T08:43:14Z</time>
      </trkpt>
      <trkpt lat="44.8868" lon="5.53903">
        <ele>1363.7</ele>
        <time>2022-01-19T08:43:15Z</time>
      </trkpt>
      <trkpt lat="44.8868" lon="5.53902">
        <ele>1363.9</ele>
        <time>2022-01-19T08:43:16Z</time>
      </trkpt>
      <trkpt lat="44.88679" lon="5.53901">
        <ele>1364.1</ele>
        <time>2022-01-19T08:43:17Z</time>
      </trkpt>
      <trkpt lat="44.88678" lon="5.53901">
        <ele>1364.2</ele>
        <time>2022-01-19T08:43:18Z</time>
      </trkpt>
      <trkpt lat="44.88678" lon="5.539">
        <ele>1364.3</ele>
        <time>2022-01-19T08:43:19Z</time>
      </trkpt>
      <trkpt lat="44.88677" lon="5.53899">
        <ele>1364.5</ele>
        <time>2022-01-19T08:43:20Z</time>
      </trkpt>
      <trkpt lat="44.88677" lon="5.53899">
        <ele>1364.6</ele>
        <time>2022-01-19T08:43:21Z</time>
      </trkpt>
      <trkpt lat="44.88676" lon="5.53898">
        <ele>1364.8</ele>
        <time>2022-01-19T08:43:22Z</time>
      </trkpt>
      <trkpt lat="44.88676" lon="5.53897">
        <ele>1364.9</ele>
        <time>2022-01-19T08:43:23Z</time>
      </trkpt>
      <trkpt lat="44.88675" lon="5.53897">
        <ele>1365</ele>
        <time>2022-01-19T08:43:24Z</time>
      </trkpt>
      <trkpt lat="44.88675" lon="5.53896">
        <ele>1365.1</ele>
        <time>2022-01-19T08:43:25Z</time>
      </trkpt>
      <trkpt lat="44.88675" lon="5.53896">
        <ele>1365.2</ele>
        <time>2022-01-19T08:43:26Z</time>
      </trkpt>
      <trkpt lat="44.88674" lon="5.53895">
        <ele>1365.4</ele>
        <time>2022-01-19T08:43:27Z</time>
      </trkpt>
      <trkpt lat="44.88674" lon="5.53894">
        <ele>1365.6</ele>
        <time>2022-01-19T08:43:28Z</time>
      </trkpt>
      <trkpt lat="44.88673" lon="5.53893">
        <ele>1365.7</ele>
        <time>2022-01-19T08:43:29Z</time>
      </trkpt>
      <trkpt lat="44.88672" lon="5.53892">
        <ele>1365.9</ele>
        <time>2022-01-19T08:43:30Z</time>
      </trkpt>
      <trkpt lat="44.88672" lon="5.53892">
        <ele>1366</ele>
        <time>2022-01-19T08:43:31Z</time>
      </trkpt>
      <trkpt lat="44.88672" lon="5.53891">
        <ele>1366.2</ele>
        <time>2022-01-19T08:43:32Z</time>
      </trkpt>
      <trkpt lat="44.88671" lon="5.5389">
        <ele>1366.3</ele>
        <time>2022-01-19T08:43:33Z</time>
      </trkpt>
      <trkpt lat="44.88671" lon="5.5389">
        <ele>1366.4</ele>
        <time>2022-01-19T08:43:34Z</time>
      </trkpt>
      <trkpt lat="44.8867" lon="5.53888">
        <ele>1366.6</ele>
        <time>2022-01-19T08:43:35Z</time>
      </trkpt>
      <trkpt lat="44.8867" lon="5.53888">
        <ele>1366.7</ele>
        <time>2022-01-19T08:43:36Z</time>
      </trkpt>
      <trkpt lat="44.8867" lon="5.53887">
        <ele>1366.8</ele>
        <time>2022-01-19T08:43:37Z</time>
      </trkpt>
      <trkpt lat="44.88669" lon="5.53886">
        <ele>1367</ele>
        <time>2022-01-19T08:43:38Z</time>
      </trkpt>
      <trkpt lat="44.88669" lon="5.53885">
        <ele>1367.2</ele>
        <time>2022-01-19T08:43:39Z</time>
      </trkpt>
      <trkpt lat="44.88668" lon="5.53884">
        <ele>1367.3</ele>
        <time>2022-01-19T08:43:40Z</time>
      </trkpt>
      <trkpt lat="44.88668" lon="5.53884">
        <ele>1367.4</ele>
        <time>2022-01-19T08:43:41Z</time>
      </trkpt>
      <trkpt lat="44.88667" lon="5.53883">
        <ele>1367.6</ele>
        <time>2022-01-19T08:43:42Z</time>
      </trkpt>
      <trkpt lat="44.88667" lon="5.53882">
        <ele>1367.8</ele>
        <time>2022-01-19T08:43:43Z</time>
      </trkpt>
      <trkpt lat="44.88667" lon="5.53881">
        <ele>1367.9</ele>
        <time>2022-01-19T08:43:44Z</time>
      </trkpt>
      <trkpt lat="44.88666" lon="5.53881">
        <ele>1368</ele>
        <time>2022-01-19T08:43:45Z</time>
      </trkpt>
      <trkpt lat="44.88665" lon="5.5388">
        <ele>1368.2</ele>
        <time>2022-01-19T08:43:46Z</time>
      </trkpt>
      <trkpt lat="44.88664" lon="5.53879">
        <ele>1368.5</ele>
        <time>2022-01-19T08:43:47Z</time>
      </trkpt>
      <trkpt lat="44.88664" lon="5.53878">
        <ele>1368.6</ele>
        <time>2022-01-19T08:43:48Z</time>
      </trkpt>
      <trkpt lat="44.88664" lon="5.53877">
        <ele>1368.8</ele>
        <time>2022-01-19T08:43:49Z</time>
      </trkpt>
      <trkpt lat="44.88664" lon="5.53876">
        <ele>1368.9</ele>
        <time>2022-01-19T08:43:50Z</time>
      </trkpt>
      <trkpt lat="44.88663" lon="5.53874">
        <ele>1369.2</ele>
        <time>2022-01-19T08:43:51Z</time>
      </trkpt>
      <trkpt lat="44.88663" lon="5.53874">
        <ele>1369.3</ele>
        <time>2022-01-19T08:43:52Z</time>
      </trkpt>
      <trkpt lat="44.88662" lon="5.53872">
        <ele>1369.5</ele>
        <time>2022-01-19T08:43:53Z</time>
      </trkpt>
      <trkpt lat="44.88662" lon="5.53872">
        <ele>1369.6</ele>
        <time>2022-01-19T08:43:54Z</time>
      </trkpt>
      <trkpt lat="44.88661" lon="5.5387">
        <ele>1369.8</ele>
        <time>2022-01-19T08:43:55Z</time>
      </trkpt>
      <trkpt lat="44.8866" lon="5.53869">
        <ele>1370</ele>
        <time>2022-01-19T08:43:56Z</time>
      </trkpt>
      <trkpt lat="44.8866" lon="5.53868">
        <ele>1370.2</ele>
        <time>2022-01-19T08:43:57Z</time>
      </trkpt>
      <trkpt lat="44.88659" lon="5.53867">
        <ele>1370.4</ele>
        <time>2022-01-19T08:43:58Z</time>
      </trkpt>
      <trkpt lat="44.88659" lon="5.53866">
        <ele>1370.5</ele>
        <time>2022-01-19T08:43:59Z</time>
      </trkpt>
      <trkpt lat="44.88658" lon="5.53865">
        <ele>1370.7</ele>
        <time>2022-01-19T08:44:00Z</time>
      </trkpt>
      <trkpt lat="44.88657" lon="5.53865">
        <ele>1371</ele>
        <time>2022-01-19T08:44:01Z</time>
      </trkpt>
      <trkpt lat="44.88657" lon="5.53864">
        <ele>1371.1</ele>
        <time>2022-01-19T08:44:02Z</time>
      </trkpt>
      <trkpt lat="44.88656" lon="5.53862">
        <ele>1371.3</ele>
        <time>2022-01-19T08:44:03Z</time>
      </trkpt>
      <trkpt lat="44.88656" lon="5.53862">
        <ele>1371.4</ele>
        <time>2022-01-19T08:44:04Z</time>
      </trkpt>
      <trkpt lat="44.88656" lon="5.53861">
        <ele>1371.5</ele>
        <time>2022-01-19T08:44:05Z</time>
      </trkpt>
      <trkpt lat="44.88656" lon="5.5386">
        <ele>1371.6</ele>
        <time>2022-01-19T08:44:06Z</time>
      </trkpt>
      <trkpt lat="44.88655" lon="5.53859">
        <ele>1371.8</ele>
        <time>2022-01-19T08:44:07Z</time>
      </trkpt>
      <trkpt lat="44.88654" lon="5.53858">
        <ele>1371.9</ele>
        <time>2022-01-19T08:44:08Z</time>
      </trkpt>
      <trkpt lat="44.88653" lon="5.53858">
        <ele>1372.2</ele>
        <time>2022-01-19T08:44:09Z</time>
      </trkpt>
      <trkpt lat="44.88653" lon="5.53857">
        <ele>1372.3</ele>
        <time>2022-01-19T08:44:10Z</time>
      </trkpt>
      <trkpt lat="44.88652" lon="5.53857">
        <ele>1372.5</ele>
        <time>2022-01-19T08:44:11Z</time>
      </trkpt>
      <trkpt lat="44.88651" lon="5.53856">
        <ele>1372.6</ele>
        <time>2022-01-19T08:44:12Z</time>
      </trkpt>
      <trkpt lat="44.88651" lon="5.53855">
        <ele>1372.8</ele>
        <time>2022-01-19T08:44:13Z</time>
      </trkpt>
      <trkpt lat="44.8865" lon="5.53855">
        <ele>1372.9</ele>
        <time>2022-01-19T08:44:14Z</time>
      </trkpt>
      <trkpt lat="44.88649" lon="5.53854">
        <ele>1373</ele>
        <time>2022-01-19T08:44:15Z</time>
      </trkpt>
      <trkpt lat="44.88648" lon="5.53853">
        <ele>1373.3</ele>
        <time>2022-01-19T08:44:16Z</time>
      </trkpt>
      <trkpt lat="44.88648" lon="5.53853">
        <ele>1373.4</ele>
        <time>2022-01-19T08:44:17Z</time>
      </trkpt>
      <trkpt lat="44.88646" lon="5.53852">
        <ele>1373.6</ele>
        <time>2022-01-19T08:44:18Z</time>
      </trkpt>
      <trkpt lat="44.88646" lon="5.53852">
        <ele>1373.8</ele>
        <time>2022-01-19T08:44:19Z</time>
      </trkpt>
      <trkpt lat="44.88645" lon="5.53852">
        <ele>1373.9</ele>
        <time>2022-01-19T08:44:20Z</time>
      </trkpt>
      <trkpt lat="44.88644" lon="5.53851">
        <ele>1374</ele>
        <time>2022-01-19T08:44:21Z</time>
      </trkpt>
      <trkpt lat="44.88644" lon="5.53852">
        <ele>1374.1</ele>
        <time>2022-01-19T08:44:22Z</time>
      </trkpt>
      <trkpt lat="44.88644" lon="5.53852">
        <ele>1374.2</ele>
        <time>2022-01-19T08:44:23Z</time>
      </trkpt>
      <trkpt lat="44.88643" lon="5.53851">
        <ele>1374.3</ele>
        <time>2022-01-19T08:44:24Z</time>
      </trkpt>
      <trkpt lat="44.88643" lon="5.53851">
        <ele>1374.4</ele>
        <time>2022-01-19T08:44:25Z</time>
      </trkpt>
      <trkpt lat="44.88642" lon="5.5385">
        <ele>1374.5</ele>
        <time>2022-01-19T08:44:26Z</time>
      </trkpt>
      <trkpt lat="44.88641" lon="5.5385">
        <ele>1374.7</ele>
        <time>2022-01-19T08:44:27Z</time>
      </trkpt>
      <trkpt lat="44.88641" lon="5.53849">
        <ele>1374.8</ele>
        <time>2022-01-19T08:44:28Z</time>
      </trkpt>
      <trkpt lat="44.8864" lon="5.53849">
        <ele>1374.9</ele>
        <time>2022-01-19T08:44:29Z</time>
      </trkpt>
      <trkpt lat="44.8864" lon="5.53848">
        <ele>1375.1</ele>
        <time>2022-01-19T08:44:30Z</time>
      </trkpt>
      <trkpt lat="44.88638" lon="5.53847">
        <ele>1375.3</ele>
        <time>2022-01-19T08:44:31Z</time>
      </trkpt>
      <trkpt lat="44.88638" lon="5.53846">
        <ele>1375.4</ele>
        <time>2022-01-19T08:44:32Z</time>
      </trkpt>
      <trkpt lat="44.88637" lon="5.53845">
        <ele>1375.6</ele>
        <time>2022-01-19T08:44:33Z</time>
      </trkpt>
      <trkpt lat="44.88637" lon="5.53845">
        <ele>1375.6</ele>
        <time>2022-01-19T08:44:34Z</time>
      </trkpt>
      <trkpt lat="44.88637" lon="5.53844">
        <ele>1375.8</ele>
        <time>2022-01-19T08:44:35Z</time>
      </trkpt>
      <trkpt lat="44.88636" lon="5.53843">
        <ele>1375.9</ele>
        <time>2022-01-19T08:44:36Z</time>
      </trkpt>
      <trkpt lat="44.88636" lon="5.53843">
        <ele>1376</ele>
        <time>2022-01-19T08:44:37Z</time>
      </trkpt>
      <trkpt lat="44.88634" lon="5.53842">
        <ele>1376.3</ele>
        <time>2022-01-19T08:44:38Z</time>
      </trkpt>
      <trkpt lat="44.88633" lon="5.53842">
        <ele>1376.5</ele>
        <time>2022-01-19T08:44:39Z</time>
      </trkpt>
      <trkpt lat="44.88633" lon="5.53841">
        <ele>1376.5</ele>
        <time>2022-01-19T08:44:40Z</time>
      </trkpt>
      <trkpt lat="44.88633" lon="5.5384">
        <ele>1376.7</ele>
        <time>2022-01-19T08:44:41Z</time>
      </trkpt>
      <trkpt lat="44.88633" lon="5.53839">
        <ele>1376.8</ele>
        <time>2022-01-19T08:44:42Z</time>
      </trkpt>
      <trkpt lat="44.88632" lon="5.53838">
        <ele>1377</ele>
        <time>2022-01-19T08:44:43Z</time>
      </trkpt>
      <trkpt lat="44.88633" lon="5.53838">
        <ele>1377.1</ele>
        <time>2022-01-19T08:44:44Z</time>
      </trkpt>
      <trkpt lat="44.88632" lon="5.53838">
        <ele>1377.2</ele>
        <time>2022-01-19T08:44:45Z</time>
      </trkpt>
      <trkpt lat="44.88632" lon="5.53837">
        <ele>1377.3</ele>
        <time>2022-01-19T08:44:46Z</time>
      </trkpt>
      <trkpt lat="44.88631" lon="5.53836">
        <ele>1377.5</ele>
        <time>2022-01-19T08:44:47Z</time>
      </trkpt>
      <trkpt lat="44.8863" lon="5.53836">
        <ele>1377.6</ele>
        <time>2022-01-19T08:44:48Z</time>
      </trkpt>
      <trkpt lat="44.8863" lon="5.53836">
        <ele>1377.6</ele>
        <time>2022-01-19T08:44:49Z</time>
      </trkpt>
      <trkpt lat="44.8863" lon="5.53836">
        <ele>1377.7</ele>
        <time>2022-01-19T08:44:50Z</time>
      </trkpt>
      <trkpt lat="44.8863" lon="5.53835">
        <ele>1377.8</ele>
        <time>2022-01-19T08:44:51Z</time>
      </trkpt>
      <trkpt lat="44.88629" lon="5.53835">
        <ele>1377.9</ele>
        <time>2022-01-19T08:44:52Z</time>
      </trkpt>
      <trkpt lat="44.88629" lon="5.53835">
        <ele>1377.9</ele>
        <time>2022-01-19T08:44:53Z</time>
      </trkpt>
      <trkpt lat="44.88629" lon="5.53834">
        <ele>1377.9</ele>
        <time>2022-01-19T08:44:54Z</time>
      </trkpt>
      <trkpt lat="44.88628" lon="5.53833">
        <ele>1378.1</ele>
        <time>2022-01-19T08:44:55Z</time>
      </trkpt>
      <trkpt lat="44.88628" lon="5.53833">
        <ele>1378.2</ele>
        <time>2022-01-19T08:44:56Z</time>
      </trkpt>
      <trkpt lat="44.88627" lon="5.53832">
        <ele>1378.3</ele>
        <time>2022-01-19T08:44:57Z</time>
      </trkpt>
      <trkpt lat="44.88626" lon="5.53832">
        <ele>1378.7</ele>
        <time>2022-01-19T08:44:58Z</time>
      </trkpt>
      <trkpt lat="44.88625" lon="5.53832">
        <ele>1378.7</ele>
        <time>2022-01-19T08:44:59Z</time>
      </trkpt>
      <trkpt lat="44.88625" lon="5.53831">
        <ele>1378.9</ele>
        <time>2022-01-19T08:45:00Z</time>
      </trkpt>
      <trkpt lat="44.88624" lon="5.5383">
        <ele>1379.1</ele>
        <time>2022-01-19T08:45:01Z</time>
      </trkpt>
      <trkpt lat="44.88623" lon="5.53829">
        <ele>1379.3</ele>
        <time>2022-01-19T08:45:02Z</time>
      </trkpt>
      <trkpt lat="44.88622" lon="5.53829">
        <ele>1379.5</ele>
        <time>2022-01-19T08:45:03Z</time>
      </trkpt>
      <trkpt lat="44.88621" lon="5.53828">
        <ele>1379.8</ele>
        <time>2022-01-19T08:45:04Z</time>
      </trkpt>
      <trkpt lat="44.8862" lon="5.53828">
        <ele>1380</ele>
        <time>2022-01-19T08:45:05Z</time>
      </trkpt>
      <trkpt lat="44.88619" lon="5.53827">
        <ele>1380.1</ele>
        <time>2022-01-19T08:45:06Z</time>
      </trkpt>
      <trkpt lat="44.88619" lon="5.53826">
        <ele>1380.3</ele>
        <time>2022-01-19T08:45:07Z</time>
      </trkpt>
      <trkpt lat="44.88617" lon="5.53824">
        <ele>1380.6</ele>
        <time>2022-01-19T08:45:08Z</time>
      </trkpt>
      <trkpt lat="44.88617" lon="5.53824">
        <ele>1380.7</ele>
        <time>2022-01-19T08:45:09Z</time>
      </trkpt>
      <trkpt lat="44.88616" lon="5.53823">
        <ele>1381</ele>
        <time>2022-01-19T08:45:10Z</time>
      </trkpt>
      <trkpt lat="44.88614" lon="5.53823">
        <ele>1381.2</ele>
        <time>2022-01-19T08:45:11Z</time>
      </trkpt>
      <trkpt lat="44.88614" lon="5.53822">
        <ele>1381.3</ele>
        <time>2022-01-19T08:45:12Z</time>
      </trkpt>
      <trkpt lat="44.88614" lon="5.53821">
        <ele>1381.4</ele>
        <time>2022-01-19T08:45:13Z</time>
      </trkpt>
      <trkpt lat="44.88613" lon="5.53821">
        <ele>1381.5</ele>
        <time>2022-01-19T08:45:14Z</time>
      </trkpt>
      <trkpt lat="44.88613" lon="5.53821">
        <ele>1381.6</ele>
        <time>2022-01-19T08:45:15Z</time>
      </trkpt>
      <trkpt lat="44.88612" lon="5.5382">
        <ele>1381.8</ele>
        <time>2022-01-19T08:45:16Z</time>
      </trkpt>
      <trkpt lat="44.88611" lon="5.5382">
        <ele>1382</ele>
        <time>2022-01-19T08:45:17Z</time>
      </trkpt>
      <trkpt lat="44.8861" lon="5.5382">
        <ele>1382.1</ele>
        <time>2022-01-19T08:45:18Z</time>
      </trkpt>
      <trkpt lat="44.88609" lon="5.53819">
        <ele>1382.4</ele>
        <time>2022-01-19T08:45:19Z</time>
      </trkpt>
      <trkpt lat="44.88608" lon="5.53819">
        <ele>1382.5</ele>
        <time>2022-01-19T08:45:20Z</time>
      </trkpt>
      <trkpt lat="44.88608" lon="5.53818">
        <ele>1382.6</ele>
        <time>2022-01-19T08:45:21Z</time>
      </trkpt>
      <trkpt lat="44.88607" lon="5.53817">
        <ele>1382.8</ele>
        <time>2022-01-19T08:45:22Z</time>
      </trkpt>
      <trkpt lat="44.88607" lon="5.53817">
        <ele>1382.8</ele>
        <time>2022-01-19T08:45:23Z</time>
      </trkpt>
      <trkpt lat="44.88606" lon="5.53816">
        <ele>1383</ele>
        <time>2022-01-19T08:45:24Z</time>
      </trkpt>
      <trkpt lat="44.88606" lon="5.53816">
        <ele>1383.1</ele>
        <time>2022-01-19T08:45:25Z</time>
      </trkpt>
      <trkpt lat="44.88604" lon="5.53815">
        <ele>1383.3</ele>
        <time>2022-01-19T08:45:26Z</time>
      </trkpt>
      <trkpt lat="44.88604" lon="5.53814">
        <ele>1383.4</ele>
        <time>2022-01-19T08:45:27Z</time>
      </trkpt>
      <trkpt lat="44.88603" lon="5.53813">
        <ele>1383.7</ele>
        <time>2022-01-19T08:45:28Z</time>
      </trkpt>
      <trkpt lat="44.88603" lon="5.53813">
        <ele>1383.8</ele>
        <time>2022-01-19T08:45:29Z</time>
      </trkpt>
      <trkpt lat="44.88601" lon="5.53812">
        <ele>1384</ele>
        <time>2022-01-19T08:45:30Z</time>
      </trkpt>
      <trkpt lat="44.88601" lon="5.53811">
        <ele>1384.2</ele>
        <time>2022-01-19T08:45:31Z</time>
      </trkpt>
      <trkpt lat="44.886" lon="5.53811">
        <ele>1384.3</ele>
        <time>2022-01-19T08:45:32Z</time>
      </trkpt>
      <trkpt lat="44.886" lon="5.53811">
        <ele>1384.3</ele>
        <time>2022-01-19T08:45:33Z</time>
      </trkpt>
      <trkpt lat="44.88599" lon="5.53811">
        <ele>1384.6</ele>
        <time>2022-01-19T08:45:34Z</time>
      </trkpt>
      <trkpt lat="44.88598" lon="5.53811">
        <ele>1384.7</ele>
        <time>2022-01-19T08:45:35Z</time>
      </trkpt>
      <trkpt lat="44.88597" lon="5.53809">
        <ele>1384.9</ele>
        <time>2022-01-19T08:45:36Z</time>
      </trkpt>
      <trkpt lat="44.88596" lon="5.53808">
        <ele>1385.1</ele>
        <time>2022-01-19T08:45:37Z</time>
      </trkpt>
      <trkpt lat="44.88595" lon="5.53807">
        <ele>1385.3</ele>
        <time>2022-01-19T08:45:38Z</time>
      </trkpt>
      <trkpt lat="44.88595" lon="5.53807">
        <ele>1385.5</ele>
        <time>2022-01-19T08:45:39Z</time>
      </trkpt>
      <trkpt lat="44.88594" lon="5.53806">
        <ele>1385.6</ele>
        <time>2022-01-19T08:45:40Z</time>
      </trkpt>
      <trkpt lat="44.88594" lon="5.53806">
        <ele>1385.7</ele>
        <time>2022-01-19T08:45:41Z</time>
      </trkpt>
      <trkpt lat="44.88594" lon="5.53805">
        <ele>1385.8</ele>
        <time>2022-01-19T08:45:42Z</time>
      </trkpt>
      <trkpt lat="44.88593" lon="5.53805">
        <ele>1386</ele>
        <time>2022-01-19T08:45:43Z</time>
      </trkpt>
      <trkpt lat="44.88592" lon="5.53805">
        <ele>1386.2</ele>
        <time>2022-01-19T08:45:44Z</time>
      </trkpt>
      <trkpt lat="44.88591" lon="5.53805">
        <ele>1386.3</ele>
        <time>2022-01-19T08:45:45Z</time>
      </trkpt>
      <trkpt lat="44.8859" lon="5.53805">
        <ele>1386.4</ele>
        <time>2022-01-19T08:45:46Z</time>
      </trkpt>
      <trkpt lat="44.88591" lon="5.53804">
        <ele>1386.5</ele>
        <time>2022-01-19T08:45:47Z</time>
      </trkpt>
      <trkpt lat="44.8859" lon="5.53804">
        <ele>1386.6</ele>
        <time>2022-01-19T08:45:48Z</time>
      </trkpt>
      <trkpt lat="44.8859" lon="5.53803">
        <ele>1386.7</ele>
        <time>2022-01-19T08:45:49Z</time>
      </trkpt>
      <trkpt lat="44.88589" lon="5.53803">
        <ele>1386.9</ele>
        <time>2022-01-19T08:45:50Z</time>
      </trkpt>
      <trkpt lat="44.88588" lon="5.53803">
        <ele>1386.9</ele>
        <time>2022-01-19T08:45:51Z</time>
      </trkpt>
      <trkpt lat="44.88587" lon="5.53802">
        <ele>1387.1</ele>
        <time>2022-01-19T08:45:52Z</time>
      </trkpt>
      <trkpt lat="44.88587" lon="5.53802">
        <ele>1387.2</ele>
        <time>2022-01-19T08:45:53Z</time>
      </trkpt>
      <trkpt lat="44.88587" lon="5.53801">
        <ele>1387.3</ele>
        <time>2022-01-19T08:45:54Z</time>
      </trkpt>
      <trkpt lat="44.88586" lon="5.538">
        <ele>1387.5</ele>
        <time>2022-01-19T08:45:55Z</time>
      </trkpt>
      <trkpt lat="44.88585" lon="5.538">
        <ele>1387.7</ele>
        <time>2022-01-19T08:45:56Z</time>
      </trkpt>
      <trkpt lat="44.88584" lon="5.538">
        <ele>1387.8</ele>
        <time>2022-01-19T08:45:57Z</time>
      </trkpt>
      <trkpt lat="44.88584" lon="5.538">
        <ele>1387.9</ele>
        <time>2022-01-19T08:45:58Z</time>
      </trkpt>
      <trkpt lat="44.88583" lon="5.538">
        <ele>1388</ele>
        <time>2022-01-19T08:45:59Z</time>
      </trkpt>
      <trkpt lat="44.88582" lon="5.538">
        <ele>1388.1</ele>
        <time>2022-01-19T08:46:00Z</time>
      </trkpt>
      <trkpt lat="44.88582" lon="5.538">
        <ele>1388.3</ele>
        <time>2022-01-19T08:46:01Z</time>
      </trkpt>
      <trkpt lat="44.8858" lon="5.538">
        <ele>1388.6</ele>
        <time>2022-01-19T08:46:02Z</time>
      </trkpt>
      <trkpt lat="44.88579" lon="5.538">
        <ele>1388.8</ele>
        <time>2022-01-19T08:46:03Z</time>
      </trkpt>
      <trkpt lat="44.88578" lon="5.53799">
        <ele>1388.9</ele>
        <time>2022-01-19T08:46:04Z</time>
      </trkpt>
      <trkpt lat="44.88578" lon="5.53799">
        <ele>1389.1</ele>
        <time>2022-01-19T08:46:05Z</time>
      </trkpt>
      <trkpt lat="44.88577" lon="5.53798">
        <ele>1389.2</ele>
        <time>2022-01-19T08:46:06Z</time>
      </trkpt>
      <trkpt lat="44.88577" lon="5.53797">
        <ele>1389.3</ele>
        <time>2022-01-19T08:46:07Z</time>
      </trkpt>
      <trkpt lat="44.88576" lon="5.53796">
        <ele>1389.5</ele>
        <time>2022-01-19T08:46:08Z</time>
      </trkpt>
      <trkpt lat="44.88575" lon="5.53796">
        <ele>1389.6</ele>
        <time>2022-01-19T08:46:09Z</time>
      </trkpt>
      <trkpt lat="44.88574" lon="5.53794">
        <ele>1390</ele>
        <time>2022-01-19T08:46:10Z</time>
      </trkpt>
      <trkpt lat="44.88572" lon="5.53794">
        <ele>1390.3</ele>
        <time>2022-01-19T08:46:11Z</time>
      </trkpt>
      <trkpt lat="44.88572" lon="5.53793">
        <ele>1390.3</ele>
        <time>2022-01-19T08:46:12Z</time>
      </trkpt>
      <trkpt lat="44.88571" lon="5.53792">
        <ele>1390.6</ele>
        <time>2022-01-19T08:46:13Z</time>
      </trkpt>
      <trkpt lat="44.88571" lon="5.53792">
        <ele>1390.7</ele>
        <time>2022-01-19T08:46:14Z</time>
      </trkpt>
      <trkpt lat="44.8857" lon="5.53792">
        <ele>1390.8</ele>
        <time>2022-01-19T08:46:15Z</time>
      </trkpt>
      <trkpt lat="44.88569" lon="5.5379">
        <ele>1391</ele>
        <time>2022-01-19T08:46:16Z</time>
      </trkpt>
      <trkpt lat="44.88569" lon="5.5379">
        <ele>1391.1</ele>
        <time>2022-01-19T08:46:17Z</time>
      </trkpt>
      <trkpt lat="44.88568" lon="5.5379">
        <ele>1391.3</ele>
        <time>2022-01-19T08:46:18Z</time>
      </trkpt>
      <trkpt lat="44.88567" lon="5.53789">
        <ele>1391.4</ele>
        <time>2022-01-19T08:46:19Z</time>
      </trkpt>
      <trkpt lat="44.88567" lon="5.53789">
        <ele>1391.4</ele>
        <time>2022-01-19T08:46:20Z</time>
      </trkpt>
      <trkpt lat="44.88567" lon="5.53789">
        <ele>1391.5</ele>
        <time>2022-01-19T08:46:21Z</time>
      </trkpt>
      <trkpt lat="44.88567" lon="5.53789">
        <ele>1391.6</ele>
        <time>2022-01-19T08:46:22Z</time>
      </trkpt>
      <trkpt lat="44.88567" lon="5.53788">
        <ele>1391.6</ele>
        <time>2022-01-19T08:46:23Z</time>
      </trkpt>
      <trkpt lat="44.88567" lon="5.53788">
        <ele>1391.8</ele>
        <time>2022-01-19T08:46:24Z</time>
      </trkpt>
      <trkpt lat="44.88566" lon="5.53788">
        <ele>1391.9</ele>
        <time>2022-01-19T08:46:25Z</time>
      </trkpt>
      <trkpt lat="44.88566" lon="5.53788">
        <ele>1391.9</ele>
        <time>2022-01-19T08:46:26Z</time>
      </trkpt>
      <trkpt lat="44.88566" lon="5.53788">
        <ele>1391.9</ele>
        <time>2022-01-19T08:46:27Z</time>
      </trkpt>
      <trkpt lat="44.88566" lon="5.53788">
        <ele>1391.9</ele>
        <time>2022-01-19T08:46:28Z</time>
      </trkpt>
      <trkpt lat="44.88565" lon="5.53787">
        <ele>1392.2</ele>
        <time>2022-01-19T08:46:29Z</time>
      </trkpt>
      <trkpt lat="44.88564" lon="5.53787">
        <ele>1392.4</ele>
        <time>2022-01-19T08:46:30Z</time>
      </trkpt>
      <trkpt lat="44.88564" lon="5.53786">
        <ele>1392.6</ele>
        <time>2022-01-19T08:46:31Z</time>
      </trkpt>
      <trkpt lat="44.88563" lon="5.53786">
        <ele>1392.8</ele>
        <time>2022-01-19T08:46:32Z</time>
      </trkpt>
      <trkpt lat="44.88562" lon="5.53785">
        <ele>1392.9</ele>
        <time>2022-01-19T08:46:33Z</time>
      </trkpt>
      <trkpt lat="44.88562" lon="5.53785">
        <ele>1393</ele>
        <time>2022-01-19T08:46:34Z</time>
      </trkpt>
      <trkpt lat="44.88562" lon="5.53784">
        <ele>1393.1</ele>
        <time>2022-01-19T08:46:35Z</time>
      </trkpt>
      <trkpt lat="44.88562" lon="5.53783">
        <ele>1393.3</ele>
        <time>2022-01-19T08:46:36Z</time>
      </trkpt>
      <trkpt lat="44.88561" lon="5.53782">
        <ele>1393.6</ele>
        <time>2022-01-19T08:46:37Z</time>
      </trkpt>
      <trkpt lat="44.88561" lon="5.53781">
        <ele>1393.6</ele>
        <time>2022-01-19T08:46:38Z</time>
      </trkpt>
      <trkpt lat="44.88561" lon="5.53781">
        <ele>1393.8</ele>
        <time>2022-01-19T08:46:39Z</time>
      </trkpt>
      <trkpt lat="44.8856" lon="5.5378">
        <ele>1393.9</ele>
        <time>2022-01-19T08:46:40Z</time>
      </trkpt>
      <trkpt lat="44.88559" lon="5.53781">
        <ele>1394.1</ele>
        <time>2022-01-19T08:46:41Z</time>
      </trkpt>
      <trkpt lat="44.88557" lon="5.5378">
        <ele>1394.7</ele>
        <time>2022-01-19T08:46:42Z</time>
      </trkpt>
      <trkpt lat="44.88556" lon="5.5378">
        <ele>1394.8</ele>
        <time>2022-01-19T08:46:43Z</time>
      </trkpt>
      <trkpt lat="44.88556" lon="5.5378">
        <ele>1395</ele>
        <time>2022-01-19T08:46:44Z</time>
      </trkpt>
      <trkpt lat="44.88555" lon="5.53779">
        <ele>1395.1</ele>
        <time>2022-01-19T08:46:45Z</time>
      </trkpt>
      <trkpt lat="44.88554" lon="5.53779">
        <ele>1395.4</ele>
        <time>2022-01-19T08:46:46Z</time>
      </trkpt>
      <trkpt lat="44.88553" lon="5.53779">
        <ele>1395.6</ele>
        <time>2022-01-19T08:46:47Z</time>
      </trkpt>
      <trkpt lat="44.88553" lon="5.53778">
        <ele>1395.8</ele>
        <time>2022-01-19T08:46:48Z</time>
      </trkpt>
      <trkpt lat="44.88552" lon="5.53778">
        <ele>1395.9</ele>
        <time>2022-01-19T08:46:49Z</time>
      </trkpt>
      <trkpt lat="44.88551" lon="5.53777">
        <ele>1396.1</ele>
        <time>2022-01-19T08:46:50Z</time>
      </trkpt>
      <trkpt lat="44.88551" lon="5.53775">
        <ele>1396.4</ele>
        <time>2022-01-19T08:46:51Z</time>
      </trkpt>
      <trkpt lat="44.8855" lon="5.53775">
        <ele>1396.6</ele>
        <time>2022-01-19T08:46:52Z</time>
      </trkpt>
      <trkpt lat="44.88549" lon="5.53774">
        <ele>1396.9</ele>
        <time>2022-01-19T08:46:53Z</time>
      </trkpt>
      <trkpt lat="44.88548" lon="5.53774">
        <ele>1397.1</ele>
        <time>2022-01-19T08:46:54Z</time>
      </trkpt>
      <trkpt lat="44.88547" lon="5.53773">
        <ele>1397.3</ele>
        <time>2022-01-19T08:46:55Z</time>
      </trkpt>
      <trkpt lat="44.88546" lon="5.53773">
        <ele>1397.5</ele>
        <time>2022-01-19T08:46:56Z</time>
      </trkpt>
      <trkpt lat="44.88546" lon="5.53772">
        <ele>1397.7</ele>
        <time>2022-01-19T08:46:57Z</time>
      </trkpt>
      <trkpt lat="44.88545" lon="5.53771">
        <ele>1397.9</ele>
        <time>2022-01-19T08:46:58Z</time>
      </trkpt>
      <trkpt lat="44.88544" lon="5.53771">
        <ele>1398.2</ele>
        <time>2022-01-19T08:46:59Z</time>
      </trkpt>
      <trkpt lat="44.88543" lon="5.53771">
        <ele>1398.3</ele>
        <time>2022-01-19T08:47:00Z</time>
      </trkpt>
      <trkpt lat="44.88543" lon="5.53771">
        <ele>1398.3</ele>
        <time>2022-01-19T08:47:01Z</time>
      </trkpt>
      <trkpt lat="44.88543" lon="5.53771">
        <ele>1398.4</ele>
        <time>2022-01-19T08:47:02Z</time>
      </trkpt>
      <trkpt lat="44.88542" lon="5.5377">
        <ele>1398.7</ele>
        <time>2022-01-19T08:47:03Z</time>
      </trkpt>
      <trkpt lat="44.88542" lon="5.53769">
        <ele>1398.9</ele>
        <time>2022-01-19T08:47:04Z</time>
      </trkpt>
      <trkpt lat="44.88541" lon="5.53769">
        <ele>1399.1</ele>
        <time>2022-01-19T08:47:05Z</time>
      </trkpt>
      <trkpt lat="44.8854" lon="5.53768">
        <ele>1399.4</ele>
        <time>2022-01-19T08:47:06Z</time>
      </trkpt>
      <trkpt lat="44.88539" lon="5.53768">
        <ele>1399.6</ele>
        <time>2022-01-19T08:47:07Z</time>
      </trkpt>
      <trkpt lat="44.88538" lon="5.53767">
        <ele>1399.8</ele>
        <time>2022-01-19T08:47:08Z</time>
      </trkpt>
      <trkpt lat="44.88538" lon="5.53766">
        <ele>1399.9</ele>
        <time>2022-01-19T08:47:09Z</time>
      </trkpt>
      <trkpt lat="44.88539" lon="5.53766">
        <ele>1400.1</ele>
        <time>2022-01-19T08:47:10Z</time>
      </trkpt>
      <trkpt lat="44.88539" lon="5.53768">
        <ele>1400.4</ele>
        <time>2022-01-19T08:47:11Z</time>
      </trkpt>
      <trkpt lat="44.88538" lon="5.53768">
        <ele>1400.5</ele>
        <time>2022-01-19T08:47:12Z</time>
      </trkpt>
      <trkpt lat="44.88538" lon="5.53767">
        <ele>1400.6</ele>
        <time>2022-01-19T08:47:13Z</time>
      </trkpt>
      <trkpt lat="44.88538" lon="5.53767">
        <ele>1400.6</ele>
        <time>2022-01-19T08:47:14Z</time>
      </trkpt>
      <trkpt lat="44.88538" lon="5.53765">
        <ele>1401</ele>
        <time>2022-01-19T08:47:15Z</time>
      </trkpt>
      <trkpt lat="44.88538" lon="5.53764">
        <ele>1401.1</ele>
        <time>2022-01-19T08:47:16Z</time>
      </trkpt>
      <trkpt lat="44.88537" lon="5.53763">
        <ele>1401.4</ele>
        <time>2022-01-19T08:47:17Z</time>
      </trkpt>
      <trkpt lat="44.88537" lon="5.53762">
        <ele>1401.5</ele>
        <time>2022-01-19T08:47:18Z</time>
      </trkpt>
      <trkpt lat="44.88537" lon="5.53762">
        <ele>1401.6</ele>
        <time>2022-01-19T08:47:19Z</time>
      </trkpt>
      <trkpt lat="44.88536" lon="5.53761">
        <ele>1401.8</ele>
        <time>2022-01-19T08:47:20Z</time>
      </trkpt>
      <trkpt lat="44.88537" lon="5.5376">
        <ele>1402</ele>
        <time>2022-01-19T08:47:21Z</time>
      </trkpt>
      <trkpt lat="44.88537" lon="5.5376">
        <ele>1402.1</ele>
        <time>2022-01-19T08:47:22Z</time>
      </trkpt>
      <trkpt lat="44.88535" lon="5.53759">
        <ele>1402.4</ele>
        <time>2022-01-19T08:47:23Z</time>
      </trkpt>
      <trkpt lat="44.88536" lon="5.53759">
        <ele>1402.5</ele>
        <time>2022-01-19T08:47:24Z</time>
      </trkpt>
      <trkpt lat="44.88535" lon="5.53759">
        <ele>1402.7</ele>
        <time>2022-01-19T08:47:25Z</time>
      </trkpt>
      <trkpt lat="44.88535" lon="5.53758">
        <ele>1402.7</ele>
        <time>2022-01-19T08:47:26Z</time>
      </trkpt>
      <trkpt lat="44.88535" lon="5.53758">
        <ele>1402.8</ele>
        <time>2022-01-19T08:47:27Z</time>
      </trkpt>
      <trkpt lat="44.88535" lon="5.53758">
        <ele>1402.9</ele>
        <time>2022-01-19T08:47:28Z</time>
      </trkpt>
      <trkpt lat="44.88534" lon="5.53757">
        <ele>1403.1</ele>
        <time>2022-01-19T08:47:29Z</time>
      </trkpt>
      <trkpt lat="44.88534" lon="5.53757">
        <ele>1403.2</ele>
        <time>2022-01-19T08:47:30Z</time>
      </trkpt>
      <trkpt lat="44.88534" lon="5.53757">
        <ele>1403.2</ele>
        <time>2022-01-19T08:47:31Z</time>
      </trkpt>
      <trkpt lat="44.88534" lon="5.53757">
        <ele>1403.2</ele>
        <time>2022-01-19T08:47:32Z</time>
      </trkpt>
      <trkpt lat="44.88534" lon="5.53757">
        <ele>1403.2</ele>
        <time>2022-01-19T08:47:33Z</time>
      </trkpt>
      <trkpt lat="44.88534" lon="5.53757">
        <ele>1403.2</ele>
        <time>2022-01-19T08:47:34Z</time>
      </trkpt>
      <trkpt lat="44.88533" lon="5.53755">
        <ele>1403.7</ele>
        <time>2022-01-19T08:47:35Z</time>
      </trkpt>
      <trkpt lat="44.88532" lon="5.53754">
        <ele>1403.9</ele>
        <time>2022-01-19T08:47:36Z</time>
      </trkpt>
      <trkpt lat="44.88532" lon="5.53754">
        <ele>1404</ele>
        <time>2022-01-19T08:47:37Z</time>
      </trkpt>
      <trkpt lat="44.88531" lon="5.53753">
        <ele>1404.2</ele>
        <time>2022-01-19T08:47:38Z</time>
      </trkpt>
      <trkpt lat="44.8853" lon="5.53752">
        <ele>1404.6</ele>
        <time>2022-01-19T08:47:39Z</time>
      </trkpt>
      <trkpt lat="44.8853" lon="5.53751">
        <ele>1404.7</ele>
        <time>2022-01-19T08:47:40Z</time>
      </trkpt>
      <trkpt lat="44.8853" lon="5.5375">
        <ele>1404.9</ele>
        <time>2022-01-19T08:47:41Z</time>
      </trkpt>
      <trkpt lat="44.88529" lon="5.53749">
        <ele>1405.1</ele>
        <time>2022-01-19T08:47:42Z</time>
      </trkpt>
      <trkpt lat="44.88529" lon="5.53749">
        <ele>1405.3</ele>
        <time>2022-01-19T08:47:43Z</time>
      </trkpt>
      <trkpt lat="44.88528" lon="5.53748">
        <ele>1405.5</ele>
        <time>2022-01-19T08:47:44Z</time>
      </trkpt>
      <trkpt lat="44.88528" lon="5.53747">
        <ele>1405.7</ele>
        <time>2022-01-19T08:47:45Z</time>
      </trkpt>
      <trkpt lat="44.88529" lon="5.53747">
        <ele>1405.8</ele>
        <time>2022-01-19T08:47:46Z</time>
      </trkpt>
      <trkpt lat="44.88529" lon="5.53747">
        <ele>1405.9</ele>
        <time>2022-01-19T08:47:47Z</time>
      </trkpt>
      <trkpt lat="44.88528" lon="5.53747">
        <ele>1406</ele>
        <time>2022-01-19T08:47:48Z</time>
      </trkpt>
      <trkpt lat="44.88528" lon="5.53747">
        <ele>1406</ele>
        <time>2022-01-19T08:47:49Z</time>
      </trkpt>
      <trkpt lat="44.88528" lon="5.53747">
        <ele>1406</ele>
        <time>2022-01-19T08:47:50Z</time>
      </trkpt>
      <trkpt lat="44.88528" lon="5.53747">
        <ele>1406</ele>
        <time>2022-01-19T08:47:51Z</time>
      </trkpt>
      <trkpt lat="44.88528" lon="5.53747">
        <ele>1406</ele>
        <time>2022-01-19T08:47:52Z</time>
      </trkpt>
      <trkpt lat="44.88526" lon="5.53745">
        <ele>1406.6</ele>
        <time>2022-01-19T08:47:53Z</time>
      </trkpt>
      <trkpt lat="44.88525" lon="5.53745">
        <ele>1406.8</ele>
        <time>2022-01-19T08:47:54Z</time>
      </trkpt>
      <trkpt lat="44.88524" lon="5.53745">
        <ele>1407</ele>
        <time>2022-01-19T08:47:55Z</time>
      </trkpt>
      <trkpt lat="44.88524" lon="5.53744">
        <ele>1407.3</ele>
        <time>2022-01-19T08:47:56Z</time>
      </trkpt>
      <trkpt lat="44.88523" lon="5.53744">
        <ele>1407.4</ele>
        <time>2022-01-19T08:47:57Z</time>
      </trkpt>
      <trkpt lat="44.88522" lon="5.53744">
        <ele>1407.6</ele>
        <time>2022-01-19T08:47:58Z</time>
      </trkpt>
      <trkpt lat="44.88522" lon="5.53743">
        <ele>1407.8</ele>
        <time>2022-01-19T08:47:59Z</time>
      </trkpt>
      <trkpt lat="44.88521" lon="5.53743">
        <ele>1407.9</ele>
        <time>2022-01-19T08:48:00Z</time>
      </trkpt>
      <trkpt lat="44.8852" lon="5.53743">
        <ele>1408.2</ele>
        <time>2022-01-19T08:48:01Z</time>
      </trkpt>
      <trkpt lat="44.88519" lon="5.53743">
        <ele>1408.4</ele>
        <time>2022-01-19T08:48:02Z</time>
      </trkpt>
      <trkpt lat="44.88519" lon="5.53743">
        <ele>1408.6</ele>
        <time>2022-01-19T08:48:03Z</time>
      </trkpt>
      <trkpt lat="44.88519" lon="5.53743">
        <ele>1408.7</ele>
        <time>2022-01-19T08:48:04Z</time>
      </trkpt>
      <trkpt lat="44.88518" lon="5.53743">
        <ele>1408.9</ele>
        <time>2022-01-19T08:48:05Z</time>
      </trkpt>
      <trkpt lat="44.88519" lon="5.53743">
        <ele>1409</ele>
        <time>2022-01-19T08:48:06Z</time>
      </trkpt>
      <trkpt lat="44.88518" lon="5.53742">
        <ele>1409.1</ele>
        <time>2022-01-19T08:48:07Z</time>
      </trkpt>
      <trkpt lat="44.88519" lon="5.53742">
        <ele>1409.3</ele>
        <time>2022-01-19T08:48:08Z</time>
      </trkpt>
      <trkpt lat="44.88519" lon="5.53742">
        <ele>1409.3</ele>
        <time>2022-01-19T08:48:09Z</time>
      </trkpt>
      <trkpt lat="44.88519" lon="5.53742">
        <ele>1409.3</ele>
        <time>2022-01-19T08:48:10Z</time>
      </trkpt>
      <trkpt lat="44.88519" lon="5.53742">
        <ele>1409.3</ele>
        <time>2022-01-19T08:48:11Z</time>
      </trkpt>
      <trkpt lat="44.88519" lon="5.53742">
        <ele>1409.3</ele>
        <time>2022-01-19T08:48:12Z</time>
      </trkpt>
      <trkpt lat="44.88517" lon="5.53739">
        <ele>1409.9</ele>
        <time>2022-01-19T08:48:13Z</time>
      </trkpt>
      <trkpt lat="44.88516" lon="5.53739">
        <ele>1410.2</ele>
        <time>2022-01-19T08:48:14Z</time>
      </trkpt>
      <trkpt lat="44.88515" lon="5.53739">
        <ele>1410.5</ele>
        <time>2022-01-19T08:48:15Z</time>
      </trkpt>
      <trkpt lat="44.88514" lon="5.53738">
        <ele>1410.7</ele>
        <time>2022-01-19T08:48:16Z</time>
      </trkpt>
      <trkpt lat="44.88514" lon="5.53738">
        <ele>1410.9</ele>
        <time>2022-01-19T08:48:17Z</time>
      </trkpt>
      <trkpt lat="44.88513" lon="5.53737">
        <ele>1411.1</ele>
        <time>2022-01-19T08:48:18Z</time>
      </trkpt>
      <trkpt lat="44.88512" lon="5.53737">
        <ele>1411.5</ele>
        <time>2022-01-19T08:48:19Z</time>
      </trkpt>
      <trkpt lat="44.88511" lon="5.53737">
        <ele>1411.6</ele>
        <time>2022-01-19T08:48:20Z</time>
      </trkpt>
      <trkpt lat="44.88511" lon="5.53736">
        <ele>1411.7</ele>
        <time>2022-01-19T08:48:21Z</time>
      </trkpt>
      <trkpt lat="44.88511" lon="5.53736">
        <ele>1411.8</ele>
        <time>2022-01-19T08:48:22Z</time>
      </trkpt>
      <trkpt lat="44.88509" lon="5.53735">
        <ele>1412.3</ele>
        <time>2022-01-19T08:48:23Z</time>
      </trkpt>
      <trkpt lat="44.88509" lon="5.53734">
        <ele>1412.3</ele>
        <time>2022-01-19T08:48:24Z</time>
      </trkpt>
      <trkpt lat="44.88509" lon="5.53734">
        <ele>1412.5</ele>
        <time>2022-01-19T08:48:25Z</time>
      </trkpt>
      <trkpt lat="44.88509" lon="5.53734">
        <ele>1412.6</ele>
        <time>2022-01-19T08:48:26Z</time>
      </trkpt>
      <trkpt lat="44.88508" lon="5.53733">
        <ele>1412.8</ele>
        <time>2022-01-19T08:48:27Z</time>
      </trkpt>
      <trkpt lat="44.88508" lon="5.53733">
        <ele>1412.9</ele>
        <time>2022-01-19T08:48:28Z</time>
      </trkpt>
      <trkpt lat="44.88508" lon="5.53732">
        <ele>1413.1</ele>
        <time>2022-01-19T08:48:29Z</time>
      </trkpt>
      <trkpt lat="44.88508" lon="5.53732">
        <ele>1413.2</ele>
        <time>2022-01-19T08:48:30Z</time>
      </trkpt>
      <trkpt lat="44.88507" lon="5.53732">
        <ele>1413.4</ele>
        <time>2022-01-19T08:48:31Z</time>
      </trkpt>
      <trkpt lat="44.88506" lon="5.53731">
        <ele>1413.6</ele>
        <time>2022-01-19T08:48:32Z</time>
      </trkpt>
      <trkpt lat="44.88505" lon="5.53731">
        <ele>1413.8</ele>
        <time>2022-01-19T08:48:33Z</time>
      </trkpt>
      <trkpt lat="44.88504" lon="5.53731">
        <ele>1414.1</ele>
        <time>2022-01-19T08:48:34Z</time>
      </trkpt>
      <trkpt lat="44.88504" lon="5.53731">
        <ele>1414.2</ele>
        <time>2022-01-19T08:48:35Z</time>
      </trkpt>
      <trkpt lat="44.88503" lon="5.53731">
        <ele>1414.5</ele>
        <time>2022-01-19T08:48:36Z</time>
      </trkpt>
      <trkpt lat="44.88503" lon="5.5373">
        <ele>1414.6</ele>
        <time>2022-01-19T08:48:37Z</time>
      </trkpt>
      <trkpt lat="44.88502" lon="5.53729">
        <ele>1414.8</ele>
        <time>2022-01-19T08:48:38Z</time>
      </trkpt>
      <trkpt lat="44.88501" lon="5.53729">
        <ele>1415</ele>
        <time>2022-01-19T08:48:39Z</time>
      </trkpt>
      <trkpt lat="44.885" lon="5.53728">
        <ele>1415.3</ele>
        <time>2022-01-19T08:48:40Z</time>
      </trkpt>
      <trkpt lat="44.88499" lon="5.53728">
        <ele>1415.6</ele>
        <time>2022-01-19T08:48:41Z</time>
      </trkpt>
      <trkpt lat="44.88499" lon="5.53727">
        <ele>1415.8</ele>
        <time>2022-01-19T08:48:42Z</time>
      </trkpt>
      <trkpt lat="44.88498" lon="5.53726">
        <ele>1416.1</ele>
        <time>2022-01-19T08:48:43Z</time>
      </trkpt>
      <trkpt lat="44.88497" lon="5.53726">
        <ele>1416.2</ele>
        <time>2022-01-19T08:48:44Z</time>
      </trkpt>
      <trkpt lat="44.88497" lon="5.53725">
        <ele>1416.5</ele>
        <time>2022-01-19T08:48:45Z</time>
      </trkpt>
      <trkpt lat="44.88496" lon="5.53724">
        <ele>1416.7</ele>
        <time>2022-01-19T08:48:46Z</time>
      </trkpt>
      <trkpt lat="44.88495" lon="5.53724">
        <ele>1416.9</ele>
        <time>2022-01-19T08:48:47Z</time>
      </trkpt>
      <trkpt lat="44.88495" lon="5.53723">
        <ele>1417.2</ele>
        <time>2022-01-19T08:48:48Z</time>
      </trkpt>
      <trkpt lat="44.88493" lon="5.5372">
        <ele>1417.8</ele>
        <time>2022-01-19T08:48:49Z</time>
      </trkpt>
      <trkpt lat="44.88492" lon="5.53719">
        <ele>1418.1</ele>
        <time>2022-01-19T08:48:50Z</time>
      </trkpt>
      <trkpt lat="44.88492" lon="5.53718">
        <ele>1418.4</ele>
        <time>2022-01-19T08:48:51Z</time>
      </trkpt>
      <trkpt lat="44.88491" lon="5.53718">
        <ele>1418.6</ele>
        <time>2022-01-19T08:48:52Z</time>
      </trkpt>
      <trkpt lat="44.8849" lon="5.53718">
        <ele>1418.8</ele>
        <time>2022-01-19T08:48:53Z</time>
      </trkpt>
      <trkpt lat="44.8849" lon="5.53718">
        <ele>1418.9</ele>
        <time>2022-01-19T08:48:54Z</time>
      </trkpt>
      <trkpt lat="44.88489" lon="5.53718">
        <ele>1419</ele>
        <time>2022-01-19T08:48:55Z</time>
      </trkpt>
      <trkpt lat="44.88488" lon="5.53718">
        <ele>1419.3</ele>
        <time>2022-01-19T08:48:56Z</time>
      </trkpt>
      <trkpt lat="44.88488" lon="5.53718">
        <ele>1419.4</ele>
        <time>2022-01-19T08:48:57Z</time>
      </trkpt>
      <trkpt lat="44.88487" lon="5.53718">
        <ele>1419.7</ele>
        <time>2022-01-19T08:48:58Z</time>
      </trkpt>
      <trkpt lat="44.88486" lon="5.53718">
        <ele>1419.9</ele>
        <time>2022-01-19T08:48:59Z</time>
      </trkpt>
      <trkpt lat="44.88485" lon="5.53717">
        <ele>1420.3</ele>
        <time>2022-01-19T08:49:00Z</time>
      </trkpt>
      <trkpt lat="44.88484" lon="5.53717">
        <ele>1420.6</ele>
        <time>2022-01-19T08:49:01Z</time>
      </trkpt>
      <trkpt lat="44.88483" lon="5.53716">
        <ele>1420.7</ele>
        <time>2022-01-19T08:49:02Z</time>
      </trkpt>
      <trkpt lat="44.88483" lon="5.53716">
        <ele>1420.9</ele>
        <time>2022-01-19T08:49:03Z</time>
      </trkpt>
      <trkpt lat="44.88481" lon="5.53716">
        <ele>1421.2</ele>
        <time>2022-01-19T08:49:04Z</time>
      </trkpt>
      <trkpt lat="44.88479" lon="5.53713">
        <ele>1421.9</ele>
        <time>2022-01-19T08:49:05Z</time>
      </trkpt>
      <trkpt lat="44.88479" lon="5.53713">
        <ele>1422.1</ele>
        <time>2022-01-19T08:49:06Z</time>
      </trkpt>
      <trkpt lat="44.88479" lon="5.53712">
        <ele>1422.3</ele>
        <time>2022-01-19T08:49:07Z</time>
      </trkpt>
      <trkpt lat="44.88477" lon="5.5371">
        <ele>1422.8</ele>
        <time>2022-01-19T08:49:08Z</time>
      </trkpt>
      <trkpt lat="44.88476" lon="5.53709">
        <ele>1423.1</ele>
        <time>2022-01-19T08:49:09Z</time>
      </trkpt>
      <trkpt lat="44.88476" lon="5.53708">
        <ele>1423.3</ele>
        <time>2022-01-19T08:49:10Z</time>
      </trkpt>
      <trkpt lat="44.88475" lon="5.53707">
        <ele>1423.7</ele>
        <time>2022-01-19T08:49:11Z</time>
      </trkpt>
      <trkpt lat="44.88474" lon="5.53707">
        <ele>1424</ele>
        <time>2022-01-19T08:49:12Z</time>
      </trkpt>
      <trkpt lat="44.88473" lon="5.53706">
        <ele>1424.1</ele>
        <time>2022-01-19T08:49:13Z</time>
      </trkpt>
      <trkpt lat="44.88473" lon="5.53705">
        <ele>1424.4</ele>
        <time>2022-01-19T08:49:14Z</time>
      </trkpt>
      <trkpt lat="44.88472" lon="5.53705">
        <ele>1424.6</ele>
        <time>2022-01-19T08:49:15Z</time>
      </trkpt>
      <trkpt lat="44.88471" lon="5.53705">
        <ele>1425</ele>
        <time>2022-01-19T08:49:16Z</time>
      </trkpt>
      <trkpt lat="44.88471" lon="5.53705">
        <ele>1425.1</ele>
        <time>2022-01-19T08:49:17Z</time>
      </trkpt>
      <trkpt lat="44.8847" lon="5.53706">
        <ele>1425.4</ele>
        <time>2022-01-19T08:49:18Z</time>
      </trkpt>
      <trkpt lat="44.88468" lon="5.53706">
        <ele>1425.8</ele>
        <time>2022-01-19T08:49:19Z</time>
      </trkpt>
      <trkpt lat="44.88468" lon="5.53707">
        <ele>1426.1</ele>
        <time>2022-01-19T08:49:20Z</time>
      </trkpt>
      <trkpt lat="44.88469" lon="5.53707">
        <ele>1426.4</ele>
        <time>2022-01-19T08:49:21Z</time>
      </trkpt>
      <trkpt lat="44.88468" lon="5.53707">
        <ele>1426.6</ele>
        <time>2022-01-19T08:49:22Z</time>
      </trkpt>
      <trkpt lat="44.88467" lon="5.53707">
        <ele>1426.9</ele>
        <time>2022-01-19T08:49:23Z</time>
      </trkpt>
      <trkpt lat="44.88467" lon="5.53707">
        <ele>1426.9</ele>
        <time>2022-01-19T08:49:24Z</time>
      </trkpt>
      <trkpt lat="44.88467" lon="5.53707">
        <ele>1426.9</ele>
        <time>2022-01-19T08:49:25Z</time>
      </trkpt>
      <trkpt lat="44.88464" lon="5.53707">
        <ele>1427.7</ele>
        <time>2022-01-19T08:49:26Z</time>
      </trkpt>
      <trkpt lat="44.88463" lon="5.53707">
        <ele>1427.9</ele>
        <time>2022-01-19T08:49:27Z</time>
      </trkpt>
      <trkpt lat="44.88463" lon="5.53707">
        <ele>1428.1</ele>
        <time>2022-01-19T08:49:28Z</time>
      </trkpt>
      <trkpt lat="44.88463" lon="5.53706">
        <ele>1428.2</ele>
        <time>2022-01-19T08:49:29Z</time>
      </trkpt>
      <trkpt lat="44.88462" lon="5.53706">
        <ele>1428.3</ele>
        <time>2022-01-19T08:49:30Z</time>
      </trkpt>
      <trkpt lat="44.88462" lon="5.53706">
        <ele>1428.3</ele>
        <time>2022-01-19T08:49:31Z</time>
      </trkpt>
      <trkpt lat="44.88462" lon="5.53706">
        <ele>1428.3</ele>
        <time>2022-01-19T08:49:32Z</time>
      </trkpt>
      <trkpt lat="44.88462" lon="5.53706">
        <ele>1428.3</ele>
        <time>2022-01-19T08:49:33Z</time>
      </trkpt>
      <trkpt lat="44.88462" lon="5.53706">
        <ele>1428.3</ele>
        <time>2022-01-19T08:49:34Z</time>
      </trkpt>
      <trkpt lat="44.88462" lon="5.53706">
        <ele>1428.3</ele>
        <time>2022-01-19T08:49:35Z</time>
      </trkpt>
      <trkpt lat="44.88462" lon="5.53706">
        <ele>1428.3</ele>
        <time>2022-01-19T08:49:36Z</time>
      </trkpt>
      <trkpt lat="44.88462" lon="5.53706">
        <ele>1428.3</ele>
        <time>2022-01-19T08:49:37Z</time>
      </trkpt>
      <trkpt lat="44.88462" lon="5.53706">
        <ele>1428.3</ele>
        <time>2022-01-19T08:49:38Z</time>
      </trkpt>
      <trkpt lat="44.88462" lon="5.53706">
        <ele>1428.3</ele>
        <time>2022-01-19T08:49:39Z</time>
      </trkpt>
      <trkpt lat="44.88462" lon="5.53706">
        <ele>1428.3</ele>
        <time>2022-01-19T08:49:40Z</time>
      </trkpt>
      <trkpt lat="44.88462" lon="5.53706">
        <ele>1428.3</ele>
        <time>2022-01-19T08:49:41Z</time>
      </trkpt>
      <trkpt lat="44.88462" lon="5.53706">
        <ele>1428.3</ele>
        <time>2022-01-19T08:49:42Z</time>
      </trkpt>
      <trkpt lat="44.88462" lon="5.53706">
        <ele>1428.3</ele>
        <time>2022-01-19T08:49:43Z</time>
      </trkpt>
      <trkpt lat="44.88462" lon="5.53706">
        <ele>1428.3</ele>
        <time>2022-01-19T08:49:44Z</time>
      </trkpt>
      <trkpt lat="44.88462" lon="5.53706">
        <ele>1428.3</ele>
        <time>2022-01-19T08:49:45Z</time>
      </trkpt>
      <trkpt lat="44.88462" lon="5.53706">
        <ele>1428.3</ele>
        <time>2022-01-19T08:49:46Z</time>
      </trkpt>
      <trkpt lat="44.88462" lon="5.53706">
        <ele>1428.3</ele>
        <time>2022-01-19T08:49:47Z</time>
      </trkpt>
      <trkpt lat="44.88462" lon="5.53706">
        <ele>1428.3</ele>
        <time>2022-01-19T08:49:48Z</time>
      </trkpt>
      <trkpt lat="44.88462" lon="5.53706">
        <ele>1428.3</ele>
        <time>2022-01-19T08:49:49Z</time>
      </trkpt>
      <trkpt lat="44.88462" lon="5.53706">
        <ele>1428.3</ele>
        <time>2022-01-19T08:49:50Z</time>
      </trkpt>
      <trkpt lat="44.88462" lon="5.53706">
        <ele>1428.3</ele>
        <time>2022-01-19T08:49:51Z</time>
      </trkpt>
      <trkpt lat="44.88456" lon="5.53699">
        <ele>1430.9</ele>
        <time>2022-01-19T08:49:52Z</time>
      </trkpt>
      <trkpt lat="44.88455" lon="5.53698">
        <ele>1431.4</ele>
        <time>2022-01-19T08:49:53Z</time>
      </trkpt>
      <trkpt lat="44.88454" lon="5.53698">
        <ele>1431.5</ele>
        <time>2022-01-19T08:49:54Z</time>
      </trkpt>
      <trkpt lat="44.88454" lon="5.53698">
        <ele>1431.7</ele>
        <time>2022-01-19T08:49:55Z</time>
      </trkpt>
      <trkpt lat="44.88454" lon="5.53698">
        <ele>1431.7</ele>
        <time>2022-01-19T08:49:56Z</time>
      </trkpt>
      <trkpt lat="44.88454" lon="5.53698">
        <ele>1431.7</ele>
        <time>2022-01-19T08:49:57Z</time>
      </trkpt>
      <trkpt lat="44.88454" lon="5.53698">
        <ele>1431.7</ele>
        <time>2022-01-19T08:49:58Z</time>
      </trkpt>
      <trkpt lat="44.88454" lon="5.53698">
        <ele>1431.7</ele>
        <time>2022-01-19T08:49:59Z</time>
      </trkpt>
      <trkpt lat="44.88454" lon="5.53698">
        <ele>1431.7</ele>
        <time>2022-01-19T08:50:00Z</time>
      </trkpt>
      <trkpt lat="44.88454" lon="5.53698">
        <ele>1431.7</ele>
        <time>2022-01-19T08:50:01Z</time>
      </trkpt>
      <trkpt lat="44.88454" lon="5.53698">
        <ele>1431.7</ele>
        <time>2022-01-19T08:50:02Z</time>
      </trkpt>
      <trkpt lat="44.88454" lon="5.53698">
        <ele>1431.7</ele>
        <time>2022-01-19T08:50:03Z</time>
      </trkpt>
      <trkpt lat="44.88454" lon="5.53698">
        <ele>1431.7</ele>
        <time>2022-01-19T08:50:04Z</time>
      </trkpt>
      <trkpt lat="44.88454" lon="5.53698">
        <ele>1431.7</ele>
        <time>2022-01-19T08:50:05Z</time>
      </trkpt>
      <trkpt lat="44.88454" lon="5.53698">
        <ele>1431.7</ele>
        <time>2022-01-19T08:50:06Z</time>
      </trkpt>
      <trkpt lat="44.88454" lon="5.53698">
        <ele>1431.7</ele>
        <time>2022-01-19T08:50:07Z</time>
      </trkpt>
      <trkpt lat="44.88454" lon="5.53698">
        <ele>1431.7</ele>
        <time>2022-01-19T08:50:08Z</time>
      </trkpt>
      <trkpt lat="44.88454" lon="5.53698">
        <ele>1431.7</ele>
        <time>2022-01-19T08:50:09Z</time>
      </trkpt>
      <trkpt lat="44.88454" lon="5.53698">
        <ele>1431.7</ele>
        <time>2022-01-19T08:50:10Z</time>
      </trkpt>
      <trkpt lat="44.88454" lon="5.53698">
        <ele>1431.7</ele>
        <time>2022-01-19T08:50:11Z</time>
      </trkpt>
      <trkpt lat="44.88454" lon="5.53698">
        <ele>1431.7</ele>
        <time>2022-01-19T08:50:12Z</time>
      </trkpt>
      <trkpt lat="44.88454" lon="5.53698">
        <ele>1431.7</ele>
        <time>2022-01-19T08:50:13Z</time>
      </trkpt>
      <trkpt lat="44.88454" lon="5.53698">
        <ele>1431.7</ele>
        <time>2022-01-19T08:50:14Z</time>
      </trkpt>
      <trkpt lat="44.88454" lon="5.53698">
        <ele>1431.7</ele>
        <time>2022-01-19T08:50:15Z</time>
      </trkpt>
      <trkpt lat="44.88454" lon="5.53698">
        <ele>1431.7</ele>
        <time>2022-01-19T08:50:16Z</time>
      </trkpt>
      <trkpt lat="44.88454" lon="5.53698">
        <ele>1431.7</ele>
        <time>2022-01-19T08:50:17Z</time>
      </trkpt>
      <trkpt lat="44.88454" lon="5.53698">
        <ele>1431.7</ele>
        <time>2022-01-19T08:50:18Z</time>
      </trkpt>
      <trkpt lat="44.88454" lon="5.53698">
        <ele>1431.7</ele>
        <time>2022-01-19T08:50:19Z</time>
      </trkpt>
      <trkpt lat="44.88454" lon="5.53698">
        <ele>1431.7</ele>
        <time>2022-01-19T08:50:20Z</time>
      </trkpt>
      <trkpt lat="44.88454" lon="5.53698">
        <ele>1431.7</ele>
        <time>2022-01-19T08:50:21Z</time>
      </trkpt>
      <trkpt lat="44.88452" lon="5.53694">
        <ele>1432.7</ele>
        <time>2022-01-19T08:50:22Z</time>
      </trkpt>
      <trkpt lat="44.88452" lon="5.53695">
        <ele>1432.8</ele>
        <time>2022-01-19T08:50:23Z</time>
      </trkpt>
      <trkpt lat="44.88451" lon="5.53695">
        <ele>1433</ele>
        <time>2022-01-19T08:50:24Z</time>
      </trkpt>
      <trkpt lat="44.88451" lon="5.53696">
        <ele>1433.2</ele>
        <time>2022-01-19T08:50:25Z</time>
      </trkpt>
      <trkpt lat="44.88451" lon="5.53696">
        <ele>1433.4</ele>
        <time>2022-01-19T08:50:26Z</time>
      </trkpt>
      <trkpt lat="44.88451" lon="5.53696">
        <ele>1433.4</ele>
        <time>2022-01-19T08:50:27Z</time>
      </trkpt>
      <trkpt lat="44.88451" lon="5.53696">
        <ele>1433.4</ele>
        <time>2022-01-19T08:50:28Z</time>
      </trkpt>
      <trkpt lat="44.88451" lon="5.53696">
        <ele>1433.4</ele>
        <time>2022-01-19T08:50:29Z</time>
      </trkpt>
      <trkpt lat="44.88451" lon="5.53696">
        <ele>1433.4</ele>
        <time>2022-01-19T08:50:30Z</time>
      </trkpt>
      <trkpt lat="44.88451" lon="5.53696">
        <ele>1433.4</ele>
        <time>2022-01-19T08:50:31Z</time>
      </trkpt>
      <trkpt lat="44.88451" lon="5.53696">
        <ele>1433.4</ele>
        <time>2022-01-19T08:50:32Z</time>
      </trkpt>
      <trkpt lat="44.88451" lon="5.53696">
        <ele>1433.4</ele>
        <time>2022-01-19T08:50:33Z</time>
      </trkpt>
      <trkpt lat="44.88451" lon="5.53696">
        <ele>1433.4</ele>
        <time>2022-01-19T08:50:34Z</time>
      </trkpt>
      <trkpt lat="44.88451" lon="5.53696">
        <ele>1433.4</ele>
        <time>2022-01-19T08:50:35Z</time>
      </trkpt>
      <trkpt lat="44.88451" lon="5.53696">
        <ele>1433.4</ele>
        <time>2022-01-19T08:50:36Z</time>
      </trkpt>
      <trkpt lat="44.88451" lon="5.53696">
        <ele>1433.4</ele>
        <time>2022-01-19T08:50:37Z</time>
      </trkpt>
      <trkpt lat="44.88451" lon="5.53696">
        <ele>1433.4</ele>
        <time>2022-01-19T08:50:38Z</time>
      </trkpt>
      <trkpt lat="44.88451" lon="5.53696">
        <ele>1433.4</ele>
        <time>2022-01-19T08:50:39Z</time>
      </trkpt>
      <trkpt lat="44.88451" lon="5.53696">
        <ele>1433.4</ele>
        <time>2022-01-19T08:50:40Z</time>
      </trkpt>
      <trkpt lat="44.88451" lon="5.53696">
        <ele>1433.4</ele>
        <time>2022-01-19T08:50:41Z</time>
      </trkpt>
      <trkpt lat="44.88451" lon="5.53696">
        <ele>1433.4</ele>
        <time>2022-01-19T08:50:42Z</time>
      </trkpt>
      <trkpt lat="44.88451" lon="5.53696">
        <ele>1433.4</ele>
        <time>2022-01-19T08:50:43Z</time>
      </trkpt>
      <trkpt lat="44.88451" lon="5.53696">
        <ele>1433.4</ele>
        <time>2022-01-19T08:50:44Z</time>
      </trkpt>
      <trkpt lat="44.88451" lon="5.53696">
        <ele>1433.4</ele>
        <time>2022-01-19T08:50:45Z</time>
      </trkpt>
      <trkpt lat="44.88451" lon="5.53696">
        <ele>1433.4</ele>
        <time>2022-01-19T08:50:46Z</time>
      </trkpt>
      <trkpt lat="44.88451" lon="5.53696">
        <ele>1433.4</ele>
        <time>2022-01-19T08:50:47Z</time>
      </trkpt>
      <trkpt lat="44.88451" lon="5.53696">
        <ele>1433.4</ele>
        <time>2022-01-19T08:50:48Z</time>
      </trkpt>
      <trkpt lat="44.88451" lon="5.53696">
        <ele>1433.4</ele>
        <time>2022-01-19T08:50:49Z</time>
      </trkpt>
      <trkpt lat="44.88451" lon="5.53696">
        <ele>1433.4</ele>
        <time>2022-01-19T08:50:50Z</time>
      </trkpt>
      <trkpt lat="44.88451" lon="5.53696">
        <ele>1433.4</ele>
        <time>2022-01-19T08:50:51Z</time>
      </trkpt>
      <trkpt lat="44.88451" lon="5.53696">
        <ele>1433.4</ele>
        <time>2022-01-19T08:50:52Z</time>
      </trkpt>
      <trkpt lat="44.88451" lon="5.53696">
        <ele>1433.4</ele>
        <time>2022-01-19T08:50:53Z</time>
      </trkpt>
      <trkpt lat="44.88451" lon="5.53696">
        <ele>1433.4</ele>
        <time>2022-01-19T08:50:54Z</time>
      </trkpt>
      <trkpt lat="44.88451" lon="5.53696">
        <ele>1433.4</ele>
        <time>2022-01-19T08:50:55Z</time>
      </trkpt>
      <trkpt lat="44.88451" lon="5.53696">
        <ele>1433.4</ele>
        <time>2022-01-19T08:50:56Z</time>
      </trkpt>
      <trkpt lat="44.88448" lon="5.5369">
        <ele>1435.1</ele>
        <time>2022-01-19T08:50:57Z</time>
      </trkpt>
      <trkpt lat="44.88448" lon="5.5369">
        <ele>1435.2</ele>
        <time>2022-01-19T08:50:58Z</time>
      </trkpt>
      <trkpt lat="44.88448" lon="5.5369">
        <ele>1435.3</ele>
        <time>2022-01-19T08:50:59Z</time>
      </trkpt>
      <trkpt lat="44.88448" lon="5.5369">
        <ele>1435.4</ele>
        <time>2022-01-19T08:51:00Z</time>
      </trkpt>
      <trkpt lat="44.88448" lon="5.53691">
        <ele>1435.6</ele>
        <time>2022-01-19T08:51:01Z</time>
      </trkpt>
      <trkpt lat="44.88448" lon="5.53691">
        <ele>1435.6</ele>
        <time>2022-01-19T08:51:02Z</time>
      </trkpt>
      <trkpt lat="44.88448" lon="5.53691">
        <ele>1435.6</ele>
        <time>2022-01-19T08:51:03Z</time>
      </trkpt>
      <trkpt lat="44.88448" lon="5.53691">
        <ele>1435.6</ele>
        <time>2022-01-19T08:51:04Z</time>
      </trkpt>
      <trkpt lat="44.88448" lon="5.53691">
        <ele>1435.6</ele>
        <time>2022-01-19T08:51:05Z</time>
      </trkpt>
      <trkpt lat="44.88448" lon="5.53691">
        <ele>1435.6</ele>
        <time>2022-01-19T08:51:06Z</time>
      </trkpt>
      <trkpt lat="44.88448" lon="5.53691">
        <ele>1435.6</ele>
        <time>2022-01-19T08:51:07Z</time>
      </trkpt>
      <trkpt lat="44.88448" lon="5.53691">
        <ele>1435.6</ele>
        <time>2022-01-19T08:51:08Z</time>
      </trkpt>
      <trkpt lat="44.88448" lon="5.53691">
        <ele>1435.6</ele>
        <time>2022-01-19T08:51:09Z</time>
      </trkpt>
      <trkpt lat="44.88448" lon="5.53691">
        <ele>1435.6</ele>
        <time>2022-01-19T08:51:10Z</time>
      </trkpt>
      <trkpt lat="44.88448" lon="5.53691">
        <ele>1435.6</ele>
        <time>2022-01-19T08:51:11Z</time>
      </trkpt>
      <trkpt lat="44.88448" lon="5.53691">
        <ele>1435.6</ele>
        <time>2022-01-19T08:51:12Z</time>
      </trkpt>
      <trkpt lat="44.88448" lon="5.53691">
        <ele>1435.6</ele>
        <time>2022-01-19T08:51:13Z</time>
      </trkpt>
      <trkpt lat="44.88448" lon="5.53691">
        <ele>1435.6</ele>
        <time>2022-01-19T08:51:14Z</time>
      </trkpt>
      <trkpt lat="44.88448" lon="5.53691">
        <ele>1435.6</ele>
        <time>2022-01-19T08:51:15Z</time>
      </trkpt>
      <trkpt lat="44.88448" lon="5.53691">
        <ele>1435.6</ele>
        <time>2022-01-19T08:51:16Z</time>
      </trkpt>
      <trkpt lat="44.88448" lon="5.53691">
        <ele>1435.6</ele>
        <time>2022-01-19T08:51:17Z</time>
      </trkpt>
      <trkpt lat="44.88448" lon="5.53691">
        <ele>1435.6</ele>
        <time>2022-01-19T08:51:18Z</time>
      </trkpt>
      <trkpt lat="44.88448" lon="5.53691">
        <ele>1435.6</ele>
        <time>2022-01-19T08:51:19Z</time>
      </trkpt>
      <trkpt lat="44.88448" lon="5.53691">
        <ele>1435.6</ele>
        <time>2022-01-19T08:51:20Z</time>
      </trkpt>
      <trkpt lat="44.88448" lon="5.53691">
        <ele>1435.6</ele>
        <time>2022-01-19T08:51:21Z</time>
      </trkpt>
      <trkpt lat="44.88448" lon="5.53691">
        <ele>1435.6</ele>
        <time>2022-01-19T08:51:22Z</time>
      </trkpt>
      <trkpt lat="44.88448" lon="5.53691">
        <ele>1435.6</ele>
        <time>2022-01-19T08:51:23Z</time>
      </trkpt>
      <trkpt lat="44.88448" lon="5.53691">
        <ele>1435.6</ele>
        <time>2022-01-19T08:51:24Z</time>
      </trkpt>
      <trkpt lat="44.88448" lon="5.53691">
        <ele>1435.6</ele>
        <time>2022-01-19T08:51:25Z</time>
      </trkpt>
      <trkpt lat="44.88448" lon="5.53691">
        <ele>1435.6</ele>
        <time>2022-01-19T08:51:26Z</time>
      </trkpt>
      <trkpt lat="44.88448" lon="5.53691">
        <ele>1435.6</ele>
        <time>2022-01-19T08:51:27Z</time>
      </trkpt>
      <trkpt lat="44.88445" lon="5.5368">
        <ele>1438.2</ele>
        <time>2022-01-19T08:51:28Z</time>
      </trkpt>
      <trkpt lat="44.88445" lon="5.5368">
        <ele>1438.3</ele>
        <time>2022-01-19T08:51:29Z</time>
      </trkpt>
      <trkpt lat="44.88445" lon="5.5368">
        <ele>1438.3</ele>
        <time>2022-01-19T08:51:30Z</time>
      </trkpt>
      <trkpt lat="44.88445" lon="5.53679">
        <ele>1438.4</ele>
        <time>2022-01-19T08:51:31Z</time>
      </trkpt>
      <trkpt lat="44.88445" lon="5.53679">
        <ele>1438.4</ele>
        <time>2022-01-19T08:51:32Z</time>
      </trkpt>
      <trkpt lat="44.88445" lon="5.53679">
        <ele>1438.4</ele>
        <time>2022-01-19T08:51:33Z</time>
      </trkpt>
      <trkpt lat="44.88445" lon="5.53679">
        <ele>1438.4</ele>
        <time>2022-01-19T08:51:34Z</time>
      </trkpt>
      <trkpt lat="44.88445" lon="5.53679">
        <ele>1438.4</ele>
        <time>2022-01-19T08:51:35Z</time>
      </trkpt>
      <trkpt lat="44.88445" lon="5.53679">
        <ele>1438.4</ele>
        <time>2022-01-19T08:51:36Z</time>
      </trkpt>
      <trkpt lat="44.88445" lon="5.53679">
        <ele>1438.4</ele>
        <time>2022-01-19T08:51:37Z</time>
      </trkpt>
      <trkpt lat="44.88445" lon="5.53679">
        <ele>1438.4</ele>
        <time>2022-01-19T08:51:38Z</time>
      </trkpt>
      <trkpt lat="44.88443" lon="5.53676">
        <ele>1439.3</ele>
        <time>2022-01-19T08:51:39Z</time>
      </trkpt>
      <trkpt lat="44.88443" lon="5.53675">
        <ele>1439.5</ele>
        <time>2022-01-19T08:51:40Z</time>
      </trkpt>
      <trkpt lat="44.88443" lon="5.53676">
        <ele>1439.5</ele>
        <time>2022-01-19T08:51:41Z</time>
      </trkpt>
      <trkpt lat="44.88442" lon="5.53676">
        <ele>1439.7</ele>
        <time>2022-01-19T08:51:42Z</time>
      </trkpt>
      <trkpt lat="44.88442" lon="5.53676">
        <ele>1439.7</ele>
        <time>2022-01-19T08:51:43Z</time>
      </trkpt>
      <trkpt lat="44.88442" lon="5.53676">
        <ele>1439.7</ele>
        <time>2022-01-19T08:51:44Z</time>
      </trkpt>
      <trkpt lat="44.88442" lon="5.53676">
        <ele>1439.7</ele>
        <time>2022-01-19T08:51:45Z</time>
      </trkpt>
      <trkpt lat="44.88442" lon="5.53676">
        <ele>1439.7</ele>
        <time>2022-01-19T08:51:46Z</time>
      </trkpt>
      <trkpt lat="44.88442" lon="5.53676">
        <ele>1439.7</ele>
        <time>2022-01-19T08:51:47Z</time>
      </trkpt>
      <trkpt lat="44.88442" lon="5.53676">
        <ele>1439.7</ele>
        <time>2022-01-19T08:51:48Z</time>
      </trkpt>
      <trkpt lat="44.88442" lon="5.53676">
        <ele>1439.7</ele>
        <time>2022-01-19T08:51:49Z</time>
      </trkpt>
      <trkpt lat="44.88442" lon="5.53676">
        <ele>1439.7</ele>
        <time>2022-01-19T08:51:50Z</time>
      </trkpt>
      <trkpt lat="44.88442" lon="5.53676">
        <ele>1439.7</ele>
        <time>2022-01-19T08:51:51Z</time>
      </trkpt>
      <trkpt lat="44.88442" lon="5.53676">
        <ele>1439.7</ele>
        <time>2022-01-19T08:51:52Z</time>
      </trkpt>
      <trkpt lat="44.88442" lon="5.53676">
        <ele>1439.7</ele>
        <time>2022-01-19T08:51:53Z</time>
      </trkpt>
      <trkpt lat="44.88442" lon="5.53676">
        <ele>1439.7</ele>
        <time>2022-01-19T08:51:54Z</time>
      </trkpt>
      <trkpt lat="44.88442" lon="5.53676">
        <ele>1439.7</ele>
        <time>2022-01-19T08:51:55Z</time>
      </trkpt>
      <trkpt lat="44.88442" lon="5.53676">
        <ele>1439.7</ele>
        <time>2022-01-19T08:51:56Z</time>
      </trkpt>
      <trkpt lat="44.88442" lon="5.53676">
        <ele>1439.7</ele>
        <time>2022-01-19T08:51:57Z</time>
      </trkpt>
      <trkpt lat="44.88442" lon="5.53676">
        <ele>1439.7</ele>
        <time>2022-01-19T08:51:58Z</time>
      </trkpt>
      <trkpt lat="44.88442" lon="5.53676">
        <ele>1439.7</ele>
        <time>2022-01-19T08:51:59Z</time>
      </trkpt>
      <trkpt lat="44.88442" lon="5.53676">
        <ele>1439.7</ele>
        <time>2022-01-19T08:52:00Z</time>
      </trkpt>
      <trkpt lat="44.88442" lon="5.53676">
        <ele>1439.7</ele>
        <time>2022-01-19T08:52:01Z</time>
      </trkpt>
      <trkpt lat="44.88442" lon="5.53676">
        <ele>1439.7</ele>
        <time>2022-01-19T08:52:02Z</time>
      </trkpt>
      <trkpt lat="44.88442" lon="5.53676">
        <ele>1439.7</ele>
        <time>2022-01-19T08:52:03Z</time>
      </trkpt>
      <trkpt lat="44.88442" lon="5.53676">
        <ele>1439.7</ele>
        <time>2022-01-19T08:52:04Z</time>
      </trkpt>
      <trkpt lat="44.88442" lon="5.53676">
        <ele>1439.7</ele>
        <time>2022-01-19T08:52:05Z</time>
      </trkpt>
      <trkpt lat="44.88442" lon="5.53676">
        <ele>1439.7</ele>
        <time>2022-01-19T08:52:06Z</time>
      </trkpt>
      <trkpt lat="44.88442" lon="5.53676">
        <ele>1439.7</ele>
        <time>2022-01-19T08:52:07Z</time>
      </trkpt>
      <trkpt lat="44.88442" lon="5.53676">
        <ele>1439.7</ele>
        <time>2022-01-19T08:52:08Z</time>
      </trkpt>
      <trkpt lat="44.88442" lon="5.53676">
        <ele>1439.7</ele>
        <time>2022-01-19T08:52:09Z</time>
      </trkpt>
      <trkpt lat="44.88442" lon="5.53676">
        <ele>1439.7</ele>
        <time>2022-01-19T08:52:10Z</time>
      </trkpt>
      <trkpt lat="44.88442" lon="5.53676">
        <ele>1439.7</ele>
        <time>2022-01-19T08:52:11Z</time>
      </trkpt>
      <trkpt lat="44.88442" lon="5.53676">
        <ele>1439.7</ele>
        <time>2022-01-19T08:52:12Z</time>
      </trkpt>
      <trkpt lat="44.88442" lon="5.53676">
        <ele>1439.7</ele>
        <time>2022-01-19T08:52:13Z</time>
      </trkpt>
      <trkpt lat="44.88442" lon="5.53676">
        <ele>1439.7</ele>
        <time>2022-01-19T08:52:14Z</time>
      </trkpt>
      <trkpt lat="44.88436" lon="5.53683">
        <ele>1442</ele>
        <time>2022-01-19T08:52:15Z</time>
      </trkpt>
      <trkpt lat="44.88435" lon="5.53684">
        <ele>1442.2</ele>
        <time>2022-01-19T08:52:16Z</time>
      </trkpt>
      <trkpt lat="44.88434" lon="5.53683">
        <ele>1442.4</ele>
        <time>2022-01-19T08:52:17Z</time>
      </trkpt>
      <trkpt lat="44.88434" lon="5.53683">
        <ele>1442.6</ele>
        <time>2022-01-19T08:52:18Z</time>
      </trkpt>
      <trkpt lat="44.88434" lon="5.53683">
        <ele>1442.6</ele>
        <time>2022-01-19T08:52:19Z</time>
      </trkpt>
      <trkpt lat="44.88434" lon="5.53683">
        <ele>1442.6</ele>
        <time>2022-01-19T08:52:20Z</time>
      </trkpt>
      <trkpt lat="44.88434" lon="5.53683">
        <ele>1442.6</ele>
        <time>2022-01-19T08:52:21Z</time>
      </trkpt>
      <trkpt lat="44.88434" lon="5.53683">
        <ele>1442.6</ele>
        <time>2022-01-19T08:52:22Z</time>
      </trkpt>
      <trkpt lat="44.88434" lon="5.53683">
        <ele>1442.6</ele>
        <time>2022-01-19T08:52:23Z</time>
      </trkpt>
      <trkpt lat="44.88434" lon="5.53683">
        <ele>1442.6</ele>
        <time>2022-01-19T08:52:24Z</time>
      </trkpt>
      <trkpt lat="44.88434" lon="5.53683">
        <ele>1442.6</ele>
        <time>2022-01-19T08:52:25Z</time>
      </trkpt>
      <trkpt lat="44.88434" lon="5.53683">
        <ele>1442.6</ele>
        <time>2022-01-19T08:52:26Z</time>
      </trkpt>
      <trkpt lat="44.88434" lon="5.53683">
        <ele>1442.6</ele>
        <time>2022-01-19T08:52:27Z</time>
      </trkpt>
      <trkpt lat="44.88434" lon="5.53683">
        <ele>1442.6</ele>
        <time>2022-01-19T08:52:28Z</time>
      </trkpt>
      <trkpt lat="44.88434" lon="5.53683">
        <ele>1442.6</ele>
        <time>2022-01-19T08:52:29Z</time>
      </trkpt>
      <trkpt lat="44.88434" lon="5.53683">
        <ele>1442.6</ele>
        <time>2022-01-19T08:52:30Z</time>
      </trkpt>
      <trkpt lat="44.88434" lon="5.53683">
        <ele>1442.6</ele>
        <time>2022-01-19T08:52:31Z</time>
      </trkpt>
      <trkpt lat="44.88434" lon="5.53683">
        <ele>1442.6</ele>
        <time>2022-01-19T08:52:32Z</time>
      </trkpt>
      <trkpt lat="44.88434" lon="5.53683">
        <ele>1442.6</ele>
        <time>2022-01-19T08:52:33Z</time>
      </trkpt>
      <trkpt lat="44.88434" lon="5.53683">
        <ele>1442.6</ele>
        <time>2022-01-19T08:52:34Z</time>
      </trkpt>
      <trkpt lat="44.88434" lon="5.53683">
        <ele>1442.6</ele>
        <time>2022-01-19T08:52:35Z</time>
      </trkpt>
      <trkpt lat="44.88434" lon="5.53683">
        <ele>1442.6</ele>
        <time>2022-01-19T08:52:36Z</time>
      </trkpt>
      <trkpt lat="44.88434" lon="5.53683">
        <ele>1442.6</ele>
        <time>2022-01-19T08:52:37Z</time>
      </trkpt>
      <trkpt lat="44.88434" lon="5.53683">
        <ele>1442.6</ele>
        <time>2022-01-19T08:52:38Z</time>
      </trkpt>
      <trkpt lat="44.88434" lon="5.53683">
        <ele>1442.6</ele>
        <time>2022-01-19T08:52:39Z</time>
      </trkpt>
      <trkpt lat="44.88434" lon="5.53683">
        <ele>1442.6</ele>
        <time>2022-01-19T08:52:40Z</time>
      </trkpt>
      <trkpt lat="44.88434" lon="5.53683">
        <ele>1442.6</ele>
        <time>2022-01-19T08:52:41Z</time>
      </trkpt>
      <trkpt lat="44.88434" lon="5.53683">
        <ele>1442.6</ele>
        <time>2022-01-19T08:52:42Z</time>
      </trkpt>
      <trkpt lat="44.88434" lon="5.53683">
        <ele>1442.6</ele>
        <time>2022-01-19T08:52:43Z</time>
      </trkpt>
      <trkpt lat="44.88434" lon="5.53683">
        <ele>1442.6</ele>
        <time>2022-01-19T08:52:44Z</time>
      </trkpt>
      <trkpt lat="44.88434" lon="5.53683">
        <ele>1442.6</ele>
        <time>2022-01-19T08:52:45Z</time>
      </trkpt>
      <trkpt lat="44.88434" lon="5.53683">
        <ele>1442.6</ele>
        <time>2022-01-19T08:52:46Z</time>
      </trkpt>
      <trkpt lat="44.88434" lon="5.53683">
        <ele>1442.6</ele>
        <time>2022-01-19T08:52:47Z</time>
      </trkpt>
      <trkpt lat="44.88434" lon="5.53683">
        <ele>1442.6</ele>
        <time>2022-01-19T08:52:48Z</time>
      </trkpt>
      <trkpt lat="44.88434" lon="5.53683">
        <ele>1442.6</ele>
        <time>2022-01-19T08:52:49Z</time>
      </trkpt>
      <trkpt lat="44.88434" lon="5.53683">
        <ele>1442.6</ele>
        <time>2022-01-19T08:52:50Z</time>
      </trkpt>
      <trkpt lat="44.88443" lon="5.53677">
        <ele>1445.1</ele>
        <time>2022-01-19T08:52:51Z</time>
      </trkpt>
      <trkpt lat="44.88446" lon="5.53676">
        <ele>1445.9</ele>
        <time>2022-01-19T08:52:52Z</time>
      </trkpt>
      <trkpt lat="44.88449" lon="5.53675">
        <ele>1445.8</ele>
        <time>2022-01-19T08:52:53Z</time>
      </trkpt>
      <trkpt lat="44.8845" lon="5.53672">
        <ele>1447.5</ele>
        <time>2022-01-19T08:52:54Z</time>
      </trkpt>
      <trkpt lat="44.8845" lon="5.53672">
        <ele>1447.5</ele>
        <time>2022-01-19T08:52:55Z</time>
      </trkpt>
      <trkpt lat="44.8845" lon="5.53672">
        <ele>1447.5</ele>
        <time>2022-01-19T08:52:56Z</time>
      </trkpt>
      <trkpt lat="44.8845" lon="5.53672">
        <ele>1447.5</ele>
        <time>2022-01-19T08:52:57Z</time>
      </trkpt>
      <trkpt lat="44.8845" lon="5.53672">
        <ele>1447.5</ele>
        <time>2022-01-19T08:52:58Z</time>
      </trkpt>
      <trkpt lat="44.8845" lon="5.53672">
        <ele>1447.5</ele>
        <time>2022-01-19T08:52:59Z</time>
      </trkpt>
      <trkpt lat="44.8845" lon="5.53672">
        <ele>1447.5</ele>
        <time>2022-01-19T08:53:00Z</time>
      </trkpt>
      <trkpt lat="44.8845" lon="5.53672">
        <ele>1447.5</ele>
        <time>2022-01-19T08:53:01Z</time>
      </trkpt>
      <trkpt lat="44.8845" lon="5.53672">
        <ele>1447.5</ele>
        <time>2022-01-19T08:53:02Z</time>
      </trkpt>
      <trkpt lat="44.88454" lon="5.5366">
        <ele>1450.9</ele>
        <time>2022-01-19T08:53:03Z</time>
      </trkpt>
      <trkpt lat="44.88454" lon="5.53659">
        <ele>1452.7</ele>
        <time>2022-01-19T08:53:04Z</time>
      </trkpt>
      <trkpt lat="44.88454" lon="5.53658">
        <ele>1452.7</ele>
        <time>2022-01-19T08:53:05Z</time>
      </trkpt>
      <trkpt lat="44.88455" lon="5.53658">
        <ele>1452.7</ele>
        <time>2022-01-19T08:53:06Z</time>
      </trkpt>
      <trkpt lat="44.88455" lon="5.53658">
        <ele>1452.7</ele>
        <time>2022-01-19T08:53:07Z</time>
      </trkpt>
      <trkpt lat="44.88455" lon="5.53658">
        <ele>1452.7</ele>
        <time>2022-01-19T08:53:08Z</time>
      </trkpt>
      <trkpt lat="44.88455" lon="5.53658">
        <ele>1452.7</ele>
        <time>2022-01-19T08:53:09Z</time>
      </trkpt>
      <trkpt lat="44.88455" lon="5.53658">
        <ele>1452.7</ele>
        <time>2022-01-19T08:53:10Z</time>
      </trkpt>
      <trkpt lat="44.88455" lon="5.53658">
        <ele>1452.7</ele>
        <time>2022-01-19T08:53:11Z</time>
      </trkpt>
      <trkpt lat="44.88455" lon="5.53658">
        <ele>1452.7</ele>
        <time>2022-01-19T08:53:12Z</time>
      </trkpt>
      <trkpt lat="44.88455" lon="5.53658">
        <ele>1452.7</ele>
        <time>2022-01-19T08:53:13Z</time>
      </trkpt>
      <trkpt lat="44.88455" lon="5.53658">
        <ele>1452.7</ele>
        <time>2022-01-19T08:53:14Z</time>
      </trkpt>
      <trkpt lat="44.88455" lon="5.53658">
        <ele>1452.7</ele>
        <time>2022-01-19T08:53:15Z</time>
      </trkpt>
      <trkpt lat="44.88455" lon="5.53658">
        <ele>1452.7</ele>
        <time>2022-01-19T08:53:16Z</time>
      </trkpt>
      <trkpt lat="44.88455" lon="5.53658">
        <ele>1452.7</ele>
        <time>2022-01-19T08:53:17Z</time>
      </trkpt>
      <trkpt lat="44.88455" lon="5.53658">
        <ele>1452.7</ele>
        <time>2022-01-19T08:53:18Z</time>
      </trkpt>
      <trkpt lat="44.88455" lon="5.53658">
        <ele>1452.7</ele>
        <time>2022-01-19T08:53:19Z</time>
      </trkpt>
      <trkpt lat="44.88455" lon="5.53658">
        <ele>1452.7</ele>
        <time>2022-01-19T08:53:20Z</time>
      </trkpt>
      <trkpt lat="44.88455" lon="5.53658">
        <ele>1452.7</ele>
        <time>2022-01-19T08:53:21Z</time>
      </trkpt>
      <trkpt lat="44.88455" lon="5.53658">
        <ele>1452.7</ele>
        <time>2022-01-19T08:53:22Z</time>
      </trkpt>
      <trkpt lat="44.88455" lon="5.53658">
        <ele>1452.7</ele>
        <time>2022-01-19T08:53:23Z</time>
      </trkpt>
      <trkpt lat="44.88455" lon="5.53658">
        <ele>1452.7</ele>
        <time>2022-01-19T08:53:24Z</time>
      </trkpt>
      <trkpt lat="44.88455" lon="5.53658">
        <ele>1452.7</ele>
        <time>2022-01-19T08:53:25Z</time>
      </trkpt>
      <trkpt lat="44.88455" lon="5.53658">
        <ele>1452.7</ele>
        <time>2022-01-19T08:53:26Z</time>
      </trkpt>
      <trkpt lat="44.88458" lon="5.53658">
        <ele>1452.4</ele>
        <time>2022-01-19T08:53:27Z</time>
      </trkpt>
      <trkpt lat="44.88459" lon="5.53658">
        <ele>1452.4</ele>
        <time>2022-01-19T08:53:28Z</time>
      </trkpt>
      <trkpt lat="44.88459" lon="5.53658">
        <ele>1452.4</ele>
        <time>2022-01-19T08:53:29Z</time>
      </trkpt>
      <trkpt lat="44.88459" lon="5.53658">
        <ele>1452.3</ele>
        <time>2022-01-19T08:53:30Z</time>
      </trkpt>
      <trkpt lat="44.88459" lon="5.53657">
        <ele>1452.3</ele>
        <time>2022-01-19T08:53:31Z</time>
      </trkpt>
      <trkpt lat="44.88459" lon="5.53657">
        <ele>1452.3</ele>
        <time>2022-01-19T08:53:32Z</time>
      </trkpt>
      <trkpt lat="44.88459" lon="5.53657">
        <ele>1452.3</ele>
        <time>2022-01-19T08:53:33Z</time>
      </trkpt>
      <trkpt lat="44.88459" lon="5.53657">
        <ele>1452.3</ele>
        <time>2022-01-19T08:53:34Z</time>
      </trkpt>
      <trkpt lat="44.88459" lon="5.53657">
        <ele>1452.3</ele>
        <time>2022-01-19T08:53:35Z</time>
      </trkpt>
      <trkpt lat="44.88459" lon="5.53657">
        <ele>1452.3</ele>
        <time>2022-01-19T08:53:36Z</time>
      </trkpt>
      <trkpt lat="44.88459" lon="5.53657">
        <ele>1452.3</ele>
        <time>2022-01-19T08:53:37Z</time>
      </trkpt>
      <trkpt lat="44.88459" lon="5.53657">
        <ele>1452.3</ele>
        <time>2022-01-19T08:53:38Z</time>
      </trkpt>
      <trkpt lat="44.88459" lon="5.53657">
        <ele>1452.3</ele>
        <time>2022-01-19T08:53:39Z</time>
      </trkpt>
      <trkpt lat="44.88459" lon="5.53657">
        <ele>1452.3</ele>
        <time>2022-01-19T08:53:40Z</time>
      </trkpt>
      <trkpt lat="44.88459" lon="5.53657">
        <ele>1452.3</ele>
        <time>2022-01-19T08:53:41Z</time>
      </trkpt>
      <trkpt lat="44.88459" lon="5.53657">
        <ele>1452.3</ele>
        <time>2022-01-19T08:53:42Z</time>
      </trkpt>
      <trkpt lat="44.88459" lon="5.53657">
        <ele>1452.3</ele>
        <time>2022-01-19T08:53:43Z</time>
      </trkpt>
      <trkpt lat="44.88459" lon="5.53657">
        <ele>1452.3</ele>
        <time>2022-01-19T08:53:44Z</time>
      </trkpt>
      <trkpt lat="44.88459" lon="5.53657">
        <ele>1452.3</ele>
        <time>2022-01-19T08:53:45Z</time>
      </trkpt>
      <trkpt lat="44.88459" lon="5.53657">
        <ele>1452.3</ele>
        <time>2022-01-19T08:53:46Z</time>
      </trkpt>
      <trkpt lat="44.88459" lon="5.53657">
        <ele>1452.3</ele>
        <time>2022-01-19T08:53:47Z</time>
      </trkpt>
      <trkpt lat="44.88459" lon="5.53657">
        <ele>1452.3</ele>
        <time>2022-01-19T08:53:48Z</time>
      </trkpt>
      <trkpt lat="44.88459" lon="5.53657">
        <ele>1452.3</ele>
        <time>2022-01-19T08:53:49Z</time>
      </trkpt>
      <trkpt lat="44.88459" lon="5.53657">
        <ele>1452.3</ele>
        <time>2022-01-19T08:53:50Z</time>
      </trkpt>
      <trkpt lat="44.88459" lon="5.53657">
        <ele>1452.3</ele>
        <time>2022-01-19T08:53:51Z</time>
      </trkpt>
      <trkpt lat="44.88459" lon="5.53657">
        <ele>1452.3</ele>
        <time>2022-01-19T08:53:52Z</time>
      </trkpt>
      <trkpt lat="44.88459" lon="5.53657">
        <ele>1452.3</ele>
        <time>2022-01-19T08:53:53Z</time>
      </trkpt>
      <trkpt lat="44.88459" lon="5.53657">
        <ele>1452.3</ele>
        <time>2022-01-19T08:53:54Z</time>
      </trkpt>
      <trkpt lat="44.88459" lon="5.53657">
        <ele>1452.3</ele>
        <time>2022-01-19T08:53:55Z</time>
      </trkpt>
      <trkpt lat="44.88459" lon="5.53657">
        <ele>1452.3</ele>
        <time>2022-01-19T08:53:56Z</time>
      </trkpt>
      <trkpt lat="44.88459" lon="5.53657">
        <ele>1452.3</ele>
        <time>2022-01-19T08:53:57Z</time>
      </trkpt>
      <trkpt lat="44.88459" lon="5.53657">
        <ele>1452.3</ele>
        <time>2022-01-19T08:53:58Z</time>
      </trkpt>
      <trkpt lat="44.88459" lon="5.53657">
        <ele>1452.3</ele>
        <time>2022-01-19T08:53:59Z</time>
      </trkpt>
      <trkpt lat="44.88459" lon="5.53657">
        <ele>1452.3</ele>
        <time>2022-01-19T08:54:00Z</time>
      </trkpt>
      <trkpt lat="44.88459" lon="5.53657">
        <ele>1452.3</ele>
        <time>2022-01-19T08:54:01Z</time>
      </trkpt>
      <trkpt lat="44.88459" lon="5.53657">
        <ele>1452.3</ele>
        <time>2022-01-19T08:54:02Z</time>
      </trkpt>
      <trkpt lat="44.88459" lon="5.53657">
        <ele>1452.3</ele>
        <time>2022-01-19T08:54:03Z</time>
      </trkpt>
      <trkpt lat="44.88459" lon="5.53657">
        <ele>1452.3</ele>
        <time>2022-01-19T08:54:04Z</time>
      </trkpt>
      <trkpt lat="44.88459" lon="5.53657">
        <ele>1452.3</ele>
        <time>2022-01-19T08:54:05Z</time>
      </trkpt>
      <trkpt lat="44.88459" lon="5.53657">
        <ele>1452.3</ele>
        <time>2022-01-19T08:54:06Z</time>
      </trkpt>
      <trkpt lat="44.88459" lon="5.53657">
        <ele>1452.3</ele>
        <time>2022-01-19T08:54:07Z</time>
      </trkpt>
      <trkpt lat="44.88459" lon="5.53657">
        <ele>1452.3</ele>
        <time>2022-01-19T08:54:08Z</time>
      </trkpt>
      <trkpt lat="44.88459" lon="5.53657">
        <ele>1452.3</ele>
        <time>2022-01-19T08:54:09Z</time>
      </trkpt>
      <trkpt lat="44.88459" lon="5.53657">
        <ele>1452.3</ele>
        <time>2022-01-19T08:54:10Z</time>
      </trkpt>
      <trkpt lat="44.88459" lon="5.53657">
        <ele>1452.3</ele>
        <time>2022-01-19T08:54:11Z</time>
      </trkpt>
      <trkpt lat="44.88459" lon="5.53657">
        <ele>1452.3</ele>
        <time>2022-01-19T08:54:12Z</time>
      </trkpt>
      <trkpt lat="44.88459" lon="5.53657">
        <ele>1452.3</ele>
        <time>2022-01-19T08:54:13Z</time>
      </trkpt>
      <trkpt lat="44.88469" lon="5.53661">
        <ele>1449.9</ele>
        <time>2022-01-19T08:54:14Z</time>
      </trkpt>
      <trkpt lat="44.88471" lon="5.53664">
        <ele>1449.6</ele>
        <time>2022-01-19T08:54:15Z</time>
      </trkpt>
      <trkpt lat="44.8847" lon="5.53661">
        <ele>1449.9</ele>
        <time>2022-01-19T08:54:16Z</time>
      </trkpt>
      <trkpt lat="44.8847" lon="5.53661">
        <ele>1449.8</ele>
        <time>2022-01-19T08:54:17Z</time>
      </trkpt>
      <trkpt lat="44.8847" lon="5.53661">
        <ele>1449.8</ele>
        <time>2022-01-19T08:54:18Z</time>
      </trkpt>
      <trkpt lat="44.8847" lon="5.53661">
        <ele>1449.8</ele>
        <time>2022-01-19T08:54:19Z</time>
      </trkpt>
      <trkpt lat="44.8847" lon="5.53661">
        <ele>1449.8</ele>
        <time>2022-01-19T08:54:20Z</time>
      </trkpt>
      <trkpt lat="44.8847" lon="5.53661">
        <ele>1449.8</ele>
        <time>2022-01-19T08:54:21Z</time>
      </trkpt>
      <trkpt lat="44.8847" lon="5.53661">
        <ele>1449.8</ele>
        <time>2022-01-19T08:54:22Z</time>
      </trkpt>
      <trkpt lat="44.8847" lon="5.53661">
        <ele>1449.8</ele>
        <time>2022-01-19T08:54:23Z</time>
      </trkpt>
      <trkpt lat="44.8847" lon="5.53661">
        <ele>1449.8</ele>
        <time>2022-01-19T08:54:24Z</time>
      </trkpt>
      <trkpt lat="44.8847" lon="5.53661">
        <ele>1449.8</ele>
        <time>2022-01-19T08:54:25Z</time>
      </trkpt>
      <trkpt lat="44.8847" lon="5.53661">
        <ele>1449.8</ele>
        <time>2022-01-19T08:54:26Z</time>
      </trkpt>
      <trkpt lat="44.8847" lon="5.53661">
        <ele>1449.8</ele>
        <time>2022-01-19T08:54:27Z</time>
      </trkpt>
      <trkpt lat="44.8847" lon="5.53661">
        <ele>1449.8</ele>
        <time>2022-01-19T08:54:28Z</time>
      </trkpt>
      <trkpt lat="44.8847" lon="5.53661">
        <ele>1449.8</ele>
        <time>2022-01-19T08:54:29Z</time>
      </trkpt>
      <trkpt lat="44.8847" lon="5.53661">
        <ele>1449.8</ele>
        <time>2022-01-19T08:54:30Z</time>
      </trkpt>
      <trkpt lat="44.8847" lon="5.53661">
        <ele>1449.8</ele>
        <time>2022-01-19T08:54:31Z</time>
      </trkpt>
      <trkpt lat="44.8847" lon="5.53661">
        <ele>1449.8</ele>
        <time>2022-01-19T08:54:32Z</time>
      </trkpt>
      <trkpt lat="44.8847" lon="5.53661">
        <ele>1449.8</ele>
        <time>2022-01-19T08:54:33Z</time>
      </trkpt>
      <trkpt lat="44.8847" lon="5.53661">
        <ele>1449.8</ele>
        <time>2022-01-19T08:54:34Z</time>
      </trkpt>
      <trkpt lat="44.8847" lon="5.53661">
        <ele>1449.8</ele>
        <time>2022-01-19T08:54:35Z</time>
      </trkpt>
      <trkpt lat="44.8847" lon="5.53661">
        <ele>1449.8</ele>
        <time>2022-01-19T08:54:36Z</time>
      </trkpt>
      <trkpt lat="44.8847" lon="5.53661">
        <ele>1449.8</ele>
        <time>2022-01-19T08:54:37Z</time>
      </trkpt>
      <trkpt lat="44.8847" lon="5.53661">
        <ele>1449.8</ele>
        <time>2022-01-19T08:54:38Z</time>
      </trkpt>
      <trkpt lat="44.8847" lon="5.53661">
        <ele>1449.8</ele>
        <time>2022-01-19T08:54:39Z</time>
      </trkpt>
      <trkpt lat="44.8847" lon="5.53661">
        <ele>1449.8</ele>
        <time>2022-01-19T08:54:40Z</time>
      </trkpt>
      <trkpt lat="44.8847" lon="5.53661">
        <ele>1449.8</ele>
        <time>2022-01-19T08:54:41Z</time>
      </trkpt>
      <trkpt lat="44.8847" lon="5.53661">
        <ele>1449.8</ele>
        <time>2022-01-19T08:54:42Z</time>
      </trkpt>
      <trkpt lat="44.88474" lon="5.5365">
        <ele>1454.6</ele>
        <time>2022-01-19T08:54:43Z</time>
      </trkpt>
      <trkpt lat="44.88474" lon="5.53645">
        <ele>1456.5</ele>
        <time>2022-01-19T08:54:44Z</time>
      </trkpt>
      <trkpt lat="44.88475" lon="5.53642">
        <ele>1458.2</ele>
        <time>2022-01-19T08:54:45Z</time>
      </trkpt>
      <trkpt lat="44.88475" lon="5.53639">
        <ele>1458.2</ele>
        <time>2022-01-19T08:54:46Z</time>
      </trkpt>
      <trkpt lat="44.88474" lon="5.53637">
        <ele>1460</ele>
        <time>2022-01-19T08:54:47Z</time>
      </trkpt>
      <trkpt lat="44.88475" lon="5.53635">
        <ele>1460</ele>
        <time>2022-01-19T08:54:48Z</time>
      </trkpt>
      <trkpt lat="44.88475" lon="5.53633">
        <ele>1461.6</ele>
        <time>2022-01-19T08:54:49Z</time>
      </trkpt>
      <trkpt lat="44.88475" lon="5.53631">
        <ele>1461.6</ele>
        <time>2022-01-19T08:54:50Z</time>
      </trkpt>
      <trkpt lat="44.88475" lon="5.5363">
        <ele>1461.6</ele>
        <time>2022-01-19T08:54:51Z</time>
      </trkpt>
      <trkpt lat="44.88476" lon="5.53628">
        <ele>1463.2</ele>
        <time>2022-01-19T08:54:52Z</time>
      </trkpt>
      <trkpt lat="44.88477" lon="5.53627">
        <ele>1462.9</ele>
        <time>2022-01-19T08:54:53Z</time>
      </trkpt>
      <trkpt lat="44.88477" lon="5.53624">
        <ele>1464.4</ele>
        <time>2022-01-19T08:54:54Z</time>
      </trkpt>
      <trkpt lat="44.88476" lon="5.53622">
        <ele>1464.7</ele>
        <time>2022-01-19T08:54:55Z</time>
      </trkpt>
      <trkpt lat="44.88477" lon="5.53621">
        <ele>1464.4</ele>
        <time>2022-01-19T08:54:56Z</time>
      </trkpt>
      <trkpt lat="44.88477" lon="5.5362">
        <ele>1466</ele>
        <time>2022-01-19T08:54:57Z</time>
      </trkpt>
      <trkpt lat="44.88477" lon="5.53619">
        <ele>1466</ele>
        <time>2022-01-19T08:54:58Z</time>
      </trkpt>
      <trkpt lat="44.88476" lon="5.53619">
        <ele>1466.3</ele>
        <time>2022-01-19T08:54:59Z</time>
      </trkpt>
      <trkpt lat="44.88476" lon="5.53619">
        <ele>1466.3</ele>
        <time>2022-01-19T08:55:00Z</time>
      </trkpt>
      <trkpt lat="44.88475" lon="5.53619">
        <ele>1466.3</ele>
        <time>2022-01-19T08:55:01Z</time>
      </trkpt>
      <trkpt lat="44.88475" lon="5.53619">
        <ele>1466.3</ele>
        <time>2022-01-19T08:55:02Z</time>
      </trkpt>
      <trkpt lat="44.88475" lon="5.53619">
        <ele>1466.3</ele>
        <time>2022-01-19T08:55:03Z</time>
      </trkpt>
      <trkpt lat="44.88474" lon="5.53618">
        <ele>1466.3</ele>
        <time>2022-01-19T08:55:04Z</time>
      </trkpt>
      <trkpt lat="44.88474" lon="5.53618">
        <ele>1466.3</ele>
        <time>2022-01-19T08:55:05Z</time>
      </trkpt>
      <trkpt lat="44.88473" lon="5.53618">
        <ele>1466.3</ele>
        <time>2022-01-19T08:55:06Z</time>
      </trkpt>
      <trkpt lat="44.88473" lon="5.53618">
        <ele>1466.6</ele>
        <time>2022-01-19T08:55:07Z</time>
      </trkpt>
      <trkpt lat="44.88473" lon="5.53618">
        <ele>1466.6</ele>
        <time>2022-01-19T08:55:08Z</time>
      </trkpt>
      <trkpt lat="44.88472" lon="5.53618">
        <ele>1466.6</ele>
        <time>2022-01-19T08:55:09Z</time>
      </trkpt>
      <trkpt lat="44.88472" lon="5.53617">
        <ele>1466.6</ele>
        <time>2022-01-19T08:55:10Z</time>
      </trkpt>
      <trkpt lat="44.88471" lon="5.53617">
        <ele>1466.6</ele>
        <time>2022-01-19T08:55:11Z</time>
      </trkpt>
      <trkpt lat="44.88471" lon="5.53617">
        <ele>1466.6</ele>
        <time>2022-01-19T08:55:12Z</time>
      </trkpt>
      <trkpt lat="44.88471" lon="5.53617">
        <ele>1466.6</ele>
        <time>2022-01-19T08:55:13Z</time>
      </trkpt>
      <trkpt lat="44.8847" lon="5.53617">
        <ele>1466.6</ele>
        <time>2022-01-19T08:55:14Z</time>
      </trkpt>
      <trkpt lat="44.8847" lon="5.53617">
        <ele>1467</ele>
        <time>2022-01-19T08:55:15Z</time>
      </trkpt>
      <trkpt lat="44.88469" lon="5.53616">
        <ele>1468.7</ele>
        <time>2022-01-19T08:55:16Z</time>
      </trkpt>
      <trkpt lat="44.88469" lon="5.53616">
        <ele>1468.7</ele>
        <time>2022-01-19T08:55:17Z</time>
      </trkpt>
      <trkpt lat="44.88469" lon="5.53616">
        <ele>1468.7</ele>
        <time>2022-01-19T08:55:18Z</time>
      </trkpt>
      <trkpt lat="44.88468" lon="5.53616">
        <ele>1468.7</ele>
        <time>2022-01-19T08:55:19Z</time>
      </trkpt>
      <trkpt lat="44.88468" lon="5.53616">
        <ele>1468.7</ele>
        <time>2022-01-19T08:55:20Z</time>
      </trkpt>
      <trkpt lat="44.88468" lon="5.53616">
        <ele>1468.7</ele>
        <time>2022-01-19T08:55:21Z</time>
      </trkpt>
      <trkpt lat="44.88467" lon="5.53616">
        <ele>1469</ele>
        <time>2022-01-19T08:55:22Z</time>
      </trkpt>
      <trkpt lat="44.88467" lon="5.53615">
        <ele>1469</ele>
        <time>2022-01-19T08:55:23Z</time>
      </trkpt>
      <trkpt lat="44.88466" lon="5.53615">
        <ele>1469</ele>
        <time>2022-01-19T08:55:24Z</time>
      </trkpt>
      <trkpt lat="44.88466" lon="5.53615">
        <ele>1469</ele>
        <time>2022-01-19T08:55:25Z</time>
      </trkpt>
      <trkpt lat="44.88466" lon="5.53615">
        <ele>1469</ele>
        <time>2022-01-19T08:55:26Z</time>
      </trkpt>
      <trkpt lat="44.88465" lon="5.53615">
        <ele>1469</ele>
        <time>2022-01-19T08:55:27Z</time>
      </trkpt>
      <trkpt lat="44.88465" lon="5.53615">
        <ele>1469</ele>
        <time>2022-01-19T08:55:28Z</time>
      </trkpt>
      <trkpt lat="44.88464" lon="5.53614">
        <ele>1469</ele>
        <time>2022-01-19T08:55:29Z</time>
      </trkpt>
      <trkpt lat="44.88464" lon="5.53614">
        <ele>1469.4</ele>
        <time>2022-01-19T08:55:30Z</time>
      </trkpt>
      <trkpt lat="44.88464" lon="5.53614">
        <ele>1469.4</ele>
        <time>2022-01-19T08:55:31Z</time>
      </trkpt>
      <trkpt lat="44.88463" lon="5.53614">
        <ele>1469.4</ele>
        <time>2022-01-19T08:55:32Z</time>
      </trkpt>
      <trkpt lat="44.88463" lon="5.53614">
        <ele>1469.4</ele>
        <time>2022-01-19T08:55:33Z</time>
      </trkpt>
      <trkpt lat="44.88462" lon="5.53614">
        <ele>1469.4</ele>
        <time>2022-01-19T08:55:34Z</time>
      </trkpt>
      <trkpt lat="44.88462" lon="5.53614">
        <ele>1469.4</ele>
        <time>2022-01-19T08:55:35Z</time>
      </trkpt>
      <trkpt lat="44.88462" lon="5.53613">
        <ele>1469.4</ele>
        <time>2022-01-19T08:55:36Z</time>
      </trkpt>
      <trkpt lat="44.88461" lon="5.53613">
        <ele>1469.4</ele>
        <time>2022-01-19T08:55:37Z</time>
      </trkpt>
      <trkpt lat="44.88461" lon="5.53613">
        <ele>1469.7</ele>
        <time>2022-01-19T08:55:38Z</time>
      </trkpt>
      <trkpt lat="44.8846" lon="5.53613">
        <ele>1469.7</ele>
        <time>2022-01-19T08:55:39Z</time>
      </trkpt>
      <trkpt lat="44.8846" lon="5.53613">
        <ele>1469.7</ele>
        <time>2022-01-19T08:55:40Z</time>
      </trkpt>
      <trkpt lat="44.8846" lon="5.53613">
        <ele>1469.7</ele>
        <time>2022-01-19T08:55:41Z</time>
      </trkpt>
      <trkpt lat="44.88459" lon="5.53612">
        <ele>1469.7</ele>
        <time>2022-01-19T08:55:42Z</time>
      </trkpt>
      <trkpt lat="44.88459" lon="5.53612">
        <ele>1469.7</ele>
        <time>2022-01-19T08:55:43Z</time>
      </trkpt>
      <trkpt lat="44.88458" lon="5.53612">
        <ele>1471.6</ele>
        <time>2022-01-19T08:55:44Z</time>
      </trkpt>
      <trkpt lat="44.88458" lon="5.53612">
        <ele>1471.6</ele>
        <time>2022-01-19T08:55:45Z</time>
      </trkpt>
      <trkpt lat="44.88458" lon="5.53612">
        <ele>1471.9</ele>
        <time>2022-01-19T08:55:46Z</time>
      </trkpt>
      <trkpt lat="44.88457" lon="5.53612">
        <ele>1471.9</ele>
        <time>2022-01-19T08:55:47Z</time>
      </trkpt>
      <trkpt lat="44.88457" lon="5.53612">
        <ele>1471.9</ele>
        <time>2022-01-19T08:55:48Z</time>
      </trkpt>
      <trkpt lat="44.88457" lon="5.53611">
        <ele>1471.9</ele>
        <time>2022-01-19T08:55:49Z</time>
      </trkpt>
      <trkpt lat="44.88456" lon="5.53611">
        <ele>1471.9</ele>
        <time>2022-01-19T08:55:50Z</time>
      </trkpt>
      <trkpt lat="44.88456" lon="5.53611">
        <ele>1471.9</ele>
        <time>2022-01-19T08:55:51Z</time>
      </trkpt>
      <trkpt lat="44.88455" lon="5.53611">
        <ele>1471.9</ele>
        <time>2022-01-19T08:55:52Z</time>
      </trkpt>
      <trkpt lat="44.88455" lon="5.53611">
        <ele>1472.2</ele>
        <time>2022-01-19T08:55:53Z</time>
      </trkpt>
      <trkpt lat="44.88455" lon="5.53611">
        <ele>1472.2</ele>
        <time>2022-01-19T08:55:54Z</time>
      </trkpt>
      <trkpt lat="44.88454" lon="5.5361">
        <ele>1472.2</ele>
        <time>2022-01-19T08:55:55Z</time>
      </trkpt>
      <trkpt lat="44.88454" lon="5.5361">
        <ele>1472.2</ele>
        <time>2022-01-19T08:55:56Z</time>
      </trkpt>
      <trkpt lat="44.88453" lon="5.5361">
        <ele>1472.2</ele>
        <time>2022-01-19T08:55:57Z</time>
      </trkpt>
      <trkpt lat="44.88453" lon="5.5361">
        <ele>1472.2</ele>
        <time>2022-01-19T08:55:58Z</time>
      </trkpt>
      <trkpt lat="44.88453" lon="5.5361">
        <ele>1472.2</ele>
        <time>2022-01-19T08:55:59Z</time>
      </trkpt>
      <trkpt lat="44.88452" lon="5.5361">
        <ele>1472.2</ele>
        <time>2022-01-19T08:56:00Z</time>
      </trkpt>
      <trkpt lat="44.88452" lon="5.5361">
        <ele>1472.4</ele>
        <time>2022-01-19T08:56:01Z</time>
      </trkpt>
      <trkpt lat="44.88451" lon="5.53609">
        <ele>1472.4</ele>
        <time>2022-01-19T08:56:02Z</time>
      </trkpt>
      <trkpt lat="44.88451" lon="5.53609">
        <ele>1472.4</ele>
        <time>2022-01-19T08:56:03Z</time>
      </trkpt>
      <trkpt lat="44.88451" lon="5.53609">
        <ele>1472.4</ele>
        <time>2022-01-19T08:56:04Z</time>
      </trkpt>
      <trkpt lat="44.8845" lon="5.53609">
        <ele>1472.4</ele>
        <time>2022-01-19T08:56:05Z</time>
      </trkpt>
      <trkpt lat="44.8845" lon="5.53609">
        <ele>1472.4</ele>
        <time>2022-01-19T08:56:06Z</time>
      </trkpt>
      <trkpt lat="44.88449" lon="5.53609">
        <ele>1472.4</ele>
        <time>2022-01-19T08:56:07Z</time>
      </trkpt>
      <trkpt lat="44.88449" lon="5.53608">
        <ele>1472.4</ele>
        <time>2022-01-19T08:56:08Z</time>
      </trkpt>
      <trkpt lat="44.88449" lon="5.53608">
        <ele>1472.6</ele>
        <time>2022-01-19T08:56:09Z</time>
      </trkpt>
      <trkpt lat="44.88448" lon="5.53608">
        <ele>1472.6</ele>
        <time>2022-01-19T08:56:10Z</time>
      </trkpt>
      <trkpt lat="44.88448" lon="5.53608">
        <ele>1472.6</ele>
        <time>2022-01-19T08:56:11Z</time>
      </trkpt>
      <trkpt lat="44.88447" lon="5.53608">
        <ele>1474.5</ele>
        <time>2022-01-19T08:56:12Z</time>
      </trkpt>
      <trkpt lat="44.88447" lon="5.53608">
        <ele>1474.5</ele>
        <time>2022-01-19T08:56:13Z</time>
      </trkpt>
      <trkpt lat="44.88447" lon="5.53608">
        <ele>1474.5</ele>
        <time>2022-01-19T08:56:14Z</time>
      </trkpt>
      <trkpt lat="44.88446" lon="5.53607">
        <ele>1474.5</ele>
        <time>2022-01-19T08:56:15Z</time>
      </trkpt>
      <trkpt lat="44.88446" lon="5.53607">
        <ele>1474.7</ele>
        <time>2022-01-19T08:56:16Z</time>
      </trkpt>
      <trkpt lat="44.88446" lon="5.53607">
        <ele>1474.7</ele>
        <time>2022-01-19T08:56:17Z</time>
      </trkpt>
      <trkpt lat="44.88445" lon="5.53607">
        <ele>1474.7</ele>
        <time>2022-01-19T08:56:18Z</time>
      </trkpt>
      <trkpt lat="44.88445" lon="5.53607">
        <ele>1474.7</ele>
        <time>2022-01-19T08:56:19Z</time>
      </trkpt>
      <trkpt lat="44.88444" lon="5.53607">
        <ele>1474.7</ele>
        <time>2022-01-19T08:56:20Z</time>
      </trkpt>
      <trkpt lat="44.88444" lon="5.53606">
        <ele>1474.6</ele>
        <time>2022-01-19T08:56:21Z</time>
      </trkpt>
      <trkpt lat="44.88444" lon="5.53606">
        <ele>1474.6</ele>
        <time>2022-01-19T08:56:22Z</time>
      </trkpt>
      <trkpt lat="44.88443" lon="5.53606">
        <ele>1474.6</ele>
        <time>2022-01-19T08:56:23Z</time>
      </trkpt>
      <trkpt lat="44.88443" lon="5.53606">
        <ele>1474.8</ele>
        <time>2022-01-19T08:56:24Z</time>
      </trkpt>
      <trkpt lat="44.88442" lon="5.53606">
        <ele>1474.8</ele>
        <time>2022-01-19T08:56:25Z</time>
      </trkpt>
      <trkpt lat="44.88442" lon="5.53606">
        <ele>1474.8</ele>
        <time>2022-01-19T08:56:26Z</time>
      </trkpt>
      <trkpt lat="44.88442" lon="5.53606">
        <ele>1474.7</ele>
        <time>2022-01-19T08:56:27Z</time>
      </trkpt>
      <trkpt lat="44.88441" lon="5.53605">
        <ele>1474.7</ele>
        <time>2022-01-19T08:56:28Z</time>
      </trkpt>
      <trkpt lat="44.88441" lon="5.53605">
        <ele>1474.7</ele>
        <time>2022-01-19T08:56:29Z</time>
      </trkpt>
      <trkpt lat="44.8844" lon="5.53605">
        <ele>1474.7</ele>
        <time>2022-01-19T08:56:30Z</time>
      </trkpt>
      <trkpt lat="44.8844" lon="5.53605">
        <ele>1474.7</ele>
        <time>2022-01-19T08:56:31Z</time>
      </trkpt>
      <trkpt lat="44.8844" lon="5.53605">
        <ele>1474.8</ele>
        <time>2022-01-19T08:56:32Z</time>
      </trkpt>
      <trkpt lat="44.88439" lon="5.53605">
        <ele>1474.8</ele>
        <time>2022-01-19T08:56:33Z</time>
      </trkpt>
      <trkpt lat="44.88439" lon="5.53604">
        <ele>1474.8</ele>
        <time>2022-01-19T08:56:34Z</time>
      </trkpt>
      <trkpt lat="44.88438" lon="5.53604">
        <ele>1474.8</ele>
        <time>2022-01-19T08:56:35Z</time>
      </trkpt>
      <trkpt lat="44.88438" lon="5.53604">
        <ele>1474.8</ele>
        <time>2022-01-19T08:56:36Z</time>
      </trkpt>
      <trkpt lat="44.88438" lon="5.53604">
        <ele>1474.8</ele>
        <time>2022-01-19T08:56:37Z</time>
      </trkpt>
      <trkpt lat="44.88437" lon="5.53604">
        <ele>1474.8</ele>
        <time>2022-01-19T08:56:38Z</time>
      </trkpt>
      <trkpt lat="44.88437" lon="5.53604">
        <ele>1476.6</ele>
        <time>2022-01-19T08:56:39Z</time>
      </trkpt>
      <trkpt lat="44.88436" lon="5.53604">
        <ele>1476.5</ele>
        <time>2022-01-19T08:56:40Z</time>
      </trkpt>
      <trkpt lat="44.88436" lon="5.53603">
        <ele>1476.5</ele>
        <time>2022-01-19T08:56:41Z</time>
      </trkpt>
      <trkpt lat="44.88436" lon="5.53603">
        <ele>1476.5</ele>
        <time>2022-01-19T08:56:42Z</time>
      </trkpt>
      <trkpt lat="44.88435" lon="5.53603">
        <ele>1476.5</ele>
        <time>2022-01-19T08:56:43Z</time>
      </trkpt>
      <trkpt lat="44.88435" lon="5.53603">
        <ele>1476.5</ele>
        <time>2022-01-19T08:56:44Z</time>
      </trkpt>
      <trkpt lat="44.88434" lon="5.53603">
        <ele>1476.5</ele>
        <time>2022-01-19T08:56:45Z</time>
      </trkpt>
      <trkpt lat="44.88434" lon="5.53603">
        <ele>1476.5</ele>
        <time>2022-01-19T08:56:46Z</time>
      </trkpt>
      <trkpt lat="44.88434" lon="5.53602">
        <ele>1476.5</ele>
        <time>2022-01-19T08:56:47Z</time>
      </trkpt>
      <trkpt lat="44.88433" lon="5.53602">
        <ele>1476.4</ele>
        <time>2022-01-19T08:56:48Z</time>
      </trkpt>
      <trkpt lat="44.88433" lon="5.53602">
        <ele>1476.4</ele>
        <time>2022-01-19T08:56:49Z</time>
      </trkpt>
      <trkpt lat="44.88433" lon="5.53602">
        <ele>1476.4</ele>
        <time>2022-01-19T08:56:50Z</time>
      </trkpt>
      <trkpt lat="44.88432" lon="5.53602">
        <ele>1476.4</ele>
        <time>2022-01-19T08:56:51Z</time>
      </trkpt>
      <trkpt lat="44.88432" lon="5.53602">
        <ele>1476.4</ele>
        <time>2022-01-19T08:56:52Z</time>
      </trkpt>
      <trkpt lat="44.88431" lon="5.53602">
        <ele>1476.4</ele>
        <time>2022-01-19T08:56:53Z</time>
      </trkpt>
      <trkpt lat="44.88431" lon="5.53601">
        <ele>1476.4</ele>
        <time>2022-01-19T08:56:54Z</time>
      </trkpt>
      <trkpt lat="44.88431" lon="5.53601">
        <ele>1476.2</ele>
        <time>2022-01-19T08:56:55Z</time>
      </trkpt>
      <trkpt lat="44.8843" lon="5.53601">
        <ele>1476.2</ele>
        <time>2022-01-19T08:56:56Z</time>
      </trkpt>
      <trkpt lat="44.8843" lon="5.53601">
        <ele>1476.2</ele>
        <time>2022-01-19T08:56:57Z</time>
      </trkpt>
      <trkpt lat="44.88429" lon="5.53601">
        <ele>1476.2</ele>
        <time>2022-01-19T08:56:58Z</time>
      </trkpt>
      <trkpt lat="44.88429" lon="5.53601">
        <ele>1476.2</ele>
        <time>2022-01-19T08:56:59Z</time>
      </trkpt>
      <trkpt lat="44.88429" lon="5.536">
        <ele>1476.2</ele>
        <time>2022-01-19T08:57:00Z</time>
      </trkpt>
      <trkpt lat="44.88428" lon="5.536">
        <ele>1476.2</ele>
        <time>2022-01-19T08:57:01Z</time>
      </trkpt>
      <trkpt lat="44.88428" lon="5.536">
        <ele>1476.2</ele>
        <time>2022-01-19T08:57:02Z</time>
      </trkpt>
      <trkpt lat="44.88427" lon="5.536">
        <ele>1476</ele>
        <time>2022-01-19T08:57:03Z</time>
      </trkpt>
      <trkpt lat="44.88427" lon="5.536">
        <ele>1476</ele>
        <time>2022-01-19T08:57:04Z</time>
      </trkpt>
      <trkpt lat="44.88427" lon="5.536">
        <ele>1476</ele>
        <time>2022-01-19T08:57:05Z</time>
      </trkpt>
      <trkpt lat="44.88426" lon="5.536">
        <ele>1476</ele>
        <time>2022-01-19T08:57:06Z</time>
      </trkpt>
      <trkpt lat="44.88426" lon="5.53599">
        <ele>1477.6</ele>
        <time>2022-01-19T08:57:07Z</time>
      </trkpt>
      <trkpt lat="44.88425" lon="5.53599">
        <ele>1477.6</ele>
        <time>2022-01-19T08:57:08Z</time>
      </trkpt>
      <trkpt lat="44.88425" lon="5.53599">
        <ele>1477.6</ele>
        <time>2022-01-19T08:57:09Z</time>
      </trkpt>
      <trkpt lat="44.88425" lon="5.53599">
        <ele>1477.6</ele>
        <time>2022-01-19T08:57:10Z</time>
      </trkpt>
      <trkpt lat="44.88424" lon="5.53599">
        <ele>1477.2</ele>
        <time>2022-01-19T08:57:11Z</time>
      </trkpt>
      <trkpt lat="44.88424" lon="5.53599">
        <ele>1477.2</ele>
        <time>2022-01-19T08:57:12Z</time>
      </trkpt>
      <trkpt lat="44.88423" lon="5.53598">
        <ele>1477.2</ele>
        <time>2022-01-19T08:57:13Z</time>
      </trkpt>
      <trkpt lat="44.88423" lon="5.53598">
        <ele>1477.2</ele>
        <time>2022-01-19T08:57:14Z</time>
      </trkpt>
      <trkpt lat="44.88423" lon="5.53598">
        <ele>1477.2</ele>
        <time>2022-01-19T08:57:15Z</time>
      </trkpt>
      <trkpt lat="44.88421" lon="5.53599">
        <ele>1476.8</ele>
        <time>2022-01-19T08:57:16Z</time>
      </trkpt>
      <trkpt lat="44.8842" lon="5.53599">
        <ele>1476.8</ele>
        <time>2022-01-19T08:57:17Z</time>
      </trkpt>
      <trkpt lat="44.88419" lon="5.53598">
        <ele>1476.8</ele>
        <time>2022-01-19T08:57:18Z</time>
      </trkpt>
      <trkpt lat="44.88419" lon="5.53598">
        <ele>1476.8</ele>
        <time>2022-01-19T08:57:19Z</time>
      </trkpt>
      <trkpt lat="44.88419" lon="5.53598">
        <ele>1476.8</ele>
        <time>2022-01-19T08:57:20Z</time>
      </trkpt>
      <trkpt lat="44.88419" lon="5.53598">
        <ele>1476.8</ele>
        <time>2022-01-19T08:57:21Z</time>
      </trkpt>
      <trkpt lat="44.88418" lon="5.53597">
        <ele>1476.3</ele>
        <time>2022-01-19T08:57:22Z</time>
      </trkpt>
      <trkpt lat="44.88417" lon="5.53597">
        <ele>1476.3</ele>
        <time>2022-01-19T08:57:23Z</time>
      </trkpt>
      <trkpt lat="44.88417" lon="5.53597">
        <ele>1476.3</ele>
        <time>2022-01-19T08:57:24Z</time>
      </trkpt>
      <trkpt lat="44.88417" lon="5.53597">
        <ele>1476.3</ele>
        <time>2022-01-19T08:57:25Z</time>
      </trkpt>
      <trkpt lat="44.88417" lon="5.53597">
        <ele>1476.3</ele>
        <time>2022-01-19T08:57:26Z</time>
      </trkpt>
      <trkpt lat="44.88417" lon="5.53597">
        <ele>1476.3</ele>
        <time>2022-01-19T08:57:27Z</time>
      </trkpt>
      <trkpt lat="44.88417" lon="5.53597">
        <ele>1476.3</ele>
        <time>2022-01-19T08:57:28Z</time>
      </trkpt>
      <trkpt lat="44.88417" lon="5.53597">
        <ele>1476.3</ele>
        <time>2022-01-19T08:57:29Z</time>
      </trkpt>
      <trkpt lat="44.88417" lon="5.53597">
        <ele>1476.3</ele>
        <time>2022-01-19T08:57:30Z</time>
      </trkpt>
      <trkpt lat="44.88414" lon="5.53597">
        <ele>1475.7</ele>
        <time>2022-01-19T08:57:31Z</time>
      </trkpt>
      <trkpt lat="44.88413" lon="5.53596">
        <ele>1475.7</ele>
        <time>2022-01-19T08:57:32Z</time>
      </trkpt>
      <trkpt lat="44.88413" lon="5.53596">
        <ele>1475.7</ele>
        <time>2022-01-19T08:57:33Z</time>
      </trkpt>
      <trkpt lat="44.88413" lon="5.53596">
        <ele>1475.7</ele>
        <time>2022-01-19T08:57:34Z</time>
      </trkpt>
      <trkpt lat="44.88412" lon="5.53596">
        <ele>1475.7</ele>
        <time>2022-01-19T08:57:35Z</time>
      </trkpt>
      <trkpt lat="44.88412" lon="5.53595">
        <ele>1475.7</ele>
        <time>2022-01-19T08:57:36Z</time>
      </trkpt>
      <trkpt lat="44.88412" lon="5.53595">
        <ele>1475.7</ele>
        <time>2022-01-19T08:57:37Z</time>
      </trkpt>
      <trkpt lat="44.88412" lon="5.53595">
        <ele>1477.2</ele>
        <time>2022-01-19T08:57:38Z</time>
      </trkpt>
      <trkpt lat="44.88412" lon="5.53595">
        <ele>1477.2</ele>
        <time>2022-01-19T08:57:39Z</time>
      </trkpt>
      <trkpt lat="44.88412" lon="5.53595">
        <ele>1476.6</ele>
        <time>2022-01-19T08:57:40Z</time>
      </trkpt>
      <trkpt lat="44.88412" lon="5.53594">
        <ele>1476.6</ele>
        <time>2022-01-19T08:57:41Z</time>
      </trkpt>
      <trkpt lat="44.88412" lon="5.53594">
        <ele>1476.6</ele>
        <time>2022-01-19T08:57:42Z</time>
      </trkpt>
      <trkpt lat="44.88412" lon="5.53594">
        <ele>1476.6</ele>
        <time>2022-01-19T08:57:43Z</time>
      </trkpt>
      <trkpt lat="44.88412" lon="5.53594">
        <ele>1476.6</ele>
        <time>2022-01-19T08:57:44Z</time>
      </trkpt>
      <trkpt lat="44.88412" lon="5.53593">
        <ele>1476.6</ele>
        <time>2022-01-19T08:57:45Z</time>
      </trkpt>
      <trkpt lat="44.88412" lon="5.53593">
        <ele>1476.6</ele>
        <time>2022-01-19T08:57:46Z</time>
      </trkpt>
      <trkpt lat="44.88412" lon="5.53593">
        <ele>1476.6</ele>
        <time>2022-01-19T08:57:47Z</time>
      </trkpt>
      <trkpt lat="44.88412" lon="5.53593">
        <ele>1476.6</ele>
        <time>2022-01-19T08:57:48Z</time>
      </trkpt>
      <trkpt lat="44.88412" lon="5.53593">
        <ele>1476.6</ele>
        <time>2022-01-19T08:57:49Z</time>
      </trkpt>
      <trkpt lat="44.88412" lon="5.53592">
        <ele>1476.6</ele>
        <time>2022-01-19T08:57:50Z</time>
      </trkpt>
      <trkpt lat="44.88412" lon="5.53592">
        <ele>1476.6</ele>
        <time>2022-01-19T08:57:51Z</time>
      </trkpt>
      <trkpt lat="44.88412" lon="5.53592">
        <ele>1476.6</ele>
        <time>2022-01-19T08:57:52Z</time>
      </trkpt>
      <trkpt lat="44.88412" lon="5.53592">
        <ele>1476.6</ele>
        <time>2022-01-19T08:57:53Z</time>
      </trkpt>
      <trkpt lat="44.88412" lon="5.53591">
        <ele>1476.6</ele>
        <time>2022-01-19T08:57:54Z</time>
      </trkpt>
      <trkpt lat="44.88412" lon="5.53591">
        <ele>1476.6</ele>
        <time>2022-01-19T08:57:55Z</time>
      </trkpt>
      <trkpt lat="44.88412" lon="5.53591">
        <ele>1476.6</ele>
        <time>2022-01-19T08:57:56Z</time>
      </trkpt>
      <trkpt lat="44.88412" lon="5.53591">
        <ele>1478</ele>
        <time>2022-01-19T08:57:57Z</time>
      </trkpt>
      <trkpt lat="44.88412" lon="5.5359">
        <ele>1478</ele>
        <time>2022-01-19T08:57:58Z</time>
      </trkpt>
      <trkpt lat="44.88412" lon="5.5359">
        <ele>1478</ele>
        <time>2022-01-19T08:57:59Z</time>
      </trkpt>
      <trkpt lat="44.88412" lon="5.5359">
        <ele>1478</ele>
        <time>2022-01-19T08:58:00Z</time>
      </trkpt>
      <trkpt lat="44.88412" lon="5.5359">
        <ele>1478</ele>
        <time>2022-01-19T08:58:01Z</time>
      </trkpt>
      <trkpt lat="44.88412" lon="5.5359">
        <ele>1478</ele>
        <time>2022-01-19T08:58:02Z</time>
      </trkpt>
      <trkpt lat="44.88412" lon="5.53589">
        <ele>1478</ele>
        <time>2022-01-19T08:58:03Z</time>
      </trkpt>
      <trkpt lat="44.88412" lon="5.53589">
        <ele>1478</ele>
        <time>2022-01-19T08:58:04Z</time>
      </trkpt>
      <trkpt lat="44.88412" lon="5.53589">
        <ele>1478</ele>
        <time>2022-01-19T08:58:05Z</time>
      </trkpt>
      <trkpt lat="44.88412" lon="5.53589">
        <ele>1478</ele>
        <time>2022-01-19T08:58:06Z</time>
      </trkpt>
      <trkpt lat="44.88412" lon="5.53588">
        <ele>1478</ele>
        <time>2022-01-19T08:58:07Z</time>
      </trkpt>
      <trkpt lat="44.88412" lon="5.53588">
        <ele>1478</ele>
        <time>2022-01-19T08:58:08Z</time>
      </trkpt>
      <trkpt lat="44.88412" lon="5.53588">
        <ele>1478</ele>
        <time>2022-01-19T08:58:09Z</time>
      </trkpt>
      <trkpt lat="44.88412" lon="5.53588">
        <ele>1478</ele>
        <time>2022-01-19T08:58:10Z</time>
      </trkpt>
      <trkpt lat="44.88412" lon="5.53588">
        <ele>1478</ele>
        <time>2022-01-19T08:58:11Z</time>
      </trkpt>
      <trkpt lat="44.88412" lon="5.53587">
        <ele>1478</ele>
        <time>2022-01-19T08:58:12Z</time>
      </trkpt>
      <trkpt lat="44.88412" lon="5.53587">
        <ele>1478</ele>
        <time>2022-01-19T08:58:13Z</time>
      </trkpt>
      <trkpt lat="44.88412" lon="5.53587">
        <ele>1478</ele>
        <time>2022-01-19T08:58:14Z</time>
      </trkpt>
      <trkpt lat="44.88412" lon="5.53587">
        <ele>1478</ele>
        <time>2022-01-19T08:58:15Z</time>
      </trkpt>
      <trkpt lat="44.88412" lon="5.53586">
        <ele>1479.3</ele>
        <time>2022-01-19T08:58:16Z</time>
      </trkpt>
      <trkpt lat="44.88412" lon="5.53586">
        <ele>1479.3</ele>
        <time>2022-01-19T08:58:17Z</time>
      </trkpt>
      <trkpt lat="44.88411" lon="5.53586">
        <ele>1479.3</ele>
        <time>2022-01-19T08:58:18Z</time>
      </trkpt>
      <trkpt lat="44.88411" lon="5.53586">
        <ele>1479.3</ele>
        <time>2022-01-19T08:58:19Z</time>
      </trkpt>
      <trkpt lat="44.88411" lon="5.53586">
        <ele>1479.3</ele>
        <time>2022-01-19T08:58:20Z</time>
      </trkpt>
      <trkpt lat="44.88411" lon="5.53585">
        <ele>1479.3</ele>
        <time>2022-01-19T08:58:21Z</time>
      </trkpt>
      <trkpt lat="44.88411" lon="5.53585">
        <ele>1479.3</ele>
        <time>2022-01-19T08:58:22Z</time>
      </trkpt>
      <trkpt lat="44.88411" lon="5.53585">
        <ele>1479.3</ele>
        <time>2022-01-19T08:58:23Z</time>
      </trkpt>
      <trkpt lat="44.88411" lon="5.53585">
        <ele>1479.3</ele>
        <time>2022-01-19T08:58:24Z</time>
      </trkpt>
      <trkpt lat="44.88411" lon="5.53584">
        <ele>1479.3</ele>
        <time>2022-01-19T08:58:25Z</time>
      </trkpt>
      <trkpt lat="44.88411" lon="5.53584">
        <ele>1479.3</ele>
        <time>2022-01-19T08:58:26Z</time>
      </trkpt>
      <trkpt lat="44.88411" lon="5.53584">
        <ele>1479.3</ele>
        <time>2022-01-19T08:58:27Z</time>
      </trkpt>
      <trkpt lat="44.88411" lon="5.53584">
        <ele>1479.3</ele>
        <time>2022-01-19T08:58:28Z</time>
      </trkpt>
      <trkpt lat="44.88411" lon="5.53584">
        <ele>1479.3</ele>
        <time>2022-01-19T08:58:29Z</time>
      </trkpt>
      <trkpt lat="44.88411" lon="5.53583">
        <ele>1479.3</ele>
        <time>2022-01-19T08:58:30Z</time>
      </trkpt>
      <trkpt lat="44.88411" lon="5.53583">
        <ele>1479.3</ele>
        <time>2022-01-19T08:58:31Z</time>
      </trkpt>
      <trkpt lat="44.88411" lon="5.53583">
        <ele>1479.3</ele>
        <time>2022-01-19T08:58:32Z</time>
      </trkpt>
      <trkpt lat="44.88411" lon="5.53583">
        <ele>1479.3</ele>
        <time>2022-01-19T08:58:33Z</time>
      </trkpt>
      <trkpt lat="44.88411" lon="5.53582">
        <ele>1479.3</ele>
        <time>2022-01-19T08:58:34Z</time>
      </trkpt>
      <trkpt lat="44.88411" lon="5.53582">
        <ele>1480.6</ele>
        <time>2022-01-19T08:58:35Z</time>
      </trkpt>
      <trkpt lat="44.88411" lon="5.53582">
        <ele>1480.6</ele>
        <time>2022-01-19T08:58:36Z</time>
      </trkpt>
      <trkpt lat="44.88411" lon="5.53582">
        <ele>1480.6</ele>
        <time>2022-01-19T08:58:37Z</time>
      </trkpt>
      <trkpt lat="44.88411" lon="5.53582">
        <ele>1480.6</ele>
        <time>2022-01-19T08:58:38Z</time>
      </trkpt>
      <trkpt lat="44.88411" lon="5.53581">
        <ele>1480.6</ele>
        <time>2022-01-19T08:58:39Z</time>
      </trkpt>
      <trkpt lat="44.88411" lon="5.53581">
        <ele>1480.6</ele>
        <time>2022-01-19T08:58:40Z</time>
      </trkpt>
      <trkpt lat="44.88411" lon="5.53581">
        <ele>1480.6</ele>
        <time>2022-01-19T08:58:41Z</time>
      </trkpt>
      <trkpt lat="44.88411" lon="5.53581">
        <ele>1480.6</ele>
        <time>2022-01-19T08:58:42Z</time>
      </trkpt>
      <trkpt lat="44.88411" lon="5.5358">
        <ele>1480.6</ele>
        <time>2022-01-19T08:58:43Z</time>
      </trkpt>
      <trkpt lat="44.88411" lon="5.5358">
        <ele>1480.6</ele>
        <time>2022-01-19T08:58:44Z</time>
      </trkpt>
      <trkpt lat="44.88411" lon="5.5358">
        <ele>1480.6</ele>
        <time>2022-01-19T08:58:45Z</time>
      </trkpt>
      <trkpt lat="44.88411" lon="5.5358">
        <ele>1480.6</ele>
        <time>2022-01-19T08:58:46Z</time>
      </trkpt>
      <trkpt lat="44.88411" lon="5.5358">
        <ele>1480.6</ele>
        <time>2022-01-19T08:58:47Z</time>
      </trkpt>
      <trkpt lat="44.88411" lon="5.53579">
        <ele>1480.6</ele>
        <time>2022-01-19T08:58:48Z</time>
      </trkpt>
      <trkpt lat="44.88411" lon="5.53579">
        <ele>1480.6</ele>
        <time>2022-01-19T08:58:49Z</time>
      </trkpt>
      <trkpt lat="44.88411" lon="5.53579">
        <ele>1480.6</ele>
        <time>2022-01-19T08:58:50Z</time>
      </trkpt>
      <trkpt lat="44.88411" lon="5.53579">
        <ele>1480.6</ele>
        <time>2022-01-19T08:58:51Z</time>
      </trkpt>
      <trkpt lat="44.88411" lon="5.53578">
        <ele>1480.6</ele>
        <time>2022-01-19T08:58:52Z</time>
      </trkpt>
      <trkpt lat="44.88411" lon="5.53578">
        <ele>1480.6</ele>
        <time>2022-01-19T08:58:53Z</time>
      </trkpt>
      <trkpt lat="44.88411" lon="5.53578">
        <ele>1480.6</ele>
        <time>2022-01-19T08:58:54Z</time>
      </trkpt>
      <trkpt lat="44.88411" lon="5.53578">
        <ele>1481.9</ele>
        <time>2022-01-19T08:58:55Z</time>
      </trkpt>
      <trkpt lat="44.88411" lon="5.53577">
        <ele>1481.9</ele>
        <time>2022-01-19T08:58:56Z</time>
      </trkpt>
      <trkpt lat="44.88411" lon="5.53577">
        <ele>1481.9</ele>
        <time>2022-01-19T08:58:57Z</time>
      </trkpt>
      <trkpt lat="44.88411" lon="5.53577">
        <ele>1481.9</ele>
        <time>2022-01-19T08:58:58Z</time>
      </trkpt>
      <trkpt lat="44.88411" lon="5.53577">
        <ele>1481.9</ele>
        <time>2022-01-19T08:58:59Z</time>
      </trkpt>
      <trkpt lat="44.8841" lon="5.53577">
        <ele>1481.9</ele>
        <time>2022-01-19T08:59:00Z</time>
      </trkpt>
      <trkpt lat="44.8841" lon="5.53576">
        <ele>1481.9</ele>
        <time>2022-01-19T08:59:01Z</time>
      </trkpt>
      <trkpt lat="44.8841" lon="5.53576">
        <ele>1481.9</ele>
        <time>2022-01-19T08:59:02Z</time>
      </trkpt>
      <trkpt lat="44.8841" lon="5.53576">
        <ele>1481.9</ele>
        <time>2022-01-19T08:59:03Z</time>
      </trkpt>
      <trkpt lat="44.8841" lon="5.53576">
        <ele>1481.9</ele>
        <time>2022-01-19T08:59:04Z</time>
      </trkpt>
      <trkpt lat="44.8841" lon="5.53575">
        <ele>1481.9</ele>
        <time>2022-01-19T08:59:05Z</time>
      </trkpt>
      <trkpt lat="44.8841" lon="5.53575">
        <ele>1481.9</ele>
        <time>2022-01-19T08:59:06Z</time>
      </trkpt>
      <trkpt lat="44.8841" lon="5.53575">
        <ele>1481.9</ele>
        <time>2022-01-19T08:59:07Z</time>
      </trkpt>
      <trkpt lat="44.8841" lon="5.53575">
        <ele>1481.9</ele>
        <time>2022-01-19T08:59:08Z</time>
      </trkpt>
      <trkpt lat="44.8841" lon="5.53575">
        <ele>1481.9</ele>
        <time>2022-01-19T08:59:09Z</time>
      </trkpt>
      <trkpt lat="44.8841" lon="5.53574">
        <ele>1481.9</ele>
        <time>2022-01-19T08:59:10Z</time>
      </trkpt>
      <trkpt lat="44.8841" lon="5.53574">
        <ele>1481.9</ele>
        <time>2022-01-19T08:59:11Z</time>
      </trkpt>
      <trkpt lat="44.8841" lon="5.53574">
        <ele>1481.9</ele>
        <time>2022-01-19T08:59:12Z</time>
      </trkpt>
      <trkpt lat="44.8841" lon="5.53574">
        <ele>1483.2</ele>
        <time>2022-01-19T08:59:13Z</time>
      </trkpt>
      <trkpt lat="44.8841" lon="5.53573">
        <ele>1483.2</ele>
        <time>2022-01-19T08:59:14Z</time>
      </trkpt>
      <trkpt lat="44.8841" lon="5.53573">
        <ele>1483.2</ele>
        <time>2022-01-19T08:59:15Z</time>
      </trkpt>
      <trkpt lat="44.8841" lon="5.53573">
        <ele>1483.2</ele>
        <time>2022-01-19T08:59:16Z</time>
      </trkpt>
      <trkpt lat="44.8841" lon="5.53573">
        <ele>1483.2</ele>
        <time>2022-01-19T08:59:17Z</time>
      </trkpt>
      <trkpt lat="44.8841" lon="5.53573">
        <ele>1483.2</ele>
        <time>2022-01-19T08:59:18Z</time>
      </trkpt>
      <trkpt lat="44.8841" lon="5.53572">
        <ele>1483.2</ele>
        <time>2022-01-19T08:59:19Z</time>
      </trkpt>
      <trkpt lat="44.8841" lon="5.53572">
        <ele>1483.2</ele>
        <time>2022-01-19T08:59:20Z</time>
      </trkpt>
      <trkpt lat="44.8841" lon="5.53572">
        <ele>1483.2</ele>
        <time>2022-01-19T08:59:21Z</time>
      </trkpt>
      <trkpt lat="44.8841" lon="5.53572">
        <ele>1483.2</ele>
        <time>2022-01-19T08:59:22Z</time>
      </trkpt>
      <trkpt lat="44.8841" lon="5.53571">
        <ele>1483.2</ele>
        <time>2022-01-19T08:59:23Z</time>
      </trkpt>
      <trkpt lat="44.8841" lon="5.53571">
        <ele>1483.2</ele>
        <time>2022-01-19T08:59:24Z</time>
      </trkpt>
      <trkpt lat="44.8841" lon="5.53571">
        <ele>1483.2</ele>
        <time>2022-01-19T08:59:25Z</time>
      </trkpt>
      <trkpt lat="44.8841" lon="5.53571">
        <ele>1483.2</ele>
        <time>2022-01-19T08:59:26Z</time>
      </trkpt>
      <trkpt lat="44.8841" lon="5.53571">
        <ele>1483.2</ele>
        <time>2022-01-19T08:59:27Z</time>
      </trkpt>
      <trkpt lat="44.8841" lon="5.5357">
        <ele>1483.2</ele>
        <time>2022-01-19T08:59:28Z</time>
      </trkpt>
      <trkpt lat="44.8841" lon="5.5357">
        <ele>1483.2</ele>
        <time>2022-01-19T08:59:29Z</time>
      </trkpt>
      <trkpt lat="44.8841" lon="5.5357">
        <ele>1483.2</ele>
        <time>2022-01-19T08:59:30Z</time>
      </trkpt>
      <trkpt lat="44.8841" lon="5.5357">
        <ele>1483.2</ele>
        <time>2022-01-19T08:59:31Z</time>
      </trkpt>
      <trkpt lat="44.8841" lon="5.53569">
        <ele>1483.2</ele>
        <time>2022-01-19T08:59:32Z</time>
      </trkpt>
      <trkpt lat="44.8841" lon="5.53569">
        <ele>1484.6</ele>
        <time>2022-01-19T08:59:33Z</time>
      </trkpt>
      <trkpt lat="44.8841" lon="5.53569">
        <ele>1484.6</ele>
        <time>2022-01-19T08:59:34Z</time>
      </trkpt>
      <trkpt lat="44.8841" lon="5.53569">
        <ele>1484.6</ele>
        <time>2022-01-19T08:59:35Z</time>
      </trkpt>
      <trkpt lat="44.8841" lon="5.53569">
        <ele>1484.6</ele>
        <time>2022-01-19T08:59:36Z</time>
      </trkpt>
      <trkpt lat="44.8841" lon="5.53568">
        <ele>1484.6</ele>
        <time>2022-01-19T08:59:37Z</time>
      </trkpt>
      <trkpt lat="44.8841" lon="5.53568">
        <ele>1484.6</ele>
        <time>2022-01-19T08:59:38Z</time>
      </trkpt>
      <trkpt lat="44.8841" lon="5.53568">
        <ele>1484.6</ele>
        <time>2022-01-19T08:59:39Z</time>
      </trkpt>
      <trkpt lat="44.8841" lon="5.53568">
        <ele>1484.6</ele>
        <time>2022-01-19T08:59:40Z</time>
      </trkpt>
      <trkpt lat="44.8841" lon="5.53567">
        <ele>1484.6</ele>
        <time>2022-01-19T08:59:41Z</time>
      </trkpt>
      <trkpt lat="44.8841" lon="5.53567">
        <ele>1484.5</ele>
        <time>2022-01-19T08:59:42Z</time>
      </trkpt>
      <trkpt lat="44.88409" lon="5.53567">
        <ele>1484.5</ele>
        <time>2022-01-19T08:59:43Z</time>
      </trkpt>
      <trkpt lat="44.88409" lon="5.53567">
        <ele>1484.5</ele>
        <time>2022-01-19T08:59:44Z</time>
      </trkpt>
      <trkpt lat="44.88409" lon="5.53566">
        <ele>1484.5</ele>
        <time>2022-01-19T08:59:45Z</time>
      </trkpt>
      <trkpt lat="44.88409" lon="5.53566">
        <ele>1484.5</ele>
        <time>2022-01-19T08:59:46Z</time>
      </trkpt>
      <trkpt lat="44.88409" lon="5.53566">
        <ele>1484</ele>
        <time>2022-01-19T08:59:47Z</time>
      </trkpt>
      <trkpt lat="44.88409" lon="5.53566">
        <ele>1484</ele>
        <time>2022-01-19T08:59:48Z</time>
      </trkpt>
      <trkpt lat="44.88409" lon="5.53566">
        <ele>1484</ele>
        <time>2022-01-19T08:59:49Z</time>
      </trkpt>
      <trkpt lat="44.88409" lon="5.53565">
        <ele>1484</ele>
        <time>2022-01-19T08:59:50Z</time>
      </trkpt>
      <trkpt lat="44.88409" lon="5.53565">
        <ele>1484</ele>
        <time>2022-01-19T08:59:51Z</time>
      </trkpt>
      <trkpt lat="44.88409" lon="5.53565">
        <ele>1485.5</ele>
        <time>2022-01-19T08:59:52Z</time>
      </trkpt>
      <trkpt lat="44.88409" lon="5.53565">
        <ele>1485.5</ele>
        <time>2022-01-19T08:59:53Z</time>
      </trkpt>
      <trkpt lat="44.88409" lon="5.53564">
        <ele>1485.5</ele>
        <time>2022-01-19T08:59:54Z</time>
      </trkpt>
      <trkpt lat="44.88409" lon="5.53564">
        <ele>1485.5</ele>
        <time>2022-01-19T08:59:55Z</time>
      </trkpt>
      <trkpt lat="44.88409" lon="5.53564">
        <ele>1485.5</ele>
        <time>2022-01-19T08:59:56Z</time>
      </trkpt>
      <trkpt lat="44.88409" lon="5.53564">
        <ele>1485.5</ele>
        <time>2022-01-19T08:59:57Z</time>
      </trkpt>
      <trkpt lat="44.88409" lon="5.53564">
        <ele>1485.5</ele>
        <time>2022-01-19T08:59:58Z</time>
      </trkpt>
      <trkpt lat="44.88409" lon="5.53563">
        <ele>1485.5</ele>
        <time>2022-01-19T08:59:59Z</time>
      </trkpt>
      <trkpt lat="44.88409" lon="5.53563">
        <ele>1485.5</ele>
        <time>2022-01-19T09:00:00Z</time>
      </trkpt>
      <trkpt lat="44.88409" lon="5.53563">
        <ele>1485.5</ele>
        <time>2022-01-19T09:00:01Z</time>
      </trkpt>
      <trkpt lat="44.88409" lon="5.53563">
        <ele>1485.5</ele>
        <time>2022-01-19T09:00:02Z</time>
      </trkpt>
      <trkpt lat="44.88409" lon="5.53562">
        <ele>1485.5</ele>
        <time>2022-01-19T09:00:03Z</time>
      </trkpt>
      <trkpt lat="44.88409" lon="5.53562">
        <ele>1485.5</ele>
        <time>2022-01-19T09:00:04Z</time>
      </trkpt>
      <trkpt lat="44.88409" lon="5.53562">
        <ele>1485.5</ele>
        <time>2022-01-19T09:00:05Z</time>
      </trkpt>
      <trkpt lat="44.88409" lon="5.53562">
        <ele>1485.5</ele>
        <time>2022-01-19T09:00:06Z</time>
      </trkpt>
      <trkpt lat="44.88409" lon="5.53562">
        <ele>1485.5</ele>
        <time>2022-01-19T09:00:07Z</time>
      </trkpt>
      <trkpt lat="44.88409" lon="5.53561">
        <ele>1485.5</ele>
        <time>2022-01-19T09:00:08Z</time>
      </trkpt>
      <trkpt lat="44.88409" lon="5.53561">
        <ele>1485.5</ele>
        <time>2022-01-19T09:00:09Z</time>
      </trkpt>
      <trkpt lat="44.88409" lon="5.53561">
        <ele>1485.5</ele>
        <time>2022-01-19T09:00:10Z</time>
      </trkpt>
      <trkpt lat="44.88409" lon="5.53561">
        <ele>1487</ele>
        <time>2022-01-19T09:00:11Z</time>
      </trkpt>
      <trkpt lat="44.88409" lon="5.53561">
        <ele>1486</ele>
        <time>2022-01-19T09:00:12Z</time>
      </trkpt>
      <trkpt lat="44.88409" lon="5.53562">
        <ele>1486</ele>
        <time>2022-01-19T09:00:13Z</time>
      </trkpt>
      <trkpt lat="44.8841" lon="5.53562">
        <ele>1486</ele>
        <time>2022-01-19T09:00:14Z</time>
      </trkpt>
      <trkpt lat="44.8841" lon="5.53562">
        <ele>1486</ele>
        <time>2022-01-19T09:00:15Z</time>
      </trkpt>
      <trkpt lat="44.8841" lon="5.53563">
        <ele>1486</ele>
        <time>2022-01-19T09:00:16Z</time>
      </trkpt>
      <trkpt lat="44.8841" lon="5.53563">
        <ele>1486</ele>
        <time>2022-01-19T09:00:17Z</time>
      </trkpt>
      <trkpt lat="44.8841" lon="5.53563">
        <ele>1486</ele>
        <time>2022-01-19T09:00:18Z</time>
      </trkpt>
      <trkpt lat="44.88411" lon="5.53568">
        <ele>1484.5</ele>
        <time>2022-01-19T09:00:19Z</time>
      </trkpt>
      <trkpt lat="44.88411" lon="5.53568">
        <ele>1484.5</ele>
        <time>2022-01-19T09:00:20Z</time>
      </trkpt>
      <trkpt lat="44.88411" lon="5.53569">
        <ele>1484.5</ele>
        <time>2022-01-19T09:00:21Z</time>
      </trkpt>
      <trkpt lat="44.88411" lon="5.5357">
        <ele>1483.1</ele>
        <time>2022-01-19T09:00:22Z</time>
      </trkpt>
      <trkpt lat="44.88411" lon="5.5357">
        <ele>1483.1</ele>
        <time>2022-01-19T09:00:23Z</time>
      </trkpt>
      <trkpt lat="44.88411" lon="5.5357">
        <ele>1483.1</ele>
        <time>2022-01-19T09:00:24Z</time>
      </trkpt>
      <trkpt lat="44.88411" lon="5.5357">
        <ele>1483.1</ele>
        <time>2022-01-19T09:00:25Z</time>
      </trkpt>
      <trkpt lat="44.88412" lon="5.53572">
        <ele>1483.1</ele>
        <time>2022-01-19T09:00:26Z</time>
      </trkpt>
      <trkpt lat="44.88412" lon="5.53573">
        <ele>1483.6</ele>
        <time>2022-01-19T09:00:27Z</time>
      </trkpt>
      <trkpt lat="44.88413" lon="5.53573">
        <ele>1483.6</ele>
        <time>2022-01-19T09:00:28Z</time>
      </trkpt>
      <trkpt lat="44.88413" lon="5.53573">
        <ele>1483.6</ele>
        <time>2022-01-19T09:00:29Z</time>
      </trkpt>
      <trkpt lat="44.88414" lon="5.53573">
        <ele>1483.6</ele>
        <time>2022-01-19T09:00:30Z</time>
      </trkpt>
      <trkpt lat="44.88414" lon="5.53573">
        <ele>1483.6</ele>
        <time>2022-01-19T09:00:31Z</time>
      </trkpt>
      <trkpt lat="44.88414" lon="5.53573">
        <ele>1483.6</ele>
        <time>2022-01-19T09:00:32Z</time>
      </trkpt>
      <trkpt lat="44.88414" lon="5.53573">
        <ele>1483.6</ele>
        <time>2022-01-19T09:00:33Z</time>
      </trkpt>
      <trkpt lat="44.88414" lon="5.53573">
        <ele>1483.6</ele>
        <time>2022-01-19T09:00:34Z</time>
      </trkpt>
      <trkpt lat="44.88416" lon="5.53575">
        <ele>1482.8</ele>
        <time>2022-01-19T09:00:35Z</time>
      </trkpt>
      <trkpt lat="44.88416" lon="5.53575">
        <ele>1482.8</ele>
        <time>2022-01-19T09:00:36Z</time>
      </trkpt>
      <trkpt lat="44.88416" lon="5.53576">
        <ele>1482.8</ele>
        <time>2022-01-19T09:00:37Z</time>
      </trkpt>
      <trkpt lat="44.88417" lon="5.53576">
        <ele>1482.8</ele>
        <time>2022-01-19T09:00:38Z</time>
      </trkpt>
      <trkpt lat="44.88417" lon="5.53576">
        <ele>1482.8</ele>
        <time>2022-01-19T09:00:39Z</time>
      </trkpt>
      <trkpt lat="44.88417" lon="5.53576">
        <ele>1482.8</ele>
        <time>2022-01-19T09:00:40Z</time>
      </trkpt>
      <trkpt lat="44.88417" lon="5.53576">
        <ele>1482.8</ele>
        <time>2022-01-19T09:00:41Z</time>
      </trkpt>
      <trkpt lat="44.88417" lon="5.53576">
        <ele>1482.8</ele>
        <time>2022-01-19T09:00:42Z</time>
      </trkpt>
      <trkpt lat="44.88417" lon="5.53576">
        <ele>1482.8</ele>
        <time>2022-01-19T09:00:43Z</time>
      </trkpt>
      <trkpt lat="44.88417" lon="5.53576">
        <ele>1482.8</ele>
        <time>2022-01-19T09:00:44Z</time>
      </trkpt>
      <trkpt lat="44.88419" lon="5.53579">
        <ele>1482</ele>
        <time>2022-01-19T09:00:45Z</time>
      </trkpt>
      <trkpt lat="44.8842" lon="5.5358">
        <ele>1482</ele>
        <time>2022-01-19T09:00:46Z</time>
      </trkpt>
      <trkpt lat="44.88422" lon="5.5358">
        <ele>1482</ele>
        <time>2022-01-19T09:00:47Z</time>
      </trkpt>
      <trkpt lat="44.88423" lon="5.53581">
        <ele>1482.5</ele>
        <time>2022-01-19T09:00:48Z</time>
      </trkpt>
      <trkpt lat="44.88423" lon="5.53582">
        <ele>1482.5</ele>
        <time>2022-01-19T09:00:49Z</time>
      </trkpt>
      <trkpt lat="44.88423" lon="5.53582">
        <ele>1482.5</ele>
        <time>2022-01-19T09:00:50Z</time>
      </trkpt>
      <trkpt lat="44.88424" lon="5.53581">
        <ele>1482.5</ele>
        <time>2022-01-19T09:00:51Z</time>
      </trkpt>
      <trkpt lat="44.88425" lon="5.53582">
        <ele>1482.9</ele>
        <time>2022-01-19T09:00:52Z</time>
      </trkpt>
      <trkpt lat="44.88425" lon="5.53582">
        <ele>1482.9</ele>
        <time>2022-01-19T09:00:53Z</time>
      </trkpt>
      <trkpt lat="44.88425" lon="5.53582">
        <ele>1482.9</ele>
        <time>2022-01-19T09:00:54Z</time>
      </trkpt>
      <trkpt lat="44.88426" lon="5.53583">
        <ele>1481.6</ele>
        <time>2022-01-19T09:00:55Z</time>
      </trkpt>
      <trkpt lat="44.88426" lon="5.53583">
        <ele>1481.6</ele>
        <time>2022-01-19T09:00:56Z</time>
      </trkpt>
      <trkpt lat="44.88426" lon="5.53583">
        <ele>1481.6</ele>
        <time>2022-01-19T09:00:57Z</time>
      </trkpt>
      <trkpt lat="44.88426" lon="5.53583">
        <ele>1481.6</ele>
        <time>2022-01-19T09:00:58Z</time>
      </trkpt>
      <trkpt lat="44.88428" lon="5.53584">
        <ele>1481.9</ele>
        <time>2022-01-19T09:00:59Z</time>
      </trkpt>
      <trkpt lat="44.88429" lon="5.53584">
        <ele>1481.9</ele>
        <time>2022-01-19T09:01:00Z</time>
      </trkpt>
      <trkpt lat="44.88429" lon="5.53584">
        <ele>1481.9</ele>
        <time>2022-01-19T09:01:01Z</time>
      </trkpt>
      <trkpt lat="44.88429" lon="5.53584">
        <ele>1481.9</ele>
        <time>2022-01-19T09:01:02Z</time>
      </trkpt>
      <trkpt lat="44.88429" lon="5.53584">
        <ele>1481.9</ele>
        <time>2022-01-19T09:01:03Z</time>
      </trkpt>
      <trkpt lat="44.88429" lon="5.53584">
        <ele>1481.9</ele>
        <time>2022-01-19T09:01:04Z</time>
      </trkpt>
      <trkpt lat="44.88429" lon="5.53584">
        <ele>1481.9</ele>
        <time>2022-01-19T09:01:05Z</time>
      </trkpt>
      <trkpt lat="44.88429" lon="5.53584">
        <ele>1481.9</ele>
        <time>2022-01-19T09:01:06Z</time>
      </trkpt>
      <trkpt lat="44.88429" lon="5.53584">
        <ele>1481.9</ele>
        <time>2022-01-19T09:01:07Z</time>
      </trkpt>
      <trkpt lat="44.88429" lon="5.53584">
        <ele>1481.9</ele>
        <time>2022-01-19T09:01:08Z</time>
      </trkpt>
      <trkpt lat="44.88429" lon="5.53584">
        <ele>1481.9</ele>
        <time>2022-01-19T09:01:09Z</time>
      </trkpt>
      <trkpt lat="44.88429" lon="5.53584">
        <ele>1481.9</ele>
        <time>2022-01-19T09:01:10Z</time>
      </trkpt>
      <trkpt lat="44.88431" lon="5.53582">
        <ele>1483.4</ele>
        <time>2022-01-19T09:01:11Z</time>
      </trkpt>
      <trkpt lat="44.88431" lon="5.53582">
        <ele>1483.4</ele>
        <time>2022-01-19T09:01:12Z</time>
      </trkpt>
      <trkpt lat="44.88432" lon="5.53581">
        <ele>1483.4</ele>
        <time>2022-01-19T09:01:13Z</time>
      </trkpt>
      <trkpt lat="44.88432" lon="5.5358">
        <ele>1483.4</ele>
        <time>2022-01-19T09:01:14Z</time>
      </trkpt>
      <trkpt lat="44.88432" lon="5.5358">
        <ele>1483.4</ele>
        <time>2022-01-19T09:01:15Z</time>
      </trkpt>
      <trkpt lat="44.88432" lon="5.5358">
        <ele>1483.4</ele>
        <time>2022-01-19T09:01:16Z</time>
      </trkpt>
      <trkpt lat="44.88432" lon="5.5358">
        <ele>1483.4</ele>
        <time>2022-01-19T09:01:17Z</time>
      </trkpt>
      <trkpt lat="44.88432" lon="5.5358">
        <ele>1483.4</ele>
        <time>2022-01-19T09:01:18Z</time>
      </trkpt>
      <trkpt lat="44.88432" lon="5.5358">
        <ele>1483.4</ele>
        <time>2022-01-19T09:01:19Z</time>
      </trkpt>
      <trkpt lat="44.88432" lon="5.5358">
        <ele>1483.4</ele>
        <time>2022-01-19T09:01:20Z</time>
      </trkpt>
      <trkpt lat="44.88432" lon="5.5358">
        <ele>1483.4</ele>
        <time>2022-01-19T09:01:21Z</time>
      </trkpt>
      <trkpt lat="44.88432" lon="5.5358">
        <ele>1483.4</ele>
        <time>2022-01-19T09:01:22Z</time>
      </trkpt>
      <trkpt lat="44.88432" lon="5.5358">
        <ele>1483.4</ele>
        <time>2022-01-19T09:01:23Z</time>
      </trkpt>
      <trkpt lat="44.88432" lon="5.5358">
        <ele>1483.4</ele>
        <time>2022-01-19T09:01:24Z</time>
      </trkpt>
      <trkpt lat="44.88432" lon="5.5358">
        <ele>1483.4</ele>
        <time>2022-01-19T09:01:25Z</time>
      </trkpt>
      <trkpt lat="44.88432" lon="5.5358">
        <ele>1483.4</ele>
        <time>2022-01-19T09:01:26Z</time>
      </trkpt>
      <trkpt lat="44.88432" lon="5.5358">
        <ele>1483.4</ele>
        <time>2022-01-19T09:01:27Z</time>
      </trkpt>
      <trkpt lat="44.88432" lon="5.5358">
        <ele>1483.4</ele>
        <time>2022-01-19T09:01:28Z</time>
      </trkpt>
      <trkpt lat="44.88432" lon="5.5358">
        <ele>1483.4</ele>
        <time>2022-01-19T09:01:29Z</time>
      </trkpt>
      <trkpt lat="44.88432" lon="5.5358">
        <ele>1483.4</ele>
        <time>2022-01-19T09:01:30Z</time>
      </trkpt>
      <trkpt lat="44.88432" lon="5.5358">
        <ele>1483.4</ele>
        <time>2022-01-19T09:01:31Z</time>
      </trkpt>
      <trkpt lat="44.88431" lon="5.5357">
        <ele>1486</ele>
        <time>2022-01-19T09:01:32Z</time>
      </trkpt>
      <trkpt lat="44.88431" lon="5.53568">
        <ele>1486.3</ele>
        <time>2022-01-19T09:01:33Z</time>
      </trkpt>
      <trkpt lat="44.8843" lon="5.53568">
        <ele>1486.6</ele>
        <time>2022-01-19T09:01:34Z</time>
      </trkpt>
      <trkpt lat="44.8843" lon="5.53567">
        <ele>1486.8</ele>
        <time>2022-01-19T09:01:35Z</time>
      </trkpt>
      <trkpt lat="44.88431" lon="5.53566">
        <ele>1487</ele>
        <time>2022-01-19T09:01:36Z</time>
      </trkpt>
      <trkpt lat="44.88431" lon="5.53565">
        <ele>1487.2</ele>
        <time>2022-01-19T09:01:37Z</time>
      </trkpt>
      <trkpt lat="44.8843" lon="5.53565">
        <ele>1487.5</ele>
        <time>2022-01-19T09:01:38Z</time>
      </trkpt>
      <trkpt lat="44.8843" lon="5.53565">
        <ele>1487.5</ele>
        <time>2022-01-19T09:01:39Z</time>
      </trkpt>
      <trkpt lat="44.8843" lon="5.53563">
        <ele>1487.8</ele>
        <time>2022-01-19T09:01:40Z</time>
      </trkpt>
      <trkpt lat="44.8843" lon="5.53563">
        <ele>1487.9</ele>
        <time>2022-01-19T09:01:41Z</time>
      </trkpt>
      <trkpt lat="44.8843" lon="5.53563">
        <ele>1487.9</ele>
        <time>2022-01-19T09:01:42Z</time>
      </trkpt>
      <trkpt lat="44.8843" lon="5.53563">
        <ele>1487.9</ele>
        <time>2022-01-19T09:01:43Z</time>
      </trkpt>
      <trkpt lat="44.8843" lon="5.53563">
        <ele>1487.9</ele>
        <time>2022-01-19T09:01:44Z</time>
      </trkpt>
      <trkpt lat="44.8843" lon="5.53563">
        <ele>1487.9</ele>
        <time>2022-01-19T09:01:45Z</time>
      </trkpt>
      <trkpt lat="44.8843" lon="5.53563">
        <ele>1487.9</ele>
        <time>2022-01-19T09:01:46Z</time>
      </trkpt>
      <trkpt lat="44.8843" lon="5.53563">
        <ele>1487.9</ele>
        <time>2022-01-19T09:01:47Z</time>
      </trkpt>
      <trkpt lat="44.8843" lon="5.53563">
        <ele>1487.9</ele>
        <time>2022-01-19T09:01:48Z</time>
      </trkpt>
      <trkpt lat="44.8843" lon="5.53563">
        <ele>1487.9</ele>
        <time>2022-01-19T09:01:49Z</time>
      </trkpt>
      <trkpt lat="44.8843" lon="5.53556">
        <ele>1489.1</ele>
        <time>2022-01-19T09:01:50Z</time>
      </trkpt>
      <trkpt lat="44.88429" lon="5.53554">
        <ele>1489.5</ele>
        <time>2022-01-19T09:01:51Z</time>
      </trkpt>
      <trkpt lat="44.88429" lon="5.53552">
        <ele>1489.9</ele>
        <time>2022-01-19T09:01:52Z</time>
      </trkpt>
      <trkpt lat="44.88428" lon="5.53551">
        <ele>1490.1</ele>
        <time>2022-01-19T09:01:53Z</time>
      </trkpt>
      <trkpt lat="44.88429" lon="5.5355">
        <ele>1490.3</ele>
        <time>2022-01-19T09:01:54Z</time>
      </trkpt>
      <trkpt lat="44.88428" lon="5.53548">
        <ele>1490.6</ele>
        <time>2022-01-19T09:01:55Z</time>
      </trkpt>
      <trkpt lat="44.88429" lon="5.53547">
        <ele>1490.8</ele>
        <time>2022-01-19T09:01:56Z</time>
      </trkpt>
      <trkpt lat="44.88428" lon="5.53545">
        <ele>1491.1</ele>
        <time>2022-01-19T09:01:57Z</time>
      </trkpt>
      <trkpt lat="44.88429" lon="5.53545">
        <ele>1491.3</ele>
        <time>2022-01-19T09:01:58Z</time>
      </trkpt>
      <trkpt lat="44.88429" lon="5.53543">
        <ele>1491.6</ele>
        <time>2022-01-19T09:01:59Z</time>
      </trkpt>
      <trkpt lat="44.88429" lon="5.53542">
        <ele>1491.9</ele>
        <time>2022-01-19T09:02:00Z</time>
      </trkpt>
      <trkpt lat="44.88429" lon="5.53541">
        <ele>1492</ele>
        <time>2022-01-19T09:02:01Z</time>
      </trkpt>
      <trkpt lat="44.88429" lon="5.53539">
        <ele>1492.3</ele>
        <time>2022-01-19T09:02:02Z</time>
      </trkpt>
      <trkpt lat="44.8843" lon="5.53539">
        <ele>1492.5</ele>
        <time>2022-01-19T09:02:03Z</time>
      </trkpt>
      <trkpt lat="44.8843" lon="5.53537">
        <ele>1492.7</ele>
        <time>2022-01-19T09:02:04Z</time>
      </trkpt>
      <trkpt lat="44.88429" lon="5.53536">
        <ele>1492.9</ele>
        <time>2022-01-19T09:02:05Z</time>
      </trkpt>
      <trkpt lat="44.88429" lon="5.53535">
        <ele>1493.1</ele>
        <time>2022-01-19T09:02:06Z</time>
      </trkpt>
      <trkpt lat="44.88429" lon="5.53535">
        <ele>1493.2</ele>
        <time>2022-01-19T09:02:07Z</time>
      </trkpt>
      <trkpt lat="44.88429" lon="5.53535">
        <ele>1493.3</ele>
        <time>2022-01-19T09:02:08Z</time>
      </trkpt>
      <trkpt lat="44.88429" lon="5.53535">
        <ele>1493.3</ele>
        <time>2022-01-19T09:02:09Z</time>
      </trkpt>
      <trkpt lat="44.88429" lon="5.53535">
        <ele>1493.3</ele>
        <time>2022-01-19T09:02:10Z</time>
      </trkpt>
      <trkpt lat="44.88429" lon="5.53535">
        <ele>1493.3</ele>
        <time>2022-01-19T09:02:11Z</time>
      </trkpt>
      <trkpt lat="44.88429" lon="5.53535">
        <ele>1493.3</ele>
        <time>2022-01-19T09:02:12Z</time>
      </trkpt>
      <trkpt lat="44.88429" lon="5.53535">
        <ele>1493.3</ele>
        <time>2022-01-19T09:02:13Z</time>
      </trkpt>
      <trkpt lat="44.88429" lon="5.53535">
        <ele>1493.3</ele>
        <time>2022-01-19T09:02:14Z</time>
      </trkpt>
      <trkpt lat="44.88429" lon="5.53535">
        <ele>1493.3</ele>
        <time>2022-01-19T09:02:15Z</time>
      </trkpt>
      <trkpt lat="44.88429" lon="5.53535">
        <ele>1493.3</ele>
        <time>2022-01-19T09:02:16Z</time>
      </trkpt>
      <trkpt lat="44.88429" lon="5.53535">
        <ele>1493.3</ele>
        <time>2022-01-19T09:02:17Z</time>
      </trkpt>
      <trkpt lat="44.88429" lon="5.53535">
        <ele>1493.3</ele>
        <time>2022-01-19T09:02:18Z</time>
      </trkpt>
      <trkpt lat="44.88429" lon="5.53535">
        <ele>1493.3</ele>
        <time>2022-01-19T09:02:19Z</time>
      </trkpt>
      <trkpt lat="44.8843" lon="5.53525">
        <ele>1495.3</ele>
        <time>2022-01-19T09:02:20Z</time>
      </trkpt>
      <trkpt lat="44.8843" lon="5.53523">
        <ele>1495.6</ele>
        <time>2022-01-19T09:02:21Z</time>
      </trkpt>
      <trkpt lat="44.88431" lon="5.53523">
        <ele>1495.9</ele>
        <time>2022-01-19T09:02:22Z</time>
      </trkpt>
      <trkpt lat="44.88431" lon="5.53522">
        <ele>1496.1</ele>
        <time>2022-01-19T09:02:23Z</time>
      </trkpt>
      <trkpt lat="44.88431" lon="5.53521">
        <ele>1496.2</ele>
        <time>2022-01-19T09:02:24Z</time>
      </trkpt>
      <trkpt lat="44.88431" lon="5.5352">
        <ele>1496.3</ele>
        <time>2022-01-19T09:02:25Z</time>
      </trkpt>
      <trkpt lat="44.88432" lon="5.5352">
        <ele>1496.4</ele>
        <time>2022-01-19T09:02:26Z</time>
      </trkpt>
      <trkpt lat="44.88432" lon="5.53519">
        <ele>1496.7</ele>
        <time>2022-01-19T09:02:27Z</time>
      </trkpt>
      <trkpt lat="44.88432" lon="5.53519">
        <ele>1496.7</ele>
        <time>2022-01-19T09:02:28Z</time>
      </trkpt>
      <trkpt lat="44.88432" lon="5.53519">
        <ele>1496.7</ele>
        <time>2022-01-19T09:02:29Z</time>
      </trkpt>
      <trkpt lat="44.88432" lon="5.53519">
        <ele>1496.7</ele>
        <time>2022-01-19T09:02:30Z</time>
      </trkpt>
      <trkpt lat="44.88432" lon="5.53519">
        <ele>1496.7</ele>
        <time>2022-01-19T09:02:31Z</time>
      </trkpt>
      <trkpt lat="44.88432" lon="5.53519">
        <ele>1496.7</ele>
        <time>2022-01-19T09:02:32Z</time>
      </trkpt>
      <trkpt lat="44.88432" lon="5.53519">
        <ele>1496.7</ele>
        <time>2022-01-19T09:02:33Z</time>
      </trkpt>
      <trkpt lat="44.88432" lon="5.53519">
        <ele>1496.7</ele>
        <time>2022-01-19T09:02:34Z</time>
      </trkpt>
      <trkpt lat="44.88432" lon="5.53519">
        <ele>1496.7</ele>
        <time>2022-01-19T09:02:35Z</time>
      </trkpt>
      <trkpt lat="44.88432" lon="5.53519">
        <ele>1496.7</ele>
        <time>2022-01-19T09:02:36Z</time>
      </trkpt>
      <trkpt lat="44.88432" lon="5.53519">
        <ele>1496.7</ele>
        <time>2022-01-19T09:02:37Z</time>
      </trkpt>
      <trkpt lat="44.88432" lon="5.53519">
        <ele>1496.7</ele>
        <time>2022-01-19T09:02:38Z</time>
      </trkpt>
      <trkpt lat="44.88432" lon="5.53519">
        <ele>1496.7</ele>
        <time>2022-01-19T09:02:39Z</time>
      </trkpt>
      <trkpt lat="44.88432" lon="5.53519">
        <ele>1496.7</ele>
        <time>2022-01-19T09:02:40Z</time>
      </trkpt>
      <trkpt lat="44.88432" lon="5.53519">
        <ele>1496.7</ele>
        <time>2022-01-19T09:02:41Z</time>
      </trkpt>
      <trkpt lat="44.88432" lon="5.53519">
        <ele>1496.7</ele>
        <time>2022-01-19T09:02:42Z</time>
      </trkpt>
      <trkpt lat="44.88432" lon="5.53519">
        <ele>1496.7</ele>
        <time>2022-01-19T09:02:43Z</time>
      </trkpt>
      <trkpt lat="44.88432" lon="5.53519">
        <ele>1496.7</ele>
        <time>2022-01-19T09:02:44Z</time>
      </trkpt>
      <trkpt lat="44.88432" lon="5.53519">
        <ele>1496.7</ele>
        <time>2022-01-19T09:02:45Z</time>
      </trkpt>
      <trkpt lat="44.88431" lon="5.53507">
        <ele>1499</ele>
        <time>2022-01-19T09:02:46Z</time>
      </trkpt>
      <trkpt lat="44.8843" lon="5.53505">
        <ele>1499.5</ele>
        <time>2022-01-19T09:02:47Z</time>
      </trkpt>
      <trkpt lat="44.8843" lon="5.53505">
        <ele>1499.6</ele>
        <time>2022-01-19T09:02:48Z</time>
      </trkpt>
      <trkpt lat="44.8843" lon="5.53505">
        <ele>1499.6</ele>
        <time>2022-01-19T09:02:49Z</time>
      </trkpt>
      <trkpt lat="44.8843" lon="5.53505">
        <ele>1499.6</ele>
        <time>2022-01-19T09:02:50Z</time>
      </trkpt>
      <trkpt lat="44.8843" lon="5.53505">
        <ele>1499.6</ele>
        <time>2022-01-19T09:02:51Z</time>
      </trkpt>
      <trkpt lat="44.8843" lon="5.53505">
        <ele>1499.6</ele>
        <time>2022-01-19T09:02:52Z</time>
      </trkpt>
      <trkpt lat="44.8843" lon="5.53505">
        <ele>1499.6</ele>
        <time>2022-01-19T09:02:53Z</time>
      </trkpt>
      <trkpt lat="44.8843" lon="5.53505">
        <ele>1499.6</ele>
        <time>2022-01-19T09:02:54Z</time>
      </trkpt>
      <trkpt lat="44.8843" lon="5.53505">
        <ele>1499.6</ele>
        <time>2022-01-19T09:02:55Z</time>
      </trkpt>
      <trkpt lat="44.8843" lon="5.53505">
        <ele>1499.6</ele>
        <time>2022-01-19T09:02:56Z</time>
      </trkpt>
      <trkpt lat="44.8843" lon="5.53505">
        <ele>1499.6</ele>
        <time>2022-01-19T09:02:57Z</time>
      </trkpt>
      <trkpt lat="44.8843" lon="5.53505">
        <ele>1499.6</ele>
        <time>2022-01-19T09:02:58Z</time>
      </trkpt>
      <trkpt lat="44.8843" lon="5.53505">
        <ele>1499.6</ele>
        <time>2022-01-19T09:02:59Z</time>
      </trkpt>
      <trkpt lat="44.88429" lon="5.53496">
        <ele>1501.4</ele>
        <time>2022-01-19T09:03:00Z</time>
      </trkpt>
      <trkpt lat="44.88429" lon="5.53494">
        <ele>1501.8</ele>
        <time>2022-01-19T09:03:01Z</time>
      </trkpt>
      <trkpt lat="44.88429" lon="5.53493">
        <ele>1502.1</ele>
        <time>2022-01-19T09:03:02Z</time>
      </trkpt>
      <trkpt lat="44.88429" lon="5.53491">
        <ele>1502.4</ele>
        <time>2022-01-19T09:03:03Z</time>
      </trkpt>
      <trkpt lat="44.88429" lon="5.5349">
        <ele>1502.6</ele>
        <time>2022-01-19T09:03:04Z</time>
      </trkpt>
      <trkpt lat="44.88429" lon="5.5349">
        <ele>1502.7</ele>
        <time>2022-01-19T09:03:05Z</time>
      </trkpt>
      <trkpt lat="44.88429" lon="5.53489">
        <ele>1502.9</ele>
        <time>2022-01-19T09:03:06Z</time>
      </trkpt>
      <trkpt lat="44.88429" lon="5.53488">
        <ele>1503.1</ele>
        <time>2022-01-19T09:03:07Z</time>
      </trkpt>
      <trkpt lat="44.88429" lon="5.53488">
        <ele>1503.1</ele>
        <time>2022-01-19T09:03:08Z</time>
      </trkpt>
      <trkpt lat="44.88429" lon="5.53488">
        <ele>1503.1</ele>
        <time>2022-01-19T09:03:09Z</time>
      </trkpt>
      <trkpt lat="44.88429" lon="5.53488">
        <ele>1503.1</ele>
        <time>2022-01-19T09:03:10Z</time>
      </trkpt>
      <trkpt lat="44.88429" lon="5.53488">
        <ele>1503.1</ele>
        <time>2022-01-19T09:03:11Z</time>
      </trkpt>
      <trkpt lat="44.88429" lon="5.53488">
        <ele>1503.1</ele>
        <time>2022-01-19T09:03:12Z</time>
      </trkpt>
      <trkpt lat="44.88429" lon="5.53488">
        <ele>1503.1</ele>
        <time>2022-01-19T09:03:13Z</time>
      </trkpt>
      <trkpt lat="44.88429" lon="5.53488">
        <ele>1503.1</ele>
        <time>2022-01-19T09:03:14Z</time>
      </trkpt>
      <trkpt lat="44.88429" lon="5.53488">
        <ele>1503.1</ele>
        <time>2022-01-19T09:03:15Z</time>
      </trkpt>
      <trkpt lat="44.88429" lon="5.53488">
        <ele>1503.1</ele>
        <time>2022-01-19T09:03:16Z</time>
      </trkpt>
      <trkpt lat="44.88429" lon="5.53488">
        <ele>1503.1</ele>
        <time>2022-01-19T09:03:17Z</time>
      </trkpt>
      <trkpt lat="44.88429" lon="5.53488">
        <ele>1503.1</ele>
        <time>2022-01-19T09:03:18Z</time>
      </trkpt>
      <trkpt lat="44.88429" lon="5.53488">
        <ele>1503.1</ele>
        <time>2022-01-19T09:03:19Z</time>
      </trkpt>
      <trkpt lat="44.88429" lon="5.53488">
        <ele>1503.1</ele>
        <time>2022-01-19T09:03:20Z</time>
      </trkpt>
      <trkpt lat="44.88429" lon="5.53488">
        <ele>1503.1</ele>
        <time>2022-01-19T09:03:21Z</time>
      </trkpt>
      <trkpt lat="44.88429" lon="5.53488">
        <ele>1503.1</ele>
        <time>2022-01-19T09:03:22Z</time>
      </trkpt>
      <trkpt lat="44.88429" lon="5.53488">
        <ele>1503.1</ele>
        <time>2022-01-19T09:03:23Z</time>
      </trkpt>
      <trkpt lat="44.88429" lon="5.53488">
        <ele>1503.1</ele>
        <time>2022-01-19T09:03:24Z</time>
      </trkpt>
      <trkpt lat="44.88429" lon="5.53488">
        <ele>1503.1</ele>
        <time>2022-01-19T09:03:25Z</time>
      </trkpt>
      <trkpt lat="44.88429" lon="5.53488">
        <ele>1503.1</ele>
        <time>2022-01-19T09:03:26Z</time>
      </trkpt>
      <trkpt lat="44.88429" lon="5.53488">
        <ele>1503.1</ele>
        <time>2022-01-19T09:03:27Z</time>
      </trkpt>
      <trkpt lat="44.88429" lon="5.53488">
        <ele>1503.1</ele>
        <time>2022-01-19T09:03:28Z</time>
      </trkpt>
      <trkpt lat="44.88429" lon="5.53488">
        <ele>1503.1</ele>
        <time>2022-01-19T09:03:29Z</time>
      </trkpt>
      <trkpt lat="44.88429" lon="5.53488">
        <ele>1503.1</ele>
        <time>2022-01-19T09:03:30Z</time>
      </trkpt>
      <trkpt lat="44.88429" lon="5.53488">
        <ele>1503.1</ele>
        <time>2022-01-19T09:03:31Z</time>
      </trkpt>
      <trkpt lat="44.88429" lon="5.53488">
        <ele>1503.1</ele>
        <time>2022-01-19T09:03:32Z</time>
      </trkpt>
      <trkpt lat="44.88429" lon="5.53488">
        <ele>1503.1</ele>
        <time>2022-01-19T09:03:33Z</time>
      </trkpt>
      <trkpt lat="44.88429" lon="5.53488">
        <ele>1503.1</ele>
        <time>2022-01-19T09:03:34Z</time>
      </trkpt>
      <trkpt lat="44.88429" lon="5.53488">
        <ele>1503.1</ele>
        <time>2022-01-19T09:03:35Z</time>
      </trkpt>
      <trkpt lat="44.88429" lon="5.53488">
        <ele>1503.1</ele>
        <time>2022-01-19T09:03:36Z</time>
      </trkpt>
      <trkpt lat="44.88429" lon="5.53488">
        <ele>1503.1</ele>
        <time>2022-01-19T09:03:37Z</time>
      </trkpt>
      <trkpt lat="44.88429" lon="5.53488">
        <ele>1503.1</ele>
        <time>2022-01-19T09:03:38Z</time>
      </trkpt>
      <trkpt lat="44.88429" lon="5.53488">
        <ele>1503.1</ele>
        <time>2022-01-19T09:03:39Z</time>
      </trkpt>
      <trkpt lat="44.88431" lon="5.53481">
        <ele>1504.7</ele>
        <time>2022-01-19T09:03:40Z</time>
      </trkpt>
      <trkpt lat="44.88431" lon="5.53481">
        <ele>1504.8</ele>
        <time>2022-01-19T09:03:41Z</time>
      </trkpt>
      <trkpt lat="44.88432" lon="5.53482">
        <ele>1504.9</ele>
        <time>2022-01-19T09:03:42Z</time>
      </trkpt>
      <trkpt lat="44.88432" lon="5.53482">
        <ele>1504.9</ele>
        <time>2022-01-19T09:03:43Z</time>
      </trkpt>
      <trkpt lat="44.88432" lon="5.53482">
        <ele>1504.9</ele>
        <time>2022-01-19T09:03:44Z</time>
      </trkpt>
      <trkpt lat="44.88432" lon="5.53482">
        <ele>1504.9</ele>
        <time>2022-01-19T09:03:45Z</time>
      </trkpt>
      <trkpt lat="44.88432" lon="5.53482">
        <ele>1504.9</ele>
        <time>2022-01-19T09:03:46Z</time>
      </trkpt>
      <trkpt lat="44.88432" lon="5.53482">
        <ele>1504.9</ele>
        <time>2022-01-19T09:03:47Z</time>
      </trkpt>
      <trkpt lat="44.88432" lon="5.53482">
        <ele>1504.9</ele>
        <time>2022-01-19T09:03:48Z</time>
      </trkpt>
      <trkpt lat="44.88432" lon="5.53482">
        <ele>1504.9</ele>
        <time>2022-01-19T09:03:49Z</time>
      </trkpt>
      <trkpt lat="44.88432" lon="5.53482">
        <ele>1504.9</ele>
        <time>2022-01-19T09:03:50Z</time>
      </trkpt>
      <trkpt lat="44.88432" lon="5.53482">
        <ele>1504.9</ele>
        <time>2022-01-19T09:03:51Z</time>
      </trkpt>
      <trkpt lat="44.88432" lon="5.53482">
        <ele>1504.9</ele>
        <time>2022-01-19T09:03:52Z</time>
      </trkpt>
      <trkpt lat="44.88432" lon="5.53482">
        <ele>1504.9</ele>
        <time>2022-01-19T09:03:53Z</time>
      </trkpt>
      <trkpt lat="44.88432" lon="5.53482">
        <ele>1504.9</ele>
        <time>2022-01-19T09:03:54Z</time>
      </trkpt>
      <trkpt lat="44.88432" lon="5.53482">
        <ele>1504.9</ele>
        <time>2022-01-19T09:03:55Z</time>
      </trkpt>
      <trkpt lat="44.88432" lon="5.53482">
        <ele>1504.9</ele>
        <time>2022-01-19T09:03:56Z</time>
      </trkpt>
      <trkpt lat="44.88432" lon="5.53482">
        <ele>1504.9</ele>
        <time>2022-01-19T09:03:57Z</time>
      </trkpt>
      <trkpt lat="44.88432" lon="5.53482">
        <ele>1504.9</ele>
        <time>2022-01-19T09:03:58Z</time>
      </trkpt>
      <trkpt lat="44.88432" lon="5.53482">
        <ele>1504.9</ele>
        <time>2022-01-19T09:03:59Z</time>
      </trkpt>
      <trkpt lat="44.88432" lon="5.53482">
        <ele>1504.9</ele>
        <time>2022-01-19T09:04:00Z</time>
      </trkpt>
      <trkpt lat="44.88432" lon="5.53482">
        <ele>1504.9</ele>
        <time>2022-01-19T09:04:01Z</time>
      </trkpt>
      <trkpt lat="44.88432" lon="5.53482">
        <ele>1504.9</ele>
        <time>2022-01-19T09:04:02Z</time>
      </trkpt>
      <trkpt lat="44.88432" lon="5.53482">
        <ele>1504.9</ele>
        <time>2022-01-19T09:04:03Z</time>
      </trkpt>
      <trkpt lat="44.88432" lon="5.53482">
        <ele>1504.9</ele>
        <time>2022-01-19T09:04:04Z</time>
      </trkpt>
      <trkpt lat="44.88432" lon="5.53482">
        <ele>1504.9</ele>
        <time>2022-01-19T09:04:05Z</time>
      </trkpt>
      <trkpt lat="44.88432" lon="5.53482">
        <ele>1504.9</ele>
        <time>2022-01-19T09:04:06Z</time>
      </trkpt>
      <trkpt lat="44.88432" lon="5.53482">
        <ele>1504.9</ele>
        <time>2022-01-19T09:04:07Z</time>
      </trkpt>
      <trkpt lat="44.88432" lon="5.53482">
        <ele>1504.9</ele>
        <time>2022-01-19T09:04:08Z</time>
      </trkpt>
      <trkpt lat="44.88432" lon="5.53482">
        <ele>1504.9</ele>
        <time>2022-01-19T09:04:09Z</time>
      </trkpt>
      <trkpt lat="44.88432" lon="5.53482">
        <ele>1504.9</ele>
        <time>2022-01-19T09:04:10Z</time>
      </trkpt>
      <trkpt lat="44.88432" lon="5.53482">
        <ele>1504.9</ele>
        <time>2022-01-19T09:04:11Z</time>
      </trkpt>
      <trkpt lat="44.88432" lon="5.53482">
        <ele>1504.9</ele>
        <time>2022-01-19T09:04:12Z</time>
      </trkpt>
      <trkpt lat="44.88432" lon="5.53482">
        <ele>1504.9</ele>
        <time>2022-01-19T09:04:13Z</time>
      </trkpt>
      <trkpt lat="44.88432" lon="5.53482">
        <ele>1504.9</ele>
        <time>2022-01-19T09:04:14Z</time>
      </trkpt>
      <trkpt lat="44.88432" lon="5.53482">
        <ele>1504.9</ele>
        <time>2022-01-19T09:04:15Z</time>
      </trkpt>
      <trkpt lat="44.88432" lon="5.53482">
        <ele>1504.9</ele>
        <time>2022-01-19T09:04:16Z</time>
      </trkpt>
      <trkpt lat="44.88432" lon="5.53482">
        <ele>1504.9</ele>
        <time>2022-01-19T09:04:17Z</time>
      </trkpt>
      <trkpt lat="44.88432" lon="5.53482">
        <ele>1504.9</ele>
        <time>2022-01-19T09:04:18Z</time>
      </trkpt>
      <trkpt lat="44.88432" lon="5.53482">
        <ele>1504.9</ele>
        <time>2022-01-19T09:04:19Z</time>
      </trkpt>
      <trkpt lat="44.88432" lon="5.53482">
        <ele>1504.9</ele>
        <time>2022-01-19T09:04:20Z</time>
      </trkpt>
      <trkpt lat="44.88432" lon="5.53482">
        <ele>1504.9</ele>
        <time>2022-01-19T09:04:21Z</time>
      </trkpt>
      <trkpt lat="44.88432" lon="5.53482">
        <ele>1504.9</ele>
        <time>2022-01-19T09:04:22Z</time>
      </trkpt>
      <trkpt lat="44.88432" lon="5.53482">
        <ele>1504.9</ele>
        <time>2022-01-19T09:04:23Z</time>
      </trkpt>
      <trkpt lat="44.88432" lon="5.53482">
        <ele>1504.9</ele>
        <time>2022-01-19T09:04:24Z</time>
      </trkpt>
      <trkpt lat="44.88432" lon="5.53482">
        <ele>1504.9</ele>
        <time>2022-01-19T09:04:25Z</time>
      </trkpt>
      <trkpt lat="44.88432" lon="5.53482">
        <ele>1504.9</ele>
        <time>2022-01-19T09:04:26Z</time>
      </trkpt>
      <trkpt lat="44.88432" lon="5.53482">
        <ele>1504.9</ele>
        <time>2022-01-19T09:04:27Z</time>
      </trkpt>
      <trkpt lat="44.88432" lon="5.53482">
        <ele>1504.9</ele>
        <time>2022-01-19T09:04:28Z</time>
      </trkpt>
      <trkpt lat="44.88432" lon="5.53482">
        <ele>1504.9</ele>
        <time>2022-01-19T09:04:29Z</time>
      </trkpt>
      <trkpt lat="44.88432" lon="5.53482">
        <ele>1504.9</ele>
        <time>2022-01-19T09:04:30Z</time>
      </trkpt>
      <trkpt lat="44.88432" lon="5.53482">
        <ele>1504.9</ele>
        <time>2022-01-19T09:04:31Z</time>
      </trkpt>
      <trkpt lat="44.88432" lon="5.53482">
        <ele>1504.9</ele>
        <time>2022-01-19T09:04:32Z</time>
      </trkpt>
      <trkpt lat="44.88432" lon="5.53482">
        <ele>1504.9</ele>
        <time>2022-01-19T09:04:33Z</time>
      </trkpt>
      <trkpt lat="44.88432" lon="5.53482">
        <ele>1504.9</ele>
        <time>2022-01-19T09:04:34Z</time>
      </trkpt>
      <trkpt lat="44.88432" lon="5.53482">
        <ele>1504.9</ele>
        <time>2022-01-19T09:04:35Z</time>
      </trkpt>
      <trkpt lat="44.88432" lon="5.53482">
        <ele>1504.9</ele>
        <time>2022-01-19T09:04:36Z</time>
      </trkpt>
      <trkpt lat="44.88432" lon="5.53482">
        <ele>1504.9</ele>
        <time>2022-01-19T09:04:37Z</time>
      </trkpt>
      <trkpt lat="44.88432" lon="5.53482">
        <ele>1504.9</ele>
        <time>2022-01-19T09:04:38Z</time>
      </trkpt>
      <trkpt lat="44.88432" lon="5.53482">
        <ele>1504.9</ele>
        <time>2022-01-19T09:04:39Z</time>
      </trkpt>
      <trkpt lat="44.88432" lon="5.53482">
        <ele>1504.9</ele>
        <time>2022-01-19T09:04:40Z</time>
      </trkpt>
      <trkpt lat="44.88432" lon="5.53482">
        <ele>1504.9</ele>
        <time>2022-01-19T09:04:41Z</time>
      </trkpt>
      <trkpt lat="44.88432" lon="5.53482">
        <ele>1504.9</ele>
        <time>2022-01-19T09:04:42Z</time>
      </trkpt>
      <trkpt lat="44.88432" lon="5.53482">
        <ele>1504.9</ele>
        <time>2022-01-19T09:04:43Z</time>
      </trkpt>
      <trkpt lat="44.88432" lon="5.53482">
        <ele>1504.9</ele>
        <time>2022-01-19T09:04:44Z</time>
      </trkpt>
      <trkpt lat="44.88432" lon="5.53482">
        <ele>1504.9</ele>
        <time>2022-01-19T09:04:45Z</time>
      </trkpt>
      <trkpt lat="44.88432" lon="5.53482">
        <ele>1504.9</ele>
        <time>2022-01-19T09:04:46Z</time>
      </trkpt>
      <trkpt lat="44.88432" lon="5.53482">
        <ele>1504.9</ele>
        <time>2022-01-19T09:04:47Z</time>
      </trkpt>
      <trkpt lat="44.88432" lon="5.53482">
        <ele>1504.9</ele>
        <time>2022-01-19T09:04:48Z</time>
      </trkpt>
      <trkpt lat="44.88432" lon="5.53482">
        <ele>1504.9</ele>
        <time>2022-01-19T09:04:49Z</time>
      </trkpt>
      <trkpt lat="44.88432" lon="5.53482">
        <ele>1504.9</ele>
        <time>2022-01-19T09:04:50Z</time>
      </trkpt>
      <trkpt lat="44.88432" lon="5.53482">
        <ele>1504.9</ele>
        <time>2022-01-19T09:04:51Z</time>
      </trkpt>
      <trkpt lat="44.88432" lon="5.53482">
        <ele>1504.9</ele>
        <time>2022-01-19T09:04:52Z</time>
      </trkpt>
      <trkpt lat="44.88432" lon="5.53482">
        <ele>1504.9</ele>
        <time>2022-01-19T09:04:53Z</time>
      </trkpt>
      <trkpt lat="44.88432" lon="5.53482">
        <ele>1504.9</ele>
        <time>2022-01-19T09:04:54Z</time>
      </trkpt>
      <trkpt lat="44.88432" lon="5.53482">
        <ele>1504.9</ele>
        <time>2022-01-19T09:04:55Z</time>
      </trkpt>
      <trkpt lat="44.88432" lon="5.53482">
        <ele>1504.9</ele>
        <time>2022-01-19T09:04:56Z</time>
      </trkpt>
      <trkpt lat="44.88432" lon="5.53482">
        <ele>1504.9</ele>
        <time>2022-01-19T09:04:57Z</time>
      </trkpt>
      <trkpt lat="44.88432" lon="5.53482">
        <ele>1504.9</ele>
        <time>2022-01-19T09:04:58Z</time>
      </trkpt>
      <trkpt lat="44.88432" lon="5.53482">
        <ele>1504.9</ele>
        <time>2022-01-19T09:04:59Z</time>
      </trkpt>
      <trkpt lat="44.88432" lon="5.53482">
        <ele>1504.9</ele>
        <time>2022-01-19T09:05:00Z</time>
      </trkpt>
      <trkpt lat="44.88432" lon="5.53482">
        <ele>1504.9</ele>
        <time>2022-01-19T09:05:01Z</time>
      </trkpt>
      <trkpt lat="44.88432" lon="5.53482">
        <ele>1504.9</ele>
        <time>2022-01-19T09:05:02Z</time>
      </trkpt>
      <trkpt lat="44.88432" lon="5.53482">
        <ele>1504.9</ele>
        <time>2022-01-19T09:05:03Z</time>
      </trkpt>
      <trkpt lat="44.88432" lon="5.53482">
        <ele>1504.9</ele>
        <time>2022-01-19T09:05:04Z</time>
      </trkpt>
      <trkpt lat="44.88432" lon="5.53482">
        <ele>1504.9</ele>
        <time>2022-01-19T09:05:05Z</time>
      </trkpt>
      <trkpt lat="44.88432" lon="5.53482">
        <ele>1504.9</ele>
        <time>2022-01-19T09:05:06Z</time>
      </trkpt>
      <trkpt lat="44.88432" lon="5.53482">
        <ele>1504.9</ele>
        <time>2022-01-19T09:05:07Z</time>
      </trkpt>
      <trkpt lat="44.88432" lon="5.53482">
        <ele>1504.9</ele>
        <time>2022-01-19T09:05:08Z</time>
      </trkpt>
      <trkpt lat="44.88432" lon="5.53482">
        <ele>1504.9</ele>
        <time>2022-01-19T09:05:09Z</time>
      </trkpt>
      <trkpt lat="44.88432" lon="5.53482">
        <ele>1504.9</ele>
        <time>2022-01-19T09:05:10Z</time>
      </trkpt>
      <trkpt lat="44.88432" lon="5.53482">
        <ele>1504.9</ele>
        <time>2022-01-19T09:05:11Z</time>
      </trkpt>
      <trkpt lat="44.88432" lon="5.53482">
        <ele>1504.9</ele>
        <time>2022-01-19T09:05:12Z</time>
      </trkpt>
      <trkpt lat="44.88432" lon="5.53482">
        <ele>1504.9</ele>
        <time>2022-01-19T09:05:13Z</time>
      </trkpt>
      <trkpt lat="44.88432" lon="5.53482">
        <ele>1504.9</ele>
        <time>2022-01-19T09:05:14Z</time>
      </trkpt>
      <trkpt lat="44.88432" lon="5.53482">
        <ele>1504.9</ele>
        <time>2022-01-19T09:05:15Z</time>
      </trkpt>
      <trkpt lat="44.88432" lon="5.53482">
        <ele>1504.9</ele>
        <time>2022-01-19T09:05:16Z</time>
      </trkpt>
      <trkpt lat="44.88432" lon="5.53482">
        <ele>1504.9</ele>
        <time>2022-01-19T09:05:17Z</time>
      </trkpt>
      <trkpt lat="44.88432" lon="5.53482">
        <ele>1504.9</ele>
        <time>2022-01-19T09:05:18Z</time>
      </trkpt>
      <trkpt lat="44.88432" lon="5.53482">
        <ele>1504.9</ele>
        <time>2022-01-19T09:05:19Z</time>
      </trkpt>
      <trkpt lat="44.88432" lon="5.53482">
        <ele>1504.9</ele>
        <time>2022-01-19T09:05:20Z</time>
      </trkpt>
      <trkpt lat="44.88432" lon="5.53482">
        <ele>1504.9</ele>
        <time>2022-01-19T09:05:21Z</time>
      </trkpt>
      <trkpt lat="44.88432" lon="5.53482">
        <ele>1504.9</ele>
        <time>2022-01-19T09:05:22Z</time>
      </trkpt>
      <trkpt lat="44.88432" lon="5.53482">
        <ele>1504.9</ele>
        <time>2022-01-19T09:05:23Z</time>
      </trkpt>
      <trkpt lat="44.88432" lon="5.53482">
        <ele>1504.9</ele>
        <time>2022-01-19T09:05:24Z</time>
      </trkpt>
      <trkpt lat="44.88432" lon="5.53482">
        <ele>1504.9</ele>
        <time>2022-01-19T09:05:25Z</time>
      </trkpt>
      <trkpt lat="44.88432" lon="5.53482">
        <ele>1504.8</ele>
        <time>2022-01-19T09:05:26Z</time>
      </trkpt>
      <trkpt lat="44.88432" lon="5.53482">
        <ele>1504.8</ele>
        <time>2022-01-19T09:05:27Z</time>
      </trkpt>
      <trkpt lat="44.88432" lon="5.53482">
        <ele>1504.8</ele>
        <time>2022-01-19T09:05:28Z</time>
      </trkpt>
      <trkpt lat="44.88432" lon="5.53482">
        <ele>1504.8</ele>
        <time>2022-01-19T09:05:29Z</time>
      </trkpt>
      <trkpt lat="44.88432" lon="5.53482">
        <ele>1504.8</ele>
        <time>2022-01-19T09:05:30Z</time>
      </trkpt>
      <trkpt lat="44.88432" lon="5.53482">
        <ele>1504.8</ele>
        <time>2022-01-19T09:05:31Z</time>
      </trkpt>
      <trkpt lat="44.88432" lon="5.53482">
        <ele>1504.8</ele>
        <time>2022-01-19T09:05:32Z</time>
      </trkpt>
      <trkpt lat="44.88432" lon="5.53482">
        <ele>1504.8</ele>
        <time>2022-01-19T09:05:33Z</time>
      </trkpt>
      <trkpt lat="44.88432" lon="5.53482">
        <ele>1504.8</ele>
        <time>2022-01-19T09:05:34Z</time>
      </trkpt>
      <trkpt lat="44.88432" lon="5.53482">
        <ele>1504.8</ele>
        <time>2022-01-19T09:05:35Z</time>
      </trkpt>
      <trkpt lat="44.88432" lon="5.53482">
        <ele>1504.8</ele>
        <time>2022-01-19T09:05:36Z</time>
      </trkpt>
      <trkpt lat="44.88432" lon="5.53482">
        <ele>1504.8</ele>
        <time>2022-01-19T09:05:37Z</time>
      </trkpt>
      <trkpt lat="44.88432" lon="5.53482">
        <ele>1504.8</ele>
        <time>2022-01-19T09:05:38Z</time>
      </trkpt>
      <trkpt lat="44.88432" lon="5.53482">
        <ele>1504.8</ele>
        <time>2022-01-19T09:05:39Z</time>
      </trkpt>
      <trkpt lat="44.88432" lon="5.53482">
        <ele>1504.8</ele>
        <time>2022-01-19T09:05:40Z</time>
      </trkpt>
      <trkpt lat="44.88432" lon="5.53482">
        <ele>1504.8</ele>
        <time>2022-01-19T09:05:41Z</time>
      </trkpt>
      <trkpt lat="44.88432" lon="5.53482">
        <ele>1504.8</ele>
        <time>2022-01-19T09:05:42Z</time>
      </trkpt>
      <trkpt lat="44.88432" lon="5.53482">
        <ele>1504.8</ele>
        <time>2022-01-19T09:05:43Z</time>
      </trkpt>
      <trkpt lat="44.88432" lon="5.53482">
        <ele>1504.8</ele>
        <time>2022-01-19T09:05:44Z</time>
      </trkpt>
      <trkpt lat="44.88432" lon="5.53482">
        <ele>1504.8</ele>
        <time>2022-01-19T09:05:45Z</time>
      </trkpt>
      <trkpt lat="44.88432" lon="5.53482">
        <ele>1504.8</ele>
        <time>2022-01-19T09:05:46Z</time>
      </trkpt>
      <trkpt lat="44.88432" lon="5.53482">
        <ele>1504.8</ele>
        <time>2022-01-19T09:05:47Z</time>
      </trkpt>
      <trkpt lat="44.88432" lon="5.53482">
        <ele>1504.8</ele>
        <time>2022-01-19T09:05:48Z</time>
      </trkpt>
      <trkpt lat="44.88432" lon="5.53482">
        <ele>1504.8</ele>
        <time>2022-01-19T09:05:49Z</time>
      </trkpt>
      <trkpt lat="44.88432" lon="5.53482">
        <ele>1504.8</ele>
        <time>2022-01-19T09:05:50Z</time>
      </trkpt>
      <trkpt lat="44.88432" lon="5.53482">
        <ele>1504.8</ele>
        <time>2022-01-19T09:05:51Z</time>
      </trkpt>
      <trkpt lat="44.88432" lon="5.53482">
        <ele>1504.8</ele>
        <time>2022-01-19T09:05:52Z</time>
      </trkpt>
      <trkpt lat="44.88432" lon="5.53482">
        <ele>1504.8</ele>
        <time>2022-01-19T09:05:53Z</time>
      </trkpt>
      <trkpt lat="44.88432" lon="5.53482">
        <ele>1504.8</ele>
        <time>2022-01-19T09:05:54Z</time>
      </trkpt>
      <trkpt lat="44.88432" lon="5.53482">
        <ele>1504.8</ele>
        <time>2022-01-19T09:05:55Z</time>
      </trkpt>
      <trkpt lat="44.88432" lon="5.53482">
        <ele>1504.8</ele>
        <time>2022-01-19T09:05:56Z</time>
      </trkpt>
      <trkpt lat="44.88432" lon="5.53482">
        <ele>1504.8</ele>
        <time>2022-01-19T09:05:57Z</time>
      </trkpt>
      <trkpt lat="44.88432" lon="5.53482">
        <ele>1504.8</ele>
        <time>2022-01-19T09:05:58Z</time>
      </trkpt>
      <trkpt lat="44.88432" lon="5.53482">
        <ele>1504.8</ele>
        <time>2022-01-19T09:05:59Z</time>
      </trkpt>
      <trkpt lat="44.88432" lon="5.53482">
        <ele>1504.8</ele>
        <time>2022-01-19T09:06:00Z</time>
      </trkpt>
      <trkpt lat="44.88432" lon="5.53482">
        <ele>1504.8</ele>
        <time>2022-01-19T09:06:01Z</time>
      </trkpt>
      <trkpt lat="44.88432" lon="5.53482">
        <ele>1504.8</ele>
        <time>2022-01-19T09:06:02Z</time>
      </trkpt>
      <trkpt lat="44.88432" lon="5.53482">
        <ele>1504.8</ele>
        <time>2022-01-19T09:06:03Z</time>
      </trkpt>
      <trkpt lat="44.88432" lon="5.53482">
        <ele>1504.8</ele>
        <time>2022-01-19T09:06:04Z</time>
      </trkpt>
      <trkpt lat="44.88432" lon="5.53482">
        <ele>1504.8</ele>
        <time>2022-01-19T09:06:05Z</time>
      </trkpt>
      <trkpt lat="44.88432" lon="5.53482">
        <ele>1504.8</ele>
        <time>2022-01-19T09:06:06Z</time>
      </trkpt>
      <trkpt lat="44.8843" lon="5.53484">
        <ele>1505.5</ele>
        <time>2022-01-19T09:06:07Z</time>
      </trkpt>
      <trkpt lat="44.8843" lon="5.53484">
        <ele>1505.6</ele>
        <time>2022-01-19T09:06:08Z</time>
      </trkpt>
      <trkpt lat="44.8843" lon="5.53484">
        <ele>1505.7</ele>
        <time>2022-01-19T09:06:09Z</time>
      </trkpt>
      <trkpt lat="44.88431" lon="5.53484">
        <ele>1505.9</ele>
        <time>2022-01-19T09:06:10Z</time>
      </trkpt>
      <trkpt lat="44.88431" lon="5.53484">
        <ele>1506</ele>
        <time>2022-01-19T09:06:11Z</time>
      </trkpt>
      <trkpt lat="44.88432" lon="5.53484">
        <ele>1506.1</ele>
        <time>2022-01-19T09:06:12Z</time>
      </trkpt>
      <trkpt lat="44.88432" lon="5.53484">
        <ele>1506.2</ele>
        <time>2022-01-19T09:06:13Z</time>
      </trkpt>
      <trkpt lat="44.88432" lon="5.53484">
        <ele>1506.4</ele>
        <time>2022-01-19T09:06:14Z</time>
      </trkpt>
      <trkpt lat="44.88433" lon="5.53483">
        <ele>1506.5</ele>
        <time>2022-01-19T09:06:15Z</time>
      </trkpt>
      <trkpt lat="44.88433" lon="5.53483">
        <ele>1506.4</ele>
        <time>2022-01-19T09:06:16Z</time>
      </trkpt>
      <trkpt lat="44.88433" lon="5.53483">
        <ele>1506.4</ele>
        <time>2022-01-19T09:06:17Z</time>
      </trkpt>
      <trkpt lat="44.88433" lon="5.53483">
        <ele>1506.4</ele>
        <time>2022-01-19T09:06:18Z</time>
      </trkpt>
      <trkpt lat="44.88433" lon="5.53483">
        <ele>1506.4</ele>
        <time>2022-01-19T09:06:19Z</time>
      </trkpt>
      <trkpt lat="44.88435" lon="5.5348">
        <ele>1507.5</ele>
        <time>2022-01-19T09:06:20Z</time>
      </trkpt>
      <trkpt lat="44.88435" lon="5.53479">
        <ele>1507.7</ele>
        <time>2022-01-19T09:06:21Z</time>
      </trkpt>
      <trkpt lat="44.88435" lon="5.53478">
        <ele>1507.9</ele>
        <time>2022-01-19T09:06:22Z</time>
      </trkpt>
      <trkpt lat="44.88436" lon="5.53476">
        <ele>1508.3</ele>
        <time>2022-01-19T09:06:23Z</time>
      </trkpt>
      <trkpt lat="44.88437" lon="5.53475">
        <ele>1508.6</ele>
        <time>2022-01-19T09:06:24Z</time>
      </trkpt>
      <trkpt lat="44.88437" lon="5.53474">
        <ele>1508.9</ele>
        <time>2022-01-19T09:06:25Z</time>
      </trkpt>
      <trkpt lat="44.88438" lon="5.53473">
        <ele>1509.3</ele>
        <time>2022-01-19T09:06:26Z</time>
      </trkpt>
      <trkpt lat="44.88438" lon="5.53472">
        <ele>1509.4</ele>
        <time>2022-01-19T09:06:27Z</time>
      </trkpt>
      <trkpt lat="44.88438" lon="5.53471">
        <ele>1509.7</ele>
        <time>2022-01-19T09:06:28Z</time>
      </trkpt>
      <trkpt lat="44.88437" lon="5.53468">
        <ele>1510.3</ele>
        <time>2022-01-19T09:06:29Z</time>
      </trkpt>
      <trkpt lat="44.88438" lon="5.53467">
        <ele>1510.6</ele>
        <time>2022-01-19T09:06:30Z</time>
      </trkpt>
      <trkpt lat="44.88438" lon="5.53465">
        <ele>1510.9</ele>
        <time>2022-01-19T09:06:31Z</time>
      </trkpt>
      <trkpt lat="44.88438" lon="5.53464">
        <ele>1511.3</ele>
        <time>2022-01-19T09:06:32Z</time>
      </trkpt>
      <trkpt lat="44.88438" lon="5.53462">
        <ele>1511.8</ele>
        <time>2022-01-19T09:06:33Z</time>
      </trkpt>
      <trkpt lat="44.88438" lon="5.5346">
        <ele>1512</ele>
        <time>2022-01-19T09:06:34Z</time>
      </trkpt>
      <trkpt lat="44.88437" lon="5.53459">
        <ele>1512.4</ele>
        <time>2022-01-19T09:06:35Z</time>
      </trkpt>
      <trkpt lat="44.88437" lon="5.53459">
        <ele>1512.6</ele>
        <time>2022-01-19T09:06:36Z</time>
      </trkpt>
      <trkpt lat="44.88437" lon="5.53458">
        <ele>1512.8</ele>
        <time>2022-01-19T09:06:37Z</time>
      </trkpt>
      <trkpt lat="44.88437" lon="5.53457">
        <ele>1513</ele>
        <time>2022-01-19T09:06:38Z</time>
      </trkpt>
      <trkpt lat="44.88437" lon="5.53456">
        <ele>1513.2</ele>
        <time>2022-01-19T09:06:39Z</time>
      </trkpt>
      <trkpt lat="44.88437" lon="5.53455">
        <ele>1513.3</ele>
        <time>2022-01-19T09:06:40Z</time>
      </trkpt>
      <trkpt lat="44.88437" lon="5.53455">
        <ele>1513.3</ele>
        <time>2022-01-19T09:06:41Z</time>
      </trkpt>
      <trkpt lat="44.88437" lon="5.53455">
        <ele>1513.3</ele>
        <time>2022-01-19T09:06:42Z</time>
      </trkpt>
      <trkpt lat="44.88435" lon="5.53452">
        <ele>1514.2</ele>
        <time>2022-01-19T09:06:43Z</time>
      </trkpt>
      <trkpt lat="44.88434" lon="5.53451">
        <ele>1514.7</ele>
        <time>2022-01-19T09:06:44Z</time>
      </trkpt>
      <trkpt lat="44.88433" lon="5.5345">
        <ele>1514.9</ele>
        <time>2022-01-19T09:06:45Z</time>
      </trkpt>
      <trkpt lat="44.88433" lon="5.53449">
        <ele>1515.1</ele>
        <time>2022-01-19T09:06:46Z</time>
      </trkpt>
      <trkpt lat="44.88433" lon="5.53449">
        <ele>1515.3</ele>
        <time>2022-01-19T09:06:47Z</time>
      </trkpt>
      <trkpt lat="44.88433" lon="5.53448">
        <ele>1515.5</ele>
        <time>2022-01-19T09:06:48Z</time>
      </trkpt>
      <trkpt lat="44.88432" lon="5.53447">
        <ele>1515.6</ele>
        <time>2022-01-19T09:06:49Z</time>
      </trkpt>
      <trkpt lat="44.88432" lon="5.53447">
        <ele>1515.8</ele>
        <time>2022-01-19T09:06:50Z</time>
      </trkpt>
      <trkpt lat="44.88432" lon="5.53446">
        <ele>1516</ele>
        <time>2022-01-19T09:06:51Z</time>
      </trkpt>
      <trkpt lat="44.88432" lon="5.53445">
        <ele>1516.2</ele>
        <time>2022-01-19T09:06:52Z</time>
      </trkpt>
      <trkpt lat="44.88431" lon="5.53445">
        <ele>1516.3</ele>
        <time>2022-01-19T09:06:53Z</time>
      </trkpt>
      <trkpt lat="44.88431" lon="5.53444">
        <ele>1516.5</ele>
        <time>2022-01-19T09:06:54Z</time>
      </trkpt>
      <trkpt lat="44.88431" lon="5.53443">
        <ele>1516.7</ele>
        <time>2022-01-19T09:06:55Z</time>
      </trkpt>
      <trkpt lat="44.88431" lon="5.53442">
        <ele>1516.9</ele>
        <time>2022-01-19T09:06:56Z</time>
      </trkpt>
      <trkpt lat="44.8843" lon="5.53442">
        <ele>1517.1</ele>
        <time>2022-01-19T09:06:57Z</time>
      </trkpt>
      <trkpt lat="44.8843" lon="5.53441">
        <ele>1517.3</ele>
        <time>2022-01-19T09:06:58Z</time>
      </trkpt>
      <trkpt lat="44.8843" lon="5.5344">
        <ele>1517.4</ele>
        <time>2022-01-19T09:06:59Z</time>
      </trkpt>
      <trkpt lat="44.8843" lon="5.5344">
        <ele>1517.6</ele>
        <time>2022-01-19T09:07:00Z</time>
      </trkpt>
      <trkpt lat="44.88429" lon="5.53439">
        <ele>1517.8</ele>
        <time>2022-01-19T09:07:01Z</time>
      </trkpt>
      <trkpt lat="44.88429" lon="5.53438">
        <ele>1518</ele>
        <time>2022-01-19T09:07:02Z</time>
      </trkpt>
      <trkpt lat="44.88429" lon="5.53437">
        <ele>1518.1</ele>
        <time>2022-01-19T09:07:03Z</time>
      </trkpt>
      <trkpt lat="44.88429" lon="5.53437">
        <ele>1518.3</ele>
        <time>2022-01-19T09:07:04Z</time>
      </trkpt>
      <trkpt lat="44.88428" lon="5.53436">
        <ele>1518.5</ele>
        <time>2022-01-19T09:07:05Z</time>
      </trkpt>
      <trkpt lat="44.88428" lon="5.53435">
        <ele>1518.7</ele>
        <time>2022-01-19T09:07:06Z</time>
      </trkpt>
      <trkpt lat="44.88428" lon="5.53435">
        <ele>1518.8</ele>
        <time>2022-01-19T09:07:07Z</time>
      </trkpt>
      <trkpt lat="44.88428" lon="5.53434">
        <ele>1519</ele>
        <time>2022-01-19T09:07:08Z</time>
      </trkpt>
      <trkpt lat="44.88427" lon="5.53433">
        <ele>1519.2</ele>
        <time>2022-01-19T09:07:09Z</time>
      </trkpt>
      <trkpt lat="44.88427" lon="5.53433">
        <ele>1519.4</ele>
        <time>2022-01-19T09:07:10Z</time>
      </trkpt>
      <trkpt lat="44.88427" lon="5.53432">
        <ele>1519.6</ele>
        <time>2022-01-19T09:07:11Z</time>
      </trkpt>
      <trkpt lat="44.88427" lon="5.53431">
        <ele>1519.7</ele>
        <time>2022-01-19T09:07:12Z</time>
      </trkpt>
      <trkpt lat="44.88426" lon="5.5343">
        <ele>1519.9</ele>
        <time>2022-01-19T09:07:13Z</time>
      </trkpt>
      <trkpt lat="44.88426" lon="5.5343">
        <ele>1520.1</ele>
        <time>2022-01-19T09:07:14Z</time>
      </trkpt>
      <trkpt lat="44.88426" lon="5.53429">
        <ele>1520.3</ele>
        <time>2022-01-19T09:07:15Z</time>
      </trkpt>
      <trkpt lat="44.88426" lon="5.53428">
        <ele>1520.4</ele>
        <time>2022-01-19T09:07:16Z</time>
      </trkpt>
      <trkpt lat="44.88425" lon="5.53428">
        <ele>1520.6</ele>
        <time>2022-01-19T09:07:17Z</time>
      </trkpt>
      <trkpt lat="44.88425" lon="5.53427">
        <ele>1520.8</ele>
        <time>2022-01-19T09:07:18Z</time>
      </trkpt>
      <trkpt lat="44.88425" lon="5.53426">
        <ele>1521</ele>
        <time>2022-01-19T09:07:19Z</time>
      </trkpt>
      <trkpt lat="44.88424" lon="5.53425">
        <ele>1521.4</ele>
        <time>2022-01-19T09:07:20Z</time>
      </trkpt>
      <trkpt lat="44.88424" lon="5.53425">
        <ele>1521.6</ele>
        <time>2022-01-19T09:07:21Z</time>
      </trkpt>
      <trkpt lat="44.88424" lon="5.53424">
        <ele>1521.8</ele>
        <time>2022-01-19T09:07:22Z</time>
      </trkpt>
      <trkpt lat="44.88424" lon="5.53423">
        <ele>1521.9</ele>
        <time>2022-01-19T09:07:23Z</time>
      </trkpt>
      <trkpt lat="44.88423" lon="5.53422">
        <ele>1522.1</ele>
        <time>2022-01-19T09:07:24Z</time>
      </trkpt>
      <trkpt lat="44.88423" lon="5.53422">
        <ele>1522.3</ele>
        <time>2022-01-19T09:07:25Z</time>
      </trkpt>
      <trkpt lat="44.88423" lon="5.53421">
        <ele>1522.5</ele>
        <time>2022-01-19T09:07:26Z</time>
      </trkpt>
      <trkpt lat="44.88423" lon="5.53421">
        <ele>1522.5</ele>
        <time>2022-01-19T09:07:27Z</time>
      </trkpt>
      <trkpt lat="44.88423" lon="5.53421">
        <ele>1522.5</ele>
        <time>2022-01-19T09:07:28Z</time>
      </trkpt>
      <trkpt lat="44.88423" lon="5.53421">
        <ele>1522.5</ele>
        <time>2022-01-19T09:07:29Z</time>
      </trkpt>
      <trkpt lat="44.88423" lon="5.53421">
        <ele>1522.5</ele>
        <time>2022-01-19T09:07:30Z</time>
      </trkpt>
      <trkpt lat="44.88423" lon="5.53421">
        <ele>1522.5</ele>
        <time>2022-01-19T09:07:31Z</time>
      </trkpt>
      <trkpt lat="44.88423" lon="5.53421">
        <ele>1522.5</ele>
        <time>2022-01-19T09:07:32Z</time>
      </trkpt>
      <trkpt lat="44.88423" lon="5.53421">
        <ele>1522.5</ele>
        <time>2022-01-19T09:07:33Z</time>
      </trkpt>
      <trkpt lat="44.88423" lon="5.53421">
        <ele>1522.5</ele>
        <time>2022-01-19T09:07:34Z</time>
      </trkpt>
      <trkpt lat="44.88423" lon="5.53421">
        <ele>1522.5</ele>
        <time>2022-01-19T09:07:35Z</time>
      </trkpt>
      <trkpt lat="44.88423" lon="5.53421">
        <ele>1522.5</ele>
        <time>2022-01-19T09:07:36Z</time>
      </trkpt>
      <trkpt lat="44.88423" lon="5.53421">
        <ele>1522.5</ele>
        <time>2022-01-19T09:07:37Z</time>
      </trkpt>
      <trkpt lat="44.88423" lon="5.53421">
        <ele>1522.5</ele>
        <time>2022-01-19T09:07:38Z</time>
      </trkpt>
      <trkpt lat="44.88423" lon="5.53421">
        <ele>1522.5</ele>
        <time>2022-01-19T09:07:39Z</time>
      </trkpt>
      <trkpt lat="44.88423" lon="5.53421">
        <ele>1522.5</ele>
        <time>2022-01-19T09:07:40Z</time>
      </trkpt>
      <trkpt lat="44.88423" lon="5.53421">
        <ele>1522.5</ele>
        <time>2022-01-19T09:07:41Z</time>
      </trkpt>
      <trkpt lat="44.88423" lon="5.53421">
        <ele>1522.5</ele>
        <time>2022-01-19T09:07:42Z</time>
      </trkpt>
      <trkpt lat="44.88418" lon="5.5341">
        <ele>1525</ele>
        <time>2022-01-19T09:07:43Z</time>
      </trkpt>
      <trkpt lat="44.88418" lon="5.53409">
        <ele>1525.3</ele>
        <time>2022-01-19T09:07:44Z</time>
      </trkpt>
      <trkpt lat="44.88418" lon="5.53408">
        <ele>1525.4</ele>
        <time>2022-01-19T09:07:45Z</time>
      </trkpt>
      <trkpt lat="44.88417" lon="5.53408">
        <ele>1525.6</ele>
        <time>2022-01-19T09:07:46Z</time>
      </trkpt>
      <trkpt lat="44.88417" lon="5.53408">
        <ele>1525.6</ele>
        <time>2022-01-19T09:07:47Z</time>
      </trkpt>
      <trkpt lat="44.88417" lon="5.53408">
        <ele>1525.6</ele>
        <time>2022-01-19T09:07:48Z</time>
      </trkpt>
      <trkpt lat="44.88417" lon="5.53408">
        <ele>1525.6</ele>
        <time>2022-01-19T09:07:49Z</time>
      </trkpt>
      <trkpt lat="44.88417" lon="5.53408">
        <ele>1525.6</ele>
        <time>2022-01-19T09:07:50Z</time>
      </trkpt>
      <trkpt lat="44.88416" lon="5.53405">
        <ele>1526.3</ele>
        <time>2022-01-19T09:07:51Z</time>
      </trkpt>
      <trkpt lat="44.88416" lon="5.53404">
        <ele>1526.5</ele>
        <time>2022-01-19T09:07:52Z</time>
      </trkpt>
      <trkpt lat="44.88416" lon="5.53403">
        <ele>1526.7</ele>
        <time>2022-01-19T09:07:53Z</time>
      </trkpt>
      <trkpt lat="44.88416" lon="5.53403">
        <ele>1526.8</ele>
        <time>2022-01-19T09:07:54Z</time>
      </trkpt>
      <trkpt lat="44.88416" lon="5.53403">
        <ele>1526.9</ele>
        <time>2022-01-19T09:07:55Z</time>
      </trkpt>
      <trkpt lat="44.88416" lon="5.53403">
        <ele>1526.9</ele>
        <time>2022-01-19T09:07:56Z</time>
      </trkpt>
      <trkpt lat="44.88416" lon="5.53403">
        <ele>1526.9</ele>
        <time>2022-01-19T09:07:57Z</time>
      </trkpt>
      <trkpt lat="44.88416" lon="5.53403">
        <ele>1526.9</ele>
        <time>2022-01-19T09:07:58Z</time>
      </trkpt>
      <trkpt lat="44.88416" lon="5.53403">
        <ele>1526.9</ele>
        <time>2022-01-19T09:07:59Z</time>
      </trkpt>
      <trkpt lat="44.88416" lon="5.53403">
        <ele>1526.9</ele>
        <time>2022-01-19T09:08:00Z</time>
      </trkpt>
      <trkpt lat="44.88416" lon="5.53403">
        <ele>1526.9</ele>
        <time>2022-01-19T09:08:01Z</time>
      </trkpt>
      <trkpt lat="44.88416" lon="5.53403">
        <ele>1526.9</ele>
        <time>2022-01-19T09:08:02Z</time>
      </trkpt>
      <trkpt lat="44.88416" lon="5.53403">
        <ele>1526.9</ele>
        <time>2022-01-19T09:08:03Z</time>
      </trkpt>
      <trkpt lat="44.88416" lon="5.53403">
        <ele>1526.9</ele>
        <time>2022-01-19T09:08:04Z</time>
      </trkpt>
      <trkpt lat="44.88416" lon="5.53403">
        <ele>1526.9</ele>
        <time>2022-01-19T09:08:05Z</time>
      </trkpt>
      <trkpt lat="44.88416" lon="5.53403">
        <ele>1526.9</ele>
        <time>2022-01-19T09:08:06Z</time>
      </trkpt>
      <trkpt lat="44.88416" lon="5.53403">
        <ele>1526.9</ele>
        <time>2022-01-19T09:08:07Z</time>
      </trkpt>
      <trkpt lat="44.88416" lon="5.53403">
        <ele>1526.9</ele>
        <time>2022-01-19T09:08:08Z</time>
      </trkpt>
      <trkpt lat="44.88416" lon="5.53403">
        <ele>1526.9</ele>
        <time>2022-01-19T09:08:09Z</time>
      </trkpt>
      <trkpt lat="44.88416" lon="5.53403">
        <ele>1526.9</ele>
        <time>2022-01-19T09:08:10Z</time>
      </trkpt>
      <trkpt lat="44.88416" lon="5.53403">
        <ele>1526.9</ele>
        <time>2022-01-19T09:08:11Z</time>
      </trkpt>
      <trkpt lat="44.88416" lon="5.53403">
        <ele>1526.9</ele>
        <time>2022-01-19T09:08:12Z</time>
      </trkpt>
      <trkpt lat="44.88416" lon="5.53403">
        <ele>1526.9</ele>
        <time>2022-01-19T09:08:13Z</time>
      </trkpt>
      <trkpt lat="44.88416" lon="5.53403">
        <ele>1526.9</ele>
        <time>2022-01-19T09:08:14Z</time>
      </trkpt>
      <trkpt lat="44.88416" lon="5.53403">
        <ele>1526.9</ele>
        <time>2022-01-19T09:08:15Z</time>
      </trkpt>
      <trkpt lat="44.88416" lon="5.53403">
        <ele>1526.9</ele>
        <time>2022-01-19T09:08:16Z</time>
      </trkpt>
      <trkpt lat="44.88416" lon="5.53403">
        <ele>1526.9</ele>
        <time>2022-01-19T09:08:17Z</time>
      </trkpt>
      <trkpt lat="44.88416" lon="5.53403">
        <ele>1526.9</ele>
        <time>2022-01-19T09:08:18Z</time>
      </trkpt>
      <trkpt lat="44.88416" lon="5.53403">
        <ele>1526.9</ele>
        <time>2022-01-19T09:08:19Z</time>
      </trkpt>
      <trkpt lat="44.88416" lon="5.53403">
        <ele>1526.9</ele>
        <time>2022-01-19T09:08:20Z</time>
      </trkpt>
      <trkpt lat="44.88416" lon="5.53403">
        <ele>1526.9</ele>
        <time>2022-01-19T09:08:21Z</time>
      </trkpt>
      <trkpt lat="44.88413" lon="5.53392">
        <ele>1529</ele>
        <time>2022-01-19T09:08:22Z</time>
      </trkpt>
      <trkpt lat="44.88413" lon="5.53391">
        <ele>1529.3</ele>
        <time>2022-01-19T09:08:23Z</time>
      </trkpt>
      <trkpt lat="44.88413" lon="5.5339">
        <ele>1529.5</ele>
        <time>2022-01-19T09:08:24Z</time>
      </trkpt>
      <trkpt lat="44.88412" lon="5.53389">
        <ele>1529.7</ele>
        <time>2022-01-19T09:08:25Z</time>
      </trkpt>
      <trkpt lat="44.88412" lon="5.53388">
        <ele>1529.9</ele>
        <time>2022-01-19T09:08:26Z</time>
      </trkpt>
      <trkpt lat="44.88411" lon="5.53387">
        <ele>1530.1</ele>
        <time>2022-01-19T09:08:27Z</time>
      </trkpt>
      <trkpt lat="44.88411" lon="5.53386">
        <ele>1530.3</ele>
        <time>2022-01-19T09:08:28Z</time>
      </trkpt>
      <trkpt lat="44.88411" lon="5.53385">
        <ele>1530.5</ele>
        <time>2022-01-19T09:08:29Z</time>
      </trkpt>
      <trkpt lat="44.8841" lon="5.53385">
        <ele>1530.6</ele>
        <time>2022-01-19T09:08:30Z</time>
      </trkpt>
      <trkpt lat="44.8841" lon="5.53385">
        <ele>1530.7</ele>
        <time>2022-01-19T09:08:31Z</time>
      </trkpt>
      <trkpt lat="44.8841" lon="5.53385">
        <ele>1530.7</ele>
        <time>2022-01-19T09:08:32Z</time>
      </trkpt>
      <trkpt lat="44.8841" lon="5.53385">
        <ele>1530.7</ele>
        <time>2022-01-19T09:08:33Z</time>
      </trkpt>
      <trkpt lat="44.8841" lon="5.53385">
        <ele>1530.7</ele>
        <time>2022-01-19T09:08:34Z</time>
      </trkpt>
      <trkpt lat="44.8841" lon="5.53385">
        <ele>1530.7</ele>
        <time>2022-01-19T09:08:35Z</time>
      </trkpt>
      <trkpt lat="44.8841" lon="5.53385">
        <ele>1530.7</ele>
        <time>2022-01-19T09:08:36Z</time>
      </trkpt>
      <trkpt lat="44.8841" lon="5.53385">
        <ele>1530.7</ele>
        <time>2022-01-19T09:08:37Z</time>
      </trkpt>
      <trkpt lat="44.8841" lon="5.53385">
        <ele>1530.7</ele>
        <time>2022-01-19T09:08:38Z</time>
      </trkpt>
      <trkpt lat="44.8841" lon="5.53385">
        <ele>1530.7</ele>
        <time>2022-01-19T09:08:39Z</time>
      </trkpt>
      <trkpt lat="44.88407" lon="5.53382">
        <ele>1531.5</ele>
        <time>2022-01-19T09:08:40Z</time>
      </trkpt>
      <trkpt lat="44.88407" lon="5.53382">
        <ele>1531.6</ele>
        <time>2022-01-19T09:08:41Z</time>
      </trkpt>
      <trkpt lat="44.88407" lon="5.53381">
        <ele>1531.7</ele>
        <time>2022-01-19T09:08:42Z</time>
      </trkpt>
      <trkpt lat="44.88407" lon="5.53381">
        <ele>1531.8</ele>
        <time>2022-01-19T09:08:43Z</time>
      </trkpt>
      <trkpt lat="44.88407" lon="5.53381">
        <ele>1531.8</ele>
        <time>2022-01-19T09:08:44Z</time>
      </trkpt>
      <trkpt lat="44.88407" lon="5.53381">
        <ele>1531.8</ele>
        <time>2022-01-19T09:08:45Z</time>
      </trkpt>
      <trkpt lat="44.88407" lon="5.53381">
        <ele>1531.8</ele>
        <time>2022-01-19T09:08:46Z</time>
      </trkpt>
      <trkpt lat="44.88407" lon="5.53381">
        <ele>1531.8</ele>
        <time>2022-01-19T09:08:47Z</time>
      </trkpt>
      <trkpt lat="44.88406" lon="5.53376">
        <ele>1532.6</ele>
        <time>2022-01-19T09:08:48Z</time>
      </trkpt>
      <trkpt lat="44.88406" lon="5.53375">
        <ele>1532.9</ele>
        <time>2022-01-19T09:08:49Z</time>
      </trkpt>
      <trkpt lat="44.88406" lon="5.53374">
        <ele>1533.1</ele>
        <time>2022-01-19T09:08:50Z</time>
      </trkpt>
      <trkpt lat="44.88405" lon="5.53373">
        <ele>1533.2</ele>
        <time>2022-01-19T09:08:51Z</time>
      </trkpt>
      <trkpt lat="44.88405" lon="5.53372">
        <ele>1533.4</ele>
        <time>2022-01-19T09:08:52Z</time>
      </trkpt>
      <trkpt lat="44.88405" lon="5.53372">
        <ele>1533.5</ele>
        <time>2022-01-19T09:08:53Z</time>
      </trkpt>
      <trkpt lat="44.88405" lon="5.53371">
        <ele>1533.7</ele>
        <time>2022-01-19T09:08:54Z</time>
      </trkpt>
      <trkpt lat="44.88405" lon="5.5337">
        <ele>1533.8</ele>
        <time>2022-01-19T09:08:55Z</time>
      </trkpt>
      <trkpt lat="44.88404" lon="5.53369">
        <ele>1534</ele>
        <time>2022-01-19T09:08:56Z</time>
      </trkpt>
      <trkpt lat="44.88404" lon="5.53368">
        <ele>1534.1</ele>
        <time>2022-01-19T09:08:57Z</time>
      </trkpt>
      <trkpt lat="44.88404" lon="5.53367">
        <ele>1534.3</ele>
        <time>2022-01-19T09:08:58Z</time>
      </trkpt>
      <trkpt lat="44.88404" lon="5.53367">
        <ele>1534.4</ele>
        <time>2022-01-19T09:08:59Z</time>
      </trkpt>
      <trkpt lat="44.88404" lon="5.53366">
        <ele>1534.6</ele>
        <time>2022-01-19T09:09:00Z</time>
      </trkpt>
      <trkpt lat="44.88403" lon="5.53365">
        <ele>1534.7</ele>
        <time>2022-01-19T09:09:01Z</time>
      </trkpt>
      <trkpt lat="44.88403" lon="5.53364">
        <ele>1534.9</ele>
        <time>2022-01-19T09:09:02Z</time>
      </trkpt>
      <trkpt lat="44.88403" lon="5.53363">
        <ele>1535</ele>
        <time>2022-01-19T09:09:03Z</time>
      </trkpt>
      <trkpt lat="44.88403" lon="5.53363">
        <ele>1535.2</ele>
        <time>2022-01-19T09:09:04Z</time>
      </trkpt>
      <trkpt lat="44.88403" lon="5.53362">
        <ele>1535.4</ele>
        <time>2022-01-19T09:09:05Z</time>
      </trkpt>
      <trkpt lat="44.88402" lon="5.53361">
        <ele>1535.5</ele>
        <time>2022-01-19T09:09:06Z</time>
      </trkpt>
      <trkpt lat="44.88402" lon="5.5336">
        <ele>1535.7</ele>
        <time>2022-01-19T09:09:07Z</time>
      </trkpt>
      <trkpt lat="44.88402" lon="5.53359">
        <ele>1535.8</ele>
        <time>2022-01-19T09:09:08Z</time>
      </trkpt>
      <trkpt lat="44.88402" lon="5.53359">
        <ele>1536</ele>
        <time>2022-01-19T09:09:09Z</time>
      </trkpt>
      <trkpt lat="44.88402" lon="5.53358">
        <ele>1536.1</ele>
        <time>2022-01-19T09:09:10Z</time>
      </trkpt>
      <trkpt lat="44.88402" lon="5.53357">
        <ele>1536.3</ele>
        <time>2022-01-19T09:09:11Z</time>
      </trkpt>
      <trkpt lat="44.88401" lon="5.53356">
        <ele>1536.4</ele>
        <time>2022-01-19T09:09:12Z</time>
      </trkpt>
      <trkpt lat="44.88401" lon="5.53355">
        <ele>1536.6</ele>
        <time>2022-01-19T09:09:13Z</time>
      </trkpt>
      <trkpt lat="44.88401" lon="5.53354">
        <ele>1536.7</ele>
        <time>2022-01-19T09:09:14Z</time>
      </trkpt>
      <trkpt lat="44.88401" lon="5.53354">
        <ele>1536.9</ele>
        <time>2022-01-19T09:09:15Z</time>
      </trkpt>
      <trkpt lat="44.88401" lon="5.53353">
        <ele>1537</ele>
        <time>2022-01-19T09:09:16Z</time>
      </trkpt>
      <trkpt lat="44.884" lon="5.53352">
        <ele>1537.2</ele>
        <time>2022-01-19T09:09:17Z</time>
      </trkpt>
      <trkpt lat="44.884" lon="5.53351">
        <ele>1537.3</ele>
        <time>2022-01-19T09:09:18Z</time>
      </trkpt>
      <trkpt lat="44.884" lon="5.5335">
        <ele>1537.5</ele>
        <time>2022-01-19T09:09:19Z</time>
      </trkpt>
      <trkpt lat="44.884" lon="5.5335">
        <ele>1537.6</ele>
        <time>2022-01-19T09:09:20Z</time>
      </trkpt>
      <trkpt lat="44.884" lon="5.53349">
        <ele>1537.8</ele>
        <time>2022-01-19T09:09:21Z</time>
      </trkpt>
      <trkpt lat="44.88399" lon="5.53348">
        <ele>1538</ele>
        <time>2022-01-19T09:09:22Z</time>
      </trkpt>
      <trkpt lat="44.88399" lon="5.53347">
        <ele>1538.1</ele>
        <time>2022-01-19T09:09:23Z</time>
      </trkpt>
      <trkpt lat="44.88399" lon="5.53346">
        <ele>1538.3</ele>
        <time>2022-01-19T09:09:24Z</time>
      </trkpt>
      <trkpt lat="44.88399" lon="5.53346">
        <ele>1538.4</ele>
        <time>2022-01-19T09:09:25Z</time>
      </trkpt>
      <trkpt lat="44.88399" lon="5.53345">
        <ele>1538.6</ele>
        <time>2022-01-19T09:09:26Z</time>
      </trkpt>
      <trkpt lat="44.88398" lon="5.53344">
        <ele>1538.8</ele>
        <time>2022-01-19T09:09:27Z</time>
      </trkpt>
      <trkpt lat="44.88398" lon="5.53343">
        <ele>1538.9</ele>
        <time>2022-01-19T09:09:28Z</time>
      </trkpt>
      <trkpt lat="44.88398" lon="5.53342">
        <ele>1539.1</ele>
        <time>2022-01-19T09:09:29Z</time>
      </trkpt>
      <trkpt lat="44.88398" lon="5.53341">
        <ele>1539.3</ele>
        <time>2022-01-19T09:09:30Z</time>
      </trkpt>
      <trkpt lat="44.88398" lon="5.53341">
        <ele>1539.4</ele>
        <time>2022-01-19T09:09:31Z</time>
      </trkpt>
      <trkpt lat="44.88397" lon="5.5334">
        <ele>1539.6</ele>
        <time>2022-01-19T09:09:32Z</time>
      </trkpt>
      <trkpt lat="44.88397" lon="5.53339">
        <ele>1539.7</ele>
        <time>2022-01-19T09:09:33Z</time>
      </trkpt>
      <trkpt lat="44.88397" lon="5.53338">
        <ele>1539.9</ele>
        <time>2022-01-19T09:09:34Z</time>
      </trkpt>
      <trkpt lat="44.88397" lon="5.53337">
        <ele>1540</ele>
        <time>2022-01-19T09:09:35Z</time>
      </trkpt>
      <trkpt lat="44.88397" lon="5.53337">
        <ele>1540.2</ele>
        <time>2022-01-19T09:09:36Z</time>
      </trkpt>
      <trkpt lat="44.88396" lon="5.53336">
        <ele>1540.4</ele>
        <time>2022-01-19T09:09:37Z</time>
      </trkpt>
      <trkpt lat="44.88396" lon="5.53335">
        <ele>1540.5</ele>
        <time>2022-01-19T09:09:38Z</time>
      </trkpt>
      <trkpt lat="44.88396" lon="5.53334">
        <ele>1540.7</ele>
        <time>2022-01-19T09:09:39Z</time>
      </trkpt>
      <trkpt lat="44.88396" lon="5.53333">
        <ele>1540.8</ele>
        <time>2022-01-19T09:09:40Z</time>
      </trkpt>
      <trkpt lat="44.88396" lon="5.53333">
        <ele>1541</ele>
        <time>2022-01-19T09:09:41Z</time>
      </trkpt>
      <trkpt lat="44.88395" lon="5.53332">
        <ele>1541.2</ele>
        <time>2022-01-19T09:09:42Z</time>
      </trkpt>
      <trkpt lat="44.88395" lon="5.53331">
        <ele>1541.3</ele>
        <time>2022-01-19T09:09:43Z</time>
      </trkpt>
      <trkpt lat="44.88395" lon="5.5333">
        <ele>1541.5</ele>
        <time>2022-01-19T09:09:44Z</time>
      </trkpt>
      <trkpt lat="44.88395" lon="5.53329">
        <ele>1541.6</ele>
        <time>2022-01-19T09:09:45Z</time>
      </trkpt>
      <trkpt lat="44.88395" lon="5.53329">
        <ele>1541.8</ele>
        <time>2022-01-19T09:09:46Z</time>
      </trkpt>
      <trkpt lat="44.88394" lon="5.53328">
        <ele>1542</ele>
        <time>2022-01-19T09:09:47Z</time>
      </trkpt>
      <trkpt lat="44.88394" lon="5.53327">
        <ele>1542.2</ele>
        <time>2022-01-19T09:09:48Z</time>
      </trkpt>
      <trkpt lat="44.88394" lon="5.53326">
        <ele>1542.3</ele>
        <time>2022-01-19T09:09:49Z</time>
      </trkpt>
      <trkpt lat="44.88394" lon="5.53325">
        <ele>1542.5</ele>
        <time>2022-01-19T09:09:50Z</time>
      </trkpt>
      <trkpt lat="44.88394" lon="5.53324">
        <ele>1542.6</ele>
        <time>2022-01-19T09:09:51Z</time>
      </trkpt>
      <trkpt lat="44.88393" lon="5.53324">
        <ele>1542.8</ele>
        <time>2022-01-19T09:09:52Z</time>
      </trkpt>
      <trkpt lat="44.88393" lon="5.53323">
        <ele>1543</ele>
        <time>2022-01-19T09:09:53Z</time>
      </trkpt>
      <trkpt lat="44.88393" lon="5.53322">
        <ele>1543.1</ele>
        <time>2022-01-19T09:09:54Z</time>
      </trkpt>
      <trkpt lat="44.88393" lon="5.53321">
        <ele>1543.3</ele>
        <time>2022-01-19T09:09:55Z</time>
      </trkpt>
      <trkpt lat="44.88393" lon="5.5332">
        <ele>1543.5</ele>
        <time>2022-01-19T09:09:56Z</time>
      </trkpt>
      <trkpt lat="44.88392" lon="5.5332">
        <ele>1543.6</ele>
        <time>2022-01-19T09:09:57Z</time>
      </trkpt>
      <trkpt lat="44.88392" lon="5.53319">
        <ele>1543.8</ele>
        <time>2022-01-19T09:09:58Z</time>
      </trkpt>
      <trkpt lat="44.88392" lon="5.53318">
        <ele>1544</ele>
        <time>2022-01-19T09:09:59Z</time>
      </trkpt>
      <trkpt lat="44.88392" lon="5.53317">
        <ele>1544.1</ele>
        <time>2022-01-19T09:10:00Z</time>
      </trkpt>
      <trkpt lat="44.88392" lon="5.53316">
        <ele>1544.3</ele>
        <time>2022-01-19T09:10:01Z</time>
      </trkpt>
      <trkpt lat="44.88391" lon="5.53316">
        <ele>1544.5</ele>
        <time>2022-01-19T09:10:02Z</time>
      </trkpt>
      <trkpt lat="44.88391" lon="5.53315">
        <ele>1544.7</ele>
        <time>2022-01-19T09:10:03Z</time>
      </trkpt>
      <trkpt lat="44.88391" lon="5.53314">
        <ele>1544.8</ele>
        <time>2022-01-19T09:10:04Z</time>
      </trkpt>
      <trkpt lat="44.88391" lon="5.53313">
        <ele>1545</ele>
        <time>2022-01-19T09:10:05Z</time>
      </trkpt>
      <trkpt lat="44.88391" lon="5.53312">
        <ele>1545.2</ele>
        <time>2022-01-19T09:10:06Z</time>
      </trkpt>
      <trkpt lat="44.8839" lon="5.53311">
        <ele>1545.4</ele>
        <time>2022-01-19T09:10:07Z</time>
      </trkpt>
      <trkpt lat="44.88391" lon="5.5331">
        <ele>1545.6</ele>
        <time>2022-01-19T09:10:08Z</time>
      </trkpt>
      <trkpt lat="44.88391" lon="5.5331">
        <ele>1545.8</ele>
        <time>2022-01-19T09:10:09Z</time>
      </trkpt>
      <trkpt lat="44.88392" lon="5.5331">
        <ele>1545.9</ele>
        <time>2022-01-19T09:10:10Z</time>
      </trkpt>
      <trkpt lat="44.88392" lon="5.5331">
        <ele>1546</ele>
        <time>2022-01-19T09:10:11Z</time>
      </trkpt>
      <trkpt lat="44.88392" lon="5.5331">
        <ele>1546</ele>
        <time>2022-01-19T09:10:12Z</time>
      </trkpt>
      <trkpt lat="44.88392" lon="5.5331">
        <ele>1546.1</ele>
        <time>2022-01-19T09:10:13Z</time>
      </trkpt>
      <trkpt lat="44.88393" lon="5.53309">
        <ele>1546.3</ele>
        <time>2022-01-19T09:10:14Z</time>
      </trkpt>
      <trkpt lat="44.88393" lon="5.5331">
        <ele>1546.5</ele>
        <time>2022-01-19T09:10:15Z</time>
      </trkpt>
      <trkpt lat="44.88394" lon="5.53309">
        <ele>1546.6</ele>
        <time>2022-01-19T09:10:16Z</time>
      </trkpt>
      <trkpt lat="44.88395" lon="5.5331">
        <ele>1547</ele>
        <time>2022-01-19T09:10:17Z</time>
      </trkpt>
      <trkpt lat="44.88396" lon="5.5331">
        <ele>1547.3</ele>
        <time>2022-01-19T09:10:18Z</time>
      </trkpt>
      <trkpt lat="44.88396" lon="5.53311">
        <ele>1547.5</ele>
        <time>2022-01-19T09:10:19Z</time>
      </trkpt>
      <trkpt lat="44.88398" lon="5.53311">
        <ele>1547.9</ele>
        <time>2022-01-19T09:10:20Z</time>
      </trkpt>
      <trkpt lat="44.88399" lon="5.53311">
        <ele>1548.1</ele>
        <time>2022-01-19T09:10:21Z</time>
      </trkpt>
      <trkpt lat="44.884" lon="5.53311">
        <ele>1548.4</ele>
        <time>2022-01-19T09:10:22Z</time>
      </trkpt>
      <trkpt lat="44.884" lon="5.53311">
        <ele>1548.5</ele>
        <time>2022-01-19T09:10:23Z</time>
      </trkpt>
      <trkpt lat="44.884" lon="5.53311">
        <ele>1548.5</ele>
        <time>2022-01-19T09:10:24Z</time>
      </trkpt>
      <trkpt lat="44.884" lon="5.53311">
        <ele>1548.6</ele>
        <time>2022-01-19T09:10:25Z</time>
      </trkpt>
      <trkpt lat="44.884" lon="5.53311">
        <ele>1548.6</ele>
        <time>2022-01-19T09:10:26Z</time>
      </trkpt>
      <trkpt lat="44.884" lon="5.53311">
        <ele>1548.6</ele>
        <time>2022-01-19T09:10:27Z</time>
      </trkpt>
      <trkpt lat="44.884" lon="5.53311">
        <ele>1548.6</ele>
        <time>2022-01-19T09:10:28Z</time>
      </trkpt>
      <trkpt lat="44.884" lon="5.53311">
        <ele>1548.6</ele>
        <time>2022-01-19T09:10:29Z</time>
      </trkpt>
      <trkpt lat="44.88401" lon="5.5331">
        <ele>1548.9</ele>
        <time>2022-01-19T09:10:30Z</time>
      </trkpt>
      <trkpt lat="44.88402" lon="5.5331">
        <ele>1549.1</ele>
        <time>2022-01-19T09:10:31Z</time>
      </trkpt>
      <trkpt lat="44.88402" lon="5.53309">
        <ele>1549.3</ele>
        <time>2022-01-19T09:10:32Z</time>
      </trkpt>
      <trkpt lat="44.88402" lon="5.53308">
        <ele>1549.5</ele>
        <time>2022-01-19T09:10:33Z</time>
      </trkpt>
      <trkpt lat="44.88402" lon="5.53308">
        <ele>1549.6</ele>
        <time>2022-01-19T09:10:34Z</time>
      </trkpt>
      <trkpt lat="44.88403" lon="5.53307">
        <ele>1549.8</ele>
        <time>2022-01-19T09:10:35Z</time>
      </trkpt>
      <trkpt lat="44.88403" lon="5.53306">
        <ele>1550</ele>
        <time>2022-01-19T09:10:36Z</time>
      </trkpt>
      <trkpt lat="44.88403" lon="5.53306">
        <ele>1550.1</ele>
        <time>2022-01-19T09:10:37Z</time>
      </trkpt>
      <trkpt lat="44.88404" lon="5.53306">
        <ele>1550.3</ele>
        <time>2022-01-19T09:10:38Z</time>
      </trkpt>
      <trkpt lat="44.88405" lon="5.53305">
        <ele>1550.6</ele>
        <time>2022-01-19T09:10:39Z</time>
      </trkpt>
      <trkpt lat="44.88405" lon="5.53304">
        <ele>1550.8</ele>
        <time>2022-01-19T09:10:40Z</time>
      </trkpt>
      <trkpt lat="44.88406" lon="5.53304">
        <ele>1550.9</ele>
        <time>2022-01-19T09:10:41Z</time>
      </trkpt>
      <trkpt lat="44.88406" lon="5.53303">
        <ele>1551.1</ele>
        <time>2022-01-19T09:10:42Z</time>
      </trkpt>
      <trkpt lat="44.88405" lon="5.53302">
        <ele>1551.3</ele>
        <time>2022-01-19T09:10:43Z</time>
      </trkpt>
      <trkpt lat="44.88405" lon="5.53301">
        <ele>1551.4</ele>
        <time>2022-01-19T09:10:44Z</time>
      </trkpt>
      <trkpt lat="44.88405" lon="5.53301">
        <ele>1551.5</ele>
        <time>2022-01-19T09:10:45Z</time>
      </trkpt>
      <trkpt lat="44.88404" lon="5.533">
        <ele>1551.8</ele>
        <time>2022-01-19T09:10:46Z</time>
      </trkpt>
      <trkpt lat="44.88404" lon="5.53299">
        <ele>1552</ele>
        <time>2022-01-19T09:10:47Z</time>
      </trkpt>
      <trkpt lat="44.88404" lon="5.53298">
        <ele>1552.1</ele>
        <time>2022-01-19T09:10:48Z</time>
      </trkpt>
      <trkpt lat="44.88404" lon="5.53298">
        <ele>1552.2</ele>
        <time>2022-01-19T09:10:49Z</time>
      </trkpt>
      <trkpt lat="44.88404" lon="5.53298">
        <ele>1552.3</ele>
        <time>2022-01-19T09:10:50Z</time>
      </trkpt>
      <trkpt lat="44.88406" lon="5.53298">
        <ele>1552.7</ele>
        <time>2022-01-19T09:10:51Z</time>
      </trkpt>
      <trkpt lat="44.88406" lon="5.53298">
        <ele>1552.7</ele>
        <time>2022-01-19T09:10:52Z</time>
      </trkpt>
      <trkpt lat="44.88407" lon="5.53297">
        <ele>1553.3</ele>
        <time>2022-01-19T09:10:53Z</time>
      </trkpt>
      <trkpt lat="44.88406" lon="5.53295">
        <ele>1553.6</ele>
        <time>2022-01-19T09:10:54Z</time>
      </trkpt>
      <trkpt lat="44.88406" lon="5.53294">
        <ele>1553.9</ele>
        <time>2022-01-19T09:10:55Z</time>
      </trkpt>
      <trkpt lat="44.88406" lon="5.53293">
        <ele>1554.1</ele>
        <time>2022-01-19T09:10:56Z</time>
      </trkpt>
      <trkpt lat="44.88406" lon="5.53292">
        <ele>1554.2</ele>
        <time>2022-01-19T09:10:57Z</time>
      </trkpt>
      <trkpt lat="44.88406" lon="5.53291">
        <ele>1554.4</ele>
        <time>2022-01-19T09:10:58Z</time>
      </trkpt>
      <trkpt lat="44.88406" lon="5.5329">
        <ele>1554.6</ele>
        <time>2022-01-19T09:10:59Z</time>
      </trkpt>
      <trkpt lat="44.88405" lon="5.53288">
        <ele>1555</ele>
        <time>2022-01-19T09:11:00Z</time>
      </trkpt>
      <trkpt lat="44.88405" lon="5.53287">
        <ele>1555.2</ele>
        <time>2022-01-19T09:11:01Z</time>
      </trkpt>
      <trkpt lat="44.88405" lon="5.53286">
        <ele>1555.5</ele>
        <time>2022-01-19T09:11:02Z</time>
      </trkpt>
      <trkpt lat="44.88404" lon="5.53285">
        <ele>1555.7</ele>
        <time>2022-01-19T09:11:03Z</time>
      </trkpt>
      <trkpt lat="44.88404" lon="5.53283">
        <ele>1556</ele>
        <time>2022-01-19T09:11:04Z</time>
      </trkpt>
      <trkpt lat="44.88403" lon="5.53282">
        <ele>1556.2</ele>
        <time>2022-01-19T09:11:05Z</time>
      </trkpt>
      <trkpt lat="44.88403" lon="5.53281">
        <ele>1556.4</ele>
        <time>2022-01-19T09:11:06Z</time>
      </trkpt>
      <trkpt lat="44.88403" lon="5.5328">
        <ele>1556.5</ele>
        <time>2022-01-19T09:11:07Z</time>
      </trkpt>
      <trkpt lat="44.88403" lon="5.53279">
        <ele>1556.7</ele>
        <time>2022-01-19T09:11:08Z</time>
      </trkpt>
      <trkpt lat="44.88403" lon="5.53278">
        <ele>1556.9</ele>
        <time>2022-01-19T09:11:09Z</time>
      </trkpt>
      <trkpt lat="44.88403" lon="5.53277">
        <ele>1557.1</ele>
        <time>2022-01-19T09:11:10Z</time>
      </trkpt>
      <trkpt lat="44.88403" lon="5.53276">
        <ele>1557.2</ele>
        <time>2022-01-19T09:11:11Z</time>
      </trkpt>
      <trkpt lat="44.88403" lon="5.53276">
        <ele>1557.4</ele>
        <time>2022-01-19T09:11:12Z</time>
      </trkpt>
      <trkpt lat="44.88403" lon="5.53275">
        <ele>1557.5</ele>
        <time>2022-01-19T09:11:13Z</time>
      </trkpt>
      <trkpt lat="44.88403" lon="5.53274">
        <ele>1557.6</ele>
        <time>2022-01-19T09:11:14Z</time>
      </trkpt>
      <trkpt lat="44.88402" lon="5.53274">
        <ele>1557.8</ele>
        <time>2022-01-19T09:11:15Z</time>
      </trkpt>
      <trkpt lat="44.88402" lon="5.53273">
        <ele>1557.9</ele>
        <time>2022-01-19T09:11:16Z</time>
      </trkpt>
      <trkpt lat="44.88402" lon="5.53272">
        <ele>1558.1</ele>
        <time>2022-01-19T09:11:17Z</time>
      </trkpt>
      <trkpt lat="44.88402" lon="5.53271">
        <ele>1558.3</ele>
        <time>2022-01-19T09:11:18Z</time>
      </trkpt>
      <trkpt lat="44.88402" lon="5.5327">
        <ele>1558.5</ele>
        <time>2022-01-19T09:11:19Z</time>
      </trkpt>
      <trkpt lat="44.88402" lon="5.53269">
        <ele>1558.6</ele>
        <time>2022-01-19T09:11:20Z</time>
      </trkpt>
      <trkpt lat="44.88402" lon="5.53268">
        <ele>1558.8</ele>
        <time>2022-01-19T09:11:21Z</time>
      </trkpt>
      <trkpt lat="44.88403" lon="5.53267">
        <ele>1558.9</ele>
        <time>2022-01-19T09:11:22Z</time>
      </trkpt>
      <trkpt lat="44.88402" lon="5.53266">
        <ele>1559.1</ele>
        <time>2022-01-19T09:11:23Z</time>
      </trkpt>
      <trkpt lat="44.88403" lon="5.53266">
        <ele>1559.2</ele>
        <time>2022-01-19T09:11:24Z</time>
      </trkpt>
      <trkpt lat="44.88403" lon="5.53265">
        <ele>1559.5</ele>
        <time>2022-01-19T09:11:25Z</time>
      </trkpt>
      <trkpt lat="44.88403" lon="5.53265">
        <ele>1559.5</ele>
        <time>2022-01-19T09:11:26Z</time>
      </trkpt>
      <trkpt lat="44.88403" lon="5.53265">
        <ele>1559.5</ele>
        <time>2022-01-19T09:11:27Z</time>
      </trkpt>
      <trkpt lat="44.88404" lon="5.53263">
        <ele>1559.8</ele>
        <time>2022-01-19T09:11:28Z</time>
      </trkpt>
      <trkpt lat="44.88404" lon="5.53262">
        <ele>1560</ele>
        <time>2022-01-19T09:11:29Z</time>
      </trkpt>
      <trkpt lat="44.88404" lon="5.53261">
        <ele>1560.2</ele>
        <time>2022-01-19T09:11:30Z</time>
      </trkpt>
      <trkpt lat="44.88404" lon="5.5326">
        <ele>1560.4</ele>
        <time>2022-01-19T09:11:31Z</time>
      </trkpt>
      <trkpt lat="44.88403" lon="5.5326">
        <ele>1560.5</ele>
        <time>2022-01-19T09:11:32Z</time>
      </trkpt>
      <trkpt lat="44.88403" lon="5.53259">
        <ele>1560.7</ele>
        <time>2022-01-19T09:11:33Z</time>
      </trkpt>
      <trkpt lat="44.88402" lon="5.53258">
        <ele>1560.9</ele>
        <time>2022-01-19T09:11:34Z</time>
      </trkpt>
      <trkpt lat="44.88402" lon="5.53258">
        <ele>1560.9</ele>
        <time>2022-01-19T09:11:35Z</time>
      </trkpt>
      <trkpt lat="44.88402" lon="5.53257">
        <ele>1561.1</ele>
        <time>2022-01-19T09:11:36Z</time>
      </trkpt>
      <trkpt lat="44.88401" lon="5.53257">
        <ele>1561.3</ele>
        <time>2022-01-19T09:11:37Z</time>
      </trkpt>
      <trkpt lat="44.88401" lon="5.53256">
        <ele>1561.4</ele>
        <time>2022-01-19T09:11:38Z</time>
      </trkpt>
      <trkpt lat="44.88401" lon="5.53256">
        <ele>1561.5</ele>
        <time>2022-01-19T09:11:39Z</time>
      </trkpt>
      <trkpt lat="44.88401" lon="5.53256">
        <ele>1561.6</ele>
        <time>2022-01-19T09:11:40Z</time>
      </trkpt>
      <trkpt lat="44.88401" lon="5.53255">
        <ele>1561.7</ele>
        <time>2022-01-19T09:11:41Z</time>
      </trkpt>
      <trkpt lat="44.88401" lon="5.53255">
        <ele>1561.7</ele>
        <time>2022-01-19T09:11:42Z</time>
      </trkpt>
      <trkpt lat="44.88401" lon="5.53255">
        <ele>1561.7</ele>
        <time>2022-01-19T09:11:43Z</time>
      </trkpt>
      <trkpt lat="44.88401" lon="5.53255">
        <ele>1561.7</ele>
        <time>2022-01-19T09:11:44Z</time>
      </trkpt>
      <trkpt lat="44.88401" lon="5.53255">
        <ele>1561.7</ele>
        <time>2022-01-19T09:11:45Z</time>
      </trkpt>
      <trkpt lat="44.88401" lon="5.53255">
        <ele>1561.7</ele>
        <time>2022-01-19T09:11:46Z</time>
      </trkpt>
      <trkpt lat="44.88401" lon="5.53255">
        <ele>1561.7</ele>
        <time>2022-01-19T09:11:47Z</time>
      </trkpt>
      <trkpt lat="44.88401" lon="5.53255">
        <ele>1561.7</ele>
        <time>2022-01-19T09:11:48Z</time>
      </trkpt>
      <trkpt lat="44.88401" lon="5.53255">
        <ele>1561.7</ele>
        <time>2022-01-19T09:11:49Z</time>
      </trkpt>
      <trkpt lat="44.88401" lon="5.53255">
        <ele>1561.7</ele>
        <time>2022-01-19T09:11:50Z</time>
      </trkpt>
      <trkpt lat="44.88401" lon="5.53255">
        <ele>1561.7</ele>
        <time>2022-01-19T09:11:51Z</time>
      </trkpt>
      <trkpt lat="44.88401" lon="5.53255">
        <ele>1561.7</ele>
        <time>2022-01-19T09:11:52Z</time>
      </trkpt>
      <trkpt lat="44.88401" lon="5.53255">
        <ele>1561.7</ele>
        <time>2022-01-19T09:11:53Z</time>
      </trkpt>
      <trkpt lat="44.88402" lon="5.53247">
        <ele>1563.2</ele>
        <time>2022-01-19T09:11:54Z</time>
      </trkpt>
      <trkpt lat="44.88402" lon="5.53246">
        <ele>1563.5</ele>
        <time>2022-01-19T09:11:55Z</time>
      </trkpt>
      <trkpt lat="44.88402" lon="5.53246">
        <ele>1563.6</ele>
        <time>2022-01-19T09:11:56Z</time>
      </trkpt>
      <trkpt lat="44.88402" lon="5.53245">
        <ele>1563.7</ele>
        <time>2022-01-19T09:11:57Z</time>
      </trkpt>
      <trkpt lat="44.88403" lon="5.53244">
        <ele>1564</ele>
        <time>2022-01-19T09:11:58Z</time>
      </trkpt>
      <trkpt lat="44.88403" lon="5.53244">
        <ele>1564.1</ele>
        <time>2022-01-19T09:11:59Z</time>
      </trkpt>
      <trkpt lat="44.88403" lon="5.53244">
        <ele>1564.1</ele>
        <time>2022-01-19T09:12:00Z</time>
      </trkpt>
      <trkpt lat="44.88404" lon="5.53242">
        <ele>1564.5</ele>
        <time>2022-01-19T09:12:01Z</time>
      </trkpt>
      <trkpt lat="44.88404" lon="5.53241">
        <ele>1564.7</ele>
        <time>2022-01-19T09:12:02Z</time>
      </trkpt>
      <trkpt lat="44.88404" lon="5.53241">
        <ele>1564.8</ele>
        <time>2022-01-19T09:12:03Z</time>
      </trkpt>
      <trkpt lat="44.88404" lon="5.5324">
        <ele>1564.9</ele>
        <time>2022-01-19T09:12:04Z</time>
      </trkpt>
      <trkpt lat="44.88404" lon="5.53239">
        <ele>1565.1</ele>
        <time>2022-01-19T09:12:05Z</time>
      </trkpt>
      <trkpt lat="44.88404" lon="5.53239">
        <ele>1565.1</ele>
        <time>2022-01-19T09:12:06Z</time>
      </trkpt>
      <trkpt lat="44.88403" lon="5.53239">
        <ele>1565.3</ele>
        <time>2022-01-19T09:12:07Z</time>
      </trkpt>
      <trkpt lat="44.88403" lon="5.53239">
        <ele>1565.5</ele>
        <time>2022-01-19T09:12:08Z</time>
      </trkpt>
      <trkpt lat="44.88403" lon="5.53239">
        <ele>1565.6</ele>
        <time>2022-01-19T09:12:09Z</time>
      </trkpt>
      <trkpt lat="44.88402" lon="5.53238">
        <ele>1565.8</ele>
        <time>2022-01-19T09:12:10Z</time>
      </trkpt>
      <trkpt lat="44.88403" lon="5.53238">
        <ele>1566</ele>
        <time>2022-01-19T09:12:11Z</time>
      </trkpt>
      <trkpt lat="44.88403" lon="5.53238">
        <ele>1566.1</ele>
        <time>2022-01-19T09:12:12Z</time>
      </trkpt>
      <trkpt lat="44.88403" lon="5.53238">
        <ele>1566.1</ele>
        <time>2022-01-19T09:12:13Z</time>
      </trkpt>
      <trkpt lat="44.88403" lon="5.53238">
        <ele>1566.1</ele>
        <time>2022-01-19T09:12:14Z</time>
      </trkpt>
      <trkpt lat="44.88403" lon="5.53238">
        <ele>1566.1</ele>
        <time>2022-01-19T09:12:15Z</time>
      </trkpt>
      <trkpt lat="44.88403" lon="5.53238">
        <ele>1566.1</ele>
        <time>2022-01-19T09:12:16Z</time>
      </trkpt>
      <trkpt lat="44.88403" lon="5.53238">
        <ele>1566.1</ele>
        <time>2022-01-19T09:12:17Z</time>
      </trkpt>
      <trkpt lat="44.88403" lon="5.53238">
        <ele>1566.1</ele>
        <time>2022-01-19T09:12:18Z</time>
      </trkpt>
      <trkpt lat="44.88403" lon="5.53238">
        <ele>1566.1</ele>
        <time>2022-01-19T09:12:19Z</time>
      </trkpt>
      <trkpt lat="44.88403" lon="5.53238">
        <ele>1566.1</ele>
        <time>2022-01-19T09:12:20Z</time>
      </trkpt>
      <trkpt lat="44.884" lon="5.53237">
        <ele>1566.9</ele>
        <time>2022-01-19T09:12:21Z</time>
      </trkpt>
      <trkpt lat="44.88399" lon="5.53237">
        <ele>1567.2</ele>
        <time>2022-01-19T09:12:22Z</time>
      </trkpt>
      <trkpt lat="44.88399" lon="5.53237">
        <ele>1567.3</ele>
        <time>2022-01-19T09:12:23Z</time>
      </trkpt>
      <trkpt lat="44.88398" lon="5.53236">
        <ele>1567.4</ele>
        <time>2022-01-19T09:12:24Z</time>
      </trkpt>
      <trkpt lat="44.88398" lon="5.53236">
        <ele>1567.6</ele>
        <time>2022-01-19T09:12:25Z</time>
      </trkpt>
      <trkpt lat="44.88397" lon="5.53237">
        <ele>1567.8</ele>
        <time>2022-01-19T09:12:26Z</time>
      </trkpt>
      <trkpt lat="44.88397" lon="5.53236">
        <ele>1567.9</ele>
        <time>2022-01-19T09:12:27Z</time>
      </trkpt>
      <trkpt lat="44.88397" lon="5.53237">
        <ele>1568</ele>
        <time>2022-01-19T09:12:28Z</time>
      </trkpt>
      <trkpt lat="44.88396" lon="5.53237">
        <ele>1568.1</ele>
        <time>2022-01-19T09:12:29Z</time>
      </trkpt>
      <trkpt lat="44.88396" lon="5.53237">
        <ele>1568.2</ele>
        <time>2022-01-19T09:12:30Z</time>
      </trkpt>
      <trkpt lat="44.88396" lon="5.53237">
        <ele>1568.2</ele>
        <time>2022-01-19T09:12:31Z</time>
      </trkpt>
      <trkpt lat="44.88396" lon="5.53237">
        <ele>1568.2</ele>
        <time>2022-01-19T09:12:32Z</time>
      </trkpt>
      <trkpt lat="44.88396" lon="5.53237">
        <ele>1568.2</ele>
        <time>2022-01-19T09:12:33Z</time>
      </trkpt>
      <trkpt lat="44.88396" lon="5.53237">
        <ele>1568.2</ele>
        <time>2022-01-19T09:12:34Z</time>
      </trkpt>
      <trkpt lat="44.88396" lon="5.53237">
        <ele>1568.2</ele>
        <time>2022-01-19T09:12:35Z</time>
      </trkpt>
      <trkpt lat="44.88396" lon="5.53237">
        <ele>1568.2</ele>
        <time>2022-01-19T09:12:36Z</time>
      </trkpt>
      <trkpt lat="44.88396" lon="5.53237">
        <ele>1568.2</ele>
        <time>2022-01-19T09:12:37Z</time>
      </trkpt>
      <trkpt lat="44.88396" lon="5.53237">
        <ele>1568.2</ele>
        <time>2022-01-19T09:12:38Z</time>
      </trkpt>
      <trkpt lat="44.88396" lon="5.53237">
        <ele>1568.2</ele>
        <time>2022-01-19T09:12:39Z</time>
      </trkpt>
      <trkpt lat="44.88396" lon="5.53237">
        <ele>1568.2</ele>
        <time>2022-01-19T09:12:40Z</time>
      </trkpt>
      <trkpt lat="44.88396" lon="5.53237">
        <ele>1568.2</ele>
        <time>2022-01-19T09:12:41Z</time>
      </trkpt>
      <trkpt lat="44.88396" lon="5.53237">
        <ele>1568.2</ele>
        <time>2022-01-19T09:12:42Z</time>
      </trkpt>
      <trkpt lat="44.88396" lon="5.53237">
        <ele>1568.2</ele>
        <time>2022-01-19T09:12:43Z</time>
      </trkpt>
      <trkpt lat="44.88396" lon="5.53237">
        <ele>1568.2</ele>
        <time>2022-01-19T09:12:44Z</time>
      </trkpt>
      <trkpt lat="44.88396" lon="5.53237">
        <ele>1568.2</ele>
        <time>2022-01-19T09:12:45Z</time>
      </trkpt>
      <trkpt lat="44.88396" lon="5.53237">
        <ele>1568.2</ele>
        <time>2022-01-19T09:12:46Z</time>
      </trkpt>
      <trkpt lat="44.88396" lon="5.53237">
        <ele>1568.2</ele>
        <time>2022-01-19T09:12:47Z</time>
      </trkpt>
      <trkpt lat="44.88396" lon="5.53237">
        <ele>1568.2</ele>
        <time>2022-01-19T09:12:48Z</time>
      </trkpt>
      <trkpt lat="44.88396" lon="5.53237">
        <ele>1568.2</ele>
        <time>2022-01-19T09:12:49Z</time>
      </trkpt>
      <trkpt lat="44.88396" lon="5.53237">
        <ele>1568.2</ele>
        <time>2022-01-19T09:12:50Z</time>
      </trkpt>
      <trkpt lat="44.88395" lon="5.53238">
        <ele>1568.5</ele>
        <time>2022-01-19T09:12:51Z</time>
      </trkpt>
      <trkpt lat="44.88395" lon="5.53238">
        <ele>1568.6</ele>
        <time>2022-01-19T09:12:52Z</time>
      </trkpt>
      <trkpt lat="44.88395" lon="5.53238">
        <ele>1568.7</ele>
        <time>2022-01-19T09:12:53Z</time>
      </trkpt>
      <trkpt lat="44.88395" lon="5.53238">
        <ele>1568.7</ele>
        <time>2022-01-19T09:12:54Z</time>
      </trkpt>
      <trkpt lat="44.88395" lon="5.53238">
        <ele>1568.7</ele>
        <time>2022-01-19T09:12:55Z</time>
      </trkpt>
      <trkpt lat="44.88395" lon="5.53238">
        <ele>1568.7</ele>
        <time>2022-01-19T09:12:56Z</time>
      </trkpt>
      <trkpt lat="44.88395" lon="5.53238">
        <ele>1568.7</ele>
        <time>2022-01-19T09:12:57Z</time>
      </trkpt>
      <trkpt lat="44.88395" lon="5.53238">
        <ele>1568.7</ele>
        <time>2022-01-19T09:12:58Z</time>
      </trkpt>
      <trkpt lat="44.88395" lon="5.53238">
        <ele>1568.7</ele>
        <time>2022-01-19T09:12:59Z</time>
      </trkpt>
      <trkpt lat="44.88395" lon="5.53238">
        <ele>1568.7</ele>
        <time>2022-01-19T09:13:00Z</time>
      </trkpt>
      <trkpt lat="44.88395" lon="5.53238">
        <ele>1568.7</ele>
        <time>2022-01-19T09:13:01Z</time>
      </trkpt>
      <trkpt lat="44.88395" lon="5.53238">
        <ele>1568.7</ele>
        <time>2022-01-19T09:13:02Z</time>
      </trkpt>
      <trkpt lat="44.88395" lon="5.53238">
        <ele>1568.7</ele>
        <time>2022-01-19T09:13:03Z</time>
      </trkpt>
      <trkpt lat="44.88395" lon="5.53238">
        <ele>1568.7</ele>
        <time>2022-01-19T09:13:04Z</time>
      </trkpt>
      <trkpt lat="44.88395" lon="5.53238">
        <ele>1568.7</ele>
        <time>2022-01-19T09:13:05Z</time>
      </trkpt>
      <trkpt lat="44.88395" lon="5.53238">
        <ele>1568.7</ele>
        <time>2022-01-19T09:13:06Z</time>
      </trkpt>
      <trkpt lat="44.88395" lon="5.53238">
        <ele>1568.7</ele>
        <time>2022-01-19T09:13:07Z</time>
      </trkpt>
      <trkpt lat="44.88395" lon="5.53238">
        <ele>1568.7</ele>
        <time>2022-01-19T09:13:08Z</time>
      </trkpt>
      <trkpt lat="44.88395" lon="5.53238">
        <ele>1568.7</ele>
        <time>2022-01-19T09:13:09Z</time>
      </trkpt>
      <trkpt lat="44.88395" lon="5.53238">
        <ele>1568.7</ele>
        <time>2022-01-19T09:13:10Z</time>
      </trkpt>
      <trkpt lat="44.88395" lon="5.53238">
        <ele>1568.7</ele>
        <time>2022-01-19T09:13:11Z</time>
      </trkpt>
      <trkpt lat="44.88395" lon="5.53238">
        <ele>1568.7</ele>
        <time>2022-01-19T09:13:12Z</time>
      </trkpt>
      <trkpt lat="44.88395" lon="5.53238">
        <ele>1568.7</ele>
        <time>2022-01-19T09:13:13Z</time>
      </trkpt>
      <trkpt lat="44.88395" lon="5.53238">
        <ele>1568.7</ele>
        <time>2022-01-19T09:13:14Z</time>
      </trkpt>
      <trkpt lat="44.88395" lon="5.53238">
        <ele>1568.7</ele>
        <time>2022-01-19T09:13:15Z</time>
      </trkpt>
      <trkpt lat="44.88395" lon="5.53238">
        <ele>1568.7</ele>
        <time>2022-01-19T09:13:16Z</time>
      </trkpt>
      <trkpt lat="44.88395" lon="5.53238">
        <ele>1568.7</ele>
        <time>2022-01-19T09:13:17Z</time>
      </trkpt>
      <trkpt lat="44.88395" lon="5.53238">
        <ele>1568.7</ele>
        <time>2022-01-19T09:13:18Z</time>
      </trkpt>
      <trkpt lat="44.88395" lon="5.53238">
        <ele>1568.7</ele>
        <time>2022-01-19T09:13:19Z</time>
      </trkpt>
      <trkpt lat="44.88395" lon="5.53238">
        <ele>1568.7</ele>
        <time>2022-01-19T09:13:20Z</time>
      </trkpt>
      <trkpt lat="44.88395" lon="5.53238">
        <ele>1568.7</ele>
        <time>2022-01-19T09:13:21Z</time>
      </trkpt>
      <trkpt lat="44.88395" lon="5.53238">
        <ele>1568.7</ele>
        <time>2022-01-19T09:13:22Z</time>
      </trkpt>
      <trkpt lat="44.88395" lon="5.53238">
        <ele>1568.7</ele>
        <time>2022-01-19T09:13:23Z</time>
      </trkpt>
      <trkpt lat="44.88395" lon="5.53238">
        <ele>1568.7</ele>
        <time>2022-01-19T09:13:24Z</time>
      </trkpt>
      <trkpt lat="44.88395" lon="5.53238">
        <ele>1568.7</ele>
        <time>2022-01-19T09:13:25Z</time>
      </trkpt>
      <trkpt lat="44.88395" lon="5.53238">
        <ele>1568.7</ele>
        <time>2022-01-19T09:13:26Z</time>
      </trkpt>
      <trkpt lat="44.88395" lon="5.53238">
        <ele>1568.7</ele>
        <time>2022-01-19T09:13:27Z</time>
      </trkpt>
      <trkpt lat="44.88395" lon="5.53238">
        <ele>1568.7</ele>
        <time>2022-01-19T09:13:28Z</time>
      </trkpt>
      <trkpt lat="44.88395" lon="5.53238">
        <ele>1568.7</ele>
        <time>2022-01-19T09:13:29Z</time>
      </trkpt>
      <trkpt lat="44.88395" lon="5.53238">
        <ele>1568.7</ele>
        <time>2022-01-19T09:13:30Z</time>
      </trkpt>
      <trkpt lat="44.88395" lon="5.53238">
        <ele>1568.7</ele>
        <time>2022-01-19T09:13:31Z</time>
      </trkpt>
      <trkpt lat="44.88395" lon="5.53238">
        <ele>1568.7</ele>
        <time>2022-01-19T09:13:32Z</time>
      </trkpt>
      <trkpt lat="44.88395" lon="5.53238">
        <ele>1568.7</ele>
        <time>2022-01-19T09:13:33Z</time>
      </trkpt>
      <trkpt lat="44.88395" lon="5.53238">
        <ele>1568.7</ele>
        <time>2022-01-19T09:13:34Z</time>
      </trkpt>
      <trkpt lat="44.88395" lon="5.53238">
        <ele>1568.7</ele>
        <time>2022-01-19T09:13:35Z</time>
      </trkpt>
      <trkpt lat="44.88395" lon="5.53238">
        <ele>1568.7</ele>
        <time>2022-01-19T09:13:36Z</time>
      </trkpt>
      <trkpt lat="44.88395" lon="5.53238">
        <ele>1568.7</ele>
        <time>2022-01-19T09:13:37Z</time>
      </trkpt>
      <trkpt lat="44.88395" lon="5.53238">
        <ele>1568.7</ele>
        <time>2022-01-19T09:13:38Z</time>
      </trkpt>
      <trkpt lat="44.88395" lon="5.53238">
        <ele>1568.7</ele>
        <time>2022-01-19T09:13:39Z</time>
      </trkpt>
      <trkpt lat="44.88395" lon="5.53238">
        <ele>1568.7</ele>
        <time>2022-01-19T09:13:40Z</time>
      </trkpt>
      <trkpt lat="44.88395" lon="5.53238">
        <ele>1568.7</ele>
        <time>2022-01-19T09:13:41Z</time>
      </trkpt>
      <trkpt lat="44.88395" lon="5.53238">
        <ele>1568.7</ele>
        <time>2022-01-19T09:13:42Z</time>
      </trkpt>
      <trkpt lat="44.88395" lon="5.53238">
        <ele>1568.7</ele>
        <time>2022-01-19T09:13:43Z</time>
      </trkpt>
      <trkpt lat="44.88395" lon="5.53238">
        <ele>1568.7</ele>
        <time>2022-01-19T09:13:44Z</time>
      </trkpt>
      <trkpt lat="44.88395" lon="5.53238">
        <ele>1568.7</ele>
        <time>2022-01-19T09:13:45Z</time>
      </trkpt>
      <trkpt lat="44.88395" lon="5.53238">
        <ele>1568.7</ele>
        <time>2022-01-19T09:13:46Z</time>
      </trkpt>
      <trkpt lat="44.88395" lon="5.53238">
        <ele>1568.7</ele>
        <time>2022-01-19T09:13:47Z</time>
      </trkpt>
      <trkpt lat="44.88395" lon="5.53238">
        <ele>1568.7</ele>
        <time>2022-01-19T09:13:48Z</time>
      </trkpt>
      <trkpt lat="44.88395" lon="5.53238">
        <ele>1568.7</ele>
        <time>2022-01-19T09:13:49Z</time>
      </trkpt>
      <trkpt lat="44.88394" lon="5.53244">
        <ele>1569.9</ele>
        <time>2022-01-19T09:13:50Z</time>
      </trkpt>
      <trkpt lat="44.88394" lon="5.53244">
        <ele>1570.2</ele>
        <time>2022-01-19T09:13:51Z</time>
      </trkpt>
      <trkpt lat="44.88393" lon="5.53244">
        <ele>1570.4</ele>
        <time>2022-01-19T09:13:52Z</time>
      </trkpt>
      <trkpt lat="44.88393" lon="5.53243">
        <ele>1570.5</ele>
        <time>2022-01-19T09:13:53Z</time>
      </trkpt>
      <trkpt lat="44.88392" lon="5.53243">
        <ele>1570.6</ele>
        <time>2022-01-19T09:13:54Z</time>
      </trkpt>
      <trkpt lat="44.88392" lon="5.53243">
        <ele>1570.9</ele>
        <time>2022-01-19T09:13:55Z</time>
      </trkpt>
      <trkpt lat="44.88392" lon="5.53242">
        <ele>1571</ele>
        <time>2022-01-19T09:13:56Z</time>
      </trkpt>
      <trkpt lat="44.88391" lon="5.53242">
        <ele>1571.1</ele>
        <time>2022-01-19T09:13:57Z</time>
      </trkpt>
      <trkpt lat="44.88391" lon="5.53242">
        <ele>1571.3</ele>
        <time>2022-01-19T09:13:58Z</time>
      </trkpt>
      <trkpt lat="44.8839" lon="5.53241">
        <ele>1571.5</ele>
        <time>2022-01-19T09:13:59Z</time>
      </trkpt>
      <trkpt lat="44.8839" lon="5.53241">
        <ele>1571.6</ele>
        <time>2022-01-19T09:14:00Z</time>
      </trkpt>
      <trkpt lat="44.88389" lon="5.53241">
        <ele>1571.7</ele>
        <time>2022-01-19T09:14:01Z</time>
      </trkpt>
      <trkpt lat="44.88389" lon="5.53241">
        <ele>1571.8</ele>
        <time>2022-01-19T09:14:02Z</time>
      </trkpt>
      <trkpt lat="44.88388" lon="5.53241">
        <ele>1572.1</ele>
        <time>2022-01-19T09:14:03Z</time>
      </trkpt>
      <trkpt lat="44.88387" lon="5.5324">
        <ele>1572.3</ele>
        <time>2022-01-19T09:14:04Z</time>
      </trkpt>
      <trkpt lat="44.88387" lon="5.5324">
        <ele>1572.4</ele>
        <time>2022-01-19T09:14:05Z</time>
      </trkpt>
      <trkpt lat="44.88387" lon="5.5324">
        <ele>1572.5</ele>
        <time>2022-01-19T09:14:06Z</time>
      </trkpt>
      <trkpt lat="44.88386" lon="5.53239">
        <ele>1572.8</ele>
        <time>2022-01-19T09:14:07Z</time>
      </trkpt>
      <trkpt lat="44.88385" lon="5.53239">
        <ele>1573</ele>
        <time>2022-01-19T09:14:08Z</time>
      </trkpt>
      <trkpt lat="44.88384" lon="5.53239">
        <ele>1573.2</ele>
        <time>2022-01-19T09:14:09Z</time>
      </trkpt>
      <trkpt lat="44.88384" lon="5.53239">
        <ele>1573.4</ele>
        <time>2022-01-19T09:14:10Z</time>
      </trkpt>
      <trkpt lat="44.88383" lon="5.53239">
        <ele>1573.5</ele>
        <time>2022-01-19T09:14:11Z</time>
      </trkpt>
      <trkpt lat="44.88383" lon="5.53238">
        <ele>1573.7</ele>
        <time>2022-01-19T09:14:12Z</time>
      </trkpt>
      <trkpt lat="44.88382" lon="5.53238">
        <ele>1573.9</ele>
        <time>2022-01-19T09:14:13Z</time>
      </trkpt>
      <trkpt lat="44.88381" lon="5.53237">
        <ele>1574.3</ele>
        <time>2022-01-19T09:14:14Z</time>
      </trkpt>
      <trkpt lat="44.8838" lon="5.53236">
        <ele>1574.5</ele>
        <time>2022-01-19T09:14:15Z</time>
      </trkpt>
      <trkpt lat="44.88379" lon="5.53236">
        <ele>1574.7</ele>
        <time>2022-01-19T09:14:16Z</time>
      </trkpt>
      <trkpt lat="44.88379" lon="5.53235">
        <ele>1574.9</ele>
        <time>2022-01-19T09:14:17Z</time>
      </trkpt>
      <trkpt lat="44.88378" lon="5.53235">
        <ele>1575</ele>
        <time>2022-01-19T09:14:18Z</time>
      </trkpt>
      <trkpt lat="44.88377" lon="5.53235">
        <ele>1575.2</ele>
        <time>2022-01-19T09:14:19Z</time>
      </trkpt>
      <trkpt lat="44.88377" lon="5.53234">
        <ele>1575.3</ele>
        <time>2022-01-19T09:14:20Z</time>
      </trkpt>
      <trkpt lat="44.88376" lon="5.53234">
        <ele>1575.5</ele>
        <time>2022-01-19T09:14:21Z</time>
      </trkpt>
      <trkpt lat="44.88376" lon="5.53234">
        <ele>1575.7</ele>
        <time>2022-01-19T09:14:22Z</time>
      </trkpt>
      <trkpt lat="44.88375" lon="5.53233">
        <ele>1575.9</ele>
        <time>2022-01-19T09:14:23Z</time>
      </trkpt>
      <trkpt lat="44.88374" lon="5.53233">
        <ele>1576.1</ele>
        <time>2022-01-19T09:14:24Z</time>
      </trkpt>
      <trkpt lat="44.88374" lon="5.53232">
        <ele>1576.4</ele>
        <time>2022-01-19T09:14:25Z</time>
      </trkpt>
      <trkpt lat="44.88373" lon="5.53231">
        <ele>1576.5</ele>
        <time>2022-01-19T09:14:26Z</time>
      </trkpt>
      <trkpt lat="44.88372" lon="5.53231">
        <ele>1576.7</ele>
        <time>2022-01-19T09:14:27Z</time>
      </trkpt>
      <trkpt lat="44.88372" lon="5.53231">
        <ele>1576.9</ele>
        <time>2022-01-19T09:14:28Z</time>
      </trkpt>
      <trkpt lat="44.88371" lon="5.5323">
        <ele>1577.1</ele>
        <time>2022-01-19T09:14:29Z</time>
      </trkpt>
      <trkpt lat="44.8837" lon="5.5323">
        <ele>1577.3</ele>
        <time>2022-01-19T09:14:30Z</time>
      </trkpt>
      <trkpt lat="44.88369" lon="5.53228">
        <ele>1577.7</ele>
        <time>2022-01-19T09:14:31Z</time>
      </trkpt>
      <trkpt lat="44.88367" lon="5.53228">
        <ele>1578.1</ele>
        <time>2022-01-19T09:14:32Z</time>
      </trkpt>
      <trkpt lat="44.88367" lon="5.53227">
        <ele>1578.2</ele>
        <time>2022-01-19T09:14:33Z</time>
      </trkpt>
      <trkpt lat="44.88366" lon="5.53227">
        <ele>1578.4</ele>
        <time>2022-01-19T09:14:34Z</time>
      </trkpt>
      <trkpt lat="44.88366" lon="5.53227">
        <ele>1578.5</ele>
        <time>2022-01-19T09:14:35Z</time>
      </trkpt>
      <trkpt lat="44.88365" lon="5.53226">
        <ele>1578.7</ele>
        <time>2022-01-19T09:14:36Z</time>
      </trkpt>
      <trkpt lat="44.88365" lon="5.53226">
        <ele>1578.8</ele>
        <time>2022-01-19T09:14:37Z</time>
      </trkpt>
      <trkpt lat="44.88364" lon="5.53226">
        <ele>1579</ele>
        <time>2022-01-19T09:14:38Z</time>
      </trkpt>
      <trkpt lat="44.88364" lon="5.53225">
        <ele>1579.1</ele>
        <time>2022-01-19T09:14:39Z</time>
      </trkpt>
      <trkpt lat="44.88363" lon="5.53225">
        <ele>1579.3</ele>
        <time>2022-01-19T09:14:40Z</time>
      </trkpt>
      <trkpt lat="44.88363" lon="5.53224">
        <ele>1579.4</ele>
        <time>2022-01-19T09:14:41Z</time>
      </trkpt>
      <trkpt lat="44.88362" lon="5.53224">
        <ele>1579.5</ele>
        <time>2022-01-19T09:14:42Z</time>
      </trkpt>
      <trkpt lat="44.88362" lon="5.53224">
        <ele>1579.7</ele>
        <time>2022-01-19T09:14:43Z</time>
      </trkpt>
      <trkpt lat="44.88361" lon="5.53223">
        <ele>1579.8</ele>
        <time>2022-01-19T09:14:44Z</time>
      </trkpt>
      <trkpt lat="44.88361" lon="5.53223">
        <ele>1580</ele>
        <time>2022-01-19T09:14:45Z</time>
      </trkpt>
      <trkpt lat="44.8836" lon="5.53222">
        <ele>1580.1</ele>
        <time>2022-01-19T09:14:46Z</time>
      </trkpt>
      <trkpt lat="44.8836" lon="5.53222">
        <ele>1580.3</ele>
        <time>2022-01-19T09:14:47Z</time>
      </trkpt>
      <trkpt lat="44.88359" lon="5.53222">
        <ele>1580.4</ele>
        <time>2022-01-19T09:14:48Z</time>
      </trkpt>
      <trkpt lat="44.88359" lon="5.53221">
        <ele>1580.6</ele>
        <time>2022-01-19T09:14:49Z</time>
      </trkpt>
      <trkpt lat="44.88358" lon="5.53221">
        <ele>1580.7</ele>
        <time>2022-01-19T09:14:50Z</time>
      </trkpt>
      <trkpt lat="44.88358" lon="5.5322">
        <ele>1580.9</ele>
        <time>2022-01-19T09:14:51Z</time>
      </trkpt>
      <trkpt lat="44.88357" lon="5.5322">
        <ele>1581</ele>
        <time>2022-01-19T09:14:52Z</time>
      </trkpt>
      <trkpt lat="44.88357" lon="5.5322">
        <ele>1581.1</ele>
        <time>2022-01-19T09:14:53Z</time>
      </trkpt>
      <trkpt lat="44.88356" lon="5.53219">
        <ele>1581.3</ele>
        <time>2022-01-19T09:14:54Z</time>
      </trkpt>
      <trkpt lat="44.88356" lon="5.53219">
        <ele>1581.4</ele>
        <time>2022-01-19T09:14:55Z</time>
      </trkpt>
      <trkpt lat="44.88355" lon="5.53219">
        <ele>1581.6</ele>
        <time>2022-01-19T09:14:56Z</time>
      </trkpt>
      <trkpt lat="44.88355" lon="5.53218">
        <ele>1581.7</ele>
        <time>2022-01-19T09:14:57Z</time>
      </trkpt>
      <trkpt lat="44.88354" lon="5.53218">
        <ele>1581.9</ele>
        <time>2022-01-19T09:14:58Z</time>
      </trkpt>
      <trkpt lat="44.88354" lon="5.53217">
        <ele>1582</ele>
        <time>2022-01-19T09:14:59Z</time>
      </trkpt>
      <trkpt lat="44.88353" lon="5.53217">
        <ele>1582.2</ele>
        <time>2022-01-19T09:15:00Z</time>
      </trkpt>
      <trkpt lat="44.88353" lon="5.53217">
        <ele>1582.3</ele>
        <time>2022-01-19T09:15:01Z</time>
      </trkpt>
      <trkpt lat="44.88352" lon="5.53216">
        <ele>1582.4</ele>
        <time>2022-01-19T09:15:02Z</time>
      </trkpt>
      <trkpt lat="44.88352" lon="5.53216">
        <ele>1582.6</ele>
        <time>2022-01-19T09:15:03Z</time>
      </trkpt>
      <trkpt lat="44.88351" lon="5.53215">
        <ele>1582.7</ele>
        <time>2022-01-19T09:15:04Z</time>
      </trkpt>
      <trkpt lat="44.88351" lon="5.53215">
        <ele>1582.9</ele>
        <time>2022-01-19T09:15:05Z</time>
      </trkpt>
      <trkpt lat="44.8835" lon="5.53215">
        <ele>1583</ele>
        <time>2022-01-19T09:15:06Z</time>
      </trkpt>
      <trkpt lat="44.8835" lon="5.53214">
        <ele>1583.1</ele>
        <time>2022-01-19T09:15:07Z</time>
      </trkpt>
      <trkpt lat="44.88349" lon="5.53214">
        <ele>1583.3</ele>
        <time>2022-01-19T09:15:08Z</time>
      </trkpt>
      <trkpt lat="44.88349" lon="5.53214">
        <ele>1583.4</ele>
        <time>2022-01-19T09:15:09Z</time>
      </trkpt>
      <trkpt lat="44.88348" lon="5.53213">
        <ele>1583.6</ele>
        <time>2022-01-19T09:15:10Z</time>
      </trkpt>
      <trkpt lat="44.88348" lon="5.53213">
        <ele>1583.7</ele>
        <time>2022-01-19T09:15:11Z</time>
      </trkpt>
      <trkpt lat="44.88347" lon="5.53212">
        <ele>1583.8</ele>
        <time>2022-01-19T09:15:12Z</time>
      </trkpt>
      <trkpt lat="44.88347" lon="5.53212">
        <ele>1584</ele>
        <time>2022-01-19T09:15:13Z</time>
      </trkpt>
      <trkpt lat="44.88346" lon="5.53212">
        <ele>1584.1</ele>
        <time>2022-01-19T09:15:14Z</time>
      </trkpt>
      <trkpt lat="44.88346" lon="5.53211">
        <ele>1584.3</ele>
        <time>2022-01-19T09:15:15Z</time>
      </trkpt>
      <trkpt lat="44.88345" lon="5.53211">
        <ele>1584.4</ele>
        <time>2022-01-19T09:15:16Z</time>
      </trkpt>
      <trkpt lat="44.88345" lon="5.5321">
        <ele>1584.5</ele>
        <time>2022-01-19T09:15:17Z</time>
      </trkpt>
      <trkpt lat="44.88344" lon="5.5321">
        <ele>1584.7</ele>
        <time>2022-01-19T09:15:18Z</time>
      </trkpt>
      <trkpt lat="44.88344" lon="5.5321">
        <ele>1584.8</ele>
        <time>2022-01-19T09:15:19Z</time>
      </trkpt>
      <trkpt lat="44.88343" lon="5.53209">
        <ele>1585</ele>
        <time>2022-01-19T09:15:20Z</time>
      </trkpt>
      <trkpt lat="44.88342" lon="5.53209">
        <ele>1585.1</ele>
        <time>2022-01-19T09:15:21Z</time>
      </trkpt>
      <trkpt lat="44.88342" lon="5.53208">
        <ele>1585.3</ele>
        <time>2022-01-19T09:15:22Z</time>
      </trkpt>
      <trkpt lat="44.88341" lon="5.53208">
        <ele>1585.4</ele>
        <time>2022-01-19T09:15:23Z</time>
      </trkpt>
      <trkpt lat="44.88341" lon="5.53208">
        <ele>1585.5</ele>
        <time>2022-01-19T09:15:24Z</time>
      </trkpt>
      <trkpt lat="44.8834" lon="5.53207">
        <ele>1585.7</ele>
        <time>2022-01-19T09:15:25Z</time>
      </trkpt>
      <trkpt lat="44.8834" lon="5.53207">
        <ele>1585.8</ele>
        <time>2022-01-19T09:15:26Z</time>
      </trkpt>
      <trkpt lat="44.88339" lon="5.53207">
        <ele>1586</ele>
        <time>2022-01-19T09:15:27Z</time>
      </trkpt>
      <trkpt lat="44.88339" lon="5.53206">
        <ele>1586.1</ele>
        <time>2022-01-19T09:15:28Z</time>
      </trkpt>
      <trkpt lat="44.88338" lon="5.53206">
        <ele>1586.2</ele>
        <time>2022-01-19T09:15:29Z</time>
      </trkpt>
      <trkpt lat="44.88338" lon="5.53205">
        <ele>1586.4</ele>
        <time>2022-01-19T09:15:30Z</time>
      </trkpt>
      <trkpt lat="44.88337" lon="5.53205">
        <ele>1586.5</ele>
        <time>2022-01-19T09:15:31Z</time>
      </trkpt>
      <trkpt lat="44.88337" lon="5.53205">
        <ele>1586.7</ele>
        <time>2022-01-19T09:15:32Z</time>
      </trkpt>
      <trkpt lat="44.88336" lon="5.53204">
        <ele>1586.8</ele>
        <time>2022-01-19T09:15:33Z</time>
      </trkpt>
      <trkpt lat="44.88336" lon="5.53204">
        <ele>1586.9</ele>
        <time>2022-01-19T09:15:34Z</time>
      </trkpt>
      <trkpt lat="44.88335" lon="5.53203">
        <ele>1587.1</ele>
        <time>2022-01-19T09:15:35Z</time>
      </trkpt>
      <trkpt lat="44.88335" lon="5.53203">
        <ele>1587.2</ele>
        <time>2022-01-19T09:15:36Z</time>
      </trkpt>
      <trkpt lat="44.88334" lon="5.53203">
        <ele>1587.4</ele>
        <time>2022-01-19T09:15:37Z</time>
      </trkpt>
      <trkpt lat="44.88334" lon="5.53202">
        <ele>1587.5</ele>
        <time>2022-01-19T09:15:38Z</time>
      </trkpt>
      <trkpt lat="44.88333" lon="5.53202">
        <ele>1587.6</ele>
        <time>2022-01-19T09:15:39Z</time>
      </trkpt>
      <trkpt lat="44.88333" lon="5.53202">
        <ele>1587.8</ele>
        <time>2022-01-19T09:15:40Z</time>
      </trkpt>
      <trkpt lat="44.88332" lon="5.53201">
        <ele>1587.9</ele>
        <time>2022-01-19T09:15:41Z</time>
      </trkpt>
      <trkpt lat="44.88332" lon="5.53201">
        <ele>1588.1</ele>
        <time>2022-01-19T09:15:42Z</time>
      </trkpt>
      <trkpt lat="44.88331" lon="5.532">
        <ele>1588.2</ele>
        <time>2022-01-19T09:15:43Z</time>
      </trkpt>
      <trkpt lat="44.88331" lon="5.532">
        <ele>1588.4</ele>
        <time>2022-01-19T09:15:44Z</time>
      </trkpt>
      <trkpt lat="44.8833" lon="5.532">
        <ele>1588.5</ele>
        <time>2022-01-19T09:15:45Z</time>
      </trkpt>
      <trkpt lat="44.8833" lon="5.53199">
        <ele>1588.6</ele>
        <time>2022-01-19T09:15:46Z</time>
      </trkpt>
      <trkpt lat="44.88329" lon="5.53199">
        <ele>1588.8</ele>
        <time>2022-01-19T09:15:47Z</time>
      </trkpt>
      <trkpt lat="44.88329" lon="5.53198">
        <ele>1588.9</ele>
        <time>2022-01-19T09:15:48Z</time>
      </trkpt>
      <trkpt lat="44.88328" lon="5.53198">
        <ele>1589.1</ele>
        <time>2022-01-19T09:15:49Z</time>
      </trkpt>
      <trkpt lat="44.88328" lon="5.53198">
        <ele>1589.2</ele>
        <time>2022-01-19T09:15:50Z</time>
      </trkpt>
      <trkpt lat="44.88327" lon="5.53197">
        <ele>1589.3</ele>
        <time>2022-01-19T09:15:51Z</time>
      </trkpt>
      <trkpt lat="44.88327" lon="5.53197">
        <ele>1589.5</ele>
        <time>2022-01-19T09:15:52Z</time>
      </trkpt>
      <trkpt lat="44.88326" lon="5.53196">
        <ele>1589.7</ele>
        <time>2022-01-19T09:15:53Z</time>
      </trkpt>
      <trkpt lat="44.88326" lon="5.53196">
        <ele>1589.8</ele>
        <time>2022-01-19T09:15:54Z</time>
      </trkpt>
      <trkpt lat="44.88325" lon="5.53196">
        <ele>1589.9</ele>
        <time>2022-01-19T09:15:55Z</time>
      </trkpt>
      <trkpt lat="44.88325" lon="5.53195">
        <ele>1590.1</ele>
        <time>2022-01-19T09:15:56Z</time>
      </trkpt>
      <trkpt lat="44.88324" lon="5.53195">
        <ele>1590.2</ele>
        <time>2022-01-19T09:15:57Z</time>
      </trkpt>
      <trkpt lat="44.88324" lon="5.53195">
        <ele>1590.4</ele>
        <time>2022-01-19T09:15:58Z</time>
      </trkpt>
      <trkpt lat="44.88323" lon="5.53194">
        <ele>1590.5</ele>
        <time>2022-01-19T09:15:59Z</time>
      </trkpt>
      <trkpt lat="44.88323" lon="5.53194">
        <ele>1590.6</ele>
        <time>2022-01-19T09:16:00Z</time>
      </trkpt>
      <trkpt lat="44.88322" lon="5.53193">
        <ele>1590.8</ele>
        <time>2022-01-19T09:16:01Z</time>
      </trkpt>
      <trkpt lat="44.88322" lon="5.53193">
        <ele>1590.9</ele>
        <time>2022-01-19T09:16:02Z</time>
      </trkpt>
      <trkpt lat="44.88321" lon="5.53193">
        <ele>1591.1</ele>
        <time>2022-01-19T09:16:03Z</time>
      </trkpt>
      <trkpt lat="44.88321" lon="5.53192">
        <ele>1591.3</ele>
        <time>2022-01-19T09:16:04Z</time>
      </trkpt>
      <trkpt lat="44.8832" lon="5.53192">
        <ele>1591.4</ele>
        <time>2022-01-19T09:16:05Z</time>
      </trkpt>
      <trkpt lat="44.8832" lon="5.53191">
        <ele>1591.6</ele>
        <time>2022-01-19T09:16:06Z</time>
      </trkpt>
      <trkpt lat="44.88319" lon="5.53191">
        <ele>1591.7</ele>
        <time>2022-01-19T09:16:07Z</time>
      </trkpt>
      <trkpt lat="44.88319" lon="5.53191">
        <ele>1591.9</ele>
        <time>2022-01-19T09:16:08Z</time>
      </trkpt>
      <trkpt lat="44.88318" lon="5.5319">
        <ele>1592</ele>
        <time>2022-01-19T09:16:09Z</time>
      </trkpt>
      <trkpt lat="44.88318" lon="5.5319">
        <ele>1592.2</ele>
        <time>2022-01-19T09:16:10Z</time>
      </trkpt>
      <trkpt lat="44.88317" lon="5.5319">
        <ele>1592.3</ele>
        <time>2022-01-19T09:16:11Z</time>
      </trkpt>
      <trkpt lat="44.88317" lon="5.53189">
        <ele>1592.5</ele>
        <time>2022-01-19T09:16:12Z</time>
      </trkpt>
      <trkpt lat="44.88316" lon="5.53189">
        <ele>1592.6</ele>
        <time>2022-01-19T09:16:13Z</time>
      </trkpt>
      <trkpt lat="44.88315" lon="5.53188">
        <ele>1592.8</ele>
        <time>2022-01-19T09:16:14Z</time>
      </trkpt>
      <trkpt lat="44.88315" lon="5.53188">
        <ele>1592.9</ele>
        <time>2022-01-19T09:16:15Z</time>
      </trkpt>
      <trkpt lat="44.88314" lon="5.53188">
        <ele>1593.1</ele>
        <time>2022-01-19T09:16:16Z</time>
      </trkpt>
      <trkpt lat="44.88314" lon="5.53187">
        <ele>1593.2</ele>
        <time>2022-01-19T09:16:17Z</time>
      </trkpt>
      <trkpt lat="44.88313" lon="5.53187">
        <ele>1593.4</ele>
        <time>2022-01-19T09:16:18Z</time>
      </trkpt>
      <trkpt lat="44.88313" lon="5.53186">
        <ele>1593.5</ele>
        <time>2022-01-19T09:16:19Z</time>
      </trkpt>
      <trkpt lat="44.88312" lon="5.53186">
        <ele>1593.7</ele>
        <time>2022-01-19T09:16:20Z</time>
      </trkpt>
      <trkpt lat="44.88312" lon="5.53186">
        <ele>1593.8</ele>
        <time>2022-01-19T09:16:21Z</time>
      </trkpt>
      <trkpt lat="44.88311" lon="5.53185">
        <ele>1594</ele>
        <time>2022-01-19T09:16:22Z</time>
      </trkpt>
      <trkpt lat="44.88311" lon="5.53185">
        <ele>1594.1</ele>
        <time>2022-01-19T09:16:23Z</time>
      </trkpt>
      <trkpt lat="44.8831" lon="5.53184">
        <ele>1594.3</ele>
        <time>2022-01-19T09:16:24Z</time>
      </trkpt>
      <trkpt lat="44.8831" lon="5.53184">
        <ele>1594.5</ele>
        <time>2022-01-19T09:16:25Z</time>
      </trkpt>
      <trkpt lat="44.88309" lon="5.53184">
        <ele>1594.6</ele>
        <time>2022-01-19T09:16:26Z</time>
      </trkpt>
      <trkpt lat="44.88309" lon="5.53183">
        <ele>1594.8</ele>
        <time>2022-01-19T09:16:27Z</time>
      </trkpt>
      <trkpt lat="44.88308" lon="5.53183">
        <ele>1594.9</ele>
        <time>2022-01-19T09:16:28Z</time>
      </trkpt>
      <trkpt lat="44.88308" lon="5.53183">
        <ele>1595.1</ele>
        <time>2022-01-19T09:16:29Z</time>
      </trkpt>
      <trkpt lat="44.88307" lon="5.53182">
        <ele>1595.2</ele>
        <time>2022-01-19T09:16:30Z</time>
      </trkpt>
      <trkpt lat="44.88307" lon="5.53182">
        <ele>1595.4</ele>
        <time>2022-01-19T09:16:31Z</time>
      </trkpt>
      <trkpt lat="44.88306" lon="5.53181">
        <ele>1595.5</ele>
        <time>2022-01-19T09:16:32Z</time>
      </trkpt>
      <trkpt lat="44.88306" lon="5.53181">
        <ele>1595.7</ele>
        <time>2022-01-19T09:16:33Z</time>
      </trkpt>
      <trkpt lat="44.88305" lon="5.53181">
        <ele>1595.9</ele>
        <time>2022-01-19T09:16:34Z</time>
      </trkpt>
      <trkpt lat="44.88305" lon="5.5318">
        <ele>1596</ele>
        <time>2022-01-19T09:16:35Z</time>
      </trkpt>
      <trkpt lat="44.88303" lon="5.53179">
        <ele>1596.4</ele>
        <time>2022-01-19T09:16:36Z</time>
      </trkpt>
      <trkpt lat="44.88303" lon="5.53179">
        <ele>1596.5</ele>
        <time>2022-01-19T09:16:37Z</time>
      </trkpt>
      <trkpt lat="44.88302" lon="5.53179">
        <ele>1596.9</ele>
        <time>2022-01-19T09:16:38Z</time>
      </trkpt>
      <trkpt lat="44.88302" lon="5.53178">
        <ele>1597</ele>
        <time>2022-01-19T09:16:39Z</time>
      </trkpt>
      <trkpt lat="44.88301" lon="5.53178">
        <ele>1597.2</ele>
        <time>2022-01-19T09:16:40Z</time>
      </trkpt>
      <trkpt lat="44.88301" lon="5.53178">
        <ele>1597.3</ele>
        <time>2022-01-19T09:16:41Z</time>
      </trkpt>
      <trkpt lat="44.883" lon="5.53178">
        <ele>1597.4</ele>
        <time>2022-01-19T09:16:42Z</time>
      </trkpt>
      <trkpt lat="44.883" lon="5.53178">
        <ele>1597.5</ele>
        <time>2022-01-19T09:16:43Z</time>
      </trkpt>
      <trkpt lat="44.883" lon="5.53178">
        <ele>1597.5</ele>
        <time>2022-01-19T09:16:44Z</time>
      </trkpt>
      <trkpt lat="44.88299" lon="5.53177">
        <ele>1597.8</ele>
        <time>2022-01-19T09:16:45Z</time>
      </trkpt>
      <trkpt lat="44.88298" lon="5.53177">
        <ele>1597.9</ele>
        <time>2022-01-19T09:16:46Z</time>
      </trkpt>
      <trkpt lat="44.88298" lon="5.53177">
        <ele>1598</ele>
        <time>2022-01-19T09:16:47Z</time>
      </trkpt>
      <trkpt lat="44.88298" lon="5.53176">
        <ele>1598.2</ele>
        <time>2022-01-19T09:16:48Z</time>
      </trkpt>
      <trkpt lat="44.88298" lon="5.53175">
        <ele>1598.4</ele>
        <time>2022-01-19T09:16:49Z</time>
      </trkpt>
      <trkpt lat="44.88297" lon="5.53174">
        <ele>1598.6</ele>
        <time>2022-01-19T09:16:50Z</time>
      </trkpt>
      <trkpt lat="44.88297" lon="5.53173">
        <ele>1598.8</ele>
        <time>2022-01-19T09:16:51Z</time>
      </trkpt>
      <trkpt lat="44.88297" lon="5.53172">
        <ele>1599.1</ele>
        <time>2022-01-19T09:16:52Z</time>
      </trkpt>
      <trkpt lat="44.88296" lon="5.53171">
        <ele>1599.3</ele>
        <time>2022-01-19T09:16:53Z</time>
      </trkpt>
      <trkpt lat="44.88296" lon="5.53171">
        <ele>1599.4</ele>
        <time>2022-01-19T09:16:54Z</time>
      </trkpt>
      <trkpt lat="44.88295" lon="5.5317">
        <ele>1599.6</ele>
        <time>2022-01-19T09:16:55Z</time>
      </trkpt>
      <trkpt lat="44.88295" lon="5.53169">
        <ele>1599.7</ele>
        <time>2022-01-19T09:16:56Z</time>
      </trkpt>
      <trkpt lat="44.88295" lon="5.53169">
        <ele>1599.9</ele>
        <time>2022-01-19T09:16:57Z</time>
      </trkpt>
      <trkpt lat="44.88295" lon="5.53168">
        <ele>1600</ele>
        <time>2022-01-19T09:16:58Z</time>
      </trkpt>
      <trkpt lat="44.88294" lon="5.53168">
        <ele>1600.2</ele>
        <time>2022-01-19T09:16:59Z</time>
      </trkpt>
      <trkpt lat="44.88294" lon="5.53168">
        <ele>1600.2</ele>
        <time>2022-01-19T09:17:00Z</time>
      </trkpt>
      <trkpt lat="44.88294" lon="5.53168">
        <ele>1600.2</ele>
        <time>2022-01-19T09:17:01Z</time>
      </trkpt>
      <trkpt lat="44.88294" lon="5.53166">
        <ele>1600.5</ele>
        <time>2022-01-19T09:17:02Z</time>
      </trkpt>
      <trkpt lat="44.88293" lon="5.53166">
        <ele>1600.6</ele>
        <time>2022-01-19T09:17:03Z</time>
      </trkpt>
      <trkpt lat="44.88293" lon="5.53166">
        <ele>1600.7</ele>
        <time>2022-01-19T09:17:04Z</time>
      </trkpt>
      <trkpt lat="44.88293" lon="5.53165">
        <ele>1600.8</ele>
        <time>2022-01-19T09:17:05Z</time>
      </trkpt>
      <trkpt lat="44.88293" lon="5.53165">
        <ele>1601</ele>
        <time>2022-01-19T09:17:06Z</time>
      </trkpt>
      <trkpt lat="44.88292" lon="5.53165">
        <ele>1601.1</ele>
        <time>2022-01-19T09:17:07Z</time>
      </trkpt>
      <trkpt lat="44.88293" lon="5.53165">
        <ele>1601.2</ele>
        <time>2022-01-19T09:17:08Z</time>
      </trkpt>
      <trkpt lat="44.88292" lon="5.53165">
        <ele>1601.3</ele>
        <time>2022-01-19T09:17:09Z</time>
      </trkpt>
      <trkpt lat="44.88292" lon="5.53165">
        <ele>1601.3</ele>
        <time>2022-01-19T09:17:10Z</time>
      </trkpt>
      <trkpt lat="44.88292" lon="5.53165">
        <ele>1601.3</ele>
        <time>2022-01-19T09:17:11Z</time>
      </trkpt>
      <trkpt lat="44.88292" lon="5.53165">
        <ele>1601.3</ele>
        <time>2022-01-19T09:17:12Z</time>
      </trkpt>
      <trkpt lat="44.88292" lon="5.53165">
        <ele>1601.3</ele>
        <time>2022-01-19T09:17:13Z</time>
      </trkpt>
      <trkpt lat="44.88292" lon="5.53165">
        <ele>1601.3</ele>
        <time>2022-01-19T09:17:14Z</time>
      </trkpt>
      <trkpt lat="44.88292" lon="5.53165">
        <ele>1601.3</ele>
        <time>2022-01-19T09:17:15Z</time>
      </trkpt>
      <trkpt lat="44.88292" lon="5.53165">
        <ele>1601.3</ele>
        <time>2022-01-19T09:17:16Z</time>
      </trkpt>
      <trkpt lat="44.88292" lon="5.53165">
        <ele>1601.3</ele>
        <time>2022-01-19T09:17:17Z</time>
      </trkpt>
      <trkpt lat="44.88292" lon="5.53165">
        <ele>1601.3</ele>
        <time>2022-01-19T09:17:18Z</time>
      </trkpt>
      <trkpt lat="44.88291" lon="5.5316">
        <ele>1602.3</ele>
        <time>2022-01-19T09:17:19Z</time>
      </trkpt>
      <trkpt lat="44.88291" lon="5.5316">
        <ele>1602.4</ele>
        <time>2022-01-19T09:17:20Z</time>
      </trkpt>
      <trkpt lat="44.8829" lon="5.5316">
        <ele>1602.5</ele>
        <time>2022-01-19T09:17:21Z</time>
      </trkpt>
      <trkpt lat="44.8829" lon="5.5316">
        <ele>1602.6</ele>
        <time>2022-01-19T09:17:22Z</time>
      </trkpt>
      <trkpt lat="44.8829" lon="5.5316">
        <ele>1602.6</ele>
        <time>2022-01-19T09:17:23Z</time>
      </trkpt>
      <trkpt lat="44.8829" lon="5.5316">
        <ele>1602.6</ele>
        <time>2022-01-19T09:17:24Z</time>
      </trkpt>
      <trkpt lat="44.8829" lon="5.5316">
        <ele>1602.6</ele>
        <time>2022-01-19T09:17:25Z</time>
      </trkpt>
      <trkpt lat="44.8829" lon="5.5316">
        <ele>1602.6</ele>
        <time>2022-01-19T09:17:26Z</time>
      </trkpt>
      <trkpt lat="44.88289" lon="5.53159">
        <ele>1602.9</ele>
        <time>2022-01-19T09:17:27Z</time>
      </trkpt>
      <trkpt lat="44.8829" lon="5.53158">
        <ele>1603.1</ele>
        <time>2022-01-19T09:17:28Z</time>
      </trkpt>
      <trkpt lat="44.8829" lon="5.53156">
        <ele>1603.4</ele>
        <time>2022-01-19T09:17:29Z</time>
      </trkpt>
      <trkpt lat="44.8829" lon="5.53156">
        <ele>1603.7</ele>
        <time>2022-01-19T09:17:30Z</time>
      </trkpt>
      <trkpt lat="44.8829" lon="5.53155">
        <ele>1603.8</ele>
        <time>2022-01-19T09:17:31Z</time>
      </trkpt>
      <trkpt lat="44.8829" lon="5.53154">
        <ele>1604</ele>
        <time>2022-01-19T09:17:32Z</time>
      </trkpt>
      <trkpt lat="44.8829" lon="5.53153">
        <ele>1604.2</ele>
        <time>2022-01-19T09:17:33Z</time>
      </trkpt>
      <trkpt lat="44.8829" lon="5.53152">
        <ele>1604.3</ele>
        <time>2022-01-19T09:17:34Z</time>
      </trkpt>
      <trkpt lat="44.88289" lon="5.53152">
        <ele>1604.5</ele>
        <time>2022-01-19T09:17:35Z</time>
      </trkpt>
      <trkpt lat="44.88289" lon="5.53151">
        <ele>1604.7</ele>
        <time>2022-01-19T09:17:36Z</time>
      </trkpt>
      <trkpt lat="44.88289" lon="5.5315">
        <ele>1604.9</ele>
        <time>2022-01-19T09:17:37Z</time>
      </trkpt>
      <trkpt lat="44.88289" lon="5.53149">
        <ele>1605</ele>
        <time>2022-01-19T09:17:38Z</time>
      </trkpt>
      <trkpt lat="44.88288" lon="5.53149">
        <ele>1605.2</ele>
        <time>2022-01-19T09:17:39Z</time>
      </trkpt>
      <trkpt lat="44.88288" lon="5.53148">
        <ele>1605.3</ele>
        <time>2022-01-19T09:17:40Z</time>
      </trkpt>
      <trkpt lat="44.88287" lon="5.53147">
        <ele>1605.8</ele>
        <time>2022-01-19T09:17:41Z</time>
      </trkpt>
      <trkpt lat="44.88287" lon="5.53146">
        <ele>1605.8</ele>
        <time>2022-01-19T09:17:42Z</time>
      </trkpt>
      <trkpt lat="44.88287" lon="5.53146">
        <ele>1605.8</ele>
        <time>2022-01-19T09:17:43Z</time>
      </trkpt>
      <trkpt lat="44.88288" lon="5.53146">
        <ele>1605.4</ele>
        <time>2022-01-19T09:17:44Z</time>
      </trkpt>
      <trkpt lat="44.88289" lon="5.53146">
        <ele>1605.4</ele>
        <time>2022-01-19T09:17:45Z</time>
      </trkpt>
      <trkpt lat="44.88289" lon="5.53145">
        <ele>1605.4</ele>
        <time>2022-01-19T09:17:46Z</time>
      </trkpt>
      <trkpt lat="44.88289" lon="5.53144">
        <ele>1606.8</ele>
        <time>2022-01-19T09:17:47Z</time>
      </trkpt>
      <trkpt lat="44.8829" lon="5.53144">
        <ele>1606.8</ele>
        <time>2022-01-19T09:17:48Z</time>
      </trkpt>
      <trkpt lat="44.8829" lon="5.53142">
        <ele>1606.9</ele>
        <time>2022-01-19T09:17:49Z</time>
      </trkpt>
      <trkpt lat="44.8829" lon="5.53142">
        <ele>1606.9</ele>
        <time>2022-01-19T09:17:50Z</time>
      </trkpt>
      <trkpt lat="44.88291" lon="5.53141">
        <ele>1606.5</ele>
        <time>2022-01-19T09:17:51Z</time>
      </trkpt>
      <trkpt lat="44.8829" lon="5.5314">
        <ele>1606.9</ele>
        <time>2022-01-19T09:17:52Z</time>
      </trkpt>
      <trkpt lat="44.8829" lon="5.53139">
        <ele>1608.3</ele>
        <time>2022-01-19T09:17:53Z</time>
      </trkpt>
      <trkpt lat="44.8829" lon="5.53139">
        <ele>1608.3</ele>
        <time>2022-01-19T09:17:54Z</time>
      </trkpt>
      <trkpt lat="44.8829" lon="5.53138">
        <ele>1608.3</ele>
        <time>2022-01-19T09:17:55Z</time>
      </trkpt>
      <trkpt lat="44.8829" lon="5.53138">
        <ele>1608.3</ele>
        <time>2022-01-19T09:17:56Z</time>
      </trkpt>
      <trkpt lat="44.8829" lon="5.53137">
        <ele>1608.4</ele>
        <time>2022-01-19T09:17:57Z</time>
      </trkpt>
      <trkpt lat="44.8829" lon="5.53137">
        <ele>1608.4</ele>
        <time>2022-01-19T09:17:58Z</time>
      </trkpt>
      <trkpt lat="44.8829" lon="5.53137">
        <ele>1608.4</ele>
        <time>2022-01-19T09:17:59Z</time>
      </trkpt>
      <trkpt lat="44.8829" lon="5.53137">
        <ele>1608.4</ele>
        <time>2022-01-19T09:18:00Z</time>
      </trkpt>
      <trkpt lat="44.8829" lon="5.53137">
        <ele>1608.5</ele>
        <time>2022-01-19T09:18:01Z</time>
      </trkpt>
      <trkpt lat="44.8829" lon="5.53137">
        <ele>1608.5</ele>
        <time>2022-01-19T09:18:02Z</time>
      </trkpt>
      <trkpt lat="44.8829" lon="5.53137">
        <ele>1608.5</ele>
        <time>2022-01-19T09:18:03Z</time>
      </trkpt>
      <trkpt lat="44.8829" lon="5.53137">
        <ele>1608.5</ele>
        <time>2022-01-19T09:18:04Z</time>
      </trkpt>
      <trkpt lat="44.8829" lon="5.53137">
        <ele>1608.5</ele>
        <time>2022-01-19T09:18:05Z</time>
      </trkpt>
      <trkpt lat="44.8829" lon="5.53137">
        <ele>1608.6</ele>
        <time>2022-01-19T09:18:06Z</time>
      </trkpt>
      <trkpt lat="44.8829" lon="5.53131">
        <ele>1611.3</ele>
        <time>2022-01-19T09:18:07Z</time>
      </trkpt>
      <trkpt lat="44.88289" lon="5.5313">
        <ele>1611.3</ele>
        <time>2022-01-19T09:18:08Z</time>
      </trkpt>
      <trkpt lat="44.88289" lon="5.53129">
        <ele>1611.3</ele>
        <time>2022-01-19T09:18:09Z</time>
      </trkpt>
      <trkpt lat="44.88289" lon="5.53128">
        <ele>1611.3</ele>
        <time>2022-01-19T09:18:10Z</time>
      </trkpt>
      <trkpt lat="44.88289" lon="5.53128">
        <ele>1611.4</ele>
        <time>2022-01-19T09:18:11Z</time>
      </trkpt>
      <trkpt lat="44.88289" lon="5.53128">
        <ele>1611.4</ele>
        <time>2022-01-19T09:18:12Z</time>
      </trkpt>
      <trkpt lat="44.88289" lon="5.53128">
        <ele>1611.4</ele>
        <time>2022-01-19T09:18:13Z</time>
      </trkpt>
      <trkpt lat="44.88289" lon="5.53128">
        <ele>1611.4</ele>
        <time>2022-01-19T09:18:14Z</time>
      </trkpt>
      <trkpt lat="44.88287" lon="5.53125">
        <ele>1613.2</ele>
        <time>2022-01-19T09:18:15Z</time>
      </trkpt>
      <trkpt lat="44.88288" lon="5.53123">
        <ele>1613.3</ele>
        <time>2022-01-19T09:18:16Z</time>
      </trkpt>
      <trkpt lat="44.88288" lon="5.53123">
        <ele>1614.7</ele>
        <time>2022-01-19T09:18:17Z</time>
      </trkpt>
      <trkpt lat="44.88288" lon="5.53122">
        <ele>1614.8</ele>
        <time>2022-01-19T09:18:18Z</time>
      </trkpt>
      <trkpt lat="44.88287" lon="5.53121">
        <ele>1614.8</ele>
        <time>2022-01-19T09:18:19Z</time>
      </trkpt>
      <trkpt lat="44.88287" lon="5.5312">
        <ele>1614.8</ele>
        <time>2022-01-19T09:18:20Z</time>
      </trkpt>
      <trkpt lat="44.88287" lon="5.53118">
        <ele>1616.4</ele>
        <time>2022-01-19T09:18:21Z</time>
      </trkpt>
      <trkpt lat="44.88287" lon="5.53118">
        <ele>1616.4</ele>
        <time>2022-01-19T09:18:22Z</time>
      </trkpt>
      <trkpt lat="44.88286" lon="5.53117">
        <ele>1616.4</ele>
        <time>2022-01-19T09:18:23Z</time>
      </trkpt>
      <trkpt lat="44.88286" lon="5.53117">
        <ele>1616.4</ele>
        <time>2022-01-19T09:18:24Z</time>
      </trkpt>
      <trkpt lat="44.88287" lon="5.53117">
        <ele>1616.5</ele>
        <time>2022-01-19T09:18:25Z</time>
      </trkpt>
      <trkpt lat="44.88287" lon="5.53117">
        <ele>1616.5</ele>
        <time>2022-01-19T09:18:26Z</time>
      </trkpt>
      <trkpt lat="44.88287" lon="5.53117">
        <ele>1616.5</ele>
        <time>2022-01-19T09:18:27Z</time>
      </trkpt>
      <trkpt lat="44.88287" lon="5.53117">
        <ele>1616.5</ele>
        <time>2022-01-19T09:18:28Z</time>
      </trkpt>
      <trkpt lat="44.88287" lon="5.53117">
        <ele>1616.5</ele>
        <time>2022-01-19T09:18:29Z</time>
      </trkpt>
      <trkpt lat="44.88287" lon="5.53117">
        <ele>1616.6</ele>
        <time>2022-01-19T09:18:30Z</time>
      </trkpt>
      <trkpt lat="44.88287" lon="5.53117">
        <ele>1616.6</ele>
        <time>2022-01-19T09:18:31Z</time>
      </trkpt>
      <trkpt lat="44.88287" lon="5.53117">
        <ele>1616.6</ele>
        <time>2022-01-19T09:18:32Z</time>
      </trkpt>
      <trkpt lat="44.88287" lon="5.53117">
        <ele>1616.6</ele>
        <time>2022-01-19T09:18:33Z</time>
      </trkpt>
      <trkpt lat="44.88287" lon="5.53117">
        <ele>1616.7</ele>
        <time>2022-01-19T09:18:34Z</time>
      </trkpt>
      <trkpt lat="44.88287" lon="5.53117">
        <ele>1616.7</ele>
        <time>2022-01-19T09:18:35Z</time>
      </trkpt>
      <trkpt lat="44.88287" lon="5.53117">
        <ele>1616.7</ele>
        <time>2022-01-19T09:18:36Z</time>
      </trkpt>
      <trkpt lat="44.88287" lon="5.53117">
        <ele>1616.7</ele>
        <time>2022-01-19T09:18:37Z</time>
      </trkpt>
      <trkpt lat="44.88287" lon="5.53117">
        <ele>1616.7</ele>
        <time>2022-01-19T09:18:38Z</time>
      </trkpt>
      <trkpt lat="44.88287" lon="5.53117">
        <ele>1616.8</ele>
        <time>2022-01-19T09:18:39Z</time>
      </trkpt>
      <trkpt lat="44.88287" lon="5.53117">
        <ele>1616.8</ele>
        <time>2022-01-19T09:18:40Z</time>
      </trkpt>
      <trkpt lat="44.88287" lon="5.53117">
        <ele>1616.8</ele>
        <time>2022-01-19T09:18:41Z</time>
      </trkpt>
      <trkpt lat="44.88287" lon="5.53117">
        <ele>1616.8</ele>
        <time>2022-01-19T09:18:42Z</time>
      </trkpt>
      <trkpt lat="44.88287" lon="5.53117">
        <ele>1616.9</ele>
        <time>2022-01-19T09:18:43Z</time>
      </trkpt>
      <trkpt lat="44.88287" lon="5.53117">
        <ele>1616.9</ele>
        <time>2022-01-19T09:18:44Z</time>
      </trkpt>
      <trkpt lat="44.88287" lon="5.53117">
        <ele>1616.9</ele>
        <time>2022-01-19T09:18:45Z</time>
      </trkpt>
      <trkpt lat="44.88287" lon="5.53117">
        <ele>1616.9</ele>
        <time>2022-01-19T09:18:46Z</time>
      </trkpt>
      <trkpt lat="44.88287" lon="5.53117">
        <ele>1616.9</ele>
        <time>2022-01-19T09:18:47Z</time>
      </trkpt>
      <trkpt lat="44.88287" lon="5.53117">
        <ele>1617</ele>
        <time>2022-01-19T09:18:48Z</time>
      </trkpt>
      <trkpt lat="44.88287" lon="5.53117">
        <ele>1617</ele>
        <time>2022-01-19T09:18:49Z</time>
      </trkpt>
      <trkpt lat="44.88287" lon="5.53117">
        <ele>1617</ele>
        <time>2022-01-19T09:18:50Z</time>
      </trkpt>
      <trkpt lat="44.88287" lon="5.53117">
        <ele>1617</ele>
        <time>2022-01-19T09:18:51Z</time>
      </trkpt>
      <trkpt lat="44.88287" lon="5.53117">
        <ele>1617.1</ele>
        <time>2022-01-19T09:18:52Z</time>
      </trkpt>
      <trkpt lat="44.88287" lon="5.53117">
        <ele>1617.1</ele>
        <time>2022-01-19T09:18:53Z</time>
      </trkpt>
      <trkpt lat="44.88287" lon="5.53117">
        <ele>1617.1</ele>
        <time>2022-01-19T09:18:54Z</time>
      </trkpt>
      <trkpt lat="44.88287" lon="5.53117">
        <ele>1617.1</ele>
        <time>2022-01-19T09:18:55Z</time>
      </trkpt>
      <trkpt lat="44.88287" lon="5.53117">
        <ele>1617.1</ele>
        <time>2022-01-19T09:18:56Z</time>
      </trkpt>
      <trkpt lat="44.88287" lon="5.53117">
        <ele>1617.2</ele>
        <time>2022-01-19T09:18:57Z</time>
      </trkpt>
      <trkpt lat="44.88287" lon="5.53117">
        <ele>1617.2</ele>
        <time>2022-01-19T09:18:58Z</time>
      </trkpt>
      <trkpt lat="44.88287" lon="5.53117">
        <ele>1617.2</ele>
        <time>2022-01-19T09:18:59Z</time>
      </trkpt>
      <trkpt lat="44.88287" lon="5.53117">
        <ele>1617.2</ele>
        <time>2022-01-19T09:19:00Z</time>
      </trkpt>
      <trkpt lat="44.88287" lon="5.53117">
        <ele>1617.3</ele>
        <time>2022-01-19T09:19:01Z</time>
      </trkpt>
      <trkpt lat="44.88287" lon="5.53117">
        <ele>1617.3</ele>
        <time>2022-01-19T09:19:02Z</time>
      </trkpt>
      <trkpt lat="44.88287" lon="5.53117">
        <ele>1617.3</ele>
        <time>2022-01-19T09:19:03Z</time>
      </trkpt>
      <trkpt lat="44.88287" lon="5.53117">
        <ele>1617.3</ele>
        <time>2022-01-19T09:19:04Z</time>
      </trkpt>
      <trkpt lat="44.88287" lon="5.53117">
        <ele>1617.3</ele>
        <time>2022-01-19T09:19:05Z</time>
      </trkpt>
      <trkpt lat="44.88287" lon="5.53117">
        <ele>1617.4</ele>
        <time>2022-01-19T09:19:06Z</time>
      </trkpt>
      <trkpt lat="44.88287" lon="5.53117">
        <ele>1617.4</ele>
        <time>2022-01-19T09:19:07Z</time>
      </trkpt>
      <trkpt lat="44.88287" lon="5.53117">
        <ele>1617.4</ele>
        <time>2022-01-19T09:19:08Z</time>
      </trkpt>
      <trkpt lat="44.88287" lon="5.53117">
        <ele>1617.4</ele>
        <time>2022-01-19T09:19:09Z</time>
      </trkpt>
      <trkpt lat="44.88287" lon="5.53117">
        <ele>1617.4</ele>
        <time>2022-01-19T09:19:10Z</time>
      </trkpt>
      <trkpt lat="44.88287" lon="5.53117">
        <ele>1617.5</ele>
        <time>2022-01-19T09:19:11Z</time>
      </trkpt>
      <trkpt lat="44.88287" lon="5.53117">
        <ele>1617.5</ele>
        <time>2022-01-19T09:19:12Z</time>
      </trkpt>
      <trkpt lat="44.88287" lon="5.53117">
        <ele>1617.5</ele>
        <time>2022-01-19T09:19:13Z</time>
      </trkpt>
      <trkpt lat="44.88287" lon="5.53117">
        <ele>1617.5</ele>
        <time>2022-01-19T09:19:14Z</time>
      </trkpt>
      <trkpt lat="44.88287" lon="5.53117">
        <ele>1617.6</ele>
        <time>2022-01-19T09:19:15Z</time>
      </trkpt>
      <trkpt lat="44.88287" lon="5.53117">
        <ele>1617.6</ele>
        <time>2022-01-19T09:19:16Z</time>
      </trkpt>
      <trkpt lat="44.88287" lon="5.53117">
        <ele>1617.6</ele>
        <time>2022-01-19T09:19:17Z</time>
      </trkpt>
      <trkpt lat="44.88287" lon="5.53117">
        <ele>1617.6</ele>
        <time>2022-01-19T09:19:18Z</time>
      </trkpt>
      <trkpt lat="44.88287" lon="5.53117">
        <ele>1617.6</ele>
        <time>2022-01-19T09:19:19Z</time>
      </trkpt>
      <trkpt lat="44.88287" lon="5.53117">
        <ele>1617.7</ele>
        <time>2022-01-19T09:19:20Z</time>
      </trkpt>
      <trkpt lat="44.88287" lon="5.53117">
        <ele>1617.7</ele>
        <time>2022-01-19T09:19:21Z</time>
      </trkpt>
      <trkpt lat="44.88287" lon="5.53117">
        <ele>1617.7</ele>
        <time>2022-01-19T09:19:22Z</time>
      </trkpt>
      <trkpt lat="44.88287" lon="5.53117">
        <ele>1617.7</ele>
        <time>2022-01-19T09:19:23Z</time>
      </trkpt>
      <trkpt lat="44.88287" lon="5.53117">
        <ele>1617.8</ele>
        <time>2022-01-19T09:19:24Z</time>
      </trkpt>
      <trkpt lat="44.88287" lon="5.53117">
        <ele>1617.8</ele>
        <time>2022-01-19T09:19:25Z</time>
      </trkpt>
      <trkpt lat="44.88288" lon="5.53113">
        <ele>1619.4</ele>
        <time>2022-01-19T09:19:26Z</time>
      </trkpt>
      <trkpt lat="44.88288" lon="5.53113">
        <ele>1619.1</ele>
        <time>2022-01-19T09:19:27Z</time>
      </trkpt>
      <trkpt lat="44.88289" lon="5.53112">
        <ele>1619.1</ele>
        <time>2022-01-19T09:19:28Z</time>
      </trkpt>
      <trkpt lat="44.88289" lon="5.53111">
        <ele>1619.1</ele>
        <time>2022-01-19T09:19:29Z</time>
      </trkpt>
      <trkpt lat="44.88289" lon="5.53111">
        <ele>1619.1</ele>
        <time>2022-01-19T09:19:30Z</time>
      </trkpt>
      <trkpt lat="44.88289" lon="5.53111">
        <ele>1619.2</ele>
        <time>2022-01-19T09:19:31Z</time>
      </trkpt>
      <trkpt lat="44.88288" lon="5.53109">
        <ele>1620.9</ele>
        <time>2022-01-19T09:19:32Z</time>
      </trkpt>
      <trkpt lat="44.88289" lon="5.53108">
        <ele>1620.9</ele>
        <time>2022-01-19T09:19:33Z</time>
      </trkpt>
      <trkpt lat="44.88289" lon="5.53108">
        <ele>1620.9</ele>
        <time>2022-01-19T09:19:34Z</time>
      </trkpt>
      <trkpt lat="44.88289" lon="5.53107">
        <ele>1620.9</ele>
        <time>2022-01-19T09:19:35Z</time>
      </trkpt>
      <trkpt lat="44.88289" lon="5.53107">
        <ele>1621</ele>
        <time>2022-01-19T09:19:36Z</time>
      </trkpt>
      <trkpt lat="44.88289" lon="5.53106">
        <ele>1621</ele>
        <time>2022-01-19T09:19:37Z</time>
      </trkpt>
      <trkpt lat="44.88289" lon="5.53105">
        <ele>1622.7</ele>
        <time>2022-01-19T09:19:38Z</time>
      </trkpt>
      <trkpt lat="44.88289" lon="5.53105">
        <ele>1622.7</ele>
        <time>2022-01-19T09:19:39Z</time>
      </trkpt>
      <trkpt lat="44.88289" lon="5.53104">
        <ele>1622.7</ele>
        <time>2022-01-19T09:19:40Z</time>
      </trkpt>
      <trkpt lat="44.88289" lon="5.53104">
        <ele>1622.7</ele>
        <time>2022-01-19T09:19:41Z</time>
      </trkpt>
      <trkpt lat="44.88289" lon="5.53103">
        <ele>1622.8</ele>
        <time>2022-01-19T09:19:42Z</time>
      </trkpt>
      <trkpt lat="44.88289" lon="5.53103">
        <ele>1622.8</ele>
        <time>2022-01-19T09:19:43Z</time>
      </trkpt>
      <trkpt lat="44.88287" lon="5.53103">
        <ele>1623.2</ele>
        <time>2022-01-19T09:19:44Z</time>
      </trkpt>
      <trkpt lat="44.88287" lon="5.53101">
        <ele>1624.8</ele>
        <time>2022-01-19T09:19:45Z</time>
      </trkpt>
      <trkpt lat="44.88287" lon="5.53101">
        <ele>1624.9</ele>
        <time>2022-01-19T09:19:46Z</time>
      </trkpt>
      <trkpt lat="44.88287" lon="5.53099">
        <ele>1624.9</ele>
        <time>2022-01-19T09:19:47Z</time>
      </trkpt>
      <trkpt lat="44.88287" lon="5.53098">
        <ele>1624.9</ele>
        <time>2022-01-19T09:19:48Z</time>
      </trkpt>
      <trkpt lat="44.88287" lon="5.53098">
        <ele>1624.9</ele>
        <time>2022-01-19T09:19:49Z</time>
      </trkpt>
      <trkpt lat="44.88287" lon="5.53097">
        <ele>1626.5</ele>
        <time>2022-01-19T09:19:50Z</time>
      </trkpt>
      <trkpt lat="44.88287" lon="5.53096">
        <ele>1626.5</ele>
        <time>2022-01-19T09:19:51Z</time>
      </trkpt>
      <trkpt lat="44.88288" lon="5.53096">
        <ele>1626.1</ele>
        <time>2022-01-19T09:19:52Z</time>
      </trkpt>
      <trkpt lat="44.88289" lon="5.53096">
        <ele>1626.1</ele>
        <time>2022-01-19T09:19:53Z</time>
      </trkpt>
      <trkpt lat="44.88289" lon="5.53096">
        <ele>1626.2</ele>
        <time>2022-01-19T09:19:54Z</time>
      </trkpt>
      <trkpt lat="44.88289" lon="5.53096">
        <ele>1626.2</ele>
        <time>2022-01-19T09:19:55Z</time>
      </trkpt>
      <trkpt lat="44.88289" lon="5.53096">
        <ele>1626.2</ele>
        <time>2022-01-19T09:19:56Z</time>
      </trkpt>
      <trkpt lat="44.88289" lon="5.53096">
        <ele>1626.2</ele>
        <time>2022-01-19T09:19:57Z</time>
      </trkpt>
      <trkpt lat="44.88289" lon="5.53096">
        <ele>1626.2</ele>
        <time>2022-01-19T09:19:58Z</time>
      </trkpt>
      <trkpt lat="44.88287" lon="5.53091">
        <ele>1628.1</ele>
        <time>2022-01-19T09:19:59Z</time>
      </trkpt>
      <trkpt lat="44.88287" lon="5.5309">
        <ele>1628.1</ele>
        <time>2022-01-19T09:20:00Z</time>
      </trkpt>
      <trkpt lat="44.88288" lon="5.5309">
        <ele>1628.2</ele>
        <time>2022-01-19T09:20:01Z</time>
      </trkpt>
      <trkpt lat="44.88288" lon="5.53089">
        <ele>1628.2</ele>
        <time>2022-01-19T09:20:02Z</time>
      </trkpt>
      <trkpt lat="44.88287" lon="5.53088">
        <ele>1629.6</ele>
        <time>2022-01-19T09:20:03Z</time>
      </trkpt>
      <trkpt lat="44.88287" lon="5.53088">
        <ele>1629.6</ele>
        <time>2022-01-19T09:20:04Z</time>
      </trkpt>
      <trkpt lat="44.88286" lon="5.53087">
        <ele>1629.6</ele>
        <time>2022-01-19T09:20:05Z</time>
      </trkpt>
      <trkpt lat="44.88286" lon="5.53087">
        <ele>1629.7</ele>
        <time>2022-01-19T09:20:06Z</time>
      </trkpt>
      <trkpt lat="44.88286" lon="5.53086">
        <ele>1629.7</ele>
        <time>2022-01-19T09:20:07Z</time>
      </trkpt>
      <trkpt lat="44.88285" lon="5.53087">
        <ele>1629.7</ele>
        <time>2022-01-19T09:20:08Z</time>
      </trkpt>
      <trkpt lat="44.88286" lon="5.53087">
        <ele>1629.7</ele>
        <time>2022-01-19T09:20:09Z</time>
      </trkpt>
      <trkpt lat="44.88286" lon="5.53086">
        <ele>1629.7</ele>
        <time>2022-01-19T09:20:10Z</time>
      </trkpt>
      <trkpt lat="44.88285" lon="5.53086">
        <ele>1629.8</ele>
        <time>2022-01-19T09:20:11Z</time>
      </trkpt>
      <trkpt lat="44.88285" lon="5.53085">
        <ele>1629.8</ele>
        <time>2022-01-19T09:20:12Z</time>
      </trkpt>
      <trkpt lat="44.88285" lon="5.53084">
        <ele>1631.2</ele>
        <time>2022-01-19T09:20:13Z</time>
      </trkpt>
      <trkpt lat="44.88285" lon="5.53084">
        <ele>1631.2</ele>
        <time>2022-01-19T09:20:14Z</time>
      </trkpt>
      <trkpt lat="44.88285" lon="5.53083">
        <ele>1631.2</ele>
        <time>2022-01-19T09:20:15Z</time>
      </trkpt>
      <trkpt lat="44.88285" lon="5.53083">
        <ele>1631.2</ele>
        <time>2022-01-19T09:20:16Z</time>
      </trkpt>
      <trkpt lat="44.88285" lon="5.53083">
        <ele>1631.3</ele>
        <time>2022-01-19T09:20:17Z</time>
      </trkpt>
      <trkpt lat="44.88286" lon="5.53083">
        <ele>1631.3</ele>
        <time>2022-01-19T09:20:18Z</time>
      </trkpt>
      <trkpt lat="44.88286" lon="5.53082">
        <ele>1631.3</ele>
        <time>2022-01-19T09:20:19Z</time>
      </trkpt>
      <trkpt lat="44.88286" lon="5.53081">
        <ele>1631.3</ele>
        <time>2022-01-19T09:20:20Z</time>
      </trkpt>
      <trkpt lat="44.88286" lon="5.53081">
        <ele>1631.4</ele>
        <time>2022-01-19T09:20:21Z</time>
      </trkpt>
      <trkpt lat="44.88286" lon="5.53081">
        <ele>1631.4</ele>
        <time>2022-01-19T09:20:22Z</time>
      </trkpt>
      <trkpt lat="44.88287" lon="5.5308">
        <ele>1631.4</ele>
        <time>2022-01-19T09:20:23Z</time>
      </trkpt>
      <trkpt lat="44.88287" lon="5.5308">
        <ele>1631.4</ele>
        <time>2022-01-19T09:20:24Z</time>
      </trkpt>
      <trkpt lat="44.88287" lon="5.53079">
        <ele>1632.8</ele>
        <time>2022-01-19T09:20:25Z</time>
      </trkpt>
      <trkpt lat="44.88288" lon="5.53079">
        <ele>1632.8</ele>
        <time>2022-01-19T09:20:26Z</time>
      </trkpt>
      <trkpt lat="44.88289" lon="5.53078">
        <ele>1632.4</ele>
        <time>2022-01-19T09:20:27Z</time>
      </trkpt>
      <trkpt lat="44.88289" lon="5.53078">
        <ele>1632.4</ele>
        <time>2022-01-19T09:20:28Z</time>
      </trkpt>
      <trkpt lat="44.88289" lon="5.53077">
        <ele>1632.5</ele>
        <time>2022-01-19T09:20:29Z</time>
      </trkpt>
      <trkpt lat="44.88288" lon="5.53077">
        <ele>1632.5</ele>
        <time>2022-01-19T09:20:30Z</time>
      </trkpt>
      <trkpt lat="44.88288" lon="5.53077">
        <ele>1632.5</ele>
        <time>2022-01-19T09:20:31Z</time>
      </trkpt>
      <trkpt lat="44.88287" lon="5.53076">
        <ele>1632.9</ele>
        <time>2022-01-19T09:20:32Z</time>
      </trkpt>
      <trkpt lat="44.88287" lon="5.53076">
        <ele>1633</ele>
        <time>2022-01-19T09:20:33Z</time>
      </trkpt>
      <trkpt lat="44.88286" lon="5.53076">
        <ele>1634.3</ele>
        <time>2022-01-19T09:20:34Z</time>
      </trkpt>
      <trkpt lat="44.88286" lon="5.53075">
        <ele>1634.3</ele>
        <time>2022-01-19T09:20:35Z</time>
      </trkpt>
      <trkpt lat="44.88286" lon="5.53075">
        <ele>1634.4</ele>
        <time>2022-01-19T09:20:36Z</time>
      </trkpt>
      <trkpt lat="44.88286" lon="5.53075">
        <ele>1634.4</ele>
        <time>2022-01-19T09:20:37Z</time>
      </trkpt>
      <trkpt lat="44.88286" lon="5.53074">
        <ele>1634.4</ele>
        <time>2022-01-19T09:20:38Z</time>
      </trkpt>
      <trkpt lat="44.88286" lon="5.53074">
        <ele>1634.4</ele>
        <time>2022-01-19T09:20:39Z</time>
      </trkpt>
      <trkpt lat="44.88284" lon="5.53073">
        <ele>1634.9</ele>
        <time>2022-01-19T09:20:40Z</time>
      </trkpt>
      <trkpt lat="44.88284" lon="5.53072">
        <ele>1634.9</ele>
        <time>2022-01-19T09:20:41Z</time>
      </trkpt>
      <trkpt lat="44.88285" lon="5.53072">
        <ele>1634.9</ele>
        <time>2022-01-19T09:20:42Z</time>
      </trkpt>
      <trkpt lat="44.88285" lon="5.53071">
        <ele>1635.9</ele>
        <time>2022-01-19T09:20:43Z</time>
      </trkpt>
      <trkpt lat="44.88285" lon="5.5307">
        <ele>1635.9</ele>
        <time>2022-01-19T09:20:44Z</time>
      </trkpt>
      <trkpt lat="44.88285" lon="5.53069">
        <ele>1635.9</ele>
        <time>2022-01-19T09:20:45Z</time>
      </trkpt>
      <trkpt lat="44.88285" lon="5.53068">
        <ele>1635.9</ele>
        <time>2022-01-19T09:20:46Z</time>
      </trkpt>
      <trkpt lat="44.88286" lon="5.53067">
        <ele>1637.3</ele>
        <time>2022-01-19T09:20:47Z</time>
      </trkpt>
      <trkpt lat="44.88287" lon="5.53066">
        <ele>1637.3</ele>
        <time>2022-01-19T09:20:48Z</time>
      </trkpt>
      <trkpt lat="44.88287" lon="5.53066">
        <ele>1637.3</ele>
        <time>2022-01-19T09:20:49Z</time>
      </trkpt>
      <trkpt lat="44.88288" lon="5.53065">
        <ele>1637.4</ele>
        <time>2022-01-19T09:20:50Z</time>
      </trkpt>
      <trkpt lat="44.88288" lon="5.53064">
        <ele>1637</ele>
        <time>2022-01-19T09:20:51Z</time>
      </trkpt>
      <trkpt lat="44.88289" lon="5.53064">
        <ele>1637</ele>
        <time>2022-01-19T09:20:52Z</time>
      </trkpt>
      <trkpt lat="44.88289" lon="5.53063">
        <ele>1638.4</ele>
        <time>2022-01-19T09:20:53Z</time>
      </trkpt>
      <trkpt lat="44.88289" lon="5.53062">
        <ele>1638.4</ele>
        <time>2022-01-19T09:20:54Z</time>
      </trkpt>
      <trkpt lat="44.88289" lon="5.53061">
        <ele>1638.4</ele>
        <time>2022-01-19T09:20:55Z</time>
      </trkpt>
      <trkpt lat="44.8829" lon="5.53061">
        <ele>1638.4</ele>
        <time>2022-01-19T09:20:56Z</time>
      </trkpt>
      <trkpt lat="44.88289" lon="5.53061">
        <ele>1638.5</ele>
        <time>2022-01-19T09:20:57Z</time>
      </trkpt>
      <trkpt lat="44.88289" lon="5.5306">
        <ele>1638.5</ele>
        <time>2022-01-19T09:20:58Z</time>
      </trkpt>
      <trkpt lat="44.88289" lon="5.5306">
        <ele>1638.5</ele>
        <time>2022-01-19T09:20:59Z</time>
      </trkpt>
      <trkpt lat="44.88289" lon="5.5306">
        <ele>1638.5</ele>
        <time>2022-01-19T09:21:00Z</time>
      </trkpt>
      <trkpt lat="44.88289" lon="5.5306">
        <ele>1638.5</ele>
        <time>2022-01-19T09:21:01Z</time>
      </trkpt>
      <trkpt lat="44.88291" lon="5.53059">
        <ele>1638.6</ele>
        <time>2022-01-19T09:21:02Z</time>
      </trkpt>
      <trkpt lat="44.88291" lon="5.53058">
        <ele>1639.5</ele>
        <time>2022-01-19T09:21:03Z</time>
      </trkpt>
      <trkpt lat="44.88291" lon="5.53057">
        <ele>1639.5</ele>
        <time>2022-01-19T09:21:04Z</time>
      </trkpt>
      <trkpt lat="44.88292" lon="5.53057">
        <ele>1639.6</ele>
        <time>2022-01-19T09:21:05Z</time>
      </trkpt>
      <trkpt lat="44.88291" lon="5.53056">
        <ele>1639.6</ele>
        <time>2022-01-19T09:21:06Z</time>
      </trkpt>
      <trkpt lat="44.88291" lon="5.53056">
        <ele>1639.6</ele>
        <time>2022-01-19T09:21:07Z</time>
      </trkpt>
      <trkpt lat="44.88291" lon="5.53055">
        <ele>1639.6</ele>
        <time>2022-01-19T09:21:08Z</time>
      </trkpt>
      <trkpt lat="44.88291" lon="5.53054">
        <ele>1641</ele>
        <time>2022-01-19T09:21:09Z</time>
      </trkpt>
      <trkpt lat="44.88291" lon="5.53053">
        <ele>1641</ele>
        <time>2022-01-19T09:21:10Z</time>
      </trkpt>
      <trkpt lat="44.88291" lon="5.53051">
        <ele>1641</ele>
        <time>2022-01-19T09:21:11Z</time>
      </trkpt>
      <trkpt lat="44.88291" lon="5.5305">
        <ele>1641</ele>
        <time>2022-01-19T09:21:12Z</time>
      </trkpt>
      <trkpt lat="44.8829" lon="5.53049">
        <ele>1642.8</ele>
        <time>2022-01-19T09:21:13Z</time>
      </trkpt>
      <trkpt lat="44.88289" lon="5.53048">
        <ele>1642.8</ele>
        <time>2022-01-19T09:21:14Z</time>
      </trkpt>
      <trkpt lat="44.88289" lon="5.53048">
        <ele>1642.8</ele>
        <time>2022-01-19T09:21:15Z</time>
      </trkpt>
      <trkpt lat="44.88289" lon="5.53047">
        <ele>1642.8</ele>
        <time>2022-01-19T09:21:16Z</time>
      </trkpt>
      <trkpt lat="44.88289" lon="5.53046">
        <ele>1644.1</ele>
        <time>2022-01-19T09:21:17Z</time>
      </trkpt>
      <trkpt lat="44.8829" lon="5.53046">
        <ele>1642.9</ele>
        <time>2022-01-19T09:21:18Z</time>
      </trkpt>
      <trkpt lat="44.8829" lon="5.53046">
        <ele>1644.1</ele>
        <time>2022-01-19T09:21:19Z</time>
      </trkpt>
      <trkpt lat="44.88289" lon="5.53045">
        <ele>1644.1</ele>
        <time>2022-01-19T09:21:20Z</time>
      </trkpt>
      <trkpt lat="44.88288" lon="5.53044">
        <ele>1644.1</ele>
        <time>2022-01-19T09:21:21Z</time>
      </trkpt>
      <trkpt lat="44.88288" lon="5.53044">
        <ele>1644.2</ele>
        <time>2022-01-19T09:21:22Z</time>
      </trkpt>
      <trkpt lat="44.88287" lon="5.53043">
        <ele>1644.6</ele>
        <time>2022-01-19T09:21:23Z</time>
      </trkpt>
      <trkpt lat="44.88287" lon="5.53043">
        <ele>1644.6</ele>
        <time>2022-01-19T09:21:24Z</time>
      </trkpt>
      <trkpt lat="44.88286" lon="5.53042">
        <ele>1644.7</ele>
        <time>2022-01-19T09:21:25Z</time>
      </trkpt>
      <trkpt lat="44.88285" lon="5.53041">
        <ele>1645.9</ele>
        <time>2022-01-19T09:21:26Z</time>
      </trkpt>
      <trkpt lat="44.88284" lon="5.53041">
        <ele>1646.4</ele>
        <time>2022-01-19T09:21:27Z</time>
      </trkpt>
      <trkpt lat="44.88284" lon="5.5304">
        <ele>1646.4</ele>
        <time>2022-01-19T09:21:28Z</time>
      </trkpt>
      <trkpt lat="44.88283" lon="5.53039">
        <ele>1646.4</ele>
        <time>2022-01-19T09:21:29Z</time>
      </trkpt>
      <trkpt lat="44.88282" lon="5.53039">
        <ele>1646.4</ele>
        <time>2022-01-19T09:21:30Z</time>
      </trkpt>
      <trkpt lat="44.88281" lon="5.53039">
        <ele>1646.9</ele>
        <time>2022-01-19T09:21:31Z</time>
      </trkpt>
      <trkpt lat="44.88281" lon="5.53038">
        <ele>1646.9</ele>
        <time>2022-01-19T09:21:32Z</time>
      </trkpt>
      <trkpt lat="44.8828" lon="5.53038">
        <ele>1647</ele>
        <time>2022-01-19T09:21:33Z</time>
      </trkpt>
      <trkpt lat="44.88279" lon="5.53038">
        <ele>1647</ele>
        <time>2022-01-19T09:21:34Z</time>
      </trkpt>
      <trkpt lat="44.88279" lon="5.53038">
        <ele>1647</ele>
        <time>2022-01-19T09:21:35Z</time>
      </trkpt>
      <trkpt lat="44.88278" lon="5.53037">
        <ele>1647.5</ele>
        <time>2022-01-19T09:21:36Z</time>
      </trkpt>
      <trkpt lat="44.88277" lon="5.53037">
        <ele>1648.8</ele>
        <time>2022-01-19T09:21:37Z</time>
      </trkpt>
      <trkpt lat="44.88277" lon="5.53036">
        <ele>1648.8</ele>
        <time>2022-01-19T09:21:38Z</time>
      </trkpt>
      <trkpt lat="44.88276" lon="5.53037">
        <ele>1648.9</ele>
        <time>2022-01-19T09:21:39Z</time>
      </trkpt>
      <trkpt lat="44.88275" lon="5.53037">
        <ele>1648.1</ele>
        <time>2022-01-19T09:21:40Z</time>
      </trkpt>
      <trkpt lat="44.88274" lon="5.53037">
        <ele>1648.1</ele>
        <time>2022-01-19T09:21:41Z</time>
      </trkpt>
      <trkpt lat="44.88274" lon="5.53037">
        <ele>1649.4</ele>
        <time>2022-01-19T09:21:42Z</time>
      </trkpt>
      <trkpt lat="44.88273" lon="5.53037">
        <ele>1649.4</ele>
        <time>2022-01-19T09:21:43Z</time>
      </trkpt>
      <trkpt lat="44.88273" lon="5.53038">
        <ele>1648.7</ele>
        <time>2022-01-19T09:21:44Z</time>
      </trkpt>
      <trkpt lat="44.88271" lon="5.53039">
        <ele>1648.7</ele>
        <time>2022-01-19T09:21:45Z</time>
      </trkpt>
      <trkpt lat="44.88271" lon="5.53039">
        <ele>1648.7</ele>
        <time>2022-01-19T09:21:46Z</time>
      </trkpt>
      <trkpt lat="44.8827" lon="5.5304">
        <ele>1648.7</ele>
        <time>2022-01-19T09:21:47Z</time>
      </trkpt>
      <trkpt lat="44.88269" lon="5.5304">
        <ele>1649.2</ele>
        <time>2022-01-19T09:21:48Z</time>
      </trkpt>
      <trkpt lat="44.88268" lon="5.5304">
        <ele>1649.2</ele>
        <time>2022-01-19T09:21:49Z</time>
      </trkpt>
      <trkpt lat="44.88268" lon="5.53041">
        <ele>1649.3</ele>
        <time>2022-01-19T09:21:50Z</time>
      </trkpt>
      <trkpt lat="44.88267" lon="5.53041">
        <ele>1649.3</ele>
        <time>2022-01-19T09:21:51Z</time>
      </trkpt>
      <trkpt lat="44.88266" lon="5.53042">
        <ele>1648.5</ele>
        <time>2022-01-19T09:21:52Z</time>
      </trkpt>
      <trkpt lat="44.88266" lon="5.53043">
        <ele>1648.5</ele>
        <time>2022-01-19T09:21:53Z</time>
      </trkpt>
      <trkpt lat="44.88265" lon="5.53045">
        <ele>1648.6</ele>
        <time>2022-01-19T09:21:54Z</time>
      </trkpt>
      <trkpt lat="44.88265" lon="5.53045">
        <ele>1648.6</ele>
        <time>2022-01-19T09:21:55Z</time>
      </trkpt>
      <trkpt lat="44.88264" lon="5.53046">
        <ele>1648.6</ele>
        <time>2022-01-19T09:21:56Z</time>
      </trkpt>
      <trkpt lat="44.88263" lon="5.53046">
        <ele>1648.6</ele>
        <time>2022-01-19T09:21:57Z</time>
      </trkpt>
      <trkpt lat="44.88263" lon="5.53046">
        <ele>1649.1</ele>
        <time>2022-01-19T09:21:58Z</time>
      </trkpt>
      <trkpt lat="44.88262" lon="5.53045">
        <ele>1649.1</ele>
        <time>2022-01-19T09:21:59Z</time>
      </trkpt>
      <trkpt lat="44.88262" lon="5.53045">
        <ele>1649.1</ele>
        <time>2022-01-19T09:22:00Z</time>
      </trkpt>
      <trkpt lat="44.88261" lon="5.53045">
        <ele>1649.1</ele>
        <time>2022-01-19T09:22:01Z</time>
      </trkpt>
      <trkpt lat="44.8826" lon="5.53044">
        <ele>1649.6</ele>
        <time>2022-01-19T09:22:02Z</time>
      </trkpt>
      <trkpt lat="44.8826" lon="5.53044">
        <ele>1649.6</ele>
        <time>2022-01-19T09:22:03Z</time>
      </trkpt>
      <trkpt lat="44.8826" lon="5.53044">
        <ele>1649.6</ele>
        <time>2022-01-19T09:22:04Z</time>
      </trkpt>
      <trkpt lat="44.88258" lon="5.53044">
        <ele>1649.6</ele>
        <time>2022-01-19T09:22:05Z</time>
      </trkpt>
      <trkpt lat="44.88258" lon="5.53044">
        <ele>1649.7</ele>
        <time>2022-01-19T09:22:06Z</time>
      </trkpt>
      <trkpt lat="44.88257" lon="5.53044">
        <ele>1650.2</ele>
        <time>2022-01-19T09:22:07Z</time>
      </trkpt>
      <trkpt lat="44.88257" lon="5.53044">
        <ele>1650.2</ele>
        <time>2022-01-19T09:22:08Z</time>
      </trkpt>
      <trkpt lat="44.88257" lon="5.53044">
        <ele>1650.2</ele>
        <time>2022-01-19T09:22:09Z</time>
      </trkpt>
      <trkpt lat="44.88256" lon="5.53044">
        <ele>1650.2</ele>
        <time>2022-01-19T09:22:10Z</time>
      </trkpt>
      <trkpt lat="44.88255" lon="5.53045">
        <ele>1650.2</ele>
        <time>2022-01-19T09:22:11Z</time>
      </trkpt>
      <trkpt lat="44.88255" lon="5.53045">
        <ele>1650.3</ele>
        <time>2022-01-19T09:22:12Z</time>
      </trkpt>
      <trkpt lat="44.88254" lon="5.53046">
        <ele>1650.8</ele>
        <time>2022-01-19T09:22:13Z</time>
      </trkpt>
      <trkpt lat="44.88254" lon="5.53046">
        <ele>1650.8</ele>
        <time>2022-01-19T09:22:14Z</time>
      </trkpt>
      <trkpt lat="44.88253" lon="5.53046">
        <ele>1649.6</ele>
        <time>2022-01-19T09:22:15Z</time>
      </trkpt>
      <trkpt lat="44.88253" lon="5.53046">
        <ele>1649.7</ele>
        <time>2022-01-19T09:22:16Z</time>
      </trkpt>
      <trkpt lat="44.88252" lon="5.53046">
        <ele>1649.7</ele>
        <time>2022-01-19T09:22:17Z</time>
      </trkpt>
      <trkpt lat="44.88251" lon="5.53047">
        <ele>1650.2</ele>
        <time>2022-01-19T09:22:18Z</time>
      </trkpt>
      <trkpt lat="44.8825" lon="5.53047">
        <ele>1650.3</ele>
        <time>2022-01-19T09:22:19Z</time>
      </trkpt>
      <trkpt lat="44.88249" lon="5.53047">
        <ele>1650.3</ele>
        <time>2022-01-19T09:22:20Z</time>
      </trkpt>
      <trkpt lat="44.88249" lon="5.53046">
        <ele>1650.3</ele>
        <time>2022-01-19T09:22:21Z</time>
      </trkpt>
      <trkpt lat="44.88248" lon="5.53046">
        <ele>1650.9</ele>
        <time>2022-01-19T09:22:22Z</time>
      </trkpt>
      <trkpt lat="44.88247" lon="5.53046">
        <ele>1652.1</ele>
        <time>2022-01-19T09:22:23Z</time>
      </trkpt>
      <trkpt lat="44.88247" lon="5.53046">
        <ele>1650.9</ele>
        <time>2022-01-19T09:22:24Z</time>
      </trkpt>
      <trkpt lat="44.88246" lon="5.53045">
        <ele>1652.1</ele>
        <time>2022-01-19T09:22:25Z</time>
      </trkpt>
      <trkpt lat="44.88245" lon="5.53045">
        <ele>1652.7</ele>
        <time>2022-01-19T09:22:26Z</time>
      </trkpt>
      <trkpt lat="44.88244" lon="5.53045">
        <ele>1652.7</ele>
        <time>2022-01-19T09:22:27Z</time>
      </trkpt>
      <trkpt lat="44.88243" lon="5.53045">
        <ele>1652.7</ele>
        <time>2022-01-19T09:22:28Z</time>
      </trkpt>
      <trkpt lat="44.88242" lon="5.53044">
        <ele>1652.7</ele>
        <time>2022-01-19T09:22:29Z</time>
      </trkpt>
      <trkpt lat="44.88242" lon="5.53043">
        <ele>1653.2</ele>
        <time>2022-01-19T09:22:30Z</time>
      </trkpt>
      <trkpt lat="44.88241" lon="5.53042">
        <ele>1653.2</ele>
        <time>2022-01-19T09:22:31Z</time>
      </trkpt>
      <trkpt lat="44.88241" lon="5.53043">
        <ele>1653.3</ele>
        <time>2022-01-19T09:22:32Z</time>
      </trkpt>
      <trkpt lat="44.8824" lon="5.53042">
        <ele>1653.3</ele>
        <time>2022-01-19T09:22:33Z</time>
      </trkpt>
      <trkpt lat="44.8824" lon="5.53043">
        <ele>1653.3</ele>
        <time>2022-01-19T09:22:34Z</time>
      </trkpt>
      <trkpt lat="44.88239" lon="5.53044">
        <ele>1653.3</ele>
        <time>2022-01-19T09:22:35Z</time>
      </trkpt>
      <trkpt lat="44.88239" lon="5.53046">
        <ele>1653.8</ele>
        <time>2022-01-19T09:22:36Z</time>
      </trkpt>
      <trkpt lat="44.88239" lon="5.53047">
        <ele>1652.6</ele>
        <time>2022-01-19T09:22:37Z</time>
      </trkpt>
      <trkpt lat="44.88238" lon="5.53047">
        <ele>1652.7</ele>
        <time>2022-01-19T09:22:38Z</time>
      </trkpt>
      <trkpt lat="44.88238" lon="5.53047">
        <ele>1652.7</ele>
        <time>2022-01-19T09:22:39Z</time>
      </trkpt>
      <trkpt lat="44.88237" lon="5.53047">
        <ele>1652.7</ele>
        <time>2022-01-19T09:22:40Z</time>
      </trkpt>
      <trkpt lat="44.88236" lon="5.53048">
        <ele>1652.7</ele>
        <time>2022-01-19T09:22:41Z</time>
      </trkpt>
      <trkpt lat="44.88236" lon="5.53048">
        <ele>1653.2</ele>
        <time>2022-01-19T09:22:42Z</time>
      </trkpt>
      <trkpt lat="44.88235" lon="5.53048">
        <ele>1653.2</ele>
        <time>2022-01-19T09:22:43Z</time>
      </trkpt>
      <trkpt lat="44.88234" lon="5.53049">
        <ele>1653.2</ele>
        <time>2022-01-19T09:22:44Z</time>
      </trkpt>
      <trkpt lat="44.88233" lon="5.5305">
        <ele>1653.7</ele>
        <time>2022-01-19T09:22:45Z</time>
      </trkpt>
      <trkpt lat="44.88232" lon="5.5305">
        <ele>1652.5</ele>
        <time>2022-01-19T09:22:46Z</time>
      </trkpt>
      <trkpt lat="44.88232" lon="5.5305">
        <ele>1653.8</ele>
        <time>2022-01-19T09:22:47Z</time>
      </trkpt>
      <trkpt lat="44.88231" lon="5.53051">
        <ele>1652.5</ele>
        <time>2022-01-19T09:22:48Z</time>
      </trkpt>
      <trkpt lat="44.88231" lon="5.53051">
        <ele>1652.6</ele>
        <time>2022-01-19T09:22:49Z</time>
      </trkpt>
      <trkpt lat="44.8823" lon="5.53054">
        <ele>1652.6</ele>
        <time>2022-01-19T09:22:50Z</time>
      </trkpt>
      <trkpt lat="44.8823" lon="5.53055">
        <ele>1651.8</ele>
        <time>2022-01-19T09:22:51Z</time>
      </trkpt>
      <trkpt lat="44.88229" lon="5.53055">
        <ele>1651.8</ele>
        <time>2022-01-19T09:22:52Z</time>
      </trkpt>
      <trkpt lat="44.88228" lon="5.53055">
        <ele>1651.8</ele>
        <time>2022-01-19T09:22:53Z</time>
      </trkpt>
      <trkpt lat="44.88228" lon="5.53055">
        <ele>1651.8</ele>
        <time>2022-01-19T09:22:54Z</time>
      </trkpt>
      <trkpt lat="44.88228" lon="5.53055">
        <ele>1651.8</ele>
        <time>2022-01-19T09:22:55Z</time>
      </trkpt>
      <trkpt lat="44.88227" lon="5.53056">
        <ele>1652.3</ele>
        <time>2022-01-19T09:22:56Z</time>
      </trkpt>
      <trkpt lat="44.88226" lon="5.53057">
        <ele>1652.4</ele>
        <time>2022-01-19T09:22:57Z</time>
      </trkpt>
      <trkpt lat="44.88225" lon="5.53058">
        <ele>1652.4</ele>
        <time>2022-01-19T09:22:58Z</time>
      </trkpt>
      <trkpt lat="44.88225" lon="5.53058">
        <ele>1652.5</ele>
        <time>2022-01-19T09:22:59Z</time>
      </trkpt>
      <trkpt lat="44.88224" lon="5.53058">
        <ele>1652.6</ele>
        <time>2022-01-19T09:23:00Z</time>
      </trkpt>
      <trkpt lat="44.88223" lon="5.53058">
        <ele>1652.8</ele>
        <time>2022-01-19T09:23:01Z</time>
      </trkpt>
      <trkpt lat="44.88223" lon="5.53057">
        <ele>1653</ele>
        <time>2022-01-19T09:23:02Z</time>
      </trkpt>
      <trkpt lat="44.88222" lon="5.53056">
        <ele>1653.1</ele>
        <time>2022-01-19T09:23:03Z</time>
      </trkpt>
      <trkpt lat="44.88222" lon="5.53056">
        <ele>1653.1</ele>
        <time>2022-01-19T09:23:04Z</time>
      </trkpt>
      <trkpt lat="44.88221" lon="5.53056">
        <ele>1653.2</ele>
        <time>2022-01-19T09:23:05Z</time>
      </trkpt>
      <trkpt lat="44.88221" lon="5.53056">
        <ele>1653.3</ele>
        <time>2022-01-19T09:23:06Z</time>
      </trkpt>
      <trkpt lat="44.88221" lon="5.53054">
        <ele>1653.5</ele>
        <time>2022-01-19T09:23:07Z</time>
      </trkpt>
      <trkpt lat="44.88221" lon="5.53053">
        <ele>1653.6</ele>
        <time>2022-01-19T09:23:08Z</time>
      </trkpt>
      <trkpt lat="44.88221" lon="5.53053">
        <ele>1653.7</ele>
        <time>2022-01-19T09:23:09Z</time>
      </trkpt>
      <trkpt lat="44.88221" lon="5.53053">
        <ele>1653.7</ele>
        <time>2022-01-19T09:23:10Z</time>
      </trkpt>
      <trkpt lat="44.88221" lon="5.53052">
        <ele>1653.8</ele>
        <time>2022-01-19T09:23:11Z</time>
      </trkpt>
      <trkpt lat="44.88221" lon="5.53052">
        <ele>1653.9</ele>
        <time>2022-01-19T09:23:12Z</time>
      </trkpt>
      <trkpt lat="44.88221" lon="5.53052">
        <ele>1653.9</ele>
        <time>2022-01-19T09:23:13Z</time>
      </trkpt>
      <trkpt lat="44.88222" lon="5.53052">
        <ele>1654</ele>
        <time>2022-01-19T09:23:14Z</time>
      </trkpt>
      <trkpt lat="44.88222" lon="5.53052">
        <ele>1654</ele>
        <time>2022-01-19T09:23:15Z</time>
      </trkpt>
      <trkpt lat="44.88222" lon="5.53052">
        <ele>1654</ele>
        <time>2022-01-19T09:23:16Z</time>
      </trkpt>
      <trkpt lat="44.88222" lon="5.53052">
        <ele>1654</ele>
        <time>2022-01-19T09:23:17Z</time>
      </trkpt>
      <trkpt lat="44.88222" lon="5.53052">
        <ele>1654</ele>
        <time>2022-01-19T09:23:18Z</time>
      </trkpt>
      <trkpt lat="44.88222" lon="5.53052">
        <ele>1654</ele>
        <time>2022-01-19T09:23:19Z</time>
      </trkpt>
      <trkpt lat="44.88222" lon="5.53052">
        <ele>1654</ele>
        <time>2022-01-19T09:23:20Z</time>
      </trkpt>
      <trkpt lat="44.88222" lon="5.53052">
        <ele>1654</ele>
        <time>2022-01-19T09:23:21Z</time>
      </trkpt>
      <trkpt lat="44.88222" lon="5.53052">
        <ele>1654</ele>
        <time>2022-01-19T09:23:22Z</time>
      </trkpt>
      <trkpt lat="44.88222" lon="5.53052">
        <ele>1654</ele>
        <time>2022-01-19T09:23:23Z</time>
      </trkpt>
      <trkpt lat="44.88222" lon="5.53052">
        <ele>1654</ele>
        <time>2022-01-19T09:23:24Z</time>
      </trkpt>
      <trkpt lat="44.88222" lon="5.53052">
        <ele>1654</ele>
        <time>2022-01-19T09:23:25Z</time>
      </trkpt>
      <trkpt lat="44.88222" lon="5.53052">
        <ele>1654</ele>
        <time>2022-01-19T09:23:26Z</time>
      </trkpt>
      <trkpt lat="44.88222" lon="5.53052">
        <ele>1654</ele>
        <time>2022-01-19T09:23:27Z</time>
      </trkpt>
      <trkpt lat="44.88222" lon="5.53052">
        <ele>1654</ele>
        <time>2022-01-19T09:23:28Z</time>
      </trkpt>
      <trkpt lat="44.88222" lon="5.53052">
        <ele>1654</ele>
        <time>2022-01-19T09:23:29Z</time>
      </trkpt>
      <trkpt lat="44.88222" lon="5.53052">
        <ele>1654</ele>
        <time>2022-01-19T09:23:30Z</time>
      </trkpt>
      <trkpt lat="44.88222" lon="5.53052">
        <ele>1654</ele>
        <time>2022-01-19T09:23:31Z</time>
      </trkpt>
      <trkpt lat="44.88222" lon="5.53052">
        <ele>1654</ele>
        <time>2022-01-19T09:23:32Z</time>
      </trkpt>
      <trkpt lat="44.88222" lon="5.53052">
        <ele>1654</ele>
        <time>2022-01-19T09:23:33Z</time>
      </trkpt>
      <trkpt lat="44.88222" lon="5.53052">
        <ele>1654</ele>
        <time>2022-01-19T09:23:34Z</time>
      </trkpt>
      <trkpt lat="44.88222" lon="5.53052">
        <ele>1654</ele>
        <time>2022-01-19T09:23:35Z</time>
      </trkpt>
      <trkpt lat="44.88222" lon="5.53052">
        <ele>1654</ele>
        <time>2022-01-19T09:23:36Z</time>
      </trkpt>
      <trkpt lat="44.88222" lon="5.53052">
        <ele>1654</ele>
        <time>2022-01-19T09:23:37Z</time>
      </trkpt>
      <trkpt lat="44.88222" lon="5.53052">
        <ele>1654</ele>
        <time>2022-01-19T09:23:38Z</time>
      </trkpt>
      <trkpt lat="44.88222" lon="5.53052">
        <ele>1654</ele>
        <time>2022-01-19T09:23:39Z</time>
      </trkpt>
      <trkpt lat="44.88222" lon="5.53052">
        <ele>1654</ele>
        <time>2022-01-19T09:23:40Z</time>
      </trkpt>
      <trkpt lat="44.88222" lon="5.53052">
        <ele>1654</ele>
        <time>2022-01-19T09:23:41Z</time>
      </trkpt>
      <trkpt lat="44.88222" lon="5.53052">
        <ele>1654</ele>
        <time>2022-01-19T09:23:42Z</time>
      </trkpt>
      <trkpt lat="44.88222" lon="5.53052">
        <ele>1654</ele>
        <time>2022-01-19T09:23:43Z</time>
      </trkpt>
      <trkpt lat="44.88222" lon="5.53052">
        <ele>1654</ele>
        <time>2022-01-19T09:23:44Z</time>
      </trkpt>
      <trkpt lat="44.88222" lon="5.53052">
        <ele>1654</ele>
        <time>2022-01-19T09:23:45Z</time>
      </trkpt>
      <trkpt lat="44.88222" lon="5.53052">
        <ele>1654</ele>
        <time>2022-01-19T09:23:46Z</time>
      </trkpt>
      <trkpt lat="44.88222" lon="5.53052">
        <ele>1654</ele>
        <time>2022-01-19T09:23:47Z</time>
      </trkpt>
      <trkpt lat="44.88222" lon="5.53052">
        <ele>1654</ele>
        <time>2022-01-19T09:23:48Z</time>
      </trkpt>
      <trkpt lat="44.88222" lon="5.53052">
        <ele>1654</ele>
        <time>2022-01-19T09:23:49Z</time>
      </trkpt>
      <trkpt lat="44.88222" lon="5.53052">
        <ele>1654</ele>
        <time>2022-01-19T09:23:50Z</time>
      </trkpt>
      <trkpt lat="44.88222" lon="5.53052">
        <ele>1654</ele>
        <time>2022-01-19T09:23:51Z</time>
      </trkpt>
      <trkpt lat="44.88222" lon="5.53052">
        <ele>1654</ele>
        <time>2022-01-19T09:23:52Z</time>
      </trkpt>
      <trkpt lat="44.88222" lon="5.53052">
        <ele>1654</ele>
        <time>2022-01-19T09:23:53Z</time>
      </trkpt>
      <trkpt lat="44.88222" lon="5.53052">
        <ele>1654</ele>
        <time>2022-01-19T09:23:54Z</time>
      </trkpt>
      <trkpt lat="44.88222" lon="5.53052">
        <ele>1654</ele>
        <time>2022-01-19T09:23:55Z</time>
      </trkpt>
      <trkpt lat="44.88222" lon="5.53052">
        <ele>1654</ele>
        <time>2022-01-19T09:23:56Z</time>
      </trkpt>
      <trkpt lat="44.88222" lon="5.53052">
        <ele>1654</ele>
        <time>2022-01-19T09:23:57Z</time>
      </trkpt>
      <trkpt lat="44.88222" lon="5.53052">
        <ele>1654</ele>
        <time>2022-01-19T09:23:58Z</time>
      </trkpt>
      <trkpt lat="44.88222" lon="5.53052">
        <ele>1654</ele>
        <time>2022-01-19T09:23:59Z</time>
      </trkpt>
      <trkpt lat="44.88222" lon="5.53052">
        <ele>1654</ele>
        <time>2022-01-19T09:24:00Z</time>
      </trkpt>
      <trkpt lat="44.88222" lon="5.53052">
        <ele>1654</ele>
        <time>2022-01-19T09:24:01Z</time>
      </trkpt>
      <trkpt lat="44.88222" lon="5.53052">
        <ele>1654</ele>
        <time>2022-01-19T09:24:02Z</time>
      </trkpt>
      <trkpt lat="44.88223" lon="5.53047">
        <ele>1654.6</ele>
        <time>2022-01-19T09:24:03Z</time>
      </trkpt>
      <trkpt lat="44.88225" lon="5.53042">
        <ele>1655.3</ele>
        <time>2022-01-19T09:24:04Z</time>
      </trkpt>
      <trkpt lat="44.88226" lon="5.53038">
        <ele>1656</ele>
        <time>2022-01-19T09:24:05Z</time>
      </trkpt>
      <trkpt lat="44.88221" lon="5.53047">
        <ele>1657.4</ele>
        <time>2022-01-19T09:24:06Z</time>
      </trkpt>
      <trkpt lat="44.8822" lon="5.53049">
        <ele>1657.7</ele>
        <time>2022-01-19T09:24:07Z</time>
      </trkpt>
      <trkpt lat="44.88221" lon="5.53049">
        <ele>1657.8</ele>
        <time>2022-01-19T09:24:08Z</time>
      </trkpt>
      <trkpt lat="44.8822" lon="5.53047">
        <ele>1658</ele>
        <time>2022-01-19T09:24:09Z</time>
      </trkpt>
      <trkpt lat="44.88221" lon="5.53048">
        <ele>1658.2</ele>
        <time>2022-01-19T09:24:10Z</time>
      </trkpt>
      <trkpt lat="44.88222" lon="5.53048">
        <ele>1658.4</ele>
        <time>2022-01-19T09:24:11Z</time>
      </trkpt>
      <trkpt lat="44.88223" lon="5.53047">
        <ele>1658.4</ele>
        <time>2022-01-19T09:24:12Z</time>
      </trkpt>
      <trkpt lat="44.88223" lon="5.53048">
        <ele>1658.5</ele>
        <time>2022-01-19T09:24:13Z</time>
      </trkpt>
      <trkpt lat="44.88223" lon="5.53048">
        <ele>1658.5</ele>
        <time>2022-01-19T09:24:14Z</time>
      </trkpt>
      <trkpt lat="44.88223" lon="5.53049">
        <ele>1658.6</ele>
        <time>2022-01-19T09:24:15Z</time>
      </trkpt>
      <trkpt lat="44.88223" lon="5.5305">
        <ele>1658.7</ele>
        <time>2022-01-19T09:24:16Z</time>
      </trkpt>
      <trkpt lat="44.88223" lon="5.5305">
        <ele>1658.8</ele>
        <time>2022-01-19T09:24:17Z</time>
      </trkpt>
      <trkpt lat="44.88223" lon="5.53049">
        <ele>1658.8</ele>
        <time>2022-01-19T09:24:18Z</time>
      </trkpt>
      <trkpt lat="44.88223" lon="5.53048">
        <ele>1658.9</ele>
        <time>2022-01-19T09:24:19Z</time>
      </trkpt>
      <trkpt lat="44.88223" lon="5.53047">
        <ele>1659.1</ele>
        <time>2022-01-19T09:24:20Z</time>
      </trkpt>
      <trkpt lat="44.88223" lon="5.53045">
        <ele>1659.3</ele>
        <time>2022-01-19T09:24:21Z</time>
      </trkpt>
      <trkpt lat="44.88223" lon="5.53044">
        <ele>1659.4</ele>
        <time>2022-01-19T09:24:22Z</time>
      </trkpt>
      <trkpt lat="44.88223" lon="5.53044">
        <ele>1659.4</ele>
        <time>2022-01-19T09:24:23Z</time>
      </trkpt>
      <trkpt lat="44.88225" lon="5.53046">
        <ele>1659.8</ele>
        <time>2022-01-19T09:24:24Z</time>
      </trkpt>
      <trkpt lat="44.88225" lon="5.53046">
        <ele>1659.8</ele>
        <time>2022-01-19T09:24:25Z</time>
      </trkpt>
      <trkpt lat="44.88225" lon="5.53046">
        <ele>1659.9</ele>
        <time>2022-01-19T09:24:26Z</time>
      </trkpt>
      <trkpt lat="44.88226" lon="5.53047">
        <ele>1659.9</ele>
        <time>2022-01-19T09:24:27Z</time>
      </trkpt>
      <trkpt lat="44.88226" lon="5.53046">
        <ele>1659.9</ele>
        <time>2022-01-19T09:24:28Z</time>
      </trkpt>
      <trkpt lat="44.88226" lon="5.53046">
        <ele>1660</ele>
        <time>2022-01-19T09:24:29Z</time>
      </trkpt>
      <trkpt lat="44.88226" lon="5.53046">
        <ele>1660.1</ele>
        <time>2022-01-19T09:24:30Z</time>
      </trkpt>
      <trkpt lat="44.88226" lon="5.53045">
        <ele>1660.1</ele>
        <time>2022-01-19T09:24:31Z</time>
      </trkpt>
      <trkpt lat="44.88226" lon="5.53045">
        <ele>1660.2</ele>
        <time>2022-01-19T09:24:32Z</time>
      </trkpt>
      <trkpt lat="44.88227" lon="5.53044">
        <ele>1660.3</ele>
        <time>2022-01-19T09:24:33Z</time>
      </trkpt>
      <trkpt lat="44.88227" lon="5.53044">
        <ele>1660.3</ele>
        <time>2022-01-19T09:24:34Z</time>
      </trkpt>
      <trkpt lat="44.88228" lon="5.53044">
        <ele>1660.4</ele>
        <time>2022-01-19T09:24:35Z</time>
      </trkpt>
      <trkpt lat="44.88228" lon="5.53044">
        <ele>1660.5</ele>
        <time>2022-01-19T09:24:36Z</time>
      </trkpt>
      <trkpt lat="44.88228" lon="5.53043">
        <ele>1660.6</ele>
        <time>2022-01-19T09:24:37Z</time>
      </trkpt>
      <trkpt lat="44.88228" lon="5.53042">
        <ele>1660.6</ele>
        <time>2022-01-19T09:24:38Z</time>
      </trkpt>
      <trkpt lat="44.88228" lon="5.53042">
        <ele>1660.7</ele>
        <time>2022-01-19T09:24:39Z</time>
      </trkpt>
      <trkpt lat="44.88228" lon="5.53042">
        <ele>1660.7</ele>
        <time>2022-01-19T09:24:40Z</time>
      </trkpt>
      <trkpt lat="44.88228" lon="5.53042">
        <ele>1660.7</ele>
        <time>2022-01-19T09:24:41Z</time>
      </trkpt>
      <trkpt lat="44.88228" lon="5.53042">
        <ele>1660.7</ele>
        <time>2022-01-19T09:24:42Z</time>
      </trkpt>
      <trkpt lat="44.88228" lon="5.53042">
        <ele>1660.7</ele>
        <time>2022-01-19T09:24:43Z</time>
      </trkpt>
      <trkpt lat="44.88228" lon="5.53042">
        <ele>1660.7</ele>
        <time>2022-01-19T09:24:44Z</time>
      </trkpt>
      <trkpt lat="44.88228" lon="5.53042">
        <ele>1660.7</ele>
        <time>2022-01-19T09:24:45Z</time>
      </trkpt>
      <trkpt lat="44.88228" lon="5.53042">
        <ele>1660.7</ele>
        <time>2022-01-19T09:24:46Z</time>
      </trkpt>
      <trkpt lat="44.88228" lon="5.53042">
        <ele>1660.7</ele>
        <time>2022-01-19T09:24:47Z</time>
      </trkpt>
      <trkpt lat="44.88228" lon="5.53042">
        <ele>1660.7</ele>
        <time>2022-01-19T09:24:48Z</time>
      </trkpt>
      <trkpt lat="44.88228" lon="5.53042">
        <ele>1660.7</ele>
        <time>2022-01-19T09:24:49Z</time>
      </trkpt>
      <trkpt lat="44.88228" lon="5.53042">
        <ele>1660.7</ele>
        <time>2022-01-19T09:24:50Z</time>
      </trkpt>
      <trkpt lat="44.88228" lon="5.53042">
        <ele>1660.7</ele>
        <time>2022-01-19T09:24:51Z</time>
      </trkpt>
      <trkpt lat="44.88228" lon="5.53042">
        <ele>1660.7</ele>
        <time>2022-01-19T09:24:52Z</time>
      </trkpt>
      <trkpt lat="44.88228" lon="5.53042">
        <ele>1660.7</ele>
        <time>2022-01-19T09:24:53Z</time>
      </trkpt>
      <trkpt lat="44.88228" lon="5.53042">
        <ele>1660.7</ele>
        <time>2022-01-19T09:24:54Z</time>
      </trkpt>
      <trkpt lat="44.88228" lon="5.53042">
        <ele>1660.7</ele>
        <time>2022-01-19T09:24:55Z</time>
      </trkpt>
      <trkpt lat="44.88228" lon="5.53042">
        <ele>1660.7</ele>
        <time>2022-01-19T09:24:56Z</time>
      </trkpt>
      <trkpt lat="44.88228" lon="5.53042">
        <ele>1660.7</ele>
        <time>2022-01-19T09:24:57Z</time>
      </trkpt>
      <trkpt lat="44.88228" lon="5.53042">
        <ele>1660.7</ele>
        <time>2022-01-19T09:24:58Z</time>
      </trkpt>
      <trkpt lat="44.88228" lon="5.53042">
        <ele>1660.7</ele>
        <time>2022-01-19T09:24:59Z</time>
      </trkpt>
      <trkpt lat="44.88228" lon="5.53042">
        <ele>1660.7</ele>
        <time>2022-01-19T09:25:00Z</time>
      </trkpt>
      <trkpt lat="44.88228" lon="5.53042">
        <ele>1660.7</ele>
        <time>2022-01-19T09:25:01Z</time>
      </trkpt>
      <trkpt lat="44.88228" lon="5.53042">
        <ele>1660.7</ele>
        <time>2022-01-19T09:25:02Z</time>
      </trkpt>
      <trkpt lat="44.88228" lon="5.53042">
        <ele>1660.7</ele>
        <time>2022-01-19T09:25:03Z</time>
      </trkpt>
      <trkpt lat="44.88228" lon="5.53042">
        <ele>1660.7</ele>
        <time>2022-01-19T09:25:04Z</time>
      </trkpt>
      <trkpt lat="44.88228" lon="5.53042">
        <ele>1660.7</ele>
        <time>2022-01-19T09:25:05Z</time>
      </trkpt>
      <trkpt lat="44.88228" lon="5.53042">
        <ele>1660.7</ele>
        <time>2022-01-19T09:25:06Z</time>
      </trkpt>
      <trkpt lat="44.88228" lon="5.53042">
        <ele>1660.7</ele>
        <time>2022-01-19T09:25:07Z</time>
      </trkpt>
      <trkpt lat="44.88228" lon="5.53042">
        <ele>1660.7</ele>
        <time>2022-01-19T09:25:08Z</time>
      </trkpt>
      <trkpt lat="44.88228" lon="5.53042">
        <ele>1660.7</ele>
        <time>2022-01-19T09:25:09Z</time>
      </trkpt>
      <trkpt lat="44.88228" lon="5.53042">
        <ele>1660.7</ele>
        <time>2022-01-19T09:25:10Z</time>
      </trkpt>
      <trkpt lat="44.88228" lon="5.53042">
        <ele>1660.7</ele>
        <time>2022-01-19T09:25:11Z</time>
      </trkpt>
      <trkpt lat="44.88228" lon="5.53042">
        <ele>1660.7</ele>
        <time>2022-01-19T09:25:12Z</time>
      </trkpt>
      <trkpt lat="44.88228" lon="5.53042">
        <ele>1660.7</ele>
        <time>2022-01-19T09:25:13Z</time>
      </trkpt>
      <trkpt lat="44.88228" lon="5.53042">
        <ele>1660.7</ele>
        <time>2022-01-19T09:25:14Z</time>
      </trkpt>
      <trkpt lat="44.88228" lon="5.53042">
        <ele>1660.7</ele>
        <time>2022-01-19T09:25:15Z</time>
      </trkpt>
      <trkpt lat="44.88228" lon="5.53042">
        <ele>1660.7</ele>
        <time>2022-01-19T09:25:16Z</time>
      </trkpt>
      <trkpt lat="44.88228" lon="5.53042">
        <ele>1660.7</ele>
        <time>2022-01-19T09:25:17Z</time>
      </trkpt>
      <trkpt lat="44.88228" lon="5.53042">
        <ele>1660.7</ele>
        <time>2022-01-19T09:25:18Z</time>
      </trkpt>
      <trkpt lat="44.88228" lon="5.53042">
        <ele>1660.7</ele>
        <time>2022-01-19T09:25:19Z</time>
      </trkpt>
      <trkpt lat="44.88228" lon="5.53042">
        <ele>1660.7</ele>
        <time>2022-01-19T09:25:20Z</time>
      </trkpt>
      <trkpt lat="44.88228" lon="5.53042">
        <ele>1660.8</ele>
        <time>2022-01-19T09:25:21Z</time>
      </trkpt>
      <trkpt lat="44.88228" lon="5.53042">
        <ele>1660.8</ele>
        <time>2022-01-19T09:25:22Z</time>
      </trkpt>
      <trkpt lat="44.88228" lon="5.53042">
        <ele>1660.8</ele>
        <time>2022-01-19T09:25:23Z</time>
      </trkpt>
      <trkpt lat="44.88228" lon="5.53042">
        <ele>1660.8</ele>
        <time>2022-01-19T09:25:24Z</time>
      </trkpt>
      <trkpt lat="44.88228" lon="5.53042">
        <ele>1660.9</ele>
        <time>2022-01-19T09:25:25Z</time>
      </trkpt>
      <trkpt lat="44.88228" lon="5.53042">
        <ele>1660.9</ele>
        <time>2022-01-19T09:25:26Z</time>
      </trkpt>
      <trkpt lat="44.88228" lon="5.53042">
        <ele>1660.9</ele>
        <time>2022-01-19T09:25:27Z</time>
      </trkpt>
      <trkpt lat="44.88228" lon="5.53042">
        <ele>1661</ele>
        <time>2022-01-19T09:25:28Z</time>
      </trkpt>
      <trkpt lat="44.88228" lon="5.53042">
        <ele>1661</ele>
        <time>2022-01-19T09:25:29Z</time>
      </trkpt>
      <trkpt lat="44.88227" lon="5.53045">
        <ele>1661.4</ele>
        <time>2022-01-19T09:25:30Z</time>
      </trkpt>
      <trkpt lat="44.88227" lon="5.53044">
        <ele>1661.4</ele>
        <time>2022-01-19T09:25:31Z</time>
      </trkpt>
      <trkpt lat="44.88227" lon="5.53044">
        <ele>1661.5</ele>
        <time>2022-01-19T09:25:32Z</time>
      </trkpt>
      <trkpt lat="44.88228" lon="5.53043">
        <ele>1661.7</ele>
        <time>2022-01-19T09:25:33Z</time>
      </trkpt>
      <trkpt lat="44.88228" lon="5.53042">
        <ele>1661.8</ele>
        <time>2022-01-19T09:25:34Z</time>
      </trkpt>
      <trkpt lat="44.88228" lon="5.53041">
        <ele>1661.9</ele>
        <time>2022-01-19T09:25:35Z</time>
      </trkpt>
      <trkpt lat="44.88229" lon="5.53041">
        <ele>1662.2</ele>
        <time>2022-01-19T09:25:36Z</time>
      </trkpt>
      <trkpt lat="44.8823" lon="5.5304">
        <ele>1662.3</ele>
        <time>2022-01-19T09:25:37Z</time>
      </trkpt>
      <trkpt lat="44.8823" lon="5.53039">
        <ele>1662.4</ele>
        <time>2022-01-19T09:25:38Z</time>
      </trkpt>
      <trkpt lat="44.8823" lon="5.53038">
        <ele>1662.5</ele>
        <time>2022-01-19T09:25:39Z</time>
      </trkpt>
      <trkpt lat="44.8823" lon="5.53037">
        <ele>1662.7</ele>
        <time>2022-01-19T09:25:40Z</time>
      </trkpt>
      <trkpt lat="44.8823" lon="5.53035">
        <ele>1662.8</ele>
        <time>2022-01-19T09:25:41Z</time>
      </trkpt>
      <trkpt lat="44.88229" lon="5.53035">
        <ele>1662.9</ele>
        <time>2022-01-19T09:25:42Z</time>
      </trkpt>
      <trkpt lat="44.8823" lon="5.53033">
        <ele>1663</ele>
        <time>2022-01-19T09:25:43Z</time>
      </trkpt>
      <trkpt lat="44.8823" lon="5.53032">
        <ele>1663.2</ele>
        <time>2022-01-19T09:25:44Z</time>
      </trkpt>
      <trkpt lat="44.88231" lon="5.53032">
        <ele>1663.3</ele>
        <time>2022-01-19T09:25:45Z</time>
      </trkpt>
      <trkpt lat="44.88231" lon="5.53031">
        <ele>1663.4</ele>
        <time>2022-01-19T09:25:46Z</time>
      </trkpt>
      <trkpt lat="44.88231" lon="5.5303">
        <ele>1663.6</ele>
        <time>2022-01-19T09:25:47Z</time>
      </trkpt>
      <trkpt lat="44.88231" lon="5.53028">
        <ele>1663.7</ele>
        <time>2022-01-19T09:25:48Z</time>
      </trkpt>
      <trkpt lat="44.88232" lon="5.53026">
        <ele>1663.8</ele>
        <time>2022-01-19T09:25:49Z</time>
      </trkpt>
      <trkpt lat="44.88232" lon="5.53026">
        <ele>1664</ele>
        <time>2022-01-19T09:25:50Z</time>
      </trkpt>
      <trkpt lat="44.88232" lon="5.53025">
        <ele>1664.1</ele>
        <time>2022-01-19T09:25:51Z</time>
      </trkpt>
      <trkpt lat="44.88232" lon="5.53024">
        <ele>1664.2</ele>
        <time>2022-01-19T09:25:52Z</time>
      </trkpt>
      <trkpt lat="44.88231" lon="5.53023">
        <ele>1664.3</ele>
        <time>2022-01-19T09:25:53Z</time>
      </trkpt>
      <trkpt lat="44.88232" lon="5.53023">
        <ele>1664.4</ele>
        <time>2022-01-19T09:25:54Z</time>
      </trkpt>
      <trkpt lat="44.88232" lon="5.53021">
        <ele>1664.5</ele>
        <time>2022-01-19T09:25:55Z</time>
      </trkpt>
      <trkpt lat="44.88232" lon="5.5302">
        <ele>1664.7</ele>
        <time>2022-01-19T09:25:56Z</time>
      </trkpt>
      <trkpt lat="44.88233" lon="5.5302">
        <ele>1664.8</ele>
        <time>2022-01-19T09:25:57Z</time>
      </trkpt>
      <trkpt lat="44.88233" lon="5.53018">
        <ele>1664.9</ele>
        <time>2022-01-19T09:25:58Z</time>
      </trkpt>
      <trkpt lat="44.88233" lon="5.53017">
        <ele>1665.1</ele>
        <time>2022-01-19T09:25:59Z</time>
      </trkpt>
      <trkpt lat="44.88233" lon="5.53017">
        <ele>1665.1</ele>
        <time>2022-01-19T09:26:00Z</time>
      </trkpt>
      <trkpt lat="44.88234" lon="5.53015">
        <ele>1665.4</ele>
        <time>2022-01-19T09:26:01Z</time>
      </trkpt>
      <trkpt lat="44.88233" lon="5.53015">
        <ele>1665.4</ele>
        <time>2022-01-19T09:26:02Z</time>
      </trkpt>
      <trkpt lat="44.88234" lon="5.53013">
        <ele>1665.6</ele>
        <time>2022-01-19T09:26:03Z</time>
      </trkpt>
      <trkpt lat="44.88234" lon="5.53012">
        <ele>1665.8</ele>
        <time>2022-01-19T09:26:04Z</time>
      </trkpt>
      <trkpt lat="44.88235" lon="5.53011">
        <ele>1665.9</ele>
        <time>2022-01-19T09:26:05Z</time>
      </trkpt>
      <trkpt lat="44.88234" lon="5.5301">
        <ele>1666.1</ele>
        <time>2022-01-19T09:26:06Z</time>
      </trkpt>
      <trkpt lat="44.88234" lon="5.53008">
        <ele>1666.3</ele>
        <time>2022-01-19T09:26:07Z</time>
      </trkpt>
      <trkpt lat="44.88235" lon="5.53007">
        <ele>1666.4</ele>
        <time>2022-01-19T09:26:08Z</time>
      </trkpt>
      <trkpt lat="44.88235" lon="5.53006">
        <ele>1666.6</ele>
        <time>2022-01-19T09:26:09Z</time>
      </trkpt>
      <trkpt lat="44.88235" lon="5.53005">
        <ele>1666.7</ele>
        <time>2022-01-19T09:26:10Z</time>
      </trkpt>
      <trkpt lat="44.88235" lon="5.53004">
        <ele>1666.8</ele>
        <time>2022-01-19T09:26:11Z</time>
      </trkpt>
      <trkpt lat="44.88235" lon="5.53003">
        <ele>1666.9</ele>
        <time>2022-01-19T09:26:12Z</time>
      </trkpt>
      <trkpt lat="44.88235" lon="5.53003">
        <ele>1667</ele>
        <time>2022-01-19T09:26:13Z</time>
      </trkpt>
      <trkpt lat="44.88235" lon="5.53001">
        <ele>1667.2</ele>
        <time>2022-01-19T09:26:14Z</time>
      </trkpt>
      <trkpt lat="44.88235" lon="5.53">
        <ele>1667.4</ele>
        <time>2022-01-19T09:26:15Z</time>
      </trkpt>
      <trkpt lat="44.88236" lon="5.52999">
        <ele>1667.6</ele>
        <time>2022-01-19T09:26:16Z</time>
      </trkpt>
      <trkpt lat="44.88236" lon="5.52998">
        <ele>1667.7</ele>
        <time>2022-01-19T09:26:17Z</time>
      </trkpt>
      <trkpt lat="44.88237" lon="5.52997">
        <ele>1668</ele>
        <time>2022-01-19T09:26:18Z</time>
      </trkpt>
      <trkpt lat="44.88237" lon="5.52996">
        <ele>1668</ele>
        <time>2022-01-19T09:26:19Z</time>
      </trkpt>
      <trkpt lat="44.88238" lon="5.52995">
        <ele>1668.3</ele>
        <time>2022-01-19T09:26:20Z</time>
      </trkpt>
      <trkpt lat="44.88238" lon="5.52994">
        <ele>1668.5</ele>
        <time>2022-01-19T09:26:21Z</time>
      </trkpt>
      <trkpt lat="44.88239" lon="5.52992">
        <ele>1668.8</ele>
        <time>2022-01-19T09:26:22Z</time>
      </trkpt>
      <trkpt lat="44.88239" lon="5.5299">
        <ele>1668.9</ele>
        <time>2022-01-19T09:26:23Z</time>
      </trkpt>
      <trkpt lat="44.88239" lon="5.52989">
        <ele>1669.1</ele>
        <time>2022-01-19T09:26:24Z</time>
      </trkpt>
      <trkpt lat="44.88239" lon="5.52989">
        <ele>1669.2</ele>
        <time>2022-01-19T09:26:25Z</time>
      </trkpt>
      <trkpt lat="44.88239" lon="5.52988">
        <ele>1669.4</ele>
        <time>2022-01-19T09:26:26Z</time>
      </trkpt>
      <trkpt lat="44.8824" lon="5.52987">
        <ele>1669.5</ele>
        <time>2022-01-19T09:26:27Z</time>
      </trkpt>
      <trkpt lat="44.8824" lon="5.52987">
        <ele>1669.6</ele>
        <time>2022-01-19T09:26:28Z</time>
      </trkpt>
      <trkpt lat="44.8824" lon="5.52986">
        <ele>1669.7</ele>
        <time>2022-01-19T09:26:29Z</time>
      </trkpt>
      <trkpt lat="44.8824" lon="5.52985">
        <ele>1669.9</ele>
        <time>2022-01-19T09:26:30Z</time>
      </trkpt>
      <trkpt lat="44.8824" lon="5.52985">
        <ele>1670.1</ele>
        <time>2022-01-19T09:26:31Z</time>
      </trkpt>
      <trkpt lat="44.8824" lon="5.52985">
        <ele>1670.1</ele>
        <time>2022-01-19T09:26:32Z</time>
      </trkpt>
      <trkpt lat="44.8824" lon="5.52984">
        <ele>1670.2</ele>
        <time>2022-01-19T09:26:33Z</time>
      </trkpt>
      <trkpt lat="44.88241" lon="5.52984">
        <ele>1670.4</ele>
        <time>2022-01-19T09:26:34Z</time>
      </trkpt>
      <trkpt lat="44.88241" lon="5.52984">
        <ele>1670.4</ele>
        <time>2022-01-19T09:26:35Z</time>
      </trkpt>
      <trkpt lat="44.88241" lon="5.52983">
        <ele>1670.5</ele>
        <time>2022-01-19T09:26:36Z</time>
      </trkpt>
      <trkpt lat="44.88241" lon="5.52983">
        <ele>1670.6</ele>
        <time>2022-01-19T09:26:37Z</time>
      </trkpt>
      <trkpt lat="44.88241" lon="5.52983">
        <ele>1670.6</ele>
        <time>2022-01-19T09:26:38Z</time>
      </trkpt>
      <trkpt lat="44.88241" lon="5.52983">
        <ele>1670.7</ele>
        <time>2022-01-19T09:26:39Z</time>
      </trkpt>
      <trkpt lat="44.88242" lon="5.52981">
        <ele>1671</ele>
        <time>2022-01-19T09:26:40Z</time>
      </trkpt>
      <trkpt lat="44.88242" lon="5.5298">
        <ele>1671.1</ele>
        <time>2022-01-19T09:26:41Z</time>
      </trkpt>
      <trkpt lat="44.88242" lon="5.5298">
        <ele>1671.3</ele>
        <time>2022-01-19T09:26:42Z</time>
      </trkpt>
      <trkpt lat="44.88243" lon="5.52979">
        <ele>1671.4</ele>
        <time>2022-01-19T09:26:43Z</time>
      </trkpt>
      <trkpt lat="44.88243" lon="5.52979">
        <ele>1671.6</ele>
        <time>2022-01-19T09:26:44Z</time>
      </trkpt>
      <trkpt lat="44.88243" lon="5.52978">
        <ele>1671.7</ele>
        <time>2022-01-19T09:26:45Z</time>
      </trkpt>
      <trkpt lat="44.88243" lon="5.52977">
        <ele>1671.9</ele>
        <time>2022-01-19T09:26:46Z</time>
      </trkpt>
      <trkpt lat="44.88244" lon="5.52976">
        <ele>1672.1</ele>
        <time>2022-01-19T09:26:47Z</time>
      </trkpt>
      <trkpt lat="44.88244" lon="5.52975">
        <ele>1672.2</ele>
        <time>2022-01-19T09:26:48Z</time>
      </trkpt>
      <trkpt lat="44.88244" lon="5.52974">
        <ele>1672.5</ele>
        <time>2022-01-19T09:26:49Z</time>
      </trkpt>
      <trkpt lat="44.88244" lon="5.52973">
        <ele>1672.7</ele>
        <time>2022-01-19T09:26:50Z</time>
      </trkpt>
      <trkpt lat="44.88244" lon="5.52972">
        <ele>1672.9</ele>
        <time>2022-01-19T09:26:51Z</time>
      </trkpt>
      <trkpt lat="44.88244" lon="5.52971">
        <ele>1673.1</ele>
        <time>2022-01-19T09:26:52Z</time>
      </trkpt>
      <trkpt lat="44.88245" lon="5.52969">
        <ele>1673.3</ele>
        <time>2022-01-19T09:26:53Z</time>
      </trkpt>
      <trkpt lat="44.88245" lon="5.52968">
        <ele>1673.6</ele>
        <time>2022-01-19T09:26:54Z</time>
      </trkpt>
      <trkpt lat="44.88245" lon="5.52967">
        <ele>1673.8</ele>
        <time>2022-01-19T09:26:55Z</time>
      </trkpt>
      <trkpt lat="44.88246" lon="5.52966">
        <ele>1674.1</ele>
        <time>2022-01-19T09:26:56Z</time>
      </trkpt>
      <trkpt lat="44.88246" lon="5.52965">
        <ele>1674.3</ele>
        <time>2022-01-19T09:26:57Z</time>
      </trkpt>
      <trkpt lat="44.88247" lon="5.52964">
        <ele>1674.5</ele>
        <time>2022-01-19T09:26:58Z</time>
      </trkpt>
      <trkpt lat="44.88248" lon="5.52963">
        <ele>1674.8</ele>
        <time>2022-01-19T09:26:59Z</time>
      </trkpt>
      <trkpt lat="44.88248" lon="5.52963">
        <ele>1674.9</ele>
        <time>2022-01-19T09:27:00Z</time>
      </trkpt>
      <trkpt lat="44.88248" lon="5.52961">
        <ele>1675.1</ele>
        <time>2022-01-19T09:27:01Z</time>
      </trkpt>
      <trkpt lat="44.88248" lon="5.5296">
        <ele>1675.3</ele>
        <time>2022-01-19T09:27:02Z</time>
      </trkpt>
      <trkpt lat="44.88249" lon="5.52959">
        <ele>1675.5</ele>
        <time>2022-01-19T09:27:03Z</time>
      </trkpt>
      <trkpt lat="44.88249" lon="5.52959">
        <ele>1675.6</ele>
        <time>2022-01-19T09:27:04Z</time>
      </trkpt>
      <trkpt lat="44.88249" lon="5.52957">
        <ele>1675.7</ele>
        <time>2022-01-19T09:27:05Z</time>
      </trkpt>
      <trkpt lat="44.88249" lon="5.52956">
        <ele>1675.9</ele>
        <time>2022-01-19T09:27:06Z</time>
      </trkpt>
      <trkpt lat="44.88249" lon="5.52955">
        <ele>1676.1</ele>
        <time>2022-01-19T09:27:07Z</time>
      </trkpt>
      <trkpt lat="44.88249" lon="5.52954">
        <ele>1676.2</ele>
        <time>2022-01-19T09:27:08Z</time>
      </trkpt>
      <trkpt lat="44.88249" lon="5.52953">
        <ele>1676.4</ele>
        <time>2022-01-19T09:27:09Z</time>
      </trkpt>
      <trkpt lat="44.8825" lon="5.52953">
        <ele>1676.6</ele>
        <time>2022-01-19T09:27:10Z</time>
      </trkpt>
      <trkpt lat="44.8825" lon="5.52952">
        <ele>1676.7</ele>
        <time>2022-01-19T09:27:11Z</time>
      </trkpt>
      <trkpt lat="44.88251" lon="5.52951">
        <ele>1676.9</ele>
        <time>2022-01-19T09:27:12Z</time>
      </trkpt>
      <trkpt lat="44.88251" lon="5.5295">
        <ele>1677</ele>
        <time>2022-01-19T09:27:13Z</time>
      </trkpt>
      <trkpt lat="44.88251" lon="5.5295">
        <ele>1677.2</ele>
        <time>2022-01-19T09:27:14Z</time>
      </trkpt>
      <trkpt lat="44.88252" lon="5.52949">
        <ele>1677.3</ele>
        <time>2022-01-19T09:27:15Z</time>
      </trkpt>
      <trkpt lat="44.88252" lon="5.52947">
        <ele>1677.6</ele>
        <time>2022-01-19T09:27:16Z</time>
      </trkpt>
      <trkpt lat="44.88253" lon="5.52947">
        <ele>1677.8</ele>
        <time>2022-01-19T09:27:17Z</time>
      </trkpt>
      <trkpt lat="44.88253" lon="5.52946">
        <ele>1678</ele>
        <time>2022-01-19T09:27:18Z</time>
      </trkpt>
      <trkpt lat="44.88253" lon="5.52945">
        <ele>1678.1</ele>
        <time>2022-01-19T09:27:19Z</time>
      </trkpt>
      <trkpt lat="44.88254" lon="5.52944">
        <ele>1678.3</ele>
        <time>2022-01-19T09:27:20Z</time>
      </trkpt>
      <trkpt lat="44.88254" lon="5.52944">
        <ele>1678.4</ele>
        <time>2022-01-19T09:27:21Z</time>
      </trkpt>
      <trkpt lat="44.88254" lon="5.52944">
        <ele>1678.5</ele>
        <time>2022-01-19T09:27:22Z</time>
      </trkpt>
      <trkpt lat="44.88255" lon="5.52943">
        <ele>1678.6</ele>
        <time>2022-01-19T09:27:23Z</time>
      </trkpt>
      <trkpt lat="44.88255" lon="5.52942">
        <ele>1678.8</ele>
        <time>2022-01-19T09:27:24Z</time>
      </trkpt>
      <trkpt lat="44.88256" lon="5.52942">
        <ele>1679</ele>
        <time>2022-01-19T09:27:25Z</time>
      </trkpt>
      <trkpt lat="44.88256" lon="5.52941">
        <ele>1679.2</ele>
        <time>2022-01-19T09:27:26Z</time>
      </trkpt>
      <trkpt lat="44.88256" lon="5.5294">
        <ele>1679.3</ele>
        <time>2022-01-19T09:27:27Z</time>
      </trkpt>
      <trkpt lat="44.88257" lon="5.52939">
        <ele>1679.5</ele>
        <time>2022-01-19T09:27:28Z</time>
      </trkpt>
      <trkpt lat="44.88257" lon="5.52938">
        <ele>1679.6</ele>
        <time>2022-01-19T09:27:29Z</time>
      </trkpt>
      <trkpt lat="44.88257" lon="5.52938">
        <ele>1679.7</ele>
        <time>2022-01-19T09:27:30Z</time>
      </trkpt>
      <trkpt lat="44.88257" lon="5.52938">
        <ele>1679.8</ele>
        <time>2022-01-19T09:27:31Z</time>
      </trkpt>
      <trkpt lat="44.88257" lon="5.52937">
        <ele>1679.9</ele>
        <time>2022-01-19T09:27:32Z</time>
      </trkpt>
      <trkpt lat="44.88257" lon="5.52937">
        <ele>1680</ele>
        <time>2022-01-19T09:27:33Z</time>
      </trkpt>
      <trkpt lat="44.88257" lon="5.52937">
        <ele>1680</ele>
        <time>2022-01-19T09:27:34Z</time>
      </trkpt>
      <trkpt lat="44.88257" lon="5.52937">
        <ele>1680</ele>
        <time>2022-01-19T09:27:35Z</time>
      </trkpt>
      <trkpt lat="44.88257" lon="5.52937">
        <ele>1680</ele>
        <time>2022-01-19T09:27:36Z</time>
      </trkpt>
      <trkpt lat="44.88259" lon="5.52935">
        <ele>1680.5</ele>
        <time>2022-01-19T09:27:37Z</time>
      </trkpt>
      <trkpt lat="44.8826" lon="5.52935">
        <ele>1680.7</ele>
        <time>2022-01-19T09:27:38Z</time>
      </trkpt>
      <trkpt lat="44.8826" lon="5.52935">
        <ele>1680.8</ele>
        <time>2022-01-19T09:27:39Z</time>
      </trkpt>
      <trkpt lat="44.88261" lon="5.52934">
        <ele>1680.9</ele>
        <time>2022-01-19T09:27:40Z</time>
      </trkpt>
      <trkpt lat="44.88261" lon="5.52934">
        <ele>1681.1</ele>
        <time>2022-01-19T09:27:41Z</time>
      </trkpt>
      <trkpt lat="44.88261" lon="5.52933">
        <ele>1681.3</ele>
        <time>2022-01-19T09:27:42Z</time>
      </trkpt>
      <trkpt lat="44.88262" lon="5.52933">
        <ele>1681.5</ele>
        <time>2022-01-19T09:27:43Z</time>
      </trkpt>
      <trkpt lat="44.88262" lon="5.52933">
        <ele>1681.5</ele>
        <time>2022-01-19T09:27:44Z</time>
      </trkpt>
      <trkpt lat="44.88262" lon="5.52932">
        <ele>1681.6</ele>
        <time>2022-01-19T09:27:45Z</time>
      </trkpt>
      <trkpt lat="44.88262" lon="5.52932">
        <ele>1681.6</ele>
        <time>2022-01-19T09:27:46Z</time>
      </trkpt>
      <trkpt lat="44.88263" lon="5.52931">
        <ele>1681.9</ele>
        <time>2022-01-19T09:27:47Z</time>
      </trkpt>
      <trkpt lat="44.88264" lon="5.5293">
        <ele>1682.2</ele>
        <time>2022-01-19T09:27:48Z</time>
      </trkpt>
      <trkpt lat="44.88264" lon="5.5293">
        <ele>1682.3</ele>
        <time>2022-01-19T09:27:49Z</time>
      </trkpt>
      <trkpt lat="44.88265" lon="5.52929">
        <ele>1682.5</ele>
        <time>2022-01-19T09:27:50Z</time>
      </trkpt>
      <trkpt lat="44.88266" lon="5.52928">
        <ele>1682.7</ele>
        <time>2022-01-19T09:27:51Z</time>
      </trkpt>
      <trkpt lat="44.88266" lon="5.52928">
        <ele>1682.9</ele>
        <time>2022-01-19T09:27:52Z</time>
      </trkpt>
      <trkpt lat="44.88267" lon="5.52927">
        <ele>1683</ele>
        <time>2022-01-19T09:27:53Z</time>
      </trkpt>
      <trkpt lat="44.88267" lon="5.52927">
        <ele>1683.1</ele>
        <time>2022-01-19T09:27:54Z</time>
      </trkpt>
      <trkpt lat="44.88267" lon="5.52926">
        <ele>1683.3</ele>
        <time>2022-01-19T09:27:55Z</time>
      </trkpt>
      <trkpt lat="44.88268" lon="5.52926">
        <ele>1683.4</ele>
        <time>2022-01-19T09:27:56Z</time>
      </trkpt>
      <trkpt lat="44.88268" lon="5.52926">
        <ele>1683.5</ele>
        <time>2022-01-19T09:27:57Z</time>
      </trkpt>
      <trkpt lat="44.88269" lon="5.52926">
        <ele>1683.7</ele>
        <time>2022-01-19T09:27:58Z</time>
      </trkpt>
      <trkpt lat="44.88269" lon="5.52926">
        <ele>1683.9</ele>
        <time>2022-01-19T09:27:59Z</time>
      </trkpt>
      <trkpt lat="44.8827" lon="5.52925">
        <ele>1684.1</ele>
        <time>2022-01-19T09:28:00Z</time>
      </trkpt>
      <trkpt lat="44.88271" lon="5.52925">
        <ele>1684.3</ele>
        <time>2022-01-19T09:28:01Z</time>
      </trkpt>
      <trkpt lat="44.88271" lon="5.52924">
        <ele>1684.4</ele>
        <time>2022-01-19T09:28:02Z</time>
      </trkpt>
      <trkpt lat="44.88272" lon="5.52924">
        <ele>1684.6</ele>
        <time>2022-01-19T09:28:03Z</time>
      </trkpt>
      <trkpt lat="44.88273" lon="5.52924">
        <ele>1684.8</ele>
        <time>2022-01-19T09:28:04Z</time>
      </trkpt>
      <trkpt lat="44.88274" lon="5.52924">
        <ele>1684.9</ele>
        <time>2022-01-19T09:28:05Z</time>
      </trkpt>
      <trkpt lat="44.88274" lon="5.52923">
        <ele>1685.1</ele>
        <time>2022-01-19T09:28:06Z</time>
      </trkpt>
      <trkpt lat="44.88275" lon="5.52923">
        <ele>1685.3</ele>
        <time>2022-01-19T09:28:07Z</time>
      </trkpt>
      <trkpt lat="44.88276" lon="5.52923">
        <ele>1685.5</ele>
        <time>2022-01-19T09:28:08Z</time>
      </trkpt>
      <trkpt lat="44.88277" lon="5.52923">
        <ele>1685.6</ele>
        <time>2022-01-19T09:28:09Z</time>
      </trkpt>
      <trkpt lat="44.88277" lon="5.52923">
        <ele>1685.7</ele>
        <time>2022-01-19T09:28:10Z</time>
      </trkpt>
      <trkpt lat="44.88277" lon="5.52923">
        <ele>1685.8</ele>
        <time>2022-01-19T09:28:11Z</time>
      </trkpt>
      <trkpt lat="44.88277" lon="5.52923">
        <ele>1685.8</ele>
        <time>2022-01-19T09:28:12Z</time>
      </trkpt>
      <trkpt lat="44.88277" lon="5.52923">
        <ele>1685.8</ele>
        <time>2022-01-19T09:28:13Z</time>
      </trkpt>
      <trkpt lat="44.88277" lon="5.52923">
        <ele>1685.8</ele>
        <time>2022-01-19T09:28:14Z</time>
      </trkpt>
      <trkpt lat="44.88277" lon="5.52923">
        <ele>1685.8</ele>
        <time>2022-01-19T09:28:15Z</time>
      </trkpt>
      <trkpt lat="44.88277" lon="5.52923">
        <ele>1685.8</ele>
        <time>2022-01-19T09:28:16Z</time>
      </trkpt>
      <trkpt lat="44.88277" lon="5.52923">
        <ele>1685.8</ele>
        <time>2022-01-19T09:28:17Z</time>
      </trkpt>
      <trkpt lat="44.88277" lon="5.52923">
        <ele>1685.8</ele>
        <time>2022-01-19T09:28:18Z</time>
      </trkpt>
      <trkpt lat="44.88277" lon="5.52923">
        <ele>1685.8</ele>
        <time>2022-01-19T09:28:19Z</time>
      </trkpt>
      <trkpt lat="44.88277" lon="5.52923">
        <ele>1685.8</ele>
        <time>2022-01-19T09:28:20Z</time>
      </trkpt>
      <trkpt lat="44.88277" lon="5.52923">
        <ele>1685.8</ele>
        <time>2022-01-19T09:28:21Z</time>
      </trkpt>
      <trkpt lat="44.8828" lon="5.52922">
        <ele>1686.4</ele>
        <time>2022-01-19T09:28:22Z</time>
      </trkpt>
      <trkpt lat="44.8828" lon="5.52921">
        <ele>1686.5</ele>
        <time>2022-01-19T09:28:23Z</time>
      </trkpt>
      <trkpt lat="44.88281" lon="5.52921">
        <ele>1686.6</ele>
        <time>2022-01-19T09:28:24Z</time>
      </trkpt>
      <trkpt lat="44.88281" lon="5.52921">
        <ele>1686.8</ele>
        <time>2022-01-19T09:28:25Z</time>
      </trkpt>
      <trkpt lat="44.88282" lon="5.52921">
        <ele>1686.9</ele>
        <time>2022-01-19T09:28:26Z</time>
      </trkpt>
      <trkpt lat="44.88283" lon="5.5292">
        <ele>1687.1</ele>
        <time>2022-01-19T09:28:27Z</time>
      </trkpt>
      <trkpt lat="44.88284" lon="5.5292">
        <ele>1687.3</ele>
        <time>2022-01-19T09:28:28Z</time>
      </trkpt>
      <trkpt lat="44.88284" lon="5.5292">
        <ele>1687.4</ele>
        <time>2022-01-19T09:28:29Z</time>
      </trkpt>
      <trkpt lat="44.88285" lon="5.5292">
        <ele>1687.6</ele>
        <time>2022-01-19T09:28:30Z</time>
      </trkpt>
      <trkpt lat="44.88285" lon="5.5292">
        <ele>1687.6</ele>
        <time>2022-01-19T09:28:31Z</time>
      </trkpt>
      <trkpt lat="44.88286" lon="5.5292">
        <ele>1687.8</ele>
        <time>2022-01-19T09:28:32Z</time>
      </trkpt>
      <trkpt lat="44.88286" lon="5.5292">
        <ele>1687.9</ele>
        <time>2022-01-19T09:28:33Z</time>
      </trkpt>
      <trkpt lat="44.88287" lon="5.5292">
        <ele>1688.1</ele>
        <time>2022-01-19T09:28:34Z</time>
      </trkpt>
      <trkpt lat="44.88288" lon="5.52919">
        <ele>1688.3</ele>
        <time>2022-01-19T09:28:35Z</time>
      </trkpt>
      <trkpt lat="44.88288" lon="5.52918">
        <ele>1688.4</ele>
        <time>2022-01-19T09:28:36Z</time>
      </trkpt>
      <trkpt lat="44.88289" lon="5.52918">
        <ele>1688.4</ele>
        <time>2022-01-19T09:28:37Z</time>
      </trkpt>
      <trkpt lat="44.88289" lon="5.52917">
        <ele>1688.7</ele>
        <time>2022-01-19T09:28:38Z</time>
      </trkpt>
      <trkpt lat="44.8829" lon="5.52916">
        <ele>1688.8</ele>
        <time>2022-01-19T09:28:39Z</time>
      </trkpt>
      <trkpt lat="44.8829" lon="5.52916">
        <ele>1688.9</ele>
        <time>2022-01-19T09:28:40Z</time>
      </trkpt>
      <trkpt lat="44.8829" lon="5.52915">
        <ele>1689</ele>
        <time>2022-01-19T09:28:41Z</time>
      </trkpt>
      <trkpt lat="44.8829" lon="5.52914">
        <ele>1689.2</ele>
        <time>2022-01-19T09:28:42Z</time>
      </trkpt>
      <trkpt lat="44.88291" lon="5.52914">
        <ele>1689.3</ele>
        <time>2022-01-19T09:28:43Z</time>
      </trkpt>
      <trkpt lat="44.88291" lon="5.52913">
        <ele>1689.4</ele>
        <time>2022-01-19T09:28:44Z</time>
      </trkpt>
      <trkpt lat="44.8829" lon="5.52913">
        <ele>1689.5</ele>
        <time>2022-01-19T09:28:45Z</time>
      </trkpt>
      <trkpt lat="44.8829" lon="5.52912">
        <ele>1689.6</ele>
        <time>2022-01-19T09:28:46Z</time>
      </trkpt>
      <trkpt lat="44.8829" lon="5.52912">
        <ele>1689.7</ele>
        <time>2022-01-19T09:28:47Z</time>
      </trkpt>
      <trkpt lat="44.8829" lon="5.52911">
        <ele>1689.8</ele>
        <time>2022-01-19T09:28:48Z</time>
      </trkpt>
      <trkpt lat="44.8829" lon="5.5291">
        <ele>1689.9</ele>
        <time>2022-01-19T09:28:49Z</time>
      </trkpt>
      <trkpt lat="44.8829" lon="5.52909">
        <ele>1690.1</ele>
        <time>2022-01-19T09:28:50Z</time>
      </trkpt>
      <trkpt lat="44.8829" lon="5.52909">
        <ele>1690.2</ele>
        <time>2022-01-19T09:28:51Z</time>
      </trkpt>
      <trkpt lat="44.8829" lon="5.52908">
        <ele>1690.3</ele>
        <time>2022-01-19T09:28:52Z</time>
      </trkpt>
      <trkpt lat="44.8829" lon="5.52907">
        <ele>1690.3</ele>
        <time>2022-01-19T09:28:53Z</time>
      </trkpt>
      <trkpt lat="44.8829" lon="5.52907">
        <ele>1690.4</ele>
        <time>2022-01-19T09:28:54Z</time>
      </trkpt>
      <trkpt lat="44.8829" lon="5.52906">
        <ele>1690.5</ele>
        <time>2022-01-19T09:28:55Z</time>
      </trkpt>
      <trkpt lat="44.88289" lon="5.52906">
        <ele>1690.7</ele>
        <time>2022-01-19T09:28:56Z</time>
      </trkpt>
      <trkpt lat="44.88289" lon="5.52905">
        <ele>1690.8</ele>
        <time>2022-01-19T09:28:57Z</time>
      </trkpt>
      <trkpt lat="44.88289" lon="5.52904">
        <ele>1690.9</ele>
        <time>2022-01-19T09:28:58Z</time>
      </trkpt>
      <trkpt lat="44.88289" lon="5.52903">
        <ele>1691</ele>
        <time>2022-01-19T09:28:59Z</time>
      </trkpt>
      <trkpt lat="44.88288" lon="5.52902">
        <ele>1691.2</ele>
        <time>2022-01-19T09:29:00Z</time>
      </trkpt>
      <trkpt lat="44.88288" lon="5.52902">
        <ele>1691.3</ele>
        <time>2022-01-19T09:29:01Z</time>
      </trkpt>
      <trkpt lat="44.88287" lon="5.52902">
        <ele>1691.4</ele>
        <time>2022-01-19T09:29:02Z</time>
      </trkpt>
      <trkpt lat="44.88287" lon="5.52901">
        <ele>1691.5</ele>
        <time>2022-01-19T09:29:03Z</time>
      </trkpt>
      <trkpt lat="44.88286" lon="5.52901">
        <ele>1691.7</ele>
        <time>2022-01-19T09:29:04Z</time>
      </trkpt>
      <trkpt lat="44.88286" lon="5.529">
        <ele>1691.7</ele>
        <time>2022-01-19T09:29:05Z</time>
      </trkpt>
      <trkpt lat="44.88286" lon="5.529">
        <ele>1691.8</ele>
        <time>2022-01-19T09:29:06Z</time>
      </trkpt>
      <trkpt lat="44.88285" lon="5.529">
        <ele>1691.9</ele>
        <time>2022-01-19T09:29:07Z</time>
      </trkpt>
      <trkpt lat="44.88285" lon="5.52899">
        <ele>1692</ele>
        <time>2022-01-19T09:29:08Z</time>
      </trkpt>
      <trkpt lat="44.88284" lon="5.52899">
        <ele>1692</ele>
        <time>2022-01-19T09:29:09Z</time>
      </trkpt>
      <trkpt lat="44.88284" lon="5.52899">
        <ele>1692.2</ele>
        <time>2022-01-19T09:29:10Z</time>
      </trkpt>
      <trkpt lat="44.88283" lon="5.52899">
        <ele>1692.3</ele>
        <time>2022-01-19T09:29:11Z</time>
      </trkpt>
      <trkpt lat="44.88283" lon="5.52898">
        <ele>1692.3</ele>
        <time>2022-01-19T09:29:12Z</time>
      </trkpt>
      <trkpt lat="44.88282" lon="5.52898">
        <ele>1692.5</ele>
        <time>2022-01-19T09:29:13Z</time>
      </trkpt>
      <trkpt lat="44.88282" lon="5.52898">
        <ele>1692.6</ele>
        <time>2022-01-19T09:29:14Z</time>
      </trkpt>
      <trkpt lat="44.88282" lon="5.52897">
        <ele>1692.6</ele>
        <time>2022-01-19T09:29:15Z</time>
      </trkpt>
      <trkpt lat="44.88281" lon="5.52897">
        <ele>1692.8</ele>
        <time>2022-01-19T09:29:16Z</time>
      </trkpt>
      <trkpt lat="44.88281" lon="5.52897">
        <ele>1692.9</ele>
        <time>2022-01-19T09:29:17Z</time>
      </trkpt>
      <trkpt lat="44.88281" lon="5.52896">
        <ele>1692.9</ele>
        <time>2022-01-19T09:29:18Z</time>
      </trkpt>
      <trkpt lat="44.8828" lon="5.52896">
        <ele>1693.1</ele>
        <time>2022-01-19T09:29:19Z</time>
      </trkpt>
      <trkpt lat="44.88279" lon="5.52896">
        <ele>1693.2</ele>
        <time>2022-01-19T09:29:20Z</time>
      </trkpt>
      <trkpt lat="44.88279" lon="5.52895">
        <ele>1693.3</ele>
        <time>2022-01-19T09:29:21Z</time>
      </trkpt>
      <trkpt lat="44.88278" lon="5.52895">
        <ele>1693.4</ele>
        <time>2022-01-19T09:29:22Z</time>
      </trkpt>
      <trkpt lat="44.88278" lon="5.52894">
        <ele>1693.5</ele>
        <time>2022-01-19T09:29:23Z</time>
      </trkpt>
      <trkpt lat="44.88277" lon="5.52894">
        <ele>1693.7</ele>
        <time>2022-01-19T09:29:24Z</time>
      </trkpt>
      <trkpt lat="44.88277" lon="5.52894">
        <ele>1693.8</ele>
        <time>2022-01-19T09:29:25Z</time>
      </trkpt>
      <trkpt lat="44.88276" lon="5.52893">
        <ele>1693.9</ele>
        <time>2022-01-19T09:29:26Z</time>
      </trkpt>
      <trkpt lat="44.88276" lon="5.52893">
        <ele>1694</ele>
        <time>2022-01-19T09:29:27Z</time>
      </trkpt>
      <trkpt lat="44.88275" lon="5.52893">
        <ele>1694.2</ele>
        <time>2022-01-19T09:29:28Z</time>
      </trkpt>
      <trkpt lat="44.88274" lon="5.52894">
        <ele>1694.3</ele>
        <time>2022-01-19T09:29:29Z</time>
      </trkpt>
      <trkpt lat="44.88273" lon="5.52895">
        <ele>1694.5</ele>
        <time>2022-01-19T09:29:30Z</time>
      </trkpt>
      <trkpt lat="44.88273" lon="5.52895">
        <ele>1694.7</ele>
        <time>2022-01-19T09:29:31Z</time>
      </trkpt>
      <trkpt lat="44.88272" lon="5.52895">
        <ele>1694.8</ele>
        <time>2022-01-19T09:29:32Z</time>
      </trkpt>
      <trkpt lat="44.88272" lon="5.52895">
        <ele>1694.8</ele>
        <time>2022-01-19T09:29:33Z</time>
      </trkpt>
      <trkpt lat="44.88271" lon="5.52895">
        <ele>1694.9</ele>
        <time>2022-01-19T09:29:34Z</time>
      </trkpt>
      <trkpt lat="44.88271" lon="5.52895">
        <ele>1695.1</ele>
        <time>2022-01-19T09:29:35Z</time>
      </trkpt>
      <trkpt lat="44.8827" lon="5.52896">
        <ele>1695.2</ele>
        <time>2022-01-19T09:29:36Z</time>
      </trkpt>
      <trkpt lat="44.8827" lon="5.52895">
        <ele>1695.3</ele>
        <time>2022-01-19T09:29:37Z</time>
      </trkpt>
      <trkpt lat="44.88269" lon="5.52895">
        <ele>1695.4</ele>
        <time>2022-01-19T09:29:38Z</time>
      </trkpt>
      <trkpt lat="44.88269" lon="5.52894">
        <ele>1695.5</ele>
        <time>2022-01-19T09:29:39Z</time>
      </trkpt>
      <trkpt lat="44.88269" lon="5.52894">
        <ele>1695.6</ele>
        <time>2022-01-19T09:29:40Z</time>
      </trkpt>
      <trkpt lat="44.88268" lon="5.52893">
        <ele>1695.8</ele>
        <time>2022-01-19T09:29:41Z</time>
      </trkpt>
      <trkpt lat="44.88268" lon="5.52893">
        <ele>1695.9</ele>
        <time>2022-01-19T09:29:42Z</time>
      </trkpt>
      <trkpt lat="44.88268" lon="5.52892">
        <ele>1695.9</ele>
        <time>2022-01-19T09:29:43Z</time>
      </trkpt>
      <trkpt lat="44.88268" lon="5.52892">
        <ele>1696</ele>
        <time>2022-01-19T09:29:44Z</time>
      </trkpt>
      <trkpt lat="44.88268" lon="5.52891">
        <ele>1696.1</ele>
        <time>2022-01-19T09:29:45Z</time>
      </trkpt>
      <trkpt lat="44.88268" lon="5.52891">
        <ele>1696.2</ele>
        <time>2022-01-19T09:29:46Z</time>
      </trkpt>
      <trkpt lat="44.88268" lon="5.5289">
        <ele>1696.3</ele>
        <time>2022-01-19T09:29:47Z</time>
      </trkpt>
      <trkpt lat="44.88268" lon="5.5289">
        <ele>1696.4</ele>
        <time>2022-01-19T09:29:48Z</time>
      </trkpt>
      <trkpt lat="44.88267" lon="5.5289">
        <ele>1696.5</ele>
        <time>2022-01-19T09:29:49Z</time>
      </trkpt>
      <trkpt lat="44.88266" lon="5.5289">
        <ele>1696.6</ele>
        <time>2022-01-19T09:29:50Z</time>
      </trkpt>
      <trkpt lat="44.88266" lon="5.52889">
        <ele>1696.8</ele>
        <time>2022-01-19T09:29:51Z</time>
      </trkpt>
      <trkpt lat="44.88266" lon="5.52888">
        <ele>1696.9</ele>
        <time>2022-01-19T09:29:52Z</time>
      </trkpt>
      <trkpt lat="44.88265" lon="5.52888">
        <ele>1697</ele>
        <time>2022-01-19T09:29:53Z</time>
      </trkpt>
      <trkpt lat="44.88265" lon="5.52887">
        <ele>1697.1</ele>
        <time>2022-01-19T09:29:54Z</time>
      </trkpt>
      <trkpt lat="44.88265" lon="5.52886">
        <ele>1697.2</ele>
        <time>2022-01-19T09:29:55Z</time>
      </trkpt>
      <trkpt lat="44.88265" lon="5.52885">
        <ele>1697.4</ele>
        <time>2022-01-19T09:29:56Z</time>
      </trkpt>
      <trkpt lat="44.88265" lon="5.52885">
        <ele>1697.5</ele>
        <time>2022-01-19T09:29:57Z</time>
      </trkpt>
      <trkpt lat="44.88265" lon="5.52884">
        <ele>1697.5</ele>
        <time>2022-01-19T09:29:58Z</time>
      </trkpt>
      <trkpt lat="44.88264" lon="5.52883">
        <ele>1697.7</ele>
        <time>2022-01-19T09:29:59Z</time>
      </trkpt>
      <trkpt lat="44.88264" lon="5.52882">
        <ele>1697.9</ele>
        <time>2022-01-19T09:30:00Z</time>
      </trkpt>
      <trkpt lat="44.88264" lon="5.52881">
        <ele>1698.1</ele>
        <time>2022-01-19T09:30:01Z</time>
      </trkpt>
      <trkpt lat="44.88263" lon="5.5288">
        <ele>1698.2</ele>
        <time>2022-01-19T09:30:02Z</time>
      </trkpt>
      <trkpt lat="44.88263" lon="5.5288">
        <ele>1698.3</ele>
        <time>2022-01-19T09:30:03Z</time>
      </trkpt>
      <trkpt lat="44.88263" lon="5.52879">
        <ele>1698.5</ele>
        <time>2022-01-19T09:30:04Z</time>
      </trkpt>
      <trkpt lat="44.88262" lon="5.52879">
        <ele>1698.6</ele>
        <time>2022-01-19T09:30:05Z</time>
      </trkpt>
      <trkpt lat="44.88262" lon="5.52878">
        <ele>1698.7</ele>
        <time>2022-01-19T09:30:06Z</time>
      </trkpt>
      <trkpt lat="44.88262" lon="5.52878">
        <ele>1698.7</ele>
        <time>2022-01-19T09:30:07Z</time>
      </trkpt>
      <trkpt lat="44.88261" lon="5.52877">
        <ele>1698.9</ele>
        <time>2022-01-19T09:30:08Z</time>
      </trkpt>
      <trkpt lat="44.88261" lon="5.52876">
        <ele>1699</ele>
        <time>2022-01-19T09:30:09Z</time>
      </trkpt>
      <trkpt lat="44.88261" lon="5.52876">
        <ele>1699</ele>
        <time>2022-01-19T09:30:10Z</time>
      </trkpt>
      <trkpt lat="44.88261" lon="5.52875">
        <ele>1699.1</ele>
        <time>2022-01-19T09:30:11Z</time>
      </trkpt>
      <trkpt lat="44.88261" lon="5.52875">
        <ele>1699.2</ele>
        <time>2022-01-19T09:30:12Z</time>
      </trkpt>
      <trkpt lat="44.88261" lon="5.52874">
        <ele>1699.3</ele>
        <time>2022-01-19T09:30:13Z</time>
      </trkpt>
      <trkpt lat="44.8826" lon="5.52874">
        <ele>1699.5</ele>
        <time>2022-01-19T09:30:14Z</time>
      </trkpt>
      <trkpt lat="44.8826" lon="5.52873">
        <ele>1699.5</ele>
        <time>2022-01-19T09:30:15Z</time>
      </trkpt>
      <trkpt lat="44.88259" lon="5.52873">
        <ele>1699.7</ele>
        <time>2022-01-19T09:30:16Z</time>
      </trkpt>
      <trkpt lat="44.88259" lon="5.52872">
        <ele>1699.8</ele>
        <time>2022-01-19T09:30:17Z</time>
      </trkpt>
      <trkpt lat="44.88258" lon="5.52872">
        <ele>1699.9</ele>
        <time>2022-01-19T09:30:18Z</time>
      </trkpt>
      <trkpt lat="44.88258" lon="5.52871">
        <ele>1700</ele>
        <time>2022-01-19T09:30:19Z</time>
      </trkpt>
      <trkpt lat="44.88258" lon="5.52871">
        <ele>1700.1</ele>
        <time>2022-01-19T09:30:20Z</time>
      </trkpt>
      <trkpt lat="44.88258" lon="5.52869">
        <ele>1700.3</ele>
        <time>2022-01-19T09:30:21Z</time>
      </trkpt>
      <trkpt lat="44.88258" lon="5.52868">
        <ele>1700.4</ele>
        <time>2022-01-19T09:30:22Z</time>
      </trkpt>
      <trkpt lat="44.88258" lon="5.52868">
        <ele>1700.5</ele>
        <time>2022-01-19T09:30:23Z</time>
      </trkpt>
      <trkpt lat="44.88258" lon="5.52867">
        <ele>1700.6</ele>
        <time>2022-01-19T09:30:24Z</time>
      </trkpt>
      <trkpt lat="44.88258" lon="5.52867">
        <ele>1700.7</ele>
        <time>2022-01-19T09:30:25Z</time>
      </trkpt>
      <trkpt lat="44.88258" lon="5.52866">
        <ele>1700.7</ele>
        <time>2022-01-19T09:30:26Z</time>
      </trkpt>
      <trkpt lat="44.88258" lon="5.52866">
        <ele>1700.8</ele>
        <time>2022-01-19T09:30:27Z</time>
      </trkpt>
      <trkpt lat="44.88258" lon="5.52865">
        <ele>1700.9</ele>
        <time>2022-01-19T09:30:28Z</time>
      </trkpt>
      <trkpt lat="44.88258" lon="5.52864">
        <ele>1701</ele>
        <time>2022-01-19T09:30:29Z</time>
      </trkpt>
      <trkpt lat="44.88258" lon="5.52863">
        <ele>1701.1</ele>
        <time>2022-01-19T09:30:30Z</time>
      </trkpt>
      <trkpt lat="44.88258" lon="5.52863">
        <ele>1701.1</ele>
        <time>2022-01-19T09:30:31Z</time>
      </trkpt>
      <trkpt lat="44.88258" lon="5.52862">
        <ele>1701.2</ele>
        <time>2022-01-19T09:30:32Z</time>
      </trkpt>
      <trkpt lat="44.88258" lon="5.52862">
        <ele>1701.3</ele>
        <time>2022-01-19T09:30:33Z</time>
      </trkpt>
      <trkpt lat="44.88258" lon="5.52862">
        <ele>1701.3</ele>
        <time>2022-01-19T09:30:34Z</time>
      </trkpt>
      <trkpt lat="44.88258" lon="5.5286">
        <ele>1701.5</ele>
        <time>2022-01-19T09:30:35Z</time>
      </trkpt>
      <trkpt lat="44.88258" lon="5.52859">
        <ele>1701.6</ele>
        <time>2022-01-19T09:30:36Z</time>
      </trkpt>
      <trkpt lat="44.88258" lon="5.52859">
        <ele>1701.7</ele>
        <time>2022-01-19T09:30:37Z</time>
      </trkpt>
      <trkpt lat="44.88258" lon="5.52858">
        <ele>1701.8</ele>
        <time>2022-01-19T09:30:38Z</time>
      </trkpt>
      <trkpt lat="44.88258" lon="5.52858">
        <ele>1701.9</ele>
        <time>2022-01-19T09:30:39Z</time>
      </trkpt>
      <trkpt lat="44.88257" lon="5.52857">
        <ele>1702.1</ele>
        <time>2022-01-19T09:30:40Z</time>
      </trkpt>
      <trkpt lat="44.88257" lon="5.52856">
        <ele>1702.2</ele>
        <time>2022-01-19T09:30:41Z</time>
      </trkpt>
      <trkpt lat="44.88258" lon="5.52855">
        <ele>1702.3</ele>
        <time>2022-01-19T09:30:42Z</time>
      </trkpt>
      <trkpt lat="44.88258" lon="5.52855">
        <ele>1702.3</ele>
        <time>2022-01-19T09:30:43Z</time>
      </trkpt>
      <trkpt lat="44.88258" lon="5.52854">
        <ele>1702.4</ele>
        <time>2022-01-19T09:30:44Z</time>
      </trkpt>
      <trkpt lat="44.88258" lon="5.52853">
        <ele>1702.5</ele>
        <time>2022-01-19T09:30:45Z</time>
      </trkpt>
      <trkpt lat="44.88258" lon="5.52852">
        <ele>1702.6</ele>
        <time>2022-01-19T09:30:46Z</time>
      </trkpt>
      <trkpt lat="44.88258" lon="5.52851">
        <ele>1702.8</ele>
        <time>2022-01-19T09:30:47Z</time>
      </trkpt>
      <trkpt lat="44.88258" lon="5.52851">
        <ele>1702.9</ele>
        <time>2022-01-19T09:30:48Z</time>
      </trkpt>
      <trkpt lat="44.88259" lon="5.5285">
        <ele>1703</ele>
        <time>2022-01-19T09:30:49Z</time>
      </trkpt>
      <trkpt lat="44.88259" lon="5.52849">
        <ele>1703.1</ele>
        <time>2022-01-19T09:30:50Z</time>
      </trkpt>
      <trkpt lat="44.8826" lon="5.52848">
        <ele>1703.3</ele>
        <time>2022-01-19T09:30:51Z</time>
      </trkpt>
      <trkpt lat="44.8826" lon="5.52847">
        <ele>1703.4</ele>
        <time>2022-01-19T09:30:52Z</time>
      </trkpt>
      <trkpt lat="44.8826" lon="5.52847">
        <ele>1703.5</ele>
        <time>2022-01-19T09:30:53Z</time>
      </trkpt>
      <trkpt lat="44.8826" lon="5.52845">
        <ele>1703.7</ele>
        <time>2022-01-19T09:30:54Z</time>
      </trkpt>
      <trkpt lat="44.88261" lon="5.52844">
        <ele>1703.8</ele>
        <time>2022-01-19T09:30:55Z</time>
      </trkpt>
      <trkpt lat="44.88261" lon="5.52844">
        <ele>1703.8</ele>
        <time>2022-01-19T09:30:56Z</time>
      </trkpt>
      <trkpt lat="44.88261" lon="5.52844">
        <ele>1703.9</ele>
        <time>2022-01-19T09:30:57Z</time>
      </trkpt>
      <trkpt lat="44.88261" lon="5.52842">
        <ele>1704.1</ele>
        <time>2022-01-19T09:30:58Z</time>
      </trkpt>
      <trkpt lat="44.88261" lon="5.52842">
        <ele>1704.2</ele>
        <time>2022-01-19T09:30:59Z</time>
      </trkpt>
      <trkpt lat="44.88262" lon="5.52841">
        <ele>1704.3</ele>
        <time>2022-01-19T09:31:00Z</time>
      </trkpt>
      <trkpt lat="44.88263" lon="5.5284">
        <ele>1704.5</ele>
        <time>2022-01-19T09:31:01Z</time>
      </trkpt>
      <trkpt lat="44.88263" lon="5.52839">
        <ele>1704.7</ele>
        <time>2022-01-19T09:31:02Z</time>
      </trkpt>
      <trkpt lat="44.88263" lon="5.52838">
        <ele>1704.8</ele>
        <time>2022-01-19T09:31:03Z</time>
      </trkpt>
      <trkpt lat="44.88264" lon="5.52837">
        <ele>1705</ele>
        <time>2022-01-19T09:31:04Z</time>
      </trkpt>
      <trkpt lat="44.88264" lon="5.52835">
        <ele>1705.2</ele>
        <time>2022-01-19T09:31:05Z</time>
      </trkpt>
      <trkpt lat="44.88265" lon="5.52835">
        <ele>1705.4</ele>
        <time>2022-01-19T09:31:06Z</time>
      </trkpt>
      <trkpt lat="44.88266" lon="5.52834">
        <ele>1705.5</ele>
        <time>2022-01-19T09:31:07Z</time>
      </trkpt>
      <trkpt lat="44.88266" lon="5.52834">
        <ele>1705.7</ele>
        <time>2022-01-19T09:31:08Z</time>
      </trkpt>
      <trkpt lat="44.88267" lon="5.52833">
        <ele>1705.8</ele>
        <time>2022-01-19T09:31:09Z</time>
      </trkpt>
      <trkpt lat="44.88268" lon="5.52833">
        <ele>1705.9</ele>
        <time>2022-01-19T09:31:10Z</time>
      </trkpt>
      <trkpt lat="44.88268" lon="5.52832">
        <ele>1706</ele>
        <time>2022-01-19T09:31:11Z</time>
      </trkpt>
      <trkpt lat="44.88268" lon="5.52831">
        <ele>1706.1</ele>
        <time>2022-01-19T09:31:12Z</time>
      </trkpt>
      <trkpt lat="44.88268" lon="5.52831">
        <ele>1706.3</ele>
        <time>2022-01-19T09:31:13Z</time>
      </trkpt>
      <trkpt lat="44.88269" lon="5.5283">
        <ele>1706.4</ele>
        <time>2022-01-19T09:31:14Z</time>
      </trkpt>
      <trkpt lat="44.88269" lon="5.52829">
        <ele>1706.5</ele>
        <time>2022-01-19T09:31:15Z</time>
      </trkpt>
      <trkpt lat="44.88269" lon="5.52829">
        <ele>1706.6</ele>
        <time>2022-01-19T09:31:16Z</time>
      </trkpt>
      <trkpt lat="44.8827" lon="5.52828">
        <ele>1706.8</ele>
        <time>2022-01-19T09:31:17Z</time>
      </trkpt>
      <trkpt lat="44.8827" lon="5.52827">
        <ele>1706.9</ele>
        <time>2022-01-19T09:31:18Z</time>
      </trkpt>
      <trkpt lat="44.88271" lon="5.52827">
        <ele>1707</ele>
        <time>2022-01-19T09:31:19Z</time>
      </trkpt>
      <trkpt lat="44.88271" lon="5.52826">
        <ele>1707.1</ele>
        <time>2022-01-19T09:31:20Z</time>
      </trkpt>
      <trkpt lat="44.88271" lon="5.52825">
        <ele>1707.3</ele>
        <time>2022-01-19T09:31:21Z</time>
      </trkpt>
      <trkpt lat="44.88271" lon="5.52823">
        <ele>1707.5</ele>
        <time>2022-01-19T09:31:22Z</time>
      </trkpt>
      <trkpt lat="44.88271" lon="5.52822">
        <ele>1707.7</ele>
        <time>2022-01-19T09:31:23Z</time>
      </trkpt>
      <trkpt lat="44.88272" lon="5.5282">
        <ele>1707.9</ele>
        <time>2022-01-19T09:31:24Z</time>
      </trkpt>
      <trkpt lat="44.88271" lon="5.52819">
        <ele>1708.1</ele>
        <time>2022-01-19T09:31:25Z</time>
      </trkpt>
      <trkpt lat="44.88271" lon="5.52818">
        <ele>1708.2</ele>
        <time>2022-01-19T09:31:26Z</time>
      </trkpt>
      <trkpt lat="44.88271" lon="5.52816">
        <ele>1708.4</ele>
        <time>2022-01-19T09:31:27Z</time>
      </trkpt>
      <trkpt lat="44.88271" lon="5.52815">
        <ele>1708.5</ele>
        <time>2022-01-19T09:31:28Z</time>
      </trkpt>
      <trkpt lat="44.88272" lon="5.52815">
        <ele>1708.6</ele>
        <time>2022-01-19T09:31:29Z</time>
      </trkpt>
      <trkpt lat="44.88271" lon="5.52814">
        <ele>1708.8</ele>
        <time>2022-01-19T09:31:30Z</time>
      </trkpt>
      <trkpt lat="44.88271" lon="5.52813">
        <ele>1708.9</ele>
        <time>2022-01-19T09:31:31Z</time>
      </trkpt>
      <trkpt lat="44.88271" lon="5.52812">
        <ele>1709.1</ele>
        <time>2022-01-19T09:31:32Z</time>
      </trkpt>
      <trkpt lat="44.88271" lon="5.52811">
        <ele>1709.1</ele>
        <time>2022-01-19T09:31:33Z</time>
      </trkpt>
      <trkpt lat="44.88271" lon="5.5281">
        <ele>1709.4</ele>
        <time>2022-01-19T09:31:34Z</time>
      </trkpt>
      <trkpt lat="44.88271" lon="5.52809">
        <ele>1709.5</ele>
        <time>2022-01-19T09:31:35Z</time>
      </trkpt>
      <trkpt lat="44.88271" lon="5.52808">
        <ele>1709.6</ele>
        <time>2022-01-19T09:31:36Z</time>
      </trkpt>
      <trkpt lat="44.88271" lon="5.52807">
        <ele>1709.7</ele>
        <time>2022-01-19T09:31:37Z</time>
      </trkpt>
      <trkpt lat="44.88271" lon="5.52807">
        <ele>1709.7</ele>
        <time>2022-01-19T09:31:38Z</time>
      </trkpt>
      <trkpt lat="44.88271" lon="5.52806">
        <ele>1709.8</ele>
        <time>2022-01-19T09:31:39Z</time>
      </trkpt>
      <trkpt lat="44.88271" lon="5.52805">
        <ele>1710</ele>
        <time>2022-01-19T09:31:40Z</time>
      </trkpt>
      <trkpt lat="44.88271" lon="5.52804">
        <ele>1710.2</ele>
        <time>2022-01-19T09:31:41Z</time>
      </trkpt>
      <trkpt lat="44.88272" lon="5.52803">
        <ele>1710.3</ele>
        <time>2022-01-19T09:31:42Z</time>
      </trkpt>
      <trkpt lat="44.88272" lon="5.52803">
        <ele>1710.4</ele>
        <time>2022-01-19T09:31:43Z</time>
      </trkpt>
      <trkpt lat="44.88272" lon="5.52802">
        <ele>1710.5</ele>
        <time>2022-01-19T09:31:44Z</time>
      </trkpt>
      <trkpt lat="44.88272" lon="5.52801">
        <ele>1710.7</ele>
        <time>2022-01-19T09:31:45Z</time>
      </trkpt>
      <trkpt lat="44.88272" lon="5.528">
        <ele>1710.7</ele>
        <time>2022-01-19T09:31:46Z</time>
      </trkpt>
      <trkpt lat="44.88272" lon="5.528">
        <ele>1710.8</ele>
        <time>2022-01-19T09:31:47Z</time>
      </trkpt>
      <trkpt lat="44.88272" lon="5.52799">
        <ele>1710.9</ele>
        <time>2022-01-19T09:31:48Z</time>
      </trkpt>
      <trkpt lat="44.88272" lon="5.52798">
        <ele>1711.1</ele>
        <time>2022-01-19T09:31:49Z</time>
      </trkpt>
      <trkpt lat="44.88271" lon="5.52797">
        <ele>1711.2</ele>
        <time>2022-01-19T09:31:50Z</time>
      </trkpt>
      <trkpt lat="44.88272" lon="5.52796">
        <ele>1711.4</ele>
        <time>2022-01-19T09:31:51Z</time>
      </trkpt>
      <trkpt lat="44.88271" lon="5.52796">
        <ele>1711.5</ele>
        <time>2022-01-19T09:31:52Z</time>
      </trkpt>
      <trkpt lat="44.88271" lon="5.52795">
        <ele>1711.6</ele>
        <time>2022-01-19T09:31:53Z</time>
      </trkpt>
      <trkpt lat="44.88271" lon="5.52794">
        <ele>1711.7</ele>
        <time>2022-01-19T09:31:54Z</time>
      </trkpt>
      <trkpt lat="44.88271" lon="5.52793">
        <ele>1711.9</ele>
        <time>2022-01-19T09:31:55Z</time>
      </trkpt>
      <trkpt lat="44.88271" lon="5.52792">
        <ele>1712</ele>
        <time>2022-01-19T09:31:56Z</time>
      </trkpt>
      <trkpt lat="44.88271" lon="5.52792">
        <ele>1712.1</ele>
        <time>2022-01-19T09:31:57Z</time>
      </trkpt>
      <trkpt lat="44.88271" lon="5.52791">
        <ele>1712.2</ele>
        <time>2022-01-19T09:31:58Z</time>
      </trkpt>
      <trkpt lat="44.88271" lon="5.5279">
        <ele>1712.3</ele>
        <time>2022-01-19T09:31:59Z</time>
      </trkpt>
      <trkpt lat="44.88271" lon="5.5279">
        <ele>1712.4</ele>
        <time>2022-01-19T09:32:00Z</time>
      </trkpt>
      <trkpt lat="44.88271" lon="5.52789">
        <ele>1712.5</ele>
        <time>2022-01-19T09:32:01Z</time>
      </trkpt>
      <trkpt lat="44.88271" lon="5.52789">
        <ele>1712.6</ele>
        <time>2022-01-19T09:32:02Z</time>
      </trkpt>
      <trkpt lat="44.88271" lon="5.52788">
        <ele>1712.8</ele>
        <time>2022-01-19T09:32:03Z</time>
      </trkpt>
      <trkpt lat="44.88272" lon="5.52788">
        <ele>1712.9</ele>
        <time>2022-01-19T09:32:04Z</time>
      </trkpt>
      <trkpt lat="44.88272" lon="5.52788">
        <ele>1713</ele>
        <time>2022-01-19T09:32:05Z</time>
      </trkpt>
      <trkpt lat="44.88272" lon="5.52787">
        <ele>1713.1</ele>
        <time>2022-01-19T09:32:06Z</time>
      </trkpt>
      <trkpt lat="44.88272" lon="5.52787">
        <ele>1713.2</ele>
        <time>2022-01-19T09:32:07Z</time>
      </trkpt>
      <trkpt lat="44.88273" lon="5.52786">
        <ele>1713.3</ele>
        <time>2022-01-19T09:32:08Z</time>
      </trkpt>
      <trkpt lat="44.88273" lon="5.52785">
        <ele>1713.4</ele>
        <time>2022-01-19T09:32:09Z</time>
      </trkpt>
      <trkpt lat="44.88272" lon="5.52785">
        <ele>1713.6</ele>
        <time>2022-01-19T09:32:10Z</time>
      </trkpt>
      <trkpt lat="44.88272" lon="5.52784">
        <ele>1713.7</ele>
        <time>2022-01-19T09:32:11Z</time>
      </trkpt>
      <trkpt lat="44.88272" lon="5.52783">
        <ele>1713.8</ele>
        <time>2022-01-19T09:32:12Z</time>
      </trkpt>
      <trkpt lat="44.88272" lon="5.52783">
        <ele>1713.9</ele>
        <time>2022-01-19T09:32:13Z</time>
      </trkpt>
      <trkpt lat="44.88273" lon="5.52782">
        <ele>1714</ele>
        <time>2022-01-19T09:32:14Z</time>
      </trkpt>
      <trkpt lat="44.88273" lon="5.52782">
        <ele>1714.1</ele>
        <time>2022-01-19T09:32:15Z</time>
      </trkpt>
      <trkpt lat="44.88273" lon="5.52782">
        <ele>1714.1</ele>
        <time>2022-01-19T09:32:16Z</time>
      </trkpt>
      <trkpt lat="44.88273" lon="5.52781">
        <ele>1714.2</ele>
        <time>2022-01-19T09:32:17Z</time>
      </trkpt>
      <trkpt lat="44.88273" lon="5.52781">
        <ele>1714.2</ele>
        <time>2022-01-19T09:32:18Z</time>
      </trkpt>
      <trkpt lat="44.88273" lon="5.52781">
        <ele>1714.2</ele>
        <time>2022-01-19T09:32:19Z</time>
      </trkpt>
      <trkpt lat="44.88273" lon="5.52781">
        <ele>1714.2</ele>
        <time>2022-01-19T09:32:20Z</time>
      </trkpt>
      <trkpt lat="44.88273" lon="5.52781">
        <ele>1714.2</ele>
        <time>2022-01-19T09:32:21Z</time>
      </trkpt>
      <trkpt lat="44.88273" lon="5.52781">
        <ele>1714.2</ele>
        <time>2022-01-19T09:32:22Z</time>
      </trkpt>
      <trkpt lat="44.88273" lon="5.52781">
        <ele>1714.2</ele>
        <time>2022-01-19T09:32:23Z</time>
      </trkpt>
      <trkpt lat="44.88273" lon="5.52781">
        <ele>1714.2</ele>
        <time>2022-01-19T09:32:24Z</time>
      </trkpt>
      <trkpt lat="44.88273" lon="5.52781">
        <ele>1714.2</ele>
        <time>2022-01-19T09:32:25Z</time>
      </trkpt>
      <trkpt lat="44.88273" lon="5.52781">
        <ele>1714.2</ele>
        <time>2022-01-19T09:32:26Z</time>
      </trkpt>
      <trkpt lat="44.88273" lon="5.52781">
        <ele>1714.2</ele>
        <time>2022-01-19T09:32:27Z</time>
      </trkpt>
      <trkpt lat="44.88273" lon="5.52781">
        <ele>1714.2</ele>
        <time>2022-01-19T09:32:28Z</time>
      </trkpt>
      <trkpt lat="44.88273" lon="5.52781">
        <ele>1714.2</ele>
        <time>2022-01-19T09:32:29Z</time>
      </trkpt>
      <trkpt lat="44.88273" lon="5.52781">
        <ele>1714.2</ele>
        <time>2022-01-19T09:32:30Z</time>
      </trkpt>
      <trkpt lat="44.88273" lon="5.52781">
        <ele>1714.2</ele>
        <time>2022-01-19T09:32:31Z</time>
      </trkpt>
      <trkpt lat="44.88273" lon="5.52781">
        <ele>1714.2</ele>
        <time>2022-01-19T09:32:32Z</time>
      </trkpt>
      <trkpt lat="44.88273" lon="5.52781">
        <ele>1714.2</ele>
        <time>2022-01-19T09:32:33Z</time>
      </trkpt>
      <trkpt lat="44.88273" lon="5.52781">
        <ele>1714.2</ele>
        <time>2022-01-19T09:32:34Z</time>
      </trkpt>
      <trkpt lat="44.88273" lon="5.52781">
        <ele>1714.2</ele>
        <time>2022-01-19T09:32:35Z</time>
      </trkpt>
      <trkpt lat="44.88273" lon="5.52781">
        <ele>1714.2</ele>
        <time>2022-01-19T09:32:36Z</time>
      </trkpt>
      <trkpt lat="44.88273" lon="5.52781">
        <ele>1714.2</ele>
        <time>2022-01-19T09:32:37Z</time>
      </trkpt>
      <trkpt lat="44.88273" lon="5.52781">
        <ele>1714.2</ele>
        <time>2022-01-19T09:32:38Z</time>
      </trkpt>
      <trkpt lat="44.88273" lon="5.52781">
        <ele>1714.2</ele>
        <time>2022-01-19T09:32:39Z</time>
      </trkpt>
      <trkpt lat="44.88273" lon="5.52781">
        <ele>1714.2</ele>
        <time>2022-01-19T09:32:40Z</time>
      </trkpt>
      <trkpt lat="44.88273" lon="5.52781">
        <ele>1714.2</ele>
        <time>2022-01-19T09:32:41Z</time>
      </trkpt>
      <trkpt lat="44.88273" lon="5.52781">
        <ele>1714.2</ele>
        <time>2022-01-19T09:32:42Z</time>
      </trkpt>
      <trkpt lat="44.88273" lon="5.52781">
        <ele>1714.2</ele>
        <time>2022-01-19T09:32:43Z</time>
      </trkpt>
      <trkpt lat="44.88273" lon="5.52781">
        <ele>1714.2</ele>
        <time>2022-01-19T09:32:44Z</time>
      </trkpt>
      <trkpt lat="44.88273" lon="5.52781">
        <ele>1714.2</ele>
        <time>2022-01-19T09:32:45Z</time>
      </trkpt>
      <trkpt lat="44.88273" lon="5.52781">
        <ele>1714.2</ele>
        <time>2022-01-19T09:32:46Z</time>
      </trkpt>
      <trkpt lat="44.88273" lon="5.52781">
        <ele>1714.2</ele>
        <time>2022-01-19T09:32:47Z</time>
      </trkpt>
      <trkpt lat="44.88273" lon="5.52781">
        <ele>1714.2</ele>
        <time>2022-01-19T09:32:48Z</time>
      </trkpt>
      <trkpt lat="44.88273" lon="5.52781">
        <ele>1714.2</ele>
        <time>2022-01-19T09:32:49Z</time>
      </trkpt>
      <trkpt lat="44.88273" lon="5.52781">
        <ele>1714.2</ele>
        <time>2022-01-19T09:32:50Z</time>
      </trkpt>
      <trkpt lat="44.88273" lon="5.52781">
        <ele>1714.2</ele>
        <time>2022-01-19T09:32:51Z</time>
      </trkpt>
      <trkpt lat="44.88273" lon="5.52781">
        <ele>1714.2</ele>
        <time>2022-01-19T09:32:52Z</time>
      </trkpt>
      <trkpt lat="44.88273" lon="5.52781">
        <ele>1714.2</ele>
        <time>2022-01-19T09:32:53Z</time>
      </trkpt>
      <trkpt lat="44.8827" lon="5.5278">
        <ele>1714.8</ele>
        <time>2022-01-19T09:32:54Z</time>
      </trkpt>
      <trkpt lat="44.8827" lon="5.52779">
        <ele>1714.9</ele>
        <time>2022-01-19T09:32:55Z</time>
      </trkpt>
      <trkpt lat="44.8827" lon="5.52778">
        <ele>1715</ele>
        <time>2022-01-19T09:32:56Z</time>
      </trkpt>
      <trkpt lat="44.8827" lon="5.52777">
        <ele>1715.1</ele>
        <time>2022-01-19T09:32:57Z</time>
      </trkpt>
      <trkpt lat="44.8827" lon="5.52777">
        <ele>1715.2</ele>
        <time>2022-01-19T09:32:58Z</time>
      </trkpt>
      <trkpt lat="44.8827" lon="5.52776">
        <ele>1715.3</ele>
        <time>2022-01-19T09:32:59Z</time>
      </trkpt>
      <trkpt lat="44.8827" lon="5.52776">
        <ele>1715.4</ele>
        <time>2022-01-19T09:33:00Z</time>
      </trkpt>
      <trkpt lat="44.8827" lon="5.52775">
        <ele>1715.5</ele>
        <time>2022-01-19T09:33:01Z</time>
      </trkpt>
      <trkpt lat="44.8827" lon="5.52774">
        <ele>1715.6</ele>
        <time>2022-01-19T09:33:02Z</time>
      </trkpt>
      <trkpt lat="44.8827" lon="5.52773">
        <ele>1715.8</ele>
        <time>2022-01-19T09:33:03Z</time>
      </trkpt>
      <trkpt lat="44.88271" lon="5.52772">
        <ele>1716</ele>
        <time>2022-01-19T09:33:04Z</time>
      </trkpt>
      <trkpt lat="44.88271" lon="5.52771">
        <ele>1716.1</ele>
        <time>2022-01-19T09:33:05Z</time>
      </trkpt>
      <trkpt lat="44.88271" lon="5.52771">
        <ele>1716.1</ele>
        <time>2022-01-19T09:33:06Z</time>
      </trkpt>
      <trkpt lat="44.88271" lon="5.5277">
        <ele>1716.3</ele>
        <time>2022-01-19T09:33:07Z</time>
      </trkpt>
      <trkpt lat="44.88271" lon="5.5277">
        <ele>1716.3</ele>
        <time>2022-01-19T09:33:08Z</time>
      </trkpt>
      <trkpt lat="44.88271" lon="5.52769">
        <ele>1716.5</ele>
        <time>2022-01-19T09:33:09Z</time>
      </trkpt>
      <trkpt lat="44.88271" lon="5.52769">
        <ele>1716.6</ele>
        <time>2022-01-19T09:33:10Z</time>
      </trkpt>
      <trkpt lat="44.88271" lon="5.52768">
        <ele>1716.6</ele>
        <time>2022-01-19T09:33:11Z</time>
      </trkpt>
      <trkpt lat="44.88271" lon="5.52767">
        <ele>1716.8</ele>
        <time>2022-01-19T09:33:12Z</time>
      </trkpt>
      <trkpt lat="44.88271" lon="5.52766">
        <ele>1717</ele>
        <time>2022-01-19T09:33:13Z</time>
      </trkpt>
      <trkpt lat="44.88271" lon="5.52765">
        <ele>1717.1</ele>
        <time>2022-01-19T09:33:14Z</time>
      </trkpt>
      <trkpt lat="44.88271" lon="5.52764">
        <ele>1717.3</ele>
        <time>2022-01-19T09:33:15Z</time>
      </trkpt>
      <trkpt lat="44.8827" lon="5.52764">
        <ele>1717.4</ele>
        <time>2022-01-19T09:33:16Z</time>
      </trkpt>
      <trkpt lat="44.8827" lon="5.52763">
        <ele>1717.5</ele>
        <time>2022-01-19T09:33:17Z</time>
      </trkpt>
      <trkpt lat="44.8827" lon="5.52762">
        <ele>1717.6</ele>
        <time>2022-01-19T09:33:18Z</time>
      </trkpt>
      <trkpt lat="44.8827" lon="5.52762">
        <ele>1717.7</ele>
        <time>2022-01-19T09:33:19Z</time>
      </trkpt>
      <trkpt lat="44.88269" lon="5.52761">
        <ele>1717.8</ele>
        <time>2022-01-19T09:33:20Z</time>
      </trkpt>
      <trkpt lat="44.88269" lon="5.52761">
        <ele>1718</ele>
        <time>2022-01-19T09:33:21Z</time>
      </trkpt>
      <trkpt lat="44.88269" lon="5.5276">
        <ele>1718.1</ele>
        <time>2022-01-19T09:33:22Z</time>
      </trkpt>
      <trkpt lat="44.88268" lon="5.52759">
        <ele>1718.3</ele>
        <time>2022-01-19T09:33:23Z</time>
      </trkpt>
      <trkpt lat="44.88268" lon="5.52758">
        <ele>1718.4</ele>
        <time>2022-01-19T09:33:24Z</time>
      </trkpt>
      <trkpt lat="44.88268" lon="5.52758">
        <ele>1718.5</ele>
        <time>2022-01-19T09:33:25Z</time>
      </trkpt>
      <trkpt lat="44.88268" lon="5.52757">
        <ele>1718.7</ele>
        <time>2022-01-19T09:33:26Z</time>
      </trkpt>
      <trkpt lat="44.88268" lon="5.52756">
        <ele>1718.8</ele>
        <time>2022-01-19T09:33:27Z</time>
      </trkpt>
      <trkpt lat="44.88267" lon="5.52756">
        <ele>1719</ele>
        <time>2022-01-19T09:33:28Z</time>
      </trkpt>
      <trkpt lat="44.88266" lon="5.52755">
        <ele>1719.1</ele>
        <time>2022-01-19T09:33:29Z</time>
      </trkpt>
      <trkpt lat="44.88266" lon="5.52754">
        <ele>1719.2</ele>
        <time>2022-01-19T09:33:30Z</time>
      </trkpt>
      <trkpt lat="44.88266" lon="5.52753">
        <ele>1719.4</ele>
        <time>2022-01-19T09:33:31Z</time>
      </trkpt>
      <trkpt lat="44.88265" lon="5.52752">
        <ele>1719.5</ele>
        <time>2022-01-19T09:33:32Z</time>
      </trkpt>
      <trkpt lat="44.88265" lon="5.52752">
        <ele>1719.6</ele>
        <time>2022-01-19T09:33:33Z</time>
      </trkpt>
      <trkpt lat="44.88265" lon="5.52752">
        <ele>1719.7</ele>
        <time>2022-01-19T09:33:34Z</time>
      </trkpt>
      <trkpt lat="44.88265" lon="5.52751">
        <ele>1719.8</ele>
        <time>2022-01-19T09:33:35Z</time>
      </trkpt>
      <trkpt lat="44.88265" lon="5.5275">
        <ele>1719.9</ele>
        <time>2022-01-19T09:33:36Z</time>
      </trkpt>
      <trkpt lat="44.88265" lon="5.5275">
        <ele>1720</ele>
        <time>2022-01-19T09:33:37Z</time>
      </trkpt>
      <trkpt lat="44.88265" lon="5.52749">
        <ele>1720.1</ele>
        <time>2022-01-19T09:33:38Z</time>
      </trkpt>
      <trkpt lat="44.88265" lon="5.52749">
        <ele>1720.2</ele>
        <time>2022-01-19T09:33:39Z</time>
      </trkpt>
      <trkpt lat="44.88265" lon="5.52748">
        <ele>1720.3</ele>
        <time>2022-01-19T09:33:40Z</time>
      </trkpt>
      <trkpt lat="44.88265" lon="5.52748">
        <ele>1720.3</ele>
        <time>2022-01-19T09:33:41Z</time>
      </trkpt>
      <trkpt lat="44.88266" lon="5.52746">
        <ele>1720.6</ele>
        <time>2022-01-19T09:33:42Z</time>
      </trkpt>
      <trkpt lat="44.88266" lon="5.52745">
        <ele>1720.8</ele>
        <time>2022-01-19T09:33:43Z</time>
      </trkpt>
      <trkpt lat="44.88266" lon="5.52744">
        <ele>1720.9</ele>
        <time>2022-01-19T09:33:44Z</time>
      </trkpt>
      <trkpt lat="44.88266" lon="5.52743">
        <ele>1721.1</ele>
        <time>2022-01-19T09:33:45Z</time>
      </trkpt>
      <trkpt lat="44.88266" lon="5.52742">
        <ele>1721.3</ele>
        <time>2022-01-19T09:33:46Z</time>
      </trkpt>
      <trkpt lat="44.88266" lon="5.52741">
        <ele>1721.5</ele>
        <time>2022-01-19T09:33:47Z</time>
      </trkpt>
      <trkpt lat="44.88266" lon="5.5274">
        <ele>1721.6</ele>
        <time>2022-01-19T09:33:48Z</time>
      </trkpt>
      <trkpt lat="44.88267" lon="5.52739">
        <ele>1721.8</ele>
        <time>2022-01-19T09:33:49Z</time>
      </trkpt>
      <trkpt lat="44.88266" lon="5.52737">
        <ele>1722</ele>
        <time>2022-01-19T09:33:50Z</time>
      </trkpt>
      <trkpt lat="44.88266" lon="5.52736">
        <ele>1722.2</ele>
        <time>2022-01-19T09:33:51Z</time>
      </trkpt>
      <trkpt lat="44.88267" lon="5.52735">
        <ele>1722.4</ele>
        <time>2022-01-19T09:33:52Z</time>
      </trkpt>
      <trkpt lat="44.88267" lon="5.52733">
        <ele>1722.6</ele>
        <time>2022-01-19T09:33:53Z</time>
      </trkpt>
      <trkpt lat="44.88267" lon="5.52732">
        <ele>1722.8</ele>
        <time>2022-01-19T09:33:54Z</time>
      </trkpt>
      <trkpt lat="44.88267" lon="5.52731">
        <ele>1722.9</ele>
        <time>2022-01-19T09:33:55Z</time>
      </trkpt>
      <trkpt lat="44.88267" lon="5.5273">
        <ele>1723.1</ele>
        <time>2022-01-19T09:33:56Z</time>
      </trkpt>
      <trkpt lat="44.88267" lon="5.52729">
        <ele>1723.3</ele>
        <time>2022-01-19T09:33:57Z</time>
      </trkpt>
      <trkpt lat="44.88267" lon="5.52728">
        <ele>1723.4</ele>
        <time>2022-01-19T09:33:58Z</time>
      </trkpt>
      <trkpt lat="44.88267" lon="5.52727">
        <ele>1723.5</ele>
        <time>2022-01-19T09:33:59Z</time>
      </trkpt>
      <trkpt lat="44.88267" lon="5.52726">
        <ele>1723.7</ele>
        <time>2022-01-19T09:34:00Z</time>
      </trkpt>
      <trkpt lat="44.88267" lon="5.52725">
        <ele>1723.9</ele>
        <time>2022-01-19T09:34:01Z</time>
      </trkpt>
      <trkpt lat="44.88267" lon="5.52724">
        <ele>1724</ele>
        <time>2022-01-19T09:34:02Z</time>
      </trkpt>
      <trkpt lat="44.88267" lon="5.52724">
        <ele>1724</ele>
        <time>2022-01-19T09:34:03Z</time>
      </trkpt>
      <trkpt lat="44.88267" lon="5.52723">
        <ele>1724.2</ele>
        <time>2022-01-19T09:34:04Z</time>
      </trkpt>
      <trkpt lat="44.88267" lon="5.52721">
        <ele>1724.4</ele>
        <time>2022-01-19T09:34:05Z</time>
      </trkpt>
      <trkpt lat="44.88267" lon="5.52721">
        <ele>1724.5</ele>
        <time>2022-01-19T09:34:06Z</time>
      </trkpt>
      <trkpt lat="44.88267" lon="5.5272">
        <ele>1724.7</ele>
        <time>2022-01-19T09:34:07Z</time>
      </trkpt>
      <trkpt lat="44.88267" lon="5.52719">
        <ele>1724.8</ele>
        <time>2022-01-19T09:34:08Z</time>
      </trkpt>
      <trkpt lat="44.88267" lon="5.52719">
        <ele>1724.8</ele>
        <time>2022-01-19T09:34:09Z</time>
      </trkpt>
      <trkpt lat="44.88267" lon="5.52719">
        <ele>1724.8</ele>
        <time>2022-01-19T09:34:10Z</time>
      </trkpt>
      <trkpt lat="44.88266" lon="5.52717">
        <ele>1725.1</ele>
        <time>2022-01-19T09:34:11Z</time>
      </trkpt>
      <trkpt lat="44.88266" lon="5.52717">
        <ele>1725.2</ele>
        <time>2022-01-19T09:34:12Z</time>
      </trkpt>
      <trkpt lat="44.88265" lon="5.52716">
        <ele>1725.4</ele>
        <time>2022-01-19T09:34:13Z</time>
      </trkpt>
      <trkpt lat="44.88265" lon="5.52716">
        <ele>1725.5</ele>
        <time>2022-01-19T09:34:14Z</time>
      </trkpt>
      <trkpt lat="44.88264" lon="5.52715">
        <ele>1725.6</ele>
        <time>2022-01-19T09:34:15Z</time>
      </trkpt>
      <trkpt lat="44.88263" lon="5.52715">
        <ele>1725.8</ele>
        <time>2022-01-19T09:34:16Z</time>
      </trkpt>
      <trkpt lat="44.88263" lon="5.52714">
        <ele>1725.9</ele>
        <time>2022-01-19T09:34:17Z</time>
      </trkpt>
      <trkpt lat="44.88263" lon="5.52713">
        <ele>1726</ele>
        <time>2022-01-19T09:34:18Z</time>
      </trkpt>
      <trkpt lat="44.88263" lon="5.52713">
        <ele>1726.1</ele>
        <time>2022-01-19T09:34:19Z</time>
      </trkpt>
      <trkpt lat="44.88263" lon="5.52712">
        <ele>1726.3</ele>
        <time>2022-01-19T09:34:20Z</time>
      </trkpt>
      <trkpt lat="44.88262" lon="5.52712">
        <ele>1726.3</ele>
        <time>2022-01-19T09:34:21Z</time>
      </trkpt>
      <trkpt lat="44.88262" lon="5.52711">
        <ele>1726.4</ele>
        <time>2022-01-19T09:34:22Z</time>
      </trkpt>
      <trkpt lat="44.88262" lon="5.52711">
        <ele>1726.5</ele>
        <time>2022-01-19T09:34:23Z</time>
      </trkpt>
      <trkpt lat="44.88262" lon="5.5271">
        <ele>1726.7</ele>
        <time>2022-01-19T09:34:24Z</time>
      </trkpt>
      <trkpt lat="44.88262" lon="5.52709">
        <ele>1726.8</ele>
        <time>2022-01-19T09:34:25Z</time>
      </trkpt>
      <trkpt lat="44.88261" lon="5.52708">
        <ele>1727</ele>
        <time>2022-01-19T09:34:26Z</time>
      </trkpt>
      <trkpt lat="44.88261" lon="5.52707">
        <ele>1727.1</ele>
        <time>2022-01-19T09:34:27Z</time>
      </trkpt>
      <trkpt lat="44.88261" lon="5.52707">
        <ele>1727.2</ele>
        <time>2022-01-19T09:34:28Z</time>
      </trkpt>
      <trkpt lat="44.8826" lon="5.52706">
        <ele>1728.6</ele>
        <time>2022-01-19T09:34:29Z</time>
      </trkpt>
      <trkpt lat="44.8826" lon="5.52706">
        <ele>1728.6</ele>
        <time>2022-01-19T09:34:30Z</time>
      </trkpt>
      <trkpt lat="44.88259" lon="5.52705">
        <ele>1728.6</ele>
        <time>2022-01-19T09:34:31Z</time>
      </trkpt>
      <trkpt lat="44.88259" lon="5.52705">
        <ele>1728.6</ele>
        <time>2022-01-19T09:34:32Z</time>
      </trkpt>
      <trkpt lat="44.88258" lon="5.52705">
        <ele>1728.6</ele>
        <time>2022-01-19T09:34:33Z</time>
      </trkpt>
      <trkpt lat="44.88258" lon="5.52704">
        <ele>1728.6</ele>
        <time>2022-01-19T09:34:34Z</time>
      </trkpt>
      <trkpt lat="44.88258" lon="5.52704">
        <ele>1728.6</ele>
        <time>2022-01-19T09:34:35Z</time>
      </trkpt>
      <trkpt lat="44.88257" lon="5.52703">
        <ele>1728.9</ele>
        <time>2022-01-19T09:34:36Z</time>
      </trkpt>
      <trkpt lat="44.88257" lon="5.52703">
        <ele>1728.9</ele>
        <time>2022-01-19T09:34:37Z</time>
      </trkpt>
      <trkpt lat="44.88256" lon="5.52702">
        <ele>1730.1</ele>
        <time>2022-01-19T09:34:38Z</time>
      </trkpt>
      <trkpt lat="44.88256" lon="5.52701">
        <ele>1730.1</ele>
        <time>2022-01-19T09:34:39Z</time>
      </trkpt>
      <trkpt lat="44.88256" lon="5.527">
        <ele>1730.1</ele>
        <time>2022-01-19T09:34:40Z</time>
      </trkpt>
      <trkpt lat="44.88255" lon="5.52699">
        <ele>1730.1</ele>
        <time>2022-01-19T09:34:41Z</time>
      </trkpt>
      <trkpt lat="44.88255" lon="5.52699">
        <ele>1730.1</ele>
        <time>2022-01-19T09:34:42Z</time>
      </trkpt>
      <trkpt lat="44.88255" lon="5.52698">
        <ele>1731.2</ele>
        <time>2022-01-19T09:34:43Z</time>
      </trkpt>
      <trkpt lat="44.88255" lon="5.52698">
        <ele>1731.2</ele>
        <time>2022-01-19T09:34:44Z</time>
      </trkpt>
      <trkpt lat="44.88256" lon="5.52697">
        <ele>1731.2</ele>
        <time>2022-01-19T09:34:45Z</time>
      </trkpt>
      <trkpt lat="44.88256" lon="5.52697">
        <ele>1731.2</ele>
        <time>2022-01-19T09:34:46Z</time>
      </trkpt>
      <trkpt lat="44.88255" lon="5.52696">
        <ele>1731.2</ele>
        <time>2022-01-19T09:34:47Z</time>
      </trkpt>
      <trkpt lat="44.88255" lon="5.52695">
        <ele>1731.2</ele>
        <time>2022-01-19T09:34:48Z</time>
      </trkpt>
      <trkpt lat="44.88255" lon="5.52694">
        <ele>1731.2</ele>
        <time>2022-01-19T09:34:49Z</time>
      </trkpt>
      <trkpt lat="44.88255" lon="5.52694">
        <ele>1732.4</ele>
        <time>2022-01-19T09:34:50Z</time>
      </trkpt>
      <trkpt lat="44.88256" lon="5.52693">
        <ele>1732.4</ele>
        <time>2022-01-19T09:34:51Z</time>
      </trkpt>
      <trkpt lat="44.88255" lon="5.52692">
        <ele>1732.4</ele>
        <time>2022-01-19T09:34:52Z</time>
      </trkpt>
      <trkpt lat="44.88256" lon="5.52691">
        <ele>1732.4</ele>
        <time>2022-01-19T09:34:53Z</time>
      </trkpt>
      <trkpt lat="44.88256" lon="5.52691">
        <ele>1732.4</ele>
        <time>2022-01-19T09:34:54Z</time>
      </trkpt>
      <trkpt lat="44.88256" lon="5.5269">
        <ele>1732.4</ele>
        <time>2022-01-19T09:34:55Z</time>
      </trkpt>
      <trkpt lat="44.88256" lon="5.5269">
        <ele>1733.4</ele>
        <time>2022-01-19T09:34:56Z</time>
      </trkpt>
      <trkpt lat="44.88256" lon="5.52689">
        <ele>1733.4</ele>
        <time>2022-01-19T09:34:57Z</time>
      </trkpt>
      <trkpt lat="44.88256" lon="5.52688">
        <ele>1733.4</ele>
        <time>2022-01-19T09:34:58Z</time>
      </trkpt>
      <trkpt lat="44.88256" lon="5.52687">
        <ele>1733.4</ele>
        <time>2022-01-19T09:34:59Z</time>
      </trkpt>
      <trkpt lat="44.88256" lon="5.52687">
        <ele>1733.4</ele>
        <time>2022-01-19T09:35:00Z</time>
      </trkpt>
      <trkpt lat="44.88256" lon="5.52686">
        <ele>1733.4</ele>
        <time>2022-01-19T09:35:01Z</time>
      </trkpt>
      <trkpt lat="44.88256" lon="5.52686">
        <ele>1733.4</ele>
        <time>2022-01-19T09:35:02Z</time>
      </trkpt>
      <trkpt lat="44.88255" lon="5.52685">
        <ele>1734.5</ele>
        <time>2022-01-19T09:35:03Z</time>
      </trkpt>
      <trkpt lat="44.88255" lon="5.52684">
        <ele>1734.5</ele>
        <time>2022-01-19T09:35:04Z</time>
      </trkpt>
      <trkpt lat="44.88255" lon="5.52683">
        <ele>1734.5</ele>
        <time>2022-01-19T09:35:05Z</time>
      </trkpt>
      <trkpt lat="44.88255" lon="5.52683">
        <ele>1734.5</ele>
        <time>2022-01-19T09:35:06Z</time>
      </trkpt>
      <trkpt lat="44.88254" lon="5.52682">
        <ele>1734.6</ele>
        <time>2022-01-19T09:35:07Z</time>
      </trkpt>
      <trkpt lat="44.88254" lon="5.52681">
        <ele>1734.6</ele>
        <time>2022-01-19T09:35:08Z</time>
      </trkpt>
      <trkpt lat="44.88253" lon="5.52681">
        <ele>1735.6</ele>
        <time>2022-01-19T09:35:09Z</time>
      </trkpt>
      <trkpt lat="44.88253" lon="5.5268">
        <ele>1735.6</ele>
        <time>2022-01-19T09:35:10Z</time>
      </trkpt>
      <trkpt lat="44.88252" lon="5.5268">
        <ele>1735.6</ele>
        <time>2022-01-19T09:35:11Z</time>
      </trkpt>
      <trkpt lat="44.88252" lon="5.52679">
        <ele>1735.6</ele>
        <time>2022-01-19T09:35:12Z</time>
      </trkpt>
      <trkpt lat="44.88252" lon="5.52679">
        <ele>1735.6</ele>
        <time>2022-01-19T09:35:13Z</time>
      </trkpt>
      <trkpt lat="44.88251" lon="5.52679">
        <ele>1735.8</ele>
        <time>2022-01-19T09:35:14Z</time>
      </trkpt>
      <trkpt lat="44.8825" lon="5.52679">
        <ele>1735.8</ele>
        <time>2022-01-19T09:35:15Z</time>
      </trkpt>
      <trkpt lat="44.8825" lon="5.52679">
        <ele>1735.8</ele>
        <time>2022-01-19T09:35:16Z</time>
      </trkpt>
      <trkpt lat="44.88249" lon="5.52679">
        <ele>1735.8</ele>
        <time>2022-01-19T09:35:17Z</time>
      </trkpt>
      <trkpt lat="44.88248" lon="5.5268">
        <ele>1736</ele>
        <time>2022-01-19T09:35:18Z</time>
      </trkpt>
      <trkpt lat="44.88248" lon="5.5268">
        <ele>1736</ele>
        <time>2022-01-19T09:35:19Z</time>
      </trkpt>
      <trkpt lat="44.88247" lon="5.5268">
        <ele>1736</ele>
        <time>2022-01-19T09:35:20Z</time>
      </trkpt>
      <trkpt lat="44.88246" lon="5.5268">
        <ele>1736</ele>
        <time>2022-01-19T09:35:21Z</time>
      </trkpt>
      <trkpt lat="44.88246" lon="5.52679">
        <ele>1736</ele>
        <time>2022-01-19T09:35:22Z</time>
      </trkpt>
      <trkpt lat="44.88246" lon="5.5268">
        <ele>1736</ele>
        <time>2022-01-19T09:35:23Z</time>
      </trkpt>
      <trkpt lat="44.88246" lon="5.5268">
        <ele>1736</ele>
        <time>2022-01-19T09:35:24Z</time>
      </trkpt>
      <trkpt lat="44.88246" lon="5.5268">
        <ele>1736</ele>
        <time>2022-01-19T09:35:25Z</time>
      </trkpt>
      <trkpt lat="44.88246" lon="5.52681">
        <ele>1736</ele>
        <time>2022-01-19T09:35:26Z</time>
      </trkpt>
      <trkpt lat="44.88246" lon="5.52681">
        <ele>1736</ele>
        <time>2022-01-19T09:35:27Z</time>
      </trkpt>
      <trkpt lat="44.88246" lon="5.52681">
        <ele>1736</ele>
        <time>2022-01-19T09:35:28Z</time>
      </trkpt>
      <trkpt lat="44.88246" lon="5.52681">
        <ele>1736</ele>
        <time>2022-01-19T09:35:29Z</time>
      </trkpt>
      <trkpt lat="44.88246" lon="5.52681">
        <ele>1736</ele>
        <time>2022-01-19T09:35:30Z</time>
      </trkpt>
      <trkpt lat="44.88246" lon="5.52681">
        <ele>1736</ele>
        <time>2022-01-19T09:35:31Z</time>
      </trkpt>
      <trkpt lat="44.88247" lon="5.52681">
        <ele>1736</ele>
        <time>2022-01-19T09:35:32Z</time>
      </trkpt>
      <trkpt lat="44.88247" lon="5.5268">
        <ele>1736</ele>
        <time>2022-01-19T09:35:33Z</time>
      </trkpt>
      <trkpt lat="44.88247" lon="5.52679">
        <ele>1736</ele>
        <time>2022-01-19T09:35:34Z</time>
      </trkpt>
      <trkpt lat="44.88247" lon="5.52679">
        <ele>1736</ele>
        <time>2022-01-19T09:35:35Z</time>
      </trkpt>
      <trkpt lat="44.88247" lon="5.52678">
        <ele>1736</ele>
        <time>2022-01-19T09:35:36Z</time>
      </trkpt>
      <trkpt lat="44.88247" lon="5.52677">
        <ele>1736</ele>
        <time>2022-01-19T09:35:37Z</time>
      </trkpt>
      <trkpt lat="44.88247" lon="5.52677">
        <ele>1736.9</ele>
        <time>2022-01-19T09:35:38Z</time>
      </trkpt>
      <trkpt lat="44.88247" lon="5.52676">
        <ele>1736.9</ele>
        <time>2022-01-19T09:35:39Z</time>
      </trkpt>
      <trkpt lat="44.88247" lon="5.52675">
        <ele>1736.9</ele>
        <time>2022-01-19T09:35:40Z</time>
      </trkpt>
      <trkpt lat="44.88247" lon="5.52675">
        <ele>1736.9</ele>
        <time>2022-01-19T09:35:41Z</time>
      </trkpt>
      <trkpt lat="44.88247" lon="5.52674">
        <ele>1736.9</ele>
        <time>2022-01-19T09:35:42Z</time>
      </trkpt>
      <trkpt lat="44.88247" lon="5.52673">
        <ele>1736.9</ele>
        <time>2022-01-19T09:35:43Z</time>
      </trkpt>
      <trkpt lat="44.88247" lon="5.52672">
        <ele>1738</ele>
        <time>2022-01-19T09:35:44Z</time>
      </trkpt>
      <trkpt lat="44.88247" lon="5.52672">
        <ele>1738</ele>
        <time>2022-01-19T09:35:45Z</time>
      </trkpt>
      <trkpt lat="44.88247" lon="5.52671">
        <ele>1738</ele>
        <time>2022-01-19T09:35:46Z</time>
      </trkpt>
      <trkpt lat="44.88247" lon="5.5267">
        <ele>1738</ele>
        <time>2022-01-19T09:35:47Z</time>
      </trkpt>
      <trkpt lat="44.88248" lon="5.5267">
        <ele>1738</ele>
        <time>2022-01-19T09:35:48Z</time>
      </trkpt>
      <trkpt lat="44.88248" lon="5.52669">
        <ele>1737.8</ele>
        <time>2022-01-19T09:35:49Z</time>
      </trkpt>
      <trkpt lat="44.88249" lon="5.52668">
        <ele>1737.8</ele>
        <time>2022-01-19T09:35:50Z</time>
      </trkpt>
      <trkpt lat="44.88249" lon="5.52668">
        <ele>1738.9</ele>
        <time>2022-01-19T09:35:51Z</time>
      </trkpt>
      <trkpt lat="44.8825" lon="5.52667">
        <ele>1738.9</ele>
        <time>2022-01-19T09:35:52Z</time>
      </trkpt>
      <trkpt lat="44.8825" lon="5.52667">
        <ele>1738.9</ele>
        <time>2022-01-19T09:35:53Z</time>
      </trkpt>
      <trkpt lat="44.8825" lon="5.52666">
        <ele>1738.9</ele>
        <time>2022-01-19T09:35:54Z</time>
      </trkpt>
      <trkpt lat="44.8825" lon="5.52665">
        <ele>1738.9</ele>
        <time>2022-01-19T09:35:55Z</time>
      </trkpt>
      <trkpt lat="44.8825" lon="5.52664">
        <ele>1738.9</ele>
        <time>2022-01-19T09:35:56Z</time>
      </trkpt>
      <trkpt lat="44.88249" lon="5.52664">
        <ele>1738.9</ele>
        <time>2022-01-19T09:35:57Z</time>
      </trkpt>
      <trkpt lat="44.88249" lon="5.52664">
        <ele>1740.1</ele>
        <time>2022-01-19T09:35:58Z</time>
      </trkpt>
      <trkpt lat="44.88249" lon="5.52664">
        <ele>1740.1</ele>
        <time>2022-01-19T09:35:59Z</time>
      </trkpt>
      <trkpt lat="44.88249" lon="5.52664">
        <ele>1740.1</ele>
        <time>2022-01-19T09:36:00Z</time>
      </trkpt>
      <trkpt lat="44.88248" lon="5.52662">
        <ele>1740.3</ele>
        <time>2022-01-19T09:36:01Z</time>
      </trkpt>
      <trkpt lat="44.88247" lon="5.52662">
        <ele>1740.3</ele>
        <time>2022-01-19T09:36:02Z</time>
      </trkpt>
      <trkpt lat="44.88246" lon="5.52662">
        <ele>1740.3</ele>
        <time>2022-01-19T09:36:03Z</time>
      </trkpt>
      <trkpt lat="44.88246" lon="5.52662">
        <ele>1740.3</ele>
        <time>2022-01-19T09:36:04Z</time>
      </trkpt>
      <trkpt lat="44.88245" lon="5.52662">
        <ele>1740.5</ele>
        <time>2022-01-19T09:36:05Z</time>
      </trkpt>
      <trkpt lat="44.88245" lon="5.52662">
        <ele>1740.5</ele>
        <time>2022-01-19T09:36:06Z</time>
      </trkpt>
      <trkpt lat="44.88244" lon="5.52663">
        <ele>1740.5</ele>
        <time>2022-01-19T09:36:07Z</time>
      </trkpt>
      <trkpt lat="44.88243" lon="5.52664">
        <ele>1739.3</ele>
        <time>2022-01-19T09:36:08Z</time>
      </trkpt>
      <trkpt lat="44.88242" lon="5.52665">
        <ele>1739.3</ele>
        <time>2022-01-19T09:36:09Z</time>
      </trkpt>
      <trkpt lat="44.88242" lon="5.52666">
        <ele>1739.5</ele>
        <time>2022-01-19T09:36:10Z</time>
      </trkpt>
      <trkpt lat="44.88242" lon="5.52666">
        <ele>1739.5</ele>
        <time>2022-01-19T09:36:11Z</time>
      </trkpt>
      <trkpt lat="44.88241" lon="5.52667">
        <ele>1739.5</ele>
        <time>2022-01-19T09:36:12Z</time>
      </trkpt>
      <trkpt lat="44.88241" lon="5.52667">
        <ele>1739.5</ele>
        <time>2022-01-19T09:36:13Z</time>
      </trkpt>
      <trkpt lat="44.88241" lon="5.52667">
        <ele>1739.5</ele>
        <time>2022-01-19T09:36:14Z</time>
      </trkpt>
      <trkpt lat="44.88241" lon="5.52667">
        <ele>1739.5</ele>
        <time>2022-01-19T09:36:15Z</time>
      </trkpt>
      <trkpt lat="44.88241" lon="5.52667">
        <ele>1739.5</ele>
        <time>2022-01-19T09:36:16Z</time>
      </trkpt>
      <trkpt lat="44.88241" lon="5.52667">
        <ele>1739.5</ele>
        <time>2022-01-19T09:36:17Z</time>
      </trkpt>
      <trkpt lat="44.88241" lon="5.52667">
        <ele>1739.5</ele>
        <time>2022-01-19T09:36:18Z</time>
      </trkpt>
      <trkpt lat="44.88241" lon="5.52667">
        <ele>1739.5</ele>
        <time>2022-01-19T09:36:19Z</time>
      </trkpt>
      <trkpt lat="44.88241" lon="5.52667">
        <ele>1739.5</ele>
        <time>2022-01-19T09:36:20Z</time>
      </trkpt>
      <trkpt lat="44.88241" lon="5.52667">
        <ele>1739.5</ele>
        <time>2022-01-19T09:36:21Z</time>
      </trkpt>
      <trkpt lat="44.8824" lon="5.52667">
        <ele>1739.5</ele>
        <time>2022-01-19T09:36:22Z</time>
      </trkpt>
      <trkpt lat="44.8824" lon="5.52666">
        <ele>1739.5</ele>
        <time>2022-01-19T09:36:23Z</time>
      </trkpt>
      <trkpt lat="44.8824" lon="5.52665">
        <ele>1739.5</ele>
        <time>2022-01-19T09:36:24Z</time>
      </trkpt>
      <trkpt lat="44.8824" lon="5.52665">
        <ele>1739.5</ele>
        <time>2022-01-19T09:36:25Z</time>
      </trkpt>
      <trkpt lat="44.8824" lon="5.52663">
        <ele>1740.7</ele>
        <time>2022-01-19T09:36:26Z</time>
      </trkpt>
      <trkpt lat="44.88241" lon="5.52662">
        <ele>1740.7</ele>
        <time>2022-01-19T09:36:27Z</time>
      </trkpt>
      <trkpt lat="44.88241" lon="5.52662">
        <ele>1740.7</ele>
        <time>2022-01-19T09:36:28Z</time>
      </trkpt>
      <trkpt lat="44.8824" lon="5.52661">
        <ele>1740.7</ele>
        <time>2022-01-19T09:36:29Z</time>
      </trkpt>
      <trkpt lat="44.8824" lon="5.5266">
        <ele>1740.7</ele>
        <time>2022-01-19T09:36:30Z</time>
      </trkpt>
      <trkpt lat="44.8824" lon="5.5266">
        <ele>1740.7</ele>
        <time>2022-01-19T09:36:31Z</time>
      </trkpt>
      <trkpt lat="44.8824" lon="5.52659">
        <ele>1741.9</ele>
        <time>2022-01-19T09:36:32Z</time>
      </trkpt>
      <trkpt lat="44.8824" lon="5.52658">
        <ele>1741.9</ele>
        <time>2022-01-19T09:36:33Z</time>
      </trkpt>
      <trkpt lat="44.8824" lon="5.52658">
        <ele>1741.9</ele>
        <time>2022-01-19T09:36:34Z</time>
      </trkpt>
      <trkpt lat="44.88239" lon="5.52657">
        <ele>1741.9</ele>
        <time>2022-01-19T09:36:35Z</time>
      </trkpt>
      <trkpt lat="44.8824" lon="5.52656">
        <ele>1741.9</ele>
        <time>2022-01-19T09:36:36Z</time>
      </trkpt>
      <trkpt lat="44.88239" lon="5.52656">
        <ele>1741.9</ele>
        <time>2022-01-19T09:36:37Z</time>
      </trkpt>
      <trkpt lat="44.88239" lon="5.52654">
        <ele>1743.2</ele>
        <time>2022-01-19T09:36:38Z</time>
      </trkpt>
      <trkpt lat="44.88239" lon="5.52654">
        <ele>1743.2</ele>
        <time>2022-01-19T09:36:39Z</time>
      </trkpt>
      <trkpt lat="44.88239" lon="5.52653">
        <ele>1743.2</ele>
        <time>2022-01-19T09:36:40Z</time>
      </trkpt>
      <trkpt lat="44.88239" lon="5.52653">
        <ele>1743.2</ele>
        <time>2022-01-19T09:36:41Z</time>
      </trkpt>
      <trkpt lat="44.88239" lon="5.52652">
        <ele>1743.2</ele>
        <time>2022-01-19T09:36:42Z</time>
      </trkpt>
      <trkpt lat="44.88239" lon="5.52651">
        <ele>1744.6</ele>
        <time>2022-01-19T09:36:43Z</time>
      </trkpt>
      <trkpt lat="44.8824" lon="5.5265">
        <ele>1744.6</ele>
        <time>2022-01-19T09:36:44Z</time>
      </trkpt>
      <trkpt lat="44.8824" lon="5.5265">
        <ele>1744.6</ele>
        <time>2022-01-19T09:36:45Z</time>
      </trkpt>
      <trkpt lat="44.8824" lon="5.52649">
        <ele>1744.6</ele>
        <time>2022-01-19T09:36:46Z</time>
      </trkpt>
      <trkpt lat="44.8824" lon="5.52648">
        <ele>1744.6</ele>
        <time>2022-01-19T09:36:47Z</time>
      </trkpt>
      <trkpt lat="44.8824" lon="5.52647">
        <ele>1744.6</ele>
        <time>2022-01-19T09:36:48Z</time>
      </trkpt>
      <trkpt lat="44.8824" lon="5.52647">
        <ele>1744.6</ele>
        <time>2022-01-19T09:36:49Z</time>
      </trkpt>
      <trkpt lat="44.8824" lon="5.52645">
        <ele>1745.9</ele>
        <time>2022-01-19T09:36:50Z</time>
      </trkpt>
      <trkpt lat="44.8824" lon="5.52645">
        <ele>1745.9</ele>
        <time>2022-01-19T09:36:51Z</time>
      </trkpt>
      <trkpt lat="44.8824" lon="5.52644">
        <ele>1745.9</ele>
        <time>2022-01-19T09:36:52Z</time>
      </trkpt>
      <trkpt lat="44.88239" lon="5.52643">
        <ele>1745.9</ele>
        <time>2022-01-19T09:36:53Z</time>
      </trkpt>
      <trkpt lat="44.88239" lon="5.52642">
        <ele>1746.1</ele>
        <time>2022-01-19T09:36:54Z</time>
      </trkpt>
      <trkpt lat="44.88239" lon="5.52642">
        <ele>1747.5</ele>
        <time>2022-01-19T09:36:55Z</time>
      </trkpt>
      <trkpt lat="44.88238" lon="5.52642">
        <ele>1747.5</ele>
        <time>2022-01-19T09:36:56Z</time>
      </trkpt>
      <trkpt lat="44.88238" lon="5.52642">
        <ele>1747.5</ele>
        <time>2022-01-19T09:36:57Z</time>
      </trkpt>
      <trkpt lat="44.88238" lon="5.52642">
        <ele>1747.5</ele>
        <time>2022-01-19T09:36:58Z</time>
      </trkpt>
      <trkpt lat="44.88237" lon="5.52642">
        <ele>1747.5</ele>
        <time>2022-01-19T09:36:59Z</time>
      </trkpt>
      <trkpt lat="44.88237" lon="5.52641">
        <ele>1747.5</ele>
        <time>2022-01-19T09:37:00Z</time>
      </trkpt>
      <trkpt lat="44.88236" lon="5.52642">
        <ele>1747.7</ele>
        <time>2022-01-19T09:37:01Z</time>
      </trkpt>
      <trkpt lat="44.88236" lon="5.52642">
        <ele>1747.7</ele>
        <time>2022-01-19T09:37:02Z</time>
      </trkpt>
      <trkpt lat="44.88235" lon="5.52642">
        <ele>1747.7</ele>
        <time>2022-01-19T09:37:03Z</time>
      </trkpt>
      <trkpt lat="44.88235" lon="5.52642">
        <ele>1747.7</ele>
        <time>2022-01-19T09:37:04Z</time>
      </trkpt>
      <trkpt lat="44.88235" lon="5.52642">
        <ele>1747.7</ele>
        <time>2022-01-19T09:37:05Z</time>
      </trkpt>
      <trkpt lat="44.88234" lon="5.52642">
        <ele>1747.7</ele>
        <time>2022-01-19T09:37:06Z</time>
      </trkpt>
      <trkpt lat="44.88233" lon="5.52642">
        <ele>1748</ele>
        <time>2022-01-19T09:37:07Z</time>
      </trkpt>
      <trkpt lat="44.88233" lon="5.52641">
        <ele>1748</ele>
        <time>2022-01-19T09:37:08Z</time>
      </trkpt>
      <trkpt lat="44.88232" lon="5.52641">
        <ele>1748</ele>
        <time>2022-01-19T09:37:09Z</time>
      </trkpt>
      <trkpt lat="44.88231" lon="5.5264">
        <ele>1748</ele>
        <time>2022-01-19T09:37:10Z</time>
      </trkpt>
      <trkpt lat="44.88231" lon="5.52641">
        <ele>1748</ele>
        <time>2022-01-19T09:37:11Z</time>
      </trkpt>
      <trkpt lat="44.88231" lon="5.5264">
        <ele>1748</ele>
        <time>2022-01-19T09:37:12Z</time>
      </trkpt>
      <trkpt lat="44.88231" lon="5.5264">
        <ele>1748</ele>
        <time>2022-01-19T09:37:13Z</time>
      </trkpt>
      <trkpt lat="44.88231" lon="5.52639">
        <ele>1748</ele>
        <time>2022-01-19T09:37:14Z</time>
      </trkpt>
      <trkpt lat="44.88231" lon="5.52639">
        <ele>1748</ele>
        <time>2022-01-19T09:37:15Z</time>
      </trkpt>
      <trkpt lat="44.88231" lon="5.52638">
        <ele>1749.3</ele>
        <time>2022-01-19T09:37:16Z</time>
      </trkpt>
      <trkpt lat="44.88232" lon="5.52637">
        <ele>1749.3</ele>
        <time>2022-01-19T09:37:17Z</time>
      </trkpt>
      <trkpt lat="44.88232" lon="5.52637">
        <ele>1749.3</ele>
        <time>2022-01-19T09:37:18Z</time>
      </trkpt>
      <trkpt lat="44.88232" lon="5.52636">
        <ele>1749.3</ele>
        <time>2022-01-19T09:37:19Z</time>
      </trkpt>
      <trkpt lat="44.88233" lon="5.52636">
        <ele>1749.1</ele>
        <time>2022-01-19T09:37:20Z</time>
      </trkpt>
      <trkpt lat="44.88234" lon="5.52635">
        <ele>1749.1</ele>
        <time>2022-01-19T09:37:21Z</time>
      </trkpt>
      <trkpt lat="44.88235" lon="5.52635">
        <ele>1749.1</ele>
        <time>2022-01-19T09:37:22Z</time>
      </trkpt>
      <trkpt lat="44.88235" lon="5.52635">
        <ele>1749.1</ele>
        <time>2022-01-19T09:37:23Z</time>
      </trkpt>
      <trkpt lat="44.88234" lon="5.52634">
        <ele>1749.1</ele>
        <time>2022-01-19T09:37:24Z</time>
      </trkpt>
      <trkpt lat="44.88234" lon="5.52634">
        <ele>1750.5</ele>
        <time>2022-01-19T09:37:25Z</time>
      </trkpt>
      <trkpt lat="44.88233" lon="5.52633">
        <ele>1750.5</ele>
        <time>2022-01-19T09:37:26Z</time>
      </trkpt>
      <trkpt lat="44.88233" lon="5.52633">
        <ele>1750.5</ele>
        <time>2022-01-19T09:37:27Z</time>
      </trkpt>
      <trkpt lat="44.88233" lon="5.52633">
        <ele>1750.5</ele>
        <time>2022-01-19T09:37:28Z</time>
      </trkpt>
      <trkpt lat="44.88232" lon="5.52632">
        <ele>1750.8</ele>
        <time>2022-01-19T09:37:29Z</time>
      </trkpt>
      <trkpt lat="44.88232" lon="5.52632">
        <ele>1750.8</ele>
        <time>2022-01-19T09:37:30Z</time>
      </trkpt>
      <trkpt lat="44.88231" lon="5.52631">
        <ele>1750.8</ele>
        <time>2022-01-19T09:37:31Z</time>
      </trkpt>
      <trkpt lat="44.88231" lon="5.52631">
        <ele>1750.8</ele>
        <time>2022-01-19T09:37:32Z</time>
      </trkpt>
      <trkpt lat="44.88231" lon="5.5263">
        <ele>1750.8</ele>
        <time>2022-01-19T09:37:33Z</time>
      </trkpt>
      <trkpt lat="44.88231" lon="5.5263">
        <ele>1750.8</ele>
        <time>2022-01-19T09:37:34Z</time>
      </trkpt>
      <trkpt lat="44.88231" lon="5.5263">
        <ele>1750.8</ele>
        <time>2022-01-19T09:37:35Z</time>
      </trkpt>
      <trkpt lat="44.8823" lon="5.52629">
        <ele>1752.2</ele>
        <time>2022-01-19T09:37:36Z</time>
      </trkpt>
      <trkpt lat="44.88229" lon="5.52629">
        <ele>1752.5</ele>
        <time>2022-01-19T09:37:37Z</time>
      </trkpt>
      <trkpt lat="44.88229" lon="5.52629">
        <ele>1752.5</ele>
        <time>2022-01-19T09:37:38Z</time>
      </trkpt>
      <trkpt lat="44.88228" lon="5.52629">
        <ele>1752.5</ele>
        <time>2022-01-19T09:37:39Z</time>
      </trkpt>
      <trkpt lat="44.88228" lon="5.52628">
        <ele>1752.5</ele>
        <time>2022-01-19T09:37:40Z</time>
      </trkpt>
      <trkpt lat="44.88228" lon="5.52628">
        <ele>1752.5</ele>
        <time>2022-01-19T09:37:41Z</time>
      </trkpt>
      <trkpt lat="44.88227" lon="5.52628">
        <ele>1752.5</ele>
        <time>2022-01-19T09:37:42Z</time>
      </trkpt>
      <trkpt lat="44.88227" lon="5.52627">
        <ele>1752.5</ele>
        <time>2022-01-19T09:37:43Z</time>
      </trkpt>
      <trkpt lat="44.88228" lon="5.52626">
        <ele>1752.5</ele>
        <time>2022-01-19T09:37:44Z</time>
      </trkpt>
      <trkpt lat="44.88228" lon="5.52626">
        <ele>1752.5</ele>
        <time>2022-01-19T09:37:45Z</time>
      </trkpt>
      <trkpt lat="44.88228" lon="5.52624">
        <ele>1754</ele>
        <time>2022-01-19T09:37:46Z</time>
      </trkpt>
      <trkpt lat="44.88229" lon="5.52623">
        <ele>1754</ele>
        <time>2022-01-19T09:37:47Z</time>
      </trkpt>
      <trkpt lat="44.88229" lon="5.52622">
        <ele>1754</ele>
        <time>2022-01-19T09:37:48Z</time>
      </trkpt>
      <trkpt lat="44.88229" lon="5.52621">
        <ele>1755.6</ele>
        <time>2022-01-19T09:37:49Z</time>
      </trkpt>
      <trkpt lat="44.8823" lon="5.5262">
        <ele>1755.6</ele>
        <time>2022-01-19T09:37:50Z</time>
      </trkpt>
      <trkpt lat="44.8823" lon="5.52618">
        <ele>1755.3</ele>
        <time>2022-01-19T09:37:51Z</time>
      </trkpt>
      <trkpt lat="44.88231" lon="5.52617">
        <ele>1755.3</ele>
        <time>2022-01-19T09:37:52Z</time>
      </trkpt>
      <trkpt lat="44.88231" lon="5.52617">
        <ele>1755.3</ele>
        <time>2022-01-19T09:37:53Z</time>
      </trkpt>
      <trkpt lat="44.88231" lon="5.52616">
        <ele>1756.9</ele>
        <time>2022-01-19T09:37:54Z</time>
      </trkpt>
      <trkpt lat="44.88231" lon="5.52615">
        <ele>1756.9</ele>
        <time>2022-01-19T09:37:55Z</time>
      </trkpt>
      <trkpt lat="44.88232" lon="5.52615">
        <ele>1756.9</ele>
        <time>2022-01-19T09:37:56Z</time>
      </trkpt>
      <trkpt lat="44.88232" lon="5.52615">
        <ele>1756.9</ele>
        <time>2022-01-19T09:37:57Z</time>
      </trkpt>
      <trkpt lat="44.88232" lon="5.52614">
        <ele>1756.9</ele>
        <time>2022-01-19T09:37:58Z</time>
      </trkpt>
      <trkpt lat="44.88232" lon="5.52614">
        <ele>1756.9</ele>
        <time>2022-01-19T09:37:59Z</time>
      </trkpt>
      <trkpt lat="44.88233" lon="5.52614">
        <ele>1756.9</ele>
        <time>2022-01-19T09:38:00Z</time>
      </trkpt>
      <trkpt lat="44.88233" lon="5.52613">
        <ele>1756.9</ele>
        <time>2022-01-19T09:38:01Z</time>
      </trkpt>
      <trkpt lat="44.88233" lon="5.52612">
        <ele>1756.6</ele>
        <time>2022-01-19T09:38:02Z</time>
      </trkpt>
      <trkpt lat="44.88233" lon="5.52612">
        <ele>1759.5</ele>
        <time>2022-01-19T09:38:03Z</time>
      </trkpt>
      <trkpt lat="44.88233" lon="5.52611">
        <ele>1759.5</ele>
        <time>2022-01-19T09:38:04Z</time>
      </trkpt>
      <trkpt lat="44.88233" lon="5.5261">
        <ele>1759.5</ele>
        <time>2022-01-19T09:38:05Z</time>
      </trkpt>
      <trkpt lat="44.88233" lon="5.5261">
        <ele>1759.5</ele>
        <time>2022-01-19T09:38:06Z</time>
      </trkpt>
      <trkpt lat="44.88233" lon="5.5261">
        <ele>1759.5</ele>
        <time>2022-01-19T09:38:07Z</time>
      </trkpt>
      <trkpt lat="44.88234" lon="5.52609">
        <ele>1759.2</ele>
        <time>2022-01-19T09:38:08Z</time>
      </trkpt>
      <trkpt lat="44.88234" lon="5.52607">
        <ele>1760.8</ele>
        <time>2022-01-19T09:38:09Z</time>
      </trkpt>
      <trkpt lat="44.88234" lon="5.52606">
        <ele>1760.8</ele>
        <time>2022-01-19T09:38:10Z</time>
      </trkpt>
      <trkpt lat="44.88234" lon="5.52605">
        <ele>1760.8</ele>
        <time>2022-01-19T09:38:11Z</time>
      </trkpt>
      <trkpt lat="44.88234" lon="5.52604">
        <ele>1760.8</ele>
        <time>2022-01-19T09:38:12Z</time>
      </trkpt>
      <trkpt lat="44.88234" lon="5.52603">
        <ele>1762.3</ele>
        <time>2022-01-19T09:38:13Z</time>
      </trkpt>
      <trkpt lat="44.88234" lon="5.52603">
        <ele>1762.3</ele>
        <time>2022-01-19T09:38:14Z</time>
      </trkpt>
      <trkpt lat="44.88234" lon="5.52602">
        <ele>1762.3</ele>
        <time>2022-01-19T09:38:15Z</time>
      </trkpt>
      <trkpt lat="44.88234" lon="5.52601">
        <ele>1762.3</ele>
        <time>2022-01-19T09:38:16Z</time>
      </trkpt>
      <trkpt lat="44.88234" lon="5.52601">
        <ele>1762.3</ele>
        <time>2022-01-19T09:38:17Z</time>
      </trkpt>
      <trkpt lat="44.88234" lon="5.52601">
        <ele>1762.3</ele>
        <time>2022-01-19T09:38:18Z</time>
      </trkpt>
      <trkpt lat="44.88234" lon="5.52601">
        <ele>1762.3</ele>
        <time>2022-01-19T09:38:19Z</time>
      </trkpt>
      <trkpt lat="44.88234" lon="5.52601">
        <ele>1762.3</ele>
        <time>2022-01-19T09:38:20Z</time>
      </trkpt>
      <trkpt lat="44.88234" lon="5.52601">
        <ele>1762.3</ele>
        <time>2022-01-19T09:38:21Z</time>
      </trkpt>
      <trkpt lat="44.88234" lon="5.52601">
        <ele>1762.3</ele>
        <time>2022-01-19T09:38:22Z</time>
      </trkpt>
      <trkpt lat="44.88234" lon="5.52601">
        <ele>1762.3</ele>
        <time>2022-01-19T09:38:23Z</time>
      </trkpt>
      <trkpt lat="44.88234" lon="5.52601">
        <ele>1762.3</ele>
        <time>2022-01-19T09:38:24Z</time>
      </trkpt>
      <trkpt lat="44.88234" lon="5.52601">
        <ele>1762.3</ele>
        <time>2022-01-19T09:38:25Z</time>
      </trkpt>
      <trkpt lat="44.88234" lon="5.52601">
        <ele>1762.3</ele>
        <time>2022-01-19T09:38:26Z</time>
      </trkpt>
      <trkpt lat="44.88234" lon="5.52601">
        <ele>1762.3</ele>
        <time>2022-01-19T09:38:27Z</time>
      </trkpt>
      <trkpt lat="44.88234" lon="5.52601">
        <ele>1762.3</ele>
        <time>2022-01-19T09:38:28Z</time>
      </trkpt>
      <trkpt lat="44.88234" lon="5.52601">
        <ele>1762.3</ele>
        <time>2022-01-19T09:38:29Z</time>
      </trkpt>
      <trkpt lat="44.88234" lon="5.52601">
        <ele>1762.3</ele>
        <time>2022-01-19T09:38:30Z</time>
      </trkpt>
      <trkpt lat="44.88234" lon="5.52601">
        <ele>1762.3</ele>
        <time>2022-01-19T09:38:31Z</time>
      </trkpt>
      <trkpt lat="44.88234" lon="5.52601">
        <ele>1762.3</ele>
        <time>2022-01-19T09:38:32Z</time>
      </trkpt>
      <trkpt lat="44.88234" lon="5.52601">
        <ele>1762.3</ele>
        <time>2022-01-19T09:38:33Z</time>
      </trkpt>
      <trkpt lat="44.88234" lon="5.52601">
        <ele>1762.3</ele>
        <time>2022-01-19T09:38:34Z</time>
      </trkpt>
      <trkpt lat="44.88234" lon="5.52601">
        <ele>1762.3</ele>
        <time>2022-01-19T09:38:35Z</time>
      </trkpt>
      <trkpt lat="44.88234" lon="5.52601">
        <ele>1762.3</ele>
        <time>2022-01-19T09:38:36Z</time>
      </trkpt>
      <trkpt lat="44.88234" lon="5.52601">
        <ele>1762.3</ele>
        <time>2022-01-19T09:38:37Z</time>
      </trkpt>
      <trkpt lat="44.88234" lon="5.52601">
        <ele>1762.3</ele>
        <time>2022-01-19T09:38:38Z</time>
      </trkpt>
      <trkpt lat="44.88234" lon="5.52601">
        <ele>1762.3</ele>
        <time>2022-01-19T09:38:39Z</time>
      </trkpt>
      <trkpt lat="44.88234" lon="5.52601">
        <ele>1762.3</ele>
        <time>2022-01-19T09:38:40Z</time>
      </trkpt>
      <trkpt lat="44.88234" lon="5.52601">
        <ele>1762.3</ele>
        <time>2022-01-19T09:38:41Z</time>
      </trkpt>
      <trkpt lat="44.88234" lon="5.52598">
        <ele>1763.8</ele>
        <time>2022-01-19T09:38:42Z</time>
      </trkpt>
      <trkpt lat="44.88234" lon="5.52597">
        <ele>1763.8</ele>
        <time>2022-01-19T09:38:43Z</time>
      </trkpt>
      <trkpt lat="44.88234" lon="5.52596">
        <ele>1763.8</ele>
        <time>2022-01-19T09:38:44Z</time>
      </trkpt>
      <trkpt lat="44.88234" lon="5.52596">
        <ele>1763.8</ele>
        <time>2022-01-19T09:38:45Z</time>
      </trkpt>
      <trkpt lat="44.88234" lon="5.52595">
        <ele>1765.3</ele>
        <time>2022-01-19T09:38:46Z</time>
      </trkpt>
      <trkpt lat="44.88234" lon="5.52594">
        <ele>1765.3</ele>
        <time>2022-01-19T09:38:47Z</time>
      </trkpt>
      <trkpt lat="44.88234" lon="5.52594">
        <ele>1765.3</ele>
        <time>2022-01-19T09:38:48Z</time>
      </trkpt>
      <trkpt lat="44.88234" lon="5.52593">
        <ele>1765.3</ele>
        <time>2022-01-19T09:38:49Z</time>
      </trkpt>
      <trkpt lat="44.88235" lon="5.52592">
        <ele>1765.3</ele>
        <time>2022-01-19T09:38:50Z</time>
      </trkpt>
      <trkpt lat="44.88235" lon="5.52591">
        <ele>1766.8</ele>
        <time>2022-01-19T09:38:51Z</time>
      </trkpt>
      <trkpt lat="44.88235" lon="5.52589">
        <ele>1766.8</ele>
        <time>2022-01-19T09:38:52Z</time>
      </trkpt>
      <trkpt lat="44.88236" lon="5.52588">
        <ele>1766.8</ele>
        <time>2022-01-19T09:38:53Z</time>
      </trkpt>
      <trkpt lat="44.88237" lon="5.52587">
        <ele>1766.5</ele>
        <time>2022-01-19T09:38:54Z</time>
      </trkpt>
      <trkpt lat="44.88237" lon="5.52586">
        <ele>1768.1</ele>
        <time>2022-01-19T09:38:55Z</time>
      </trkpt>
      <trkpt lat="44.88238" lon="5.52586">
        <ele>1768.1</ele>
        <time>2022-01-19T09:38:56Z</time>
      </trkpt>
      <trkpt lat="44.88238" lon="5.52585">
        <ele>1768.1</ele>
        <time>2022-01-19T09:38:57Z</time>
      </trkpt>
      <trkpt lat="44.88238" lon="5.52584">
        <ele>1768.1</ele>
        <time>2022-01-19T09:38:58Z</time>
      </trkpt>
      <trkpt lat="44.88238" lon="5.52583">
        <ele>1768.1</ele>
        <time>2022-01-19T09:38:59Z</time>
      </trkpt>
      <trkpt lat="44.88238" lon="5.52582">
        <ele>1769.7</ele>
        <time>2022-01-19T09:39:00Z</time>
      </trkpt>
      <trkpt lat="44.88239" lon="5.52582">
        <ele>1769.7</ele>
        <time>2022-01-19T09:39:01Z</time>
      </trkpt>
      <trkpt lat="44.88239" lon="5.52582">
        <ele>1769.7</ele>
        <time>2022-01-19T09:39:02Z</time>
      </trkpt>
      <trkpt lat="44.88239" lon="5.52582">
        <ele>1769.7</ele>
        <time>2022-01-19T09:39:03Z</time>
      </trkpt>
      <trkpt lat="44.88239" lon="5.52582">
        <ele>1769.7</ele>
        <time>2022-01-19T09:39:04Z</time>
      </trkpt>
      <trkpt lat="44.88241" lon="5.5258">
        <ele>1769.5</ele>
        <time>2022-01-19T09:39:05Z</time>
      </trkpt>
      <trkpt lat="44.88241" lon="5.52579">
        <ele>1769.5</ele>
        <time>2022-01-19T09:39:06Z</time>
      </trkpt>
      <trkpt lat="44.88241" lon="5.52578">
        <ele>1769.5</ele>
        <time>2022-01-19T09:39:07Z</time>
      </trkpt>
      <trkpt lat="44.88241" lon="5.52578">
        <ele>1771.2</ele>
        <time>2022-01-19T09:39:08Z</time>
      </trkpt>
      <trkpt lat="44.88241" lon="5.52577">
        <ele>1771.2</ele>
        <time>2022-01-19T09:39:09Z</time>
      </trkpt>
      <trkpt lat="44.88241" lon="5.52577">
        <ele>1771.2</ele>
        <time>2022-01-19T09:39:10Z</time>
      </trkpt>
      <trkpt lat="44.8824" lon="5.52576">
        <ele>1771.2</ele>
        <time>2022-01-19T09:39:11Z</time>
      </trkpt>
      <trkpt lat="44.8824" lon="5.52576">
        <ele>1771.2</ele>
        <time>2022-01-19T09:39:12Z</time>
      </trkpt>
      <trkpt lat="44.8824" lon="5.52575">
        <ele>1771.2</ele>
        <time>2022-01-19T09:39:13Z</time>
      </trkpt>
      <trkpt lat="44.8824" lon="5.52575">
        <ele>1771.2</ele>
        <time>2022-01-19T09:39:14Z</time>
      </trkpt>
      <trkpt lat="44.8824" lon="5.52575">
        <ele>1771.2</ele>
        <time>2022-01-19T09:39:15Z</time>
      </trkpt>
      <trkpt lat="44.8824" lon="5.52574">
        <ele>1771.2</ele>
        <time>2022-01-19T09:39:16Z</time>
      </trkpt>
      <trkpt lat="44.8824" lon="5.52574">
        <ele>1771.2</ele>
        <time>2022-01-19T09:39:17Z</time>
      </trkpt>
      <trkpt lat="44.8824" lon="5.52573">
        <ele>1772.9</ele>
        <time>2022-01-19T09:39:18Z</time>
      </trkpt>
      <trkpt lat="44.8824" lon="5.52573">
        <ele>1772.9</ele>
        <time>2022-01-19T09:39:19Z</time>
      </trkpt>
      <trkpt lat="44.88239" lon="5.52572">
        <ele>1772.9</ele>
        <time>2022-01-19T09:39:20Z</time>
      </trkpt>
      <trkpt lat="44.88239" lon="5.52572">
        <ele>1772.9</ele>
        <time>2022-01-19T09:39:21Z</time>
      </trkpt>
      <trkpt lat="44.88239" lon="5.52572">
        <ele>1772.9</ele>
        <time>2022-01-19T09:39:22Z</time>
      </trkpt>
      <trkpt lat="44.88239" lon="5.52571">
        <ele>1773.2</ele>
        <time>2022-01-19T09:39:23Z</time>
      </trkpt>
      <trkpt lat="44.88239" lon="5.52571">
        <ele>1773.2</ele>
        <time>2022-01-19T09:39:24Z</time>
      </trkpt>
      <trkpt lat="44.88239" lon="5.5257">
        <ele>1773.2</ele>
        <time>2022-01-19T09:39:25Z</time>
      </trkpt>
      <trkpt lat="44.88239" lon="5.5257">
        <ele>1773.2</ele>
        <time>2022-01-19T09:39:26Z</time>
      </trkpt>
      <trkpt lat="44.88239" lon="5.52569">
        <ele>1774.9</ele>
        <time>2022-01-19T09:39:27Z</time>
      </trkpt>
      <trkpt lat="44.88238" lon="5.52569">
        <ele>1774.9</ele>
        <time>2022-01-19T09:39:28Z</time>
      </trkpt>
      <trkpt lat="44.88238" lon="5.52568">
        <ele>1774.9</ele>
        <time>2022-01-19T09:39:29Z</time>
      </trkpt>
      <trkpt lat="44.88238" lon="5.52568">
        <ele>1774.9</ele>
        <time>2022-01-19T09:39:30Z</time>
      </trkpt>
      <trkpt lat="44.88238" lon="5.52568">
        <ele>1774.9</ele>
        <time>2022-01-19T09:39:31Z</time>
      </trkpt>
      <trkpt lat="44.88238" lon="5.52567">
        <ele>1774.9</ele>
        <time>2022-01-19T09:39:32Z</time>
      </trkpt>
      <trkpt lat="44.88238" lon="5.52567">
        <ele>1774.9</ele>
        <time>2022-01-19T09:39:33Z</time>
      </trkpt>
      <trkpt lat="44.88238" lon="5.52566">
        <ele>1774.9</ele>
        <time>2022-01-19T09:39:34Z</time>
      </trkpt>
      <trkpt lat="44.88238" lon="5.52566">
        <ele>1774.9</ele>
        <time>2022-01-19T09:39:35Z</time>
      </trkpt>
      <trkpt lat="44.88237" lon="5.52565">
        <ele>1774.9</ele>
        <time>2022-01-19T09:39:36Z</time>
      </trkpt>
      <trkpt lat="44.88237" lon="5.52565">
        <ele>1776.7</ele>
        <time>2022-01-19T09:39:37Z</time>
      </trkpt>
      <trkpt lat="44.88237" lon="5.52565">
        <ele>1776.7</ele>
        <time>2022-01-19T09:39:38Z</time>
      </trkpt>
      <trkpt lat="44.88237" lon="5.52564">
        <ele>1776.7</ele>
        <time>2022-01-19T09:39:39Z</time>
      </trkpt>
      <trkpt lat="44.88237" lon="5.52564">
        <ele>1776.7</ele>
        <time>2022-01-19T09:39:40Z</time>
      </trkpt>
      <trkpt lat="44.88237" lon="5.52563">
        <ele>1776.7</ele>
        <time>2022-01-19T09:39:41Z</time>
      </trkpt>
      <trkpt lat="44.88237" lon="5.52563">
        <ele>1776.7</ele>
        <time>2022-01-19T09:39:42Z</time>
      </trkpt>
      <trkpt lat="44.88237" lon="5.52562">
        <ele>1776.7</ele>
        <time>2022-01-19T09:39:43Z</time>
      </trkpt>
      <trkpt lat="44.88236" lon="5.52562">
        <ele>1776.7</ele>
        <time>2022-01-19T09:39:44Z</time>
      </trkpt>
      <trkpt lat="44.88236" lon="5.52562">
        <ele>1776.7</ele>
        <time>2022-01-19T09:39:45Z</time>
      </trkpt>
      <trkpt lat="44.88236" lon="5.52561">
        <ele>1776.7</ele>
        <time>2022-01-19T09:39:46Z</time>
      </trkpt>
      <trkpt lat="44.88236" lon="5.52561">
        <ele>1778.7</ele>
        <time>2022-01-19T09:39:47Z</time>
      </trkpt>
      <trkpt lat="44.88236" lon="5.5256">
        <ele>1778.7</ele>
        <time>2022-01-19T09:39:48Z</time>
      </trkpt>
      <trkpt lat="44.88236" lon="5.5256">
        <ele>1778.7</ele>
        <time>2022-01-19T09:39:49Z</time>
      </trkpt>
      <trkpt lat="44.88236" lon="5.52559">
        <ele>1778.7</ele>
        <time>2022-01-19T09:39:50Z</time>
      </trkpt>
      <trkpt lat="44.88236" lon="5.52559">
        <ele>1778.7</ele>
        <time>2022-01-19T09:39:51Z</time>
      </trkpt>
      <trkpt lat="44.88235" lon="5.52558">
        <ele>1778.7</ele>
        <time>2022-01-19T09:39:52Z</time>
      </trkpt>
      <trkpt lat="44.88235" lon="5.52558">
        <ele>1778.7</ele>
        <time>2022-01-19T09:39:53Z</time>
      </trkpt>
      <trkpt lat="44.88235" lon="5.52558">
        <ele>1778.7</ele>
        <time>2022-01-19T09:39:54Z</time>
      </trkpt>
      <trkpt lat="44.88235" lon="5.52557">
        <ele>1778.7</ele>
        <time>2022-01-19T09:39:55Z</time>
      </trkpt>
      <trkpt lat="44.88235" lon="5.52557">
        <ele>1778.7</ele>
        <time>2022-01-19T09:39:56Z</time>
      </trkpt>
      <trkpt lat="44.88235" lon="5.52556">
        <ele>1780.4</ele>
        <time>2022-01-19T09:39:57Z</time>
      </trkpt>
      <trkpt lat="44.88235" lon="5.52556">
        <ele>1780.4</ele>
        <time>2022-01-19T09:39:58Z</time>
      </trkpt>
      <trkpt lat="44.88235" lon="5.52555">
        <ele>1780.4</ele>
        <time>2022-01-19T09:39:59Z</time>
      </trkpt>
      <trkpt lat="44.88235" lon="5.52555">
        <ele>1780.4</ele>
        <time>2022-01-19T09:40:00Z</time>
      </trkpt>
      <trkpt lat="44.88234" lon="5.52555">
        <ele>1780.4</ele>
        <time>2022-01-19T09:40:01Z</time>
      </trkpt>
      <trkpt lat="44.88234" lon="5.52554">
        <ele>1780.4</ele>
        <time>2022-01-19T09:40:02Z</time>
      </trkpt>
      <trkpt lat="44.88234" lon="5.52554">
        <ele>1780.4</ele>
        <time>2022-01-19T09:40:03Z</time>
      </trkpt>
      <trkpt lat="44.88234" lon="5.52553">
        <ele>1780.4</ele>
        <time>2022-01-19T09:40:04Z</time>
      </trkpt>
      <trkpt lat="44.88234" lon="5.52553">
        <ele>1780.4</ele>
        <time>2022-01-19T09:40:05Z</time>
      </trkpt>
      <trkpt lat="44.88234" lon="5.52552">
        <ele>1780.4</ele>
        <time>2022-01-19T09:40:06Z</time>
      </trkpt>
      <trkpt lat="44.88234" lon="5.52552">
        <ele>1782.1</ele>
        <time>2022-01-19T09:40:07Z</time>
      </trkpt>
      <trkpt lat="44.88234" lon="5.52552">
        <ele>1782.1</ele>
        <time>2022-01-19T09:40:08Z</time>
      </trkpt>
      <trkpt lat="44.88233" lon="5.52551">
        <ele>1782.1</ele>
        <time>2022-01-19T09:40:09Z</time>
      </trkpt>
      <trkpt lat="44.88233" lon="5.52551">
        <ele>1782.1</ele>
        <time>2022-01-19T09:40:10Z</time>
      </trkpt>
      <trkpt lat="44.88233" lon="5.5255">
        <ele>1782.1</ele>
        <time>2022-01-19T09:40:11Z</time>
      </trkpt>
      <trkpt lat="44.88233" lon="5.5255">
        <ele>1782.1</ele>
        <time>2022-01-19T09:40:12Z</time>
      </trkpt>
      <trkpt lat="44.88233" lon="5.52549">
        <ele>1782.4</ele>
        <time>2022-01-19T09:40:13Z</time>
      </trkpt>
      <trkpt lat="44.88233" lon="5.52549">
        <ele>1782.4</ele>
        <time>2022-01-19T09:40:14Z</time>
      </trkpt>
      <trkpt lat="44.88233" lon="5.52548">
        <ele>1782.4</ele>
        <time>2022-01-19T09:40:15Z</time>
      </trkpt>
      <trkpt lat="44.88233" lon="5.52548">
        <ele>1782.4</ele>
        <time>2022-01-19T09:40:16Z</time>
      </trkpt>
      <trkpt lat="44.88232" lon="5.52548">
        <ele>1784</ele>
        <time>2022-01-19T09:40:17Z</time>
      </trkpt>
      <trkpt lat="44.88232" lon="5.52547">
        <ele>1784</ele>
        <time>2022-01-19T09:40:18Z</time>
      </trkpt>
      <trkpt lat="44.88232" lon="5.52547">
        <ele>1784</ele>
        <time>2022-01-19T09:40:19Z</time>
      </trkpt>
      <trkpt lat="44.88232" lon="5.52546">
        <ele>1784</ele>
        <time>2022-01-19T09:40:20Z</time>
      </trkpt>
      <trkpt lat="44.88232" lon="5.52546">
        <ele>1784</ele>
        <time>2022-01-19T09:40:21Z</time>
      </trkpt>
      <trkpt lat="44.88232" lon="5.52545">
        <ele>1784</ele>
        <time>2022-01-19T09:40:22Z</time>
      </trkpt>
      <trkpt lat="44.88232" lon="5.52545">
        <ele>1784</ele>
        <time>2022-01-19T09:40:23Z</time>
      </trkpt>
      <trkpt lat="44.88232" lon="5.52545">
        <ele>1784</ele>
        <time>2022-01-19T09:40:24Z</time>
      </trkpt>
      <trkpt lat="44.88231" lon="5.52544">
        <ele>1784</ele>
        <time>2022-01-19T09:40:25Z</time>
      </trkpt>
      <trkpt lat="44.88231" lon="5.52544">
        <ele>1785.7</ele>
        <time>2022-01-19T09:40:26Z</time>
      </trkpt>
      <trkpt lat="44.88231" lon="5.52543">
        <ele>1785.7</ele>
        <time>2022-01-19T09:40:27Z</time>
      </trkpt>
      <trkpt lat="44.88231" lon="5.52543">
        <ele>1785.7</ele>
        <time>2022-01-19T09:40:28Z</time>
      </trkpt>
      <trkpt lat="44.88231" lon="5.52542">
        <ele>1785.7</ele>
        <time>2022-01-19T09:40:29Z</time>
      </trkpt>
      <trkpt lat="44.88231" lon="5.52542">
        <ele>1785.7</ele>
        <time>2022-01-19T09:40:30Z</time>
      </trkpt>
      <trkpt lat="44.88231" lon="5.52541">
        <ele>1785.7</ele>
        <time>2022-01-19T09:40:31Z</time>
      </trkpt>
      <trkpt lat="44.88231" lon="5.52541">
        <ele>1785.7</ele>
        <time>2022-01-19T09:40:32Z</time>
      </trkpt>
      <trkpt lat="44.8823" lon="5.52541">
        <ele>1785.7</ele>
        <time>2022-01-19T09:40:33Z</time>
      </trkpt>
      <trkpt lat="44.8823" lon="5.5254">
        <ele>1785.7</ele>
        <time>2022-01-19T09:40:34Z</time>
      </trkpt>
      <trkpt lat="44.8823" lon="5.5254">
        <ele>1785.7</ele>
        <time>2022-01-19T09:40:35Z</time>
      </trkpt>
      <trkpt lat="44.8823" lon="5.52539">
        <ele>1787.4</ele>
        <time>2022-01-19T09:40:36Z</time>
      </trkpt>
      <trkpt lat="44.8823" lon="5.52539">
        <ele>1787.4</ele>
        <time>2022-01-19T09:40:37Z</time>
      </trkpt>
      <trkpt lat="44.8823" lon="5.52538">
        <ele>1787.8</ele>
        <time>2022-01-19T09:40:38Z</time>
      </trkpt>
      <trkpt lat="44.8823" lon="5.52538">
        <ele>1787.8</ele>
        <time>2022-01-19T09:40:39Z</time>
      </trkpt>
      <trkpt lat="44.8823" lon="5.52538">
        <ele>1787.8</ele>
        <time>2022-01-19T09:40:40Z</time>
      </trkpt>
      <trkpt lat="44.8823" lon="5.52537">
        <ele>1787.8</ele>
        <time>2022-01-19T09:40:41Z</time>
      </trkpt>
      <trkpt lat="44.88229" lon="5.52537">
        <ele>1787.8</ele>
        <time>2022-01-19T09:40:42Z</time>
      </trkpt>
      <trkpt lat="44.88229" lon="5.52536">
        <ele>1787.8</ele>
        <time>2022-01-19T09:40:43Z</time>
      </trkpt>
      <trkpt lat="44.88229" lon="5.52536">
        <ele>1787.8</ele>
        <time>2022-01-19T09:40:44Z</time>
      </trkpt>
      <trkpt lat="44.88229" lon="5.52535">
        <ele>1787.8</ele>
        <time>2022-01-19T09:40:45Z</time>
      </trkpt>
      <trkpt lat="44.88229" lon="5.52535">
        <ele>1789.7</ele>
        <time>2022-01-19T09:40:46Z</time>
      </trkpt>
      <trkpt lat="44.88229" lon="5.52535">
        <ele>1789.7</ele>
        <time>2022-01-19T09:40:47Z</time>
      </trkpt>
      <trkpt lat="44.88229" lon="5.52534">
        <ele>1789.7</ele>
        <time>2022-01-19T09:40:48Z</time>
      </trkpt>
      <trkpt lat="44.88229" lon="5.52534">
        <ele>1789.7</ele>
        <time>2022-01-19T09:40:49Z</time>
      </trkpt>
      <trkpt lat="44.88228" lon="5.52533">
        <ele>1789.7</ele>
        <time>2022-01-19T09:40:50Z</time>
      </trkpt>
      <trkpt lat="44.88228" lon="5.52533">
        <ele>1789.7</ele>
        <time>2022-01-19T09:40:51Z</time>
      </trkpt>
      <trkpt lat="44.88228" lon="5.52532">
        <ele>1789.7</ele>
        <time>2022-01-19T09:40:52Z</time>
      </trkpt>
      <trkpt lat="44.88228" lon="5.52532">
        <ele>1789.7</ele>
        <time>2022-01-19T09:40:53Z</time>
      </trkpt>
      <trkpt lat="44.88228" lon="5.52531">
        <ele>1789.7</ele>
        <time>2022-01-19T09:40:54Z</time>
      </trkpt>
      <trkpt lat="44.88228" lon="5.52531">
        <ele>1789.7</ele>
        <time>2022-01-19T09:40:55Z</time>
      </trkpt>
      <trkpt lat="44.88228" lon="5.52531">
        <ele>1791.7</ele>
        <time>2022-01-19T09:40:56Z</time>
      </trkpt>
      <trkpt lat="44.88228" lon="5.5253">
        <ele>1791.7</ele>
        <time>2022-01-19T09:40:57Z</time>
      </trkpt>
      <trkpt lat="44.88227" lon="5.5253">
        <ele>1791.7</ele>
        <time>2022-01-19T09:40:58Z</time>
      </trkpt>
      <trkpt lat="44.88227" lon="5.52529">
        <ele>1791.7</ele>
        <time>2022-01-19T09:40:59Z</time>
      </trkpt>
      <trkpt lat="44.88227" lon="5.52529">
        <ele>1791.7</ele>
        <time>2022-01-19T09:41:00Z</time>
      </trkpt>
      <trkpt lat="44.88227" lon="5.52528">
        <ele>1791.7</ele>
        <time>2022-01-19T09:41:01Z</time>
      </trkpt>
      <trkpt lat="44.88227" lon="5.52528">
        <ele>1792.1</ele>
        <time>2022-01-19T09:41:02Z</time>
      </trkpt>
      <trkpt lat="44.88227" lon="5.52528">
        <ele>1792.1</ele>
        <time>2022-01-19T09:41:03Z</time>
      </trkpt>
      <trkpt lat="44.88227" lon="5.52527">
        <ele>1792.1</ele>
        <time>2022-01-19T09:41:04Z</time>
      </trkpt>
      <trkpt lat="44.88227" lon="5.52527">
        <ele>1792.1</ele>
        <time>2022-01-19T09:41:05Z</time>
      </trkpt>
      <trkpt lat="44.88226" lon="5.52526">
        <ele>1794.2</ele>
        <time>2022-01-19T09:41:06Z</time>
      </trkpt>
      <trkpt lat="44.88226" lon="5.52526">
        <ele>1794.2</ele>
        <time>2022-01-19T09:41:07Z</time>
      </trkpt>
      <trkpt lat="44.88226" lon="5.52525">
        <ele>1794.2</ele>
        <time>2022-01-19T09:41:08Z</time>
      </trkpt>
      <trkpt lat="44.88226" lon="5.52525">
        <ele>1794.2</ele>
        <time>2022-01-19T09:41:09Z</time>
      </trkpt>
      <trkpt lat="44.88226" lon="5.52525">
        <ele>1794.2</ele>
        <time>2022-01-19T09:41:10Z</time>
      </trkpt>
      <trkpt lat="44.88226" lon="5.52524">
        <ele>1794.2</ele>
        <time>2022-01-19T09:41:11Z</time>
      </trkpt>
      <trkpt lat="44.88226" lon="5.52524">
        <ele>1794.2</ele>
        <time>2022-01-19T09:41:12Z</time>
      </trkpt>
      <trkpt lat="44.88226" lon="5.52523">
        <ele>1794.2</ele>
        <time>2022-01-19T09:41:13Z</time>
      </trkpt>
      <trkpt lat="44.88226" lon="5.52523">
        <ele>1794.2</ele>
        <time>2022-01-19T09:41:14Z</time>
      </trkpt>
      <trkpt lat="44.88225" lon="5.52522">
        <ele>1794.2</ele>
        <time>2022-01-19T09:41:15Z</time>
      </trkpt>
      <trkpt lat="44.88225" lon="5.52522">
        <ele>1796.2</ele>
        <time>2022-01-19T09:41:16Z</time>
      </trkpt>
      <trkpt lat="44.88225" lon="5.52521">
        <ele>1796.2</ele>
        <time>2022-01-19T09:41:17Z</time>
      </trkpt>
      <trkpt lat="44.88225" lon="5.52521">
        <ele>1796.2</ele>
        <time>2022-01-19T09:41:18Z</time>
      </trkpt>
      <trkpt lat="44.88225" lon="5.52521">
        <ele>1796.2</ele>
        <time>2022-01-19T09:41:19Z</time>
      </trkpt>
      <trkpt lat="44.88225" lon="5.5252">
        <ele>1796.2</ele>
        <time>2022-01-19T09:41:20Z</time>
      </trkpt>
      <trkpt lat="44.88225" lon="5.5252">
        <ele>1796.2</ele>
        <time>2022-01-19T09:41:21Z</time>
      </trkpt>
      <trkpt lat="44.88225" lon="5.52519">
        <ele>1796.2</ele>
        <time>2022-01-19T09:41:22Z</time>
      </trkpt>
      <trkpt lat="44.88224" lon="5.52519">
        <ele>1796.2</ele>
        <time>2022-01-19T09:41:23Z</time>
      </trkpt>
      <trkpt lat="44.88224" lon="5.52518">
        <ele>1796.2</ele>
        <time>2022-01-19T09:41:24Z</time>
      </trkpt>
      <trkpt lat="44.88224" lon="5.52518">
        <ele>1796.2</ele>
        <time>2022-01-19T09:41:25Z</time>
      </trkpt>
      <trkpt lat="44.88224" lon="5.52518">
        <ele>1798.1</ele>
        <time>2022-01-19T09:41:26Z</time>
      </trkpt>
      <trkpt lat="44.88224" lon="5.52517">
        <ele>1798.1</ele>
        <time>2022-01-19T09:41:27Z</time>
      </trkpt>
      <trkpt lat="44.88224" lon="5.52517">
        <ele>1798.6</ele>
        <time>2022-01-19T09:41:28Z</time>
      </trkpt>
      <trkpt lat="44.88224" lon="5.52516">
        <ele>1798.6</ele>
        <time>2022-01-19T09:41:29Z</time>
      </trkpt>
      <trkpt lat="44.88224" lon="5.52516">
        <ele>1798.6</ele>
        <time>2022-01-19T09:41:30Z</time>
      </trkpt>
      <trkpt lat="44.88223" lon="5.52515">
        <ele>1798.6</ele>
        <time>2022-01-19T09:41:31Z</time>
      </trkpt>
      <trkpt lat="44.88223" lon="5.52515">
        <ele>1798.6</ele>
        <time>2022-01-19T09:41:32Z</time>
      </trkpt>
      <trkpt lat="44.88223" lon="5.52515">
        <ele>1798.6</ele>
        <time>2022-01-19T09:41:33Z</time>
      </trkpt>
      <trkpt lat="44.88223" lon="5.52514">
        <ele>1798.6</ele>
        <time>2022-01-19T09:41:34Z</time>
      </trkpt>
      <trkpt lat="44.88223" lon="5.52514">
        <ele>1798.6</ele>
        <time>2022-01-19T09:41:35Z</time>
      </trkpt>
      <trkpt lat="44.88223" lon="5.52513">
        <ele>1800.4</ele>
        <time>2022-01-19T09:41:36Z</time>
      </trkpt>
      <trkpt lat="44.88223" lon="5.52513">
        <ele>1800.4</ele>
        <time>2022-01-19T09:41:37Z</time>
      </trkpt>
      <trkpt lat="44.88223" lon="5.52512">
        <ele>1800.4</ele>
        <time>2022-01-19T09:41:38Z</time>
      </trkpt>
      <trkpt lat="44.88222" lon="5.52512">
        <ele>1800.4</ele>
        <time>2022-01-19T09:41:39Z</time>
      </trkpt>
      <trkpt lat="44.88222" lon="5.52511">
        <ele>1800.4</ele>
        <time>2022-01-19T09:41:40Z</time>
      </trkpt>
      <trkpt lat="44.88222" lon="5.52511">
        <ele>1800.4</ele>
        <time>2022-01-19T09:41:41Z</time>
      </trkpt>
      <trkpt lat="44.88222" lon="5.52511">
        <ele>1800.4</ele>
        <time>2022-01-19T09:41:42Z</time>
      </trkpt>
      <trkpt lat="44.88222" lon="5.5251">
        <ele>1800.4</ele>
        <time>2022-01-19T09:41:43Z</time>
      </trkpt>
      <trkpt lat="44.88222" lon="5.5251">
        <ele>1800.4</ele>
        <time>2022-01-19T09:41:44Z</time>
      </trkpt>
      <trkpt lat="44.88222" lon="5.52509">
        <ele>1802.2</ele>
        <time>2022-01-19T09:41:45Z</time>
      </trkpt>
      <trkpt lat="44.88222" lon="5.52509">
        <ele>1802.2</ele>
        <time>2022-01-19T09:41:46Z</time>
      </trkpt>
      <trkpt lat="44.88221" lon="5.52508">
        <ele>1802.2</ele>
        <time>2022-01-19T09:41:47Z</time>
      </trkpt>
      <trkpt lat="44.88221" lon="5.52508">
        <ele>1802.2</ele>
        <time>2022-01-19T09:41:48Z</time>
      </trkpt>
      <trkpt lat="44.88221" lon="5.52508">
        <ele>1802.2</ele>
        <time>2022-01-19T09:41:49Z</time>
      </trkpt>
      <trkpt lat="44.88221" lon="5.52507">
        <ele>1802.2</ele>
        <time>2022-01-19T09:41:50Z</time>
      </trkpt>
      <trkpt lat="44.88221" lon="5.52507">
        <ele>1802.2</ele>
        <time>2022-01-19T09:41:51Z</time>
      </trkpt>
      <trkpt lat="44.88221" lon="5.52506">
        <ele>1802.7</ele>
        <time>2022-01-19T09:41:52Z</time>
      </trkpt>
      <trkpt lat="44.88221" lon="5.52506">
        <ele>1802.7</ele>
        <time>2022-01-19T09:41:53Z</time>
      </trkpt>
      <trkpt lat="44.88221" lon="5.52505">
        <ele>1802.7</ele>
        <time>2022-01-19T09:41:54Z</time>
      </trkpt>
      <trkpt lat="44.88221" lon="5.52505">
        <ele>1804.5</ele>
        <time>2022-01-19T09:41:55Z</time>
      </trkpt>
      <trkpt lat="44.8822" lon="5.52504">
        <ele>1804.5</ele>
        <time>2022-01-19T09:41:56Z</time>
      </trkpt>
      <trkpt lat="44.8822" lon="5.52504">
        <ele>1804.5</ele>
        <time>2022-01-19T09:41:57Z</time>
      </trkpt>
      <trkpt lat="44.8822" lon="5.52504">
        <ele>1804.5</ele>
        <time>2022-01-19T09:41:58Z</time>
      </trkpt>
      <trkpt lat="44.8822" lon="5.52503">
        <ele>1804.5</ele>
        <time>2022-01-19T09:41:59Z</time>
      </trkpt>
      <trkpt lat="44.8822" lon="5.52503">
        <ele>1804.5</ele>
        <time>2022-01-19T09:42:00Z</time>
      </trkpt>
      <trkpt lat="44.8822" lon="5.52502">
        <ele>1804.5</ele>
        <time>2022-01-19T09:42:01Z</time>
      </trkpt>
      <trkpt lat="44.8822" lon="5.52502">
        <ele>1804.5</ele>
        <time>2022-01-19T09:42:02Z</time>
      </trkpt>
      <trkpt lat="44.8822" lon="5.52501">
        <ele>1804.5</ele>
        <time>2022-01-19T09:42:03Z</time>
      </trkpt>
      <trkpt lat="44.88219" lon="5.52501">
        <ele>1804.5</ele>
        <time>2022-01-19T09:42:04Z</time>
      </trkpt>
      <trkpt lat="44.88219" lon="5.52501">
        <ele>1806.2</ele>
        <time>2022-01-19T09:42:05Z</time>
      </trkpt>
      <trkpt lat="44.88219" lon="5.525">
        <ele>1806.2</ele>
        <time>2022-01-19T09:42:06Z</time>
      </trkpt>
      <trkpt lat="44.88219" lon="5.525">
        <ele>1806.2</ele>
        <time>2022-01-19T09:42:07Z</time>
      </trkpt>
      <trkpt lat="44.88219" lon="5.52499">
        <ele>1806.2</ele>
        <time>2022-01-19T09:42:08Z</time>
      </trkpt>
      <trkpt lat="44.88219" lon="5.52499">
        <ele>1806.2</ele>
        <time>2022-01-19T09:42:09Z</time>
      </trkpt>
      <trkpt lat="44.88219" lon="5.52498">
        <ele>1806.2</ele>
        <time>2022-01-19T09:42:10Z</time>
      </trkpt>
      <trkpt lat="44.88219" lon="5.52498">
        <ele>1806.2</ele>
        <time>2022-01-19T09:42:11Z</time>
      </trkpt>
      <trkpt lat="44.88218" lon="5.52498">
        <ele>1806.2</ele>
        <time>2022-01-19T09:42:12Z</time>
      </trkpt>
      <trkpt lat="44.88218" lon="5.52497">
        <ele>1806.2</ele>
        <time>2022-01-19T09:42:13Z</time>
      </trkpt>
      <trkpt lat="44.88218" lon="5.52497">
        <ele>1806.2</ele>
        <time>2022-01-19T09:42:14Z</time>
      </trkpt>
      <trkpt lat="44.88218" lon="5.52496">
        <ele>1808</ele>
        <time>2022-01-19T09:42:15Z</time>
      </trkpt>
      <trkpt lat="44.88218" lon="5.52496">
        <ele>1808</ele>
        <time>2022-01-19T09:42:16Z</time>
      </trkpt>
      <trkpt lat="44.88218" lon="5.52495">
        <ele>1808</ele>
        <time>2022-01-19T09:42:17Z</time>
      </trkpt>
      <trkpt lat="44.88218" lon="5.52495">
        <ele>1808.5</ele>
        <time>2022-01-19T09:42:18Z</time>
      </trkpt>
      <trkpt lat="44.88218" lon="5.52494">
        <ele>1808.5</ele>
        <time>2022-01-19T09:42:19Z</time>
      </trkpt>
      <trkpt lat="44.88217" lon="5.52494">
        <ele>1808.5</ele>
        <time>2022-01-19T09:42:20Z</time>
      </trkpt>
      <trkpt lat="44.88217" lon="5.52494">
        <ele>1808.5</ele>
        <time>2022-01-19T09:42:21Z</time>
      </trkpt>
      <trkpt lat="44.88217" lon="5.52493">
        <ele>1808.5</ele>
        <time>2022-01-19T09:42:22Z</time>
      </trkpt>
      <trkpt lat="44.88217" lon="5.52493">
        <ele>1808.5</ele>
        <time>2022-01-19T09:42:23Z</time>
      </trkpt>
      <trkpt lat="44.88217" lon="5.52492">
        <ele>1808.5</ele>
        <time>2022-01-19T09:42:24Z</time>
      </trkpt>
      <trkpt lat="44.88217" lon="5.52492">
        <ele>1810.3</ele>
        <time>2022-01-19T09:42:25Z</time>
      </trkpt>
      <trkpt lat="44.88217" lon="5.52491">
        <ele>1810.3</ele>
        <time>2022-01-19T09:42:26Z</time>
      </trkpt>
      <trkpt lat="44.88217" lon="5.52491">
        <ele>1810.3</ele>
        <time>2022-01-19T09:42:27Z</time>
      </trkpt>
      <trkpt lat="44.88217" lon="5.52491">
        <ele>1810.3</ele>
        <time>2022-01-19T09:42:28Z</time>
      </trkpt>
      <trkpt lat="44.88217" lon="5.52489">
        <ele>1810.3</ele>
        <time>2022-01-19T09:42:29Z</time>
      </trkpt>
      <trkpt lat="44.88218" lon="5.52488">
        <ele>1810.3</ele>
        <time>2022-01-19T09:42:30Z</time>
      </trkpt>
      <trkpt lat="44.88218" lon="5.52488">
        <ele>1811.7</ele>
        <time>2022-01-19T09:42:31Z</time>
      </trkpt>
      <trkpt lat="44.88219" lon="5.52487">
        <ele>1811.7</ele>
        <time>2022-01-19T09:42:32Z</time>
      </trkpt>
      <trkpt lat="44.88219" lon="5.52486">
        <ele>1811.7</ele>
        <time>2022-01-19T09:42:33Z</time>
      </trkpt>
      <trkpt lat="44.88219" lon="5.52486">
        <ele>1811.7</ele>
        <time>2022-01-19T09:42:34Z</time>
      </trkpt>
      <trkpt lat="44.8822" lon="5.52486">
        <ele>1811.7</ele>
        <time>2022-01-19T09:42:35Z</time>
      </trkpt>
      <trkpt lat="44.8822" lon="5.52485">
        <ele>1811.7</ele>
        <time>2022-01-19T09:42:36Z</time>
      </trkpt>
      <trkpt lat="44.88221" lon="5.52485">
        <ele>1811.7</ele>
        <time>2022-01-19T09:42:37Z</time>
      </trkpt>
      <trkpt lat="44.88221" lon="5.52485">
        <ele>1811.3</ele>
        <time>2022-01-19T09:42:38Z</time>
      </trkpt>
      <trkpt lat="44.88221" lon="5.52485">
        <ele>1811.3</ele>
        <time>2022-01-19T09:42:39Z</time>
      </trkpt>
      <trkpt lat="44.88221" lon="5.52485">
        <ele>1811.3</ele>
        <time>2022-01-19T09:42:40Z</time>
      </trkpt>
      <trkpt lat="44.88221" lon="5.52485">
        <ele>1811.3</ele>
        <time>2022-01-19T09:42:41Z</time>
      </trkpt>
      <trkpt lat="44.88221" lon="5.52485">
        <ele>1811.3</ele>
        <time>2022-01-19T09:42:42Z</time>
      </trkpt>
      <trkpt lat="44.88221" lon="5.52485">
        <ele>1811.3</ele>
        <time>2022-01-19T09:42:43Z</time>
      </trkpt>
      <trkpt lat="44.88221" lon="5.52485">
        <ele>1811.3</ele>
        <time>2022-01-19T09:42:44Z</time>
      </trkpt>
      <trkpt lat="44.88221" lon="5.52485">
        <ele>1811.3</ele>
        <time>2022-01-19T09:42:45Z</time>
      </trkpt>
      <trkpt lat="44.88221" lon="5.52485">
        <ele>1811.3</ele>
        <time>2022-01-19T09:42:46Z</time>
      </trkpt>
      <trkpt lat="44.88221" lon="5.52485">
        <ele>1811.3</ele>
        <time>2022-01-19T09:42:47Z</time>
      </trkpt>
      <trkpt lat="44.88221" lon="5.52485">
        <ele>1811.3</ele>
        <time>2022-01-19T09:42:48Z</time>
      </trkpt>
      <trkpt lat="44.88221" lon="5.52485">
        <ele>1811.3</ele>
        <time>2022-01-19T09:42:49Z</time>
      </trkpt>
      <trkpt lat="44.88221" lon="5.52485">
        <ele>1811.3</ele>
        <time>2022-01-19T09:42:50Z</time>
      </trkpt>
      <trkpt lat="44.88221" lon="5.52485">
        <ele>1811.3</ele>
        <time>2022-01-19T09:42:51Z</time>
      </trkpt>
      <trkpt lat="44.88221" lon="5.52485">
        <ele>1811.3</ele>
        <time>2022-01-19T09:42:52Z</time>
      </trkpt>
      <trkpt lat="44.88221" lon="5.52485">
        <ele>1811.3</ele>
        <time>2022-01-19T09:42:53Z</time>
      </trkpt>
      <trkpt lat="44.88221" lon="5.52485">
        <ele>1811.3</ele>
        <time>2022-01-19T09:42:54Z</time>
      </trkpt>
      <trkpt lat="44.88221" lon="5.52485">
        <ele>1811.3</ele>
        <time>2022-01-19T09:42:55Z</time>
      </trkpt>
      <trkpt lat="44.88221" lon="5.52485">
        <ele>1811.3</ele>
        <time>2022-01-19T09:42:56Z</time>
      </trkpt>
      <trkpt lat="44.88221" lon="5.52485">
        <ele>1811.3</ele>
        <time>2022-01-19T09:42:57Z</time>
      </trkpt>
      <trkpt lat="44.88221" lon="5.52485">
        <ele>1811.3</ele>
        <time>2022-01-19T09:42:58Z</time>
      </trkpt>
      <trkpt lat="44.8822" lon="5.52481">
        <ele>1813.6</ele>
        <time>2022-01-19T09:42:59Z</time>
      </trkpt>
      <trkpt lat="44.8822" lon="5.5248">
        <ele>1813.6</ele>
        <time>2022-01-19T09:43:00Z</time>
      </trkpt>
      <trkpt lat="44.88219" lon="5.5248">
        <ele>1813.6</ele>
        <time>2022-01-19T09:43:01Z</time>
      </trkpt>
      <trkpt lat="44.88219" lon="5.5248">
        <ele>1813.6</ele>
        <time>2022-01-19T09:43:02Z</time>
      </trkpt>
      <trkpt lat="44.88218" lon="5.5248">
        <ele>1813.6</ele>
        <time>2022-01-19T09:43:03Z</time>
      </trkpt>
      <trkpt lat="44.88218" lon="5.5248">
        <ele>1813.6</ele>
        <time>2022-01-19T09:43:04Z</time>
      </trkpt>
      <trkpt lat="44.88218" lon="5.5248">
        <ele>1813.6</ele>
        <time>2022-01-19T09:43:05Z</time>
      </trkpt>
      <trkpt lat="44.88218" lon="5.5248">
        <ele>1813.6</ele>
        <time>2022-01-19T09:43:06Z</time>
      </trkpt>
      <trkpt lat="44.88218" lon="5.5248">
        <ele>1813.6</ele>
        <time>2022-01-19T09:43:07Z</time>
      </trkpt>
      <trkpt lat="44.88218" lon="5.5248">
        <ele>1813.6</ele>
        <time>2022-01-19T09:43:08Z</time>
      </trkpt>
      <trkpt lat="44.88216" lon="5.52479">
        <ele>1816.1</ele>
        <time>2022-01-19T09:43:09Z</time>
      </trkpt>
      <trkpt lat="44.88215" lon="5.52479">
        <ele>1816.1</ele>
        <time>2022-01-19T09:43:10Z</time>
      </trkpt>
      <trkpt lat="44.88215" lon="5.52479">
        <ele>1816.6</ele>
        <time>2022-01-19T09:43:11Z</time>
      </trkpt>
      <trkpt lat="44.88214" lon="5.52479">
        <ele>1816.6</ele>
        <time>2022-01-19T09:43:12Z</time>
      </trkpt>
      <trkpt lat="44.88213" lon="5.52479">
        <ele>1816.6</ele>
        <time>2022-01-19T09:43:13Z</time>
      </trkpt>
      <trkpt lat="44.88213" lon="5.52479">
        <ele>1816.6</ele>
        <time>2022-01-19T09:43:14Z</time>
      </trkpt>
      <trkpt lat="44.88212" lon="5.52479">
        <ele>1814.6</ele>
        <time>2022-01-19T09:43:15Z</time>
      </trkpt>
      <trkpt lat="44.88212" lon="5.52479">
        <ele>1815.2</ele>
        <time>2022-01-19T09:43:16Z</time>
      </trkpt>
      <trkpt lat="44.88211" lon="5.5248">
        <ele>1815.2</ele>
        <time>2022-01-19T09:43:17Z</time>
      </trkpt>
      <trkpt lat="44.8821" lon="5.5248">
        <ele>1815.2</ele>
        <time>2022-01-19T09:43:18Z</time>
      </trkpt>
      <trkpt lat="44.8821" lon="5.52481">
        <ele>1815.2</ele>
        <time>2022-01-19T09:43:19Z</time>
      </trkpt>
      <trkpt lat="44.88209" lon="5.52481">
        <ele>1815.2</ele>
        <time>2022-01-19T09:43:20Z</time>
      </trkpt>
      <trkpt lat="44.88208" lon="5.5248">
        <ele>1815.8</ele>
        <time>2022-01-19T09:43:21Z</time>
      </trkpt>
      <trkpt lat="44.88208" lon="5.52481">
        <ele>1815.8</ele>
        <time>2022-01-19T09:43:22Z</time>
      </trkpt>
      <trkpt lat="44.88208" lon="5.52481">
        <ele>1815.8</ele>
        <time>2022-01-19T09:43:23Z</time>
      </trkpt>
      <trkpt lat="44.88207" lon="5.5248">
        <ele>1815.8</ele>
        <time>2022-01-19T09:43:24Z</time>
      </trkpt>
      <trkpt lat="44.88207" lon="5.5248">
        <ele>1815.8</ele>
        <time>2022-01-19T09:43:25Z</time>
      </trkpt>
      <trkpt lat="44.88205" lon="5.5248">
        <ele>1816.4</ele>
        <time>2022-01-19T09:43:26Z</time>
      </trkpt>
      <trkpt lat="44.88205" lon="5.5248">
        <ele>1816.4</ele>
        <time>2022-01-19T09:43:27Z</time>
      </trkpt>
      <trkpt lat="44.88204" lon="5.5248">
        <ele>1816.4</ele>
        <time>2022-01-19T09:43:28Z</time>
      </trkpt>
      <trkpt lat="44.88203" lon="5.5248">
        <ele>1816.4</ele>
        <time>2022-01-19T09:43:29Z</time>
      </trkpt>
      <trkpt lat="44.88203" lon="5.52479">
        <ele>1816.4</ele>
        <time>2022-01-19T09:43:30Z</time>
      </trkpt>
      <trkpt lat="44.88202" lon="5.52479">
        <ele>1819</ele>
        <time>2022-01-19T09:43:31Z</time>
      </trkpt>
      <trkpt lat="44.88202" lon="5.52478">
        <ele>1819</ele>
        <time>2022-01-19T09:43:32Z</time>
      </trkpt>
      <trkpt lat="44.88201" lon="5.52478">
        <ele>1819</ele>
        <time>2022-01-19T09:43:33Z</time>
      </trkpt>
      <trkpt lat="44.882" lon="5.52478">
        <ele>1819</ele>
        <time>2022-01-19T09:43:34Z</time>
      </trkpt>
      <trkpt lat="44.88199" lon="5.52479">
        <ele>1819.7</ele>
        <time>2022-01-19T09:43:35Z</time>
      </trkpt>
      <trkpt lat="44.88198" lon="5.52479">
        <ele>1819.7</ele>
        <time>2022-01-19T09:43:36Z</time>
      </trkpt>
      <trkpt lat="44.88198" lon="5.52479">
        <ele>1819.7</ele>
        <time>2022-01-19T09:43:37Z</time>
      </trkpt>
      <trkpt lat="44.88197" lon="5.52479">
        <ele>1819.7</ele>
        <time>2022-01-19T09:43:38Z</time>
      </trkpt>
      <trkpt lat="44.88196" lon="5.52479">
        <ele>1818.6</ele>
        <time>2022-01-19T09:43:39Z</time>
      </trkpt>
      <trkpt lat="44.88196" lon="5.5248">
        <ele>1818.6</ele>
        <time>2022-01-19T09:43:40Z</time>
      </trkpt>
      <trkpt lat="44.88195" lon="5.5248">
        <ele>1818.6</ele>
        <time>2022-01-19T09:43:41Z</time>
      </trkpt>
      <trkpt lat="44.88194" lon="5.5248">
        <ele>1818.6</ele>
        <time>2022-01-19T09:43:42Z</time>
      </trkpt>
      <trkpt lat="44.88193" lon="5.5248">
        <ele>1819.5</ele>
        <time>2022-01-19T09:43:43Z</time>
      </trkpt>
      <trkpt lat="44.88192" lon="5.52481">
        <ele>1819.5</ele>
        <time>2022-01-19T09:43:44Z</time>
      </trkpt>
      <trkpt lat="44.88191" lon="5.52481">
        <ele>1819.5</ele>
        <time>2022-01-19T09:43:45Z</time>
      </trkpt>
      <trkpt lat="44.88191" lon="5.52481">
        <ele>1819.5</ele>
        <time>2022-01-19T09:43:46Z</time>
      </trkpt>
      <trkpt lat="44.88191" lon="5.52481">
        <ele>1819.5</ele>
        <time>2022-01-19T09:43:47Z</time>
      </trkpt>
      <trkpt lat="44.8819" lon="5.52481">
        <ele>1820.4</ele>
        <time>2022-01-19T09:43:48Z</time>
      </trkpt>
      <trkpt lat="44.8819" lon="5.52481">
        <ele>1820.4</ele>
        <time>2022-01-19T09:43:49Z</time>
      </trkpt>
      <trkpt lat="44.8819" lon="5.52481">
        <ele>1820.4</ele>
        <time>2022-01-19T09:43:50Z</time>
      </trkpt>
      <trkpt lat="44.8819" lon="5.52481">
        <ele>1820.4</ele>
        <time>2022-01-19T09:43:51Z</time>
      </trkpt>
      <trkpt lat="44.8819" lon="5.52481">
        <ele>1820.4</ele>
        <time>2022-01-19T09:43:52Z</time>
      </trkpt>
      <trkpt lat="44.8819" lon="5.52481">
        <ele>1820.4</ele>
        <time>2022-01-19T09:43:53Z</time>
      </trkpt>
      <trkpt lat="44.8819" lon="5.52481">
        <ele>1820.4</ele>
        <time>2022-01-19T09:43:54Z</time>
      </trkpt>
      <trkpt lat="44.8819" lon="5.52481">
        <ele>1820.4</ele>
        <time>2022-01-19T09:43:55Z</time>
      </trkpt>
      <trkpt lat="44.8819" lon="5.52481">
        <ele>1820.4</ele>
        <time>2022-01-19T09:43:56Z</time>
      </trkpt>
      <trkpt lat="44.88191" lon="5.52477">
        <ele>1821.3</ele>
        <time>2022-01-19T09:43:57Z</time>
      </trkpt>
      <trkpt lat="44.88191" lon="5.52476">
        <ele>1821.3</ele>
        <time>2022-01-19T09:43:58Z</time>
      </trkpt>
      <trkpt lat="44.88192" lon="5.52476">
        <ele>1821.3</ele>
        <time>2022-01-19T09:43:59Z</time>
      </trkpt>
      <trkpt lat="44.88192" lon="5.52475">
        <ele>1821.3</ele>
        <time>2022-01-19T09:44:00Z</time>
      </trkpt>
      <trkpt lat="44.88193" lon="5.52475">
        <ele>1823.2</ele>
        <time>2022-01-19T09:44:01Z</time>
      </trkpt>
      <trkpt lat="44.88193" lon="5.52474">
        <ele>1823.2</ele>
        <time>2022-01-19T09:44:02Z</time>
      </trkpt>
      <trkpt lat="44.88194" lon="5.52474">
        <ele>1822.4</ele>
        <time>2022-01-19T09:44:03Z</time>
      </trkpt>
      <trkpt lat="44.88194" lon="5.52473">
        <ele>1822.4</ele>
        <time>2022-01-19T09:44:04Z</time>
      </trkpt>
      <trkpt lat="44.88195" lon="5.52472">
        <ele>1822.4</ele>
        <time>2022-01-19T09:44:05Z</time>
      </trkpt>
      <trkpt lat="44.88195" lon="5.52471">
        <ele>1822.4</ele>
        <time>2022-01-19T09:44:06Z</time>
      </trkpt>
      <trkpt lat="44.88195" lon="5.52471">
        <ele>1822.4</ele>
        <time>2022-01-19T09:44:07Z</time>
      </trkpt>
      <trkpt lat="44.88197" lon="5.52471">
        <ele>1823.4</ele>
        <time>2022-01-19T09:44:08Z</time>
      </trkpt>
      <trkpt lat="44.88197" lon="5.5247">
        <ele>1823.4</ele>
        <time>2022-01-19T09:44:09Z</time>
      </trkpt>
      <trkpt lat="44.88198" lon="5.52469">
        <ele>1823.4</ele>
        <time>2022-01-19T09:44:10Z</time>
      </trkpt>
      <trkpt lat="44.88198" lon="5.52469">
        <ele>1823.4</ele>
        <time>2022-01-19T09:44:11Z</time>
      </trkpt>
      <trkpt lat="44.88199" lon="5.52468">
        <ele>1823.4</ele>
        <time>2022-01-19T09:44:12Z</time>
      </trkpt>
      <trkpt lat="44.88199" lon="5.52468">
        <ele>1823.4</ele>
        <time>2022-01-19T09:44:13Z</time>
      </trkpt>
      <trkpt lat="44.882" lon="5.52467">
        <ele>1822.8</ele>
        <time>2022-01-19T09:44:14Z</time>
      </trkpt>
      <trkpt lat="44.882" lon="5.52466">
        <ele>1824.5</ele>
        <time>2022-01-19T09:44:15Z</time>
      </trkpt>
      <trkpt lat="44.882" lon="5.52466">
        <ele>1824.5</ele>
        <time>2022-01-19T09:44:16Z</time>
      </trkpt>
      <trkpt lat="44.882" lon="5.52465">
        <ele>1824.5</ele>
        <time>2022-01-19T09:44:17Z</time>
      </trkpt>
      <trkpt lat="44.88201" lon="5.52464">
        <ele>1824.5</ele>
        <time>2022-01-19T09:44:18Z</time>
      </trkpt>
      <trkpt lat="44.88202" lon="5.52464">
        <ele>1824.5</ele>
        <time>2022-01-19T09:44:19Z</time>
      </trkpt>
      <trkpt lat="44.88202" lon="5.52464">
        <ele>1824.5</ele>
        <time>2022-01-19T09:44:20Z</time>
      </trkpt>
      <trkpt lat="44.88202" lon="5.52463">
        <ele>1824.5</ele>
        <time>2022-01-19T09:44:21Z</time>
      </trkpt>
      <trkpt lat="44.88203" lon="5.52463">
        <ele>1823.9</ele>
        <time>2022-01-19T09:44:22Z</time>
      </trkpt>
      <trkpt lat="44.88203" lon="5.52462">
        <ele>1825.6</ele>
        <time>2022-01-19T09:44:23Z</time>
      </trkpt>
      <trkpt lat="44.88204" lon="5.52461">
        <ele>1825.6</ele>
        <time>2022-01-19T09:44:24Z</time>
      </trkpt>
      <trkpt lat="44.88204" lon="5.5246">
        <ele>1825.6</ele>
        <time>2022-01-19T09:44:25Z</time>
      </trkpt>
      <trkpt lat="44.88204" lon="5.5246">
        <ele>1825.6</ele>
        <time>2022-01-19T09:44:26Z</time>
      </trkpt>
      <trkpt lat="44.88204" lon="5.52459">
        <ele>1825.6</ele>
        <time>2022-01-19T09:44:27Z</time>
      </trkpt>
      <trkpt lat="44.88204" lon="5.52458">
        <ele>1825.6</ele>
        <time>2022-01-19T09:44:28Z</time>
      </trkpt>
      <trkpt lat="44.88204" lon="5.52458">
        <ele>1825.6</ele>
        <time>2022-01-19T09:44:29Z</time>
      </trkpt>
      <trkpt lat="44.88205" lon="5.52458">
        <ele>1827.3</ele>
        <time>2022-01-19T09:44:30Z</time>
      </trkpt>
      <trkpt lat="44.88205" lon="5.52457">
        <ele>1827.3</ele>
        <time>2022-01-19T09:44:31Z</time>
      </trkpt>
      <trkpt lat="44.88205" lon="5.52457">
        <ele>1827.3</ele>
        <time>2022-01-19T09:44:32Z</time>
      </trkpt>
      <trkpt lat="44.88205" lon="5.52457">
        <ele>1827.3</ele>
        <time>2022-01-19T09:44:33Z</time>
      </trkpt>
      <trkpt lat="44.88205" lon="5.52456">
        <ele>1827.3</ele>
        <time>2022-01-19T09:44:34Z</time>
      </trkpt>
      <trkpt lat="44.88206" lon="5.52456">
        <ele>1826.8</ele>
        <time>2022-01-19T09:44:35Z</time>
      </trkpt>
      <trkpt lat="44.88207" lon="5.52456">
        <ele>1826.8</ele>
        <time>2022-01-19T09:44:36Z</time>
      </trkpt>
      <trkpt lat="44.88207" lon="5.52455">
        <ele>1826.8</ele>
        <time>2022-01-19T09:44:37Z</time>
      </trkpt>
      <trkpt lat="44.88207" lon="5.52455">
        <ele>1826.8</ele>
        <time>2022-01-19T09:44:38Z</time>
      </trkpt>
      <trkpt lat="44.88207" lon="5.52455">
        <ele>1826.8</ele>
        <time>2022-01-19T09:44:39Z</time>
      </trkpt>
      <trkpt lat="44.88208" lon="5.52454">
        <ele>1826.8</ele>
        <time>2022-01-19T09:44:40Z</time>
      </trkpt>
      <trkpt lat="44.88208" lon="5.52454">
        <ele>1826.8</ele>
        <time>2022-01-19T09:44:41Z</time>
      </trkpt>
      <trkpt lat="44.88208" lon="5.52453">
        <ele>1828.5</ele>
        <time>2022-01-19T09:44:42Z</time>
      </trkpt>
      <trkpt lat="44.88209" lon="5.52453">
        <ele>1828</ele>
        <time>2022-01-19T09:44:43Z</time>
      </trkpt>
      <trkpt lat="44.88209" lon="5.52452">
        <ele>1828</ele>
        <time>2022-01-19T09:44:44Z</time>
      </trkpt>
      <trkpt lat="44.8821" lon="5.52451">
        <ele>1828</ele>
        <time>2022-01-19T09:44:45Z</time>
      </trkpt>
      <trkpt lat="44.8821" lon="5.52451">
        <ele>1828</ele>
        <time>2022-01-19T09:44:46Z</time>
      </trkpt>
      <trkpt lat="44.88211" lon="5.5245">
        <ele>1828</ele>
        <time>2022-01-19T09:44:47Z</time>
      </trkpt>
      <trkpt lat="44.88211" lon="5.5245">
        <ele>1828</ele>
        <time>2022-01-19T09:44:48Z</time>
      </trkpt>
      <trkpt lat="44.88211" lon="5.52449">
        <ele>1829.8</ele>
        <time>2022-01-19T09:44:49Z</time>
      </trkpt>
      <trkpt lat="44.88212" lon="5.52449">
        <ele>1829.4</ele>
        <time>2022-01-19T09:44:50Z</time>
      </trkpt>
      <trkpt lat="44.88212" lon="5.52448">
        <ele>1829.4</ele>
        <time>2022-01-19T09:44:51Z</time>
      </trkpt>
      <trkpt lat="44.88213" lon="5.52448">
        <ele>1829.4</ele>
        <time>2022-01-19T09:44:52Z</time>
      </trkpt>
      <trkpt lat="44.88213" lon="5.52447">
        <ele>1829.4</ele>
        <time>2022-01-19T09:44:53Z</time>
      </trkpt>
      <trkpt lat="44.88214" lon="5.52447">
        <ele>1829.4</ele>
        <time>2022-01-19T09:44:54Z</time>
      </trkpt>
      <trkpt lat="44.88214" lon="5.52446">
        <ele>1829.4</ele>
        <time>2022-01-19T09:44:55Z</time>
      </trkpt>
      <trkpt lat="44.88214" lon="5.52446">
        <ele>1829.4</ele>
        <time>2022-01-19T09:44:56Z</time>
      </trkpt>
      <trkpt lat="44.88215" lon="5.52445">
        <ele>1829.4</ele>
        <time>2022-01-19T09:44:57Z</time>
      </trkpt>
      <trkpt lat="44.88215" lon="5.52445">
        <ele>1829.4</ele>
        <time>2022-01-19T09:44:58Z</time>
      </trkpt>
      <trkpt lat="44.88215" lon="5.52445">
        <ele>1829.4</ele>
        <time>2022-01-19T09:44:59Z</time>
      </trkpt>
      <trkpt lat="44.88215" lon="5.52445">
        <ele>1829.4</ele>
        <time>2022-01-19T09:45:00Z</time>
      </trkpt>
      <trkpt lat="44.88215" lon="5.52445">
        <ele>1829.4</ele>
        <time>2022-01-19T09:45:01Z</time>
      </trkpt>
      <trkpt lat="44.88215" lon="5.52445">
        <ele>1829.4</ele>
        <time>2022-01-19T09:45:02Z</time>
      </trkpt>
      <trkpt lat="44.88215" lon="5.52445">
        <ele>1829.4</ele>
        <time>2022-01-19T09:45:03Z</time>
      </trkpt>
      <trkpt lat="44.88215" lon="5.52445">
        <ele>1829.4</ele>
        <time>2022-01-19T09:45:04Z</time>
      </trkpt>
      <trkpt lat="44.88217" lon="5.52442">
        <ele>1831</ele>
        <time>2022-01-19T09:45:05Z</time>
      </trkpt>
      <trkpt lat="44.88218" lon="5.52441">
        <ele>1830.6</ele>
        <time>2022-01-19T09:45:06Z</time>
      </trkpt>
      <trkpt lat="44.88219" lon="5.52441">
        <ele>1830.6</ele>
        <time>2022-01-19T09:45:07Z</time>
      </trkpt>
      <trkpt lat="44.88219" lon="5.52441">
        <ele>1830.6</ele>
        <time>2022-01-19T09:45:08Z</time>
      </trkpt>
      <trkpt lat="44.8822" lon="5.52441">
        <ele>1830.6</ele>
        <time>2022-01-19T09:45:09Z</time>
      </trkpt>
      <trkpt lat="44.8822" lon="5.5244">
        <ele>1832.6</ele>
        <time>2022-01-19T09:45:10Z</time>
      </trkpt>
      <trkpt lat="44.88221" lon="5.5244">
        <ele>1832.6</ele>
        <time>2022-01-19T09:45:11Z</time>
      </trkpt>
      <trkpt lat="44.88221" lon="5.5244">
        <ele>1832.3</ele>
        <time>2022-01-19T09:45:12Z</time>
      </trkpt>
      <trkpt lat="44.88222" lon="5.5244">
        <ele>1832.3</ele>
        <time>2022-01-19T09:45:13Z</time>
      </trkpt>
      <trkpt lat="44.88222" lon="5.5244">
        <ele>1832.3</ele>
        <time>2022-01-19T09:45:14Z</time>
      </trkpt>
      <trkpt lat="44.88223" lon="5.5244">
        <ele>1832.3</ele>
        <time>2022-01-19T09:45:15Z</time>
      </trkpt>
      <trkpt lat="44.88223" lon="5.52439">
        <ele>1832.3</ele>
        <time>2022-01-19T09:45:16Z</time>
      </trkpt>
      <trkpt lat="44.88223" lon="5.52439">
        <ele>1832.3</ele>
        <time>2022-01-19T09:45:17Z</time>
      </trkpt>
      <trkpt lat="44.88223" lon="5.52439">
        <ele>1832.3</ele>
        <time>2022-01-19T09:45:18Z</time>
      </trkpt>
      <trkpt lat="44.88223" lon="5.52439">
        <ele>1832.3</ele>
        <time>2022-01-19T09:45:19Z</time>
      </trkpt>
      <trkpt lat="44.88223" lon="5.52439">
        <ele>1832.3</ele>
        <time>2022-01-19T09:45:20Z</time>
      </trkpt>
      <trkpt lat="44.88224" lon="5.52438">
        <ele>1832.3</ele>
        <time>2022-01-19T09:45:21Z</time>
      </trkpt>
      <trkpt lat="44.88224" lon="5.52438">
        <ele>1832</ele>
        <time>2022-01-19T09:45:22Z</time>
      </trkpt>
      <trkpt lat="44.88225" lon="5.52437">
        <ele>1832</ele>
        <time>2022-01-19T09:45:23Z</time>
      </trkpt>
      <trkpt lat="44.88225" lon="5.52437">
        <ele>1832</ele>
        <time>2022-01-19T09:45:24Z</time>
      </trkpt>
      <trkpt lat="44.88226" lon="5.52436">
        <ele>1832</ele>
        <time>2022-01-19T09:45:25Z</time>
      </trkpt>
      <trkpt lat="44.88226" lon="5.52436">
        <ele>1832</ele>
        <time>2022-01-19T09:45:26Z</time>
      </trkpt>
      <trkpt lat="44.88226" lon="5.52436">
        <ele>1834.1</ele>
        <time>2022-01-19T09:45:27Z</time>
      </trkpt>
      <trkpt lat="44.88226" lon="5.52436">
        <ele>1834.1</ele>
        <time>2022-01-19T09:45:28Z</time>
      </trkpt>
      <trkpt lat="44.88226" lon="5.52436">
        <ele>1834.1</ele>
        <time>2022-01-19T09:45:29Z</time>
      </trkpt>
      <trkpt lat="44.88226" lon="5.52436">
        <ele>1834.1</ele>
        <time>2022-01-19T09:45:30Z</time>
      </trkpt>
      <trkpt lat="44.88226" lon="5.52436">
        <ele>1834.1</ele>
        <time>2022-01-19T09:45:31Z</time>
      </trkpt>
      <trkpt lat="44.88229" lon="5.52435">
        <ele>1833.9</ele>
        <time>2022-01-19T09:45:32Z</time>
      </trkpt>
      <trkpt lat="44.88229" lon="5.52435">
        <ele>1833.9</ele>
        <time>2022-01-19T09:45:33Z</time>
      </trkpt>
      <trkpt lat="44.8823" lon="5.52434">
        <ele>1833.9</ele>
        <time>2022-01-19T09:45:34Z</time>
      </trkpt>
      <trkpt lat="44.88231" lon="5.52433">
        <ele>1833.7</ele>
        <time>2022-01-19T09:45:35Z</time>
      </trkpt>
      <trkpt lat="44.88231" lon="5.52433">
        <ele>1833.7</ele>
        <time>2022-01-19T09:45:36Z</time>
      </trkpt>
      <trkpt lat="44.88231" lon="5.52433">
        <ele>1833.7</ele>
        <time>2022-01-19T09:45:37Z</time>
      </trkpt>
      <trkpt lat="44.88231" lon="5.52432">
        <ele>1833.7</ele>
        <time>2022-01-19T09:45:38Z</time>
      </trkpt>
      <trkpt lat="44.88231" lon="5.52432">
        <ele>1833.9</ele>
        <time>2022-01-19T09:45:39Z</time>
      </trkpt>
      <trkpt lat="44.88231" lon="5.52432">
        <ele>1834.2</ele>
        <time>2022-01-19T09:45:40Z</time>
      </trkpt>
      <trkpt lat="44.88231" lon="5.52432">
        <ele>1834.4</ele>
        <time>2022-01-19T09:45:41Z</time>
      </trkpt>
      <trkpt lat="44.88231" lon="5.52432">
        <ele>1834.6</ele>
        <time>2022-01-19T09:45:42Z</time>
      </trkpt>
      <trkpt lat="44.88231" lon="5.52432">
        <ele>1834.8</ele>
        <time>2022-01-19T09:45:43Z</time>
      </trkpt>
      <trkpt lat="44.88231" lon="5.52432">
        <ele>1835.1</ele>
        <time>2022-01-19T09:45:44Z</time>
      </trkpt>
      <trkpt lat="44.88234" lon="5.5243">
        <ele>1837.4</ele>
        <time>2022-01-19T09:45:45Z</time>
      </trkpt>
      <trkpt lat="44.88235" lon="5.5243">
        <ele>1837.6</ele>
        <time>2022-01-19T09:45:46Z</time>
      </trkpt>
      <trkpt lat="44.88235" lon="5.52429">
        <ele>1837.8</ele>
        <time>2022-01-19T09:45:47Z</time>
      </trkpt>
      <trkpt lat="44.88236" lon="5.52429">
        <ele>1838</ele>
        <time>2022-01-19T09:45:48Z</time>
      </trkpt>
      <trkpt lat="44.88237" lon="5.52428">
        <ele>1838.2</ele>
        <time>2022-01-19T09:45:49Z</time>
      </trkpt>
      <trkpt lat="44.88237" lon="5.52428">
        <ele>1838.4</ele>
        <time>2022-01-19T09:45:50Z</time>
      </trkpt>
      <trkpt lat="44.88237" lon="5.52428">
        <ele>1838.7</ele>
        <time>2022-01-19T09:45:51Z</time>
      </trkpt>
      <trkpt lat="44.88238" lon="5.52429">
        <ele>1838.9</ele>
        <time>2022-01-19T09:45:52Z</time>
      </trkpt>
      <trkpt lat="44.88238" lon="5.52429">
        <ele>1839.1</ele>
        <time>2022-01-19T09:45:53Z</time>
      </trkpt>
      <trkpt lat="44.88239" lon="5.52429">
        <ele>1839.3</ele>
        <time>2022-01-19T09:45:54Z</time>
      </trkpt>
      <trkpt lat="44.88239" lon="5.52429">
        <ele>1839.6</ele>
        <time>2022-01-19T09:45:55Z</time>
      </trkpt>
      <trkpt lat="44.88239" lon="5.52429">
        <ele>1839.9</ele>
        <time>2022-01-19T09:45:56Z</time>
      </trkpt>
      <trkpt lat="44.88239" lon="5.52429">
        <ele>1840.1</ele>
        <time>2022-01-19T09:45:57Z</time>
      </trkpt>
      <trkpt lat="44.88239" lon="5.52429">
        <ele>1840.3</ele>
        <time>2022-01-19T09:45:58Z</time>
      </trkpt>
      <trkpt lat="44.88239" lon="5.52429">
        <ele>1840.5</ele>
        <time>2022-01-19T09:45:59Z</time>
      </trkpt>
      <trkpt lat="44.88239" lon="5.52429">
        <ele>1840.8</ele>
        <time>2022-01-19T09:46:00Z</time>
      </trkpt>
      <trkpt lat="44.88239" lon="5.52429">
        <ele>1841</ele>
        <time>2022-01-19T09:46:01Z</time>
      </trkpt>
      <trkpt lat="44.88239" lon="5.52429">
        <ele>1841.2</ele>
        <time>2022-01-19T09:46:02Z</time>
      </trkpt>
      <trkpt lat="44.88239" lon="5.52429">
        <ele>1841.5</ele>
        <time>2022-01-19T09:46:03Z</time>
      </trkpt>
      <trkpt lat="44.88239" lon="5.52429">
        <ele>1841.7</ele>
        <time>2022-01-19T09:46:04Z</time>
      </trkpt>
      <trkpt lat="44.88239" lon="5.52429">
        <ele>1841.9</ele>
        <time>2022-01-19T09:46:05Z</time>
      </trkpt>
      <trkpt lat="44.88239" lon="5.52429">
        <ele>1842.1</ele>
        <time>2022-01-19T09:46:06Z</time>
      </trkpt>
      <trkpt lat="44.88239" lon="5.52429">
        <ele>1842.4</ele>
        <time>2022-01-19T09:46:07Z</time>
      </trkpt>
      <trkpt lat="44.88239" lon="5.52429">
        <ele>1842.6</ele>
        <time>2022-01-19T09:46:08Z</time>
      </trkpt>
      <trkpt lat="44.88239" lon="5.52429">
        <ele>1842.8</ele>
        <time>2022-01-19T09:46:09Z</time>
      </trkpt>
      <trkpt lat="44.88239" lon="5.52429">
        <ele>1843</ele>
        <time>2022-01-19T09:46:10Z</time>
      </trkpt>
      <trkpt lat="44.88239" lon="5.52429">
        <ele>1843.3</ele>
        <time>2022-01-19T09:46:11Z</time>
      </trkpt>
      <trkpt lat="44.88239" lon="5.52429">
        <ele>1843.5</ele>
        <time>2022-01-19T09:46:12Z</time>
      </trkpt>
      <trkpt lat="44.88239" lon="5.52429">
        <ele>1843.7</ele>
        <time>2022-01-19T09:46:13Z</time>
      </trkpt>
      <trkpt lat="44.88239" lon="5.52429">
        <ele>1843.9</ele>
        <time>2022-01-19T09:46:14Z</time>
      </trkpt>
      <trkpt lat="44.88239" lon="5.52429">
        <ele>1844.2</ele>
        <time>2022-01-19T09:46:15Z</time>
      </trkpt>
      <trkpt lat="44.88239" lon="5.52429">
        <ele>1844.4</ele>
        <time>2022-01-19T09:46:16Z</time>
      </trkpt>
      <trkpt lat="44.88242" lon="5.52426">
        <ele>1846.9</ele>
        <time>2022-01-19T09:46:17Z</time>
      </trkpt>
      <trkpt lat="44.88242" lon="5.52425">
        <ele>1847.1</ele>
        <time>2022-01-19T09:46:18Z</time>
      </trkpt>
      <trkpt lat="44.88242" lon="5.52426">
        <ele>1847.3</ele>
        <time>2022-01-19T09:46:19Z</time>
      </trkpt>
      <trkpt lat="44.88242" lon="5.52425">
        <ele>1847.5</ele>
        <time>2022-01-19T09:46:20Z</time>
      </trkpt>
      <trkpt lat="44.88241" lon="5.52425">
        <ele>1847.8</ele>
        <time>2022-01-19T09:46:21Z</time>
      </trkpt>
      <trkpt lat="44.88241" lon="5.52425">
        <ele>1848</ele>
        <time>2022-01-19T09:46:22Z</time>
      </trkpt>
      <trkpt lat="44.88241" lon="5.52425">
        <ele>1848.2</ele>
        <time>2022-01-19T09:46:23Z</time>
      </trkpt>
      <trkpt lat="44.88241" lon="5.52425">
        <ele>1848.4</ele>
        <time>2022-01-19T09:46:24Z</time>
      </trkpt>
      <trkpt lat="44.88241" lon="5.52425">
        <ele>1848.7</ele>
        <time>2022-01-19T09:46:25Z</time>
      </trkpt>
      <trkpt lat="44.88241" lon="5.52425">
        <ele>1848.9</ele>
        <time>2022-01-19T09:46:26Z</time>
      </trkpt>
      <trkpt lat="44.88241" lon="5.52425">
        <ele>1849.1</ele>
        <time>2022-01-19T09:46:27Z</time>
      </trkpt>
      <trkpt lat="44.88241" lon="5.52425">
        <ele>1849.4</ele>
        <time>2022-01-19T09:46:28Z</time>
      </trkpt>
      <trkpt lat="44.88241" lon="5.52425">
        <ele>1849.6</ele>
        <time>2022-01-19T09:46:29Z</time>
      </trkpt>
      <trkpt lat="44.88241" lon="5.52425">
        <ele>1849.8</ele>
        <time>2022-01-19T09:46:30Z</time>
      </trkpt>
      <trkpt lat="44.88241" lon="5.52425">
        <ele>1850</ele>
        <time>2022-01-19T09:46:31Z</time>
      </trkpt>
      <trkpt lat="44.88241" lon="5.52425">
        <ele>1850.3</ele>
        <time>2022-01-19T09:46:32Z</time>
      </trkpt>
      <trkpt lat="44.88241" lon="5.52425">
        <ele>1850.5</ele>
        <time>2022-01-19T09:46:33Z</time>
      </trkpt>
      <trkpt lat="44.88241" lon="5.52425">
        <ele>1850.7</ele>
        <time>2022-01-19T09:46:34Z</time>
      </trkpt>
      <trkpt lat="44.88241" lon="5.52425">
        <ele>1850.9</ele>
        <time>2022-01-19T09:46:35Z</time>
      </trkpt>
      <trkpt lat="44.88241" lon="5.52425">
        <ele>1851.2</ele>
        <time>2022-01-19T09:46:36Z</time>
      </trkpt>
      <trkpt lat="44.88241" lon="5.52425">
        <ele>1851.4</ele>
        <time>2022-01-19T09:46:37Z</time>
      </trkpt>
      <trkpt lat="44.88241" lon="5.52425">
        <ele>1851.6</ele>
        <time>2022-01-19T09:46:38Z</time>
      </trkpt>
      <trkpt lat="44.88241" lon="5.52425">
        <ele>1851.8</ele>
        <time>2022-01-19T09:46:39Z</time>
      </trkpt>
      <trkpt lat="44.88241" lon="5.52425">
        <ele>1852.1</ele>
        <time>2022-01-19T09:46:40Z</time>
      </trkpt>
      <trkpt lat="44.88241" lon="5.52425">
        <ele>1852.3</ele>
        <time>2022-01-19T09:46:41Z</time>
      </trkpt>
      <trkpt lat="44.88241" lon="5.52425">
        <ele>1852.5</ele>
        <time>2022-01-19T09:46:42Z</time>
      </trkpt>
      <trkpt lat="44.88241" lon="5.52425">
        <ele>1852.8</ele>
        <time>2022-01-19T09:46:43Z</time>
      </trkpt>
      <trkpt lat="44.88241" lon="5.52425">
        <ele>1853</ele>
        <time>2022-01-19T09:46:44Z</time>
      </trkpt>
      <trkpt lat="44.88241" lon="5.52425">
        <ele>1853.2</ele>
        <time>2022-01-19T09:46:45Z</time>
      </trkpt>
      <trkpt lat="44.88241" lon="5.52425">
        <ele>1853.4</ele>
        <time>2022-01-19T09:46:46Z</time>
      </trkpt>
      <trkpt lat="44.88241" lon="5.52425">
        <ele>1853.7</ele>
        <time>2022-01-19T09:46:47Z</time>
      </trkpt>
      <trkpt lat="44.88241" lon="5.52425">
        <ele>1853.9</ele>
        <time>2022-01-19T09:46:48Z</time>
      </trkpt>
      <trkpt lat="44.88241" lon="5.52425">
        <ele>1854.1</ele>
        <time>2022-01-19T09:46:49Z</time>
      </trkpt>
      <trkpt lat="44.88241" lon="5.52425">
        <ele>1854.3</ele>
        <time>2022-01-19T09:46:50Z</time>
      </trkpt>
      <trkpt lat="44.88241" lon="5.52425">
        <ele>1854.6</ele>
        <time>2022-01-19T09:46:51Z</time>
      </trkpt>
      <trkpt lat="44.88241" lon="5.52425">
        <ele>1854.8</ele>
        <time>2022-01-19T09:46:52Z</time>
      </trkpt>
      <trkpt lat="44.88241" lon="5.52425">
        <ele>1855</ele>
        <time>2022-01-19T09:46:53Z</time>
      </trkpt>
      <trkpt lat="44.88241" lon="5.52425">
        <ele>1855.3</ele>
        <time>2022-01-19T09:46:54Z</time>
      </trkpt>
      <trkpt lat="44.88241" lon="5.52425">
        <ele>1855.5</ele>
        <time>2022-01-19T09:46:55Z</time>
      </trkpt>
      <trkpt lat="44.88241" lon="5.52425">
        <ele>1855.7</ele>
        <time>2022-01-19T09:46:56Z</time>
      </trkpt>
      <trkpt lat="44.88241" lon="5.52425">
        <ele>1855.9</ele>
        <time>2022-01-19T09:46:57Z</time>
      </trkpt>
      <trkpt lat="44.88241" lon="5.52425">
        <ele>1856.2</ele>
        <time>2022-01-19T09:46:58Z</time>
      </trkpt>
      <trkpt lat="44.88241" lon="5.52425">
        <ele>1856.4</ele>
        <time>2022-01-19T09:46:59Z</time>
      </trkpt>
      <trkpt lat="44.88241" lon="5.52425">
        <ele>1856.6</ele>
        <time>2022-01-19T09:47:00Z</time>
      </trkpt>
      <trkpt lat="44.88241" lon="5.52425">
        <ele>1856.8</ele>
        <time>2022-01-19T09:47:01Z</time>
      </trkpt>
      <trkpt lat="44.88241" lon="5.52425">
        <ele>1857.1</ele>
        <time>2022-01-19T09:47:02Z</time>
      </trkpt>
      <trkpt lat="44.88241" lon="5.52425">
        <ele>1857.3</ele>
        <time>2022-01-19T09:47:03Z</time>
      </trkpt>
      <trkpt lat="44.88241" lon="5.52425">
        <ele>1857.5</ele>
        <time>2022-01-19T09:47:04Z</time>
      </trkpt>
      <trkpt lat="44.88241" lon="5.52425">
        <ele>1857.7</ele>
        <time>2022-01-19T09:47:05Z</time>
      </trkpt>
      <trkpt lat="44.88241" lon="5.52425">
        <ele>1858</ele>
        <time>2022-01-19T09:47:06Z</time>
      </trkpt>
      <trkpt lat="44.88241" lon="5.52425">
        <ele>1858.2</ele>
        <time>2022-01-19T09:47:07Z</time>
      </trkpt>
      <trkpt lat="44.88241" lon="5.52425">
        <ele>1858.4</ele>
        <time>2022-01-19T09:47:08Z</time>
      </trkpt>
      <trkpt lat="44.88241" lon="5.52425">
        <ele>1858.7</ele>
        <time>2022-01-19T09:47:09Z</time>
      </trkpt>
      <trkpt lat="44.88241" lon="5.52425">
        <ele>1858.9</ele>
        <time>2022-01-19T09:47:10Z</time>
      </trkpt>
      <trkpt lat="44.88241" lon="5.52425">
        <ele>1859.1</ele>
        <time>2022-01-19T09:47:11Z</time>
      </trkpt>
      <trkpt lat="44.88241" lon="5.52425">
        <ele>1859.3</ele>
        <time>2022-01-19T09:47:12Z</time>
      </trkpt>
      <trkpt lat="44.88241" lon="5.52425">
        <ele>1859.6</ele>
        <time>2022-01-19T09:47:13Z</time>
      </trkpt>
      <trkpt lat="44.88241" lon="5.52425">
        <ele>1859.8</ele>
        <time>2022-01-19T09:47:14Z</time>
      </trkpt>
      <trkpt lat="44.88241" lon="5.52425">
        <ele>1860</ele>
        <time>2022-01-19T09:47:15Z</time>
      </trkpt>
      <trkpt lat="44.88241" lon="5.52425">
        <ele>1860.2</ele>
        <time>2022-01-19T09:47:16Z</time>
      </trkpt>
      <trkpt lat="44.88241" lon="5.52425">
        <ele>1860.5</ele>
        <time>2022-01-19T09:47:17Z</time>
      </trkpt>
      <trkpt lat="44.88241" lon="5.52425">
        <ele>1860.7</ele>
        <time>2022-01-19T09:47:18Z</time>
      </trkpt>
      <trkpt lat="44.88241" lon="5.52425">
        <ele>1860.7</ele>
        <time>2022-01-19T09:47:19Z</time>
      </trkpt>
      <trkpt lat="44.88241" lon="5.52425">
        <ele>1860.7</ele>
        <time>2022-01-19T09:47:20Z</time>
      </trkpt>
      <trkpt lat="44.88241" lon="5.52425">
        <ele>1860.7</ele>
        <time>2022-01-19T09:47:21Z</time>
      </trkpt>
      <trkpt lat="44.88241" lon="5.52425">
        <ele>1860.7</ele>
        <time>2022-01-19T09:47:22Z</time>
      </trkpt>
      <trkpt lat="44.88241" lon="5.52425">
        <ele>1860.7</ele>
        <time>2022-01-19T09:47:23Z</time>
      </trkpt>
      <trkpt lat="44.88241" lon="5.52425">
        <ele>1860.7</ele>
        <time>2022-01-19T09:47:24Z</time>
      </trkpt>
      <trkpt lat="44.88241" lon="5.52425">
        <ele>1860.7</ele>
        <time>2022-01-19T09:47:25Z</time>
      </trkpt>
      <trkpt lat="44.88239" lon="5.5242">
        <ele>1862.7</ele>
        <time>2022-01-19T09:47:26Z</time>
      </trkpt>
      <trkpt lat="44.88238" lon="5.52419">
        <ele>1864.9</ele>
        <time>2022-01-19T09:47:27Z</time>
      </trkpt>
      <trkpt lat="44.88237" lon="5.52419">
        <ele>1864.9</ele>
        <time>2022-01-19T09:47:28Z</time>
      </trkpt>
      <trkpt lat="44.88237" lon="5.52418">
        <ele>1864.9</ele>
        <time>2022-01-19T09:47:29Z</time>
      </trkpt>
      <trkpt lat="44.88236" lon="5.52418">
        <ele>1864.9</ele>
        <time>2022-01-19T09:47:30Z</time>
      </trkpt>
      <trkpt lat="44.88236" lon="5.52417">
        <ele>1864.7</ele>
        <time>2022-01-19T09:47:31Z</time>
      </trkpt>
      <trkpt lat="44.88236" lon="5.52418">
        <ele>1864.7</ele>
        <time>2022-01-19T09:47:32Z</time>
      </trkpt>
      <trkpt lat="44.88235" lon="5.52417">
        <ele>1864.7</ele>
        <time>2022-01-19T09:47:33Z</time>
      </trkpt>
      <trkpt lat="44.88235" lon="5.52416">
        <ele>1864.7</ele>
        <time>2022-01-19T09:47:34Z</time>
      </trkpt>
      <trkpt lat="44.88234" lon="5.52416">
        <ele>1864.7</ele>
        <time>2022-01-19T09:47:35Z</time>
      </trkpt>
      <trkpt lat="44.88234" lon="5.52415">
        <ele>1864.7</ele>
        <time>2022-01-19T09:47:36Z</time>
      </trkpt>
      <trkpt lat="44.88234" lon="5.52414">
        <ele>1866.8</ele>
        <time>2022-01-19T09:47:37Z</time>
      </trkpt>
      <trkpt lat="44.88233" lon="5.52414">
        <ele>1866.8</ele>
        <time>2022-01-19T09:47:38Z</time>
      </trkpt>
      <trkpt lat="44.88233" lon="5.52413">
        <ele>1866.7</ele>
        <time>2022-01-19T09:47:39Z</time>
      </trkpt>
      <trkpt lat="44.88232" lon="5.52413">
        <ele>1866.7</ele>
        <time>2022-01-19T09:47:40Z</time>
      </trkpt>
      <trkpt lat="44.88232" lon="5.52412">
        <ele>1866.7</ele>
        <time>2022-01-19T09:47:41Z</time>
      </trkpt>
      <trkpt lat="44.88232" lon="5.52411">
        <ele>1866.7</ele>
        <time>2022-01-19T09:47:42Z</time>
      </trkpt>
      <trkpt lat="44.88232" lon="5.5241">
        <ele>1868.7</ele>
        <time>2022-01-19T09:47:43Z</time>
      </trkpt>
      <trkpt lat="44.88231" lon="5.5241">
        <ele>1868.7</ele>
        <time>2022-01-19T09:47:44Z</time>
      </trkpt>
      <trkpt lat="44.88231" lon="5.5241">
        <ele>1868.7</ele>
        <time>2022-01-19T09:47:45Z</time>
      </trkpt>
      <trkpt lat="44.8823" lon="5.52409">
        <ele>1868.7</ele>
        <time>2022-01-19T09:47:46Z</time>
      </trkpt>
      <trkpt lat="44.8823" lon="5.52409">
        <ele>1868.5</ele>
        <time>2022-01-19T09:47:47Z</time>
      </trkpt>
      <trkpt lat="44.88229" lon="5.52408">
        <ele>1868.5</ele>
        <time>2022-01-19T09:47:48Z</time>
      </trkpt>
      <trkpt lat="44.88229" lon="5.52408">
        <ele>1868.5</ele>
        <time>2022-01-19T09:47:49Z</time>
      </trkpt>
      <trkpt lat="44.88228" lon="5.52409">
        <ele>1868.5</ele>
        <time>2022-01-19T09:47:50Z</time>
      </trkpt>
      <trkpt lat="44.88227" lon="5.52408">
        <ele>1868.5</ele>
        <time>2022-01-19T09:47:51Z</time>
      </trkpt>
      <trkpt lat="44.88226" lon="5.52408">
        <ele>1868.5</ele>
        <time>2022-01-19T09:47:52Z</time>
      </trkpt>
      <trkpt lat="44.88226" lon="5.52408">
        <ele>1868.5</ele>
        <time>2022-01-19T09:47:53Z</time>
      </trkpt>
      <trkpt lat="44.88226" lon="5.52408">
        <ele>1868.5</ele>
        <time>2022-01-19T09:47:54Z</time>
      </trkpt>
      <trkpt lat="44.88225" lon="5.52407">
        <ele>1868.5</ele>
        <time>2022-01-19T09:47:55Z</time>
      </trkpt>
      <trkpt lat="44.88225" lon="5.52407">
        <ele>1868.5</ele>
        <time>2022-01-19T09:47:56Z</time>
      </trkpt>
      <trkpt lat="44.88225" lon="5.52406">
        <ele>1870.4</ele>
        <time>2022-01-19T09:47:57Z</time>
      </trkpt>
      <trkpt lat="44.88225" lon="5.52406">
        <ele>1870.4</ele>
        <time>2022-01-19T09:47:58Z</time>
      </trkpt>
      <trkpt lat="44.88225" lon="5.52406">
        <ele>1870.4</ele>
        <time>2022-01-19T09:47:59Z</time>
      </trkpt>
      <trkpt lat="44.88225" lon="5.52406">
        <ele>1870.4</ele>
        <time>2022-01-19T09:48:00Z</time>
      </trkpt>
      <trkpt lat="44.88224" lon="5.52404">
        <ele>1870.4</ele>
        <time>2022-01-19T09:48:01Z</time>
      </trkpt>
      <trkpt lat="44.88223" lon="5.52404">
        <ele>1870.4</ele>
        <time>2022-01-19T09:48:02Z</time>
      </trkpt>
      <trkpt lat="44.88222" lon="5.52404">
        <ele>1870.4</ele>
        <time>2022-01-19T09:48:03Z</time>
      </trkpt>
      <trkpt lat="44.8822" lon="5.52405">
        <ele>1870.4</ele>
        <time>2022-01-19T09:48:04Z</time>
      </trkpt>
      <trkpt lat="44.8822" lon="5.52405">
        <ele>1870.4</ele>
        <time>2022-01-19T09:48:05Z</time>
      </trkpt>
      <trkpt lat="44.88219" lon="5.52404">
        <ele>1870.4</ele>
        <time>2022-01-19T09:48:06Z</time>
      </trkpt>
      <trkpt lat="44.88219" lon="5.52404">
        <ele>1870.4</ele>
        <time>2022-01-19T09:48:07Z</time>
      </trkpt>
      <trkpt lat="44.88219" lon="5.52403">
        <ele>1870.4</ele>
        <time>2022-01-19T09:48:08Z</time>
      </trkpt>
      <trkpt lat="44.88219" lon="5.52403">
        <ele>1870.4</ele>
        <time>2022-01-19T09:48:09Z</time>
      </trkpt>
      <trkpt lat="44.88219" lon="5.52403">
        <ele>1870.4</ele>
        <time>2022-01-19T09:48:10Z</time>
      </trkpt>
      <trkpt lat="44.88219" lon="5.52403">
        <ele>1870.4</ele>
        <time>2022-01-19T09:48:11Z</time>
      </trkpt>
      <trkpt lat="44.88219" lon="5.52403">
        <ele>1870.4</ele>
        <time>2022-01-19T09:48:12Z</time>
      </trkpt>
      <trkpt lat="44.88216" lon="5.52401">
        <ele>1872.4</ele>
        <time>2022-01-19T09:48:13Z</time>
      </trkpt>
      <trkpt lat="44.88216" lon="5.524">
        <ele>1872.4</ele>
        <time>2022-01-19T09:48:14Z</time>
      </trkpt>
      <trkpt lat="44.88215" lon="5.524">
        <ele>1872.4</ele>
        <time>2022-01-19T09:48:15Z</time>
      </trkpt>
      <trkpt lat="44.88215" lon="5.52399">
        <ele>1872.4</ele>
        <time>2022-01-19T09:48:16Z</time>
      </trkpt>
      <trkpt lat="44.88215" lon="5.52399">
        <ele>1872.4</ele>
        <time>2022-01-19T09:48:17Z</time>
      </trkpt>
      <trkpt lat="44.88215" lon="5.52398">
        <ele>1872.4</ele>
        <time>2022-01-19T09:48:18Z</time>
      </trkpt>
      <trkpt lat="44.88213" lon="5.52398">
        <ele>1872.4</ele>
        <time>2022-01-19T09:48:19Z</time>
      </trkpt>
      <trkpt lat="44.88213" lon="5.52397">
        <ele>1874.4</ele>
        <time>2022-01-19T09:48:20Z</time>
      </trkpt>
      <trkpt lat="44.88212" lon="5.52396">
        <ele>1874.4</ele>
        <time>2022-01-19T09:48:21Z</time>
      </trkpt>
      <trkpt lat="44.88212" lon="5.52396">
        <ele>1874.4</ele>
        <time>2022-01-19T09:48:22Z</time>
      </trkpt>
      <trkpt lat="44.88212" lon="5.52395">
        <ele>1874.5</ele>
        <time>2022-01-19T09:48:23Z</time>
      </trkpt>
      <trkpt lat="44.88211" lon="5.52395">
        <ele>1874.5</ele>
        <time>2022-01-19T09:48:24Z</time>
      </trkpt>
      <trkpt lat="44.88211" lon="5.52394">
        <ele>1874.5</ele>
        <time>2022-01-19T09:48:25Z</time>
      </trkpt>
      <trkpt lat="44.8821" lon="5.52393">
        <ele>1876.6</ele>
        <time>2022-01-19T09:48:26Z</time>
      </trkpt>
      <trkpt lat="44.88209" lon="5.52393">
        <ele>1876.7</ele>
        <time>2022-01-19T09:48:27Z</time>
      </trkpt>
      <trkpt lat="44.88208" lon="5.52393">
        <ele>1876.7</ele>
        <time>2022-01-19T09:48:28Z</time>
      </trkpt>
      <trkpt lat="44.88207" lon="5.52393">
        <ele>1876.7</ele>
        <time>2022-01-19T09:48:29Z</time>
      </trkpt>
      <trkpt lat="44.88206" lon="5.52393">
        <ele>1876.7</ele>
        <time>2022-01-19T09:48:30Z</time>
      </trkpt>
      <trkpt lat="44.88205" lon="5.52393">
        <ele>1876.8</ele>
        <time>2022-01-19T09:48:31Z</time>
      </trkpt>
      <trkpt lat="44.88205" lon="5.52393">
        <ele>1876.8</ele>
        <time>2022-01-19T09:48:32Z</time>
      </trkpt>
      <trkpt lat="44.88205" lon="5.52393">
        <ele>1876.8</ele>
        <time>2022-01-19T09:48:33Z</time>
      </trkpt>
      <trkpt lat="44.88205" lon="5.52393">
        <ele>1876.8</ele>
        <time>2022-01-19T09:48:34Z</time>
      </trkpt>
      <trkpt lat="44.88205" lon="5.52393">
        <ele>1876.8</ele>
        <time>2022-01-19T09:48:35Z</time>
      </trkpt>
      <trkpt lat="44.88205" lon="5.52393">
        <ele>1876.8</ele>
        <time>2022-01-19T09:48:36Z</time>
      </trkpt>
      <trkpt lat="44.88205" lon="5.52393">
        <ele>1876.8</ele>
        <time>2022-01-19T09:48:37Z</time>
      </trkpt>
      <trkpt lat="44.88203" lon="5.52389">
        <ele>1878.9</ele>
        <time>2022-01-19T09:48:38Z</time>
      </trkpt>
      <trkpt lat="44.88202" lon="5.52389">
        <ele>1879.1</ele>
        <time>2022-01-19T09:48:39Z</time>
      </trkpt>
      <trkpt lat="44.88202" lon="5.52388">
        <ele>1879.1</ele>
        <time>2022-01-19T09:48:40Z</time>
      </trkpt>
      <trkpt lat="44.88201" lon="5.52388">
        <ele>1879.1</ele>
        <time>2022-01-19T09:48:41Z</time>
      </trkpt>
      <trkpt lat="44.88201" lon="5.52387">
        <ele>1879.1</ele>
        <time>2022-01-19T09:48:42Z</time>
      </trkpt>
      <trkpt lat="44.882" lon="5.52385">
        <ele>1879.1</ele>
        <time>2022-01-19T09:48:43Z</time>
      </trkpt>
      <trkpt lat="44.882" lon="5.52385">
        <ele>1879.1</ele>
        <time>2022-01-19T09:48:44Z</time>
      </trkpt>
      <trkpt lat="44.882" lon="5.52385">
        <ele>1879.1</ele>
        <time>2022-01-19T09:48:45Z</time>
      </trkpt>
      <trkpt lat="44.88199" lon="5.52385">
        <ele>1879.3</ele>
        <time>2022-01-19T09:48:46Z</time>
      </trkpt>
      <trkpt lat="44.88199" lon="5.52385">
        <ele>1879.3</ele>
        <time>2022-01-19T09:48:47Z</time>
      </trkpt>
      <trkpt lat="44.88199" lon="5.52385">
        <ele>1881.3</ele>
        <time>2022-01-19T09:48:48Z</time>
      </trkpt>
      <trkpt lat="44.88199" lon="5.52385">
        <ele>1881.3</ele>
        <time>2022-01-19T09:48:49Z</time>
      </trkpt>
      <trkpt lat="44.88199" lon="5.52385">
        <ele>1881.3</ele>
        <time>2022-01-19T09:48:50Z</time>
      </trkpt>
      <trkpt lat="44.88197" lon="5.52385">
        <ele>1879.3</ele>
        <time>2022-01-19T09:48:51Z</time>
      </trkpt>
      <trkpt lat="44.88196" lon="5.52385">
        <ele>1879.7</ele>
        <time>2022-01-19T09:48:52Z</time>
      </trkpt>
      <trkpt lat="44.88195" lon="5.52386">
        <ele>1879.7</ele>
        <time>2022-01-19T09:48:53Z</time>
      </trkpt>
      <trkpt lat="44.88194" lon="5.52386">
        <ele>1879.7</ele>
        <time>2022-01-19T09:48:54Z</time>
      </trkpt>
      <trkpt lat="44.88193" lon="5.52387">
        <ele>1880.1</ele>
        <time>2022-01-19T09:48:55Z</time>
      </trkpt>
      <trkpt lat="44.88192" lon="5.52387">
        <ele>1880.1</ele>
        <time>2022-01-19T09:48:56Z</time>
      </trkpt>
      <trkpt lat="44.88192" lon="5.52388">
        <ele>1880.1</ele>
        <time>2022-01-19T09:48:57Z</time>
      </trkpt>
      <trkpt lat="44.88191" lon="5.52388">
        <ele>1880.1</ele>
        <time>2022-01-19T09:48:58Z</time>
      </trkpt>
      <trkpt lat="44.88191" lon="5.52389">
        <ele>1880.1</ele>
        <time>2022-01-19T09:48:59Z</time>
      </trkpt>
      <trkpt lat="44.8819" lon="5.52389">
        <ele>1880.6</ele>
        <time>2022-01-19T09:49:00Z</time>
      </trkpt>
      <trkpt lat="44.8819" lon="5.52389">
        <ele>1880.6</ele>
        <time>2022-01-19T09:49:01Z</time>
      </trkpt>
      <trkpt lat="44.8819" lon="5.52389">
        <ele>1880.6</ele>
        <time>2022-01-19T09:49:02Z</time>
      </trkpt>
      <trkpt lat="44.88188" lon="5.52389">
        <ele>1878.6</ele>
        <time>2022-01-19T09:49:03Z</time>
      </trkpt>
      <trkpt lat="44.88187" lon="5.5239">
        <ele>1879.2</ele>
        <time>2022-01-19T09:49:04Z</time>
      </trkpt>
      <trkpt lat="44.88186" lon="5.5239">
        <ele>1879.2</ele>
        <time>2022-01-19T09:49:05Z</time>
      </trkpt>
      <trkpt lat="44.88186" lon="5.52391">
        <ele>1879.2</ele>
        <time>2022-01-19T09:49:06Z</time>
      </trkpt>
      <trkpt lat="44.88185" lon="5.52392">
        <ele>1879.2</ele>
        <time>2022-01-19T09:49:07Z</time>
      </trkpt>
      <trkpt lat="44.88184" lon="5.52393">
        <ele>1879.7</ele>
        <time>2022-01-19T09:49:08Z</time>
      </trkpt>
      <trkpt lat="44.88183" lon="5.52393">
        <ele>1879.7</ele>
        <time>2022-01-19T09:49:09Z</time>
      </trkpt>
      <trkpt lat="44.88183" lon="5.52394">
        <ele>1877.8</ele>
        <time>2022-01-19T09:49:10Z</time>
      </trkpt>
      <trkpt lat="44.88182" lon="5.52395">
        <ele>1877.8</ele>
        <time>2022-01-19T09:49:11Z</time>
      </trkpt>
      <trkpt lat="44.88181" lon="5.52395">
        <ele>1877.8</ele>
        <time>2022-01-19T09:49:12Z</time>
      </trkpt>
      <trkpt lat="44.88181" lon="5.52395">
        <ele>1878.4</ele>
        <time>2022-01-19T09:49:13Z</time>
      </trkpt>
      <trkpt lat="44.8818" lon="5.52396">
        <ele>1878.4</ele>
        <time>2022-01-19T09:49:14Z</time>
      </trkpt>
      <trkpt lat="44.8818" lon="5.52396">
        <ele>1878.4</ele>
        <time>2022-01-19T09:49:15Z</time>
      </trkpt>
      <trkpt lat="44.88179" lon="5.52396">
        <ele>1878.4</ele>
        <time>2022-01-19T09:49:16Z</time>
      </trkpt>
      <trkpt lat="44.88179" lon="5.52397">
        <ele>1878.4</ele>
        <time>2022-01-19T09:49:17Z</time>
      </trkpt>
      <trkpt lat="44.88178" lon="5.52397">
        <ele>1878.4</ele>
        <time>2022-01-19T09:49:18Z</time>
      </trkpt>
      <trkpt lat="44.88178" lon="5.52397">
        <ele>1878.4</ele>
        <time>2022-01-19T09:49:19Z</time>
      </trkpt>
      <trkpt lat="44.88177" lon="5.52397">
        <ele>1879.1</ele>
        <time>2022-01-19T09:49:20Z</time>
      </trkpt>
      <trkpt lat="44.88176" lon="5.52397">
        <ele>1879.1</ele>
        <time>2022-01-19T09:49:21Z</time>
      </trkpt>
      <trkpt lat="44.88176" lon="5.52397">
        <ele>1879.1</ele>
        <time>2022-01-19T09:49:22Z</time>
      </trkpt>
      <trkpt lat="44.88175" lon="5.52397">
        <ele>1879.8</ele>
        <time>2022-01-19T09:49:23Z</time>
      </trkpt>
      <trkpt lat="44.88174" lon="5.52398">
        <ele>1879.8</ele>
        <time>2022-01-19T09:49:24Z</time>
      </trkpt>
      <trkpt lat="44.88173" lon="5.52397">
        <ele>1879.8</ele>
        <time>2022-01-19T09:49:25Z</time>
      </trkpt>
      <trkpt lat="44.88173" lon="5.52397">
        <ele>1879.8</ele>
        <time>2022-01-19T09:49:26Z</time>
      </trkpt>
      <trkpt lat="44.88172" lon="5.52398">
        <ele>1879.8</ele>
        <time>2022-01-19T09:49:27Z</time>
      </trkpt>
      <trkpt lat="44.88172" lon="5.52398">
        <ele>1880.6</ele>
        <time>2022-01-19T09:49:28Z</time>
      </trkpt>
      <trkpt lat="44.88171" lon="5.52398">
        <ele>1878.8</ele>
        <time>2022-01-19T09:49:29Z</time>
      </trkpt>
      <trkpt lat="44.88171" lon="5.52398">
        <ele>1878.8</ele>
        <time>2022-01-19T09:49:30Z</time>
      </trkpt>
      <trkpt lat="44.88171" lon="5.52398">
        <ele>1878.8</ele>
        <time>2022-01-19T09:49:31Z</time>
      </trkpt>
      <trkpt lat="44.88171" lon="5.52398">
        <ele>1878.8</ele>
        <time>2022-01-19T09:49:32Z</time>
      </trkpt>
      <trkpt lat="44.88171" lon="5.52398">
        <ele>1878.8</ele>
        <time>2022-01-19T09:49:33Z</time>
      </trkpt>
      <trkpt lat="44.88171" lon="5.52398">
        <ele>1878.8</ele>
        <time>2022-01-19T09:49:34Z</time>
      </trkpt>
      <trkpt lat="44.88171" lon="5.52398">
        <ele>1878.8</ele>
        <time>2022-01-19T09:49:35Z</time>
      </trkpt>
      <trkpt lat="44.88171" lon="5.52398">
        <ele>1878.8</ele>
        <time>2022-01-19T09:49:36Z</time>
      </trkpt>
      <trkpt lat="44.88171" lon="5.52398">
        <ele>1878.8</ele>
        <time>2022-01-19T09:49:37Z</time>
      </trkpt>
      <trkpt lat="44.88171" lon="5.52398">
        <ele>1878.8</ele>
        <time>2022-01-19T09:49:38Z</time>
      </trkpt>
      <trkpt lat="44.88171" lon="5.52398">
        <ele>1878.8</ele>
        <time>2022-01-19T09:49:39Z</time>
      </trkpt>
      <trkpt lat="44.88171" lon="5.52398">
        <ele>1878.8</ele>
        <time>2022-01-19T09:49:40Z</time>
      </trkpt>
      <trkpt lat="44.88171" lon="5.52397">
        <ele>1880.6</ele>
        <time>2022-01-19T09:49:41Z</time>
      </trkpt>
      <trkpt lat="44.88172" lon="5.52397">
        <ele>1880.6</ele>
        <time>2022-01-19T09:49:42Z</time>
      </trkpt>
      <trkpt lat="44.88172" lon="5.52396">
        <ele>1880.6</ele>
        <time>2022-01-19T09:49:43Z</time>
      </trkpt>
      <trkpt lat="44.88172" lon="5.52396">
        <ele>1880.6</ele>
        <time>2022-01-19T09:49:44Z</time>
      </trkpt>
      <trkpt lat="44.88172" lon="5.52396">
        <ele>1880.6</ele>
        <time>2022-01-19T09:49:45Z</time>
      </trkpt>
      <trkpt lat="44.88173" lon="5.52395">
        <ele>1879.8</ele>
        <time>2022-01-19T09:49:46Z</time>
      </trkpt>
      <trkpt lat="44.88173" lon="5.52394">
        <ele>1879.8</ele>
        <time>2022-01-19T09:49:47Z</time>
      </trkpt>
      <trkpt lat="44.88173" lon="5.52394">
        <ele>1879.8</ele>
        <time>2022-01-19T09:49:48Z</time>
      </trkpt>
      <trkpt lat="44.88174" lon="5.52394">
        <ele>1879.8</ele>
        <time>2022-01-19T09:49:49Z</time>
      </trkpt>
      <trkpt lat="44.88174" lon="5.52393">
        <ele>1881.6</ele>
        <time>2022-01-19T09:49:50Z</time>
      </trkpt>
      <trkpt lat="44.88175" lon="5.52392">
        <ele>1881.6</ele>
        <time>2022-01-19T09:49:51Z</time>
      </trkpt>
      <trkpt lat="44.88175" lon="5.52391">
        <ele>1881.6</ele>
        <time>2022-01-19T09:49:52Z</time>
      </trkpt>
      <trkpt lat="44.88176" lon="5.52391">
        <ele>1880.9</ele>
        <time>2022-01-19T09:49:53Z</time>
      </trkpt>
      <trkpt lat="44.88176" lon="5.5239">
        <ele>1880.9</ele>
        <time>2022-01-19T09:49:54Z</time>
      </trkpt>
      <trkpt lat="44.88176" lon="5.52389">
        <ele>1880.9</ele>
        <time>2022-01-19T09:49:55Z</time>
      </trkpt>
      <trkpt lat="44.88177" lon="5.52388">
        <ele>1882.8</ele>
        <time>2022-01-19T09:49:56Z</time>
      </trkpt>
      <trkpt lat="44.88177" lon="5.52388">
        <ele>1882.8</ele>
        <time>2022-01-19T09:49:57Z</time>
      </trkpt>
      <trkpt lat="44.88177" lon="5.52387">
        <ele>1882.8</ele>
        <time>2022-01-19T09:49:58Z</time>
      </trkpt>
      <trkpt lat="44.88177" lon="5.52386">
        <ele>1882.8</ele>
        <time>2022-01-19T09:49:59Z</time>
      </trkpt>
      <trkpt lat="44.88177" lon="5.52385">
        <ele>1884.6</ele>
        <time>2022-01-19T09:50:00Z</time>
      </trkpt>
      <trkpt lat="44.88177" lon="5.52385">
        <ele>1884.6</ele>
        <time>2022-01-19T09:50:01Z</time>
      </trkpt>
      <trkpt lat="44.88177" lon="5.52384">
        <ele>1884.6</ele>
        <time>2022-01-19T09:50:02Z</time>
      </trkpt>
      <trkpt lat="44.88178" lon="5.52382">
        <ele>1884.6</ele>
        <time>2022-01-19T09:50:03Z</time>
      </trkpt>
      <trkpt lat="44.88178" lon="5.52382">
        <ele>1884.6</ele>
        <time>2022-01-19T09:50:04Z</time>
      </trkpt>
      <trkpt lat="44.88178" lon="5.52381">
        <ele>1884.6</ele>
        <time>2022-01-19T09:50:05Z</time>
      </trkpt>
      <trkpt lat="44.88178" lon="5.5238">
        <ele>1886.2</ele>
        <time>2022-01-19T09:50:06Z</time>
      </trkpt>
      <trkpt lat="44.88178" lon="5.52379">
        <ele>1886.2</ele>
        <time>2022-01-19T09:50:07Z</time>
      </trkpt>
      <trkpt lat="44.88178" lon="5.52378">
        <ele>1885.7</ele>
        <time>2022-01-19T09:50:08Z</time>
      </trkpt>
      <trkpt lat="44.88179" lon="5.52377">
        <ele>1885.7</ele>
        <time>2022-01-19T09:50:09Z</time>
      </trkpt>
      <trkpt lat="44.88179" lon="5.52377">
        <ele>1885.7</ele>
        <time>2022-01-19T09:50:10Z</time>
      </trkpt>
      <trkpt lat="44.8818" lon="5.52377">
        <ele>1885.7</ele>
        <time>2022-01-19T09:50:11Z</time>
      </trkpt>
      <trkpt lat="44.8818" lon="5.52376">
        <ele>1887.3</ele>
        <time>2022-01-19T09:50:12Z</time>
      </trkpt>
      <trkpt lat="44.88181" lon="5.52375">
        <ele>1887.3</ele>
        <time>2022-01-19T09:50:13Z</time>
      </trkpt>
      <trkpt lat="44.88181" lon="5.52376">
        <ele>1887.3</ele>
        <time>2022-01-19T09:50:14Z</time>
      </trkpt>
      <trkpt lat="44.88182" lon="5.52375">
        <ele>1886.8</ele>
        <time>2022-01-19T09:50:15Z</time>
      </trkpt>
      <trkpt lat="44.88182" lon="5.52375">
        <ele>1886.8</ele>
        <time>2022-01-19T09:50:16Z</time>
      </trkpt>
      <trkpt lat="44.88182" lon="5.52375">
        <ele>1886.8</ele>
        <time>2022-01-19T09:50:17Z</time>
      </trkpt>
      <trkpt lat="44.88183" lon="5.52374">
        <ele>1886.8</ele>
        <time>2022-01-19T09:50:18Z</time>
      </trkpt>
      <trkpt lat="44.88183" lon="5.52373">
        <ele>1886.8</ele>
        <time>2022-01-19T09:50:19Z</time>
      </trkpt>
      <trkpt lat="44.88183" lon="5.52372">
        <ele>1888.4</ele>
        <time>2022-01-19T09:50:20Z</time>
      </trkpt>
      <trkpt lat="44.88183" lon="5.52371">
        <ele>1888.4</ele>
        <time>2022-01-19T09:50:21Z</time>
      </trkpt>
      <trkpt lat="44.88184" lon="5.5237">
        <ele>1888.4</ele>
        <time>2022-01-19T09:50:22Z</time>
      </trkpt>
      <trkpt lat="44.88184" lon="5.52369">
        <ele>1888.4</ele>
        <time>2022-01-19T09:50:23Z</time>
      </trkpt>
      <trkpt lat="44.88184" lon="5.52369">
        <ele>1888</ele>
        <time>2022-01-19T09:50:24Z</time>
      </trkpt>
      <trkpt lat="44.88185" lon="5.52368">
        <ele>1888</ele>
        <time>2022-01-19T09:50:25Z</time>
      </trkpt>
      <trkpt lat="44.88185" lon="5.52368">
        <ele>1889.6</ele>
        <time>2022-01-19T09:50:26Z</time>
      </trkpt>
      <trkpt lat="44.88186" lon="5.52366">
        <ele>1889.6</ele>
        <time>2022-01-19T09:50:27Z</time>
      </trkpt>
      <trkpt lat="44.88186" lon="5.52366">
        <ele>1889.6</ele>
        <time>2022-01-19T09:50:28Z</time>
      </trkpt>
      <trkpt lat="44.88186" lon="5.52365">
        <ele>1889.6</ele>
        <time>2022-01-19T09:50:29Z</time>
      </trkpt>
      <trkpt lat="44.88187" lon="5.52365">
        <ele>1889.6</ele>
        <time>2022-01-19T09:50:30Z</time>
      </trkpt>
      <trkpt lat="44.88187" lon="5.52365">
        <ele>1889.6</ele>
        <time>2022-01-19T09:50:31Z</time>
      </trkpt>
      <trkpt lat="44.88187" lon="5.52364">
        <ele>1889.2</ele>
        <time>2022-01-19T09:50:32Z</time>
      </trkpt>
      <trkpt lat="44.88187" lon="5.52363">
        <ele>1890.9</ele>
        <time>2022-01-19T09:50:33Z</time>
      </trkpt>
      <trkpt lat="44.88187" lon="5.52363">
        <ele>1890.9</ele>
        <time>2022-01-19T09:50:34Z</time>
      </trkpt>
      <trkpt lat="44.88187" lon="5.52363">
        <ele>1890.9</ele>
        <time>2022-01-19T09:50:35Z</time>
      </trkpt>
      <trkpt lat="44.88187" lon="5.52363">
        <ele>1890.9</ele>
        <time>2022-01-19T09:50:36Z</time>
      </trkpt>
      <trkpt lat="44.88187" lon="5.52363">
        <ele>1890.9</ele>
        <time>2022-01-19T09:50:37Z</time>
      </trkpt>
      <trkpt lat="44.88187" lon="5.52363">
        <ele>1890.9</ele>
        <time>2022-01-19T09:50:38Z</time>
      </trkpt>
      <trkpt lat="44.88187" lon="5.52363">
        <ele>1890.9</ele>
        <time>2022-01-19T09:50:39Z</time>
      </trkpt>
      <trkpt lat="44.88189" lon="5.52361">
        <ele>1890.9</ele>
        <time>2022-01-19T09:50:40Z</time>
      </trkpt>
      <trkpt lat="44.88189" lon="5.52361">
        <ele>1890.9</ele>
        <time>2022-01-19T09:50:41Z</time>
      </trkpt>
      <trkpt lat="44.88189" lon="5.5236">
        <ele>1890.9</ele>
        <time>2022-01-19T09:50:42Z</time>
      </trkpt>
      <trkpt lat="44.8819" lon="5.5236">
        <ele>1890.9</ele>
        <time>2022-01-19T09:50:43Z</time>
      </trkpt>
      <trkpt lat="44.8819" lon="5.5236">
        <ele>1890.9</ele>
        <time>2022-01-19T09:50:44Z</time>
      </trkpt>
      <trkpt lat="44.88191" lon="5.5236">
        <ele>1890.7</ele>
        <time>2022-01-19T09:50:45Z</time>
      </trkpt>
      <trkpt lat="44.88191" lon="5.52359">
        <ele>1890.7</ele>
        <time>2022-01-19T09:50:46Z</time>
      </trkpt>
      <trkpt lat="44.88192" lon="5.5236">
        <ele>1890.7</ele>
        <time>2022-01-19T09:50:47Z</time>
      </trkpt>
      <trkpt lat="44.88192" lon="5.5236">
        <ele>1890.7</ele>
        <time>2022-01-19T09:50:48Z</time>
      </trkpt>
      <trkpt lat="44.88192" lon="5.5236">
        <ele>1890.7</ele>
        <time>2022-01-19T09:50:49Z</time>
      </trkpt>
      <trkpt lat="44.88192" lon="5.5236">
        <ele>1890.7</ele>
        <time>2022-01-19T09:50:50Z</time>
      </trkpt>
      <trkpt lat="44.88192" lon="5.5236">
        <ele>1890.7</ele>
        <time>2022-01-19T09:50:51Z</time>
      </trkpt>
      <trkpt lat="44.88192" lon="5.5236">
        <ele>1890.7</ele>
        <time>2022-01-19T09:50:52Z</time>
      </trkpt>
      <trkpt lat="44.88192" lon="5.5236">
        <ele>1890.7</ele>
        <time>2022-01-19T09:50:53Z</time>
      </trkpt>
      <trkpt lat="44.88192" lon="5.5236">
        <ele>1890.7</ele>
        <time>2022-01-19T09:50:54Z</time>
      </trkpt>
      <trkpt lat="44.88192" lon="5.5236">
        <ele>1890.7</ele>
        <time>2022-01-19T09:50:55Z</time>
      </trkpt>
      <trkpt lat="44.88192" lon="5.5236">
        <ele>1890.7</ele>
        <time>2022-01-19T09:50:56Z</time>
      </trkpt>
      <trkpt lat="44.88192" lon="5.5236">
        <ele>1890.7</ele>
        <time>2022-01-19T09:50:57Z</time>
      </trkpt>
      <trkpt lat="44.88192" lon="5.5236">
        <ele>1890.7</ele>
        <time>2022-01-19T09:50:58Z</time>
      </trkpt>
      <trkpt lat="44.88192" lon="5.5236">
        <ele>1890.7</ele>
        <time>2022-01-19T09:50:59Z</time>
      </trkpt>
      <trkpt lat="44.88192" lon="5.5236">
        <ele>1890.7</ele>
        <time>2022-01-19T09:51:00Z</time>
      </trkpt>
      <trkpt lat="44.88192" lon="5.5236">
        <ele>1890.7</ele>
        <time>2022-01-19T09:51:01Z</time>
      </trkpt>
      <trkpt lat="44.88192" lon="5.5236">
        <ele>1890.7</ele>
        <time>2022-01-19T09:51:02Z</time>
      </trkpt>
      <trkpt lat="44.88192" lon="5.5236">
        <ele>1890.7</ele>
        <time>2022-01-19T09:51:03Z</time>
      </trkpt>
      <trkpt lat="44.88192" lon="5.5236">
        <ele>1890.7</ele>
        <time>2022-01-19T09:51:04Z</time>
      </trkpt>
      <trkpt lat="44.88192" lon="5.5236">
        <ele>1890.7</ele>
        <time>2022-01-19T09:51:05Z</time>
      </trkpt>
      <trkpt lat="44.88192" lon="5.5236">
        <ele>1890.7</ele>
        <time>2022-01-19T09:51:06Z</time>
      </trkpt>
      <trkpt lat="44.88192" lon="5.5236">
        <ele>1890.7</ele>
        <time>2022-01-19T09:51:07Z</time>
      </trkpt>
      <trkpt lat="44.88192" lon="5.5236">
        <ele>1890.7</ele>
        <time>2022-01-19T09:51:08Z</time>
      </trkpt>
      <trkpt lat="44.88192" lon="5.5236">
        <ele>1890.7</ele>
        <time>2022-01-19T09:51:09Z</time>
      </trkpt>
      <trkpt lat="44.88192" lon="5.5236">
        <ele>1890.7</ele>
        <time>2022-01-19T09:51:10Z</time>
      </trkpt>
      <trkpt lat="44.88192" lon="5.5236">
        <ele>1890.7</ele>
        <time>2022-01-19T09:51:11Z</time>
      </trkpt>
      <trkpt lat="44.88192" lon="5.5236">
        <ele>1890.7</ele>
        <time>2022-01-19T09:51:12Z</time>
      </trkpt>
      <trkpt lat="44.88192" lon="5.5236">
        <ele>1890.7</ele>
        <time>2022-01-19T09:51:13Z</time>
      </trkpt>
      <trkpt lat="44.88194" lon="5.52357">
        <ele>1892.4</ele>
        <time>2022-01-19T09:51:14Z</time>
      </trkpt>
      <trkpt lat="44.88194" lon="5.52357">
        <ele>1892.4</ele>
        <time>2022-01-19T09:51:15Z</time>
      </trkpt>
      <trkpt lat="44.88194" lon="5.52357">
        <ele>1892.4</ele>
        <time>2022-01-19T09:51:16Z</time>
      </trkpt>
      <trkpt lat="44.88193" lon="5.52357">
        <ele>1892.4</ele>
        <time>2022-01-19T09:51:17Z</time>
      </trkpt>
      <trkpt lat="44.88193" lon="5.52357">
        <ele>1892.4</ele>
        <time>2022-01-19T09:51:18Z</time>
      </trkpt>
      <trkpt lat="44.88193" lon="5.52357">
        <ele>1892.4</ele>
        <time>2022-01-19T09:51:19Z</time>
      </trkpt>
      <trkpt lat="44.88193" lon="5.52357">
        <ele>1892.4</ele>
        <time>2022-01-19T09:51:20Z</time>
      </trkpt>
      <trkpt lat="44.88193" lon="5.52357">
        <ele>1892.4</ele>
        <time>2022-01-19T09:51:21Z</time>
      </trkpt>
      <trkpt lat="44.88193" lon="5.52357">
        <ele>1892.4</ele>
        <time>2022-01-19T09:51:22Z</time>
      </trkpt>
      <trkpt lat="44.88193" lon="5.52357">
        <ele>1892.4</ele>
        <time>2022-01-19T09:51:23Z</time>
      </trkpt>
      <trkpt lat="44.88192" lon="5.52355">
        <ele>1892.4</ele>
        <time>2022-01-19T09:51:24Z</time>
      </trkpt>
      <trkpt lat="44.88191" lon="5.52355">
        <ele>1894.2</ele>
        <time>2022-01-19T09:51:25Z</time>
      </trkpt>
      <trkpt lat="44.88191" lon="5.52354">
        <ele>1894.2</ele>
        <time>2022-01-19T09:51:26Z</time>
      </trkpt>
      <trkpt lat="44.88191" lon="5.52354">
        <ele>1894.2</ele>
        <time>2022-01-19T09:51:27Z</time>
      </trkpt>
      <trkpt lat="44.88191" lon="5.52353">
        <ele>1894.2</ele>
        <time>2022-01-19T09:51:28Z</time>
      </trkpt>
      <trkpt lat="44.8819" lon="5.52353">
        <ele>1894.3</ele>
        <time>2022-01-19T09:51:29Z</time>
      </trkpt>
      <trkpt lat="44.8819" lon="5.52353">
        <ele>1894.3</ele>
        <time>2022-01-19T09:51:30Z</time>
      </trkpt>
      <trkpt lat="44.8819" lon="5.52352">
        <ele>1894.3</ele>
        <time>2022-01-19T09:51:31Z</time>
      </trkpt>
      <trkpt lat="44.88189" lon="5.52352">
        <ele>1894.3</ele>
        <time>2022-01-19T09:51:32Z</time>
      </trkpt>
      <trkpt lat="44.88189" lon="5.52352">
        <ele>1894.3</ele>
        <time>2022-01-19T09:51:33Z</time>
      </trkpt>
      <trkpt lat="44.88188" lon="5.52351">
        <ele>1894.3</ele>
        <time>2022-01-19T09:51:34Z</time>
      </trkpt>
      <trkpt lat="44.88188" lon="5.52351">
        <ele>1894.3</ele>
        <time>2022-01-19T09:51:35Z</time>
      </trkpt>
      <trkpt lat="44.88187" lon="5.52351">
        <ele>1894.3</ele>
        <time>2022-01-19T09:51:36Z</time>
      </trkpt>
      <trkpt lat="44.88187" lon="5.52351">
        <ele>1894.4</ele>
        <time>2022-01-19T09:51:37Z</time>
      </trkpt>
      <trkpt lat="44.88187" lon="5.5235">
        <ele>1896</ele>
        <time>2022-01-19T09:51:38Z</time>
      </trkpt>
      <trkpt lat="44.88186" lon="5.5235">
        <ele>1896</ele>
        <time>2022-01-19T09:51:39Z</time>
      </trkpt>
      <trkpt lat="44.88186" lon="5.5235">
        <ele>1896</ele>
        <time>2022-01-19T09:51:40Z</time>
      </trkpt>
      <trkpt lat="44.88185" lon="5.5235">
        <ele>1896</ele>
        <time>2022-01-19T09:51:41Z</time>
      </trkpt>
      <trkpt lat="44.88184" lon="5.5235">
        <ele>1896.2</ele>
        <time>2022-01-19T09:51:42Z</time>
      </trkpt>
      <trkpt lat="44.88183" lon="5.52349">
        <ele>1896.2</ele>
        <time>2022-01-19T09:51:43Z</time>
      </trkpt>
      <trkpt lat="44.88183" lon="5.5235">
        <ele>1896.2</ele>
        <time>2022-01-19T09:51:44Z</time>
      </trkpt>
      <trkpt lat="44.88182" lon="5.5235">
        <ele>1896.2</ele>
        <time>2022-01-19T09:51:45Z</time>
      </trkpt>
      <trkpt lat="44.88181" lon="5.5235">
        <ele>1896.3</ele>
        <time>2022-01-19T09:51:46Z</time>
      </trkpt>
      <trkpt lat="44.8818" lon="5.5235">
        <ele>1896.3</ele>
        <time>2022-01-19T09:51:47Z</time>
      </trkpt>
      <trkpt lat="44.88179" lon="5.5235">
        <ele>1896.3</ele>
        <time>2022-01-19T09:51:48Z</time>
      </trkpt>
      <trkpt lat="44.88179" lon="5.5235">
        <ele>1896.3</ele>
        <time>2022-01-19T09:51:49Z</time>
      </trkpt>
      <trkpt lat="44.88179" lon="5.5235">
        <ele>1896.3</ele>
        <time>2022-01-19T09:51:50Z</time>
      </trkpt>
      <trkpt lat="44.88178" lon="5.5235">
        <ele>1896.3</ele>
        <time>2022-01-19T09:51:51Z</time>
      </trkpt>
      <trkpt lat="44.88178" lon="5.5235">
        <ele>1896.5</ele>
        <time>2022-01-19T09:51:52Z</time>
      </trkpt>
      <trkpt lat="44.88178" lon="5.5235">
        <ele>1896.5</ele>
        <time>2022-01-19T09:51:53Z</time>
      </trkpt>
      <trkpt lat="44.88177" lon="5.5235">
        <ele>1896.5</ele>
        <time>2022-01-19T09:51:54Z</time>
      </trkpt>
      <trkpt lat="44.88176" lon="5.52349">
        <ele>1896.5</ele>
        <time>2022-01-19T09:51:55Z</time>
      </trkpt>
      <trkpt lat="44.88176" lon="5.52349">
        <ele>1896.5</ele>
        <time>2022-01-19T09:51:56Z</time>
      </trkpt>
      <trkpt lat="44.88175" lon="5.52349">
        <ele>1896.8</ele>
        <time>2022-01-19T09:51:57Z</time>
      </trkpt>
      <trkpt lat="44.88175" lon="5.52349">
        <ele>1896.8</ele>
        <time>2022-01-19T09:51:58Z</time>
      </trkpt>
      <trkpt lat="44.88175" lon="5.52349">
        <ele>1896.8</ele>
        <time>2022-01-19T09:51:59Z</time>
      </trkpt>
      <trkpt lat="44.88174" lon="5.52349">
        <ele>1896.8</ele>
        <time>2022-01-19T09:52:00Z</time>
      </trkpt>
      <trkpt lat="44.88173" lon="5.52349">
        <ele>1896.8</ele>
        <time>2022-01-19T09:52:01Z</time>
      </trkpt>
      <trkpt lat="44.88173" lon="5.52349">
        <ele>1896.8</ele>
        <time>2022-01-19T09:52:02Z</time>
      </trkpt>
      <trkpt lat="44.88173" lon="5.52349">
        <ele>1896.8</ele>
        <time>2022-01-19T09:52:03Z</time>
      </trkpt>
      <trkpt lat="44.88173" lon="5.52348">
        <ele>1896.8</ele>
        <time>2022-01-19T09:52:04Z</time>
      </trkpt>
      <trkpt lat="44.88172" lon="5.52348">
        <ele>1896.8</ele>
        <time>2022-01-19T09:52:05Z</time>
      </trkpt>
      <trkpt lat="44.88172" lon="5.52348">
        <ele>1897.2</ele>
        <time>2022-01-19T09:52:06Z</time>
      </trkpt>
      <trkpt lat="44.88171" lon="5.52347">
        <ele>1897.2</ele>
        <time>2022-01-19T09:52:07Z</time>
      </trkpt>
      <trkpt lat="44.88171" lon="5.52347">
        <ele>1897.2</ele>
        <time>2022-01-19T09:52:08Z</time>
      </trkpt>
      <trkpt lat="44.8817" lon="5.52347">
        <ele>1897.2</ele>
        <time>2022-01-19T09:52:09Z</time>
      </trkpt>
      <trkpt lat="44.8817" lon="5.52347">
        <ele>1897.2</ele>
        <time>2022-01-19T09:52:10Z</time>
      </trkpt>
      <trkpt lat="44.8817" lon="5.52347">
        <ele>1897.2</ele>
        <time>2022-01-19T09:52:11Z</time>
      </trkpt>
      <trkpt lat="44.8817" lon="5.52347">
        <ele>1897.2</ele>
        <time>2022-01-19T09:52:12Z</time>
      </trkpt>
      <trkpt lat="44.88169" lon="5.52347">
        <ele>1897.6</ele>
        <time>2022-01-19T09:52:13Z</time>
      </trkpt>
      <trkpt lat="44.88169" lon="5.52347">
        <ele>1897.6</ele>
        <time>2022-01-19T09:52:14Z</time>
      </trkpt>
      <trkpt lat="44.88169" lon="5.52347">
        <ele>1897.6</ele>
        <time>2022-01-19T09:52:15Z</time>
      </trkpt>
      <trkpt lat="44.88169" lon="5.52347">
        <ele>1897.6</ele>
        <time>2022-01-19T09:52:16Z</time>
      </trkpt>
      <trkpt lat="44.88169" lon="5.52347">
        <ele>1897.6</ele>
        <time>2022-01-19T09:52:17Z</time>
      </trkpt>
      <trkpt lat="44.88169" lon="5.52347">
        <ele>1897.6</ele>
        <time>2022-01-19T09:52:18Z</time>
      </trkpt>
      <trkpt lat="44.88169" lon="5.52347">
        <ele>1897.6</ele>
        <time>2022-01-19T09:52:19Z</time>
      </trkpt>
      <trkpt lat="44.88169" lon="5.52347">
        <ele>1897.6</ele>
        <time>2022-01-19T09:52:20Z</time>
      </trkpt>
      <trkpt lat="44.88169" lon="5.52347">
        <ele>1897.6</ele>
        <time>2022-01-19T09:52:21Z</time>
      </trkpt>
      <trkpt lat="44.88169" lon="5.52347">
        <ele>1897.6</ele>
        <time>2022-01-19T09:52:22Z</time>
      </trkpt>
      <trkpt lat="44.88169" lon="5.52347">
        <ele>1897.6</ele>
        <time>2022-01-19T09:52:23Z</time>
      </trkpt>
      <trkpt lat="44.88162" lon="5.52345">
        <ele>1899.8</ele>
        <time>2022-01-19T09:52:24Z</time>
      </trkpt>
      <trkpt lat="44.88161" lon="5.52345">
        <ele>1899.8</ele>
        <time>2022-01-19T09:52:25Z</time>
      </trkpt>
      <trkpt lat="44.88161" lon="5.52345">
        <ele>1899.8</ele>
        <time>2022-01-19T09:52:26Z</time>
      </trkpt>
      <trkpt lat="44.88161" lon="5.52345">
        <ele>1899.8</ele>
        <time>2022-01-19T09:52:27Z</time>
      </trkpt>
      <trkpt lat="44.8816" lon="5.52345">
        <ele>1899.8</ele>
        <time>2022-01-19T09:52:28Z</time>
      </trkpt>
      <trkpt lat="44.8816" lon="5.52345">
        <ele>1899.8</ele>
        <time>2022-01-19T09:52:29Z</time>
      </trkpt>
      <trkpt lat="44.8816" lon="5.52345">
        <ele>1899.8</ele>
        <time>2022-01-19T09:52:30Z</time>
      </trkpt>
      <trkpt lat="44.8816" lon="5.52345">
        <ele>1899.8</ele>
        <time>2022-01-19T09:52:31Z</time>
      </trkpt>
      <trkpt lat="44.8816" lon="5.52345">
        <ele>1899.8</ele>
        <time>2022-01-19T09:52:32Z</time>
      </trkpt>
      <trkpt lat="44.8816" lon="5.52345">
        <ele>1899.8</ele>
        <time>2022-01-19T09:52:33Z</time>
      </trkpt>
      <trkpt lat="44.88158" lon="5.52346">
        <ele>1899.1</ele>
        <time>2022-01-19T09:52:34Z</time>
      </trkpt>
      <trkpt lat="44.88158" lon="5.52346">
        <ele>1899.1</ele>
        <time>2022-01-19T09:52:35Z</time>
      </trkpt>
      <trkpt lat="44.88157" lon="5.52347">
        <ele>1899.6</ele>
        <time>2022-01-19T09:52:36Z</time>
      </trkpt>
      <trkpt lat="44.88156" lon="5.52347">
        <ele>1899.6</ele>
        <time>2022-01-19T09:52:37Z</time>
      </trkpt>
      <trkpt lat="44.88156" lon="5.52347">
        <ele>1899.6</ele>
        <time>2022-01-19T09:52:38Z</time>
      </trkpt>
      <trkpt lat="44.88155" lon="5.52348">
        <ele>1899.6</ele>
        <time>2022-01-19T09:52:39Z</time>
      </trkpt>
      <trkpt lat="44.88155" lon="5.52348">
        <ele>1899.6</ele>
        <time>2022-01-19T09:52:40Z</time>
      </trkpt>
      <trkpt lat="44.88154" lon="5.52348">
        <ele>1899.6</ele>
        <time>2022-01-19T09:52:41Z</time>
      </trkpt>
      <trkpt lat="44.88154" lon="5.52349">
        <ele>1900.1</ele>
        <time>2022-01-19T09:52:42Z</time>
      </trkpt>
      <trkpt lat="44.88153" lon="5.52349">
        <ele>1900.1</ele>
        <time>2022-01-19T09:52:43Z</time>
      </trkpt>
      <trkpt lat="44.88152" lon="5.52349">
        <ele>1900.1</ele>
        <time>2022-01-19T09:52:44Z</time>
      </trkpt>
      <trkpt lat="44.88152" lon="5.52349">
        <ele>1900.1</ele>
        <time>2022-01-19T09:52:45Z</time>
      </trkpt>
      <trkpt lat="44.88151" lon="5.5235">
        <ele>1900.1</ele>
        <time>2022-01-19T09:52:46Z</time>
      </trkpt>
      <trkpt lat="44.88151" lon="5.5235">
        <ele>1900.6</ele>
        <time>2022-01-19T09:52:47Z</time>
      </trkpt>
      <trkpt lat="44.8815" lon="5.52351">
        <ele>1899.5</ele>
        <time>2022-01-19T09:52:48Z</time>
      </trkpt>
      <trkpt lat="44.8815" lon="5.52351">
        <ele>1899.5</ele>
        <time>2022-01-19T09:52:49Z</time>
      </trkpt>
      <trkpt lat="44.88149" lon="5.52351">
        <ele>1899.5</ele>
        <time>2022-01-19T09:52:50Z</time>
      </trkpt>
      <trkpt lat="44.88149" lon="5.52351">
        <ele>1899.5</ele>
        <time>2022-01-19T09:52:51Z</time>
      </trkpt>
      <trkpt lat="44.88148" lon="5.52352">
        <ele>1900.1</ele>
        <time>2022-01-19T09:52:52Z</time>
      </trkpt>
      <trkpt lat="44.88147" lon="5.52352">
        <ele>1900.1</ele>
        <time>2022-01-19T09:52:53Z</time>
      </trkpt>
      <trkpt lat="44.88147" lon="5.52353">
        <ele>1900.1</ele>
        <time>2022-01-19T09:52:54Z</time>
      </trkpt>
      <trkpt lat="44.88146" lon="5.52353">
        <ele>1900.1</ele>
        <time>2022-01-19T09:52:55Z</time>
      </trkpt>
      <trkpt lat="44.88146" lon="5.52354">
        <ele>1900.1</ele>
        <time>2022-01-19T09:52:56Z</time>
      </trkpt>
      <trkpt lat="44.88145" lon="5.52354">
        <ele>1900.1</ele>
        <time>2022-01-19T09:52:57Z</time>
      </trkpt>
      <trkpt lat="44.88145" lon="5.52355">
        <ele>1900.7</ele>
        <time>2022-01-19T09:52:58Z</time>
      </trkpt>
      <trkpt lat="44.88144" lon="5.52355">
        <ele>1899.7</ele>
        <time>2022-01-19T09:52:59Z</time>
      </trkpt>
      <trkpt lat="44.88144" lon="5.52355">
        <ele>1899.7</ele>
        <time>2022-01-19T09:53:00Z</time>
      </trkpt>
      <trkpt lat="44.88144" lon="5.52356">
        <ele>1899.7</ele>
        <time>2022-01-19T09:53:01Z</time>
      </trkpt>
      <trkpt lat="44.88144" lon="5.52357">
        <ele>1899.7</ele>
        <time>2022-01-19T09:53:02Z</time>
      </trkpt>
      <trkpt lat="44.88144" lon="5.52357">
        <ele>1899.7</ele>
        <time>2022-01-19T09:53:03Z</time>
      </trkpt>
      <trkpt lat="44.88144" lon="5.52357">
        <ele>1899.7</ele>
        <time>2022-01-19T09:53:04Z</time>
      </trkpt>
      <trkpt lat="44.88144" lon="5.52357">
        <ele>1899.7</ele>
        <time>2022-01-19T09:53:05Z</time>
      </trkpt>
      <trkpt lat="44.88144" lon="5.52357">
        <ele>1899.7</ele>
        <time>2022-01-19T09:53:06Z</time>
      </trkpt>
      <trkpt lat="44.88144" lon="5.52357">
        <ele>1899.7</ele>
        <time>2022-01-19T09:53:07Z</time>
      </trkpt>
      <trkpt lat="44.88144" lon="5.52357">
        <ele>1899.7</ele>
        <time>2022-01-19T09:53:08Z</time>
      </trkpt>
      <trkpt lat="44.88144" lon="5.52357">
        <ele>1899.7</ele>
        <time>2022-01-19T09:53:09Z</time>
      </trkpt>
      <trkpt lat="44.88145" lon="5.52356">
        <ele>1899.7</ele>
        <time>2022-01-19T09:53:10Z</time>
      </trkpt>
      <trkpt lat="44.88145" lon="5.52356">
        <ele>1899</ele>
        <time>2022-01-19T09:53:11Z</time>
      </trkpt>
      <trkpt lat="44.88145" lon="5.52355">
        <ele>1899</ele>
        <time>2022-01-19T09:53:12Z</time>
      </trkpt>
      <trkpt lat="44.88146" lon="5.52354">
        <ele>1900.1</ele>
        <time>2022-01-19T09:53:13Z</time>
      </trkpt>
      <trkpt lat="44.88147" lon="5.52354">
        <ele>1900.1</ele>
        <time>2022-01-19T09:53:14Z</time>
      </trkpt>
      <trkpt lat="44.88147" lon="5.52353">
        <ele>1900.1</ele>
        <time>2022-01-19T09:53:15Z</time>
      </trkpt>
      <trkpt lat="44.88147" lon="5.52352">
        <ele>1900.1</ele>
        <time>2022-01-19T09:53:16Z</time>
      </trkpt>
      <trkpt lat="44.88148" lon="5.52352">
        <ele>1899.5</ele>
        <time>2022-01-19T09:53:17Z</time>
      </trkpt>
      <trkpt lat="44.88149" lon="5.52351">
        <ele>1899.5</ele>
        <time>2022-01-19T09:53:18Z</time>
      </trkpt>
      <trkpt lat="44.88149" lon="5.5235">
        <ele>1900.6</ele>
        <time>2022-01-19T09:53:19Z</time>
      </trkpt>
      <trkpt lat="44.8815" lon="5.5235">
        <ele>1900.6</ele>
        <time>2022-01-19T09:53:20Z</time>
      </trkpt>
      <trkpt lat="44.8815" lon="5.52349">
        <ele>1900.6</ele>
        <time>2022-01-19T09:53:21Z</time>
      </trkpt>
      <trkpt lat="44.8815" lon="5.52348">
        <ele>1900.6</ele>
        <time>2022-01-19T09:53:22Z</time>
      </trkpt>
      <trkpt lat="44.88151" lon="5.52347">
        <ele>1900.6</ele>
        <time>2022-01-19T09:53:23Z</time>
      </trkpt>
      <trkpt lat="44.88151" lon="5.52346">
        <ele>1901.1</ele>
        <time>2022-01-19T09:53:24Z</time>
      </trkpt>
      <trkpt lat="44.88151" lon="5.52345">
        <ele>1901.1</ele>
        <time>2022-01-19T09:53:25Z</time>
      </trkpt>
      <trkpt lat="44.88151" lon="5.52344">
        <ele>1901.1</ele>
        <time>2022-01-19T09:53:26Z</time>
      </trkpt>
      <trkpt lat="44.88152" lon="5.52343">
        <ele>1901.1</ele>
        <time>2022-01-19T09:53:27Z</time>
      </trkpt>
      <trkpt lat="44.88152" lon="5.52342">
        <ele>1902.1</ele>
        <time>2022-01-19T09:53:28Z</time>
      </trkpt>
      <trkpt lat="44.88152" lon="5.52341">
        <ele>1902.1</ele>
        <time>2022-01-19T09:53:29Z</time>
      </trkpt>
      <trkpt lat="44.88152" lon="5.5234">
        <ele>1902.1</ele>
        <time>2022-01-19T09:53:30Z</time>
      </trkpt>
      <trkpt lat="44.88152" lon="5.5234">
        <ele>1902.1</ele>
        <time>2022-01-19T09:53:31Z</time>
      </trkpt>
      <trkpt lat="44.88153" lon="5.52338">
        <ele>1902.1</ele>
        <time>2022-01-19T09:53:32Z</time>
      </trkpt>
      <trkpt lat="44.88153" lon="5.52338">
        <ele>1903</ele>
        <time>2022-01-19T09:53:33Z</time>
      </trkpt>
      <trkpt lat="44.88154" lon="5.52337">
        <ele>1903</ele>
        <time>2022-01-19T09:53:34Z</time>
      </trkpt>
      <trkpt lat="44.88154" lon="5.52336">
        <ele>1902.7</ele>
        <time>2022-01-19T09:53:35Z</time>
      </trkpt>
      <trkpt lat="44.88155" lon="5.52335">
        <ele>1902.7</ele>
        <time>2022-01-19T09:53:36Z</time>
      </trkpt>
      <trkpt lat="44.88155" lon="5.52334">
        <ele>1902.7</ele>
        <time>2022-01-19T09:53:37Z</time>
      </trkpt>
      <trkpt lat="44.88155" lon="5.52333">
        <ele>1902.7</ele>
        <time>2022-01-19T09:53:38Z</time>
      </trkpt>
      <trkpt lat="44.88155" lon="5.52332">
        <ele>1903.5</ele>
        <time>2022-01-19T09:53:39Z</time>
      </trkpt>
      <trkpt lat="44.88156" lon="5.52332">
        <ele>1903.5</ele>
        <time>2022-01-19T09:53:40Z</time>
      </trkpt>
      <trkpt lat="44.88156" lon="5.52331">
        <ele>1903.5</ele>
        <time>2022-01-19T09:53:41Z</time>
      </trkpt>
      <trkpt lat="44.88157" lon="5.5233">
        <ele>1903.5</ele>
        <time>2022-01-19T09:53:42Z</time>
      </trkpt>
      <trkpt lat="44.88157" lon="5.5233">
        <ele>1903.5</ele>
        <time>2022-01-19T09:53:43Z</time>
      </trkpt>
      <trkpt lat="44.88158" lon="5.5233">
        <ele>1903.2</ele>
        <time>2022-01-19T09:53:44Z</time>
      </trkpt>
      <trkpt lat="44.88158" lon="5.52329">
        <ele>1903.2</ele>
        <time>2022-01-19T09:53:45Z</time>
      </trkpt>
      <trkpt lat="44.88158" lon="5.52329">
        <ele>1904.1</ele>
        <time>2022-01-19T09:53:46Z</time>
      </trkpt>
      <trkpt lat="44.88158" lon="5.52329">
        <ele>1904.1</ele>
        <time>2022-01-19T09:53:47Z</time>
      </trkpt>
      <trkpt lat="44.88158" lon="5.52329">
        <ele>1904.1</ele>
        <time>2022-01-19T09:53:48Z</time>
      </trkpt>
      <trkpt lat="44.88158" lon="5.52329">
        <ele>1904.1</ele>
        <time>2022-01-19T09:53:49Z</time>
      </trkpt>
      <trkpt lat="44.88158" lon="5.52329">
        <ele>1904.1</ele>
        <time>2022-01-19T09:53:50Z</time>
      </trkpt>
      <trkpt lat="44.88158" lon="5.52329">
        <ele>1904.1</ele>
        <time>2022-01-19T09:53:51Z</time>
      </trkpt>
      <trkpt lat="44.88158" lon="5.52329">
        <ele>1904.1</ele>
        <time>2022-01-19T09:53:52Z</time>
      </trkpt>
      <trkpt lat="44.88158" lon="5.52329">
        <ele>1904.1</ele>
        <time>2022-01-19T09:53:53Z</time>
      </trkpt>
      <trkpt lat="44.88158" lon="5.52329">
        <ele>1904.1</ele>
        <time>2022-01-19T09:53:54Z</time>
      </trkpt>
      <trkpt lat="44.8816" lon="5.52326">
        <ele>1903.9</ele>
        <time>2022-01-19T09:53:55Z</time>
      </trkpt>
      <trkpt lat="44.88161" lon="5.52325">
        <ele>1903.9</ele>
        <time>2022-01-19T09:53:56Z</time>
      </trkpt>
      <trkpt lat="44.88161" lon="5.52325">
        <ele>1903.9</ele>
        <time>2022-01-19T09:53:57Z</time>
      </trkpt>
      <trkpt lat="44.88161" lon="5.52325">
        <ele>1903.9</ele>
        <time>2022-01-19T09:53:58Z</time>
      </trkpt>
      <trkpt lat="44.88161" lon="5.52325">
        <ele>1904.7</ele>
        <time>2022-01-19T09:53:59Z</time>
      </trkpt>
      <trkpt lat="44.88161" lon="5.52325">
        <ele>1904.7</ele>
        <time>2022-01-19T09:54:00Z</time>
      </trkpt>
      <trkpt lat="44.88161" lon="5.52325">
        <ele>1904.7</ele>
        <time>2022-01-19T09:54:01Z</time>
      </trkpt>
      <trkpt lat="44.88161" lon="5.52325">
        <ele>1904.7</ele>
        <time>2022-01-19T09:54:02Z</time>
      </trkpt>
      <trkpt lat="44.88161" lon="5.52325">
        <ele>1904.7</ele>
        <time>2022-01-19T09:54:03Z</time>
      </trkpt>
      <trkpt lat="44.88161" lon="5.52325">
        <ele>1904.7</ele>
        <time>2022-01-19T09:54:04Z</time>
      </trkpt>
      <trkpt lat="44.88161" lon="5.52325">
        <ele>1904.7</ele>
        <time>2022-01-19T09:54:05Z</time>
      </trkpt>
      <trkpt lat="44.88161" lon="5.52325">
        <ele>1904.7</ele>
        <time>2022-01-19T09:54:06Z</time>
      </trkpt>
      <trkpt lat="44.88161" lon="5.52325">
        <ele>1904.7</ele>
        <time>2022-01-19T09:54:07Z</time>
      </trkpt>
      <trkpt lat="44.88161" lon="5.52325">
        <ele>1904.7</ele>
        <time>2022-01-19T09:54:08Z</time>
      </trkpt>
      <trkpt lat="44.88161" lon="5.52325">
        <ele>1904.7</ele>
        <time>2022-01-19T09:54:09Z</time>
      </trkpt>
      <trkpt lat="44.88161" lon="5.52325">
        <ele>1904.7</ele>
        <time>2022-01-19T09:54:10Z</time>
      </trkpt>
      <trkpt lat="44.88161" lon="5.52323">
        <ele>1904.7</ele>
        <time>2022-01-19T09:54:11Z</time>
      </trkpt>
      <trkpt lat="44.88161" lon="5.52322">
        <ele>1904.7</ele>
        <time>2022-01-19T09:54:12Z</time>
      </trkpt>
      <trkpt lat="44.8816" lon="5.52321">
        <ele>1904.7</ele>
        <time>2022-01-19T09:54:13Z</time>
      </trkpt>
      <trkpt lat="44.8816" lon="5.52321">
        <ele>1904.9</ele>
        <time>2022-01-19T09:54:14Z</time>
      </trkpt>
      <trkpt lat="44.88159" lon="5.52321">
        <ele>1904.9</ele>
        <time>2022-01-19T09:54:15Z</time>
      </trkpt>
      <trkpt lat="44.88159" lon="5.52321">
        <ele>1904.9</ele>
        <time>2022-01-19T09:54:16Z</time>
      </trkpt>
      <trkpt lat="44.88158" lon="5.52321">
        <ele>1904.9</ele>
        <time>2022-01-19T09:54:17Z</time>
      </trkpt>
      <trkpt lat="44.88157" lon="5.52321">
        <ele>1904.9</ele>
        <time>2022-01-19T09:54:18Z</time>
      </trkpt>
      <trkpt lat="44.88157" lon="5.52321">
        <ele>1905.1</ele>
        <time>2022-01-19T09:54:19Z</time>
      </trkpt>
      <trkpt lat="44.88156" lon="5.52321">
        <ele>1905.1</ele>
        <time>2022-01-19T09:54:20Z</time>
      </trkpt>
      <trkpt lat="44.88155" lon="5.52321">
        <ele>1905.1</ele>
        <time>2022-01-19T09:54:21Z</time>
      </trkpt>
      <trkpt lat="44.88155" lon="5.5232">
        <ele>1905.8</ele>
        <time>2022-01-19T09:54:22Z</time>
      </trkpt>
      <trkpt lat="44.88154" lon="5.52321">
        <ele>1905.1</ele>
        <time>2022-01-19T09:54:23Z</time>
      </trkpt>
      <trkpt lat="44.88154" lon="5.52321">
        <ele>1905.3</ele>
        <time>2022-01-19T09:54:24Z</time>
      </trkpt>
      <trkpt lat="44.88153" lon="5.52321">
        <ele>1905.3</ele>
        <time>2022-01-19T09:54:25Z</time>
      </trkpt>
      <trkpt lat="44.88153" lon="5.52321">
        <ele>1905.3</ele>
        <time>2022-01-19T09:54:26Z</time>
      </trkpt>
      <trkpt lat="44.88152" lon="5.52321">
        <ele>1905.3</ele>
        <time>2022-01-19T09:54:27Z</time>
      </trkpt>
      <trkpt lat="44.88152" lon="5.52321">
        <ele>1905.3</ele>
        <time>2022-01-19T09:54:28Z</time>
      </trkpt>
      <trkpt lat="44.88151" lon="5.52321">
        <ele>1905.3</ele>
        <time>2022-01-19T09:54:29Z</time>
      </trkpt>
      <trkpt lat="44.88151" lon="5.52321">
        <ele>1905.6</ele>
        <time>2022-01-19T09:54:30Z</time>
      </trkpt>
      <trkpt lat="44.8815" lon="5.52321">
        <ele>1905.6</ele>
        <time>2022-01-19T09:54:31Z</time>
      </trkpt>
      <trkpt lat="44.8815" lon="5.52321">
        <ele>1905.6</ele>
        <time>2022-01-19T09:54:32Z</time>
      </trkpt>
      <trkpt lat="44.8815" lon="5.52321">
        <ele>1905.6</ele>
        <time>2022-01-19T09:54:33Z</time>
      </trkpt>
      <trkpt lat="44.8815" lon="5.52321">
        <ele>1905.6</ele>
        <time>2022-01-19T09:54:34Z</time>
      </trkpt>
      <trkpt lat="44.8815" lon="5.52321">
        <ele>1905.6</ele>
        <time>2022-01-19T09:54:35Z</time>
      </trkpt>
      <trkpt lat="44.8815" lon="5.52321">
        <ele>1905.6</ele>
        <time>2022-01-19T09:54:36Z</time>
      </trkpt>
      <trkpt lat="44.8815" lon="5.52321">
        <ele>1905.6</ele>
        <time>2022-01-19T09:54:37Z</time>
      </trkpt>
      <trkpt lat="44.88151" lon="5.52321">
        <ele>1905.6</ele>
        <time>2022-01-19T09:54:38Z</time>
      </trkpt>
      <trkpt lat="44.8815" lon="5.52322">
        <ele>1905.6</ele>
        <time>2022-01-19T09:54:39Z</time>
      </trkpt>
      <trkpt lat="44.88151" lon="5.52322">
        <ele>1905.6</ele>
        <time>2022-01-19T09:54:40Z</time>
      </trkpt>
      <trkpt lat="44.88151" lon="5.52322">
        <ele>1905.6</ele>
        <time>2022-01-19T09:54:41Z</time>
      </trkpt>
      <trkpt lat="44.8815" lon="5.52322">
        <ele>1905.6</ele>
        <time>2022-01-19T09:54:42Z</time>
      </trkpt>
      <trkpt lat="44.8815" lon="5.52322">
        <ele>1905.6</ele>
        <time>2022-01-19T09:54:43Z</time>
      </trkpt>
      <trkpt lat="44.8815" lon="5.52322">
        <ele>1905.6</ele>
        <time>2022-01-19T09:54:44Z</time>
      </trkpt>
      <trkpt lat="44.8815" lon="5.52322">
        <ele>1905.6</ele>
        <time>2022-01-19T09:54:45Z</time>
      </trkpt>
      <trkpt lat="44.8815" lon="5.52322">
        <ele>1905.6</ele>
        <time>2022-01-19T09:54:46Z</time>
      </trkpt>
      <trkpt lat="44.8815" lon="5.52322">
        <ele>1905.6</ele>
        <time>2022-01-19T09:54:47Z</time>
      </trkpt>
      <trkpt lat="44.8815" lon="5.52322">
        <ele>1905.6</ele>
        <time>2022-01-19T09:54:48Z</time>
      </trkpt>
      <trkpt lat="44.8815" lon="5.52322">
        <ele>1905.6</ele>
        <time>2022-01-19T09:54:49Z</time>
      </trkpt>
      <trkpt lat="44.8815" lon="5.52322">
        <ele>1905.6</ele>
        <time>2022-01-19T09:54:50Z</time>
      </trkpt>
      <trkpt lat="44.8815" lon="5.52322">
        <ele>1905.6</ele>
        <time>2022-01-19T09:54:51Z</time>
      </trkpt>
      <trkpt lat="44.8815" lon="5.52322">
        <ele>1905.6</ele>
        <time>2022-01-19T09:54:52Z</time>
      </trkpt>
      <trkpt lat="44.88153" lon="5.5232">
        <ele>1906</ele>
        <time>2022-01-19T09:54:53Z</time>
      </trkpt>
      <trkpt lat="44.88153" lon="5.5232">
        <ele>1906</ele>
        <time>2022-01-19T09:54:54Z</time>
      </trkpt>
      <trkpt lat="44.88153" lon="5.5232">
        <ele>1906</ele>
        <time>2022-01-19T09:54:55Z</time>
      </trkpt>
      <trkpt lat="44.88154" lon="5.5232">
        <ele>1906</ele>
        <time>2022-01-19T09:54:56Z</time>
      </trkpt>
      <trkpt lat="44.88154" lon="5.5232">
        <ele>1906</ele>
        <time>2022-01-19T09:54:57Z</time>
      </trkpt>
      <trkpt lat="44.88154" lon="5.5232">
        <ele>1906</ele>
        <time>2022-01-19T09:54:58Z</time>
      </trkpt>
      <trkpt lat="44.88154" lon="5.5232">
        <ele>1906</ele>
        <time>2022-01-19T09:54:59Z</time>
      </trkpt>
      <trkpt lat="44.88154" lon="5.5232">
        <ele>1906</ele>
        <time>2022-01-19T09:55:00Z</time>
      </trkpt>
      <trkpt lat="44.88154" lon="5.5232">
        <ele>1906</ele>
        <time>2022-01-19T09:55:01Z</time>
      </trkpt>
      <trkpt lat="44.88154" lon="5.5232">
        <ele>1906</ele>
        <time>2022-01-19T09:55:02Z</time>
      </trkpt>
      <trkpt lat="44.88154" lon="5.5232">
        <ele>1906</ele>
        <time>2022-01-19T09:55:03Z</time>
      </trkpt>
      <trkpt lat="44.88154" lon="5.5232">
        <ele>1906</ele>
        <time>2022-01-19T09:55:04Z</time>
      </trkpt>
      <trkpt lat="44.88154" lon="5.5232">
        <ele>1906</ele>
        <time>2022-01-19T09:55:05Z</time>
      </trkpt>
      <trkpt lat="44.88154" lon="5.5232">
        <ele>1906</ele>
        <time>2022-01-19T09:55:06Z</time>
      </trkpt>
      <trkpt lat="44.88154" lon="5.5232">
        <ele>1906</ele>
        <time>2022-01-19T09:55:07Z</time>
      </trkpt>
      <trkpt lat="44.88152" lon="5.5232">
        <ele>1906</ele>
        <time>2022-01-19T09:55:08Z</time>
      </trkpt>
      <trkpt lat="44.88151" lon="5.5232">
        <ele>1906</ele>
        <time>2022-01-19T09:55:09Z</time>
      </trkpt>
      <trkpt lat="44.88151" lon="5.52319">
        <ele>1906.2</ele>
        <time>2022-01-19T09:55:10Z</time>
      </trkpt>
      <trkpt lat="44.8815" lon="5.52319">
        <ele>1906.2</ele>
        <time>2022-01-19T09:55:11Z</time>
      </trkpt>
      <trkpt lat="44.88149" lon="5.52319">
        <ele>1906.2</ele>
        <time>2022-01-19T09:55:12Z</time>
      </trkpt>
      <trkpt lat="44.88149" lon="5.52319">
        <ele>1906.2</ele>
        <time>2022-01-19T09:55:13Z</time>
      </trkpt>
      <trkpt lat="44.88149" lon="5.5232">
        <ele>1906.2</ele>
        <time>2022-01-19T09:55:14Z</time>
      </trkpt>
      <trkpt lat="44.88148" lon="5.5232">
        <ele>1906.5</ele>
        <time>2022-01-19T09:55:15Z</time>
      </trkpt>
      <trkpt lat="44.88147" lon="5.5232">
        <ele>1906.5</ele>
        <time>2022-01-19T09:55:16Z</time>
      </trkpt>
      <trkpt lat="44.88147" lon="5.52321">
        <ele>1905.9</ele>
        <time>2022-01-19T09:55:17Z</time>
      </trkpt>
      <trkpt lat="44.88147" lon="5.52321">
        <ele>1905.9</ele>
        <time>2022-01-19T09:55:18Z</time>
      </trkpt>
      <trkpt lat="44.88147" lon="5.52321">
        <ele>1905.9</ele>
        <time>2022-01-19T09:55:19Z</time>
      </trkpt>
      <trkpt lat="44.88147" lon="5.52321">
        <ele>1905.9</ele>
        <time>2022-01-19T09:55:20Z</time>
      </trkpt>
      <trkpt lat="44.88147" lon="5.52321">
        <ele>1905.9</ele>
        <time>2022-01-19T09:55:21Z</time>
      </trkpt>
      <trkpt lat="44.88147" lon="5.52321">
        <ele>1905.9</ele>
        <time>2022-01-19T09:55:22Z</time>
      </trkpt>
      <trkpt lat="44.88147" lon="5.52321">
        <ele>1905.9</ele>
        <time>2022-01-19T09:55:23Z</time>
      </trkpt>
      <trkpt lat="44.88147" lon="5.52321">
        <ele>1905.9</ele>
        <time>2022-01-19T09:55:24Z</time>
      </trkpt>
      <trkpt lat="44.88147" lon="5.52321">
        <ele>1905.9</ele>
        <time>2022-01-19T09:55:25Z</time>
      </trkpt>
      <trkpt lat="44.88147" lon="5.52321">
        <ele>1905.9</ele>
        <time>2022-01-19T09:55:26Z</time>
      </trkpt>
      <trkpt lat="44.88147" lon="5.52321">
        <ele>1905.9</ele>
        <time>2022-01-19T09:55:27Z</time>
      </trkpt>
      <trkpt lat="44.88147" lon="5.52321">
        <ele>1905.9</ele>
        <time>2022-01-19T09:55:28Z</time>
      </trkpt>
      <trkpt lat="44.88149" lon="5.52317">
        <ele>1906.2</ele>
        <time>2022-01-19T09:55:29Z</time>
      </trkpt>
      <trkpt lat="44.88149" lon="5.52316">
        <ele>1906.8</ele>
        <time>2022-01-19T09:55:30Z</time>
      </trkpt>
      <trkpt lat="44.8815" lon="5.52315">
        <ele>1906.8</ele>
        <time>2022-01-19T09:55:31Z</time>
      </trkpt>
      <trkpt lat="44.88151" lon="5.52315">
        <ele>1906.8</ele>
        <time>2022-01-19T09:55:32Z</time>
      </trkpt>
      <trkpt lat="44.88151" lon="5.52315">
        <ele>1906.6</ele>
        <time>2022-01-19T09:55:33Z</time>
      </trkpt>
      <trkpt lat="44.88151" lon="5.52314">
        <ele>1906.6</ele>
        <time>2022-01-19T09:55:34Z</time>
      </trkpt>
      <trkpt lat="44.88151" lon="5.52314">
        <ele>1906.6</ele>
        <time>2022-01-19T09:55:35Z</time>
      </trkpt>
      <trkpt lat="44.88152" lon="5.52313">
        <ele>1906.6</ele>
        <time>2022-01-19T09:55:36Z</time>
      </trkpt>
      <trkpt lat="44.88152" lon="5.52313">
        <ele>1906.6</ele>
        <time>2022-01-19T09:55:37Z</time>
      </trkpt>
      <trkpt lat="44.88152" lon="5.52313">
        <ele>1906.6</ele>
        <time>2022-01-19T09:55:38Z</time>
      </trkpt>
      <trkpt lat="44.88152" lon="5.52313">
        <ele>1906.6</ele>
        <time>2022-01-19T09:55:39Z</time>
      </trkpt>
      <trkpt lat="44.88152" lon="5.52313">
        <ele>1906.6</ele>
        <time>2022-01-19T09:55:40Z</time>
      </trkpt>
      <trkpt lat="44.88152" lon="5.52313">
        <ele>1906.6</ele>
        <time>2022-01-19T09:55:41Z</time>
      </trkpt>
      <trkpt lat="44.88152" lon="5.52313">
        <ele>1906.6</ele>
        <time>2022-01-19T09:55:42Z</time>
      </trkpt>
      <trkpt lat="44.88152" lon="5.52313">
        <ele>1906.6</ele>
        <time>2022-01-19T09:55:43Z</time>
      </trkpt>
      <trkpt lat="44.88152" lon="5.52313">
        <ele>1906.6</ele>
        <time>2022-01-19T09:55:44Z</time>
      </trkpt>
      <trkpt lat="44.88152" lon="5.52313">
        <ele>1906.6</ele>
        <time>2022-01-19T09:55:45Z</time>
      </trkpt>
      <trkpt lat="44.88152" lon="5.52313">
        <ele>1906.6</ele>
        <time>2022-01-19T09:55:46Z</time>
      </trkpt>
      <trkpt lat="44.88152" lon="5.52313">
        <ele>1906.6</ele>
        <time>2022-01-19T09:55:47Z</time>
      </trkpt>
      <trkpt lat="44.88154" lon="5.52309">
        <ele>1907.2</ele>
        <time>2022-01-19T09:55:48Z</time>
      </trkpt>
      <trkpt lat="44.88153" lon="5.52308">
        <ele>1907.2</ele>
        <time>2022-01-19T09:55:49Z</time>
      </trkpt>
      <trkpt lat="44.88152" lon="5.52308">
        <ele>1907.2</ele>
        <time>2022-01-19T09:55:50Z</time>
      </trkpt>
      <trkpt lat="44.88152" lon="5.52308">
        <ele>1907.2</ele>
        <time>2022-01-19T09:55:51Z</time>
      </trkpt>
      <trkpt lat="44.88152" lon="5.52308">
        <ele>1907.2</ele>
        <time>2022-01-19T09:55:52Z</time>
      </trkpt>
      <trkpt lat="44.88151" lon="5.52308">
        <ele>1907.2</ele>
        <time>2022-01-19T09:55:53Z</time>
      </trkpt>
      <trkpt lat="44.88151" lon="5.52308">
        <ele>1907.3</ele>
        <time>2022-01-19T09:55:54Z</time>
      </trkpt>
      <trkpt lat="44.8815" lon="5.52308">
        <ele>1907.3</ele>
        <time>2022-01-19T09:55:55Z</time>
      </trkpt>
      <trkpt lat="44.88149" lon="5.52308">
        <ele>1907.3</ele>
        <time>2022-01-19T09:55:56Z</time>
      </trkpt>
      <trkpt lat="44.88149" lon="5.52308">
        <ele>1907.3</ele>
        <time>2022-01-19T09:55:57Z</time>
      </trkpt>
      <trkpt lat="44.88148" lon="5.52308">
        <ele>1907.6</ele>
        <time>2022-01-19T09:55:58Z</time>
      </trkpt>
      <trkpt lat="44.88147" lon="5.52308">
        <ele>1908.1</ele>
        <time>2022-01-19T09:55:59Z</time>
      </trkpt>
      <trkpt lat="44.88146" lon="5.52308">
        <ele>1908.1</ele>
        <time>2022-01-19T09:56:00Z</time>
      </trkpt>
      <trkpt lat="44.88146" lon="5.52307">
        <ele>1908.1</ele>
        <time>2022-01-19T09:56:01Z</time>
      </trkpt>
      <trkpt lat="44.88145" lon="5.52308">
        <ele>1908.4</ele>
        <time>2022-01-19T09:56:02Z</time>
      </trkpt>
      <trkpt lat="44.88144" lon="5.52308">
        <ele>1907.9</ele>
        <time>2022-01-19T09:56:03Z</time>
      </trkpt>
      <trkpt lat="44.88143" lon="5.52308">
        <ele>1907.9</ele>
        <time>2022-01-19T09:56:04Z</time>
      </trkpt>
      <trkpt lat="44.88143" lon="5.52309">
        <ele>1907.9</ele>
        <time>2022-01-19T09:56:05Z</time>
      </trkpt>
      <trkpt lat="44.88142" lon="5.52309">
        <ele>1907.9</ele>
        <time>2022-01-19T09:56:06Z</time>
      </trkpt>
      <trkpt lat="44.88142" lon="5.52309">
        <ele>1908.2</ele>
        <time>2022-01-19T09:56:07Z</time>
      </trkpt>
      <trkpt lat="44.88141" lon="5.5231">
        <ele>1908.2</ele>
        <time>2022-01-19T09:56:08Z</time>
      </trkpt>
      <trkpt lat="44.88141" lon="5.52311">
        <ele>1908.2</ele>
        <time>2022-01-19T09:56:09Z</time>
      </trkpt>
      <trkpt lat="44.8814" lon="5.52311">
        <ele>1908.2</ele>
        <time>2022-01-19T09:56:10Z</time>
      </trkpt>
      <trkpt lat="44.88139" lon="5.52312">
        <ele>1907.7</ele>
        <time>2022-01-19T09:56:11Z</time>
      </trkpt>
      <trkpt lat="44.88139" lon="5.52312">
        <ele>1907.7</ele>
        <time>2022-01-19T09:56:12Z</time>
      </trkpt>
      <trkpt lat="44.88139" lon="5.52313">
        <ele>1908.1</ele>
        <time>2022-01-19T09:56:13Z</time>
      </trkpt>
      <trkpt lat="44.88138" lon="5.52314">
        <ele>1908.1</ele>
        <time>2022-01-19T09:56:14Z</time>
      </trkpt>
      <trkpt lat="44.88138" lon="5.52314">
        <ele>1908.1</ele>
        <time>2022-01-19T09:56:15Z</time>
      </trkpt>
      <trkpt lat="44.88137" lon="5.52315">
        <ele>1908.1</ele>
        <time>2022-01-19T09:56:16Z</time>
      </trkpt>
      <trkpt lat="44.88137" lon="5.52316">
        <ele>1908.1</ele>
        <time>2022-01-19T09:56:17Z</time>
      </trkpt>
      <trkpt lat="44.88136" lon="5.52316">
        <ele>1908.1</ele>
        <time>2022-01-19T09:56:18Z</time>
      </trkpt>
      <trkpt lat="44.88135" lon="5.52317">
        <ele>1908.1</ele>
        <time>2022-01-19T09:56:19Z</time>
      </trkpt>
      <trkpt lat="44.88135" lon="5.52318">
        <ele>1908.1</ele>
        <time>2022-01-19T09:56:20Z</time>
      </trkpt>
      <trkpt lat="44.88134" lon="5.52319">
        <ele>1908.1</ele>
        <time>2022-01-19T09:56:21Z</time>
      </trkpt>
      <trkpt lat="44.88134" lon="5.52319">
        <ele>1908.1</ele>
        <time>2022-01-19T09:56:22Z</time>
      </trkpt>
      <trkpt lat="44.88134" lon="5.52319">
        <ele>1908.1</ele>
        <time>2022-01-19T09:56:23Z</time>
      </trkpt>
      <trkpt lat="44.88134" lon="5.5232">
        <ele>1908.1</ele>
        <time>2022-01-19T09:56:24Z</time>
      </trkpt>
      <trkpt lat="44.88134" lon="5.52319">
        <ele>1908.1</ele>
        <time>2022-01-19T09:56:25Z</time>
      </trkpt>
      <trkpt lat="44.88134" lon="5.52319">
        <ele>1908.1</ele>
        <time>2022-01-19T09:56:26Z</time>
      </trkpt>
      <trkpt lat="44.88134" lon="5.52319">
        <ele>1908.1</ele>
        <time>2022-01-19T09:56:27Z</time>
      </trkpt>
      <trkpt lat="44.88134" lon="5.52319">
        <ele>1908.1</ele>
        <time>2022-01-19T09:56:28Z</time>
      </trkpt>
      <trkpt lat="44.88134" lon="5.52319">
        <ele>1908.1</ele>
        <time>2022-01-19T09:56:29Z</time>
      </trkpt>
      <trkpt lat="44.88134" lon="5.52319">
        <ele>1908.1</ele>
        <time>2022-01-19T09:56:30Z</time>
      </trkpt>
      <trkpt lat="44.88134" lon="5.52319">
        <ele>1908.1</ele>
        <time>2022-01-19T09:56:31Z</time>
      </trkpt>
      <trkpt lat="44.88134" lon="5.52319">
        <ele>1908.1</ele>
        <time>2022-01-19T09:56:32Z</time>
      </trkpt>
      <trkpt lat="44.88135" lon="5.52317">
        <ele>1908.1</ele>
        <time>2022-01-19T09:56:33Z</time>
      </trkpt>
      <trkpt lat="44.88136" lon="5.52316">
        <ele>1908.1</ele>
        <time>2022-01-19T09:56:34Z</time>
      </trkpt>
      <trkpt lat="44.88136" lon="5.52316">
        <ele>1908.6</ele>
        <time>2022-01-19T09:56:35Z</time>
      </trkpt>
      <trkpt lat="44.88136" lon="5.52316">
        <ele>1908.6</ele>
        <time>2022-01-19T09:56:36Z</time>
      </trkpt>
      <trkpt lat="44.88136" lon="5.52316">
        <ele>1908.6</ele>
        <time>2022-01-19T09:56:37Z</time>
      </trkpt>
      <trkpt lat="44.88136" lon="5.52316">
        <ele>1908.6</ele>
        <time>2022-01-19T09:56:38Z</time>
      </trkpt>
      <trkpt lat="44.88136" lon="5.52316">
        <ele>1908.6</ele>
        <time>2022-01-19T09:56:39Z</time>
      </trkpt>
      <trkpt lat="44.88137" lon="5.52314">
        <ele>1908.1</ele>
        <time>2022-01-19T09:56:40Z</time>
      </trkpt>
      <trkpt lat="44.88137" lon="5.52313">
        <ele>1908.1</ele>
        <time>2022-01-19T09:56:41Z</time>
      </trkpt>
      <trkpt lat="44.88137" lon="5.52313">
        <ele>1908.1</ele>
        <time>2022-01-19T09:56:42Z</time>
      </trkpt>
      <trkpt lat="44.88138" lon="5.52312">
        <ele>1908.1</ele>
        <time>2022-01-19T09:56:43Z</time>
      </trkpt>
      <trkpt lat="44.88138" lon="5.52312">
        <ele>1908.6</ele>
        <time>2022-01-19T09:56:44Z</time>
      </trkpt>
      <trkpt lat="44.88138" lon="5.52311">
        <ele>1908.6</ele>
        <time>2022-01-19T09:56:45Z</time>
      </trkpt>
      <trkpt lat="44.88138" lon="5.5231">
        <ele>1908.6</ele>
        <time>2022-01-19T09:56:46Z</time>
      </trkpt>
      <trkpt lat="44.88139" lon="5.52309">
        <ele>1908.6</ele>
        <time>2022-01-19T09:56:47Z</time>
      </trkpt>
      <trkpt lat="44.88139" lon="5.52309">
        <ele>1908.6</ele>
        <time>2022-01-19T09:56:48Z</time>
      </trkpt>
      <trkpt lat="44.88139" lon="5.52307">
        <ele>1908.7</ele>
        <time>2022-01-19T09:56:49Z</time>
      </trkpt>
      <trkpt lat="44.8814" lon="5.52306">
        <ele>1908.7</ele>
        <time>2022-01-19T09:56:50Z</time>
      </trkpt>
      <trkpt lat="44.8814" lon="5.52305">
        <ele>1908.7</ele>
        <time>2022-01-19T09:56:51Z</time>
      </trkpt>
      <trkpt lat="44.8814" lon="5.52304">
        <ele>1908.7</ele>
        <time>2022-01-19T09:56:52Z</time>
      </trkpt>
      <trkpt lat="44.8814" lon="5.52303">
        <ele>1908.7</ele>
        <time>2022-01-19T09:56:53Z</time>
      </trkpt>
      <trkpt lat="44.8814" lon="5.52302">
        <ele>1909.2</ele>
        <time>2022-01-19T09:56:54Z</time>
      </trkpt>
      <trkpt lat="44.8814" lon="5.52302">
        <ele>1909.2</ele>
        <time>2022-01-19T09:56:55Z</time>
      </trkpt>
      <trkpt lat="44.88141" lon="5.523">
        <ele>1909.2</ele>
        <time>2022-01-19T09:56:56Z</time>
      </trkpt>
      <trkpt lat="44.88141" lon="5.523">
        <ele>1909.2</ele>
        <time>2022-01-19T09:56:57Z</time>
      </trkpt>
      <trkpt lat="44.88141" lon="5.52299">
        <ele>1909.6</ele>
        <time>2022-01-19T09:56:58Z</time>
      </trkpt>
      <trkpt lat="44.88141" lon="5.52298">
        <ele>1909.6</ele>
        <time>2022-01-19T09:56:59Z</time>
      </trkpt>
      <trkpt lat="44.88142" lon="5.52297">
        <ele>1909.6</ele>
        <time>2022-01-19T09:57:00Z</time>
      </trkpt>
      <trkpt lat="44.88142" lon="5.52297">
        <ele>1909.3</ele>
        <time>2022-01-19T09:57:01Z</time>
      </trkpt>
      <trkpt lat="44.88142" lon="5.52296">
        <ele>1909.3</ele>
        <time>2022-01-19T09:57:02Z</time>
      </trkpt>
      <trkpt lat="44.88142" lon="5.52295">
        <ele>1909.3</ele>
        <time>2022-01-19T09:57:03Z</time>
      </trkpt>
      <trkpt lat="44.88142" lon="5.52294">
        <ele>1909.7</ele>
        <time>2022-01-19T09:57:04Z</time>
      </trkpt>
      <trkpt lat="44.88143" lon="5.52293">
        <ele>1909.7</ele>
        <time>2022-01-19T09:57:05Z</time>
      </trkpt>
      <trkpt lat="44.88143" lon="5.52293">
        <ele>1909.7</ele>
        <time>2022-01-19T09:57:06Z</time>
      </trkpt>
      <trkpt lat="44.88143" lon="5.52292">
        <ele>1909.7</ele>
        <time>2022-01-19T09:57:07Z</time>
      </trkpt>
      <trkpt lat="44.88143" lon="5.52291">
        <ele>1909.7</ele>
        <time>2022-01-19T09:57:08Z</time>
      </trkpt>
      <trkpt lat="44.88144" lon="5.52291">
        <ele>1909.7</ele>
        <time>2022-01-19T09:57:09Z</time>
      </trkpt>
      <trkpt lat="44.88144" lon="5.5229">
        <ele>1910.1</ele>
        <time>2022-01-19T09:57:10Z</time>
      </trkpt>
      <trkpt lat="44.88144" lon="5.52289">
        <ele>1910.1</ele>
        <time>2022-01-19T09:57:11Z</time>
      </trkpt>
      <trkpt lat="44.88144" lon="5.52288">
        <ele>1910.1</ele>
        <time>2022-01-19T09:57:12Z</time>
      </trkpt>
      <trkpt lat="44.88143" lon="5.52288">
        <ele>1910.1</ele>
        <time>2022-01-19T09:57:13Z</time>
      </trkpt>
      <trkpt lat="44.88143" lon="5.52288">
        <ele>1910.1</ele>
        <time>2022-01-19T09:57:14Z</time>
      </trkpt>
      <trkpt lat="44.88142" lon="5.52288">
        <ele>1910.1</ele>
        <time>2022-01-19T09:57:15Z</time>
      </trkpt>
      <trkpt lat="44.88142" lon="5.52288">
        <ele>1910.1</ele>
        <time>2022-01-19T09:57:16Z</time>
      </trkpt>
      <trkpt lat="44.88142" lon="5.52288">
        <ele>1910.1</ele>
        <time>2022-01-19T09:57:17Z</time>
      </trkpt>
      <trkpt lat="44.88142" lon="5.52288">
        <ele>1910.1</ele>
        <time>2022-01-19T09:57:18Z</time>
      </trkpt>
      <trkpt lat="44.88142" lon="5.52288">
        <ele>1910.1</ele>
        <time>2022-01-19T09:57:19Z</time>
      </trkpt>
      <trkpt lat="44.88142" lon="5.52288">
        <ele>1910.1</ele>
        <time>2022-01-19T09:57:20Z</time>
      </trkpt>
      <trkpt lat="44.88142" lon="5.52288">
        <ele>1910.1</ele>
        <time>2022-01-19T09:57:21Z</time>
      </trkpt>
      <trkpt lat="44.88142" lon="5.52288">
        <ele>1910.1</ele>
        <time>2022-01-19T09:57:22Z</time>
      </trkpt>
      <trkpt lat="44.88142" lon="5.52288">
        <ele>1910.1</ele>
        <time>2022-01-19T09:57:23Z</time>
      </trkpt>
      <trkpt lat="44.88142" lon="5.52288">
        <ele>1910.1</ele>
        <time>2022-01-19T09:57:24Z</time>
      </trkpt>
      <trkpt lat="44.88142" lon="5.52288">
        <ele>1910.1</ele>
        <time>2022-01-19T09:57:25Z</time>
      </trkpt>
      <trkpt lat="44.88142" lon="5.52288">
        <ele>1910.1</ele>
        <time>2022-01-19T09:57:26Z</time>
      </trkpt>
      <trkpt lat="44.88142" lon="5.52288">
        <ele>1910.1</ele>
        <time>2022-01-19T09:57:27Z</time>
      </trkpt>
      <trkpt lat="44.88141" lon="5.52289">
        <ele>1910.3</ele>
        <time>2022-01-19T09:57:28Z</time>
      </trkpt>
      <trkpt lat="44.88141" lon="5.52289">
        <ele>1910.3</ele>
        <time>2022-01-19T09:57:29Z</time>
      </trkpt>
      <trkpt lat="44.8814" lon="5.52289">
        <ele>1910.3</ele>
        <time>2022-01-19T09:57:30Z</time>
      </trkpt>
      <trkpt lat="44.8814" lon="5.52289">
        <ele>1910.3</ele>
        <time>2022-01-19T09:57:31Z</time>
      </trkpt>
      <trkpt lat="44.88139" lon="5.5229">
        <ele>1910.3</ele>
        <time>2022-01-19T09:57:32Z</time>
      </trkpt>
      <trkpt lat="44.88139" lon="5.5229">
        <ele>1910.3</ele>
        <time>2022-01-19T09:57:33Z</time>
      </trkpt>
      <trkpt lat="44.88138" lon="5.5229">
        <ele>1910.6</ele>
        <time>2022-01-19T09:57:34Z</time>
      </trkpt>
      <trkpt lat="44.88138" lon="5.5229">
        <ele>1910.6</ele>
        <time>2022-01-19T09:57:35Z</time>
      </trkpt>
      <trkpt lat="44.88138" lon="5.52289">
        <ele>1910.6</ele>
        <time>2022-01-19T09:57:36Z</time>
      </trkpt>
      <trkpt lat="44.88138" lon="5.52288">
        <ele>1910.6</ele>
        <time>2022-01-19T09:57:37Z</time>
      </trkpt>
      <trkpt lat="44.88137" lon="5.52289">
        <ele>1910.6</ele>
        <time>2022-01-19T09:57:38Z</time>
      </trkpt>
      <trkpt lat="44.88137" lon="5.52289">
        <ele>1910.6</ele>
        <time>2022-01-19T09:57:39Z</time>
      </trkpt>
      <trkpt lat="44.88137" lon="5.52289">
        <ele>1910.6</ele>
        <time>2022-01-19T09:57:40Z</time>
      </trkpt>
      <trkpt lat="44.88137" lon="5.52289">
        <ele>1910.6</ele>
        <time>2022-01-19T09:57:41Z</time>
      </trkpt>
      <trkpt lat="44.88136" lon="5.5229">
        <ele>1911</ele>
        <time>2022-01-19T09:57:42Z</time>
      </trkpt>
      <trkpt lat="44.88136" lon="5.52291">
        <ele>1910.7</ele>
        <time>2022-01-19T09:57:43Z</time>
      </trkpt>
      <trkpt lat="44.88135" lon="5.52292">
        <ele>1910.7</ele>
        <time>2022-01-19T09:57:44Z</time>
      </trkpt>
      <trkpt lat="44.88135" lon="5.52292">
        <ele>1910.7</ele>
        <time>2022-01-19T09:57:45Z</time>
      </trkpt>
      <trkpt lat="44.88135" lon="5.52292">
        <ele>1910.7</ele>
        <time>2022-01-19T09:57:46Z</time>
      </trkpt>
      <trkpt lat="44.88135" lon="5.52292">
        <ele>1910.7</ele>
        <time>2022-01-19T09:57:47Z</time>
      </trkpt>
      <trkpt lat="44.88135" lon="5.52292">
        <ele>1910.7</ele>
        <time>2022-01-19T09:57:48Z</time>
      </trkpt>
      <trkpt lat="44.88135" lon="5.52292">
        <ele>1910.7</ele>
        <time>2022-01-19T09:57:49Z</time>
      </trkpt>
      <trkpt lat="44.88135" lon="5.52292">
        <ele>1910.7</ele>
        <time>2022-01-19T09:57:50Z</time>
      </trkpt>
      <trkpt lat="44.88135" lon="5.52292">
        <ele>1910.7</ele>
        <time>2022-01-19T09:57:51Z</time>
      </trkpt>
      <trkpt lat="44.88135" lon="5.52292">
        <ele>1910.7</ele>
        <time>2022-01-19T09:57:52Z</time>
      </trkpt>
      <trkpt lat="44.88135" lon="5.52292">
        <ele>1910.7</ele>
        <time>2022-01-19T09:57:53Z</time>
      </trkpt>
      <trkpt lat="44.88135" lon="5.52292">
        <ele>1910.7</ele>
        <time>2022-01-19T09:57:54Z</time>
      </trkpt>
      <trkpt lat="44.88135" lon="5.52292">
        <ele>1910.7</ele>
        <time>2022-01-19T09:57:55Z</time>
      </trkpt>
      <trkpt lat="44.88135" lon="5.52292">
        <ele>1910.7</ele>
        <time>2022-01-19T09:57:56Z</time>
      </trkpt>
      <trkpt lat="44.88135" lon="5.52292">
        <ele>1910.7</ele>
        <time>2022-01-19T09:57:57Z</time>
      </trkpt>
      <trkpt lat="44.88135" lon="5.52292">
        <ele>1910.7</ele>
        <time>2022-01-19T09:57:58Z</time>
      </trkpt>
      <trkpt lat="44.88135" lon="5.52292">
        <ele>1910.7</ele>
        <time>2022-01-19T09:57:59Z</time>
      </trkpt>
      <trkpt lat="44.88135" lon="5.52292">
        <ele>1910.7</ele>
        <time>2022-01-19T09:58:00Z</time>
      </trkpt>
      <trkpt lat="44.88135" lon="5.52292">
        <ele>1910.7</ele>
        <time>2022-01-19T09:58:01Z</time>
      </trkpt>
      <trkpt lat="44.88134" lon="5.5229">
        <ele>1911</ele>
        <time>2022-01-19T09:58:02Z</time>
      </trkpt>
      <trkpt lat="44.88134" lon="5.5229">
        <ele>1911</ele>
        <time>2022-01-19T09:58:03Z</time>
      </trkpt>
      <trkpt lat="44.88134" lon="5.5229">
        <ele>1911</ele>
        <time>2022-01-19T09:58:04Z</time>
      </trkpt>
      <trkpt lat="44.88134" lon="5.52289">
        <ele>1911</ele>
        <time>2022-01-19T09:58:05Z</time>
      </trkpt>
      <trkpt lat="44.88134" lon="5.52289">
        <ele>1911</ele>
        <time>2022-01-19T09:58:06Z</time>
      </trkpt>
      <trkpt lat="44.88134" lon="5.52289">
        <ele>1911</ele>
        <time>2022-01-19T09:58:07Z</time>
      </trkpt>
      <trkpt lat="44.88134" lon="5.52289">
        <ele>1911</ele>
        <time>2022-01-19T09:58:08Z</time>
      </trkpt>
      <trkpt lat="44.88134" lon="5.52289">
        <ele>1911</ele>
        <time>2022-01-19T09:58:09Z</time>
      </trkpt>
      <trkpt lat="44.88136" lon="5.52286">
        <ele>1910.9</ele>
        <time>2022-01-19T09:58:10Z</time>
      </trkpt>
      <trkpt lat="44.88137" lon="5.52285">
        <ele>1910.9</ele>
        <time>2022-01-19T09:58:11Z</time>
      </trkpt>
      <trkpt lat="44.88137" lon="5.52285">
        <ele>1910.9</ele>
        <time>2022-01-19T09:58:12Z</time>
      </trkpt>
      <trkpt lat="44.88139" lon="5.52283">
        <ele>1910.9</ele>
        <time>2022-01-19T09:58:13Z</time>
      </trkpt>
      <trkpt lat="44.88139" lon="5.52282">
        <ele>1911.1</ele>
        <time>2022-01-19T09:58:14Z</time>
      </trkpt>
      <trkpt lat="44.88139" lon="5.52282">
        <ele>1911.1</ele>
        <time>2022-01-19T09:58:15Z</time>
      </trkpt>
      <trkpt lat="44.88138" lon="5.52281">
        <ele>1911.1</ele>
        <time>2022-01-19T09:58:16Z</time>
      </trkpt>
      <trkpt lat="44.88138" lon="5.52281">
        <ele>1911.1</ele>
        <time>2022-01-19T09:58:17Z</time>
      </trkpt>
      <trkpt lat="44.88138" lon="5.52281">
        <ele>1911.1</ele>
        <time>2022-01-19T09:58:18Z</time>
      </trkpt>
      <trkpt lat="44.88138" lon="5.5228">
        <ele>1911.1</ele>
        <time>2022-01-19T09:58:19Z</time>
      </trkpt>
      <trkpt lat="44.88138" lon="5.5228">
        <ele>1911.1</ele>
        <time>2022-01-19T09:58:20Z</time>
      </trkpt>
      <trkpt lat="44.88138" lon="5.5228">
        <ele>1911.1</ele>
        <time>2022-01-19T09:58:21Z</time>
      </trkpt>
      <trkpt lat="44.88138" lon="5.5228">
        <ele>1911.1</ele>
        <time>2022-01-19T09:58:22Z</time>
      </trkpt>
      <trkpt lat="44.88138" lon="5.52279">
        <ele>1911.1</ele>
        <time>2022-01-19T09:58:23Z</time>
      </trkpt>
      <trkpt lat="44.88138" lon="5.52279">
        <ele>1911.1</ele>
        <time>2022-01-19T09:58:24Z</time>
      </trkpt>
      <trkpt lat="44.88138" lon="5.52279">
        <ele>1911.1</ele>
        <time>2022-01-19T09:58:25Z</time>
      </trkpt>
      <trkpt lat="44.88138" lon="5.52279">
        <ele>1911.1</ele>
        <time>2022-01-19T09:58:26Z</time>
      </trkpt>
      <trkpt lat="44.88138" lon="5.52278">
        <ele>1911.1</ele>
        <time>2022-01-19T09:58:27Z</time>
      </trkpt>
      <trkpt lat="44.88138" lon="5.52278">
        <ele>1911.1</ele>
        <time>2022-01-19T09:58:28Z</time>
      </trkpt>
      <trkpt lat="44.88138" lon="5.52278">
        <ele>1911.1</ele>
        <time>2022-01-19T09:58:29Z</time>
      </trkpt>
      <trkpt lat="44.88138" lon="5.52278">
        <ele>1911.3</ele>
        <time>2022-01-19T09:58:30Z</time>
      </trkpt>
      <trkpt lat="44.88138" lon="5.52277">
        <ele>1911.3</ele>
        <time>2022-01-19T09:58:31Z</time>
      </trkpt>
      <trkpt lat="44.88137" lon="5.52277">
        <ele>1911.3</ele>
        <time>2022-01-19T09:58:32Z</time>
      </trkpt>
      <trkpt lat="44.88137" lon="5.52277">
        <ele>1911.3</ele>
        <time>2022-01-19T09:58:33Z</time>
      </trkpt>
      <trkpt lat="44.88137" lon="5.52276">
        <ele>1911.3</ele>
        <time>2022-01-19T09:58:34Z</time>
      </trkpt>
      <trkpt lat="44.88137" lon="5.52276">
        <ele>1911.3</ele>
        <time>2022-01-19T09:58:35Z</time>
      </trkpt>
      <trkpt lat="44.88137" lon="5.52276">
        <ele>1911.3</ele>
        <time>2022-01-19T09:58:36Z</time>
      </trkpt>
      <trkpt lat="44.88137" lon="5.52276">
        <ele>1911.3</ele>
        <time>2022-01-19T09:58:37Z</time>
      </trkpt>
      <trkpt lat="44.88137" lon="5.52275">
        <ele>1911.3</ele>
        <time>2022-01-19T09:58:38Z</time>
      </trkpt>
      <trkpt lat="44.88137" lon="5.52275">
        <ele>1911.3</ele>
        <time>2022-01-19T09:58:39Z</time>
      </trkpt>
      <trkpt lat="44.88137" lon="5.52275">
        <ele>1911.3</ele>
        <time>2022-01-19T09:58:40Z</time>
      </trkpt>
      <trkpt lat="44.88137" lon="5.52275">
        <ele>1911.3</ele>
        <time>2022-01-19T09:58:41Z</time>
      </trkpt>
      <trkpt lat="44.88137" lon="5.52274">
        <ele>1911.3</ele>
        <time>2022-01-19T09:58:42Z</time>
      </trkpt>
      <trkpt lat="44.88137" lon="5.52274">
        <ele>1911.3</ele>
        <time>2022-01-19T09:58:43Z</time>
      </trkpt>
      <trkpt lat="44.88137" lon="5.52274">
        <ele>1911.3</ele>
        <time>2022-01-19T09:58:44Z</time>
      </trkpt>
      <trkpt lat="44.88137" lon="5.52273">
        <ele>1911.3</ele>
        <time>2022-01-19T09:58:45Z</time>
      </trkpt>
      <trkpt lat="44.88137" lon="5.52273">
        <ele>1911.4</ele>
        <time>2022-01-19T09:58:46Z</time>
      </trkpt>
      <trkpt lat="44.88137" lon="5.52273">
        <ele>1911.4</ele>
        <time>2022-01-19T09:58:47Z</time>
      </trkpt>
      <trkpt lat="44.88137" lon="5.52273">
        <ele>1911.4</ele>
        <time>2022-01-19T09:58:48Z</time>
      </trkpt>
      <trkpt lat="44.88136" lon="5.52272">
        <ele>1911.4</ele>
        <time>2022-01-19T09:58:49Z</time>
      </trkpt>
      <trkpt lat="44.88136" lon="5.52272">
        <ele>1911.4</ele>
        <time>2022-01-19T09:58:50Z</time>
      </trkpt>
      <trkpt lat="44.88136" lon="5.52272">
        <ele>1911.4</ele>
        <time>2022-01-19T09:58:51Z</time>
      </trkpt>
      <trkpt lat="44.88136" lon="5.52272">
        <ele>1911.4</ele>
        <time>2022-01-19T09:58:52Z</time>
      </trkpt>
      <trkpt lat="44.88136" lon="5.52271">
        <ele>1911.4</ele>
        <time>2022-01-19T09:58:53Z</time>
      </trkpt>
      <trkpt lat="44.88136" lon="5.52271">
        <ele>1911.4</ele>
        <time>2022-01-19T09:58:54Z</time>
      </trkpt>
      <trkpt lat="44.88136" lon="5.52271">
        <ele>1911.4</ele>
        <time>2022-01-19T09:58:55Z</time>
      </trkpt>
      <trkpt lat="44.88136" lon="5.52271">
        <ele>1911.4</ele>
        <time>2022-01-19T09:58:56Z</time>
      </trkpt>
      <trkpt lat="44.88136" lon="5.5227">
        <ele>1911.4</ele>
        <time>2022-01-19T09:58:57Z</time>
      </trkpt>
      <trkpt lat="44.88136" lon="5.5227">
        <ele>1911.4</ele>
        <time>2022-01-19T09:58:58Z</time>
      </trkpt>
      <trkpt lat="44.88136" lon="5.5227">
        <ele>1911.4</ele>
        <time>2022-01-19T09:58:59Z</time>
      </trkpt>
      <trkpt lat="44.88136" lon="5.52269">
        <ele>1911.4</ele>
        <time>2022-01-19T09:59:00Z</time>
      </trkpt>
      <trkpt lat="44.88136" lon="5.52269">
        <ele>1911.4</ele>
        <time>2022-01-19T09:59:01Z</time>
      </trkpt>
      <trkpt lat="44.88136" lon="5.52269">
        <ele>1911.8</ele>
        <time>2022-01-19T09:59:02Z</time>
      </trkpt>
      <trkpt lat="44.88136" lon="5.52269">
        <ele>1911.8</ele>
        <time>2022-01-19T09:59:03Z</time>
      </trkpt>
      <trkpt lat="44.88136" lon="5.52268">
        <ele>1911.8</ele>
        <time>2022-01-19T09:59:04Z</time>
      </trkpt>
      <trkpt lat="44.88135" lon="5.52268">
        <ele>1911.8</ele>
        <time>2022-01-19T09:59:05Z</time>
      </trkpt>
      <trkpt lat="44.88135" lon="5.52268">
        <ele>1911.8</ele>
        <time>2022-01-19T09:59:06Z</time>
      </trkpt>
      <trkpt lat="44.88135" lon="5.52268">
        <ele>1911.8</ele>
        <time>2022-01-19T09:59:07Z</time>
      </trkpt>
      <trkpt lat="44.88135" lon="5.52267">
        <ele>1911.8</ele>
        <time>2022-01-19T09:59:08Z</time>
      </trkpt>
      <trkpt lat="44.88135" lon="5.52267">
        <ele>1911.8</ele>
        <time>2022-01-19T09:59:09Z</time>
      </trkpt>
      <trkpt lat="44.88135" lon="5.52267">
        <ele>1911.8</ele>
        <time>2022-01-19T09:59:10Z</time>
      </trkpt>
      <trkpt lat="44.88135" lon="5.52266">
        <ele>1911.8</ele>
        <time>2022-01-19T09:59:11Z</time>
      </trkpt>
      <trkpt lat="44.88135" lon="5.52266">
        <ele>1911.8</ele>
        <time>2022-01-19T09:59:12Z</time>
      </trkpt>
      <trkpt lat="44.88135" lon="5.52266">
        <ele>1911.8</ele>
        <time>2022-01-19T09:59:13Z</time>
      </trkpt>
      <trkpt lat="44.88135" lon="5.52266">
        <ele>1911.8</ele>
        <time>2022-01-19T09:59:14Z</time>
      </trkpt>
      <trkpt lat="44.88135" lon="5.52265">
        <ele>1911.8</ele>
        <time>2022-01-19T09:59:15Z</time>
      </trkpt>
      <trkpt lat="44.88135" lon="5.52265">
        <ele>1911.8</ele>
        <time>2022-01-19T09:59:16Z</time>
      </trkpt>
      <trkpt lat="44.88135" lon="5.52265">
        <ele>1911.8</ele>
        <time>2022-01-19T09:59:17Z</time>
      </trkpt>
      <trkpt lat="44.88135" lon="5.52265">
        <ele>1911.8</ele>
        <time>2022-01-19T09:59:18Z</time>
      </trkpt>
      <trkpt lat="44.88135" lon="5.52264">
        <ele>1911.8</ele>
        <time>2022-01-19T09:59:19Z</time>
      </trkpt>
      <trkpt lat="44.88135" lon="5.52264">
        <ele>1911.8</ele>
        <time>2022-01-19T09:59:20Z</time>
      </trkpt>
      <trkpt lat="44.88135" lon="5.52264">
        <ele>1911.8</ele>
        <time>2022-01-19T09:59:21Z</time>
      </trkpt>
      <trkpt lat="44.88134" lon="5.52264">
        <ele>1911.8</ele>
        <time>2022-01-19T09:59:22Z</time>
      </trkpt>
      <trkpt lat="44.88134" lon="5.52263">
        <ele>1911.8</ele>
        <time>2022-01-19T09:59:23Z</time>
      </trkpt>
      <trkpt lat="44.88134" lon="5.52263">
        <ele>1911.8</ele>
        <time>2022-01-19T09:59:24Z</time>
      </trkpt>
      <trkpt lat="44.88134" lon="5.52263">
        <ele>1911.8</ele>
        <time>2022-01-19T09:59:25Z</time>
      </trkpt>
      <trkpt lat="44.88134" lon="5.52262">
        <ele>1911.8</ele>
        <time>2022-01-19T09:59:26Z</time>
      </trkpt>
      <trkpt lat="44.88134" lon="5.52262">
        <ele>1911.8</ele>
        <time>2022-01-19T09:59:27Z</time>
      </trkpt>
      <trkpt lat="44.88134" lon="5.52262">
        <ele>1911.8</ele>
        <time>2022-01-19T09:59:28Z</time>
      </trkpt>
      <trkpt lat="44.88134" lon="5.52262">
        <ele>1911.8</ele>
        <time>2022-01-19T09:59:29Z</time>
      </trkpt>
      <trkpt lat="44.88134" lon="5.52261">
        <ele>1911.8</ele>
        <time>2022-01-19T09:59:30Z</time>
      </trkpt>
      <trkpt lat="44.88134" lon="5.52261">
        <ele>1911.8</ele>
        <time>2022-01-19T09:59:31Z</time>
      </trkpt>
      <trkpt lat="44.88134" lon="5.52261">
        <ele>1911.8</ele>
        <time>2022-01-19T09:59:32Z</time>
      </trkpt>
      <trkpt lat="44.88134" lon="5.52261">
        <ele>1911.8</ele>
        <time>2022-01-19T09:59:33Z</time>
      </trkpt>
      <trkpt lat="44.88134" lon="5.5226">
        <ele>1911.8</ele>
        <time>2022-01-19T09:59:34Z</time>
      </trkpt>
      <trkpt lat="44.88134" lon="5.5226">
        <ele>1911.8</ele>
        <time>2022-01-19T09:59:35Z</time>
      </trkpt>
      <trkpt lat="44.88134" lon="5.5226">
        <ele>1911.8</ele>
        <time>2022-01-19T09:59:36Z</time>
      </trkpt>
      <trkpt lat="44.88134" lon="5.52259">
        <ele>1911.8</ele>
        <time>2022-01-19T09:59:37Z</time>
      </trkpt>
      <trkpt lat="44.88133" lon="5.52259">
        <ele>1911.8</ele>
        <time>2022-01-19T09:59:38Z</time>
      </trkpt>
      <trkpt lat="44.88133" lon="5.52259">
        <ele>1911.8</ele>
        <time>2022-01-19T09:59:39Z</time>
      </trkpt>
      <trkpt lat="44.88133" lon="5.52259">
        <ele>1911.8</ele>
        <time>2022-01-19T09:59:40Z</time>
      </trkpt>
      <trkpt lat="44.88133" lon="5.52258">
        <ele>1911.8</ele>
        <time>2022-01-19T09:59:41Z</time>
      </trkpt>
      <trkpt lat="44.88133" lon="5.52258">
        <ele>1911.8</ele>
        <time>2022-01-19T09:59:42Z</time>
      </trkpt>
      <trkpt lat="44.88133" lon="5.52258">
        <ele>1911.8</ele>
        <time>2022-01-19T09:59:43Z</time>
      </trkpt>
      <trkpt lat="44.88133" lon="5.52258">
        <ele>1911.8</ele>
        <time>2022-01-19T09:59:44Z</time>
      </trkpt>
      <trkpt lat="44.88133" lon="5.52257">
        <ele>1911.8</ele>
        <time>2022-01-19T09:59:45Z</time>
      </trkpt>
      <trkpt lat="44.88133" lon="5.52257">
        <ele>1911.8</ele>
        <time>2022-01-19T09:59:46Z</time>
      </trkpt>
      <trkpt lat="44.88133" lon="5.52257">
        <ele>1911.8</ele>
        <time>2022-01-19T09:59:47Z</time>
      </trkpt>
      <trkpt lat="44.88133" lon="5.52257">
        <ele>1911.8</ele>
        <time>2022-01-19T09:59:48Z</time>
      </trkpt>
      <trkpt lat="44.88133" lon="5.52256">
        <ele>1911.8</ele>
        <time>2022-01-19T09:59:49Z</time>
      </trkpt>
      <trkpt lat="44.88133" lon="5.52255">
        <ele>1912</ele>
        <time>2022-01-19T09:59:50Z</time>
      </trkpt>
      <trkpt lat="44.88133" lon="5.52255">
        <ele>1912</ele>
        <time>2022-01-19T09:59:51Z</time>
      </trkpt>
      <trkpt lat="44.88133" lon="5.52255">
        <ele>1912</ele>
        <time>2022-01-19T09:59:52Z</time>
      </trkpt>
      <trkpt lat="44.88132" lon="5.52254">
        <ele>1912</ele>
        <time>2022-01-19T09:59:53Z</time>
      </trkpt>
      <trkpt lat="44.88132" lon="5.52254">
        <ele>1912</ele>
        <time>2022-01-19T09:59:54Z</time>
      </trkpt>
      <trkpt lat="44.88131" lon="5.52254">
        <ele>1912</ele>
        <time>2022-01-19T09:59:55Z</time>
      </trkpt>
      <trkpt lat="44.88131" lon="5.52254">
        <ele>1912</ele>
        <time>2022-01-19T09:59:56Z</time>
      </trkpt>
      <trkpt lat="44.88131" lon="5.52254">
        <ele>1912</ele>
        <time>2022-01-19T09:59:57Z</time>
      </trkpt>
      <trkpt lat="44.88131" lon="5.52254">
        <ele>1912</ele>
        <time>2022-01-19T09:59:58Z</time>
      </trkpt>
      <trkpt lat="44.88131" lon="5.52254">
        <ele>1912</ele>
        <time>2022-01-19T09:59:59Z</time>
      </trkpt>
      <trkpt lat="44.88131" lon="5.52254">
        <ele>1912</ele>
        <time>2022-01-19T10:00:00Z</time>
      </trkpt>
      <trkpt lat="44.88131" lon="5.52254">
        <ele>1912</ele>
        <time>2022-01-19T10:00:01Z</time>
      </trkpt>
      <trkpt lat="44.88131" lon="5.52254">
        <ele>1912</ele>
        <time>2022-01-19T10:00:02Z</time>
      </trkpt>
      <trkpt lat="44.88131" lon="5.52254">
        <ele>1912</ele>
        <time>2022-01-19T10:00:03Z</time>
      </trkpt>
      <trkpt lat="44.88131" lon="5.52254">
        <ele>1912</ele>
        <time>2022-01-19T10:00:04Z</time>
      </trkpt>
      <trkpt lat="44.88131" lon="5.52254">
        <ele>1912</ele>
        <time>2022-01-19T10:00:05Z</time>
      </trkpt>
      <trkpt lat="44.88131" lon="5.52254">
        <ele>1912</ele>
        <time>2022-01-19T10:00:06Z</time>
      </trkpt>
      <trkpt lat="44.88131" lon="5.52254">
        <ele>1912</ele>
        <time>2022-01-19T10:00:07Z</time>
      </trkpt>
      <trkpt lat="44.88131" lon="5.52254">
        <ele>1912</ele>
        <time>2022-01-19T10:00:08Z</time>
      </trkpt>
      <trkpt lat="44.88131" lon="5.52254">
        <ele>1912</ele>
        <time>2022-01-19T10:00:09Z</time>
      </trkpt>
      <trkpt lat="44.88131" lon="5.52254">
        <ele>1912</ele>
        <time>2022-01-19T10:00:10Z</time>
      </trkpt>
      <trkpt lat="44.88131" lon="5.52254">
        <ele>1912</ele>
        <time>2022-01-19T10:00:11Z</time>
      </trkpt>
      <trkpt lat="44.88131" lon="5.52254">
        <ele>1912</ele>
        <time>2022-01-19T10:00:12Z</time>
      </trkpt>
      <trkpt lat="44.88131" lon="5.52254">
        <ele>1912</ele>
        <time>2022-01-19T10:00:13Z</time>
      </trkpt>
      <trkpt lat="44.88131" lon="5.52254">
        <ele>1912</ele>
        <time>2022-01-19T10:00:14Z</time>
      </trkpt>
      <trkpt lat="44.88131" lon="5.52254">
        <ele>1912</ele>
        <time>2022-01-19T10:00:15Z</time>
      </trkpt>
      <trkpt lat="44.88131" lon="5.52254">
        <ele>1912</ele>
        <time>2022-01-19T10:00:16Z</time>
      </trkpt>
      <trkpt lat="44.88131" lon="5.52254">
        <ele>1912</ele>
        <time>2022-01-19T10:00:17Z</time>
      </trkpt>
      <trkpt lat="44.88131" lon="5.52254">
        <ele>1912</ele>
        <time>2022-01-19T10:00:18Z</time>
      </trkpt>
      <trkpt lat="44.88131" lon="5.52254">
        <ele>1912</ele>
        <time>2022-01-19T10:00:19Z</time>
      </trkpt>
      <trkpt lat="44.88131" lon="5.52254">
        <ele>1912</ele>
        <time>2022-01-19T10:00:20Z</time>
      </trkpt>
      <trkpt lat="44.88131" lon="5.52254">
        <ele>1912</ele>
        <time>2022-01-19T10:00:21Z</time>
      </trkpt>
      <trkpt lat="44.88131" lon="5.52254">
        <ele>1912</ele>
        <time>2022-01-19T10:00:22Z</time>
      </trkpt>
      <trkpt lat="44.88131" lon="5.52254">
        <ele>1912</ele>
        <time>2022-01-19T10:00:23Z</time>
      </trkpt>
      <trkpt lat="44.88131" lon="5.52254">
        <ele>1912</ele>
        <time>2022-01-19T10:00:24Z</time>
      </trkpt>
      <trkpt lat="44.88131" lon="5.52254">
        <ele>1912</ele>
        <time>2022-01-19T10:00:25Z</time>
      </trkpt>
      <trkpt lat="44.88131" lon="5.52254">
        <ele>1912</ele>
        <time>2022-01-19T10:00:26Z</time>
      </trkpt>
      <trkpt lat="44.88131" lon="5.52254">
        <ele>1912</ele>
        <time>2022-01-19T10:00:27Z</time>
      </trkpt>
      <trkpt lat="44.88131" lon="5.52254">
        <ele>1912</ele>
        <time>2022-01-19T10:00:28Z</time>
      </trkpt>
      <trkpt lat="44.88131" lon="5.52254">
        <ele>1912</ele>
        <time>2022-01-19T10:00:29Z</time>
      </trkpt>
      <trkpt lat="44.88131" lon="5.52254">
        <ele>1912</ele>
        <time>2022-01-19T10:00:30Z</time>
      </trkpt>
      <trkpt lat="44.88131" lon="5.52254">
        <ele>1912</ele>
        <time>2022-01-19T10:00:31Z</time>
      </trkpt>
      <trkpt lat="44.88131" lon="5.52254">
        <ele>1912</ele>
        <time>2022-01-19T10:00:32Z</time>
      </trkpt>
      <trkpt lat="44.88131" lon="5.52254">
        <ele>1912</ele>
        <time>2022-01-19T10:00:33Z</time>
      </trkpt>
      <trkpt lat="44.88131" lon="5.52254">
        <ele>1912</ele>
        <time>2022-01-19T10:00:34Z</time>
      </trkpt>
      <trkpt lat="44.88131" lon="5.52254">
        <ele>1912</ele>
        <time>2022-01-19T10:00:35Z</time>
      </trkpt>
      <trkpt lat="44.88131" lon="5.52254">
        <ele>1912</ele>
        <time>2022-01-19T10:00:36Z</time>
      </trkpt>
      <trkpt lat="44.88131" lon="5.52254">
        <ele>1912</ele>
        <time>2022-01-19T10:00:37Z</time>
      </trkpt>
      <trkpt lat="44.88131" lon="5.52254">
        <ele>1912</ele>
        <time>2022-01-19T10:00:38Z</time>
      </trkpt>
      <trkpt lat="44.88131" lon="5.52254">
        <ele>1912</ele>
        <time>2022-01-19T10:00:39Z</time>
      </trkpt>
      <trkpt lat="44.88131" lon="5.52254">
        <ele>1912</ele>
        <time>2022-01-19T10:00:40Z</time>
      </trkpt>
      <trkpt lat="44.88131" lon="5.52254">
        <ele>1912</ele>
        <time>2022-01-19T10:00:41Z</time>
      </trkpt>
      <trkpt lat="44.88131" lon="5.52254">
        <ele>1912</ele>
        <time>2022-01-19T10:00:42Z</time>
      </trkpt>
      <trkpt lat="44.88131" lon="5.52254">
        <ele>1912</ele>
        <time>2022-01-19T10:00:43Z</time>
      </trkpt>
      <trkpt lat="44.88132" lon="5.52257">
        <ele>1912.1</ele>
        <time>2022-01-19T10:00:44Z</time>
      </trkpt>
      <trkpt lat="44.88132" lon="5.52258">
        <ele>1912.1</ele>
        <time>2022-01-19T10:00:45Z</time>
      </trkpt>
      <trkpt lat="44.88132" lon="5.52258">
        <ele>1912.1</ele>
        <time>2022-01-19T10:00:46Z</time>
      </trkpt>
      <trkpt lat="44.88132" lon="5.52258">
        <ele>1912.1</ele>
        <time>2022-01-19T10:00:47Z</time>
      </trkpt>
      <trkpt lat="44.88132" lon="5.52258">
        <ele>1912.1</ele>
        <time>2022-01-19T10:00:48Z</time>
      </trkpt>
      <trkpt lat="44.88132" lon="5.52258">
        <ele>1912.1</ele>
        <time>2022-01-19T10:00:49Z</time>
      </trkpt>
      <trkpt lat="44.88132" lon="5.52258">
        <ele>1912.1</ele>
        <time>2022-01-19T10:00:50Z</time>
      </trkpt>
      <trkpt lat="44.88132" lon="5.52258">
        <ele>1912.1</ele>
        <time>2022-01-19T10:00:51Z</time>
      </trkpt>
      <trkpt lat="44.88132" lon="5.52258">
        <ele>1912.1</ele>
        <time>2022-01-19T10:00:52Z</time>
      </trkpt>
      <trkpt lat="44.88131" lon="5.52258">
        <ele>1912.1</ele>
        <time>2022-01-19T10:00:53Z</time>
      </trkpt>
      <trkpt lat="44.88131" lon="5.52258">
        <ele>1912.1</ele>
        <time>2022-01-19T10:00:54Z</time>
      </trkpt>
      <trkpt lat="44.88131" lon="5.52258">
        <ele>1912.1</ele>
        <time>2022-01-19T10:00:55Z</time>
      </trkpt>
      <trkpt lat="44.88131" lon="5.52258">
        <ele>1912.1</ele>
        <time>2022-01-19T10:00:56Z</time>
      </trkpt>
      <trkpt lat="44.88131" lon="5.52258">
        <ele>1912.1</ele>
        <time>2022-01-19T10:00:57Z</time>
      </trkpt>
      <trkpt lat="44.88131" lon="5.52258">
        <ele>1912.1</ele>
        <time>2022-01-19T10:00:58Z</time>
      </trkpt>
      <trkpt lat="44.88131" lon="5.52258">
        <ele>1912.1</ele>
        <time>2022-01-19T10:00:59Z</time>
      </trkpt>
      <trkpt lat="44.88131" lon="5.52258">
        <ele>1912.1</ele>
        <time>2022-01-19T10:01:00Z</time>
      </trkpt>
      <trkpt lat="44.88131" lon="5.52258">
        <ele>1912.1</ele>
        <time>2022-01-19T10:01:01Z</time>
      </trkpt>
      <trkpt lat="44.88131" lon="5.52258">
        <ele>1912.1</ele>
        <time>2022-01-19T10:01:02Z</time>
      </trkpt>
      <trkpt lat="44.88131" lon="5.52258">
        <ele>1912.1</ele>
        <time>2022-01-19T10:01:03Z</time>
      </trkpt>
      <trkpt lat="44.88131" lon="5.52258">
        <ele>1912.1</ele>
        <time>2022-01-19T10:01:04Z</time>
      </trkpt>
      <trkpt lat="44.88131" lon="5.52258">
        <ele>1912.1</ele>
        <time>2022-01-19T10:01:05Z</time>
      </trkpt>
      <trkpt lat="44.88131" lon="5.52258">
        <ele>1912.1</ele>
        <time>2022-01-19T10:01:06Z</time>
      </trkpt>
      <trkpt lat="44.88131" lon="5.52258">
        <ele>1912.1</ele>
        <time>2022-01-19T10:01:07Z</time>
      </trkpt>
      <trkpt lat="44.88131" lon="5.52258">
        <ele>1912.1</ele>
        <time>2022-01-19T10:01:08Z</time>
      </trkpt>
      <trkpt lat="44.88131" lon="5.52258">
        <ele>1912.1</ele>
        <time>2022-01-19T10:01:09Z</time>
      </trkpt>
      <trkpt lat="44.88131" lon="5.52258">
        <ele>1912.1</ele>
        <time>2022-01-19T10:01:10Z</time>
      </trkpt>
      <trkpt lat="44.88131" lon="5.52258">
        <ele>1912.1</ele>
        <time>2022-01-19T10:01:11Z</time>
      </trkpt>
      <trkpt lat="44.88131" lon="5.52258">
        <ele>1912.1</ele>
        <time>2022-01-19T10:01:12Z</time>
      </trkpt>
      <trkpt lat="44.88131" lon="5.52258">
        <ele>1912.1</ele>
        <time>2022-01-19T10:01:13Z</time>
      </trkpt>
      <trkpt lat="44.88131" lon="5.52258">
        <ele>1912.1</ele>
        <time>2022-01-19T10:01:14Z</time>
      </trkpt>
      <trkpt lat="44.88131" lon="5.52258">
        <ele>1912.1</ele>
        <time>2022-01-19T10:01:15Z</time>
      </trkpt>
      <trkpt lat="44.88131" lon="5.52258">
        <ele>1912.1</ele>
        <time>2022-01-19T10:01:16Z</time>
      </trkpt>
      <trkpt lat="44.88131" lon="5.52258">
        <ele>1912.1</ele>
        <time>2022-01-19T10:01:17Z</time>
      </trkpt>
      <trkpt lat="44.88131" lon="5.52258">
        <ele>1912.1</ele>
        <time>2022-01-19T10:01:18Z</time>
      </trkpt>
      <trkpt lat="44.88131" lon="5.52258">
        <ele>1912.1</ele>
        <time>2022-01-19T10:01:19Z</time>
      </trkpt>
      <trkpt lat="44.88131" lon="5.52258">
        <ele>1912.1</ele>
        <time>2022-01-19T10:01:20Z</time>
      </trkpt>
      <trkpt lat="44.88131" lon="5.52258">
        <ele>1912.1</ele>
        <time>2022-01-19T10:01:21Z</time>
      </trkpt>
      <trkpt lat="44.88131" lon="5.52258">
        <ele>1912.1</ele>
        <time>2022-01-19T10:01:22Z</time>
      </trkpt>
      <trkpt lat="44.88131" lon="5.52258">
        <ele>1912.1</ele>
        <time>2022-01-19T10:01:23Z</time>
      </trkpt>
      <trkpt lat="44.88131" lon="5.52258">
        <ele>1912.1</ele>
        <time>2022-01-19T10:01:24Z</time>
      </trkpt>
      <trkpt lat="44.88131" lon="5.52258">
        <ele>1912.1</ele>
        <time>2022-01-19T10:01:25Z</time>
      </trkpt>
      <trkpt lat="44.88131" lon="5.52258">
        <ele>1912.1</ele>
        <time>2022-01-19T10:01:26Z</time>
      </trkpt>
      <trkpt lat="44.88131" lon="5.52258">
        <ele>1912.1</ele>
        <time>2022-01-19T10:01:27Z</time>
      </trkpt>
      <trkpt lat="44.88131" lon="5.52258">
        <ele>1912.1</ele>
        <time>2022-01-19T10:01:28Z</time>
      </trkpt>
      <trkpt lat="44.88131" lon="5.52258">
        <ele>1912.1</ele>
        <time>2022-01-19T10:01:29Z</time>
      </trkpt>
      <trkpt lat="44.88131" lon="5.52258">
        <ele>1912.1</ele>
        <time>2022-01-19T10:01:30Z</time>
      </trkpt>
      <trkpt lat="44.88131" lon="5.52258">
        <ele>1912.1</ele>
        <time>2022-01-19T10:01:31Z</time>
      </trkpt>
      <trkpt lat="44.88131" lon="5.52258">
        <ele>1912.1</ele>
        <time>2022-01-19T10:01:32Z</time>
      </trkpt>
      <trkpt lat="44.88131" lon="5.52258">
        <ele>1912.1</ele>
        <time>2022-01-19T10:01:33Z</time>
      </trkpt>
      <trkpt lat="44.88131" lon="5.52258">
        <ele>1912.1</ele>
        <time>2022-01-19T10:01:34Z</time>
      </trkpt>
      <trkpt lat="44.88131" lon="5.52258">
        <ele>1912.1</ele>
        <time>2022-01-19T10:01:35Z</time>
      </trkpt>
      <trkpt lat="44.88131" lon="5.52258">
        <ele>1912.1</ele>
        <time>2022-01-19T10:01:36Z</time>
      </trkpt>
      <trkpt lat="44.88131" lon="5.52258">
        <ele>1912.1</ele>
        <time>2022-01-19T10:01:37Z</time>
      </trkpt>
      <trkpt lat="44.88131" lon="5.52258">
        <ele>1912.1</ele>
        <time>2022-01-19T10:01:38Z</time>
      </trkpt>
      <trkpt lat="44.88131" lon="5.52258">
        <ele>1912.1</ele>
        <time>2022-01-19T10:01:39Z</time>
      </trkpt>
      <trkpt lat="44.88131" lon="5.52258">
        <ele>1912.1</ele>
        <time>2022-01-19T10:01:40Z</time>
      </trkpt>
      <trkpt lat="44.88131" lon="5.52258">
        <ele>1912.1</ele>
        <time>2022-01-19T10:01:41Z</time>
      </trkpt>
      <trkpt lat="44.88131" lon="5.52258">
        <ele>1912.1</ele>
        <time>2022-01-19T10:01:42Z</time>
      </trkpt>
      <trkpt lat="44.88131" lon="5.52258">
        <ele>1912.1</ele>
        <time>2022-01-19T10:01:43Z</time>
      </trkpt>
      <trkpt lat="44.88131" lon="5.52258">
        <ele>1912.1</ele>
        <time>2022-01-19T10:01:44Z</time>
      </trkpt>
      <trkpt lat="44.88131" lon="5.52258">
        <ele>1912.1</ele>
        <time>2022-01-19T10:01:45Z</time>
      </trkpt>
      <trkpt lat="44.88131" lon="5.52258">
        <ele>1912.1</ele>
        <time>2022-01-19T10:01:46Z</time>
      </trkpt>
      <trkpt lat="44.88131" lon="5.52258">
        <ele>1912.1</ele>
        <time>2022-01-19T10:01:47Z</time>
      </trkpt>
      <trkpt lat="44.88131" lon="5.52258">
        <ele>1912.1</ele>
        <time>2022-01-19T10:01:48Z</time>
      </trkpt>
      <trkpt lat="44.88131" lon="5.52258">
        <ele>1912.1</ele>
        <time>2022-01-19T10:01:49Z</time>
      </trkpt>
      <trkpt lat="44.88131" lon="5.52258">
        <ele>1912.1</ele>
        <time>2022-01-19T10:01:50Z</time>
      </trkpt>
      <trkpt lat="44.88131" lon="5.52258">
        <ele>1912.1</ele>
        <time>2022-01-19T10:01:51Z</time>
      </trkpt>
      <trkpt lat="44.88131" lon="5.52258">
        <ele>1912.1</ele>
        <time>2022-01-19T10:01:52Z</time>
      </trkpt>
      <trkpt lat="44.88131" lon="5.52258">
        <ele>1912.1</ele>
        <time>2022-01-19T10:01:53Z</time>
      </trkpt>
      <trkpt lat="44.88131" lon="5.52258">
        <ele>1912.1</ele>
        <time>2022-01-19T10:01:54Z</time>
      </trkpt>
      <trkpt lat="44.88131" lon="5.52258">
        <ele>1912.1</ele>
        <time>2022-01-19T10:01:55Z</time>
      </trkpt>
      <trkpt lat="44.88131" lon="5.52258">
        <ele>1912.1</ele>
        <time>2022-01-19T10:01:56Z</time>
      </trkpt>
      <trkpt lat="44.88131" lon="5.52258">
        <ele>1912.1</ele>
        <time>2022-01-19T10:01:57Z</time>
      </trkpt>
      <trkpt lat="44.88131" lon="5.52258">
        <ele>1912.1</ele>
        <time>2022-01-19T10:01:58Z</time>
      </trkpt>
      <trkpt lat="44.88134" lon="5.52255">
        <ele>1911.6</ele>
        <time>2022-01-19T10:01:59Z</time>
      </trkpt>
      <trkpt lat="44.88135" lon="5.52255">
        <ele>1911.6</ele>
        <time>2022-01-19T10:02:00Z</time>
      </trkpt>
      <trkpt lat="44.88135" lon="5.52255">
        <ele>1911.6</ele>
        <time>2022-01-19T10:02:01Z</time>
      </trkpt>
      <trkpt lat="44.88135" lon="5.52256">
        <ele>1911.6</ele>
        <time>2022-01-19T10:02:02Z</time>
      </trkpt>
      <trkpt lat="44.88135" lon="5.52256">
        <ele>1911.6</ele>
        <time>2022-01-19T10:02:03Z</time>
      </trkpt>
      <trkpt lat="44.88135" lon="5.52256">
        <ele>1911.6</ele>
        <time>2022-01-19T10:02:04Z</time>
      </trkpt>
      <trkpt lat="44.88135" lon="5.52256">
        <ele>1911.6</ele>
        <time>2022-01-19T10:02:05Z</time>
      </trkpt>
      <trkpt lat="44.88135" lon="5.52256">
        <ele>1911.6</ele>
        <time>2022-01-19T10:02:06Z</time>
      </trkpt>
      <trkpt lat="44.88135" lon="5.52256">
        <ele>1911.6</ele>
        <time>2022-01-19T10:02:07Z</time>
      </trkpt>
      <trkpt lat="44.88135" lon="5.52256">
        <ele>1911.6</ele>
        <time>2022-01-19T10:02:08Z</time>
      </trkpt>
      <trkpt lat="44.88135" lon="5.52256">
        <ele>1911.6</ele>
        <time>2022-01-19T10:02:09Z</time>
      </trkpt>
      <trkpt lat="44.88135" lon="5.52256">
        <ele>1911.6</ele>
        <time>2022-01-19T10:02:10Z</time>
      </trkpt>
      <trkpt lat="44.88135" lon="5.52256">
        <ele>1911.6</ele>
        <time>2022-01-19T10:02:11Z</time>
      </trkpt>
      <trkpt lat="44.88135" lon="5.52256">
        <ele>1911.6</ele>
        <time>2022-01-19T10:02:12Z</time>
      </trkpt>
      <trkpt lat="44.88135" lon="5.52256">
        <ele>1911.6</ele>
        <time>2022-01-19T10:02:13Z</time>
      </trkpt>
      <trkpt lat="44.88135" lon="5.52256">
        <ele>1911.6</ele>
        <time>2022-01-19T10:02:14Z</time>
      </trkpt>
      <trkpt lat="44.88135" lon="5.52256">
        <ele>1911.6</ele>
        <time>2022-01-19T10:02:15Z</time>
      </trkpt>
      <trkpt lat="44.88135" lon="5.52256">
        <ele>1911.6</ele>
        <time>2022-01-19T10:02:16Z</time>
      </trkpt>
      <trkpt lat="44.88135" lon="5.52256">
        <ele>1911.6</ele>
        <time>2022-01-19T10:02:17Z</time>
      </trkpt>
      <trkpt lat="44.88135" lon="5.52256">
        <ele>1911.6</ele>
        <time>2022-01-19T10:02:18Z</time>
      </trkpt>
      <trkpt lat="44.88135" lon="5.52256">
        <ele>1911.6</ele>
        <time>2022-01-19T10:02:19Z</time>
      </trkpt>
      <trkpt lat="44.88135" lon="5.52256">
        <ele>1911.6</ele>
        <time>2022-01-19T10:02:20Z</time>
      </trkpt>
      <trkpt lat="44.88135" lon="5.52256">
        <ele>1911.6</ele>
        <time>2022-01-19T10:02:21Z</time>
      </trkpt>
      <trkpt lat="44.88135" lon="5.52256">
        <ele>1911.6</ele>
        <time>2022-01-19T10:02:22Z</time>
      </trkpt>
      <trkpt lat="44.88135" lon="5.52256">
        <ele>1911.6</ele>
        <time>2022-01-19T10:02:23Z</time>
      </trkpt>
      <trkpt lat="44.88135" lon="5.52256">
        <ele>1911.6</ele>
        <time>2022-01-19T10:02:24Z</time>
      </trkpt>
      <trkpt lat="44.88135" lon="5.52256">
        <ele>1911.6</ele>
        <time>2022-01-19T10:02:25Z</time>
      </trkpt>
      <trkpt lat="44.88135" lon="5.52256">
        <ele>1911.6</ele>
        <time>2022-01-19T10:02:26Z</time>
      </trkpt>
      <trkpt lat="44.88135" lon="5.52256">
        <ele>1911.6</ele>
        <time>2022-01-19T10:02:27Z</time>
      </trkpt>
      <trkpt lat="44.88135" lon="5.52256">
        <ele>1911.6</ele>
        <time>2022-01-19T10:02:28Z</time>
      </trkpt>
      <trkpt lat="44.88135" lon="5.52256">
        <ele>1911.6</ele>
        <time>2022-01-19T10:02:29Z</time>
      </trkpt>
      <trkpt lat="44.88135" lon="5.52256">
        <ele>1911.6</ele>
        <time>2022-01-19T10:02:30Z</time>
      </trkpt>
      <trkpt lat="44.88135" lon="5.52256">
        <ele>1911.6</ele>
        <time>2022-01-19T10:02:31Z</time>
      </trkpt>
      <trkpt lat="44.88135" lon="5.52256">
        <ele>1911.6</ele>
        <time>2022-01-19T10:02:32Z</time>
      </trkpt>
      <trkpt lat="44.88132" lon="5.52256">
        <ele>1912</ele>
        <time>2022-01-19T10:02:33Z</time>
      </trkpt>
      <trkpt lat="44.88132" lon="5.52256">
        <ele>1912</ele>
        <time>2022-01-19T10:02:34Z</time>
      </trkpt>
      <trkpt lat="44.88131" lon="5.52256">
        <ele>1912</ele>
        <time>2022-01-19T10:02:35Z</time>
      </trkpt>
      <trkpt lat="44.88131" lon="5.52256">
        <ele>1912</ele>
        <time>2022-01-19T10:02:36Z</time>
      </trkpt>
      <trkpt lat="44.88131" lon="5.52256">
        <ele>1912</ele>
        <time>2022-01-19T10:02:37Z</time>
      </trkpt>
      <trkpt lat="44.88131" lon="5.52254">
        <ele>1912</ele>
        <time>2022-01-19T10:02:38Z</time>
      </trkpt>
      <trkpt lat="44.8813" lon="5.52254">
        <ele>1912</ele>
        <time>2022-01-19T10:02:39Z</time>
      </trkpt>
      <trkpt lat="44.8813" lon="5.52253">
        <ele>1912</ele>
        <time>2022-01-19T10:02:40Z</time>
      </trkpt>
      <trkpt lat="44.88131" lon="5.52253">
        <ele>1912</ele>
        <time>2022-01-19T10:02:41Z</time>
      </trkpt>
      <trkpt lat="44.88131" lon="5.52253">
        <ele>1912</ele>
        <time>2022-01-19T10:02:42Z</time>
      </trkpt>
      <trkpt lat="44.8813" lon="5.52253">
        <ele>1912</ele>
        <time>2022-01-19T10:02:43Z</time>
      </trkpt>
      <trkpt lat="44.8813" lon="5.52253">
        <ele>1912</ele>
        <time>2022-01-19T10:02:44Z</time>
      </trkpt>
      <trkpt lat="44.8813" lon="5.52253">
        <ele>1912</ele>
        <time>2022-01-19T10:02:45Z</time>
      </trkpt>
      <trkpt lat="44.8813" lon="5.52253">
        <ele>1912</ele>
        <time>2022-01-19T10:02:46Z</time>
      </trkpt>
      <trkpt lat="44.8813" lon="5.52253">
        <ele>1912</ele>
        <time>2022-01-19T10:02:47Z</time>
      </trkpt>
      <trkpt lat="44.8813" lon="5.52253">
        <ele>1912</ele>
        <time>2022-01-19T10:02:48Z</time>
      </trkpt>
      <trkpt lat="44.8813" lon="5.52253">
        <ele>1912</ele>
        <time>2022-01-19T10:02:49Z</time>
      </trkpt>
      <trkpt lat="44.8813" lon="5.52253">
        <ele>1912</ele>
        <time>2022-01-19T10:02:50Z</time>
      </trkpt>
      <trkpt lat="44.8813" lon="5.52253">
        <ele>1912</ele>
        <time>2022-01-19T10:02:51Z</time>
      </trkpt>
      <trkpt lat="44.8813" lon="5.52253">
        <ele>1912</ele>
        <time>2022-01-19T10:02:52Z</time>
      </trkpt>
      <trkpt lat="44.8813" lon="5.52253">
        <ele>1912</ele>
        <time>2022-01-19T10:02:53Z</time>
      </trkpt>
      <trkpt lat="44.8813" lon="5.52253">
        <ele>1912</ele>
        <time>2022-01-19T10:02:54Z</time>
      </trkpt>
      <trkpt lat="44.8813" lon="5.52253">
        <ele>1912</ele>
        <time>2022-01-19T10:02:55Z</time>
      </trkpt>
      <trkpt lat="44.8813" lon="5.52253">
        <ele>1912</ele>
        <time>2022-01-19T10:02:56Z</time>
      </trkpt>
      <trkpt lat="44.8813" lon="5.52253">
        <ele>1912</ele>
        <time>2022-01-19T10:02:57Z</time>
      </trkpt>
      <trkpt lat="44.8813" lon="5.52253">
        <ele>1912</ele>
        <time>2022-01-19T10:02:58Z</time>
      </trkpt>
      <trkpt lat="44.8813" lon="5.52253">
        <ele>1912</ele>
        <time>2022-01-19T10:02:59Z</time>
      </trkpt>
      <trkpt lat="44.8813" lon="5.52253">
        <ele>1912</ele>
        <time>2022-01-19T10:03:00Z</time>
      </trkpt>
      <trkpt lat="44.8813" lon="5.52253">
        <ele>1912</ele>
        <time>2022-01-19T10:03:01Z</time>
      </trkpt>
      <trkpt lat="44.8813" lon="5.52253">
        <ele>1912</ele>
        <time>2022-01-19T10:03:02Z</time>
      </trkpt>
      <trkpt lat="44.8813" lon="5.52253">
        <ele>1912</ele>
        <time>2022-01-19T10:03:03Z</time>
      </trkpt>
      <trkpt lat="44.8813" lon="5.52251">
        <ele>1912.2</ele>
        <time>2022-01-19T10:03:04Z</time>
      </trkpt>
      <trkpt lat="44.88129" lon="5.52251">
        <ele>1912.2</ele>
        <time>2022-01-19T10:03:05Z</time>
      </trkpt>
      <trkpt lat="44.88129" lon="5.52249">
        <ele>1912.2</ele>
        <time>2022-01-19T10:03:06Z</time>
      </trkpt>
      <trkpt lat="44.88129" lon="5.52248">
        <ele>1912.2</ele>
        <time>2022-01-19T10:03:07Z</time>
      </trkpt>
      <trkpt lat="44.88129" lon="5.52247">
        <ele>1911.9</ele>
        <time>2022-01-19T10:03:08Z</time>
      </trkpt>
      <trkpt lat="44.88129" lon="5.52246">
        <ele>1911.9</ele>
        <time>2022-01-19T10:03:09Z</time>
      </trkpt>
      <trkpt lat="44.88129" lon="5.52246">
        <ele>1911.9</ele>
        <time>2022-01-19T10:03:10Z</time>
      </trkpt>
      <trkpt lat="44.88128" lon="5.52247">
        <ele>1911.9</ele>
        <time>2022-01-19T10:03:11Z</time>
      </trkpt>
      <trkpt lat="44.88128" lon="5.52248">
        <ele>1911.9</ele>
        <time>2022-01-19T10:03:12Z</time>
      </trkpt>
      <trkpt lat="44.88128" lon="5.52248">
        <ele>1912.2</ele>
        <time>2022-01-19T10:03:13Z</time>
      </trkpt>
      <trkpt lat="44.88127" lon="5.52248">
        <ele>1912.2</ele>
        <time>2022-01-19T10:03:14Z</time>
      </trkpt>
      <trkpt lat="44.88127" lon="5.52249">
        <ele>1912.2</ele>
        <time>2022-01-19T10:03:15Z</time>
      </trkpt>
      <trkpt lat="44.88127" lon="5.5225">
        <ele>1912.2</ele>
        <time>2022-01-19T10:03:16Z</time>
      </trkpt>
      <trkpt lat="44.88128" lon="5.5225">
        <ele>1912.2</ele>
        <time>2022-01-19T10:03:17Z</time>
      </trkpt>
      <trkpt lat="44.88128" lon="5.52251">
        <ele>1912.2</ele>
        <time>2022-01-19T10:03:18Z</time>
      </trkpt>
      <trkpt lat="44.88128" lon="5.52252">
        <ele>1912.2</ele>
        <time>2022-01-19T10:03:19Z</time>
      </trkpt>
      <trkpt lat="44.88128" lon="5.52252">
        <ele>1912.4</ele>
        <time>2022-01-19T10:03:20Z</time>
      </trkpt>
      <trkpt lat="44.88128" lon="5.52252">
        <ele>1912.4</ele>
        <time>2022-01-19T10:03:21Z</time>
      </trkpt>
      <trkpt lat="44.88128" lon="5.52252">
        <ele>1912.4</ele>
        <time>2022-01-19T10:03:22Z</time>
      </trkpt>
      <trkpt lat="44.88128" lon="5.52252">
        <ele>1912.4</ele>
        <time>2022-01-19T10:03:23Z</time>
      </trkpt>
      <trkpt lat="44.88128" lon="5.52252">
        <ele>1912.4</ele>
        <time>2022-01-19T10:03:24Z</time>
      </trkpt>
      <trkpt lat="44.88128" lon="5.52252">
        <ele>1912.4</ele>
        <time>2022-01-19T10:03:25Z</time>
      </trkpt>
      <trkpt lat="44.88128" lon="5.52252">
        <ele>1912.4</ele>
        <time>2022-01-19T10:03:26Z</time>
      </trkpt>
      <trkpt lat="44.88128" lon="5.52252">
        <ele>1912.4</ele>
        <time>2022-01-19T10:03:27Z</time>
      </trkpt>
      <trkpt lat="44.88128" lon="5.52252">
        <ele>1912.4</ele>
        <time>2022-01-19T10:03:28Z</time>
      </trkpt>
      <trkpt lat="44.88128" lon="5.52252">
        <ele>1912.4</ele>
        <time>2022-01-19T10:03:29Z</time>
      </trkpt>
      <trkpt lat="44.88128" lon="5.52252">
        <ele>1912.4</ele>
        <time>2022-01-19T10:03:30Z</time>
      </trkpt>
      <trkpt lat="44.88128" lon="5.52252">
        <ele>1912.4</ele>
        <time>2022-01-19T10:03:31Z</time>
      </trkpt>
      <trkpt lat="44.88128" lon="5.52252">
        <ele>1912.4</ele>
        <time>2022-01-19T10:03:32Z</time>
      </trkpt>
      <trkpt lat="44.88128" lon="5.52252">
        <ele>1912.4</ele>
        <time>2022-01-19T10:03:33Z</time>
      </trkpt>
      <trkpt lat="44.88128" lon="5.52252">
        <ele>1912.4</ele>
        <time>2022-01-19T10:03:34Z</time>
      </trkpt>
      <trkpt lat="44.88128" lon="5.52252">
        <ele>1912.4</ele>
        <time>2022-01-19T10:03:35Z</time>
      </trkpt>
      <trkpt lat="44.88129" lon="5.52252">
        <ele>1912.4</ele>
        <time>2022-01-19T10:03:36Z</time>
      </trkpt>
      <trkpt lat="44.88129" lon="5.52251">
        <ele>1912.2</ele>
        <time>2022-01-19T10:03:37Z</time>
      </trkpt>
      <trkpt lat="44.88129" lon="5.5225">
        <ele>1912.2</ele>
        <time>2022-01-19T10:03:38Z</time>
      </trkpt>
      <trkpt lat="44.88129" lon="5.5225">
        <ele>1912.2</ele>
        <time>2022-01-19T10:03:39Z</time>
      </trkpt>
      <trkpt lat="44.88129" lon="5.5225">
        <ele>1912.2</ele>
        <time>2022-01-19T10:03:40Z</time>
      </trkpt>
      <trkpt lat="44.88129" lon="5.52249">
        <ele>1912.2</ele>
        <time>2022-01-19T10:03:41Z</time>
      </trkpt>
      <trkpt lat="44.8813" lon="5.52247">
        <ele>1911.5</ele>
        <time>2022-01-19T10:03:42Z</time>
      </trkpt>
      <trkpt lat="44.8813" lon="5.52247">
        <ele>1911.5</ele>
        <time>2022-01-19T10:03:43Z</time>
      </trkpt>
      <trkpt lat="44.8813" lon="5.52247">
        <ele>1911.5</ele>
        <time>2022-01-19T10:03:44Z</time>
      </trkpt>
      <trkpt lat="44.8813" lon="5.52247">
        <ele>1911.5</ele>
        <time>2022-01-19T10:03:45Z</time>
      </trkpt>
      <trkpt lat="44.8813" lon="5.52247">
        <ele>1911.5</ele>
        <time>2022-01-19T10:03:46Z</time>
      </trkpt>
      <trkpt lat="44.8813" lon="5.52247">
        <ele>1911.5</ele>
        <time>2022-01-19T10:03:47Z</time>
      </trkpt>
      <trkpt lat="44.8813" lon="5.52247">
        <ele>1911.5</ele>
        <time>2022-01-19T10:03:48Z</time>
      </trkpt>
      <trkpt lat="44.8813" lon="5.52247">
        <ele>1911.5</ele>
        <time>2022-01-19T10:03:49Z</time>
      </trkpt>
      <trkpt lat="44.8813" lon="5.52247">
        <ele>1911.5</ele>
        <time>2022-01-19T10:03:50Z</time>
      </trkpt>
      <trkpt lat="44.8813" lon="5.52247">
        <ele>1911.5</ele>
        <time>2022-01-19T10:03:51Z</time>
      </trkpt>
      <trkpt lat="44.8813" lon="5.52247">
        <ele>1911.5</ele>
        <time>2022-01-19T10:03:52Z</time>
      </trkpt>
      <trkpt lat="44.8813" lon="5.52247">
        <ele>1911.5</ele>
        <time>2022-01-19T10:03:53Z</time>
      </trkpt>
      <trkpt lat="44.8813" lon="5.52247">
        <ele>1911.5</ele>
        <time>2022-01-19T10:03:54Z</time>
      </trkpt>
      <trkpt lat="44.8813" lon="5.52247">
        <ele>1911.5</ele>
        <time>2022-01-19T10:03:55Z</time>
      </trkpt>
      <trkpt lat="44.8813" lon="5.52247">
        <ele>1911.5</ele>
        <time>2022-01-19T10:03:56Z</time>
      </trkpt>
      <trkpt lat="44.8813" lon="5.52247">
        <ele>1911.5</ele>
        <time>2022-01-19T10:03:57Z</time>
      </trkpt>
      <trkpt lat="44.8813" lon="5.52247">
        <ele>1911.5</ele>
        <time>2022-01-19T10:03:58Z</time>
      </trkpt>
      <trkpt lat="44.8813" lon="5.52247">
        <ele>1911.5</ele>
        <time>2022-01-19T10:03:59Z</time>
      </trkpt>
      <trkpt lat="44.8813" lon="5.52247">
        <ele>1911.5</ele>
        <time>2022-01-19T10:04:00Z</time>
      </trkpt>
      <trkpt lat="44.8813" lon="5.52247">
        <ele>1911.5</ele>
        <time>2022-01-19T10:04:01Z</time>
      </trkpt>
      <trkpt lat="44.8813" lon="5.52247">
        <ele>1911.5</ele>
        <time>2022-01-19T10:04:02Z</time>
      </trkpt>
      <trkpt lat="44.8813" lon="5.52247">
        <ele>1911.5</ele>
        <time>2022-01-19T10:04:03Z</time>
      </trkpt>
      <trkpt lat="44.8813" lon="5.52247">
        <ele>1911.5</ele>
        <time>2022-01-19T10:04:04Z</time>
      </trkpt>
      <trkpt lat="44.8813" lon="5.52247">
        <ele>1911.5</ele>
        <time>2022-01-19T10:04:05Z</time>
      </trkpt>
      <trkpt lat="44.8813" lon="5.52247">
        <ele>1911.5</ele>
        <time>2022-01-19T10:04:06Z</time>
      </trkpt>
      <trkpt lat="44.8813" lon="5.52247">
        <ele>1911.5</ele>
        <time>2022-01-19T10:04:07Z</time>
      </trkpt>
      <trkpt lat="44.8813" lon="5.52247">
        <ele>1911.5</ele>
        <time>2022-01-19T10:04:08Z</time>
      </trkpt>
      <trkpt lat="44.8813" lon="5.52247">
        <ele>1911.5</ele>
        <time>2022-01-19T10:04:09Z</time>
      </trkpt>
      <trkpt lat="44.8813" lon="5.52247">
        <ele>1911.5</ele>
        <time>2022-01-19T10:04:10Z</time>
      </trkpt>
      <trkpt lat="44.8813" lon="5.52247">
        <ele>1911.5</ele>
        <time>2022-01-19T10:04:11Z</time>
      </trkpt>
      <trkpt lat="44.8813" lon="5.52247">
        <ele>1911.5</ele>
        <time>2022-01-19T10:04:12Z</time>
      </trkpt>
      <trkpt lat="44.8813" lon="5.52247">
        <ele>1911.5</ele>
        <time>2022-01-19T10:04:13Z</time>
      </trkpt>
      <trkpt lat="44.8813" lon="5.52247">
        <ele>1911.5</ele>
        <time>2022-01-19T10:04:14Z</time>
      </trkpt>
      <trkpt lat="44.8813" lon="5.52247">
        <ele>1911.5</ele>
        <time>2022-01-19T10:04:15Z</time>
      </trkpt>
      <trkpt lat="44.8813" lon="5.52247">
        <ele>1911.5</ele>
        <time>2022-01-19T10:04:16Z</time>
      </trkpt>
      <trkpt lat="44.8813" lon="5.52247">
        <ele>1911.5</ele>
        <time>2022-01-19T10:04:17Z</time>
      </trkpt>
      <trkpt lat="44.8813" lon="5.52247">
        <ele>1911.5</ele>
        <time>2022-01-19T10:04:18Z</time>
      </trkpt>
      <trkpt lat="44.8813" lon="5.52247">
        <ele>1911.5</ele>
        <time>2022-01-19T10:04:19Z</time>
      </trkpt>
      <trkpt lat="44.8813" lon="5.52247">
        <ele>1911.5</ele>
        <time>2022-01-19T10:04:20Z</time>
      </trkpt>
      <trkpt lat="44.8813" lon="5.52247">
        <ele>1911.5</ele>
        <time>2022-01-19T10:04:21Z</time>
      </trkpt>
      <trkpt lat="44.8813" lon="5.52247">
        <ele>1911.5</ele>
        <time>2022-01-19T10:04:22Z</time>
      </trkpt>
      <trkpt lat="44.8813" lon="5.52247">
        <ele>1911.5</ele>
        <time>2022-01-19T10:04:23Z</time>
      </trkpt>
      <trkpt lat="44.8813" lon="5.52247">
        <ele>1911.5</ele>
        <time>2022-01-19T10:04:24Z</time>
      </trkpt>
      <trkpt lat="44.8813" lon="5.52247">
        <ele>1911.5</ele>
        <time>2022-01-19T10:04:25Z</time>
      </trkpt>
      <trkpt lat="44.8813" lon="5.52247">
        <ele>1911.5</ele>
        <time>2022-01-19T10:04:26Z</time>
      </trkpt>
      <trkpt lat="44.8813" lon="5.52247">
        <ele>1911.5</ele>
        <time>2022-01-19T10:04:27Z</time>
      </trkpt>
      <trkpt lat="44.8813" lon="5.52247">
        <ele>1911.5</ele>
        <time>2022-01-19T10:04:28Z</time>
      </trkpt>
      <trkpt lat="44.8813" lon="5.52247">
        <ele>1911.5</ele>
        <time>2022-01-19T10:04:29Z</time>
      </trkpt>
      <trkpt lat="44.8813" lon="5.52247">
        <ele>1911.5</ele>
        <time>2022-01-19T10:04:30Z</time>
      </trkpt>
      <trkpt lat="44.8813" lon="5.52247">
        <ele>1911.5</ele>
        <time>2022-01-19T10:04:31Z</time>
      </trkpt>
      <trkpt lat="44.8813" lon="5.52247">
        <ele>1911.5</ele>
        <time>2022-01-19T10:04:32Z</time>
      </trkpt>
      <trkpt lat="44.8813" lon="5.52247">
        <ele>1911.5</ele>
        <time>2022-01-19T10:04:33Z</time>
      </trkpt>
      <trkpt lat="44.8813" lon="5.52247">
        <ele>1911.5</ele>
        <time>2022-01-19T10:04:34Z</time>
      </trkpt>
      <trkpt lat="44.8813" lon="5.52247">
        <ele>1911.5</ele>
        <time>2022-01-19T10:04:35Z</time>
      </trkpt>
      <trkpt lat="44.8813" lon="5.52247">
        <ele>1911.5</ele>
        <time>2022-01-19T10:04:36Z</time>
      </trkpt>
      <trkpt lat="44.8813" lon="5.52247">
        <ele>1911.5</ele>
        <time>2022-01-19T10:04:37Z</time>
      </trkpt>
      <trkpt lat="44.8813" lon="5.52247">
        <ele>1911.5</ele>
        <time>2022-01-19T10:04:38Z</time>
      </trkpt>
      <trkpt lat="44.8813" lon="5.52247">
        <ele>1911.5</ele>
        <time>2022-01-19T10:04:39Z</time>
      </trkpt>
      <trkpt lat="44.8813" lon="5.52247">
        <ele>1911.5</ele>
        <time>2022-01-19T10:04:40Z</time>
      </trkpt>
      <trkpt lat="44.8813" lon="5.52247">
        <ele>1911.5</ele>
        <time>2022-01-19T10:04:41Z</time>
      </trkpt>
      <trkpt lat="44.8813" lon="5.52247">
        <ele>1911.5</ele>
        <time>2022-01-19T10:04:42Z</time>
      </trkpt>
      <trkpt lat="44.8813" lon="5.52247">
        <ele>1911.5</ele>
        <time>2022-01-19T10:04:43Z</time>
      </trkpt>
      <trkpt lat="44.8813" lon="5.52247">
        <ele>1911.5</ele>
        <time>2022-01-19T10:04:44Z</time>
      </trkpt>
      <trkpt lat="44.8813" lon="5.52247">
        <ele>1911.5</ele>
        <time>2022-01-19T10:04:45Z</time>
      </trkpt>
      <trkpt lat="44.8813" lon="5.52247">
        <ele>1911.5</ele>
        <time>2022-01-19T10:04:46Z</time>
      </trkpt>
      <trkpt lat="44.8813" lon="5.52247">
        <ele>1911.5</ele>
        <time>2022-01-19T10:04:47Z</time>
      </trkpt>
      <trkpt lat="44.8813" lon="5.52247">
        <ele>1911.5</ele>
        <time>2022-01-19T10:04:48Z</time>
      </trkpt>
      <trkpt lat="44.8813" lon="5.52247">
        <ele>1911.5</ele>
        <time>2022-01-19T10:04:49Z</time>
      </trkpt>
      <trkpt lat="44.8813" lon="5.52247">
        <ele>1911.5</ele>
        <time>2022-01-19T10:04:50Z</time>
      </trkpt>
      <trkpt lat="44.8813" lon="5.52247">
        <ele>1911.5</ele>
        <time>2022-01-19T10:04:51Z</time>
      </trkpt>
      <trkpt lat="44.8813" lon="5.52247">
        <ele>1911.5</ele>
        <time>2022-01-19T10:04:52Z</time>
      </trkpt>
      <trkpt lat="44.8813" lon="5.52247">
        <ele>1911.5</ele>
        <time>2022-01-19T10:04:53Z</time>
      </trkpt>
      <trkpt lat="44.8813" lon="5.52247">
        <ele>1911.5</ele>
        <time>2022-01-19T10:04:54Z</time>
      </trkpt>
      <trkpt lat="44.8813" lon="5.52247">
        <ele>1911.5</ele>
        <time>2022-01-19T10:04:55Z</time>
      </trkpt>
      <trkpt lat="44.8813" lon="5.52247">
        <ele>1911.5</ele>
        <time>2022-01-19T10:04:56Z</time>
      </trkpt>
      <trkpt lat="44.8813" lon="5.52247">
        <ele>1911.5</ele>
        <time>2022-01-19T10:04:57Z</time>
      </trkpt>
      <trkpt lat="44.8813" lon="5.52247">
        <ele>1911.5</ele>
        <time>2022-01-19T10:04:58Z</time>
      </trkpt>
      <trkpt lat="44.8813" lon="5.52247">
        <ele>1911.5</ele>
        <time>2022-01-19T10:04:59Z</time>
      </trkpt>
      <trkpt lat="44.8813" lon="5.52247">
        <ele>1911.5</ele>
        <time>2022-01-19T10:05:00Z</time>
      </trkpt>
      <trkpt lat="44.8813" lon="5.52247">
        <ele>1911.5</ele>
        <time>2022-01-19T10:05:01Z</time>
      </trkpt>
      <trkpt lat="44.8813" lon="5.52247">
        <ele>1911.5</ele>
        <time>2022-01-19T10:05:02Z</time>
      </trkpt>
      <trkpt lat="44.8813" lon="5.52247">
        <ele>1911.5</ele>
        <time>2022-01-19T10:05:03Z</time>
      </trkpt>
      <trkpt lat="44.8813" lon="5.52247">
        <ele>1911.5</ele>
        <time>2022-01-19T10:05:04Z</time>
      </trkpt>
      <trkpt lat="44.8813" lon="5.52247">
        <ele>1911.5</ele>
        <time>2022-01-19T10:05:05Z</time>
      </trkpt>
      <trkpt lat="44.8813" lon="5.52247">
        <ele>1911.5</ele>
        <time>2022-01-19T10:05:06Z</time>
      </trkpt>
      <trkpt lat="44.8813" lon="5.52247">
        <ele>1911.5</ele>
        <time>2022-01-19T10:05:07Z</time>
      </trkpt>
      <trkpt lat="44.8813" lon="5.52247">
        <ele>1911.5</ele>
        <time>2022-01-19T10:05:08Z</time>
      </trkpt>
      <trkpt lat="44.8813" lon="5.52247">
        <ele>1911.5</ele>
        <time>2022-01-19T10:05:09Z</time>
      </trkpt>
      <trkpt lat="44.8813" lon="5.52247">
        <ele>1911.5</ele>
        <time>2022-01-19T10:05:10Z</time>
      </trkpt>
      <trkpt lat="44.8813" lon="5.52247">
        <ele>1911.5</ele>
        <time>2022-01-19T10:05:11Z</time>
      </trkpt>
      <trkpt lat="44.8813" lon="5.52247">
        <ele>1911.5</ele>
        <time>2022-01-19T10:05:12Z</time>
      </trkpt>
      <trkpt lat="44.8813" lon="5.52247">
        <ele>1911.5</ele>
        <time>2022-01-19T10:05:13Z</time>
      </trkpt>
      <trkpt lat="44.8813" lon="5.52247">
        <ele>1911.5</ele>
        <time>2022-01-19T10:05:14Z</time>
      </trkpt>
      <trkpt lat="44.8813" lon="5.52247">
        <ele>1911.5</ele>
        <time>2022-01-19T10:05:15Z</time>
      </trkpt>
      <trkpt lat="44.8813" lon="5.52247">
        <ele>1911.5</ele>
        <time>2022-01-19T10:05:16Z</time>
      </trkpt>
      <trkpt lat="44.8813" lon="5.52247">
        <ele>1911.5</ele>
        <time>2022-01-19T10:05:17Z</time>
      </trkpt>
      <trkpt lat="44.8813" lon="5.52247">
        <ele>1911.5</ele>
        <time>2022-01-19T10:05:18Z</time>
      </trkpt>
      <trkpt lat="44.8813" lon="5.52247">
        <ele>1911.5</ele>
        <time>2022-01-19T10:05:19Z</time>
      </trkpt>
      <trkpt lat="44.8813" lon="5.52247">
        <ele>1911.5</ele>
        <time>2022-01-19T10:05:20Z</time>
      </trkpt>
      <trkpt lat="44.8813" lon="5.52247">
        <ele>1911.5</ele>
        <time>2022-01-19T10:05:21Z</time>
      </trkpt>
      <trkpt lat="44.8813" lon="5.52247">
        <ele>1911.5</ele>
        <time>2022-01-19T10:05:22Z</time>
      </trkpt>
      <trkpt lat="44.8813" lon="5.52247">
        <ele>1911.5</ele>
        <time>2022-01-19T10:05:23Z</time>
      </trkpt>
      <trkpt lat="44.8813" lon="5.52247">
        <ele>1911.5</ele>
        <time>2022-01-19T10:05:24Z</time>
      </trkpt>
      <trkpt lat="44.8813" lon="5.52247">
        <ele>1911.5</ele>
        <time>2022-01-19T10:05:25Z</time>
      </trkpt>
      <trkpt lat="44.8813" lon="5.52247">
        <ele>1911.5</ele>
        <time>2022-01-19T10:05:26Z</time>
      </trkpt>
      <trkpt lat="44.8813" lon="5.52247">
        <ele>1911.5</ele>
        <time>2022-01-19T10:05:27Z</time>
      </trkpt>
      <trkpt lat="44.8813" lon="5.52247">
        <ele>1911.5</ele>
        <time>2022-01-19T10:05:28Z</time>
      </trkpt>
      <trkpt lat="44.8813" lon="5.52247">
        <ele>1911.5</ele>
        <time>2022-01-19T10:05:29Z</time>
      </trkpt>
      <trkpt lat="44.8813" lon="5.52247">
        <ele>1911.5</ele>
        <time>2022-01-19T10:05:30Z</time>
      </trkpt>
      <trkpt lat="44.8813" lon="5.52247">
        <ele>1911.5</ele>
        <time>2022-01-19T10:05:31Z</time>
      </trkpt>
      <trkpt lat="44.8813" lon="5.52247">
        <ele>1911.5</ele>
        <time>2022-01-19T10:05:32Z</time>
      </trkpt>
      <trkpt lat="44.8813" lon="5.52247">
        <ele>1911.5</ele>
        <time>2022-01-19T10:05:33Z</time>
      </trkpt>
      <trkpt lat="44.8813" lon="5.52247">
        <ele>1911.5</ele>
        <time>2022-01-19T10:05:34Z</time>
      </trkpt>
      <trkpt lat="44.8813" lon="5.52247">
        <ele>1911.5</ele>
        <time>2022-01-19T10:05:35Z</time>
      </trkpt>
      <trkpt lat="44.8813" lon="5.52247">
        <ele>1911.5</ele>
        <time>2022-01-19T10:05:36Z</time>
      </trkpt>
      <trkpt lat="44.8813" lon="5.52247">
        <ele>1911.5</ele>
        <time>2022-01-19T10:05:37Z</time>
      </trkpt>
      <trkpt lat="44.8813" lon="5.52247">
        <ele>1911.5</ele>
        <time>2022-01-19T10:05:38Z</time>
      </trkpt>
      <trkpt lat="44.8813" lon="5.52247">
        <ele>1911.5</ele>
        <time>2022-01-19T10:05:39Z</time>
      </trkpt>
      <trkpt lat="44.8813" lon="5.52247">
        <ele>1911.5</ele>
        <time>2022-01-19T10:05:40Z</time>
      </trkpt>
      <trkpt lat="44.8813" lon="5.52247">
        <ele>1911.5</ele>
        <time>2022-01-19T10:05:41Z</time>
      </trkpt>
      <trkpt lat="44.8813" lon="5.52247">
        <ele>1911.5</ele>
        <time>2022-01-19T10:05:42Z</time>
      </trkpt>
      <trkpt lat="44.8813" lon="5.52247">
        <ele>1911.5</ele>
        <time>2022-01-19T10:05:43Z</time>
      </trkpt>
      <trkpt lat="44.8813" lon="5.52247">
        <ele>1911.5</ele>
        <time>2022-01-19T10:05:44Z</time>
      </trkpt>
      <trkpt lat="44.8813" lon="5.52247">
        <ele>1911.5</ele>
        <time>2022-01-19T10:05:45Z</time>
      </trkpt>
      <trkpt lat="44.8813" lon="5.52247">
        <ele>1911.5</ele>
        <time>2022-01-19T10:05:46Z</time>
      </trkpt>
      <trkpt lat="44.8813" lon="5.52247">
        <ele>1911.5</ele>
        <time>2022-01-19T10:05:47Z</time>
      </trkpt>
      <trkpt lat="44.8813" lon="5.52247">
        <ele>1911.5</ele>
        <time>2022-01-19T10:05:48Z</time>
      </trkpt>
      <trkpt lat="44.8813" lon="5.52247">
        <ele>1911.5</ele>
        <time>2022-01-19T10:05:49Z</time>
      </trkpt>
      <trkpt lat="44.8813" lon="5.52247">
        <ele>1911.5</ele>
        <time>2022-01-19T10:05:50Z</time>
      </trkpt>
      <trkpt lat="44.8813" lon="5.52247">
        <ele>1911.5</ele>
        <time>2022-01-19T10:05:51Z</time>
      </trkpt>
      <trkpt lat="44.8813" lon="5.52247">
        <ele>1911.5</ele>
        <time>2022-01-19T10:05:52Z</time>
      </trkpt>
      <trkpt lat="44.8813" lon="5.52247">
        <ele>1911.5</ele>
        <time>2022-01-19T10:05:53Z</time>
      </trkpt>
      <trkpt lat="44.8813" lon="5.52247">
        <ele>1911.5</ele>
        <time>2022-01-19T10:05:54Z</time>
      </trkpt>
      <trkpt lat="44.8813" lon="5.52247">
        <ele>1911.5</ele>
        <time>2022-01-19T10:05:55Z</time>
      </trkpt>
      <trkpt lat="44.8813" lon="5.52247">
        <ele>1911.5</ele>
        <time>2022-01-19T10:05:56Z</time>
      </trkpt>
      <trkpt lat="44.8813" lon="5.52247">
        <ele>1911.5</ele>
        <time>2022-01-19T10:05:57Z</time>
      </trkpt>
      <trkpt lat="44.8813" lon="5.52247">
        <ele>1911.6</ele>
        <time>2022-01-19T10:05:58Z</time>
      </trkpt>
      <trkpt lat="44.8813" lon="5.52247">
        <ele>1911.7</ele>
        <time>2022-01-19T10:05:59Z</time>
      </trkpt>
      <trkpt lat="44.8813" lon="5.52247">
        <ele>1911.8</ele>
        <time>2022-01-19T10:06:00Z</time>
      </trkpt>
      <trkpt lat="44.8813" lon="5.52247">
        <ele>1911.9</ele>
        <time>2022-01-19T10:06:01Z</time>
      </trkpt>
      <trkpt lat="44.8813" lon="5.52247">
        <ele>1912</ele>
        <time>2022-01-19T10:06:02Z</time>
      </trkpt>
      <trkpt lat="44.8813" lon="5.52247">
        <ele>1912.1</ele>
        <time>2022-01-19T10:06:03Z</time>
      </trkpt>
      <trkpt lat="44.8813" lon="5.52247">
        <ele>1912.2</ele>
        <time>2022-01-19T10:06:04Z</time>
      </trkpt>
      <trkpt lat="44.8813" lon="5.52247">
        <ele>1912.3</ele>
        <time>2022-01-19T10:06:05Z</time>
      </trkpt>
      <trkpt lat="44.8813" lon="5.52247">
        <ele>1912.4</ele>
        <time>2022-01-19T10:06:06Z</time>
      </trkpt>
      <trkpt lat="44.8813" lon="5.52247">
        <ele>1912.5</ele>
        <time>2022-01-19T10:06:07Z</time>
      </trkpt>
      <trkpt lat="44.8813" lon="5.52247">
        <ele>1912.6</ele>
        <time>2022-01-19T10:06:08Z</time>
      </trkpt>
      <trkpt lat="44.8813" lon="5.52247">
        <ele>1912.7</ele>
        <time>2022-01-19T10:06:09Z</time>
      </trkpt>
      <trkpt lat="44.8813" lon="5.52247">
        <ele>1912.8</ele>
        <time>2022-01-19T10:06:10Z</time>
      </trkpt>
      <trkpt lat="44.8813" lon="5.52247">
        <ele>1912.9</ele>
        <time>2022-01-19T10:06:11Z</time>
      </trkpt>
      <trkpt lat="44.8813" lon="5.52247">
        <ele>1913</ele>
        <time>2022-01-19T10:06:12Z</time>
      </trkpt>
      <trkpt lat="44.8813" lon="5.52247">
        <ele>1913.1</ele>
        <time>2022-01-19T10:06:13Z</time>
      </trkpt>
      <trkpt lat="44.8813" lon="5.52247">
        <ele>1913.2</ele>
        <time>2022-01-19T10:06:14Z</time>
      </trkpt>
      <trkpt lat="44.8813" lon="5.52247">
        <ele>1913.3</ele>
        <time>2022-01-19T10:06:15Z</time>
      </trkpt>
      <trkpt lat="44.8813" lon="5.52247">
        <ele>1913.4</ele>
        <time>2022-01-19T10:06:16Z</time>
      </trkpt>
      <trkpt lat="44.8813" lon="5.52247">
        <ele>1913.5</ele>
        <time>2022-01-19T10:06:17Z</time>
      </trkpt>
      <trkpt lat="44.8813" lon="5.52247">
        <ele>1913.6</ele>
        <time>2022-01-19T10:06:18Z</time>
      </trkpt>
      <trkpt lat="44.8813" lon="5.52247">
        <ele>1913.7</ele>
        <time>2022-01-19T10:06:19Z</time>
      </trkpt>
      <trkpt lat="44.8813" lon="5.52247">
        <ele>1913.8</ele>
        <time>2022-01-19T10:06:20Z</time>
      </trkpt>
      <trkpt lat="44.8813" lon="5.52247">
        <ele>1913.9</ele>
        <time>2022-01-19T10:06:21Z</time>
      </trkpt>
      <trkpt lat="44.8813" lon="5.52247">
        <ele>1914</ele>
        <time>2022-01-19T10:06:22Z</time>
      </trkpt>
      <trkpt lat="44.8813" lon="5.52247">
        <ele>1914.1</ele>
        <time>2022-01-19T10:06:23Z</time>
      </trkpt>
      <trkpt lat="44.8813" lon="5.52247">
        <ele>1914.2</ele>
        <time>2022-01-19T10:06:24Z</time>
      </trkpt>
      <trkpt lat="44.8813" lon="5.52247">
        <ele>1914.3</ele>
        <time>2022-01-19T10:06:25Z</time>
      </trkpt>
      <trkpt lat="44.8813" lon="5.52247">
        <ele>1914.4</ele>
        <time>2022-01-19T10:06:26Z</time>
      </trkpt>
      <trkpt lat="44.8813" lon="5.52247">
        <ele>1914.5</ele>
        <time>2022-01-19T10:06:27Z</time>
      </trkpt>
      <trkpt lat="44.8813" lon="5.52247">
        <ele>1914.6</ele>
        <time>2022-01-19T10:06:28Z</time>
      </trkpt>
      <trkpt lat="44.8813" lon="5.52247">
        <ele>1914.7</ele>
        <time>2022-01-19T10:06:29Z</time>
      </trkpt>
      <trkpt lat="44.8813" lon="5.52247">
        <ele>1914.8</ele>
        <time>2022-01-19T10:06:30Z</time>
      </trkpt>
      <trkpt lat="44.8813" lon="5.52247">
        <ele>1914.9</ele>
        <time>2022-01-19T10:06:31Z</time>
      </trkpt>
      <trkpt lat="44.8813" lon="5.52247">
        <ele>1915</ele>
        <time>2022-01-19T10:06:32Z</time>
      </trkpt>
      <trkpt lat="44.8813" lon="5.52247">
        <ele>1915.1</ele>
        <time>2022-01-19T10:06:33Z</time>
      </trkpt>
      <trkpt lat="44.8813" lon="5.52247">
        <ele>1915.2</ele>
        <time>2022-01-19T10:06:34Z</time>
      </trkpt>
      <trkpt lat="44.8813" lon="5.52247">
        <ele>1915.3</ele>
        <time>2022-01-19T10:06:35Z</time>
      </trkpt>
      <trkpt lat="44.8813" lon="5.52247">
        <ele>1915.4</ele>
        <time>2022-01-19T10:06:36Z</time>
      </trkpt>
      <trkpt lat="44.8813" lon="5.52247">
        <ele>1915.5</ele>
        <time>2022-01-19T10:06:37Z</time>
      </trkpt>
      <trkpt lat="44.8813" lon="5.52247">
        <ele>1915.6</ele>
        <time>2022-01-19T10:06:38Z</time>
      </trkpt>
      <trkpt lat="44.8813" lon="5.52247">
        <ele>1915.7</ele>
        <time>2022-01-19T10:06:39Z</time>
      </trkpt>
      <trkpt lat="44.8813" lon="5.52247">
        <ele>1915.8</ele>
        <time>2022-01-19T10:06:40Z</time>
      </trkpt>
      <trkpt lat="44.8813" lon="5.52247">
        <ele>1915.9</ele>
        <time>2022-01-19T10:06:41Z</time>
      </trkpt>
      <trkpt lat="44.8813" lon="5.52247">
        <ele>1916</ele>
        <time>2022-01-19T10:06:42Z</time>
      </trkpt>
      <trkpt lat="44.8813" lon="5.52247">
        <ele>1916.1</ele>
        <time>2022-01-19T10:06:43Z</time>
      </trkpt>
      <trkpt lat="44.8813" lon="5.52247">
        <ele>1916.2</ele>
        <time>2022-01-19T10:06:44Z</time>
      </trkpt>
      <trkpt lat="44.8813" lon="5.52247">
        <ele>1916.3</ele>
        <time>2022-01-19T10:06:45Z</time>
      </trkpt>
      <trkpt lat="44.8813" lon="5.52247">
        <ele>1916.4</ele>
        <time>2022-01-19T10:06:46Z</time>
      </trkpt>
      <trkpt lat="44.8813" lon="5.52247">
        <ele>1916.6</ele>
        <time>2022-01-19T10:06:47Z</time>
      </trkpt>
      <trkpt lat="44.8813" lon="5.52247">
        <ele>1916.7</ele>
        <time>2022-01-19T10:06:48Z</time>
      </trkpt>
      <trkpt lat="44.8813" lon="5.52247">
        <ele>1916.8</ele>
        <time>2022-01-19T10:06:49Z</time>
      </trkpt>
      <trkpt lat="44.8813" lon="5.52247">
        <ele>1916.9</ele>
        <time>2022-01-19T10:06:50Z</time>
      </trkpt>
      <trkpt lat="44.8813" lon="5.52247">
        <ele>1917</ele>
        <time>2022-01-19T10:06:51Z</time>
      </trkpt>
      <trkpt lat="44.8813" lon="5.52247">
        <ele>1917.1</ele>
        <time>2022-01-19T10:06:52Z</time>
      </trkpt>
      <trkpt lat="44.8813" lon="5.52247">
        <ele>1917.2</ele>
        <time>2022-01-19T10:06:53Z</time>
      </trkpt>
      <trkpt lat="44.8813" lon="5.52247">
        <ele>1917.3</ele>
        <time>2022-01-19T10:06:54Z</time>
      </trkpt>
      <trkpt lat="44.8813" lon="5.52247">
        <ele>1917.4</ele>
        <time>2022-01-19T10:06:55Z</time>
      </trkpt>
      <trkpt lat="44.8813" lon="5.52247">
        <ele>1917.5</ele>
        <time>2022-01-19T10:06:56Z</time>
      </trkpt>
      <trkpt lat="44.8813" lon="5.52247">
        <ele>1917.6</ele>
        <time>2022-01-19T10:06:57Z</time>
      </trkpt>
      <trkpt lat="44.8813" lon="5.52247">
        <ele>1917.7</ele>
        <time>2022-01-19T10:06:58Z</time>
      </trkpt>
      <trkpt lat="44.8813" lon="5.52247">
        <ele>1917.8</ele>
        <time>2022-01-19T10:06:59Z</time>
      </trkpt>
      <trkpt lat="44.8813" lon="5.52247">
        <ele>1917.9</ele>
        <time>2022-01-19T10:07:00Z</time>
      </trkpt>
      <trkpt lat="44.8813" lon="5.52247">
        <ele>1918</ele>
        <time>2022-01-19T10:07:01Z</time>
      </trkpt>
      <trkpt lat="44.8813" lon="5.52247">
        <ele>1918.1</ele>
        <time>2022-01-19T10:07:02Z</time>
      </trkpt>
      <trkpt lat="44.8813" lon="5.52247">
        <ele>1918.2</ele>
        <time>2022-01-19T10:07:03Z</time>
      </trkpt>
      <trkpt lat="44.8813" lon="5.52247">
        <ele>1918.3</ele>
        <time>2022-01-19T10:07:04Z</time>
      </trkpt>
      <trkpt lat="44.8813" lon="5.52247">
        <ele>1918.4</ele>
        <time>2022-01-19T10:07:05Z</time>
      </trkpt>
      <trkpt lat="44.8813" lon="5.52247">
        <ele>1918.5</ele>
        <time>2022-01-19T10:07:06Z</time>
      </trkpt>
      <trkpt lat="44.8813" lon="5.52247">
        <ele>1918.6</ele>
        <time>2022-01-19T10:07:07Z</time>
      </trkpt>
      <trkpt lat="44.8813" lon="5.52247">
        <ele>1918.7</ele>
        <time>2022-01-19T10:07:08Z</time>
      </trkpt>
      <trkpt lat="44.8813" lon="5.52247">
        <ele>1918.8</ele>
        <time>2022-01-19T10:07:09Z</time>
      </trkpt>
      <trkpt lat="44.8813" lon="5.52247">
        <ele>1918.9</ele>
        <time>2022-01-19T10:07:10Z</time>
      </trkpt>
      <trkpt lat="44.8813" lon="5.52246">
        <ele>1919</ele>
        <time>2022-01-19T10:07:11Z</time>
      </trkpt>
      <trkpt lat="44.8813" lon="5.52246">
        <ele>1919.1</ele>
        <time>2022-01-19T10:07:12Z</time>
      </trkpt>
      <trkpt lat="44.8813" lon="5.52247">
        <ele>1919.3</ele>
        <time>2022-01-19T10:07:13Z</time>
      </trkpt>
      <trkpt lat="44.8813" lon="5.52247">
        <ele>1919.4</ele>
        <time>2022-01-19T10:07:14Z</time>
      </trkpt>
      <trkpt lat="44.88131" lon="5.52247">
        <ele>1919.5</ele>
        <time>2022-01-19T10:07:15Z</time>
      </trkpt>
      <trkpt lat="44.88131" lon="5.52247">
        <ele>1919.6</ele>
        <time>2022-01-19T10:07:16Z</time>
      </trkpt>
      <trkpt lat="44.88131" lon="5.52247">
        <ele>1919.7</ele>
        <time>2022-01-19T10:07:17Z</time>
      </trkpt>
      <trkpt lat="44.88131" lon="5.52247">
        <ele>1919.8</ele>
        <time>2022-01-19T10:07:18Z</time>
      </trkpt>
      <trkpt lat="44.88131" lon="5.52247">
        <ele>1919.9</ele>
        <time>2022-01-19T10:07:19Z</time>
      </trkpt>
      <trkpt lat="44.88131" lon="5.52247">
        <ele>1920</ele>
        <time>2022-01-19T10:07:20Z</time>
      </trkpt>
      <trkpt lat="44.88131" lon="5.52247">
        <ele>1920.2</ele>
        <time>2022-01-19T10:07:21Z</time>
      </trkpt>
      <trkpt lat="44.88131" lon="5.52247">
        <ele>1920.3</ele>
        <time>2022-01-19T10:07:22Z</time>
      </trkpt>
      <trkpt lat="44.88131" lon="5.52247">
        <ele>1920.4</ele>
        <time>2022-01-19T10:07:23Z</time>
      </trkpt>
      <trkpt lat="44.88131" lon="5.52247">
        <ele>1920.5</ele>
        <time>2022-01-19T10:07:24Z</time>
      </trkpt>
      <trkpt lat="44.8813" lon="5.52246">
        <ele>1920.6</ele>
        <time>2022-01-19T10:07:25Z</time>
      </trkpt>
      <trkpt lat="44.88131" lon="5.52245">
        <ele>1920.8</ele>
        <time>2022-01-19T10:07:26Z</time>
      </trkpt>
      <trkpt lat="44.88131" lon="5.52244">
        <ele>1920.9</ele>
        <time>2022-01-19T10:07:27Z</time>
      </trkpt>
      <trkpt lat="44.88131" lon="5.52244">
        <ele>1921</ele>
        <time>2022-01-19T10:07:28Z</time>
      </trkpt>
      <trkpt lat="44.88131" lon="5.52244">
        <ele>1921.2</ele>
        <time>2022-01-19T10:07:29Z</time>
      </trkpt>
      <trkpt lat="44.88131" lon="5.52244">
        <ele>1921.3</ele>
        <time>2022-01-19T10:07:30Z</time>
      </trkpt>
      <trkpt lat="44.88131" lon="5.52244">
        <ele>1921.4</ele>
        <time>2022-01-19T10:07:31Z</time>
      </trkpt>
      <trkpt lat="44.88131" lon="5.52244">
        <ele>1921.5</ele>
        <time>2022-01-19T10:07:32Z</time>
      </trkpt>
      <trkpt lat="44.88131" lon="5.52244">
        <ele>1921.6</ele>
        <time>2022-01-19T10:07:33Z</time>
      </trkpt>
      <trkpt lat="44.88131" lon="5.52244">
        <ele>1921.7</ele>
        <time>2022-01-19T10:07:34Z</time>
      </trkpt>
      <trkpt lat="44.88131" lon="5.52244">
        <ele>1921.8</ele>
        <time>2022-01-19T10:07:35Z</time>
      </trkpt>
      <trkpt lat="44.88131" lon="5.52244">
        <ele>1921.9</ele>
        <time>2022-01-19T10:07:36Z</time>
      </trkpt>
      <trkpt lat="44.88131" lon="5.52244">
        <ele>1922</ele>
        <time>2022-01-19T10:07:37Z</time>
      </trkpt>
      <trkpt lat="44.88131" lon="5.52244">
        <ele>1922</ele>
        <time>2022-01-19T10:07:38Z</time>
      </trkpt>
      <trkpt lat="44.88131" lon="5.52244">
        <ele>1922</ele>
        <time>2022-01-19T10:07:39Z</time>
      </trkpt>
      <trkpt lat="44.88131" lon="5.52244">
        <ele>1922</ele>
        <time>2022-01-19T10:07:40Z</time>
      </trkpt>
      <trkpt lat="44.88131" lon="5.52244">
        <ele>1922</ele>
        <time>2022-01-19T10:07:41Z</time>
      </trkpt>
      <trkpt lat="44.88131" lon="5.52244">
        <ele>1922</ele>
        <time>2022-01-19T10:07:42Z</time>
      </trkpt>
      <trkpt lat="44.88131" lon="5.52244">
        <ele>1922</ele>
        <time>2022-01-19T10:07:43Z</time>
      </trkpt>
      <trkpt lat="44.88131" lon="5.52244">
        <ele>1922</ele>
        <time>2022-01-19T10:07:44Z</time>
      </trkpt>
      <trkpt lat="44.88131" lon="5.52244">
        <ele>1922</ele>
        <time>2022-01-19T10:07:45Z</time>
      </trkpt>
      <trkpt lat="44.88131" lon="5.52244">
        <ele>1922</ele>
        <time>2022-01-19T10:07:46Z</time>
      </trkpt>
      <trkpt lat="44.88131" lon="5.52244">
        <ele>1922</ele>
        <time>2022-01-19T10:07:47Z</time>
      </trkpt>
      <trkpt lat="44.88131" lon="5.52244">
        <ele>1922</ele>
        <time>2022-01-19T10:07:48Z</time>
      </trkpt>
      <trkpt lat="44.88131" lon="5.52244">
        <ele>1922</ele>
        <time>2022-01-19T10:07:49Z</time>
      </trkpt>
      <trkpt lat="44.88131" lon="5.52244">
        <ele>1922</ele>
        <time>2022-01-19T10:07:50Z</time>
      </trkpt>
      <trkpt lat="44.88131" lon="5.52244">
        <ele>1922</ele>
        <time>2022-01-19T10:07:51Z</time>
      </trkpt>
      <trkpt lat="44.88131" lon="5.52244">
        <ele>1922</ele>
        <time>2022-01-19T10:07:52Z</time>
      </trkpt>
      <trkpt lat="44.88131" lon="5.52244">
        <ele>1922</ele>
        <time>2022-01-19T10:07:53Z</time>
      </trkpt>
      <trkpt lat="44.88131" lon="5.52244">
        <ele>1922</ele>
        <time>2022-01-19T10:07:54Z</time>
      </trkpt>
      <trkpt lat="44.88131" lon="5.52244">
        <ele>1922</ele>
        <time>2022-01-19T10:07:55Z</time>
      </trkpt>
      <trkpt lat="44.88131" lon="5.52244">
        <ele>1922</ele>
        <time>2022-01-19T10:07:56Z</time>
      </trkpt>
      <trkpt lat="44.88131" lon="5.52244">
        <ele>1922</ele>
        <time>2022-01-19T10:07:57Z</time>
      </trkpt>
      <trkpt lat="44.88131" lon="5.52244">
        <ele>1922</ele>
        <time>2022-01-19T10:07:58Z</time>
      </trkpt>
      <trkpt lat="44.88131" lon="5.52244">
        <ele>1922</ele>
        <time>2022-01-19T10:07:59Z</time>
      </trkpt>
      <trkpt lat="44.88131" lon="5.52244">
        <ele>1922</ele>
        <time>2022-01-19T10:08:00Z</time>
      </trkpt>
      <trkpt lat="44.88131" lon="5.52245">
        <ele>1922.1</ele>
        <time>2022-01-19T10:08:01Z</time>
      </trkpt>
      <trkpt lat="44.8813" lon="5.52245">
        <ele>1922.1</ele>
        <time>2022-01-19T10:08:02Z</time>
      </trkpt>
      <trkpt lat="44.8813" lon="5.52246">
        <ele>1922.2</ele>
        <time>2022-01-19T10:08:03Z</time>
      </trkpt>
      <trkpt lat="44.88131" lon="5.52246">
        <ele>1922.2</ele>
        <time>2022-01-19T10:08:04Z</time>
      </trkpt>
      <trkpt lat="44.88131" lon="5.52246">
        <ele>1922.2</ele>
        <time>2022-01-19T10:08:05Z</time>
      </trkpt>
      <trkpt lat="44.88131" lon="5.52245">
        <ele>1922.3</ele>
        <time>2022-01-19T10:08:06Z</time>
      </trkpt>
      <trkpt lat="44.88131" lon="5.52245">
        <ele>1922.3</ele>
        <time>2022-01-19T10:08:07Z</time>
      </trkpt>
      <trkpt lat="44.88131" lon="5.52245">
        <ele>1922.3</ele>
        <time>2022-01-19T10:08:08Z</time>
      </trkpt>
      <trkpt lat="44.88131" lon="5.52245">
        <ele>1922.3</ele>
        <time>2022-01-19T10:08:09Z</time>
      </trkpt>
      <trkpt lat="44.88131" lon="5.52245">
        <ele>1922.3</ele>
        <time>2022-01-19T10:08:10Z</time>
      </trkpt>
      <trkpt lat="44.88131" lon="5.52245">
        <ele>1922.3</ele>
        <time>2022-01-19T10:08:11Z</time>
      </trkpt>
      <trkpt lat="44.88131" lon="5.52245">
        <ele>1922.3</ele>
        <time>2022-01-19T10:08:12Z</time>
      </trkpt>
      <trkpt lat="44.88131" lon="5.52245">
        <ele>1922.3</ele>
        <time>2022-01-19T10:08:13Z</time>
      </trkpt>
      <trkpt lat="44.88131" lon="5.52245">
        <ele>1922.3</ele>
        <time>2022-01-19T10:08:14Z</time>
      </trkpt>
      <trkpt lat="44.88131" lon="5.52245">
        <ele>1922.3</ele>
        <time>2022-01-19T10:08:15Z</time>
      </trkpt>
      <trkpt lat="44.88131" lon="5.52245">
        <ele>1922.3</ele>
        <time>2022-01-19T10:08:16Z</time>
      </trkpt>
      <trkpt lat="44.88131" lon="5.52245">
        <ele>1922.3</ele>
        <time>2022-01-19T10:08:17Z</time>
      </trkpt>
      <trkpt lat="44.88131" lon="5.52245">
        <ele>1922.3</ele>
        <time>2022-01-19T10:08:18Z</time>
      </trkpt>
      <trkpt lat="44.88131" lon="5.52245">
        <ele>1922.3</ele>
        <time>2022-01-19T10:08:19Z</time>
      </trkpt>
      <trkpt lat="44.88132" lon="5.52246">
        <ele>1922.3</ele>
        <time>2022-01-19T10:08:20Z</time>
      </trkpt>
      <trkpt lat="44.88132" lon="5.52246">
        <ele>1922.3</ele>
        <time>2022-01-19T10:08:21Z</time>
      </trkpt>
      <trkpt lat="44.88132" lon="5.52246">
        <ele>1922.4</ele>
        <time>2022-01-19T10:08:22Z</time>
      </trkpt>
      <trkpt lat="44.88133" lon="5.52247">
        <ele>1922.4</ele>
        <time>2022-01-19T10:08:23Z</time>
      </trkpt>
      <trkpt lat="44.88133" lon="5.52248">
        <ele>1922.5</ele>
        <time>2022-01-19T10:08:24Z</time>
      </trkpt>
      <trkpt lat="44.88133" lon="5.52248">
        <ele>1922.5</ele>
        <time>2022-01-19T10:08:25Z</time>
      </trkpt>
      <trkpt lat="44.88133" lon="5.52248">
        <ele>1922.5</ele>
        <time>2022-01-19T10:08:26Z</time>
      </trkpt>
      <trkpt lat="44.88133" lon="5.52248">
        <ele>1922.5</ele>
        <time>2022-01-19T10:08:27Z</time>
      </trkpt>
      <trkpt lat="44.88133" lon="5.52248">
        <ele>1922.5</ele>
        <time>2022-01-19T10:08:28Z</time>
      </trkpt>
      <trkpt lat="44.88133" lon="5.52248">
        <ele>1922.5</ele>
        <time>2022-01-19T10:08:29Z</time>
      </trkpt>
      <trkpt lat="44.88133" lon="5.52248">
        <ele>1922.5</ele>
        <time>2022-01-19T10:08:30Z</time>
      </trkpt>
      <trkpt lat="44.88133" lon="5.52248">
        <ele>1922.5</ele>
        <time>2022-01-19T10:08:31Z</time>
      </trkpt>
      <trkpt lat="44.88133" lon="5.52248">
        <ele>1922.5</ele>
        <time>2022-01-19T10:08:32Z</time>
      </trkpt>
      <trkpt lat="44.88133" lon="5.52248">
        <ele>1922.5</ele>
        <time>2022-01-19T10:08:33Z</time>
      </trkpt>
      <trkpt lat="44.88133" lon="5.52248">
        <ele>1922.5</ele>
        <time>2022-01-19T10:08:34Z</time>
      </trkpt>
      <trkpt lat="44.88133" lon="5.52248">
        <ele>1922.5</ele>
        <time>2022-01-19T10:08:35Z</time>
      </trkpt>
      <trkpt lat="44.88133" lon="5.52248">
        <ele>1922.5</ele>
        <time>2022-01-19T10:08:36Z</time>
      </trkpt>
      <trkpt lat="44.88133" lon="5.52248">
        <ele>1922.5</ele>
        <time>2022-01-19T10:08:37Z</time>
      </trkpt>
      <trkpt lat="44.88133" lon="5.52248">
        <ele>1922.5</ele>
        <time>2022-01-19T10:08:38Z</time>
      </trkpt>
      <trkpt lat="44.88133" lon="5.52248">
        <ele>1922.5</ele>
        <time>2022-01-19T10:08:39Z</time>
      </trkpt>
      <trkpt lat="44.88133" lon="5.52248">
        <ele>1922.5</ele>
        <time>2022-01-19T10:08:40Z</time>
      </trkpt>
      <trkpt lat="44.88133" lon="5.52248">
        <ele>1922.5</ele>
        <time>2022-01-19T10:08:41Z</time>
      </trkpt>
      <trkpt lat="44.88133" lon="5.52248">
        <ele>1922.5</ele>
        <time>2022-01-19T10:08:42Z</time>
      </trkpt>
      <trkpt lat="44.88133" lon="5.52248">
        <ele>1922.5</ele>
        <time>2022-01-19T10:08:43Z</time>
      </trkpt>
      <trkpt lat="44.88133" lon="5.52248">
        <ele>1922.5</ele>
        <time>2022-01-19T10:08:44Z</time>
      </trkpt>
      <trkpt lat="44.88133" lon="5.52248">
        <ele>1922.5</ele>
        <time>2022-01-19T10:08:45Z</time>
      </trkpt>
      <trkpt lat="44.88133" lon="5.52248">
        <ele>1922.5</ele>
        <time>2022-01-19T10:08:46Z</time>
      </trkpt>
      <trkpt lat="44.88133" lon="5.52248">
        <ele>1922.5</ele>
        <time>2022-01-19T10:08:47Z</time>
      </trkpt>
      <trkpt lat="44.88133" lon="5.52248">
        <ele>1922.5</ele>
        <time>2022-01-19T10:08:48Z</time>
      </trkpt>
      <trkpt lat="44.88133" lon="5.52248">
        <ele>1922.5</ele>
        <time>2022-01-19T10:08:49Z</time>
      </trkpt>
      <trkpt lat="44.88133" lon="5.52248">
        <ele>1922.5</ele>
        <time>2022-01-19T10:08:50Z</time>
      </trkpt>
      <trkpt lat="44.88133" lon="5.52248">
        <ele>1922.5</ele>
        <time>2022-01-19T10:08:51Z</time>
      </trkpt>
      <trkpt lat="44.88133" lon="5.52248">
        <ele>1922.5</ele>
        <time>2022-01-19T10:08:52Z</time>
      </trkpt>
      <trkpt lat="44.88133" lon="5.52248">
        <ele>1922.5</ele>
        <time>2022-01-19T10:08:53Z</time>
      </trkpt>
      <trkpt lat="44.88133" lon="5.52248">
        <ele>1922.5</ele>
        <time>2022-01-19T10:08:54Z</time>
      </trkpt>
      <trkpt lat="44.88133" lon="5.52248">
        <ele>1922.5</ele>
        <time>2022-01-19T10:08:55Z</time>
      </trkpt>
      <trkpt lat="44.88133" lon="5.52248">
        <ele>1922.5</ele>
        <time>2022-01-19T10:08:56Z</time>
      </trkpt>
      <trkpt lat="44.88133" lon="5.52248">
        <ele>1922.5</ele>
        <time>2022-01-19T10:08:57Z</time>
      </trkpt>
      <trkpt lat="44.88133" lon="5.52248">
        <ele>1922.5</ele>
        <time>2022-01-19T10:08:58Z</time>
      </trkpt>
      <trkpt lat="44.88133" lon="5.52248">
        <ele>1922.5</ele>
        <time>2022-01-19T10:08:59Z</time>
      </trkpt>
      <trkpt lat="44.88133" lon="5.52248">
        <ele>1922.5</ele>
        <time>2022-01-19T10:09:00Z</time>
      </trkpt>
      <trkpt lat="44.88133" lon="5.52248">
        <ele>1922.5</ele>
        <time>2022-01-19T10:09:01Z</time>
      </trkpt>
      <trkpt lat="44.88133" lon="5.52248">
        <ele>1922.5</ele>
        <time>2022-01-19T10:09:02Z</time>
      </trkpt>
      <trkpt lat="44.88133" lon="5.52248">
        <ele>1922.5</ele>
        <time>2022-01-19T10:09:03Z</time>
      </trkpt>
      <trkpt lat="44.88133" lon="5.52248">
        <ele>1922.5</ele>
        <time>2022-01-19T10:09:04Z</time>
      </trkpt>
      <trkpt lat="44.88133" lon="5.52248">
        <ele>1922.5</ele>
        <time>2022-01-19T10:09:05Z</time>
      </trkpt>
      <trkpt lat="44.88133" lon="5.52248">
        <ele>1922.5</ele>
        <time>2022-01-19T10:09:06Z</time>
      </trkpt>
      <trkpt lat="44.88133" lon="5.52248">
        <ele>1922.5</ele>
        <time>2022-01-19T10:09:07Z</time>
      </trkpt>
      <trkpt lat="44.88133" lon="5.52248">
        <ele>1922.5</ele>
        <time>2022-01-19T10:09:08Z</time>
      </trkpt>
      <trkpt lat="44.88133" lon="5.52248">
        <ele>1922.5</ele>
        <time>2022-01-19T10:09:09Z</time>
      </trkpt>
      <trkpt lat="44.88133" lon="5.52248">
        <ele>1922.5</ele>
        <time>2022-01-19T10:09:10Z</time>
      </trkpt>
      <trkpt lat="44.88133" lon="5.52248">
        <ele>1922.5</ele>
        <time>2022-01-19T10:09:11Z</time>
      </trkpt>
      <trkpt lat="44.88133" lon="5.52248">
        <ele>1922.5</ele>
        <time>2022-01-19T10:09:12Z</time>
      </trkpt>
      <trkpt lat="44.88133" lon="5.52248">
        <ele>1922.5</ele>
        <time>2022-01-19T10:09:13Z</time>
      </trkpt>
      <trkpt lat="44.88133" lon="5.52248">
        <ele>1922.5</ele>
        <time>2022-01-19T10:09:14Z</time>
      </trkpt>
      <trkpt lat="44.88133" lon="5.52248">
        <ele>1922.5</ele>
        <time>2022-01-19T10:09:15Z</time>
      </trkpt>
      <trkpt lat="44.88133" lon="5.52248">
        <ele>1922.5</ele>
        <time>2022-01-19T10:09:16Z</time>
      </trkpt>
      <trkpt lat="44.88133" lon="5.52248">
        <ele>1922.5</ele>
        <time>2022-01-19T10:09:17Z</time>
      </trkpt>
      <trkpt lat="44.88133" lon="5.52248">
        <ele>1922.5</ele>
        <time>2022-01-19T10:09:18Z</time>
      </trkpt>
      <trkpt lat="44.88133" lon="5.52248">
        <ele>1922.5</ele>
        <time>2022-01-19T10:09:19Z</time>
      </trkpt>
      <trkpt lat="44.88133" lon="5.52248">
        <ele>1922.5</ele>
        <time>2022-01-19T10:09:20Z</time>
      </trkpt>
      <trkpt lat="44.88133" lon="5.52248">
        <ele>1922.5</ele>
        <time>2022-01-19T10:09:21Z</time>
      </trkpt>
      <trkpt lat="44.88133" lon="5.52248">
        <ele>1922.5</ele>
        <time>2022-01-19T10:09:22Z</time>
      </trkpt>
      <trkpt lat="44.88133" lon="5.52248">
        <ele>1922.5</ele>
        <time>2022-01-19T10:09:23Z</time>
      </trkpt>
      <trkpt lat="44.88133" lon="5.52248">
        <ele>1922.5</ele>
        <time>2022-01-19T10:09:24Z</time>
      </trkpt>
      <trkpt lat="44.88133" lon="5.52248">
        <ele>1922.5</ele>
        <time>2022-01-19T10:09:25Z</time>
      </trkpt>
      <trkpt lat="44.88133" lon="5.52248">
        <ele>1922.5</ele>
        <time>2022-01-19T10:09:26Z</time>
      </trkpt>
      <trkpt lat="44.88133" lon="5.52248">
        <ele>1922.5</ele>
        <time>2022-01-19T10:09:27Z</time>
      </trkpt>
      <trkpt lat="44.88133" lon="5.52248">
        <ele>1922.5</ele>
        <time>2022-01-19T10:09:28Z</time>
      </trkpt>
      <trkpt lat="44.88133" lon="5.52248">
        <ele>1922.5</ele>
        <time>2022-01-19T10:09:29Z</time>
      </trkpt>
      <trkpt lat="44.88133" lon="5.52248">
        <ele>1922.5</ele>
        <time>2022-01-19T10:09:30Z</time>
      </trkpt>
      <trkpt lat="44.88133" lon="5.52248">
        <ele>1922.5</ele>
        <time>2022-01-19T10:09:31Z</time>
      </trkpt>
      <trkpt lat="44.88133" lon="5.52248">
        <ele>1922.5</ele>
        <time>2022-01-19T10:09:32Z</time>
      </trkpt>
      <trkpt lat="44.88133" lon="5.52248">
        <ele>1922.5</ele>
        <time>2022-01-19T10:09:33Z</time>
      </trkpt>
      <trkpt lat="44.88133" lon="5.52248">
        <ele>1922.5</ele>
        <time>2022-01-19T10:09:34Z</time>
      </trkpt>
      <trkpt lat="44.88133" lon="5.52248">
        <ele>1922.5</ele>
        <time>2022-01-19T10:09:35Z</time>
      </trkpt>
      <trkpt lat="44.88133" lon="5.52248">
        <ele>1922.5</ele>
        <time>2022-01-19T10:09:36Z</time>
      </trkpt>
      <trkpt lat="44.88133" lon="5.52248">
        <ele>1922.5</ele>
        <time>2022-01-19T10:09:37Z</time>
      </trkpt>
      <trkpt lat="44.88133" lon="5.52248">
        <ele>1922.5</ele>
        <time>2022-01-19T10:09:38Z</time>
      </trkpt>
      <trkpt lat="44.88133" lon="5.52248">
        <ele>1922.5</ele>
        <time>2022-01-19T10:09:39Z</time>
      </trkpt>
      <trkpt lat="44.88133" lon="5.52248">
        <ele>1922.5</ele>
        <time>2022-01-19T10:09:40Z</time>
      </trkpt>
      <trkpt lat="44.88133" lon="5.52248">
        <ele>1922.5</ele>
        <time>2022-01-19T10:09:41Z</time>
      </trkpt>
      <trkpt lat="44.88133" lon="5.52248">
        <ele>1922.5</ele>
        <time>2022-01-19T10:09:42Z</time>
      </trkpt>
      <trkpt lat="44.88133" lon="5.52248">
        <ele>1922.5</ele>
        <time>2022-01-19T10:09:43Z</time>
      </trkpt>
      <trkpt lat="44.88133" lon="5.52248">
        <ele>1922.5</ele>
        <time>2022-01-19T10:09:44Z</time>
      </trkpt>
      <trkpt lat="44.88133" lon="5.52248">
        <ele>1922.5</ele>
        <time>2022-01-19T10:09:45Z</time>
      </trkpt>
      <trkpt lat="44.88133" lon="5.52248">
        <ele>1922.5</ele>
        <time>2022-01-19T10:09:46Z</time>
      </trkpt>
      <trkpt lat="44.88133" lon="5.52248">
        <ele>1922.5</ele>
        <time>2022-01-19T10:09:47Z</time>
      </trkpt>
      <trkpt lat="44.88133" lon="5.52248">
        <ele>1922.5</ele>
        <time>2022-01-19T10:09:48Z</time>
      </trkpt>
      <trkpt lat="44.88133" lon="5.52248">
        <ele>1922.5</ele>
        <time>2022-01-19T10:09:49Z</time>
      </trkpt>
      <trkpt lat="44.88133" lon="5.52248">
        <ele>1922.5</ele>
        <time>2022-01-19T10:09:50Z</time>
      </trkpt>
      <trkpt lat="44.88133" lon="5.52248">
        <ele>1922.5</ele>
        <time>2022-01-19T10:09:51Z</time>
      </trkpt>
      <trkpt lat="44.88133" lon="5.52248">
        <ele>1922.5</ele>
        <time>2022-01-19T10:09:52Z</time>
      </trkpt>
      <trkpt lat="44.88133" lon="5.52248">
        <ele>1922.5</ele>
        <time>2022-01-19T10:09:53Z</time>
      </trkpt>
      <trkpt lat="44.88133" lon="5.52248">
        <ele>1922.5</ele>
        <time>2022-01-19T10:09:54Z</time>
      </trkpt>
      <trkpt lat="44.88133" lon="5.52248">
        <ele>1922.5</ele>
        <time>2022-01-19T10:09:55Z</time>
      </trkpt>
      <trkpt lat="44.88133" lon="5.52248">
        <ele>1922.5</ele>
        <time>2022-01-19T10:09:56Z</time>
      </trkpt>
      <trkpt lat="44.88133" lon="5.52248">
        <ele>1922.5</ele>
        <time>2022-01-19T10:09:57Z</time>
      </trkpt>
      <trkpt lat="44.88133" lon="5.52248">
        <ele>1922.5</ele>
        <time>2022-01-19T10:09:58Z</time>
      </trkpt>
      <trkpt lat="44.88133" lon="5.52248">
        <ele>1922.5</ele>
        <time>2022-01-19T10:09:59Z</time>
      </trkpt>
      <trkpt lat="44.88133" lon="5.52248">
        <ele>1922.5</ele>
        <time>2022-01-19T10:10:00Z</time>
      </trkpt>
      <trkpt lat="44.88133" lon="5.52248">
        <ele>1922.5</ele>
        <time>2022-01-19T10:10:01Z</time>
      </trkpt>
      <trkpt lat="44.88133" lon="5.52248">
        <ele>1922.5</ele>
        <time>2022-01-19T10:10:02Z</time>
      </trkpt>
      <trkpt lat="44.88133" lon="5.52248">
        <ele>1922.5</ele>
        <time>2022-01-19T10:10:03Z</time>
      </trkpt>
      <trkpt lat="44.88133" lon="5.52248">
        <ele>1922.5</ele>
        <time>2022-01-19T10:10:04Z</time>
      </trkpt>
      <trkpt lat="44.88133" lon="5.52248">
        <ele>1922.5</ele>
        <time>2022-01-19T10:10:05Z</time>
      </trkpt>
      <trkpt lat="44.88133" lon="5.52248">
        <ele>1922.5</ele>
        <time>2022-01-19T10:10:06Z</time>
      </trkpt>
      <trkpt lat="44.88133" lon="5.52248">
        <ele>1922.5</ele>
        <time>2022-01-19T10:10:07Z</time>
      </trkpt>
      <trkpt lat="44.88133" lon="5.52248">
        <ele>1922.5</ele>
        <time>2022-01-19T10:10:08Z</time>
      </trkpt>
      <trkpt lat="44.88133" lon="5.52248">
        <ele>1922.5</ele>
        <time>2022-01-19T10:10:09Z</time>
      </trkpt>
      <trkpt lat="44.88133" lon="5.52248">
        <ele>1922.5</ele>
        <time>2022-01-19T10:10:10Z</time>
      </trkpt>
      <trkpt lat="44.88133" lon="5.52248">
        <ele>1922.5</ele>
        <time>2022-01-19T10:10:11Z</time>
      </trkpt>
      <trkpt lat="44.88133" lon="5.52248">
        <ele>1922.5</ele>
        <time>2022-01-19T10:10:12Z</time>
      </trkpt>
      <trkpt lat="44.88133" lon="5.52248">
        <ele>1922.5</ele>
        <time>2022-01-19T10:10:13Z</time>
      </trkpt>
      <trkpt lat="44.88133" lon="5.52248">
        <ele>1922.5</ele>
        <time>2022-01-19T10:10:14Z</time>
      </trkpt>
      <trkpt lat="44.88133" lon="5.52248">
        <ele>1922.5</ele>
        <time>2022-01-19T10:10:15Z</time>
      </trkpt>
      <trkpt lat="44.88133" lon="5.52248">
        <ele>1922.5</ele>
        <time>2022-01-19T10:10:16Z</time>
      </trkpt>
      <trkpt lat="44.88133" lon="5.52248">
        <ele>1922.5</ele>
        <time>2022-01-19T10:10:17Z</time>
      </trkpt>
      <trkpt lat="44.88133" lon="5.52248">
        <ele>1922.5</ele>
        <time>2022-01-19T10:10:18Z</time>
      </trkpt>
      <trkpt lat="44.88133" lon="5.52248">
        <ele>1922.5</ele>
        <time>2022-01-19T10:10:19Z</time>
      </trkpt>
      <trkpt lat="44.88133" lon="5.52248">
        <ele>1922.5</ele>
        <time>2022-01-19T10:10:20Z</time>
      </trkpt>
      <trkpt lat="44.88133" lon="5.52248">
        <ele>1922.5</ele>
        <time>2022-01-19T10:10:21Z</time>
      </trkpt>
      <trkpt lat="44.88133" lon="5.52248">
        <ele>1922.5</ele>
        <time>2022-01-19T10:10:22Z</time>
      </trkpt>
      <trkpt lat="44.88133" lon="5.52248">
        <ele>1922.5</ele>
        <time>2022-01-19T10:10:23Z</time>
      </trkpt>
      <trkpt lat="44.88133" lon="5.52248">
        <ele>1922.5</ele>
        <time>2022-01-19T10:10:24Z</time>
      </trkpt>
      <trkpt lat="44.88133" lon="5.52248">
        <ele>1922.5</ele>
        <time>2022-01-19T10:10:25Z</time>
      </trkpt>
      <trkpt lat="44.88133" lon="5.52248">
        <ele>1922.5</ele>
        <time>2022-01-19T10:10:26Z</time>
      </trkpt>
      <trkpt lat="44.88133" lon="5.52248">
        <ele>1922.5</ele>
        <time>2022-01-19T10:10:27Z</time>
      </trkpt>
      <trkpt lat="44.88133" lon="5.52248">
        <ele>1922.5</ele>
        <time>2022-01-19T10:10:28Z</time>
      </trkpt>
      <trkpt lat="44.88133" lon="5.52248">
        <ele>1922.5</ele>
        <time>2022-01-19T10:10:29Z</time>
      </trkpt>
      <trkpt lat="44.88133" lon="5.52248">
        <ele>1922.5</ele>
        <time>2022-01-19T10:10:30Z</time>
      </trkpt>
      <trkpt lat="44.88133" lon="5.52248">
        <ele>1922.5</ele>
        <time>2022-01-19T10:10:31Z</time>
      </trkpt>
      <trkpt lat="44.88133" lon="5.52248">
        <ele>1922.5</ele>
        <time>2022-01-19T10:10:32Z</time>
      </trkpt>
      <trkpt lat="44.88133" lon="5.52248">
        <ele>1922.5</ele>
        <time>2022-01-19T10:10:33Z</time>
      </trkpt>
      <trkpt lat="44.88133" lon="5.52248">
        <ele>1922.5</ele>
        <time>2022-01-19T10:10:34Z</time>
      </trkpt>
      <trkpt lat="44.88133" lon="5.52248">
        <ele>1922.5</ele>
        <time>2022-01-19T10:10:35Z</time>
      </trkpt>
      <trkpt lat="44.88133" lon="5.52248">
        <ele>1922.5</ele>
        <time>2022-01-19T10:10:36Z</time>
      </trkpt>
      <trkpt lat="44.88133" lon="5.52248">
        <ele>1922.5</ele>
        <time>2022-01-19T10:10:37Z</time>
      </trkpt>
      <trkpt lat="44.88133" lon="5.52248">
        <ele>1922.5</ele>
        <time>2022-01-19T10:10:38Z</time>
      </trkpt>
      <trkpt lat="44.88133" lon="5.52248">
        <ele>1922.5</ele>
        <time>2022-01-19T10:10:39Z</time>
      </trkpt>
      <trkpt lat="44.88133" lon="5.52248">
        <ele>1922.5</ele>
        <time>2022-01-19T10:10:40Z</time>
      </trkpt>
      <trkpt lat="44.88133" lon="5.52248">
        <ele>1922.5</ele>
        <time>2022-01-19T10:10:41Z</time>
      </trkpt>
      <trkpt lat="44.88133" lon="5.52248">
        <ele>1922.5</ele>
        <time>2022-01-19T10:10:42Z</time>
      </trkpt>
      <trkpt lat="44.88133" lon="5.52248">
        <ele>1922.5</ele>
        <time>2022-01-19T10:10:43Z</time>
      </trkpt>
      <trkpt lat="44.88133" lon="5.52248">
        <ele>1922.5</ele>
        <time>2022-01-19T10:10:44Z</time>
      </trkpt>
      <trkpt lat="44.88133" lon="5.52248">
        <ele>1922.5</ele>
        <time>2022-01-19T10:10:45Z</time>
      </trkpt>
      <trkpt lat="44.88133" lon="5.52248">
        <ele>1922.5</ele>
        <time>2022-01-19T10:10:46Z</time>
      </trkpt>
      <trkpt lat="44.88133" lon="5.52248">
        <ele>1922.5</ele>
        <time>2022-01-19T10:10:47Z</time>
      </trkpt>
      <trkpt lat="44.88133" lon="5.52248">
        <ele>1922.5</ele>
        <time>2022-01-19T10:10:48Z</time>
      </trkpt>
      <trkpt lat="44.88133" lon="5.52248">
        <ele>1922.5</ele>
        <time>2022-01-19T10:10:49Z</time>
      </trkpt>
      <trkpt lat="44.88133" lon="5.52248">
        <ele>1922.5</ele>
        <time>2022-01-19T10:10:50Z</time>
      </trkpt>
      <trkpt lat="44.88133" lon="5.52248">
        <ele>1922.5</ele>
        <time>2022-01-19T10:10:51Z</time>
      </trkpt>
      <trkpt lat="44.88133" lon="5.52248">
        <ele>1922.5</ele>
        <time>2022-01-19T10:10:52Z</time>
      </trkpt>
      <trkpt lat="44.88133" lon="5.52248">
        <ele>1922.5</ele>
        <time>2022-01-19T10:10:53Z</time>
      </trkpt>
      <trkpt lat="44.88133" lon="5.52248">
        <ele>1922.5</ele>
        <time>2022-01-19T10:10:54Z</time>
      </trkpt>
      <trkpt lat="44.88133" lon="5.52248">
        <ele>1922.5</ele>
        <time>2022-01-19T10:10:55Z</time>
      </trkpt>
      <trkpt lat="44.88133" lon="5.52248">
        <ele>1922.5</ele>
        <time>2022-01-19T10:10:56Z</time>
      </trkpt>
      <trkpt lat="44.88133" lon="5.52248">
        <ele>1922.5</ele>
        <time>2022-01-19T10:10:57Z</time>
      </trkpt>
      <trkpt lat="44.88133" lon="5.52248">
        <ele>1922.5</ele>
        <time>2022-01-19T10:10:58Z</time>
      </trkpt>
      <trkpt lat="44.88133" lon="5.52248">
        <ele>1922.5</ele>
        <time>2022-01-19T10:10:59Z</time>
      </trkpt>
      <trkpt lat="44.88133" lon="5.52248">
        <ele>1922.5</ele>
        <time>2022-01-19T10:11:00Z</time>
      </trkpt>
      <trkpt lat="44.88133" lon="5.52248">
        <ele>1922.5</ele>
        <time>2022-01-19T10:11:01Z</time>
      </trkpt>
      <trkpt lat="44.88133" lon="5.52248">
        <ele>1922.5</ele>
        <time>2022-01-19T10:11:02Z</time>
      </trkpt>
      <trkpt lat="44.88133" lon="5.52248">
        <ele>1922.5</ele>
        <time>2022-01-19T10:11:03Z</time>
      </trkpt>
      <trkpt lat="44.88133" lon="5.52248">
        <ele>1922.5</ele>
        <time>2022-01-19T10:11:04Z</time>
      </trkpt>
      <trkpt lat="44.88133" lon="5.52248">
        <ele>1922.5</ele>
        <time>2022-01-19T10:11:05Z</time>
      </trkpt>
      <trkpt lat="44.88133" lon="5.52248">
        <ele>1922.5</ele>
        <time>2022-01-19T10:11:06Z</time>
      </trkpt>
      <trkpt lat="44.88133" lon="5.52248">
        <ele>1922.5</ele>
        <time>2022-01-19T10:11:07Z</time>
      </trkpt>
      <trkpt lat="44.88133" lon="5.52248">
        <ele>1922.5</ele>
        <time>2022-01-19T10:11:08Z</time>
      </trkpt>
      <trkpt lat="44.88133" lon="5.52248">
        <ele>1922.5</ele>
        <time>2022-01-19T10:11:09Z</time>
      </trkpt>
      <trkpt lat="44.88133" lon="5.52248">
        <ele>1922.5</ele>
        <time>2022-01-19T10:11:10Z</time>
      </trkpt>
      <trkpt lat="44.88133" lon="5.52248">
        <ele>1922.5</ele>
        <time>2022-01-19T10:11:11Z</time>
      </trkpt>
      <trkpt lat="44.88133" lon="5.52248">
        <ele>1922.5</ele>
        <time>2022-01-19T10:11:12Z</time>
      </trkpt>
      <trkpt lat="44.88133" lon="5.52248">
        <ele>1922.5</ele>
        <time>2022-01-19T10:11:13Z</time>
      </trkpt>
      <trkpt lat="44.88133" lon="5.52248">
        <ele>1922.5</ele>
        <time>2022-01-19T10:11:14Z</time>
      </trkpt>
      <trkpt lat="44.88133" lon="5.52248">
        <ele>1922.5</ele>
        <time>2022-01-19T10:11:15Z</time>
      </trkpt>
      <trkpt lat="44.88133" lon="5.52248">
        <ele>1922.5</ele>
        <time>2022-01-19T10:11:16Z</time>
      </trkpt>
      <trkpt lat="44.88133" lon="5.52248">
        <ele>1922.5</ele>
        <time>2022-01-19T10:11:17Z</time>
      </trkpt>
      <trkpt lat="44.88133" lon="5.52248">
        <ele>1922.5</ele>
        <time>2022-01-19T10:11:18Z</time>
      </trkpt>
      <trkpt lat="44.88133" lon="5.52248">
        <ele>1922.5</ele>
        <time>2022-01-19T10:11:19Z</time>
      </trkpt>
      <trkpt lat="44.88133" lon="5.52248">
        <ele>1922.5</ele>
        <time>2022-01-19T10:11:20Z</time>
      </trkpt>
      <trkpt lat="44.88133" lon="5.52248">
        <ele>1922.5</ele>
        <time>2022-01-19T10:11:21Z</time>
      </trkpt>
      <trkpt lat="44.88133" lon="5.52248">
        <ele>1922.5</ele>
        <time>2022-01-19T10:11:22Z</time>
      </trkpt>
      <trkpt lat="44.88133" lon="5.52248">
        <ele>1922.5</ele>
        <time>2022-01-19T10:11:23Z</time>
      </trkpt>
      <trkpt lat="44.88133" lon="5.52248">
        <ele>1922.5</ele>
        <time>2022-01-19T10:11:24Z</time>
      </trkpt>
      <trkpt lat="44.88133" lon="5.52248">
        <ele>1922.5</ele>
        <time>2022-01-19T10:11:25Z</time>
      </trkpt>
      <trkpt lat="44.88133" lon="5.52248">
        <ele>1922.5</ele>
        <time>2022-01-19T10:11:26Z</time>
      </trkpt>
      <trkpt lat="44.88133" lon="5.52248">
        <ele>1922.5</ele>
        <time>2022-01-19T10:11:27Z</time>
      </trkpt>
      <trkpt lat="44.88133" lon="5.52248">
        <ele>1922.5</ele>
        <time>2022-01-19T10:11:28Z</time>
      </trkpt>
      <trkpt lat="44.88133" lon="5.52248">
        <ele>1922.5</ele>
        <time>2022-01-19T10:11:29Z</time>
      </trkpt>
      <trkpt lat="44.88133" lon="5.52248">
        <ele>1922.5</ele>
        <time>2022-01-19T10:11:30Z</time>
      </trkpt>
      <trkpt lat="44.88133" lon="5.52248">
        <ele>1922.5</ele>
        <time>2022-01-19T10:11:31Z</time>
      </trkpt>
      <trkpt lat="44.88133" lon="5.52248">
        <ele>1922.5</ele>
        <time>2022-01-19T10:11:32Z</time>
      </trkpt>
      <trkpt lat="44.88133" lon="5.52248">
        <ele>1922.5</ele>
        <time>2022-01-19T10:11:33Z</time>
      </trkpt>
      <trkpt lat="44.88133" lon="5.52248">
        <ele>1922.5</ele>
        <time>2022-01-19T10:11:34Z</time>
      </trkpt>
      <trkpt lat="44.88133" lon="5.52248">
        <ele>1922.5</ele>
        <time>2022-01-19T10:11:35Z</time>
      </trkpt>
      <trkpt lat="44.88133" lon="5.52248">
        <ele>1922.5</ele>
        <time>2022-01-19T10:11:36Z</time>
      </trkpt>
      <trkpt lat="44.88133" lon="5.52248">
        <ele>1922.5</ele>
        <time>2022-01-19T10:11:37Z</time>
      </trkpt>
      <trkpt lat="44.88133" lon="5.52248">
        <ele>1922.5</ele>
        <time>2022-01-19T10:11:38Z</time>
      </trkpt>
      <trkpt lat="44.88133" lon="5.52248">
        <ele>1922.5</ele>
        <time>2022-01-19T10:11:39Z</time>
      </trkpt>
      <trkpt lat="44.88133" lon="5.52248">
        <ele>1922.5</ele>
        <time>2022-01-19T10:11:40Z</time>
      </trkpt>
      <trkpt lat="44.88133" lon="5.52248">
        <ele>1922.5</ele>
        <time>2022-01-19T10:11:41Z</time>
      </trkpt>
      <trkpt lat="44.88133" lon="5.52248">
        <ele>1922.5</ele>
        <time>2022-01-19T10:11:42Z</time>
      </trkpt>
      <trkpt lat="44.88133" lon="5.52248">
        <ele>1922.5</ele>
        <time>2022-01-19T10:11:43Z</time>
      </trkpt>
      <trkpt lat="44.88133" lon="5.52248">
        <ele>1922.5</ele>
        <time>2022-01-19T10:11:44Z</time>
      </trkpt>
      <trkpt lat="44.88133" lon="5.52248">
        <ele>1922.5</ele>
        <time>2022-01-19T10:11:45Z</time>
      </trkpt>
      <trkpt lat="44.88133" lon="5.52248">
        <ele>1922.5</ele>
        <time>2022-01-19T10:11:46Z</time>
      </trkpt>
      <trkpt lat="44.88133" lon="5.52248">
        <ele>1922.5</ele>
        <time>2022-01-19T10:11:47Z</time>
      </trkpt>
      <trkpt lat="44.88133" lon="5.52248">
        <ele>1922.5</ele>
        <time>2022-01-19T10:11:48Z</time>
      </trkpt>
      <trkpt lat="44.88133" lon="5.52248">
        <ele>1922.5</ele>
        <time>2022-01-19T10:11:49Z</time>
      </trkpt>
      <trkpt lat="44.88133" lon="5.52248">
        <ele>1922.5</ele>
        <time>2022-01-19T10:11:50Z</time>
      </trkpt>
      <trkpt lat="44.88133" lon="5.52248">
        <ele>1922.5</ele>
        <time>2022-01-19T10:11:51Z</time>
      </trkpt>
      <trkpt lat="44.88133" lon="5.52248">
        <ele>1922.5</ele>
        <time>2022-01-19T10:11:52Z</time>
      </trkpt>
      <trkpt lat="44.88133" lon="5.52248">
        <ele>1922.5</ele>
        <time>2022-01-19T10:11:53Z</time>
      </trkpt>
      <trkpt lat="44.88133" lon="5.52248">
        <ele>1922.5</ele>
        <time>2022-01-19T10:11:54Z</time>
      </trkpt>
      <trkpt lat="44.88133" lon="5.52248">
        <ele>1922.5</ele>
        <time>2022-01-19T10:11:55Z</time>
      </trkpt>
      <trkpt lat="44.88133" lon="5.52248">
        <ele>1922.5</ele>
        <time>2022-01-19T10:11:56Z</time>
      </trkpt>
      <trkpt lat="44.88133" lon="5.52248">
        <ele>1922.5</ele>
        <time>2022-01-19T10:11:57Z</time>
      </trkpt>
      <trkpt lat="44.88133" lon="5.52248">
        <ele>1922.5</ele>
        <time>2022-01-19T10:11:58Z</time>
      </trkpt>
      <trkpt lat="44.88133" lon="5.52248">
        <ele>1922.5</ele>
        <time>2022-01-19T10:11:59Z</time>
      </trkpt>
      <trkpt lat="44.88133" lon="5.52248">
        <ele>1922.5</ele>
        <time>2022-01-19T10:12:00Z</time>
      </trkpt>
      <trkpt lat="44.88133" lon="5.52248">
        <ele>1922.5</ele>
        <time>2022-01-19T10:12:01Z</time>
      </trkpt>
      <trkpt lat="44.88133" lon="5.52248">
        <ele>1922.5</ele>
        <time>2022-01-19T10:12:02Z</time>
      </trkpt>
      <trkpt lat="44.88133" lon="5.52248">
        <ele>1922.5</ele>
        <time>2022-01-19T10:12:03Z</time>
      </trkpt>
      <trkpt lat="44.88133" lon="5.52248">
        <ele>1922.5</ele>
        <time>2022-01-19T10:12:04Z</time>
      </trkpt>
      <trkpt lat="44.88133" lon="5.52248">
        <ele>1922.5</ele>
        <time>2022-01-19T10:12:05Z</time>
      </trkpt>
      <trkpt lat="44.88133" lon="5.52248">
        <ele>1922.5</ele>
        <time>2022-01-19T10:12:06Z</time>
      </trkpt>
      <trkpt lat="44.88133" lon="5.52248">
        <ele>1922.5</ele>
        <time>2022-01-19T10:12:07Z</time>
      </trkpt>
      <trkpt lat="44.88133" lon="5.52248">
        <ele>1922.5</ele>
        <time>2022-01-19T10:12:08Z</time>
      </trkpt>
      <trkpt lat="44.88133" lon="5.52248">
        <ele>1922.5</ele>
        <time>2022-01-19T10:12:09Z</time>
      </trkpt>
      <trkpt lat="44.88133" lon="5.52248">
        <ele>1922.5</ele>
        <time>2022-01-19T10:12:10Z</time>
      </trkpt>
      <trkpt lat="44.88133" lon="5.52248">
        <ele>1922.5</ele>
        <time>2022-01-19T10:12:11Z</time>
      </trkpt>
      <trkpt lat="44.88133" lon="5.52248">
        <ele>1922.5</ele>
        <time>2022-01-19T10:12:12Z</time>
      </trkpt>
      <trkpt lat="44.88133" lon="5.52248">
        <ele>1922.5</ele>
        <time>2022-01-19T10:12:13Z</time>
      </trkpt>
      <trkpt lat="44.88133" lon="5.52248">
        <ele>1922.5</ele>
        <time>2022-01-19T10:12:14Z</time>
      </trkpt>
      <trkpt lat="44.88133" lon="5.52248">
        <ele>1922.5</ele>
        <time>2022-01-19T10:12:15Z</time>
      </trkpt>
      <trkpt lat="44.88133" lon="5.52248">
        <ele>1922.5</ele>
        <time>2022-01-19T10:12:16Z</time>
      </trkpt>
      <trkpt lat="44.88133" lon="5.52248">
        <ele>1922.5</ele>
        <time>2022-01-19T10:12:17Z</time>
      </trkpt>
      <trkpt lat="44.88133" lon="5.52248">
        <ele>1922.5</ele>
        <time>2022-01-19T10:12:18Z</time>
      </trkpt>
      <trkpt lat="44.88133" lon="5.52248">
        <ele>1922.5</ele>
        <time>2022-01-19T10:12:19Z</time>
      </trkpt>
      <trkpt lat="44.88133" lon="5.52248">
        <ele>1922.5</ele>
        <time>2022-01-19T10:12:20Z</time>
      </trkpt>
      <trkpt lat="44.88133" lon="5.52248">
        <ele>1922.5</ele>
        <time>2022-01-19T10:12:21Z</time>
      </trkpt>
      <trkpt lat="44.88133" lon="5.52248">
        <ele>1922.5</ele>
        <time>2022-01-19T10:12:22Z</time>
      </trkpt>
      <trkpt lat="44.88133" lon="5.52248">
        <ele>1922.5</ele>
        <time>2022-01-19T10:12:23Z</time>
      </trkpt>
      <trkpt lat="44.88133" lon="5.52248">
        <ele>1922.5</ele>
        <time>2022-01-19T10:12:24Z</time>
      </trkpt>
      <trkpt lat="44.88133" lon="5.52248">
        <ele>1922.5</ele>
        <time>2022-01-19T10:12:25Z</time>
      </trkpt>
      <trkpt lat="44.88133" lon="5.52248">
        <ele>1922.5</ele>
        <time>2022-01-19T10:12:26Z</time>
      </trkpt>
      <trkpt lat="44.88133" lon="5.52248">
        <ele>1922.5</ele>
        <time>2022-01-19T10:12:27Z</time>
      </trkpt>
      <trkpt lat="44.88133" lon="5.52248">
        <ele>1922.5</ele>
        <time>2022-01-19T10:12:28Z</time>
      </trkpt>
      <trkpt lat="44.88133" lon="5.52248">
        <ele>1922.5</ele>
        <time>2022-01-19T10:12:29Z</time>
      </trkpt>
      <trkpt lat="44.88133" lon="5.52248">
        <ele>1922.5</ele>
        <time>2022-01-19T10:12:30Z</time>
      </trkpt>
      <trkpt lat="44.88133" lon="5.52248">
        <ele>1922.5</ele>
        <time>2022-01-19T10:12:31Z</time>
      </trkpt>
      <trkpt lat="44.88133" lon="5.52248">
        <ele>1922.5</ele>
        <time>2022-01-19T10:12:32Z</time>
      </trkpt>
      <trkpt lat="44.88133" lon="5.52248">
        <ele>1922.5</ele>
        <time>2022-01-19T10:12:33Z</time>
      </trkpt>
      <trkpt lat="44.88133" lon="5.52248">
        <ele>1922.5</ele>
        <time>2022-01-19T10:12:34Z</time>
      </trkpt>
      <trkpt lat="44.88133" lon="5.52248">
        <ele>1922.5</ele>
        <time>2022-01-19T10:12:35Z</time>
      </trkpt>
      <trkpt lat="44.88133" lon="5.52248">
        <ele>1922.5</ele>
        <time>2022-01-19T10:12:36Z</time>
      </trkpt>
      <trkpt lat="44.88133" lon="5.52248">
        <ele>1922.5</ele>
        <time>2022-01-19T10:12:37Z</time>
      </trkpt>
      <trkpt lat="44.88133" lon="5.52248">
        <ele>1922.5</ele>
        <time>2022-01-19T10:12:38Z</time>
      </trkpt>
      <trkpt lat="44.88133" lon="5.52248">
        <ele>1922.5</ele>
        <time>2022-01-19T10:12:39Z</time>
      </trkpt>
      <trkpt lat="44.88133" lon="5.52248">
        <ele>1922.5</ele>
        <time>2022-01-19T10:12:40Z</time>
      </trkpt>
      <trkpt lat="44.88133" lon="5.52248">
        <ele>1922.5</ele>
        <time>2022-01-19T10:12:41Z</time>
      </trkpt>
      <trkpt lat="44.88133" lon="5.52248">
        <ele>1922.5</ele>
        <time>2022-01-19T10:12:42Z</time>
      </trkpt>
      <trkpt lat="44.88133" lon="5.52248">
        <ele>1922.5</ele>
        <time>2022-01-19T10:12:43Z</time>
      </trkpt>
      <trkpt lat="44.88133" lon="5.52248">
        <ele>1922.5</ele>
        <time>2022-01-19T10:12:44Z</time>
      </trkpt>
      <trkpt lat="44.88133" lon="5.52248">
        <ele>1922.5</ele>
        <time>2022-01-19T10:12:45Z</time>
      </trkpt>
      <trkpt lat="44.88133" lon="5.52248">
        <ele>1922.5</ele>
        <time>2022-01-19T10:12:46Z</time>
      </trkpt>
      <trkpt lat="44.88133" lon="5.52248">
        <ele>1922.5</ele>
        <time>2022-01-19T10:12:47Z</time>
      </trkpt>
      <trkpt lat="44.88133" lon="5.52248">
        <ele>1922.5</ele>
        <time>2022-01-19T10:12:48Z</time>
      </trkpt>
      <trkpt lat="44.88133" lon="5.52248">
        <ele>1922.5</ele>
        <time>2022-01-19T10:12:49Z</time>
      </trkpt>
      <trkpt lat="44.88133" lon="5.52248">
        <ele>1922.5</ele>
        <time>2022-01-19T10:12:50Z</time>
      </trkpt>
      <trkpt lat="44.88133" lon="5.52248">
        <ele>1922.5</ele>
        <time>2022-01-19T10:12:51Z</time>
      </trkpt>
      <trkpt lat="44.88133" lon="5.52248">
        <ele>1922.5</ele>
        <time>2022-01-19T10:12:52Z</time>
      </trkpt>
      <trkpt lat="44.88133" lon="5.52248">
        <ele>1922.5</ele>
        <time>2022-01-19T10:12:53Z</time>
      </trkpt>
      <trkpt lat="44.88133" lon="5.52248">
        <ele>1922.5</ele>
        <time>2022-01-19T10:12:54Z</time>
      </trkpt>
      <trkpt lat="44.88133" lon="5.52248">
        <ele>1922.5</ele>
        <time>2022-01-19T10:12:55Z</time>
      </trkpt>
      <trkpt lat="44.88133" lon="5.52248">
        <ele>1922.5</ele>
        <time>2022-01-19T10:12:56Z</time>
      </trkpt>
      <trkpt lat="44.88133" lon="5.52248">
        <ele>1922.5</ele>
        <time>2022-01-19T10:12:57Z</time>
      </trkpt>
      <trkpt lat="44.88133" lon="5.52248">
        <ele>1922.5</ele>
        <time>2022-01-19T10:12:58Z</time>
      </trkpt>
      <trkpt lat="44.88133" lon="5.52248">
        <ele>1922.5</ele>
        <time>2022-01-19T10:12:59Z</time>
      </trkpt>
      <trkpt lat="44.88133" lon="5.52248">
        <ele>1922.5</ele>
        <time>2022-01-19T10:13:00Z</time>
      </trkpt>
      <trkpt lat="44.88133" lon="5.52248">
        <ele>1922.5</ele>
        <time>2022-01-19T10:13:01Z</time>
      </trkpt>
      <trkpt lat="44.88133" lon="5.52248">
        <ele>1922.5</ele>
        <time>2022-01-19T10:13:02Z</time>
      </trkpt>
      <trkpt lat="44.88133" lon="5.52248">
        <ele>1922.5</ele>
        <time>2022-01-19T10:13:03Z</time>
      </trkpt>
      <trkpt lat="44.88133" lon="5.52248">
        <ele>1922.5</ele>
        <time>2022-01-19T10:13:04Z</time>
      </trkpt>
      <trkpt lat="44.88133" lon="5.52248">
        <ele>1922.5</ele>
        <time>2022-01-19T10:13:05Z</time>
      </trkpt>
      <trkpt lat="44.88133" lon="5.52248">
        <ele>1922.5</ele>
        <time>2022-01-19T10:13:06Z</time>
      </trkpt>
      <trkpt lat="44.88133" lon="5.52248">
        <ele>1922.5</ele>
        <time>2022-01-19T10:13:07Z</time>
      </trkpt>
      <trkpt lat="44.88133" lon="5.52248">
        <ele>1922.5</ele>
        <time>2022-01-19T10:13:08Z</time>
      </trkpt>
      <trkpt lat="44.88133" lon="5.52248">
        <ele>1922.5</ele>
        <time>2022-01-19T10:13:09Z</time>
      </trkpt>
      <trkpt lat="44.88133" lon="5.52248">
        <ele>1922.5</ele>
        <time>2022-01-19T10:13:10Z</time>
      </trkpt>
      <trkpt lat="44.88133" lon="5.52248">
        <ele>1922.5</ele>
        <time>2022-01-19T10:13:11Z</time>
      </trkpt>
      <trkpt lat="44.88133" lon="5.52248">
        <ele>1922.5</ele>
        <time>2022-01-19T10:13:12Z</time>
      </trkpt>
      <trkpt lat="44.88133" lon="5.52248">
        <ele>1922.5</ele>
        <time>2022-01-19T10:13:13Z</time>
      </trkpt>
      <trkpt lat="44.88133" lon="5.52248">
        <ele>1922.5</ele>
        <time>2022-01-19T10:13:14Z</time>
      </trkpt>
      <trkpt lat="44.88133" lon="5.52248">
        <ele>1922.5</ele>
        <time>2022-01-19T10:13:15Z</time>
      </trkpt>
      <trkpt lat="44.88133" lon="5.52248">
        <ele>1922.5</ele>
        <time>2022-01-19T10:13:16Z</time>
      </trkpt>
      <trkpt lat="44.88133" lon="5.52248">
        <ele>1922.5</ele>
        <time>2022-01-19T10:13:17Z</time>
      </trkpt>
      <trkpt lat="44.88133" lon="5.52248">
        <ele>1922.5</ele>
        <time>2022-01-19T10:13:18Z</time>
      </trkpt>
      <trkpt lat="44.88133" lon="5.52248">
        <ele>1922.5</ele>
        <time>2022-01-19T10:13:19Z</time>
      </trkpt>
      <trkpt lat="44.88133" lon="5.52248">
        <ele>1922.5</ele>
        <time>2022-01-19T10:13:20Z</time>
      </trkpt>
      <trkpt lat="44.88133" lon="5.52248">
        <ele>1922.5</ele>
        <time>2022-01-19T10:13:21Z</time>
      </trkpt>
      <trkpt lat="44.88133" lon="5.52248">
        <ele>1922.5</ele>
        <time>2022-01-19T10:13:22Z</time>
      </trkpt>
      <trkpt lat="44.88133" lon="5.52248">
        <ele>1922.5</ele>
        <time>2022-01-19T10:13:23Z</time>
      </trkpt>
      <trkpt lat="44.88133" lon="5.52248">
        <ele>1922.5</ele>
        <time>2022-01-19T10:13:24Z</time>
      </trkpt>
      <trkpt lat="44.88133" lon="5.52248">
        <ele>1922.5</ele>
        <time>2022-01-19T10:13:25Z</time>
      </trkpt>
      <trkpt lat="44.88133" lon="5.52248">
        <ele>1922.5</ele>
        <time>2022-01-19T10:13:26Z</time>
      </trkpt>
      <trkpt lat="44.88133" lon="5.52248">
        <ele>1922.5</ele>
        <time>2022-01-19T10:13:27Z</time>
      </trkpt>
      <trkpt lat="44.88131" lon="5.52247">
        <ele>1922.6</ele>
        <time>2022-01-19T10:13:28Z</time>
      </trkpt>
      <trkpt lat="44.88131" lon="5.52246">
        <ele>1922.7</ele>
        <time>2022-01-19T10:13:29Z</time>
      </trkpt>
      <trkpt lat="44.88131" lon="5.52246">
        <ele>1922.7</ele>
        <time>2022-01-19T10:13:30Z</time>
      </trkpt>
      <trkpt lat="44.88131" lon="5.52246">
        <ele>1922.7</ele>
        <time>2022-01-19T10:13:31Z</time>
      </trkpt>
      <trkpt lat="44.88131" lon="5.52247">
        <ele>1922.7</ele>
        <time>2022-01-19T10:13:32Z</time>
      </trkpt>
      <trkpt lat="44.88131" lon="5.52247">
        <ele>1922.7</ele>
        <time>2022-01-19T10:13:33Z</time>
      </trkpt>
      <trkpt lat="44.88131" lon="5.52247">
        <ele>1922.7</ele>
        <time>2022-01-19T10:13:34Z</time>
      </trkpt>
      <trkpt lat="44.88131" lon="5.52247">
        <ele>1922.7</ele>
        <time>2022-01-19T10:13:35Z</time>
      </trkpt>
      <trkpt lat="44.88131" lon="5.52247">
        <ele>1922.7</ele>
        <time>2022-01-19T10:13:36Z</time>
      </trkpt>
      <trkpt lat="44.88131" lon="5.52247">
        <ele>1922.7</ele>
        <time>2022-01-19T10:13:37Z</time>
      </trkpt>
      <trkpt lat="44.88131" lon="5.52247">
        <ele>1922.7</ele>
        <time>2022-01-19T10:13:38Z</time>
      </trkpt>
      <trkpt lat="44.88131" lon="5.52247">
        <ele>1922.7</ele>
        <time>2022-01-19T10:13:39Z</time>
      </trkpt>
      <trkpt lat="44.88131" lon="5.52247">
        <ele>1922.7</ele>
        <time>2022-01-19T10:13:40Z</time>
      </trkpt>
      <trkpt lat="44.88131" lon="5.52247">
        <ele>1922.7</ele>
        <time>2022-01-19T10:13:41Z</time>
      </trkpt>
      <trkpt lat="44.88131" lon="5.52247">
        <ele>1922.7</ele>
        <time>2022-01-19T10:13:42Z</time>
      </trkpt>
      <trkpt lat="44.88131" lon="5.52247">
        <ele>1922.7</ele>
        <time>2022-01-19T10:13:43Z</time>
      </trkpt>
      <trkpt lat="44.88131" lon="5.52247">
        <ele>1922.7</ele>
        <time>2022-01-19T10:13:44Z</time>
      </trkpt>
      <trkpt lat="44.88131" lon="5.52247">
        <ele>1922.7</ele>
        <time>2022-01-19T10:13:45Z</time>
      </trkpt>
      <trkpt lat="44.88131" lon="5.52247">
        <ele>1922.7</ele>
        <time>2022-01-19T10:13:46Z</time>
      </trkpt>
      <trkpt lat="44.88131" lon="5.52247">
        <ele>1922.7</ele>
        <time>2022-01-19T10:13:47Z</time>
      </trkpt>
      <trkpt lat="44.88131" lon="5.52247">
        <ele>1922.7</ele>
        <time>2022-01-19T10:13:48Z</time>
      </trkpt>
      <trkpt lat="44.88131" lon="5.52247">
        <ele>1922.7</ele>
        <time>2022-01-19T10:13:49Z</time>
      </trkpt>
      <trkpt lat="44.88131" lon="5.52247">
        <ele>1922.7</ele>
        <time>2022-01-19T10:13:50Z</time>
      </trkpt>
      <trkpt lat="44.88131" lon="5.52247">
        <ele>1922.7</ele>
        <time>2022-01-19T10:13:51Z</time>
      </trkpt>
      <trkpt lat="44.88131" lon="5.52247">
        <ele>1922.7</ele>
        <time>2022-01-19T10:13:52Z</time>
      </trkpt>
      <trkpt lat="44.88131" lon="5.52247">
        <ele>1922.7</ele>
        <time>2022-01-19T10:13:53Z</time>
      </trkpt>
      <trkpt lat="44.88131" lon="5.52247">
        <ele>1922.7</ele>
        <time>2022-01-19T10:13:54Z</time>
      </trkpt>
      <trkpt lat="44.88131" lon="5.52247">
        <ele>1922.7</ele>
        <time>2022-01-19T10:13:55Z</time>
      </trkpt>
      <trkpt lat="44.88131" lon="5.52247">
        <ele>1922.7</ele>
        <time>2022-01-19T10:13:56Z</time>
      </trkpt>
      <trkpt lat="44.88131" lon="5.52247">
        <ele>1922.7</ele>
        <time>2022-01-19T10:13:57Z</time>
      </trkpt>
      <trkpt lat="44.88131" lon="5.52247">
        <ele>1922.7</ele>
        <time>2022-01-19T10:13:58Z</time>
      </trkpt>
      <trkpt lat="44.88131" lon="5.52247">
        <ele>1922.7</ele>
        <time>2022-01-19T10:13:59Z</time>
      </trkpt>
      <trkpt lat="44.88131" lon="5.52247">
        <ele>1922.7</ele>
        <time>2022-01-19T10:14:00Z</time>
      </trkpt>
      <trkpt lat="44.88131" lon="5.52247">
        <ele>1922.7</ele>
        <time>2022-01-19T10:14:01Z</time>
      </trkpt>
      <trkpt lat="44.88131" lon="5.52247">
        <ele>1922.7</ele>
        <time>2022-01-19T10:14:02Z</time>
      </trkpt>
      <trkpt lat="44.88131" lon="5.52247">
        <ele>1922.7</ele>
        <time>2022-01-19T10:14:03Z</time>
      </trkpt>
      <trkpt lat="44.88131" lon="5.52247">
        <ele>1922.7</ele>
        <time>2022-01-19T10:14:04Z</time>
      </trkpt>
      <trkpt lat="44.88131" lon="5.52247">
        <ele>1922.7</ele>
        <time>2022-01-19T10:14:05Z</time>
      </trkpt>
      <trkpt lat="44.88131" lon="5.52247">
        <ele>1922.7</ele>
        <time>2022-01-19T10:14:06Z</time>
      </trkpt>
      <trkpt lat="44.88131" lon="5.52247">
        <ele>1922.7</ele>
        <time>2022-01-19T10:14:07Z</time>
      </trkpt>
      <trkpt lat="44.88131" lon="5.52247">
        <ele>1922.7</ele>
        <time>2022-01-19T10:14:08Z</time>
      </trkpt>
      <trkpt lat="44.88131" lon="5.52247">
        <ele>1922.7</ele>
        <time>2022-01-19T10:14:09Z</time>
      </trkpt>
      <trkpt lat="44.88131" lon="5.52247">
        <ele>1922.7</ele>
        <time>2022-01-19T10:14:10Z</time>
      </trkpt>
      <trkpt lat="44.88131" lon="5.52247">
        <ele>1922.7</ele>
        <time>2022-01-19T10:14:11Z</time>
      </trkpt>
      <trkpt lat="44.88131" lon="5.52247">
        <ele>1922.7</ele>
        <time>2022-01-19T10:14:12Z</time>
      </trkpt>
      <trkpt lat="44.88131" lon="5.52247">
        <ele>1922.7</ele>
        <time>2022-01-19T10:14:13Z</time>
      </trkpt>
      <trkpt lat="44.88131" lon="5.52247">
        <ele>1922.7</ele>
        <time>2022-01-19T10:14:14Z</time>
      </trkpt>
      <trkpt lat="44.88131" lon="5.52247">
        <ele>1922.7</ele>
        <time>2022-01-19T10:14:15Z</time>
      </trkpt>
      <trkpt lat="44.88131" lon="5.52247">
        <ele>1922.7</ele>
        <time>2022-01-19T10:14:16Z</time>
      </trkpt>
      <trkpt lat="44.88131" lon="5.52247">
        <ele>1922.7</ele>
        <time>2022-01-19T10:14:17Z</time>
      </trkpt>
      <trkpt lat="44.88131" lon="5.52247">
        <ele>1922.7</ele>
        <time>2022-01-19T10:14:18Z</time>
      </trkpt>
      <trkpt lat="44.88131" lon="5.52247">
        <ele>1922.7</ele>
        <time>2022-01-19T10:14:19Z</time>
      </trkpt>
      <trkpt lat="44.88131" lon="5.52247">
        <ele>1922.7</ele>
        <time>2022-01-19T10:14:20Z</time>
      </trkpt>
      <trkpt lat="44.88131" lon="5.52247">
        <ele>1922.7</ele>
        <time>2022-01-19T10:14:21Z</time>
      </trkpt>
      <trkpt lat="44.88131" lon="5.52247">
        <ele>1922.7</ele>
        <time>2022-01-19T10:14:22Z</time>
      </trkpt>
      <trkpt lat="44.88131" lon="5.52247">
        <ele>1922.7</ele>
        <time>2022-01-19T10:14:23Z</time>
      </trkpt>
      <trkpt lat="44.88131" lon="5.52247">
        <ele>1922.7</ele>
        <time>2022-01-19T10:14:24Z</time>
      </trkpt>
      <trkpt lat="44.88131" lon="5.52247">
        <ele>1922.7</ele>
        <time>2022-01-19T10:14:25Z</time>
      </trkpt>
      <trkpt lat="44.88131" lon="5.52247">
        <ele>1922.7</ele>
        <time>2022-01-19T10:14:26Z</time>
      </trkpt>
      <trkpt lat="44.88131" lon="5.52247">
        <ele>1922.7</ele>
        <time>2022-01-19T10:14:27Z</time>
      </trkpt>
      <trkpt lat="44.88131" lon="5.52247">
        <ele>1922.7</ele>
        <time>2022-01-19T10:14:28Z</time>
      </trkpt>
      <trkpt lat="44.88131" lon="5.52247">
        <ele>1922.7</ele>
        <time>2022-01-19T10:14:29Z</time>
      </trkpt>
      <trkpt lat="44.88131" lon="5.52247">
        <ele>1922.7</ele>
        <time>2022-01-19T10:14:30Z</time>
      </trkpt>
      <trkpt lat="44.88131" lon="5.52247">
        <ele>1922.7</ele>
        <time>2022-01-19T10:14:31Z</time>
      </trkpt>
      <trkpt lat="44.88131" lon="5.52247">
        <ele>1922.7</ele>
        <time>2022-01-19T10:14:32Z</time>
      </trkpt>
      <trkpt lat="44.88131" lon="5.52247">
        <ele>1922.7</ele>
        <time>2022-01-19T10:14:33Z</time>
      </trkpt>
      <trkpt lat="44.88131" lon="5.52247">
        <ele>1922.7</ele>
        <time>2022-01-19T10:14:34Z</time>
      </trkpt>
      <trkpt lat="44.88131" lon="5.52247">
        <ele>1922.7</ele>
        <time>2022-01-19T10:14:35Z</time>
      </trkpt>
      <trkpt lat="44.88131" lon="5.52247">
        <ele>1922.7</ele>
        <time>2022-01-19T10:14:36Z</time>
      </trkpt>
      <trkpt lat="44.88131" lon="5.52247">
        <ele>1922.7</ele>
        <time>2022-01-19T10:14:37Z</time>
      </trkpt>
      <trkpt lat="44.88131" lon="5.52247">
        <ele>1922.7</ele>
        <time>2022-01-19T10:14:38Z</time>
      </trkpt>
      <trkpt lat="44.88131" lon="5.52247">
        <ele>1922.7</ele>
        <time>2022-01-19T10:14:39Z</time>
      </trkpt>
      <trkpt lat="44.88131" lon="5.52247">
        <ele>1922.7</ele>
        <time>2022-01-19T10:14:40Z</time>
      </trkpt>
      <trkpt lat="44.88131" lon="5.52247">
        <ele>1922.7</ele>
        <time>2022-01-19T10:14:41Z</time>
      </trkpt>
      <trkpt lat="44.88131" lon="5.52247">
        <ele>1922.7</ele>
        <time>2022-01-19T10:14:42Z</time>
      </trkpt>
      <trkpt lat="44.88131" lon="5.52247">
        <ele>1922.7</ele>
        <time>2022-01-19T10:14:43Z</time>
      </trkpt>
      <trkpt lat="44.88131" lon="5.52247">
        <ele>1922.7</ele>
        <time>2022-01-19T10:14:44Z</time>
      </trkpt>
      <trkpt lat="44.88131" lon="5.52247">
        <ele>1922.7</ele>
        <time>2022-01-19T10:14:45Z</time>
      </trkpt>
      <trkpt lat="44.88131" lon="5.52247">
        <ele>1922.7</ele>
        <time>2022-01-19T10:14:46Z</time>
      </trkpt>
      <trkpt lat="44.88131" lon="5.52247">
        <ele>1922.7</ele>
        <time>2022-01-19T10:14:47Z</time>
      </trkpt>
      <trkpt lat="44.88131" lon="5.52247">
        <ele>1922.7</ele>
        <time>2022-01-19T10:14:48Z</time>
      </trkpt>
      <trkpt lat="44.88131" lon="5.52247">
        <ele>1922.7</ele>
        <time>2022-01-19T10:14:49Z</time>
      </trkpt>
      <trkpt lat="44.88131" lon="5.52247">
        <ele>1922.7</ele>
        <time>2022-01-19T10:14:50Z</time>
      </trkpt>
      <trkpt lat="44.88131" lon="5.52247">
        <ele>1922.7</ele>
        <time>2022-01-19T10:14:51Z</time>
      </trkpt>
      <trkpt lat="44.88131" lon="5.52247">
        <ele>1922.7</ele>
        <time>2022-01-19T10:14:52Z</time>
      </trkpt>
      <trkpt lat="44.88131" lon="5.52247">
        <ele>1922.7</ele>
        <time>2022-01-19T10:14:53Z</time>
      </trkpt>
      <trkpt lat="44.88131" lon="5.52247">
        <ele>1922.7</ele>
        <time>2022-01-19T10:14:54Z</time>
      </trkpt>
      <trkpt lat="44.88131" lon="5.52247">
        <ele>1922.7</ele>
        <time>2022-01-19T10:14:55Z</time>
      </trkpt>
      <trkpt lat="44.88131" lon="5.52247">
        <ele>1922.7</ele>
        <time>2022-01-19T10:14:56Z</time>
      </trkpt>
      <trkpt lat="44.88131" lon="5.52247">
        <ele>1922.7</ele>
        <time>2022-01-19T10:14:57Z</time>
      </trkpt>
      <trkpt lat="44.88131" lon="5.52247">
        <ele>1922.7</ele>
        <time>2022-01-19T10:14:58Z</time>
      </trkpt>
      <trkpt lat="44.88131" lon="5.52247">
        <ele>1922.7</ele>
        <time>2022-01-19T10:14:59Z</time>
      </trkpt>
      <trkpt lat="44.88131" lon="5.52247">
        <ele>1922.7</ele>
        <time>2022-01-19T10:15:00Z</time>
      </trkpt>
      <trkpt lat="44.88131" lon="5.52247">
        <ele>1922.7</ele>
        <time>2022-01-19T10:15:01Z</time>
      </trkpt>
      <trkpt lat="44.88131" lon="5.52247">
        <ele>1922.7</ele>
        <time>2022-01-19T10:15:02Z</time>
      </trkpt>
      <trkpt lat="44.88131" lon="5.52247">
        <ele>1922.7</ele>
        <time>2022-01-19T10:15:03Z</time>
      </trkpt>
      <trkpt lat="44.88131" lon="5.52247">
        <ele>1922.7</ele>
        <time>2022-01-19T10:15:04Z</time>
      </trkpt>
      <trkpt lat="44.88131" lon="5.52247">
        <ele>1922.7</ele>
        <time>2022-01-19T10:15:05Z</time>
      </trkpt>
      <trkpt lat="44.88131" lon="5.52247">
        <ele>1922.7</ele>
        <time>2022-01-19T10:15:06Z</time>
      </trkpt>
      <trkpt lat="44.88131" lon="5.52247">
        <ele>1922.7</ele>
        <time>2022-01-19T10:15:07Z</time>
      </trkpt>
      <trkpt lat="44.88131" lon="5.52247">
        <ele>1922.7</ele>
        <time>2022-01-19T10:15:08Z</time>
      </trkpt>
      <trkpt lat="44.88131" lon="5.52247">
        <ele>1922.7</ele>
        <time>2022-01-19T10:15:09Z</time>
      </trkpt>
      <trkpt lat="44.88131" lon="5.52247">
        <ele>1922.7</ele>
        <time>2022-01-19T10:15:10Z</time>
      </trkpt>
      <trkpt lat="44.88131" lon="5.52247">
        <ele>1922.7</ele>
        <time>2022-01-19T10:15:11Z</time>
      </trkpt>
      <trkpt lat="44.88131" lon="5.52247">
        <ele>1922.7</ele>
        <time>2022-01-19T10:15:12Z</time>
      </trkpt>
      <trkpt lat="44.88131" lon="5.52247">
        <ele>1922.7</ele>
        <time>2022-01-19T10:15:13Z</time>
      </trkpt>
      <trkpt lat="44.88131" lon="5.52247">
        <ele>1922.7</ele>
        <time>2022-01-19T10:15:14Z</time>
      </trkpt>
      <trkpt lat="44.88131" lon="5.52247">
        <ele>1922.7</ele>
        <time>2022-01-19T10:15:15Z</time>
      </trkpt>
      <trkpt lat="44.88131" lon="5.52247">
        <ele>1922.7</ele>
        <time>2022-01-19T10:15:16Z</time>
      </trkpt>
      <trkpt lat="44.88131" lon="5.52247">
        <ele>1922.7</ele>
        <time>2022-01-19T10:15:17Z</time>
      </trkpt>
      <trkpt lat="44.88131" lon="5.52247">
        <ele>1922.7</ele>
        <time>2022-01-19T10:15:18Z</time>
      </trkpt>
      <trkpt lat="44.88131" lon="5.52247">
        <ele>1922.7</ele>
        <time>2022-01-19T10:15:19Z</time>
      </trkpt>
      <trkpt lat="44.88131" lon="5.52247">
        <ele>1922.7</ele>
        <time>2022-01-19T10:15:20Z</time>
      </trkpt>
      <trkpt lat="44.88131" lon="5.52247">
        <ele>1922.7</ele>
        <time>2022-01-19T10:15:21Z</time>
      </trkpt>
      <trkpt lat="44.88131" lon="5.52247">
        <ele>1922.7</ele>
        <time>2022-01-19T10:15:22Z</time>
      </trkpt>
      <trkpt lat="44.88131" lon="5.52247">
        <ele>1922.7</ele>
        <time>2022-01-19T10:15:23Z</time>
      </trkpt>
      <trkpt lat="44.88131" lon="5.52247">
        <ele>1922.7</ele>
        <time>2022-01-19T10:15:24Z</time>
      </trkpt>
      <trkpt lat="44.88131" lon="5.52247">
        <ele>1922.7</ele>
        <time>2022-01-19T10:15:25Z</time>
      </trkpt>
      <trkpt lat="44.88131" lon="5.52247">
        <ele>1922.7</ele>
        <time>2022-01-19T10:15:26Z</time>
      </trkpt>
      <trkpt lat="44.88131" lon="5.52247">
        <ele>1922.7</ele>
        <time>2022-01-19T10:15:27Z</time>
      </trkpt>
      <trkpt lat="44.88131" lon="5.52247">
        <ele>1922.7</ele>
        <time>2022-01-19T10:15:28Z</time>
      </trkpt>
      <trkpt lat="44.88131" lon="5.52247">
        <ele>1922.7</ele>
        <time>2022-01-19T10:15:29Z</time>
      </trkpt>
      <trkpt lat="44.88131" lon="5.52247">
        <ele>1922.7</ele>
        <time>2022-01-19T10:15:30Z</time>
      </trkpt>
      <trkpt lat="44.88131" lon="5.52247">
        <ele>1922.7</ele>
        <time>2022-01-19T10:15:31Z</time>
      </trkpt>
      <trkpt lat="44.88131" lon="5.52247">
        <ele>1922.7</ele>
        <time>2022-01-19T10:15:32Z</time>
      </trkpt>
      <trkpt lat="44.88131" lon="5.52247">
        <ele>1922.7</ele>
        <time>2022-01-19T10:15:33Z</time>
      </trkpt>
      <trkpt lat="44.88131" lon="5.52247">
        <ele>1922.7</ele>
        <time>2022-01-19T10:15:34Z</time>
      </trkpt>
      <trkpt lat="44.88131" lon="5.52247">
        <ele>1922.7</ele>
        <time>2022-01-19T10:15:35Z</time>
      </trkpt>
      <trkpt lat="44.88131" lon="5.52247">
        <ele>1922.7</ele>
        <time>2022-01-19T10:15:36Z</time>
      </trkpt>
      <trkpt lat="44.88131" lon="5.52247">
        <ele>1922.7</ele>
        <time>2022-01-19T10:15:37Z</time>
      </trkpt>
      <trkpt lat="44.88131" lon="5.52247">
        <ele>1922.7</ele>
        <time>2022-01-19T10:15:38Z</time>
      </trkpt>
      <trkpt lat="44.88131" lon="5.52247">
        <ele>1922.7</ele>
        <time>2022-01-19T10:15:39Z</time>
      </trkpt>
      <trkpt lat="44.88131" lon="5.52247">
        <ele>1922.7</ele>
        <time>2022-01-19T10:15:40Z</time>
      </trkpt>
      <trkpt lat="44.88131" lon="5.52247">
        <ele>1922.7</ele>
        <time>2022-01-19T10:15:41Z</time>
      </trkpt>
      <trkpt lat="44.88131" lon="5.52247">
        <ele>1922.7</ele>
        <time>2022-01-19T10:15:42Z</time>
      </trkpt>
      <trkpt lat="44.88131" lon="5.52247">
        <ele>1922.7</ele>
        <time>2022-01-19T10:15:43Z</time>
      </trkpt>
      <trkpt lat="44.88131" lon="5.52247">
        <ele>1922.7</ele>
        <time>2022-01-19T10:15:44Z</time>
      </trkpt>
      <trkpt lat="44.88131" lon="5.52247">
        <ele>1922.7</ele>
        <time>2022-01-19T10:15:45Z</time>
      </trkpt>
      <trkpt lat="44.88131" lon="5.52247">
        <ele>1922.7</ele>
        <time>2022-01-19T10:15:46Z</time>
      </trkpt>
      <trkpt lat="44.88131" lon="5.52247">
        <ele>1922.7</ele>
        <time>2022-01-19T10:15:47Z</time>
      </trkpt>
      <trkpt lat="44.88131" lon="5.52247">
        <ele>1922.7</ele>
        <time>2022-01-19T10:15:48Z</time>
      </trkpt>
      <trkpt lat="44.88131" lon="5.52247">
        <ele>1922.7</ele>
        <time>2022-01-19T10:15:49Z</time>
      </trkpt>
      <trkpt lat="44.88131" lon="5.52247">
        <ele>1922.7</ele>
        <time>2022-01-19T10:15:50Z</time>
      </trkpt>
      <trkpt lat="44.88129" lon="5.52248">
        <ele>1922.9</ele>
        <time>2022-01-19T10:15:51Z</time>
      </trkpt>
      <trkpt lat="44.88129" lon="5.52247">
        <ele>1922.9</ele>
        <time>2022-01-19T10:15:52Z</time>
      </trkpt>
      <trkpt lat="44.88129" lon="5.52247">
        <ele>1922.9</ele>
        <time>2022-01-19T10:15:53Z</time>
      </trkpt>
      <trkpt lat="44.88129" lon="5.52246">
        <ele>1922.9</ele>
        <time>2022-01-19T10:15:54Z</time>
      </trkpt>
      <trkpt lat="44.88129" lon="5.52246">
        <ele>1923</ele>
        <time>2022-01-19T10:15:55Z</time>
      </trkpt>
      <trkpt lat="44.88129" lon="5.52246">
        <ele>1923</ele>
        <time>2022-01-19T10:15:56Z</time>
      </trkpt>
      <trkpt lat="44.88129" lon="5.52246">
        <ele>1923</ele>
        <time>2022-01-19T10:15:57Z</time>
      </trkpt>
      <trkpt lat="44.88129" lon="5.52246">
        <ele>1923</ele>
        <time>2022-01-19T10:15:58Z</time>
      </trkpt>
      <trkpt lat="44.88129" lon="5.52246">
        <ele>1923</ele>
        <time>2022-01-19T10:15:59Z</time>
      </trkpt>
      <trkpt lat="44.88129" lon="5.52246">
        <ele>1923</ele>
        <time>2022-01-19T10:16:00Z</time>
      </trkpt>
      <trkpt lat="44.88129" lon="5.52246">
        <ele>1923</ele>
        <time>2022-01-19T10:16:01Z</time>
      </trkpt>
      <trkpt lat="44.88129" lon="5.52246">
        <ele>1923</ele>
        <time>2022-01-19T10:16:02Z</time>
      </trkpt>
      <trkpt lat="44.88129" lon="5.52246">
        <ele>1923</ele>
        <time>2022-01-19T10:16:03Z</time>
      </trkpt>
      <trkpt lat="44.88129" lon="5.52246">
        <ele>1923</ele>
        <time>2022-01-19T10:16:04Z</time>
      </trkpt>
      <trkpt lat="44.88128" lon="5.52246">
        <ele>1923.1</ele>
        <time>2022-01-19T10:16:05Z</time>
      </trkpt>
      <trkpt lat="44.88128" lon="5.52247">
        <ele>1923.1</ele>
        <time>2022-01-19T10:16:06Z</time>
      </trkpt>
      <trkpt lat="44.88128" lon="5.52247">
        <ele>1923.1</ele>
        <time>2022-01-19T10:16:07Z</time>
      </trkpt>
      <trkpt lat="44.88128" lon="5.52248">
        <ele>1923.2</ele>
        <time>2022-01-19T10:16:08Z</time>
      </trkpt>
      <trkpt lat="44.88129" lon="5.52248">
        <ele>1923.2</ele>
        <time>2022-01-19T10:16:09Z</time>
      </trkpt>
      <trkpt lat="44.88129" lon="5.52249">
        <ele>1923.3</ele>
        <time>2022-01-19T10:16:10Z</time>
      </trkpt>
      <trkpt lat="44.88129" lon="5.5225">
        <ele>1923.3</ele>
        <time>2022-01-19T10:16:11Z</time>
      </trkpt>
      <trkpt lat="44.88129" lon="5.52251">
        <ele>1923.4</ele>
        <time>2022-01-19T10:16:12Z</time>
      </trkpt>
      <trkpt lat="44.88128" lon="5.52252">
        <ele>1923.5</ele>
        <time>2022-01-19T10:16:13Z</time>
      </trkpt>
      <trkpt lat="44.88128" lon="5.52252">
        <ele>1923.5</ele>
        <time>2022-01-19T10:16:14Z</time>
      </trkpt>
      <trkpt lat="44.88127" lon="5.52253">
        <ele>1923.6</ele>
        <time>2022-01-19T10:16:15Z</time>
      </trkpt>
      <trkpt lat="44.88126" lon="5.52253">
        <ele>1923.6</ele>
        <time>2022-01-19T10:16:16Z</time>
      </trkpt>
      <trkpt lat="44.88126" lon="5.52253">
        <ele>1923.7</ele>
        <time>2022-01-19T10:16:17Z</time>
      </trkpt>
      <trkpt lat="44.88126" lon="5.52253">
        <ele>1923.7</ele>
        <time>2022-01-19T10:16:18Z</time>
      </trkpt>
      <trkpt lat="44.88126" lon="5.52253">
        <ele>1923.7</ele>
        <time>2022-01-19T10:16:19Z</time>
      </trkpt>
      <trkpt lat="44.88127" lon="5.52253">
        <ele>1923.8</ele>
        <time>2022-01-19T10:16:20Z</time>
      </trkpt>
      <trkpt lat="44.88128" lon="5.52253">
        <ele>1923.8</ele>
        <time>2022-01-19T10:16:21Z</time>
      </trkpt>
      <trkpt lat="44.88128" lon="5.52253">
        <ele>1923.8</ele>
        <time>2022-01-19T10:16:22Z</time>
      </trkpt>
      <trkpt lat="44.88127" lon="5.52252">
        <ele>1923.9</ele>
        <time>2022-01-19T10:16:23Z</time>
      </trkpt>
      <trkpt lat="44.88127" lon="5.52252">
        <ele>1923.9</ele>
        <time>2022-01-19T10:16:24Z</time>
      </trkpt>
      <trkpt lat="44.88126" lon="5.52252">
        <ele>1924</ele>
        <time>2022-01-19T10:16:25Z</time>
      </trkpt>
      <trkpt lat="44.88126" lon="5.52251">
        <ele>1924</ele>
        <time>2022-01-19T10:16:26Z</time>
      </trkpt>
      <trkpt lat="44.88126" lon="5.52251">
        <ele>1924</ele>
        <time>2022-01-19T10:16:27Z</time>
      </trkpt>
      <trkpt lat="44.88126" lon="5.52251">
        <ele>1924.1</ele>
        <time>2022-01-19T10:16:28Z</time>
      </trkpt>
      <trkpt lat="44.88126" lon="5.5225">
        <ele>1924.1</ele>
        <time>2022-01-19T10:16:29Z</time>
      </trkpt>
      <trkpt lat="44.88125" lon="5.5225">
        <ele>1924.2</ele>
        <time>2022-01-19T10:16:30Z</time>
      </trkpt>
      <trkpt lat="44.88125" lon="5.5225">
        <ele>1924.2</ele>
        <time>2022-01-19T10:16:31Z</time>
      </trkpt>
      <trkpt lat="44.88124" lon="5.52249">
        <ele>1924.3</ele>
        <time>2022-01-19T10:16:32Z</time>
      </trkpt>
      <trkpt lat="44.88123" lon="5.52249">
        <ele>1924.4</ele>
        <time>2022-01-19T10:16:33Z</time>
      </trkpt>
      <trkpt lat="44.88123" lon="5.52248">
        <ele>1924.4</ele>
        <time>2022-01-19T10:16:34Z</time>
      </trkpt>
      <trkpt lat="44.88123" lon="5.52248">
        <ele>1924.5</ele>
        <time>2022-01-19T10:16:35Z</time>
      </trkpt>
      <trkpt lat="44.88122" lon="5.52247">
        <ele>1924.5</ele>
        <time>2022-01-19T10:16:36Z</time>
      </trkpt>
      <trkpt lat="44.88122" lon="5.52247">
        <ele>1924.6</ele>
        <time>2022-01-19T10:16:37Z</time>
      </trkpt>
      <trkpt lat="44.88121" lon="5.52247">
        <ele>1924.7</ele>
        <time>2022-01-19T10:16:38Z</time>
      </trkpt>
      <trkpt lat="44.88121" lon="5.52246">
        <ele>1924.7</ele>
        <time>2022-01-19T10:16:39Z</time>
      </trkpt>
      <trkpt lat="44.8812" lon="5.52246">
        <ele>1924.8</ele>
        <time>2022-01-19T10:16:40Z</time>
      </trkpt>
      <trkpt lat="44.8812" lon="5.52245">
        <ele>1924.8</ele>
        <time>2022-01-19T10:16:41Z</time>
      </trkpt>
      <trkpt lat="44.8812" lon="5.52245">
        <ele>1924.9</ele>
        <time>2022-01-19T10:16:42Z</time>
      </trkpt>
      <trkpt lat="44.88119" lon="5.52244">
        <ele>1924.9</ele>
        <time>2022-01-19T10:16:43Z</time>
      </trkpt>
      <trkpt lat="44.88119" lon="5.52244">
        <ele>1925</ele>
        <time>2022-01-19T10:16:44Z</time>
      </trkpt>
      <trkpt lat="44.88118" lon="5.52244">
        <ele>1925</ele>
        <time>2022-01-19T10:16:45Z</time>
      </trkpt>
      <trkpt lat="44.88118" lon="5.52243">
        <ele>1925.1</ele>
        <time>2022-01-19T10:16:46Z</time>
      </trkpt>
      <trkpt lat="44.88118" lon="5.52243">
        <ele>1925.1</ele>
        <time>2022-01-19T10:16:47Z</time>
      </trkpt>
      <trkpt lat="44.88117" lon="5.52242">
        <ele>1925.2</ele>
        <time>2022-01-19T10:16:48Z</time>
      </trkpt>
      <trkpt lat="44.88117" lon="5.52242">
        <ele>1925.3</ele>
        <time>2022-01-19T10:16:49Z</time>
      </trkpt>
      <trkpt lat="44.88116" lon="5.52241">
        <ele>1925.4</ele>
        <time>2022-01-19T10:16:50Z</time>
      </trkpt>
      <trkpt lat="44.88115" lon="5.52241">
        <ele>1925.5</ele>
        <time>2022-01-19T10:16:51Z</time>
      </trkpt>
      <trkpt lat="44.88115" lon="5.5224">
        <ele>1925.6</ele>
        <time>2022-01-19T10:16:52Z</time>
      </trkpt>
      <trkpt lat="44.88115" lon="5.52239">
        <ele>1925.6</ele>
        <time>2022-01-19T10:16:53Z</time>
      </trkpt>
      <trkpt lat="44.88114" lon="5.52238">
        <ele>1925.7</ele>
        <time>2022-01-19T10:16:54Z</time>
      </trkpt>
      <trkpt lat="44.88114" lon="5.52238">
        <ele>1925.8</ele>
        <time>2022-01-19T10:16:55Z</time>
      </trkpt>
      <trkpt lat="44.88113" lon="5.52238">
        <ele>1925.9</ele>
        <time>2022-01-19T10:16:56Z</time>
      </trkpt>
      <trkpt lat="44.88113" lon="5.52237">
        <ele>1925.9</ele>
        <time>2022-01-19T10:16:57Z</time>
      </trkpt>
      <trkpt lat="44.88112" lon="5.52237">
        <ele>1926</ele>
        <time>2022-01-19T10:16:58Z</time>
      </trkpt>
      <trkpt lat="44.88112" lon="5.52237">
        <ele>1926.1</ele>
        <time>2022-01-19T10:16:59Z</time>
      </trkpt>
      <trkpt lat="44.88112" lon="5.52236">
        <ele>1926.1</ele>
        <time>2022-01-19T10:17:00Z</time>
      </trkpt>
      <trkpt lat="44.88111" lon="5.52236">
        <ele>1926.2</ele>
        <time>2022-01-19T10:17:01Z</time>
      </trkpt>
      <trkpt lat="44.8811" lon="5.52235">
        <ele>1926.3</ele>
        <time>2022-01-19T10:17:02Z</time>
      </trkpt>
      <trkpt lat="44.8811" lon="5.52234">
        <ele>1926.3</ele>
        <time>2022-01-19T10:17:03Z</time>
      </trkpt>
      <trkpt lat="44.8811" lon="5.52234">
        <ele>1926.4</ele>
        <time>2022-01-19T10:17:04Z</time>
      </trkpt>
      <trkpt lat="44.88109" lon="5.52233">
        <ele>1926.5</ele>
        <time>2022-01-19T10:17:05Z</time>
      </trkpt>
      <trkpt lat="44.88109" lon="5.52233">
        <ele>1926.6</ele>
        <time>2022-01-19T10:17:06Z</time>
      </trkpt>
      <trkpt lat="44.88109" lon="5.52232">
        <ele>1926.7</ele>
        <time>2022-01-19T10:17:07Z</time>
      </trkpt>
      <trkpt lat="44.88109" lon="5.52231">
        <ele>1926.8</ele>
        <time>2022-01-19T10:17:08Z</time>
      </trkpt>
      <trkpt lat="44.88108" lon="5.5223">
        <ele>1926.9</ele>
        <time>2022-01-19T10:17:09Z</time>
      </trkpt>
      <trkpt lat="44.88108" lon="5.52229">
        <ele>1927</ele>
        <time>2022-01-19T10:17:10Z</time>
      </trkpt>
      <trkpt lat="44.88108" lon="5.52229">
        <ele>1927</ele>
        <time>2022-01-19T10:17:11Z</time>
      </trkpt>
      <trkpt lat="44.88107" lon="5.52228">
        <ele>1927.1</ele>
        <time>2022-01-19T10:17:12Z</time>
      </trkpt>
      <trkpt lat="44.88107" lon="5.52228">
        <ele>1927.1</ele>
        <time>2022-01-19T10:17:13Z</time>
      </trkpt>
      <trkpt lat="44.88107" lon="5.52228">
        <ele>1927.2</ele>
        <time>2022-01-19T10:17:14Z</time>
      </trkpt>
      <trkpt lat="44.88107" lon="5.52228">
        <ele>1927.2</ele>
        <time>2022-01-19T10:17:15Z</time>
      </trkpt>
      <trkpt lat="44.88107" lon="5.52228">
        <ele>1927.2</ele>
        <time>2022-01-19T10:17:16Z</time>
      </trkpt>
      <trkpt lat="44.88107" lon="5.52228">
        <ele>1927.2</ele>
        <time>2022-01-19T10:17:17Z</time>
      </trkpt>
      <trkpt lat="44.88106" lon="5.52227">
        <ele>1927.3</ele>
        <time>2022-01-19T10:17:18Z</time>
      </trkpt>
      <trkpt lat="44.88106" lon="5.52227">
        <ele>1927.3</ele>
        <time>2022-01-19T10:17:19Z</time>
      </trkpt>
      <trkpt lat="44.88105" lon="5.52226">
        <ele>1927.4</ele>
        <time>2022-01-19T10:17:20Z</time>
      </trkpt>
      <trkpt lat="44.88105" lon="5.52226">
        <ele>1927.5</ele>
        <time>2022-01-19T10:17:21Z</time>
      </trkpt>
      <trkpt lat="44.88105" lon="5.52225">
        <ele>1927.6</ele>
        <time>2022-01-19T10:17:22Z</time>
      </trkpt>
      <trkpt lat="44.88104" lon="5.52225">
        <ele>1927.7</ele>
        <time>2022-01-19T10:17:23Z</time>
      </trkpt>
      <trkpt lat="44.88104" lon="5.52224">
        <ele>1927.7</ele>
        <time>2022-01-19T10:17:24Z</time>
      </trkpt>
      <trkpt lat="44.88103" lon="5.52224">
        <ele>1927.8</ele>
        <time>2022-01-19T10:17:25Z</time>
      </trkpt>
      <trkpt lat="44.88103" lon="5.52223">
        <ele>1927.9</ele>
        <time>2022-01-19T10:17:26Z</time>
      </trkpt>
      <trkpt lat="44.88102" lon="5.52223">
        <ele>1927.9</ele>
        <time>2022-01-19T10:17:27Z</time>
      </trkpt>
      <trkpt lat="44.88102" lon="5.52223">
        <ele>1928</ele>
        <time>2022-01-19T10:17:28Z</time>
      </trkpt>
      <trkpt lat="44.88102" lon="5.52222">
        <ele>1928.1</ele>
        <time>2022-01-19T10:17:29Z</time>
      </trkpt>
      <trkpt lat="44.88101" lon="5.52222">
        <ele>1928.2</ele>
        <time>2022-01-19T10:17:30Z</time>
      </trkpt>
      <trkpt lat="44.88101" lon="5.52221">
        <ele>1928.3</ele>
        <time>2022-01-19T10:17:31Z</time>
      </trkpt>
      <trkpt lat="44.881" lon="5.52221">
        <ele>1928.3</ele>
        <time>2022-01-19T10:17:32Z</time>
      </trkpt>
      <trkpt lat="44.881" lon="5.52221">
        <ele>1928.4</ele>
        <time>2022-01-19T10:17:33Z</time>
      </trkpt>
      <trkpt lat="44.88099" lon="5.52221">
        <ele>1928.4</ele>
        <time>2022-01-19T10:17:34Z</time>
      </trkpt>
      <trkpt lat="44.88099" lon="5.5222">
        <ele>1928.5</ele>
        <time>2022-01-19T10:17:35Z</time>
      </trkpt>
      <trkpt lat="44.88098" lon="5.5222">
        <ele>1928.6</ele>
        <time>2022-01-19T10:17:36Z</time>
      </trkpt>
      <trkpt lat="44.88098" lon="5.5222">
        <ele>1928.7</ele>
        <time>2022-01-19T10:17:37Z</time>
      </trkpt>
      <trkpt lat="44.88097" lon="5.52219">
        <ele>1928.8</ele>
        <time>2022-01-19T10:17:38Z</time>
      </trkpt>
      <trkpt lat="44.88097" lon="5.52219">
        <ele>1928.8</ele>
        <time>2022-01-19T10:17:39Z</time>
      </trkpt>
      <trkpt lat="44.88097" lon="5.52218">
        <ele>1928.9</ele>
        <time>2022-01-19T10:17:40Z</time>
      </trkpt>
      <trkpt lat="44.88097" lon="5.52218">
        <ele>1928.9</ele>
        <time>2022-01-19T10:17:41Z</time>
      </trkpt>
      <trkpt lat="44.88097" lon="5.52217">
        <ele>1929</ele>
        <time>2022-01-19T10:17:42Z</time>
      </trkpt>
      <trkpt lat="44.88096" lon="5.52217">
        <ele>1929.1</ele>
        <time>2022-01-19T10:17:43Z</time>
      </trkpt>
      <trkpt lat="44.88096" lon="5.52216">
        <ele>1929.1</ele>
        <time>2022-01-19T10:17:44Z</time>
      </trkpt>
      <trkpt lat="44.88096" lon="5.52216">
        <ele>1929.2</ele>
        <time>2022-01-19T10:17:45Z</time>
      </trkpt>
      <trkpt lat="44.88095" lon="5.52215">
        <ele>1929.3</ele>
        <time>2022-01-19T10:17:46Z</time>
      </trkpt>
      <trkpt lat="44.88095" lon="5.52215">
        <ele>1929.4</ele>
        <time>2022-01-19T10:17:47Z</time>
      </trkpt>
      <trkpt lat="44.88095" lon="5.52215">
        <ele>1929.4</ele>
        <time>2022-01-19T10:17:48Z</time>
      </trkpt>
      <trkpt lat="44.88094" lon="5.52214">
        <ele>1929.5</ele>
        <time>2022-01-19T10:17:49Z</time>
      </trkpt>
      <trkpt lat="44.88094" lon="5.52213">
        <ele>1929.6</ele>
        <time>2022-01-19T10:17:50Z</time>
      </trkpt>
      <trkpt lat="44.88094" lon="5.52212">
        <ele>1929.6</ele>
        <time>2022-01-19T10:17:51Z</time>
      </trkpt>
      <trkpt lat="44.88094" lon="5.52212">
        <ele>1929.7</ele>
        <time>2022-01-19T10:17:52Z</time>
      </trkpt>
      <trkpt lat="44.88093" lon="5.52211">
        <ele>1929.8</ele>
        <time>2022-01-19T10:17:53Z</time>
      </trkpt>
      <trkpt lat="44.88093" lon="5.52211">
        <ele>1929.8</ele>
        <time>2022-01-19T10:17:54Z</time>
      </trkpt>
      <trkpt lat="44.88093" lon="5.52211">
        <ele>1929.8</ele>
        <time>2022-01-19T10:17:55Z</time>
      </trkpt>
      <trkpt lat="44.88093" lon="5.52211">
        <ele>1929.9</ele>
        <time>2022-01-19T10:17:56Z</time>
      </trkpt>
      <trkpt lat="44.88093" lon="5.52211">
        <ele>1929.9</ele>
        <time>2022-01-19T10:17:57Z</time>
      </trkpt>
      <trkpt lat="44.88093" lon="5.52211">
        <ele>1929.9</ele>
        <time>2022-01-19T10:17:58Z</time>
      </trkpt>
      <trkpt lat="44.88093" lon="5.52211">
        <ele>1929.9</ele>
        <time>2022-01-19T10:17:59Z</time>
      </trkpt>
      <trkpt lat="44.88092" lon="5.5221">
        <ele>1930.1</ele>
        <time>2022-01-19T10:18:00Z</time>
      </trkpt>
      <trkpt lat="44.88091" lon="5.52209">
        <ele>1930.2</ele>
        <time>2022-01-19T10:18:01Z</time>
      </trkpt>
      <trkpt lat="44.88091" lon="5.52209">
        <ele>1930.2</ele>
        <time>2022-01-19T10:18:02Z</time>
      </trkpt>
      <trkpt lat="44.88091" lon="5.5221">
        <ele>1930.3</ele>
        <time>2022-01-19T10:18:03Z</time>
      </trkpt>
      <trkpt lat="44.8809" lon="5.5221">
        <ele>1930.4</ele>
        <time>2022-01-19T10:18:04Z</time>
      </trkpt>
      <trkpt lat="44.8809" lon="5.5221">
        <ele>1930.4</ele>
        <time>2022-01-19T10:18:05Z</time>
      </trkpt>
      <trkpt lat="44.8809" lon="5.5221">
        <ele>1930.4</ele>
        <time>2022-01-19T10:18:06Z</time>
      </trkpt>
      <trkpt lat="44.8809" lon="5.5221">
        <ele>1930.4</ele>
        <time>2022-01-19T10:18:07Z</time>
      </trkpt>
      <trkpt lat="44.8809" lon="5.5221">
        <ele>1930.4</ele>
        <time>2022-01-19T10:18:08Z</time>
      </trkpt>
      <trkpt lat="44.8809" lon="5.5221">
        <ele>1930.4</ele>
        <time>2022-01-19T10:18:09Z</time>
      </trkpt>
      <trkpt lat="44.8809" lon="5.5221">
        <ele>1930.4</ele>
        <time>2022-01-19T10:18:10Z</time>
      </trkpt>
      <trkpt lat="44.8809" lon="5.5221">
        <ele>1930.4</ele>
        <time>2022-01-19T10:18:11Z</time>
      </trkpt>
      <trkpt lat="44.8809" lon="5.5221">
        <ele>1930.4</ele>
        <time>2022-01-19T10:18:12Z</time>
      </trkpt>
      <trkpt lat="44.8809" lon="5.5221">
        <ele>1930.4</ele>
        <time>2022-01-19T10:18:13Z</time>
      </trkpt>
      <trkpt lat="44.8809" lon="5.5221">
        <ele>1930.4</ele>
        <time>2022-01-19T10:18:14Z</time>
      </trkpt>
      <trkpt lat="44.8809" lon="5.5221">
        <ele>1930.4</ele>
        <time>2022-01-19T10:18:15Z</time>
      </trkpt>
      <trkpt lat="44.8809" lon="5.5221">
        <ele>1930.4</ele>
        <time>2022-01-19T10:18:16Z</time>
      </trkpt>
      <trkpt lat="44.8809" lon="5.5221">
        <ele>1930.4</ele>
        <time>2022-01-19T10:18:17Z</time>
      </trkpt>
      <trkpt lat="44.8809" lon="5.5221">
        <ele>1930.4</ele>
        <time>2022-01-19T10:18:18Z</time>
      </trkpt>
      <trkpt lat="44.8809" lon="5.5221">
        <ele>1930.4</ele>
        <time>2022-01-19T10:18:19Z</time>
      </trkpt>
      <trkpt lat="44.88082" lon="5.52211">
        <ele>1931.6</ele>
        <time>2022-01-19T10:18:20Z</time>
      </trkpt>
      <trkpt lat="44.8808" lon="5.52212">
        <ele>1933.4</ele>
        <time>2022-01-19T10:18:21Z</time>
      </trkpt>
      <trkpt lat="44.88079" lon="5.52212">
        <ele>1933.4</ele>
        <time>2022-01-19T10:18:22Z</time>
      </trkpt>
      <trkpt lat="44.88078" lon="5.52212">
        <ele>1933.4</ele>
        <time>2022-01-19T10:18:23Z</time>
      </trkpt>
      <trkpt lat="44.88078" lon="5.52212">
        <ele>1933.4</ele>
        <time>2022-01-19T10:18:24Z</time>
      </trkpt>
      <trkpt lat="44.88078" lon="5.52212">
        <ele>1933.4</ele>
        <time>2022-01-19T10:18:25Z</time>
      </trkpt>
      <trkpt lat="44.88078" lon="5.52212">
        <ele>1933.4</ele>
        <time>2022-01-19T10:18:26Z</time>
      </trkpt>
      <trkpt lat="44.88078" lon="5.52212">
        <ele>1933.4</ele>
        <time>2022-01-19T10:18:27Z</time>
      </trkpt>
      <trkpt lat="44.88076" lon="5.52212">
        <ele>1935.3</ele>
        <time>2022-01-19T10:18:28Z</time>
      </trkpt>
      <trkpt lat="44.88075" lon="5.52212">
        <ele>1935.3</ele>
        <time>2022-01-19T10:18:29Z</time>
      </trkpt>
      <trkpt lat="44.88075" lon="5.52212">
        <ele>1937.1</ele>
        <time>2022-01-19T10:18:30Z</time>
      </trkpt>
      <trkpt lat="44.88075" lon="5.52211">
        <ele>1937.1</ele>
        <time>2022-01-19T10:18:31Z</time>
      </trkpt>
      <trkpt lat="44.88075" lon="5.52211">
        <ele>1937.1</ele>
        <time>2022-01-19T10:18:32Z</time>
      </trkpt>
      <trkpt lat="44.88075" lon="5.52211">
        <ele>1935.3</ele>
        <time>2022-01-19T10:18:33Z</time>
      </trkpt>
      <trkpt lat="44.88074" lon="5.5221">
        <ele>1937.1</ele>
        <time>2022-01-19T10:18:34Z</time>
      </trkpt>
      <trkpt lat="44.88073" lon="5.5221">
        <ele>1937.1</ele>
        <time>2022-01-19T10:18:35Z</time>
      </trkpt>
      <trkpt lat="44.88073" lon="5.5221">
        <ele>1937.1</ele>
        <time>2022-01-19T10:18:36Z</time>
      </trkpt>
      <trkpt lat="44.88073" lon="5.52209">
        <ele>1937.1</ele>
        <time>2022-01-19T10:18:37Z</time>
      </trkpt>
      <trkpt lat="44.88072" lon="5.52209">
        <ele>1936.5</ele>
        <time>2022-01-19T10:18:38Z</time>
      </trkpt>
      <trkpt lat="44.88072" lon="5.52208">
        <ele>1938.3</ele>
        <time>2022-01-19T10:18:39Z</time>
      </trkpt>
      <trkpt lat="44.88072" lon="5.52208">
        <ele>1938.3</ele>
        <time>2022-01-19T10:18:40Z</time>
      </trkpt>
      <trkpt lat="44.88071" lon="5.52208">
        <ele>1938.3</ele>
        <time>2022-01-19T10:18:41Z</time>
      </trkpt>
      <trkpt lat="44.88071" lon="5.52207">
        <ele>1938.3</ele>
        <time>2022-01-19T10:18:42Z</time>
      </trkpt>
      <trkpt lat="44.88071" lon="5.52207">
        <ele>1938.3</ele>
        <time>2022-01-19T10:18:43Z</time>
      </trkpt>
      <trkpt lat="44.88071" lon="5.52207">
        <ele>1938.3</ele>
        <time>2022-01-19T10:18:44Z</time>
      </trkpt>
      <trkpt lat="44.88071" lon="5.52207">
        <ele>1938.3</ele>
        <time>2022-01-19T10:18:45Z</time>
      </trkpt>
      <trkpt lat="44.88071" lon="5.52207">
        <ele>1938.3</ele>
        <time>2022-01-19T10:18:46Z</time>
      </trkpt>
      <trkpt lat="44.88071" lon="5.52207">
        <ele>1938.3</ele>
        <time>2022-01-19T10:18:47Z</time>
      </trkpt>
      <trkpt lat="44.88071" lon="5.52207">
        <ele>1938.3</ele>
        <time>2022-01-19T10:18:48Z</time>
      </trkpt>
      <trkpt lat="44.88071" lon="5.52207">
        <ele>1938.3</ele>
        <time>2022-01-19T10:18:49Z</time>
      </trkpt>
      <trkpt lat="44.88071" lon="5.52207">
        <ele>1938.3</ele>
        <time>2022-01-19T10:18:50Z</time>
      </trkpt>
      <trkpt lat="44.88071" lon="5.52207">
        <ele>1938.3</ele>
        <time>2022-01-19T10:18:51Z</time>
      </trkpt>
      <trkpt lat="44.88071" lon="5.52207">
        <ele>1938.3</ele>
        <time>2022-01-19T10:18:52Z</time>
      </trkpt>
      <trkpt lat="44.88071" lon="5.52207">
        <ele>1938.3</ele>
        <time>2022-01-19T10:18:53Z</time>
      </trkpt>
      <trkpt lat="44.88071" lon="5.52207">
        <ele>1938.3</ele>
        <time>2022-01-19T10:18:54Z</time>
      </trkpt>
      <trkpt lat="44.88071" lon="5.52207">
        <ele>1938.3</ele>
        <time>2022-01-19T10:18:55Z</time>
      </trkpt>
      <trkpt lat="44.88071" lon="5.52207">
        <ele>1938.3</ele>
        <time>2022-01-19T10:18:56Z</time>
      </trkpt>
      <trkpt lat="44.88071" lon="5.52207">
        <ele>1938.3</ele>
        <time>2022-01-19T10:18:57Z</time>
      </trkpt>
      <trkpt lat="44.88071" lon="5.52207">
        <ele>1938.3</ele>
        <time>2022-01-19T10:18:58Z</time>
      </trkpt>
      <trkpt lat="44.88071" lon="5.52207">
        <ele>1938.3</ele>
        <time>2022-01-19T10:18:59Z</time>
      </trkpt>
      <trkpt lat="44.88071" lon="5.52207">
        <ele>1938.3</ele>
        <time>2022-01-19T10:19:00Z</time>
      </trkpt>
      <trkpt lat="44.88071" lon="5.52207">
        <ele>1938.3</ele>
        <time>2022-01-19T10:19:01Z</time>
      </trkpt>
      <trkpt lat="44.88071" lon="5.52207">
        <ele>1938.3</ele>
        <time>2022-01-19T10:19:02Z</time>
      </trkpt>
      <trkpt lat="44.88071" lon="5.52207">
        <ele>1938.3</ele>
        <time>2022-01-19T10:19:03Z</time>
      </trkpt>
      <trkpt lat="44.88071" lon="5.52207">
        <ele>1938.3</ele>
        <time>2022-01-19T10:19:04Z</time>
      </trkpt>
      <trkpt lat="44.88071" lon="5.52207">
        <ele>1938.3</ele>
        <time>2022-01-19T10:19:05Z</time>
      </trkpt>
      <trkpt lat="44.88071" lon="5.52207">
        <ele>1938.3</ele>
        <time>2022-01-19T10:19:06Z</time>
      </trkpt>
      <trkpt lat="44.88071" lon="5.52207">
        <ele>1938.3</ele>
        <time>2022-01-19T10:19:07Z</time>
      </trkpt>
      <trkpt lat="44.88071" lon="5.52207">
        <ele>1938.3</ele>
        <time>2022-01-19T10:19:08Z</time>
      </trkpt>
      <trkpt lat="44.88071" lon="5.52207">
        <ele>1938.3</ele>
        <time>2022-01-19T10:19:09Z</time>
      </trkpt>
      <trkpt lat="44.88071" lon="5.52207">
        <ele>1938.3</ele>
        <time>2022-01-19T10:19:10Z</time>
      </trkpt>
      <trkpt lat="44.88071" lon="5.52207">
        <ele>1938.3</ele>
        <time>2022-01-19T10:19:11Z</time>
      </trkpt>
      <trkpt lat="44.88071" lon="5.52207">
        <ele>1938.3</ele>
        <time>2022-01-19T10:19:12Z</time>
      </trkpt>
      <trkpt lat="44.88071" lon="5.52207">
        <ele>1938.3</ele>
        <time>2022-01-19T10:19:13Z</time>
      </trkpt>
      <trkpt lat="44.88071" lon="5.52207">
        <ele>1938.3</ele>
        <time>2022-01-19T10:19:14Z</time>
      </trkpt>
      <trkpt lat="44.88071" lon="5.52207">
        <ele>1938.3</ele>
        <time>2022-01-19T10:19:15Z</time>
      </trkpt>
      <trkpt lat="44.88071" lon="5.52207">
        <ele>1938.3</ele>
        <time>2022-01-19T10:19:16Z</time>
      </trkpt>
      <trkpt lat="44.88071" lon="5.52207">
        <ele>1938.3</ele>
        <time>2022-01-19T10:19:17Z</time>
      </trkpt>
      <trkpt lat="44.88071" lon="5.52207">
        <ele>1938.3</ele>
        <time>2022-01-19T10:19:18Z</time>
      </trkpt>
      <trkpt lat="44.88071" lon="5.52207">
        <ele>1938.3</ele>
        <time>2022-01-19T10:19:19Z</time>
      </trkpt>
      <trkpt lat="44.88071" lon="5.52207">
        <ele>1938.3</ele>
        <time>2022-01-19T10:19:20Z</time>
      </trkpt>
      <trkpt lat="44.88071" lon="5.52207">
        <ele>1938.3</ele>
        <time>2022-01-19T10:19:21Z</time>
      </trkpt>
      <trkpt lat="44.88071" lon="5.52207">
        <ele>1938.3</ele>
        <time>2022-01-19T10:19:22Z</time>
      </trkpt>
      <trkpt lat="44.88071" lon="5.52207">
        <ele>1938.3</ele>
        <time>2022-01-19T10:19:23Z</time>
      </trkpt>
      <trkpt lat="44.88071" lon="5.52207">
        <ele>1938.3</ele>
        <time>2022-01-19T10:19:24Z</time>
      </trkpt>
      <trkpt lat="44.88071" lon="5.52207">
        <ele>1938.3</ele>
        <time>2022-01-19T10:19:25Z</time>
      </trkpt>
      <trkpt lat="44.88071" lon="5.52207">
        <ele>1938.3</ele>
        <time>2022-01-19T10:19:26Z</time>
      </trkpt>
      <trkpt lat="44.88071" lon="5.52207">
        <ele>1938.3</ele>
        <time>2022-01-19T10:19:27Z</time>
      </trkpt>
      <trkpt lat="44.88071" lon="5.52207">
        <ele>1938.3</ele>
        <time>2022-01-19T10:19:28Z</time>
      </trkpt>
      <trkpt lat="44.88071" lon="5.52207">
        <ele>1938.3</ele>
        <time>2022-01-19T10:19:29Z</time>
      </trkpt>
      <trkpt lat="44.88071" lon="5.52207">
        <ele>1938.3</ele>
        <time>2022-01-19T10:19:30Z</time>
      </trkpt>
      <trkpt lat="44.88071" lon="5.52207">
        <ele>1938.3</ele>
        <time>2022-01-19T10:19:31Z</time>
      </trkpt>
      <trkpt lat="44.88071" lon="5.52207">
        <ele>1938.3</ele>
        <time>2022-01-19T10:19:32Z</time>
      </trkpt>
      <trkpt lat="44.88071" lon="5.52207">
        <ele>1938.3</ele>
        <time>2022-01-19T10:19:33Z</time>
      </trkpt>
      <trkpt lat="44.88071" lon="5.52207">
        <ele>1938.3</ele>
        <time>2022-01-19T10:19:34Z</time>
      </trkpt>
      <trkpt lat="44.88071" lon="5.52207">
        <ele>1938.3</ele>
        <time>2022-01-19T10:19:35Z</time>
      </trkpt>
      <trkpt lat="44.88071" lon="5.52207">
        <ele>1938.3</ele>
        <time>2022-01-19T10:19:36Z</time>
      </trkpt>
      <trkpt lat="44.88071" lon="5.52207">
        <ele>1938.3</ele>
        <time>2022-01-19T10:19:37Z</time>
      </trkpt>
      <trkpt lat="44.88071" lon="5.52207">
        <ele>1938.3</ele>
        <time>2022-01-19T10:19:38Z</time>
      </trkpt>
      <trkpt lat="44.88071" lon="5.52207">
        <ele>1938.3</ele>
        <time>2022-01-19T10:19:39Z</time>
      </trkpt>
      <trkpt lat="44.88071" lon="5.52207">
        <ele>1938.3</ele>
        <time>2022-01-19T10:19:40Z</time>
      </trkpt>
      <trkpt lat="44.88071" lon="5.52207">
        <ele>1938.3</ele>
        <time>2022-01-19T10:19:41Z</time>
      </trkpt>
      <trkpt lat="44.88063" lon="5.52209">
        <ele>1944.1</ele>
        <time>2022-01-19T10:19:42Z</time>
      </trkpt>
      <trkpt lat="44.88062" lon="5.52209">
        <ele>1944.6</ele>
        <time>2022-01-19T10:19:43Z</time>
      </trkpt>
      <trkpt lat="44.88062" lon="5.52209">
        <ele>1944.6</ele>
        <time>2022-01-19T10:19:44Z</time>
      </trkpt>
      <trkpt lat="44.88062" lon="5.5221">
        <ele>1944.6</ele>
        <time>2022-01-19T10:19:45Z</time>
      </trkpt>
      <trkpt lat="44.88062" lon="5.5221">
        <ele>1944.6</ele>
        <time>2022-01-19T10:19:46Z</time>
      </trkpt>
      <trkpt lat="44.88062" lon="5.5221">
        <ele>1944.6</ele>
        <time>2022-01-19T10:19:47Z</time>
      </trkpt>
      <trkpt lat="44.88062" lon="5.5221">
        <ele>1944.6</ele>
        <time>2022-01-19T10:19:48Z</time>
      </trkpt>
      <trkpt lat="44.88062" lon="5.5221">
        <ele>1944.6</ele>
        <time>2022-01-19T10:19:49Z</time>
      </trkpt>
      <trkpt lat="44.88061" lon="5.52211">
        <ele>1944.6</ele>
        <time>2022-01-19T10:19:50Z</time>
      </trkpt>
      <trkpt lat="44.88061" lon="5.52211">
        <ele>1944.6</ele>
        <time>2022-01-19T10:19:51Z</time>
      </trkpt>
      <trkpt lat="44.88061" lon="5.52211">
        <ele>1944.6</ele>
        <time>2022-01-19T10:19:52Z</time>
      </trkpt>
      <trkpt lat="44.88061" lon="5.52212">
        <ele>1944.6</ele>
        <time>2022-01-19T10:19:53Z</time>
      </trkpt>
      <trkpt lat="44.88061" lon="5.52212">
        <ele>1944.6</ele>
        <time>2022-01-19T10:19:54Z</time>
      </trkpt>
      <trkpt lat="44.88061" lon="5.52212">
        <ele>1944.6</ele>
        <time>2022-01-19T10:19:55Z</time>
      </trkpt>
      <trkpt lat="44.88061" lon="5.52212">
        <ele>1944.6</ele>
        <time>2022-01-19T10:19:56Z</time>
      </trkpt>
      <trkpt lat="44.88061" lon="5.52212">
        <ele>1944.6</ele>
        <time>2022-01-19T10:19:57Z</time>
      </trkpt>
      <trkpt lat="44.88061" lon="5.52212">
        <ele>1944.6</ele>
        <time>2022-01-19T10:19:58Z</time>
      </trkpt>
      <trkpt lat="44.88061" lon="5.52212">
        <ele>1944.6</ele>
        <time>2022-01-19T10:19:59Z</time>
      </trkpt>
      <trkpt lat="44.88061" lon="5.52212">
        <ele>1944.6</ele>
        <time>2022-01-19T10:20:00Z</time>
      </trkpt>
      <trkpt lat="44.88061" lon="5.52212">
        <ele>1944.6</ele>
        <time>2022-01-19T10:20:01Z</time>
      </trkpt>
      <trkpt lat="44.88061" lon="5.52212">
        <ele>1944.6</ele>
        <time>2022-01-19T10:20:02Z</time>
      </trkpt>
      <trkpt lat="44.88061" lon="5.52212">
        <ele>1944.6</ele>
        <time>2022-01-19T10:20:03Z</time>
      </trkpt>
      <trkpt lat="44.88061" lon="5.52212">
        <ele>1944.6</ele>
        <time>2022-01-19T10:20:04Z</time>
      </trkpt>
      <trkpt lat="44.88061" lon="5.52212">
        <ele>1944.6</ele>
        <time>2022-01-19T10:20:05Z</time>
      </trkpt>
      <trkpt lat="44.88061" lon="5.52212">
        <ele>1944.6</ele>
        <time>2022-01-19T10:20:06Z</time>
      </trkpt>
      <trkpt lat="44.88061" lon="5.52212">
        <ele>1944.6</ele>
        <time>2022-01-19T10:20:07Z</time>
      </trkpt>
      <trkpt lat="44.88061" lon="5.52212">
        <ele>1944.6</ele>
        <time>2022-01-19T10:20:08Z</time>
      </trkpt>
      <trkpt lat="44.88061" lon="5.52212">
        <ele>1944.6</ele>
        <time>2022-01-19T10:20:09Z</time>
      </trkpt>
      <trkpt lat="44.88061" lon="5.52212">
        <ele>1944.6</ele>
        <time>2022-01-19T10:20:10Z</time>
      </trkpt>
      <trkpt lat="44.88061" lon="5.52212">
        <ele>1944.6</ele>
        <time>2022-01-19T10:20:11Z</time>
      </trkpt>
      <trkpt lat="44.88061" lon="5.52212">
        <ele>1944.6</ele>
        <time>2022-01-19T10:20:12Z</time>
      </trkpt>
      <trkpt lat="44.88061" lon="5.52212">
        <ele>1944.6</ele>
        <time>2022-01-19T10:20:13Z</time>
      </trkpt>
      <trkpt lat="44.88061" lon="5.52212">
        <ele>1944.6</ele>
        <time>2022-01-19T10:20:14Z</time>
      </trkpt>
      <trkpt lat="44.88061" lon="5.52212">
        <ele>1944.6</ele>
        <time>2022-01-19T10:20:15Z</time>
      </trkpt>
      <trkpt lat="44.88061" lon="5.52212">
        <ele>1944.6</ele>
        <time>2022-01-19T10:20:16Z</time>
      </trkpt>
      <trkpt lat="44.88061" lon="5.52212">
        <ele>1944.6</ele>
        <time>2022-01-19T10:20:17Z</time>
      </trkpt>
      <trkpt lat="44.88061" lon="5.52212">
        <ele>1944.6</ele>
        <time>2022-01-19T10:20:18Z</time>
      </trkpt>
      <trkpt lat="44.88061" lon="5.52212">
        <ele>1944.6</ele>
        <time>2022-01-19T10:20:19Z</time>
      </trkpt>
      <trkpt lat="44.88061" lon="5.52212">
        <ele>1944.6</ele>
        <time>2022-01-19T10:20:20Z</time>
      </trkpt>
      <trkpt lat="44.88061" lon="5.52212">
        <ele>1944.6</ele>
        <time>2022-01-19T10:20:21Z</time>
      </trkpt>
      <trkpt lat="44.88061" lon="5.52212">
        <ele>1944.6</ele>
        <time>2022-01-19T10:20:22Z</time>
      </trkpt>
      <trkpt lat="44.88061" lon="5.52212">
        <ele>1944.6</ele>
        <time>2022-01-19T10:20:23Z</time>
      </trkpt>
      <trkpt lat="44.88061" lon="5.52212">
        <ele>1944.6</ele>
        <time>2022-01-19T10:20:24Z</time>
      </trkpt>
      <trkpt lat="44.88061" lon="5.52212">
        <ele>1944.6</ele>
        <time>2022-01-19T10:20:25Z</time>
      </trkpt>
      <trkpt lat="44.88061" lon="5.52212">
        <ele>1944.6</ele>
        <time>2022-01-19T10:20:26Z</time>
      </trkpt>
      <trkpt lat="44.88061" lon="5.52212">
        <ele>1944.6</ele>
        <time>2022-01-19T10:20:27Z</time>
      </trkpt>
      <trkpt lat="44.88061" lon="5.52212">
        <ele>1944.6</ele>
        <time>2022-01-19T10:20:28Z</time>
      </trkpt>
      <trkpt lat="44.88061" lon="5.52212">
        <ele>1944.6</ele>
        <time>2022-01-19T10:20:29Z</time>
      </trkpt>
      <trkpt lat="44.88061" lon="5.52212">
        <ele>1944.6</ele>
        <time>2022-01-19T10:20:30Z</time>
      </trkpt>
      <trkpt lat="44.8806" lon="5.52223">
        <ele>1946</ele>
        <time>2022-01-19T10:20:31Z</time>
      </trkpt>
      <trkpt lat="44.8806" lon="5.52225">
        <ele>1948.2</ele>
        <time>2022-01-19T10:20:32Z</time>
      </trkpt>
      <trkpt lat="44.8806" lon="5.52225">
        <ele>1948.2</ele>
        <time>2022-01-19T10:20:33Z</time>
      </trkpt>
      <trkpt lat="44.8806" lon="5.52226">
        <ele>1948.2</ele>
        <time>2022-01-19T10:20:34Z</time>
      </trkpt>
      <trkpt lat="44.8806" lon="5.52226">
        <ele>1948.2</ele>
        <time>2022-01-19T10:20:35Z</time>
      </trkpt>
      <trkpt lat="44.8806" lon="5.52226">
        <ele>1948.2</ele>
        <time>2022-01-19T10:20:36Z</time>
      </trkpt>
      <trkpt lat="44.8806" lon="5.52226">
        <ele>1948.2</ele>
        <time>2022-01-19T10:20:37Z</time>
      </trkpt>
      <trkpt lat="44.8806" lon="5.52226">
        <ele>1948.2</ele>
        <time>2022-01-19T10:20:38Z</time>
      </trkpt>
      <trkpt lat="44.8806" lon="5.52226">
        <ele>1948.2</ele>
        <time>2022-01-19T10:20:39Z</time>
      </trkpt>
      <trkpt lat="44.8806" lon="5.52226">
        <ele>1948.2</ele>
        <time>2022-01-19T10:20:40Z</time>
      </trkpt>
      <trkpt lat="44.8806" lon="5.52226">
        <ele>1948.2</ele>
        <time>2022-01-19T10:20:41Z</time>
      </trkpt>
      <trkpt lat="44.8806" lon="5.52226">
        <ele>1948.2</ele>
        <time>2022-01-19T10:20:42Z</time>
      </trkpt>
      <trkpt lat="44.8806" lon="5.52226">
        <ele>1948.2</ele>
        <time>2022-01-19T10:20:43Z</time>
      </trkpt>
      <trkpt lat="44.8806" lon="5.52226">
        <ele>1948.2</ele>
        <time>2022-01-19T10:20:44Z</time>
      </trkpt>
      <trkpt lat="44.8806" lon="5.52226">
        <ele>1948.2</ele>
        <time>2022-01-19T10:20:45Z</time>
      </trkpt>
      <trkpt lat="44.8806" lon="5.52226">
        <ele>1948.2</ele>
        <time>2022-01-19T10:20:46Z</time>
      </trkpt>
      <trkpt lat="44.8806" lon="5.52226">
        <ele>1948.2</ele>
        <time>2022-01-19T10:20:47Z</time>
      </trkpt>
      <trkpt lat="44.8806" lon="5.52226">
        <ele>1948.2</ele>
        <time>2022-01-19T10:20:48Z</time>
      </trkpt>
      <trkpt lat="44.8806" lon="5.52226">
        <ele>1948.2</ele>
        <time>2022-01-19T10:20:49Z</time>
      </trkpt>
      <trkpt lat="44.8806" lon="5.52226">
        <ele>1948.2</ele>
        <time>2022-01-19T10:20:50Z</time>
      </trkpt>
      <trkpt lat="44.8806" lon="5.52226">
        <ele>1948.2</ele>
        <time>2022-01-19T10:20:51Z</time>
      </trkpt>
      <trkpt lat="44.8806" lon="5.52226">
        <ele>1948.2</ele>
        <time>2022-01-19T10:20:52Z</time>
      </trkpt>
      <trkpt lat="44.8806" lon="5.52226">
        <ele>1948.2</ele>
        <time>2022-01-19T10:20:53Z</time>
      </trkpt>
      <trkpt lat="44.8806" lon="5.52226">
        <ele>1948.2</ele>
        <time>2022-01-19T10:20:54Z</time>
      </trkpt>
      <trkpt lat="44.8806" lon="5.52226">
        <ele>1948.2</ele>
        <time>2022-01-19T10:20:55Z</time>
      </trkpt>
      <trkpt lat="44.8806" lon="5.52226">
        <ele>1948.2</ele>
        <time>2022-01-19T10:20:56Z</time>
      </trkpt>
      <trkpt lat="44.8806" lon="5.52226">
        <ele>1948.2</ele>
        <time>2022-01-19T10:20:57Z</time>
      </trkpt>
      <trkpt lat="44.8806" lon="5.52226">
        <ele>1948.2</ele>
        <time>2022-01-19T10:20:58Z</time>
      </trkpt>
      <trkpt lat="44.8806" lon="5.52226">
        <ele>1948.2</ele>
        <time>2022-01-19T10:20:59Z</time>
      </trkpt>
      <trkpt lat="44.8806" lon="5.52226">
        <ele>1948.2</ele>
        <time>2022-01-19T10:21:00Z</time>
      </trkpt>
      <trkpt lat="44.8806" lon="5.52226">
        <ele>1948.2</ele>
        <time>2022-01-19T10:21:01Z</time>
      </trkpt>
      <trkpt lat="44.8806" lon="5.52226">
        <ele>1948.2</ele>
        <time>2022-01-19T10:21:02Z</time>
      </trkpt>
      <trkpt lat="44.8806" lon="5.52226">
        <ele>1948.2</ele>
        <time>2022-01-19T10:21:03Z</time>
      </trkpt>
      <trkpt lat="44.8806" lon="5.52226">
        <ele>1948.2</ele>
        <time>2022-01-19T10:21:04Z</time>
      </trkpt>
      <trkpt lat="44.8806" lon="5.52226">
        <ele>1948.2</ele>
        <time>2022-01-19T10:21:05Z</time>
      </trkpt>
      <trkpt lat="44.8806" lon="5.52226">
        <ele>1948.2</ele>
        <time>2022-01-19T10:21:06Z</time>
      </trkpt>
      <trkpt lat="44.8806" lon="5.52226">
        <ele>1948.2</ele>
        <time>2022-01-19T10:21:07Z</time>
      </trkpt>
      <trkpt lat="44.8806" lon="5.52226">
        <ele>1948.2</ele>
        <time>2022-01-19T10:21:08Z</time>
      </trkpt>
      <trkpt lat="44.8806" lon="5.52226">
        <ele>1948.2</ele>
        <time>2022-01-19T10:21:09Z</time>
      </trkpt>
      <trkpt lat="44.8806" lon="5.52226">
        <ele>1948.2</ele>
        <time>2022-01-19T10:21:10Z</time>
      </trkpt>
      <trkpt lat="44.8806" lon="5.52226">
        <ele>1948.2</ele>
        <time>2022-01-19T10:21:11Z</time>
      </trkpt>
      <trkpt lat="44.8806" lon="5.52226">
        <ele>1948.2</ele>
        <time>2022-01-19T10:21:12Z</time>
      </trkpt>
      <trkpt lat="44.8806" lon="5.52226">
        <ele>1948.2</ele>
        <time>2022-01-19T10:21:13Z</time>
      </trkpt>
      <trkpt lat="44.8806" lon="5.52226">
        <ele>1948.2</ele>
        <time>2022-01-19T10:21:14Z</time>
      </trkpt>
      <trkpt lat="44.8806" lon="5.52226">
        <ele>1948.2</ele>
        <time>2022-01-19T10:21:15Z</time>
      </trkpt>
      <trkpt lat="44.8806" lon="5.52226">
        <ele>1948.2</ele>
        <time>2022-01-19T10:21:16Z</time>
      </trkpt>
      <trkpt lat="44.8806" lon="5.52226">
        <ele>1948.2</ele>
        <time>2022-01-19T10:21:17Z</time>
      </trkpt>
      <trkpt lat="44.8806" lon="5.52226">
        <ele>1948.2</ele>
        <time>2022-01-19T10:21:18Z</time>
      </trkpt>
      <trkpt lat="44.88059" lon="5.52238">
        <ele>1949.3</ele>
        <time>2022-01-19T10:21:19Z</time>
      </trkpt>
      <trkpt lat="44.8806" lon="5.52239">
        <ele>1949.6</ele>
        <time>2022-01-19T10:21:20Z</time>
      </trkpt>
      <trkpt lat="44.8806" lon="5.5224">
        <ele>1949.6</ele>
        <time>2022-01-19T10:21:21Z</time>
      </trkpt>
      <trkpt lat="44.8806" lon="5.5224">
        <ele>1947.4</ele>
        <time>2022-01-19T10:21:22Z</time>
      </trkpt>
      <trkpt lat="44.8806" lon="5.5224">
        <ele>1947.4</ele>
        <time>2022-01-19T10:21:23Z</time>
      </trkpt>
      <trkpt lat="44.8806" lon="5.5224">
        <ele>1947.4</ele>
        <time>2022-01-19T10:21:24Z</time>
      </trkpt>
      <trkpt lat="44.8806" lon="5.52243">
        <ele>1947.4</ele>
        <time>2022-01-19T10:21:25Z</time>
      </trkpt>
      <trkpt lat="44.8806" lon="5.52244">
        <ele>1947.6</ele>
        <time>2022-01-19T10:21:26Z</time>
      </trkpt>
      <trkpt lat="44.88061" lon="5.52244">
        <ele>1947.6</ele>
        <time>2022-01-19T10:21:27Z</time>
      </trkpt>
      <trkpt lat="44.88062" lon="5.52244">
        <ele>1947.6</ele>
        <time>2022-01-19T10:21:28Z</time>
      </trkpt>
      <trkpt lat="44.88062" lon="5.52245">
        <ele>1947.6</ele>
        <time>2022-01-19T10:21:29Z</time>
      </trkpt>
      <trkpt lat="44.88062" lon="5.52245">
        <ele>1947.6</ele>
        <time>2022-01-19T10:21:30Z</time>
      </trkpt>
      <trkpt lat="44.88062" lon="5.52246">
        <ele>1947.6</ele>
        <time>2022-01-19T10:21:31Z</time>
      </trkpt>
      <trkpt lat="44.88062" lon="5.52247">
        <ele>1947.6</ele>
        <time>2022-01-19T10:21:32Z</time>
      </trkpt>
      <trkpt lat="44.88061" lon="5.52247">
        <ele>1947.6</ele>
        <time>2022-01-19T10:21:33Z</time>
      </trkpt>
      <trkpt lat="44.88062" lon="5.52248">
        <ele>1947.6</ele>
        <time>2022-01-19T10:21:34Z</time>
      </trkpt>
      <trkpt lat="44.88062" lon="5.52248">
        <ele>1947.6</ele>
        <time>2022-01-19T10:21:35Z</time>
      </trkpt>
      <trkpt lat="44.88062" lon="5.52248">
        <ele>1947.6</ele>
        <time>2022-01-19T10:21:36Z</time>
      </trkpt>
      <trkpt lat="44.88062" lon="5.52248">
        <ele>1947.6</ele>
        <time>2022-01-19T10:21:37Z</time>
      </trkpt>
      <trkpt lat="44.88062" lon="5.52248">
        <ele>1947.6</ele>
        <time>2022-01-19T10:21:38Z</time>
      </trkpt>
      <trkpt lat="44.88062" lon="5.52248">
        <ele>1947.6</ele>
        <time>2022-01-19T10:21:39Z</time>
      </trkpt>
      <trkpt lat="44.88062" lon="5.52248">
        <ele>1947.6</ele>
        <time>2022-01-19T10:21:40Z</time>
      </trkpt>
      <trkpt lat="44.88062" lon="5.52248">
        <ele>1947.6</ele>
        <time>2022-01-19T10:21:41Z</time>
      </trkpt>
      <trkpt lat="44.88062" lon="5.52248">
        <ele>1947.6</ele>
        <time>2022-01-19T10:21:42Z</time>
      </trkpt>
      <trkpt lat="44.88062" lon="5.52248">
        <ele>1947.6</ele>
        <time>2022-01-19T10:21:43Z</time>
      </trkpt>
      <trkpt lat="44.88062" lon="5.52248">
        <ele>1947.6</ele>
        <time>2022-01-19T10:21:44Z</time>
      </trkpt>
      <trkpt lat="44.88062" lon="5.52248">
        <ele>1947.6</ele>
        <time>2022-01-19T10:21:45Z</time>
      </trkpt>
      <trkpt lat="44.88062" lon="5.52248">
        <ele>1947.6</ele>
        <time>2022-01-19T10:21:46Z</time>
      </trkpt>
      <trkpt lat="44.88062" lon="5.52248">
        <ele>1947.6</ele>
        <time>2022-01-19T10:21:47Z</time>
      </trkpt>
      <trkpt lat="44.88062" lon="5.52248">
        <ele>1947.6</ele>
        <time>2022-01-19T10:21:48Z</time>
      </trkpt>
      <trkpt lat="44.88062" lon="5.52248">
        <ele>1947.6</ele>
        <time>2022-01-19T10:21:49Z</time>
      </trkpt>
      <trkpt lat="44.88062" lon="5.52248">
        <ele>1947.6</ele>
        <time>2022-01-19T10:21:50Z</time>
      </trkpt>
      <trkpt lat="44.88062" lon="5.52248">
        <ele>1947.6</ele>
        <time>2022-01-19T10:21:51Z</time>
      </trkpt>
      <trkpt lat="44.88062" lon="5.52248">
        <ele>1947.6</ele>
        <time>2022-01-19T10:21:52Z</time>
      </trkpt>
      <trkpt lat="44.88062" lon="5.52248">
        <ele>1947.6</ele>
        <time>2022-01-19T10:21:53Z</time>
      </trkpt>
      <trkpt lat="44.88062" lon="5.52248">
        <ele>1947.6</ele>
        <time>2022-01-19T10:21:54Z</time>
      </trkpt>
      <trkpt lat="44.88062" lon="5.52248">
        <ele>1947.6</ele>
        <time>2022-01-19T10:21:55Z</time>
      </trkpt>
      <trkpt lat="44.88062" lon="5.52248">
        <ele>1947.6</ele>
        <time>2022-01-19T10:21:56Z</time>
      </trkpt>
      <trkpt lat="44.88062" lon="5.52248">
        <ele>1947.6</ele>
        <time>2022-01-19T10:21:57Z</time>
      </trkpt>
      <trkpt lat="44.88062" lon="5.52248">
        <ele>1947.6</ele>
        <time>2022-01-19T10:21:58Z</time>
      </trkpt>
      <trkpt lat="44.88062" lon="5.52248">
        <ele>1947.6</ele>
        <time>2022-01-19T10:21:59Z</time>
      </trkpt>
      <trkpt lat="44.88062" lon="5.52248">
        <ele>1947.6</ele>
        <time>2022-01-19T10:22:00Z</time>
      </trkpt>
      <trkpt lat="44.88062" lon="5.52248">
        <ele>1947.6</ele>
        <time>2022-01-19T10:22:01Z</time>
      </trkpt>
      <trkpt lat="44.88062" lon="5.52248">
        <ele>1947.6</ele>
        <time>2022-01-19T10:22:02Z</time>
      </trkpt>
      <trkpt lat="44.88062" lon="5.52254">
        <ele>1947.9</ele>
        <time>2022-01-19T10:22:03Z</time>
      </trkpt>
      <trkpt lat="44.88062" lon="5.52255">
        <ele>1947.9</ele>
        <time>2022-01-19T10:22:04Z</time>
      </trkpt>
      <trkpt lat="44.88062" lon="5.52255">
        <ele>1947.9</ele>
        <time>2022-01-19T10:22:05Z</time>
      </trkpt>
      <trkpt lat="44.88063" lon="5.52255">
        <ele>1947.9</ele>
        <time>2022-01-19T10:22:06Z</time>
      </trkpt>
      <trkpt lat="44.88063" lon="5.52255">
        <ele>1946</ele>
        <time>2022-01-19T10:22:07Z</time>
      </trkpt>
      <trkpt lat="44.88063" lon="5.52255">
        <ele>1946</ele>
        <time>2022-01-19T10:22:08Z</time>
      </trkpt>
      <trkpt lat="44.88063" lon="5.52255">
        <ele>1946</ele>
        <time>2022-01-19T10:22:09Z</time>
      </trkpt>
      <trkpt lat="44.88063" lon="5.52255">
        <ele>1946</ele>
        <time>2022-01-19T10:22:10Z</time>
      </trkpt>
      <trkpt lat="44.88063" lon="5.52255">
        <ele>1946</ele>
        <time>2022-01-19T10:22:11Z</time>
      </trkpt>
      <trkpt lat="44.88063" lon="5.52255">
        <ele>1946</ele>
        <time>2022-01-19T10:22:12Z</time>
      </trkpt>
      <trkpt lat="44.88063" lon="5.52255">
        <ele>1946</ele>
        <time>2022-01-19T10:22:13Z</time>
      </trkpt>
      <trkpt lat="44.88063" lon="5.52255">
        <ele>1946</ele>
        <time>2022-01-19T10:22:14Z</time>
      </trkpt>
      <trkpt lat="44.88063" lon="5.52255">
        <ele>1946</ele>
        <time>2022-01-19T10:22:15Z</time>
      </trkpt>
      <trkpt lat="44.88063" lon="5.52255">
        <ele>1946</ele>
        <time>2022-01-19T10:22:16Z</time>
      </trkpt>
      <trkpt lat="44.88063" lon="5.52255">
        <ele>1946</ele>
        <time>2022-01-19T10:22:17Z</time>
      </trkpt>
      <trkpt lat="44.88063" lon="5.52255">
        <ele>1946</ele>
        <time>2022-01-19T10:22:18Z</time>
      </trkpt>
      <trkpt lat="44.88063" lon="5.52255">
        <ele>1946</ele>
        <time>2022-01-19T10:22:19Z</time>
      </trkpt>
      <trkpt lat="44.88063" lon="5.52255">
        <ele>1946</ele>
        <time>2022-01-19T10:22:20Z</time>
      </trkpt>
      <trkpt lat="44.88063" lon="5.52255">
        <ele>1946</ele>
        <time>2022-01-19T10:22:21Z</time>
      </trkpt>
      <trkpt lat="44.88063" lon="5.52255">
        <ele>1946</ele>
        <time>2022-01-19T10:22:22Z</time>
      </trkpt>
      <trkpt lat="44.88063" lon="5.52255">
        <ele>1946</ele>
        <time>2022-01-19T10:22:23Z</time>
      </trkpt>
      <trkpt lat="44.88063" lon="5.52255">
        <ele>1946</ele>
        <time>2022-01-19T10:22:24Z</time>
      </trkpt>
      <trkpt lat="44.88063" lon="5.52255">
        <ele>1946</ele>
        <time>2022-01-19T10:22:25Z</time>
      </trkpt>
      <trkpt lat="44.88063" lon="5.52255">
        <ele>1946</ele>
        <time>2022-01-19T10:22:26Z</time>
      </trkpt>
      <trkpt lat="44.88063" lon="5.52255">
        <ele>1946</ele>
        <time>2022-01-19T10:22:27Z</time>
      </trkpt>
      <trkpt lat="44.88063" lon="5.52255">
        <ele>1946</ele>
        <time>2022-01-19T10:22:28Z</time>
      </trkpt>
      <trkpt lat="44.88063" lon="5.52255">
        <ele>1946</ele>
        <time>2022-01-19T10:22:29Z</time>
      </trkpt>
      <trkpt lat="44.88063" lon="5.52255">
        <ele>1946</ele>
        <time>2022-01-19T10:22:30Z</time>
      </trkpt>
      <trkpt lat="44.88063" lon="5.52255">
        <ele>1946</ele>
        <time>2022-01-19T10:22:31Z</time>
      </trkpt>
      <trkpt lat="44.88063" lon="5.52255">
        <ele>1946</ele>
        <time>2022-01-19T10:22:32Z</time>
      </trkpt>
      <trkpt lat="44.88063" lon="5.52255">
        <ele>1946</ele>
        <time>2022-01-19T10:22:33Z</time>
      </trkpt>
      <trkpt lat="44.88063" lon="5.52255">
        <ele>1946</ele>
        <time>2022-01-19T10:22:34Z</time>
      </trkpt>
      <trkpt lat="44.88063" lon="5.52255">
        <ele>1946</ele>
        <time>2022-01-19T10:22:35Z</time>
      </trkpt>
      <trkpt lat="44.88063" lon="5.52255">
        <ele>1946</ele>
        <time>2022-01-19T10:22:36Z</time>
      </trkpt>
      <trkpt lat="44.88063" lon="5.52255">
        <ele>1946</ele>
        <time>2022-01-19T10:22:37Z</time>
      </trkpt>
      <trkpt lat="44.88063" lon="5.52255">
        <ele>1946</ele>
        <time>2022-01-19T10:22:38Z</time>
      </trkpt>
      <trkpt lat="44.88063" lon="5.52255">
        <ele>1946</ele>
        <time>2022-01-19T10:22:39Z</time>
      </trkpt>
      <trkpt lat="44.88063" lon="5.52255">
        <ele>1946</ele>
        <time>2022-01-19T10:22:40Z</time>
      </trkpt>
      <trkpt lat="44.88063" lon="5.52255">
        <ele>1946</ele>
        <time>2022-01-19T10:22:41Z</time>
      </trkpt>
      <trkpt lat="44.88063" lon="5.52255">
        <ele>1946</ele>
        <time>2022-01-19T10:22:42Z</time>
      </trkpt>
      <trkpt lat="44.88063" lon="5.52255">
        <ele>1946</ele>
        <time>2022-01-19T10:22:43Z</time>
      </trkpt>
      <trkpt lat="44.88063" lon="5.52255">
        <ele>1946</ele>
        <time>2022-01-19T10:22:44Z</time>
      </trkpt>
      <trkpt lat="44.88063" lon="5.52255">
        <ele>1946</ele>
        <time>2022-01-19T10:22:45Z</time>
      </trkpt>
      <trkpt lat="44.88063" lon="5.52255">
        <ele>1946</ele>
        <time>2022-01-19T10:22:46Z</time>
      </trkpt>
      <trkpt lat="44.88063" lon="5.52255">
        <ele>1946</ele>
        <time>2022-01-19T10:22:47Z</time>
      </trkpt>
      <trkpt lat="44.88063" lon="5.52255">
        <ele>1946</ele>
        <time>2022-01-19T10:22:48Z</time>
      </trkpt>
      <trkpt lat="44.88063" lon="5.52255">
        <ele>1946</ele>
        <time>2022-01-19T10:22:49Z</time>
      </trkpt>
      <trkpt lat="44.88063" lon="5.52255">
        <ele>1946</ele>
        <time>2022-01-19T10:22:50Z</time>
      </trkpt>
      <trkpt lat="44.88063" lon="5.52255">
        <ele>1946</ele>
        <time>2022-01-19T10:22:51Z</time>
      </trkpt>
      <trkpt lat="44.88063" lon="5.52255">
        <ele>1946</ele>
        <time>2022-01-19T10:22:52Z</time>
      </trkpt>
      <trkpt lat="44.88063" lon="5.52255">
        <ele>1946</ele>
        <time>2022-01-19T10:22:53Z</time>
      </trkpt>
      <trkpt lat="44.88063" lon="5.52255">
        <ele>1946</ele>
        <time>2022-01-19T10:22:54Z</time>
      </trkpt>
      <trkpt lat="44.88063" lon="5.52255">
        <ele>1946</ele>
        <time>2022-01-19T10:22:55Z</time>
      </trkpt>
      <trkpt lat="44.88063" lon="5.52255">
        <ele>1946</ele>
        <time>2022-01-19T10:22:56Z</time>
      </trkpt>
      <trkpt lat="44.88063" lon="5.52255">
        <ele>1946</ele>
        <time>2022-01-19T10:22:57Z</time>
      </trkpt>
      <trkpt lat="44.88063" lon="5.52255">
        <ele>1946</ele>
        <time>2022-01-19T10:22:58Z</time>
      </trkpt>
      <trkpt lat="44.88055" lon="5.52259">
        <ele>1952.3</ele>
        <time>2022-01-19T10:22:59Z</time>
      </trkpt>
      <trkpt lat="44.88055" lon="5.5226">
        <ele>1952.3</ele>
        <time>2022-01-19T10:23:00Z</time>
      </trkpt>
      <trkpt lat="44.88055" lon="5.52259">
        <ele>1952.3</ele>
        <time>2022-01-19T10:23:01Z</time>
      </trkpt>
      <trkpt lat="44.88055" lon="5.52259">
        <ele>1952.3</ele>
        <time>2022-01-19T10:23:02Z</time>
      </trkpt>
      <trkpt lat="44.88055" lon="5.52259">
        <ele>1952.3</ele>
        <time>2022-01-19T10:23:03Z</time>
      </trkpt>
      <trkpt lat="44.88055" lon="5.52259">
        <ele>1952.3</ele>
        <time>2022-01-19T10:23:04Z</time>
      </trkpt>
      <trkpt lat="44.88055" lon="5.52259">
        <ele>1952.3</ele>
        <time>2022-01-19T10:23:05Z</time>
      </trkpt>
      <trkpt lat="44.88055" lon="5.52259">
        <ele>1952.3</ele>
        <time>2022-01-19T10:23:06Z</time>
      </trkpt>
      <trkpt lat="44.88055" lon="5.52259">
        <ele>1952.3</ele>
        <time>2022-01-19T10:23:07Z</time>
      </trkpt>
      <trkpt lat="44.88055" lon="5.52259">
        <ele>1952.3</ele>
        <time>2022-01-19T10:23:08Z</time>
      </trkpt>
      <trkpt lat="44.88055" lon="5.52259">
        <ele>1952.3</ele>
        <time>2022-01-19T10:23:09Z</time>
      </trkpt>
      <trkpt lat="44.88055" lon="5.52259">
        <ele>1952.3</ele>
        <time>2022-01-19T10:23:10Z</time>
      </trkpt>
      <trkpt lat="44.88056" lon="5.5226">
        <ele>1952.3</ele>
        <time>2022-01-19T10:23:11Z</time>
      </trkpt>
      <trkpt lat="44.88055" lon="5.52261">
        <ele>1952.2</ele>
        <time>2022-01-19T10:23:12Z</time>
      </trkpt>
      <trkpt lat="44.88055" lon="5.52261">
        <ele>1952.2</ele>
        <time>2022-01-19T10:23:13Z</time>
      </trkpt>
      <trkpt lat="44.88054" lon="5.52262">
        <ele>1952.2</ele>
        <time>2022-01-19T10:23:14Z</time>
      </trkpt>
      <trkpt lat="44.88054" lon="5.52262">
        <ele>1952.2</ele>
        <time>2022-01-19T10:23:15Z</time>
      </trkpt>
      <trkpt lat="44.88054" lon="5.52262">
        <ele>1952.2</ele>
        <time>2022-01-19T10:23:16Z</time>
      </trkpt>
      <trkpt lat="44.88054" lon="5.52263">
        <ele>1952.2</ele>
        <time>2022-01-19T10:23:17Z</time>
      </trkpt>
      <trkpt lat="44.88054" lon="5.52263">
        <ele>1952.2</ele>
        <time>2022-01-19T10:23:18Z</time>
      </trkpt>
      <trkpt lat="44.88054" lon="5.52263">
        <ele>1952.2</ele>
        <time>2022-01-19T10:23:19Z</time>
      </trkpt>
      <trkpt lat="44.88054" lon="5.52263">
        <ele>1952.2</ele>
        <time>2022-01-19T10:23:20Z</time>
      </trkpt>
      <trkpt lat="44.88054" lon="5.52263">
        <ele>1952.2</ele>
        <time>2022-01-19T10:23:21Z</time>
      </trkpt>
      <trkpt lat="44.88054" lon="5.52263">
        <ele>1952.2</ele>
        <time>2022-01-19T10:23:22Z</time>
      </trkpt>
      <trkpt lat="44.88054" lon="5.52263">
        <ele>1952.2</ele>
        <time>2022-01-19T10:23:23Z</time>
      </trkpt>
      <trkpt lat="44.88054" lon="5.52263">
        <ele>1952.2</ele>
        <time>2022-01-19T10:23:24Z</time>
      </trkpt>
      <trkpt lat="44.88054" lon="5.52263">
        <ele>1952.2</ele>
        <time>2022-01-19T10:23:25Z</time>
      </trkpt>
      <trkpt lat="44.88054" lon="5.52263">
        <ele>1952.2</ele>
        <time>2022-01-19T10:23:26Z</time>
      </trkpt>
      <trkpt lat="44.88054" lon="5.52263">
        <ele>1952.2</ele>
        <time>2022-01-19T10:23:27Z</time>
      </trkpt>
      <trkpt lat="44.88054" lon="5.52263">
        <ele>1952.2</ele>
        <time>2022-01-19T10:23:28Z</time>
      </trkpt>
      <trkpt lat="44.88054" lon="5.52263">
        <ele>1952.2</ele>
        <time>2022-01-19T10:23:29Z</time>
      </trkpt>
      <trkpt lat="44.88054" lon="5.52263">
        <ele>1952.2</ele>
        <time>2022-01-19T10:23:30Z</time>
      </trkpt>
      <trkpt lat="44.88054" lon="5.52263">
        <ele>1952.2</ele>
        <time>2022-01-19T10:23:31Z</time>
      </trkpt>
      <trkpt lat="44.88054" lon="5.52263">
        <ele>1952.2</ele>
        <time>2022-01-19T10:23:32Z</time>
      </trkpt>
      <trkpt lat="44.88054" lon="5.52263">
        <ele>1952.2</ele>
        <time>2022-01-19T10:23:33Z</time>
      </trkpt>
      <trkpt lat="44.88054" lon="5.52263">
        <ele>1952.2</ele>
        <time>2022-01-19T10:23:34Z</time>
      </trkpt>
      <trkpt lat="44.88054" lon="5.52263">
        <ele>1952.2</ele>
        <time>2022-01-19T10:23:35Z</time>
      </trkpt>
      <trkpt lat="44.88054" lon="5.52263">
        <ele>1952.2</ele>
        <time>2022-01-19T10:23:36Z</time>
      </trkpt>
      <trkpt lat="44.88054" lon="5.52263">
        <ele>1952.2</ele>
        <time>2022-01-19T10:23:37Z</time>
      </trkpt>
      <trkpt lat="44.88054" lon="5.52263">
        <ele>1952.2</ele>
        <time>2022-01-19T10:23:38Z</time>
      </trkpt>
      <trkpt lat="44.88054" lon="5.52263">
        <ele>1952.2</ele>
        <time>2022-01-19T10:23:39Z</time>
      </trkpt>
      <trkpt lat="44.88054" lon="5.52263">
        <ele>1952.2</ele>
        <time>2022-01-19T10:23:40Z</time>
      </trkpt>
      <trkpt lat="44.88054" lon="5.52263">
        <ele>1952.2</ele>
        <time>2022-01-19T10:23:41Z</time>
      </trkpt>
      <trkpt lat="44.88054" lon="5.52263">
        <ele>1952.2</ele>
        <time>2022-01-19T10:23:42Z</time>
      </trkpt>
      <trkpt lat="44.88054" lon="5.52263">
        <ele>1952.2</ele>
        <time>2022-01-19T10:23:43Z</time>
      </trkpt>
      <trkpt lat="44.88054" lon="5.52263">
        <ele>1952.2</ele>
        <time>2022-01-19T10:23:44Z</time>
      </trkpt>
      <trkpt lat="44.88054" lon="5.52263">
        <ele>1952.2</ele>
        <time>2022-01-19T10:23:45Z</time>
      </trkpt>
      <trkpt lat="44.88054" lon="5.52263">
        <ele>1952.2</ele>
        <time>2022-01-19T10:23:46Z</time>
      </trkpt>
      <trkpt lat="44.88054" lon="5.52263">
        <ele>1952.2</ele>
        <time>2022-01-19T10:23:47Z</time>
      </trkpt>
      <trkpt lat="44.88054" lon="5.52263">
        <ele>1952.2</ele>
        <time>2022-01-19T10:23:48Z</time>
      </trkpt>
      <trkpt lat="44.88054" lon="5.52263">
        <ele>1952.2</ele>
        <time>2022-01-19T10:23:49Z</time>
      </trkpt>
      <trkpt lat="44.88054" lon="5.52263">
        <ele>1952.2</ele>
        <time>2022-01-19T10:23:50Z</time>
      </trkpt>
      <trkpt lat="44.88054" lon="5.52263">
        <ele>1952.2</ele>
        <time>2022-01-19T10:23:51Z</time>
      </trkpt>
      <trkpt lat="44.88054" lon="5.52263">
        <ele>1952.2</ele>
        <time>2022-01-19T10:23:52Z</time>
      </trkpt>
      <trkpt lat="44.88054" lon="5.52263">
        <ele>1952.2</ele>
        <time>2022-01-19T10:23:53Z</time>
      </trkpt>
      <trkpt lat="44.88054" lon="5.52263">
        <ele>1952.2</ele>
        <time>2022-01-19T10:23:54Z</time>
      </trkpt>
      <trkpt lat="44.88054" lon="5.52263">
        <ele>1952.2</ele>
        <time>2022-01-19T10:23:55Z</time>
      </trkpt>
      <trkpt lat="44.88054" lon="5.52263">
        <ele>1952.2</ele>
        <time>2022-01-19T10:23:56Z</time>
      </trkpt>
      <trkpt lat="44.88054" lon="5.52263">
        <ele>1952.2</ele>
        <time>2022-01-19T10:23:57Z</time>
      </trkpt>
      <trkpt lat="44.88054" lon="5.52263">
        <ele>1952.2</ele>
        <time>2022-01-19T10:23:58Z</time>
      </trkpt>
      <trkpt lat="44.88054" lon="5.52263">
        <ele>1952.2</ele>
        <time>2022-01-19T10:23:59Z</time>
      </trkpt>
      <trkpt lat="44.88054" lon="5.52263">
        <ele>1952.2</ele>
        <time>2022-01-19T10:24:00Z</time>
      </trkpt>
      <trkpt lat="44.88054" lon="5.52263">
        <ele>1952.2</ele>
        <time>2022-01-19T10:24:01Z</time>
      </trkpt>
      <trkpt lat="44.88054" lon="5.52263">
        <ele>1952.2</ele>
        <time>2022-01-19T10:24:02Z</time>
      </trkpt>
      <trkpt lat="44.88054" lon="5.52263">
        <ele>1952.2</ele>
        <time>2022-01-19T10:24:03Z</time>
      </trkpt>
      <trkpt lat="44.88058" lon="5.52268">
        <ele>1949.8</ele>
        <time>2022-01-19T10:24:04Z</time>
      </trkpt>
      <trkpt lat="44.88062" lon="5.52273">
        <ele>1947.5</ele>
        <time>2022-01-19T10:24:05Z</time>
      </trkpt>
      <trkpt lat="44.88065" lon="5.52278">
        <ele>1945.1</ele>
        <time>2022-01-19T10:24:06Z</time>
      </trkpt>
      <trkpt lat="44.88059" lon="5.52282">
        <ele>1948.5</ele>
        <time>2022-01-19T10:24:07Z</time>
      </trkpt>
      <trkpt lat="44.88058" lon="5.52281">
        <ele>1948.9</ele>
        <time>2022-01-19T10:24:08Z</time>
      </trkpt>
      <trkpt lat="44.88054" lon="5.52281">
        <ele>1951.1</ele>
        <time>2022-01-19T10:24:09Z</time>
      </trkpt>
      <trkpt lat="44.88056" lon="5.52279">
        <ele>1951.1</ele>
        <time>2022-01-19T10:24:10Z</time>
      </trkpt>
      <trkpt lat="44.88057" lon="5.52278">
        <ele>1951.1</ele>
        <time>2022-01-19T10:24:11Z</time>
      </trkpt>
      <trkpt lat="44.88057" lon="5.52278">
        <ele>1951.1</ele>
        <time>2022-01-19T10:24:12Z</time>
      </trkpt>
      <trkpt lat="44.88056" lon="5.52278">
        <ele>1951.5</ele>
        <time>2022-01-19T10:24:13Z</time>
      </trkpt>
      <trkpt lat="44.88056" lon="5.52278">
        <ele>1951.1</ele>
        <time>2022-01-19T10:24:14Z</time>
      </trkpt>
      <trkpt lat="44.88055" lon="5.52278">
        <ele>1951.1</ele>
        <time>2022-01-19T10:24:15Z</time>
      </trkpt>
      <trkpt lat="44.88055" lon="5.52278">
        <ele>1951.1</ele>
        <time>2022-01-19T10:24:16Z</time>
      </trkpt>
      <trkpt lat="44.88054" lon="5.52279">
        <ele>1951.1</ele>
        <time>2022-01-19T10:24:17Z</time>
      </trkpt>
      <trkpt lat="44.88054" lon="5.52279">
        <ele>1951.1</ele>
        <time>2022-01-19T10:24:18Z</time>
      </trkpt>
      <trkpt lat="44.88054" lon="5.52279">
        <ele>1953.3</ele>
        <time>2022-01-19T10:24:19Z</time>
      </trkpt>
      <trkpt lat="44.88053" lon="5.52279">
        <ele>1953.3</ele>
        <time>2022-01-19T10:24:20Z</time>
      </trkpt>
      <trkpt lat="44.88053" lon="5.52279">
        <ele>1953.3</ele>
        <time>2022-01-19T10:24:21Z</time>
      </trkpt>
      <trkpt lat="44.88052" lon="5.5228">
        <ele>1953.3</ele>
        <time>2022-01-19T10:24:22Z</time>
      </trkpt>
      <trkpt lat="44.88051" lon="5.5228">
        <ele>1953.3</ele>
        <time>2022-01-19T10:24:23Z</time>
      </trkpt>
      <trkpt lat="44.88051" lon="5.5228">
        <ele>1953.3</ele>
        <time>2022-01-19T10:24:24Z</time>
      </trkpt>
      <trkpt lat="44.88051" lon="5.5228">
        <ele>1953.3</ele>
        <time>2022-01-19T10:24:25Z</time>
      </trkpt>
      <trkpt lat="44.88051" lon="5.52281">
        <ele>1953.3</ele>
        <time>2022-01-19T10:24:26Z</time>
      </trkpt>
      <trkpt lat="44.88051" lon="5.52281">
        <ele>1953.3</ele>
        <time>2022-01-19T10:24:27Z</time>
      </trkpt>
      <trkpt lat="44.88051" lon="5.52281">
        <ele>1953.3</ele>
        <time>2022-01-19T10:24:28Z</time>
      </trkpt>
      <trkpt lat="44.88051" lon="5.52281">
        <ele>1955.4</ele>
        <time>2022-01-19T10:24:29Z</time>
      </trkpt>
      <trkpt lat="44.88051" lon="5.52281">
        <ele>1955.4</ele>
        <time>2022-01-19T10:24:30Z</time>
      </trkpt>
      <trkpt lat="44.88051" lon="5.52281">
        <ele>1955.4</ele>
        <time>2022-01-19T10:24:31Z</time>
      </trkpt>
      <trkpt lat="44.88051" lon="5.52281">
        <ele>1955.4</ele>
        <time>2022-01-19T10:24:32Z</time>
      </trkpt>
      <trkpt lat="44.88051" lon="5.52281">
        <ele>1955.4</ele>
        <time>2022-01-19T10:24:33Z</time>
      </trkpt>
      <trkpt lat="44.8805" lon="5.52282">
        <ele>1955.4</ele>
        <time>2022-01-19T10:24:34Z</time>
      </trkpt>
      <trkpt lat="44.88049" lon="5.52282">
        <ele>1955.4</ele>
        <time>2022-01-19T10:24:35Z</time>
      </trkpt>
      <trkpt lat="44.88049" lon="5.52282">
        <ele>1955.4</ele>
        <time>2022-01-19T10:24:36Z</time>
      </trkpt>
      <trkpt lat="44.88049" lon="5.52282">
        <ele>1955.4</ele>
        <time>2022-01-19T10:24:37Z</time>
      </trkpt>
      <trkpt lat="44.88049" lon="5.52282">
        <ele>1955</ele>
        <time>2022-01-19T10:24:38Z</time>
      </trkpt>
      <trkpt lat="44.88049" lon="5.52282">
        <ele>1955</ele>
        <time>2022-01-19T10:24:39Z</time>
      </trkpt>
      <trkpt lat="44.88049" lon="5.52282">
        <ele>1955</ele>
        <time>2022-01-19T10:24:40Z</time>
      </trkpt>
      <trkpt lat="44.88049" lon="5.52282">
        <ele>1955</ele>
        <time>2022-01-19T10:24:41Z</time>
      </trkpt>
      <trkpt lat="44.88049" lon="5.52282">
        <ele>1955</ele>
        <time>2022-01-19T10:24:42Z</time>
      </trkpt>
      <trkpt lat="44.88049" lon="5.52282">
        <ele>1955</ele>
        <time>2022-01-19T10:24:43Z</time>
      </trkpt>
      <trkpt lat="44.88049" lon="5.52282">
        <ele>1955</ele>
        <time>2022-01-19T10:24:44Z</time>
      </trkpt>
      <trkpt lat="44.88049" lon="5.52282">
        <ele>1955</ele>
        <time>2022-01-19T10:24:45Z</time>
      </trkpt>
      <trkpt lat="44.88049" lon="5.52282">
        <ele>1955</ele>
        <time>2022-01-19T10:24:46Z</time>
      </trkpt>
      <trkpt lat="44.88049" lon="5.52282">
        <ele>1955</ele>
        <time>2022-01-19T10:24:47Z</time>
      </trkpt>
      <trkpt lat="44.88049" lon="5.52282">
        <ele>1955</ele>
        <time>2022-01-19T10:24:48Z</time>
      </trkpt>
      <trkpt lat="44.88049" lon="5.52282">
        <ele>1955</ele>
        <time>2022-01-19T10:24:49Z</time>
      </trkpt>
      <trkpt lat="44.88049" lon="5.52282">
        <ele>1955</ele>
        <time>2022-01-19T10:24:50Z</time>
      </trkpt>
      <trkpt lat="44.88049" lon="5.52282">
        <ele>1955</ele>
        <time>2022-01-19T10:24:51Z</time>
      </trkpt>
      <trkpt lat="44.88049" lon="5.52282">
        <ele>1955</ele>
        <time>2022-01-19T10:24:52Z</time>
      </trkpt>
      <trkpt lat="44.88049" lon="5.52282">
        <ele>1955</ele>
        <time>2022-01-19T10:24:53Z</time>
      </trkpt>
      <trkpt lat="44.88049" lon="5.52282">
        <ele>1955</ele>
        <time>2022-01-19T10:24:54Z</time>
      </trkpt>
      <trkpt lat="44.88049" lon="5.52282">
        <ele>1955</ele>
        <time>2022-01-19T10:24:55Z</time>
      </trkpt>
      <trkpt lat="44.88049" lon="5.52282">
        <ele>1955</ele>
        <time>2022-01-19T10:24:56Z</time>
      </trkpt>
      <trkpt lat="44.88049" lon="5.52282">
        <ele>1955</ele>
        <time>2022-01-19T10:24:57Z</time>
      </trkpt>
      <trkpt lat="44.88049" lon="5.52282">
        <ele>1955</ele>
        <time>2022-01-19T10:24:58Z</time>
      </trkpt>
      <trkpt lat="44.88049" lon="5.52282">
        <ele>1955</ele>
        <time>2022-01-19T10:24:59Z</time>
      </trkpt>
      <trkpt lat="44.88049" lon="5.52282">
        <ele>1955</ele>
        <time>2022-01-19T10:25:00Z</time>
      </trkpt>
      <trkpt lat="44.88049" lon="5.52282">
        <ele>1955</ele>
        <time>2022-01-19T10:25:01Z</time>
      </trkpt>
      <trkpt lat="44.88049" lon="5.52282">
        <ele>1955</ele>
        <time>2022-01-19T10:25:02Z</time>
      </trkpt>
      <trkpt lat="44.88049" lon="5.52282">
        <ele>1955</ele>
        <time>2022-01-19T10:25:03Z</time>
      </trkpt>
      <trkpt lat="44.88049" lon="5.52282">
        <ele>1955</ele>
        <time>2022-01-19T10:25:04Z</time>
      </trkpt>
      <trkpt lat="44.88049" lon="5.52282">
        <ele>1955</ele>
        <time>2022-01-19T10:25:05Z</time>
      </trkpt>
      <trkpt lat="44.88049" lon="5.52282">
        <ele>1955</ele>
        <time>2022-01-19T10:25:06Z</time>
      </trkpt>
      <trkpt lat="44.88049" lon="5.52282">
        <ele>1955</ele>
        <time>2022-01-19T10:25:07Z</time>
      </trkpt>
      <trkpt lat="44.88049" lon="5.52282">
        <ele>1955</ele>
        <time>2022-01-19T10:25:08Z</time>
      </trkpt>
      <trkpt lat="44.88049" lon="5.52282">
        <ele>1955</ele>
        <time>2022-01-19T10:25:09Z</time>
      </trkpt>
      <trkpt lat="44.88049" lon="5.52282">
        <ele>1955</ele>
        <time>2022-01-19T10:25:10Z</time>
      </trkpt>
      <trkpt lat="44.88049" lon="5.52282">
        <ele>1955</ele>
        <time>2022-01-19T10:25:11Z</time>
      </trkpt>
      <trkpt lat="44.88049" lon="5.52282">
        <ele>1955</ele>
        <time>2022-01-19T10:25:12Z</time>
      </trkpt>
      <trkpt lat="44.88049" lon="5.52282">
        <ele>1955</ele>
        <time>2022-01-19T10:25:13Z</time>
      </trkpt>
      <trkpt lat="44.88049" lon="5.52282">
        <ele>1955</ele>
        <time>2022-01-19T10:25:14Z</time>
      </trkpt>
      <trkpt lat="44.88049" lon="5.52282">
        <ele>1955</ele>
        <time>2022-01-19T10:25:15Z</time>
      </trkpt>
      <trkpt lat="44.88049" lon="5.52282">
        <ele>1955</ele>
        <time>2022-01-19T10:25:16Z</time>
      </trkpt>
      <trkpt lat="44.88049" lon="5.52282">
        <ele>1955</ele>
        <time>2022-01-19T10:25:17Z</time>
      </trkpt>
      <trkpt lat="44.88049" lon="5.52282">
        <ele>1955</ele>
        <time>2022-01-19T10:25:18Z</time>
      </trkpt>
      <trkpt lat="44.88049" lon="5.52282">
        <ele>1955</ele>
        <time>2022-01-19T10:25:19Z</time>
      </trkpt>
      <trkpt lat="44.88049" lon="5.52282">
        <ele>1955</ele>
        <time>2022-01-19T10:25:20Z</time>
      </trkpt>
      <trkpt lat="44.88049" lon="5.52282">
        <ele>1955</ele>
        <time>2022-01-19T10:25:21Z</time>
      </trkpt>
      <trkpt lat="44.88049" lon="5.52282">
        <ele>1955</ele>
        <time>2022-01-19T10:25:22Z</time>
      </trkpt>
      <trkpt lat="44.88049" lon="5.52282">
        <ele>1955</ele>
        <time>2022-01-19T10:25:23Z</time>
      </trkpt>
      <trkpt lat="44.88049" lon="5.52282">
        <ele>1955</ele>
        <time>2022-01-19T10:25:24Z</time>
      </trkpt>
      <trkpt lat="44.88049" lon="5.52282">
        <ele>1955</ele>
        <time>2022-01-19T10:25:25Z</time>
      </trkpt>
      <trkpt lat="44.88049" lon="5.52282">
        <ele>1955</ele>
        <time>2022-01-19T10:25:26Z</time>
      </trkpt>
      <trkpt lat="44.88049" lon="5.52282">
        <ele>1955</ele>
        <time>2022-01-19T10:25:27Z</time>
      </trkpt>
      <trkpt lat="44.88049" lon="5.52282">
        <ele>1955</ele>
        <time>2022-01-19T10:25:28Z</time>
      </trkpt>
      <trkpt lat="44.88049" lon="5.52282">
        <ele>1955</ele>
        <time>2022-01-19T10:25:29Z</time>
      </trkpt>
      <trkpt lat="44.88049" lon="5.52282">
        <ele>1955</ele>
        <time>2022-01-19T10:25:30Z</time>
      </trkpt>
      <trkpt lat="44.88049" lon="5.52282">
        <ele>1955</ele>
        <time>2022-01-19T10:25:31Z</time>
      </trkpt>
      <trkpt lat="44.88049" lon="5.52282">
        <ele>1955</ele>
        <time>2022-01-19T10:25:32Z</time>
      </trkpt>
      <trkpt lat="44.88049" lon="5.52282">
        <ele>1955</ele>
        <time>2022-01-19T10:25:33Z</time>
      </trkpt>
      <trkpt lat="44.88049" lon="5.52282">
        <ele>1955</ele>
        <time>2022-01-19T10:25:34Z</time>
      </trkpt>
      <trkpt lat="44.88042" lon="5.52287">
        <ele>1958.5</ele>
        <time>2022-01-19T10:25:35Z</time>
      </trkpt>
      <trkpt lat="44.88041" lon="5.52287">
        <ele>1960.6</ele>
        <time>2022-01-19T10:25:36Z</time>
      </trkpt>
      <trkpt lat="44.88042" lon="5.52288">
        <ele>1958.5</ele>
        <time>2022-01-19T10:25:37Z</time>
      </trkpt>
      <trkpt lat="44.88042" lon="5.52288">
        <ele>1958.5</ele>
        <time>2022-01-19T10:25:38Z</time>
      </trkpt>
      <trkpt lat="44.88042" lon="5.52288">
        <ele>1958.5</ele>
        <time>2022-01-19T10:25:39Z</time>
      </trkpt>
      <trkpt lat="44.88042" lon="5.52288">
        <ele>1958.5</ele>
        <time>2022-01-19T10:25:40Z</time>
      </trkpt>
      <trkpt lat="44.88042" lon="5.52288">
        <ele>1958.5</ele>
        <time>2022-01-19T10:25:41Z</time>
      </trkpt>
      <trkpt lat="44.88042" lon="5.52288">
        <ele>1958.5</ele>
        <time>2022-01-19T10:25:42Z</time>
      </trkpt>
      <trkpt lat="44.88042" lon="5.52288">
        <ele>1958.5</ele>
        <time>2022-01-19T10:25:43Z</time>
      </trkpt>
      <trkpt lat="44.88042" lon="5.52288">
        <ele>1958.5</ele>
        <time>2022-01-19T10:25:44Z</time>
      </trkpt>
      <trkpt lat="44.88042" lon="5.52288">
        <ele>1958.5</ele>
        <time>2022-01-19T10:25:45Z</time>
      </trkpt>
      <trkpt lat="44.88042" lon="5.52291">
        <ele>1958</ele>
        <time>2022-01-19T10:25:46Z</time>
      </trkpt>
      <trkpt lat="44.88042" lon="5.52292">
        <ele>1958</ele>
        <time>2022-01-19T10:25:47Z</time>
      </trkpt>
      <trkpt lat="44.88042" lon="5.52293">
        <ele>1958</ele>
        <time>2022-01-19T10:25:48Z</time>
      </trkpt>
      <trkpt lat="44.88042" lon="5.52293">
        <ele>1958</ele>
        <time>2022-01-19T10:25:49Z</time>
      </trkpt>
      <trkpt lat="44.88043" lon="5.52294">
        <ele>1958</ele>
        <time>2022-01-19T10:25:50Z</time>
      </trkpt>
      <trkpt lat="44.88042" lon="5.52294">
        <ele>1958</ele>
        <time>2022-01-19T10:25:51Z</time>
      </trkpt>
      <trkpt lat="44.88042" lon="5.52295">
        <ele>1957.5</ele>
        <time>2022-01-19T10:25:52Z</time>
      </trkpt>
      <trkpt lat="44.88041" lon="5.52295">
        <ele>1959.6</ele>
        <time>2022-01-19T10:25:53Z</time>
      </trkpt>
      <trkpt lat="44.88041" lon="5.52295">
        <ele>1959.6</ele>
        <time>2022-01-19T10:25:54Z</time>
      </trkpt>
      <trkpt lat="44.88041" lon="5.52296">
        <ele>1959.6</ele>
        <time>2022-01-19T10:25:55Z</time>
      </trkpt>
      <trkpt lat="44.88041" lon="5.52296">
        <ele>1959.6</ele>
        <time>2022-01-19T10:25:56Z</time>
      </trkpt>
      <trkpt lat="44.88041" lon="5.52296">
        <ele>1959.6</ele>
        <time>2022-01-19T10:25:57Z</time>
      </trkpt>
      <trkpt lat="44.88041" lon="5.52296">
        <ele>1959.6</ele>
        <time>2022-01-19T10:25:58Z</time>
      </trkpt>
      <trkpt lat="44.88041" lon="5.52296">
        <ele>1959.6</ele>
        <time>2022-01-19T10:25:59Z</time>
      </trkpt>
      <trkpt lat="44.88041" lon="5.52296">
        <ele>1959.6</ele>
        <time>2022-01-19T10:26:00Z</time>
      </trkpt>
      <trkpt lat="44.88041" lon="5.52296">
        <ele>1959.6</ele>
        <time>2022-01-19T10:26:01Z</time>
      </trkpt>
      <trkpt lat="44.88041" lon="5.52296">
        <ele>1959.6</ele>
        <time>2022-01-19T10:26:02Z</time>
      </trkpt>
      <trkpt lat="44.88041" lon="5.52296">
        <ele>1959.6</ele>
        <time>2022-01-19T10:26:03Z</time>
      </trkpt>
      <trkpt lat="44.88041" lon="5.52296">
        <ele>1959.6</ele>
        <time>2022-01-19T10:26:04Z</time>
      </trkpt>
      <trkpt lat="44.88043" lon="5.52298">
        <ele>1957.5</ele>
        <time>2022-01-19T10:26:05Z</time>
      </trkpt>
      <trkpt lat="44.88043" lon="5.52299">
        <ele>1957.5</ele>
        <time>2022-01-19T10:26:06Z</time>
      </trkpt>
      <trkpt lat="44.88044" lon="5.52299">
        <ele>1957</ele>
        <time>2022-01-19T10:26:07Z</time>
      </trkpt>
      <trkpt lat="44.88043" lon="5.523">
        <ele>1957</ele>
        <time>2022-01-19T10:26:08Z</time>
      </trkpt>
      <trkpt lat="44.88044" lon="5.52301">
        <ele>1957</ele>
        <time>2022-01-19T10:26:09Z</time>
      </trkpt>
      <trkpt lat="44.88044" lon="5.52302">
        <ele>1957</ele>
        <time>2022-01-19T10:26:10Z</time>
      </trkpt>
      <trkpt lat="44.88044" lon="5.52303">
        <ele>1957</ele>
        <time>2022-01-19T10:26:11Z</time>
      </trkpt>
      <trkpt lat="44.88043" lon="5.52303">
        <ele>1956.4</ele>
        <time>2022-01-19T10:26:12Z</time>
      </trkpt>
      <trkpt lat="44.88044" lon="5.52304">
        <ele>1956.4</ele>
        <time>2022-01-19T10:26:13Z</time>
      </trkpt>
      <trkpt lat="44.88043" lon="5.52305">
        <ele>1956.4</ele>
        <time>2022-01-19T10:26:14Z</time>
      </trkpt>
      <trkpt lat="44.88043" lon="5.52306">
        <ele>1956.4</ele>
        <time>2022-01-19T10:26:15Z</time>
      </trkpt>
      <trkpt lat="44.88043" lon="5.52307">
        <ele>1956.4</ele>
        <time>2022-01-19T10:26:16Z</time>
      </trkpt>
      <trkpt lat="44.88043" lon="5.52307">
        <ele>1956.3</ele>
        <time>2022-01-19T10:26:17Z</time>
      </trkpt>
      <trkpt lat="44.88043" lon="5.52307">
        <ele>1956.2</ele>
        <time>2022-01-19T10:26:18Z</time>
      </trkpt>
      <trkpt lat="44.88043" lon="5.52308">
        <ele>1955.6</ele>
        <time>2022-01-19T10:26:19Z</time>
      </trkpt>
      <trkpt lat="44.88043" lon="5.52308">
        <ele>1955.6</ele>
        <time>2022-01-19T10:26:20Z</time>
      </trkpt>
      <trkpt lat="44.88043" lon="5.52308">
        <ele>1955.5</ele>
        <time>2022-01-19T10:26:21Z</time>
      </trkpt>
      <trkpt lat="44.88043" lon="5.52308">
        <ele>1955.4</ele>
        <time>2022-01-19T10:26:22Z</time>
      </trkpt>
      <trkpt lat="44.88043" lon="5.52308">
        <ele>1955.3</ele>
        <time>2022-01-19T10:26:23Z</time>
      </trkpt>
      <trkpt lat="44.88043" lon="5.52308">
        <ele>1955.2</ele>
        <time>2022-01-19T10:26:24Z</time>
      </trkpt>
      <trkpt lat="44.88043" lon="5.52308">
        <ele>1955.1</ele>
        <time>2022-01-19T10:26:25Z</time>
      </trkpt>
      <trkpt lat="44.88043" lon="5.52308">
        <ele>1955.1</ele>
        <time>2022-01-19T10:26:26Z</time>
      </trkpt>
      <trkpt lat="44.88043" lon="5.52308">
        <ele>1955</ele>
        <time>2022-01-19T10:26:27Z</time>
      </trkpt>
      <trkpt lat="44.88043" lon="5.52308">
        <ele>1954.9</ele>
        <time>2022-01-19T10:26:28Z</time>
      </trkpt>
      <trkpt lat="44.88043" lon="5.52308">
        <ele>1954.8</ele>
        <time>2022-01-19T10:26:29Z</time>
      </trkpt>
      <trkpt lat="44.88043" lon="5.52308">
        <ele>1954.7</ele>
        <time>2022-01-19T10:26:30Z</time>
      </trkpt>
      <trkpt lat="44.88043" lon="5.52308">
        <ele>1954.6</ele>
        <time>2022-01-19T10:26:31Z</time>
      </trkpt>
      <trkpt lat="44.88043" lon="5.52308">
        <ele>1955.1</ele>
        <time>2022-01-19T10:26:32Z</time>
      </trkpt>
      <trkpt lat="44.88043" lon="5.52307">
        <ele>1955</ele>
        <time>2022-01-19T10:26:33Z</time>
      </trkpt>
      <trkpt lat="44.88043" lon="5.52307">
        <ele>1954.9</ele>
        <time>2022-01-19T10:26:34Z</time>
      </trkpt>
      <trkpt lat="44.88043" lon="5.52307">
        <ele>1954.8</ele>
        <time>2022-01-19T10:26:35Z</time>
      </trkpt>
      <trkpt lat="44.88043" lon="5.52307">
        <ele>1954.7</ele>
        <time>2022-01-19T10:26:36Z</time>
      </trkpt>
      <trkpt lat="44.88043" lon="5.52307">
        <ele>1954.7</ele>
        <time>2022-01-19T10:26:37Z</time>
      </trkpt>
      <trkpt lat="44.88043" lon="5.52307">
        <ele>1954.6</ele>
        <time>2022-01-19T10:26:38Z</time>
      </trkpt>
      <trkpt lat="44.88043" lon="5.52307">
        <ele>1954.5</ele>
        <time>2022-01-19T10:26:39Z</time>
      </trkpt>
      <trkpt lat="44.88043" lon="5.52307">
        <ele>1954.4</ele>
        <time>2022-01-19T10:26:40Z</time>
      </trkpt>
      <trkpt lat="44.88043" lon="5.52307">
        <ele>1954.3</ele>
        <time>2022-01-19T10:26:41Z</time>
      </trkpt>
      <trkpt lat="44.88043" lon="5.52307">
        <ele>1954.2</ele>
        <time>2022-01-19T10:26:42Z</time>
      </trkpt>
      <trkpt lat="44.88043" lon="5.52307">
        <ele>1954.2</ele>
        <time>2022-01-19T10:26:43Z</time>
      </trkpt>
      <trkpt lat="44.88043" lon="5.52307">
        <ele>1954.1</ele>
        <time>2022-01-19T10:26:44Z</time>
      </trkpt>
      <trkpt lat="44.88043" lon="5.52307">
        <ele>1954</ele>
        <time>2022-01-19T10:26:45Z</time>
      </trkpt>
      <trkpt lat="44.88043" lon="5.52307">
        <ele>1953.9</ele>
        <time>2022-01-19T10:26:46Z</time>
      </trkpt>
      <trkpt lat="44.88043" lon="5.52307">
        <ele>1953.8</ele>
        <time>2022-01-19T10:26:47Z</time>
      </trkpt>
      <trkpt lat="44.88043" lon="5.52307">
        <ele>1953.7</ele>
        <time>2022-01-19T10:26:48Z</time>
      </trkpt>
      <trkpt lat="44.88043" lon="5.52307">
        <ele>1953.7</ele>
        <time>2022-01-19T10:26:49Z</time>
      </trkpt>
      <trkpt lat="44.88043" lon="5.52307">
        <ele>1953.6</ele>
        <time>2022-01-19T10:26:50Z</time>
      </trkpt>
      <trkpt lat="44.88043" lon="5.52307">
        <ele>1953.5</ele>
        <time>2022-01-19T10:26:51Z</time>
      </trkpt>
      <trkpt lat="44.88043" lon="5.52307">
        <ele>1953.4</ele>
        <time>2022-01-19T10:26:52Z</time>
      </trkpt>
      <trkpt lat="44.88043" lon="5.52307">
        <ele>1953.3</ele>
        <time>2022-01-19T10:26:53Z</time>
      </trkpt>
      <trkpt lat="44.88043" lon="5.52307">
        <ele>1953.2</ele>
        <time>2022-01-19T10:26:54Z</time>
      </trkpt>
      <trkpt lat="44.88043" lon="5.52307">
        <ele>1953.2</ele>
        <time>2022-01-19T10:26:55Z</time>
      </trkpt>
      <trkpt lat="44.88043" lon="5.52307">
        <ele>1953.1</ele>
        <time>2022-01-19T10:26:56Z</time>
      </trkpt>
      <trkpt lat="44.88043" lon="5.52307">
        <ele>1953</ele>
        <time>2022-01-19T10:26:57Z</time>
      </trkpt>
      <trkpt lat="44.88043" lon="5.52307">
        <ele>1952.9</ele>
        <time>2022-01-19T10:26:58Z</time>
      </trkpt>
      <trkpt lat="44.88043" lon="5.52307">
        <ele>1952.8</ele>
        <time>2022-01-19T10:26:59Z</time>
      </trkpt>
      <trkpt lat="44.88043" lon="5.52307">
        <ele>1952.7</ele>
        <time>2022-01-19T10:27:00Z</time>
      </trkpt>
      <trkpt lat="44.88043" lon="5.52307">
        <ele>1952.7</ele>
        <time>2022-01-19T10:27:01Z</time>
      </trkpt>
      <trkpt lat="44.88043" lon="5.52307">
        <ele>1952.6</ele>
        <time>2022-01-19T10:27:02Z</time>
      </trkpt>
      <trkpt lat="44.88043" lon="5.52307">
        <ele>1952.5</ele>
        <time>2022-01-19T10:27:03Z</time>
      </trkpt>
      <trkpt lat="44.88043" lon="5.52307">
        <ele>1952.4</ele>
        <time>2022-01-19T10:27:04Z</time>
      </trkpt>
      <trkpt lat="44.88043" lon="5.52307">
        <ele>1952.3</ele>
        <time>2022-01-19T10:27:05Z</time>
      </trkpt>
      <trkpt lat="44.88043" lon="5.52307">
        <ele>1952.3</ele>
        <time>2022-01-19T10:27:06Z</time>
      </trkpt>
      <trkpt lat="44.88043" lon="5.52307">
        <ele>1952.2</ele>
        <time>2022-01-19T10:27:07Z</time>
      </trkpt>
      <trkpt lat="44.88043" lon="5.52307">
        <ele>1952.1</ele>
        <time>2022-01-19T10:27:08Z</time>
      </trkpt>
      <trkpt lat="44.88043" lon="5.52307">
        <ele>1952</ele>
        <time>2022-01-19T10:27:09Z</time>
      </trkpt>
      <trkpt lat="44.88043" lon="5.52307">
        <ele>1951.9</ele>
        <time>2022-01-19T10:27:10Z</time>
      </trkpt>
      <trkpt lat="44.88043" lon="5.52307">
        <ele>1951.8</ele>
        <time>2022-01-19T10:27:11Z</time>
      </trkpt>
      <trkpt lat="44.88043" lon="5.52307">
        <ele>1951.8</ele>
        <time>2022-01-19T10:27:12Z</time>
      </trkpt>
      <trkpt lat="44.88043" lon="5.52307">
        <ele>1951.7</ele>
        <time>2022-01-19T10:27:13Z</time>
      </trkpt>
      <trkpt lat="44.88043" lon="5.52307">
        <ele>1951.6</ele>
        <time>2022-01-19T10:27:14Z</time>
      </trkpt>
      <trkpt lat="44.88043" lon="5.52307">
        <ele>1951.5</ele>
        <time>2022-01-19T10:27:15Z</time>
      </trkpt>
      <trkpt lat="44.88043" lon="5.52307">
        <ele>1951.4</ele>
        <time>2022-01-19T10:27:16Z</time>
      </trkpt>
      <trkpt lat="44.88043" lon="5.52307">
        <ele>1951.3</ele>
        <time>2022-01-19T10:27:17Z</time>
      </trkpt>
      <trkpt lat="44.88041" lon="5.52306">
        <ele>1953.3</ele>
        <time>2022-01-19T10:27:18Z</time>
      </trkpt>
      <trkpt lat="44.88041" lon="5.52306">
        <ele>1953.2</ele>
        <time>2022-01-19T10:27:19Z</time>
      </trkpt>
      <trkpt lat="44.8804" lon="5.52305">
        <ele>1953.1</ele>
        <time>2022-01-19T10:27:20Z</time>
      </trkpt>
      <trkpt lat="44.8804" lon="5.52305">
        <ele>1953</ele>
        <time>2022-01-19T10:27:21Z</time>
      </trkpt>
      <trkpt lat="44.8804" lon="5.52305">
        <ele>1953</ele>
        <time>2022-01-19T10:27:22Z</time>
      </trkpt>
      <trkpt lat="44.88039" lon="5.52304">
        <ele>1952.9</ele>
        <time>2022-01-19T10:27:23Z</time>
      </trkpt>
      <trkpt lat="44.88039" lon="5.52305">
        <ele>1952.8</ele>
        <time>2022-01-19T10:27:24Z</time>
      </trkpt>
      <trkpt lat="44.88039" lon="5.52305">
        <ele>1952.7</ele>
        <time>2022-01-19T10:27:25Z</time>
      </trkpt>
      <trkpt lat="44.88039" lon="5.52305">
        <ele>1952.6</ele>
        <time>2022-01-19T10:27:26Z</time>
      </trkpt>
      <trkpt lat="44.88039" lon="5.52305">
        <ele>1952.5</ele>
        <time>2022-01-19T10:27:27Z</time>
      </trkpt>
      <trkpt lat="44.88039" lon="5.52305">
        <ele>1952.5</ele>
        <time>2022-01-19T10:27:28Z</time>
      </trkpt>
      <trkpt lat="44.88041" lon="5.52305">
        <ele>1952.4</ele>
        <time>2022-01-19T10:27:29Z</time>
      </trkpt>
      <trkpt lat="44.88041" lon="5.52305">
        <ele>1952.3</ele>
        <time>2022-01-19T10:27:30Z</time>
      </trkpt>
      <trkpt lat="44.88041" lon="5.52305">
        <ele>1952.2</ele>
        <time>2022-01-19T10:27:31Z</time>
      </trkpt>
      <trkpt lat="44.88041" lon="5.52305">
        <ele>1952.1</ele>
        <time>2022-01-19T10:27:32Z</time>
      </trkpt>
      <trkpt lat="44.88041" lon="5.52305">
        <ele>1952</ele>
        <time>2022-01-19T10:27:33Z</time>
      </trkpt>
      <trkpt lat="44.88041" lon="5.52305">
        <ele>1951.9</ele>
        <time>2022-01-19T10:27:34Z</time>
      </trkpt>
      <trkpt lat="44.88041" lon="5.52305">
        <ele>1951.9</ele>
        <time>2022-01-19T10:27:35Z</time>
      </trkpt>
      <trkpt lat="44.88041" lon="5.52305">
        <ele>1951.8</ele>
        <time>2022-01-19T10:27:36Z</time>
      </trkpt>
      <trkpt lat="44.88041" lon="5.52305">
        <ele>1951.7</ele>
        <time>2022-01-19T10:27:37Z</time>
      </trkpt>
      <trkpt lat="44.88041" lon="5.52305">
        <ele>1951.6</ele>
        <time>2022-01-19T10:27:38Z</time>
      </trkpt>
      <trkpt lat="44.88041" lon="5.52305">
        <ele>1951.5</ele>
        <time>2022-01-19T10:27:39Z</time>
      </trkpt>
      <trkpt lat="44.88041" lon="5.52305">
        <ele>1951.4</ele>
        <time>2022-01-19T10:27:40Z</time>
      </trkpt>
      <trkpt lat="44.88041" lon="5.52305">
        <ele>1951.4</ele>
        <time>2022-01-19T10:27:41Z</time>
      </trkpt>
      <trkpt lat="44.88041" lon="5.52305">
        <ele>1951.3</ele>
        <time>2022-01-19T10:27:42Z</time>
      </trkpt>
      <trkpt lat="44.88041" lon="5.52305">
        <ele>1951.2</ele>
        <time>2022-01-19T10:27:43Z</time>
      </trkpt>
      <trkpt lat="44.88041" lon="5.52305">
        <ele>1951.1</ele>
        <time>2022-01-19T10:27:44Z</time>
      </trkpt>
      <trkpt lat="44.88041" lon="5.52305">
        <ele>1951</ele>
        <time>2022-01-19T10:27:45Z</time>
      </trkpt>
      <trkpt lat="44.88041" lon="5.52305">
        <ele>1950.9</ele>
        <time>2022-01-19T10:27:46Z</time>
      </trkpt>
      <trkpt lat="44.88041" lon="5.52305">
        <ele>1950.9</ele>
        <time>2022-01-19T10:27:47Z</time>
      </trkpt>
      <trkpt lat="44.88041" lon="5.52305">
        <ele>1950.8</ele>
        <time>2022-01-19T10:27:48Z</time>
      </trkpt>
      <trkpt lat="44.88041" lon="5.52305">
        <ele>1950.7</ele>
        <time>2022-01-19T10:27:49Z</time>
      </trkpt>
      <trkpt lat="44.88041" lon="5.52305">
        <ele>1950.6</ele>
        <time>2022-01-19T10:27:50Z</time>
      </trkpt>
      <trkpt lat="44.88041" lon="5.52305">
        <ele>1950.5</ele>
        <time>2022-01-19T10:27:51Z</time>
      </trkpt>
      <trkpt lat="44.88041" lon="5.52305">
        <ele>1950.4</ele>
        <time>2022-01-19T10:27:52Z</time>
      </trkpt>
      <trkpt lat="44.88041" lon="5.52305">
        <ele>1950.4</ele>
        <time>2022-01-19T10:27:53Z</time>
      </trkpt>
      <trkpt lat="44.88041" lon="5.52305">
        <ele>1950.3</ele>
        <time>2022-01-19T10:27:54Z</time>
      </trkpt>
      <trkpt lat="44.88041" lon="5.52305">
        <ele>1950.2</ele>
        <time>2022-01-19T10:27:55Z</time>
      </trkpt>
      <trkpt lat="44.88041" lon="5.52305">
        <ele>1950.1</ele>
        <time>2022-01-19T10:27:56Z</time>
      </trkpt>
      <trkpt lat="44.88041" lon="5.52305">
        <ele>1950.1</ele>
        <time>2022-01-19T10:27:57Z</time>
      </trkpt>
      <trkpt lat="44.88041" lon="5.52305">
        <ele>1950.1</ele>
        <time>2022-01-19T10:27:58Z</time>
      </trkpt>
      <trkpt lat="44.88041" lon="5.52305">
        <ele>1950.1</ele>
        <time>2022-01-19T10:27:59Z</time>
      </trkpt>
      <trkpt lat="44.88041" lon="5.52305">
        <ele>1950.1</ele>
        <time>2022-01-19T10:28:00Z</time>
      </trkpt>
      <trkpt lat="44.88041" lon="5.52305">
        <ele>1950.1</ele>
        <time>2022-01-19T10:28:01Z</time>
      </trkpt>
      <trkpt lat="44.88041" lon="5.52305">
        <ele>1950.1</ele>
        <time>2022-01-19T10:28:02Z</time>
      </trkpt>
      <trkpt lat="44.88041" lon="5.52305">
        <ele>1950.1</ele>
        <time>2022-01-19T10:28:03Z</time>
      </trkpt>
      <trkpt lat="44.88041" lon="5.52305">
        <ele>1950.1</ele>
        <time>2022-01-19T10:28:04Z</time>
      </trkpt>
      <trkpt lat="44.88041" lon="5.52305">
        <ele>1950.1</ele>
        <time>2022-01-19T10:28:05Z</time>
      </trkpt>
      <trkpt lat="44.88041" lon="5.52305">
        <ele>1950.1</ele>
        <time>2022-01-19T10:28:06Z</time>
      </trkpt>
      <trkpt lat="44.88041" lon="5.52305">
        <ele>1950.1</ele>
        <time>2022-01-19T10:28:07Z</time>
      </trkpt>
      <trkpt lat="44.88041" lon="5.52305">
        <ele>1950.1</ele>
        <time>2022-01-19T10:28:08Z</time>
      </trkpt>
      <trkpt lat="44.88041" lon="5.52305">
        <ele>1950.1</ele>
        <time>2022-01-19T10:28:09Z</time>
      </trkpt>
      <trkpt lat="44.88041" lon="5.52305">
        <ele>1950.1</ele>
        <time>2022-01-19T10:28:10Z</time>
      </trkpt>
      <trkpt lat="44.88041" lon="5.52305">
        <ele>1950.1</ele>
        <time>2022-01-19T10:28:11Z</time>
      </trkpt>
      <trkpt lat="44.88041" lon="5.52305">
        <ele>1950.1</ele>
        <time>2022-01-19T10:28:12Z</time>
      </trkpt>
      <trkpt lat="44.88041" lon="5.52305">
        <ele>1950.1</ele>
        <time>2022-01-19T10:28:13Z</time>
      </trkpt>
      <trkpt lat="44.88041" lon="5.52305">
        <ele>1950.1</ele>
        <time>2022-01-19T10:28:14Z</time>
      </trkpt>
      <trkpt lat="44.88041" lon="5.52305">
        <ele>1950.1</ele>
        <time>2022-01-19T10:28:15Z</time>
      </trkpt>
      <trkpt lat="44.88041" lon="5.52305">
        <ele>1950.1</ele>
        <time>2022-01-19T10:28:16Z</time>
      </trkpt>
      <trkpt lat="44.88041" lon="5.52305">
        <ele>1950.1</ele>
        <time>2022-01-19T10:28:17Z</time>
      </trkpt>
      <trkpt lat="44.88041" lon="5.52305">
        <ele>1950.1</ele>
        <time>2022-01-19T10:28:18Z</time>
      </trkpt>
      <trkpt lat="44.88041" lon="5.52305">
        <ele>1950.1</ele>
        <time>2022-01-19T10:28:19Z</time>
      </trkpt>
      <trkpt lat="44.88041" lon="5.52305">
        <ele>1950.1</ele>
        <time>2022-01-19T10:28:20Z</time>
      </trkpt>
      <trkpt lat="44.88041" lon="5.52305">
        <ele>1950.1</ele>
        <time>2022-01-19T10:28:21Z</time>
      </trkpt>
      <trkpt lat="44.88041" lon="5.52305">
        <ele>1950.1</ele>
        <time>2022-01-19T10:28:22Z</time>
      </trkpt>
      <trkpt lat="44.88041" lon="5.52305">
        <ele>1950.1</ele>
        <time>2022-01-19T10:28:23Z</time>
      </trkpt>
      <trkpt lat="44.88041" lon="5.52305">
        <ele>1950.1</ele>
        <time>2022-01-19T10:28:24Z</time>
      </trkpt>
      <trkpt lat="44.88041" lon="5.52305">
        <ele>1950.1</ele>
        <time>2022-01-19T10:28:25Z</time>
      </trkpt>
      <trkpt lat="44.88041" lon="5.52305">
        <ele>1950.1</ele>
        <time>2022-01-19T10:28:26Z</time>
      </trkpt>
      <trkpt lat="44.88041" lon="5.52305">
        <ele>1950.1</ele>
        <time>2022-01-19T10:28:27Z</time>
      </trkpt>
      <trkpt lat="44.88041" lon="5.52305">
        <ele>1950.1</ele>
        <time>2022-01-19T10:28:28Z</time>
      </trkpt>
      <trkpt lat="44.88041" lon="5.52305">
        <ele>1950.1</ele>
        <time>2022-01-19T10:28:29Z</time>
      </trkpt>
      <trkpt lat="44.88041" lon="5.52305">
        <ele>1950.1</ele>
        <time>2022-01-19T10:28:30Z</time>
      </trkpt>
      <trkpt lat="44.88041" lon="5.52305">
        <ele>1950.1</ele>
        <time>2022-01-19T10:28:31Z</time>
      </trkpt>
      <trkpt lat="44.88041" lon="5.52305">
        <ele>1950.1</ele>
        <time>2022-01-19T10:28:32Z</time>
      </trkpt>
      <trkpt lat="44.88041" lon="5.52305">
        <ele>1950.1</ele>
        <time>2022-01-19T10:28:33Z</time>
      </trkpt>
      <trkpt lat="44.88041" lon="5.52305">
        <ele>1950.1</ele>
        <time>2022-01-19T10:28:34Z</time>
      </trkpt>
      <trkpt lat="44.88041" lon="5.52305">
        <ele>1950.1</ele>
        <time>2022-01-19T10:28:35Z</time>
      </trkpt>
      <trkpt lat="44.88041" lon="5.52305">
        <ele>1950.1</ele>
        <time>2022-01-19T10:28:36Z</time>
      </trkpt>
      <trkpt lat="44.88041" lon="5.52305">
        <ele>1950.1</ele>
        <time>2022-01-19T10:28:37Z</time>
      </trkpt>
      <trkpt lat="44.88041" lon="5.52305">
        <ele>1950.1</ele>
        <time>2022-01-19T10:28:38Z</time>
      </trkpt>
      <trkpt lat="44.88041" lon="5.52305">
        <ele>1950.1</ele>
        <time>2022-01-19T10:28:39Z</time>
      </trkpt>
      <trkpt lat="44.88041" lon="5.52305">
        <ele>1950.1</ele>
        <time>2022-01-19T10:28:40Z</time>
      </trkpt>
      <trkpt lat="44.88041" lon="5.52305">
        <ele>1950.1</ele>
        <time>2022-01-19T10:28:41Z</time>
      </trkpt>
      <trkpt lat="44.88041" lon="5.52305">
        <ele>1950.1</ele>
        <time>2022-01-19T10:28:42Z</time>
      </trkpt>
      <trkpt lat="44.88041" lon="5.52305">
        <ele>1950.1</ele>
        <time>2022-01-19T10:28:43Z</time>
      </trkpt>
      <trkpt lat="44.88041" lon="5.52305">
        <ele>1950.1</ele>
        <time>2022-01-19T10:28:44Z</time>
      </trkpt>
      <trkpt lat="44.88041" lon="5.52305">
        <ele>1950.1</ele>
        <time>2022-01-19T10:28:45Z</time>
      </trkpt>
      <trkpt lat="44.88041" lon="5.52305">
        <ele>1950.1</ele>
        <time>2022-01-19T10:28:46Z</time>
      </trkpt>
      <trkpt lat="44.88041" lon="5.52305">
        <ele>1950.1</ele>
        <time>2022-01-19T10:28:47Z</time>
      </trkpt>
      <trkpt lat="44.88041" lon="5.52305">
        <ele>1950.1</ele>
        <time>2022-01-19T10:28:48Z</time>
      </trkpt>
      <trkpt lat="44.88041" lon="5.52305">
        <ele>1950.1</ele>
        <time>2022-01-19T10:28:49Z</time>
      </trkpt>
      <trkpt lat="44.88041" lon="5.52305">
        <ele>1950.1</ele>
        <time>2022-01-19T10:28:50Z</time>
      </trkpt>
      <trkpt lat="44.88041" lon="5.52305">
        <ele>1950.1</ele>
        <time>2022-01-19T10:28:51Z</time>
      </trkpt>
      <trkpt lat="44.88041" lon="5.52305">
        <ele>1950.1</ele>
        <time>2022-01-19T10:28:52Z</time>
      </trkpt>
      <trkpt lat="44.88041" lon="5.52305">
        <ele>1950.1</ele>
        <time>2022-01-19T10:28:53Z</time>
      </trkpt>
      <trkpt lat="44.88041" lon="5.52305">
        <ele>1950.1</ele>
        <time>2022-01-19T10:28:54Z</time>
      </trkpt>
      <trkpt lat="44.88041" lon="5.52305">
        <ele>1950.1</ele>
        <time>2022-01-19T10:28:55Z</time>
      </trkpt>
      <trkpt lat="44.88041" lon="5.52305">
        <ele>1950.1</ele>
        <time>2022-01-19T10:28:56Z</time>
      </trkpt>
      <trkpt lat="44.88041" lon="5.52305">
        <ele>1950.1</ele>
        <time>2022-01-19T10:28:57Z</time>
      </trkpt>
      <trkpt lat="44.88041" lon="5.52305">
        <ele>1950.1</ele>
        <time>2022-01-19T10:28:58Z</time>
      </trkpt>
      <trkpt lat="44.88041" lon="5.52305">
        <ele>1950.1</ele>
        <time>2022-01-19T10:28:59Z</time>
      </trkpt>
      <trkpt lat="44.88041" lon="5.52305">
        <ele>1950.1</ele>
        <time>2022-01-19T10:29:00Z</time>
      </trkpt>
      <trkpt lat="44.88041" lon="5.52305">
        <ele>1950.1</ele>
        <time>2022-01-19T10:29:01Z</time>
      </trkpt>
      <trkpt lat="44.88041" lon="5.52305">
        <ele>1950.1</ele>
        <time>2022-01-19T10:29:02Z</time>
      </trkpt>
      <trkpt lat="44.88041" lon="5.52305">
        <ele>1950.1</ele>
        <time>2022-01-19T10:29:03Z</time>
      </trkpt>
      <trkpt lat="44.88041" lon="5.52305">
        <ele>1950.1</ele>
        <time>2022-01-19T10:29:04Z</time>
      </trkpt>
      <trkpt lat="44.88041" lon="5.52305">
        <ele>1950.1</ele>
        <time>2022-01-19T10:29:05Z</time>
      </trkpt>
      <trkpt lat="44.88041" lon="5.52305">
        <ele>1950.1</ele>
        <time>2022-01-19T10:29:06Z</time>
      </trkpt>
      <trkpt lat="44.88041" lon="5.52305">
        <ele>1950.1</ele>
        <time>2022-01-19T10:29:07Z</time>
      </trkpt>
      <trkpt lat="44.88041" lon="5.52305">
        <ele>1950.1</ele>
        <time>2022-01-19T10:29:08Z</time>
      </trkpt>
      <trkpt lat="44.88041" lon="5.52305">
        <ele>1950.1</ele>
        <time>2022-01-19T10:29:09Z</time>
      </trkpt>
      <trkpt lat="44.88041" lon="5.52305">
        <ele>1950.1</ele>
        <time>2022-01-19T10:29:10Z</time>
      </trkpt>
      <trkpt lat="44.88041" lon="5.52305">
        <ele>1950.1</ele>
        <time>2022-01-19T10:29:11Z</time>
      </trkpt>
      <trkpt lat="44.88041" lon="5.52305">
        <ele>1950.1</ele>
        <time>2022-01-19T10:29:12Z</time>
      </trkpt>
      <trkpt lat="44.88041" lon="5.52305">
        <ele>1950.1</ele>
        <time>2022-01-19T10:29:13Z</time>
      </trkpt>
      <trkpt lat="44.88041" lon="5.52305">
        <ele>1950.1</ele>
        <time>2022-01-19T10:29:14Z</time>
      </trkpt>
      <trkpt lat="44.88041" lon="5.52305">
        <ele>1950.1</ele>
        <time>2022-01-19T10:29:15Z</time>
      </trkpt>
      <trkpt lat="44.88041" lon="5.52305">
        <ele>1950.1</ele>
        <time>2022-01-19T10:29:16Z</time>
      </trkpt>
      <trkpt lat="44.88041" lon="5.52305">
        <ele>1950.1</ele>
        <time>2022-01-19T10:29:17Z</time>
      </trkpt>
      <trkpt lat="44.88041" lon="5.52305">
        <ele>1950.1</ele>
        <time>2022-01-19T10:29:18Z</time>
      </trkpt>
      <trkpt lat="44.88041" lon="5.52305">
        <ele>1950.1</ele>
        <time>2022-01-19T10:29:19Z</time>
      </trkpt>
      <trkpt lat="44.88041" lon="5.52305">
        <ele>1950.1</ele>
        <time>2022-01-19T10:29:20Z</time>
      </trkpt>
      <trkpt lat="44.88041" lon="5.52305">
        <ele>1950.1</ele>
        <time>2022-01-19T10:29:21Z</time>
      </trkpt>
      <trkpt lat="44.88041" lon="5.52305">
        <ele>1950.1</ele>
        <time>2022-01-19T10:29:22Z</time>
      </trkpt>
      <trkpt lat="44.88041" lon="5.52305">
        <ele>1950.1</ele>
        <time>2022-01-19T10:29:23Z</time>
      </trkpt>
      <trkpt lat="44.88041" lon="5.52305">
        <ele>1950.1</ele>
        <time>2022-01-19T10:29:24Z</time>
      </trkpt>
      <trkpt lat="44.88041" lon="5.52305">
        <ele>1950.1</ele>
        <time>2022-01-19T10:29:25Z</time>
      </trkpt>
      <trkpt lat="44.88041" lon="5.52305">
        <ele>1950.1</ele>
        <time>2022-01-19T10:29:26Z</time>
      </trkpt>
      <trkpt lat="44.88041" lon="5.52305">
        <ele>1950.1</ele>
        <time>2022-01-19T10:29:27Z</time>
      </trkpt>
      <trkpt lat="44.88041" lon="5.52305">
        <ele>1950.1</ele>
        <time>2022-01-19T10:29:28Z</time>
      </trkpt>
      <trkpt lat="44.88041" lon="5.52305">
        <ele>1950.1</ele>
        <time>2022-01-19T10:29:29Z</time>
      </trkpt>
      <trkpt lat="44.88041" lon="5.52305">
        <ele>1950.1</ele>
        <time>2022-01-19T10:29:30Z</time>
      </trkpt>
      <trkpt lat="44.88041" lon="5.52305">
        <ele>1950.1</ele>
        <time>2022-01-19T10:29:31Z</time>
      </trkpt>
      <trkpt lat="44.88041" lon="5.52305">
        <ele>1950.1</ele>
        <time>2022-01-19T10:29:32Z</time>
      </trkpt>
      <trkpt lat="44.88041" lon="5.52305">
        <ele>1950.1</ele>
        <time>2022-01-19T10:29:33Z</time>
      </trkpt>
      <trkpt lat="44.88041" lon="5.52305">
        <ele>1950.1</ele>
        <time>2022-01-19T10:29:34Z</time>
      </trkpt>
      <trkpt lat="44.88041" lon="5.52305">
        <ele>1950.1</ele>
        <time>2022-01-19T10:29:35Z</time>
      </trkpt>
      <trkpt lat="44.88041" lon="5.52305">
        <ele>1950.1</ele>
        <time>2022-01-19T10:29:36Z</time>
      </trkpt>
      <trkpt lat="44.88041" lon="5.52305">
        <ele>1950.1</ele>
        <time>2022-01-19T10:29:37Z</time>
      </trkpt>
      <trkpt lat="44.88041" lon="5.52305">
        <ele>1950.1</ele>
        <time>2022-01-19T10:29:38Z</time>
      </trkpt>
      <trkpt lat="44.88041" lon="5.52305">
        <ele>1950.1</ele>
        <time>2022-01-19T10:29:39Z</time>
      </trkpt>
      <trkpt lat="44.88041" lon="5.52305">
        <ele>1950.1</ele>
        <time>2022-01-19T10:29:40Z</time>
      </trkpt>
      <trkpt lat="44.88041" lon="5.52305">
        <ele>1950.1</ele>
        <time>2022-01-19T10:29:41Z</time>
      </trkpt>
      <trkpt lat="44.88041" lon="5.52305">
        <ele>1950.1</ele>
        <time>2022-01-19T10:29:42Z</time>
      </trkpt>
      <trkpt lat="44.88041" lon="5.52305">
        <ele>1950.1</ele>
        <time>2022-01-19T10:29:43Z</time>
      </trkpt>
      <trkpt lat="44.88041" lon="5.52305">
        <ele>1950.1</ele>
        <time>2022-01-19T10:29:44Z</time>
      </trkpt>
      <trkpt lat="44.88041" lon="5.52305">
        <ele>1950.1</ele>
        <time>2022-01-19T10:29:45Z</time>
      </trkpt>
      <trkpt lat="44.88041" lon="5.52305">
        <ele>1950.1</ele>
        <time>2022-01-19T10:29:46Z</time>
      </trkpt>
      <trkpt lat="44.88041" lon="5.52304">
        <ele>1950.1</ele>
        <time>2022-01-19T10:29:47Z</time>
      </trkpt>
      <trkpt lat="44.8804" lon="5.52305">
        <ele>1950.1</ele>
        <time>2022-01-19T10:29:48Z</time>
      </trkpt>
      <trkpt lat="44.8804" lon="5.52305">
        <ele>1950.1</ele>
        <time>2022-01-19T10:29:49Z</time>
      </trkpt>
      <trkpt lat="44.88039" lon="5.52305">
        <ele>1950.1</ele>
        <time>2022-01-19T10:29:50Z</time>
      </trkpt>
      <trkpt lat="44.88039" lon="5.52304">
        <ele>1950.1</ele>
        <time>2022-01-19T10:29:51Z</time>
      </trkpt>
      <trkpt lat="44.88039" lon="5.52303">
        <ele>1950.7</ele>
        <time>2022-01-19T10:29:52Z</time>
      </trkpt>
      <trkpt lat="44.88039" lon="5.52303">
        <ele>1950.7</ele>
        <time>2022-01-19T10:29:53Z</time>
      </trkpt>
      <trkpt lat="44.88039" lon="5.52303">
        <ele>1950.7</ele>
        <time>2022-01-19T10:29:54Z</time>
      </trkpt>
      <trkpt lat="44.88039" lon="5.52303">
        <ele>1950.7</ele>
        <time>2022-01-19T10:29:55Z</time>
      </trkpt>
      <trkpt lat="44.88039" lon="5.52303">
        <ele>1950.7</ele>
        <time>2022-01-19T10:29:56Z</time>
      </trkpt>
      <trkpt lat="44.8804" lon="5.52304">
        <ele>1950.1</ele>
        <time>2022-01-19T10:29:57Z</time>
      </trkpt>
      <trkpt lat="44.8804" lon="5.52305">
        <ele>1950.1</ele>
        <time>2022-01-19T10:29:58Z</time>
      </trkpt>
      <trkpt lat="44.8804" lon="5.52305">
        <ele>1950.1</ele>
        <time>2022-01-19T10:29:59Z</time>
      </trkpt>
      <trkpt lat="44.8804" lon="5.52305">
        <ele>1950.1</ele>
        <time>2022-01-19T10:30:00Z</time>
      </trkpt>
      <trkpt lat="44.8804" lon="5.52305">
        <ele>1950.1</ele>
        <time>2022-01-19T10:30:01Z</time>
      </trkpt>
      <trkpt lat="44.8804" lon="5.52305">
        <ele>1950.1</ele>
        <time>2022-01-19T10:30:02Z</time>
      </trkpt>
      <trkpt lat="44.8804" lon="5.52305">
        <ele>1950.1</ele>
        <time>2022-01-19T10:30:03Z</time>
      </trkpt>
      <trkpt lat="44.8804" lon="5.52305">
        <ele>1950.1</ele>
        <time>2022-01-19T10:30:04Z</time>
      </trkpt>
      <trkpt lat="44.8804" lon="5.52305">
        <ele>1950.1</ele>
        <time>2022-01-19T10:30:05Z</time>
      </trkpt>
      <trkpt lat="44.8804" lon="5.52305">
        <ele>1950.1</ele>
        <time>2022-01-19T10:30:06Z</time>
      </trkpt>
      <trkpt lat="44.8804" lon="5.52305">
        <ele>1950.1</ele>
        <time>2022-01-19T10:30:07Z</time>
      </trkpt>
      <trkpt lat="44.8804" lon="5.52305">
        <ele>1950.1</ele>
        <time>2022-01-19T10:30:08Z</time>
      </trkpt>
      <trkpt lat="44.8804" lon="5.52305">
        <ele>1950.1</ele>
        <time>2022-01-19T10:30:09Z</time>
      </trkpt>
      <trkpt lat="44.8804" lon="5.52305">
        <ele>1950.1</ele>
        <time>2022-01-19T10:30:10Z</time>
      </trkpt>
      <trkpt lat="44.8804" lon="5.52305">
        <ele>1950.1</ele>
        <time>2022-01-19T10:30:11Z</time>
      </trkpt>
      <trkpt lat="44.8804" lon="5.52305">
        <ele>1950.1</ele>
        <time>2022-01-19T10:30:12Z</time>
      </trkpt>
      <trkpt lat="44.8804" lon="5.52305">
        <ele>1950.1</ele>
        <time>2022-01-19T10:30:13Z</time>
      </trkpt>
      <trkpt lat="44.8804" lon="5.52305">
        <ele>1950.1</ele>
        <time>2022-01-19T10:30:14Z</time>
      </trkpt>
      <trkpt lat="44.8804" lon="5.52305">
        <ele>1950.1</ele>
        <time>2022-01-19T10:30:15Z</time>
      </trkpt>
      <trkpt lat="44.8804" lon="5.52305">
        <ele>1950.1</ele>
        <time>2022-01-19T10:30:16Z</time>
      </trkpt>
      <trkpt lat="44.8804" lon="5.52305">
        <ele>1950.1</ele>
        <time>2022-01-19T10:30:17Z</time>
      </trkpt>
      <trkpt lat="44.8804" lon="5.52305">
        <ele>1950.1</ele>
        <time>2022-01-19T10:30:18Z</time>
      </trkpt>
      <trkpt lat="44.8804" lon="5.52305">
        <ele>1950.1</ele>
        <time>2022-01-19T10:30:19Z</time>
      </trkpt>
      <trkpt lat="44.8804" lon="5.52305">
        <ele>1950.1</ele>
        <time>2022-01-19T10:30:20Z</time>
      </trkpt>
      <trkpt lat="44.8804" lon="5.52305">
        <ele>1950.1</ele>
        <time>2022-01-19T10:30:21Z</time>
      </trkpt>
      <trkpt lat="44.8804" lon="5.52305">
        <ele>1950.1</ele>
        <time>2022-01-19T10:30:22Z</time>
      </trkpt>
      <trkpt lat="44.8804" lon="5.52305">
        <ele>1950.1</ele>
        <time>2022-01-19T10:30:23Z</time>
      </trkpt>
      <trkpt lat="44.8804" lon="5.52305">
        <ele>1950.1</ele>
        <time>2022-01-19T10:30:24Z</time>
      </trkpt>
      <trkpt lat="44.8804" lon="5.52305">
        <ele>1950.1</ele>
        <time>2022-01-19T10:30:25Z</time>
      </trkpt>
      <trkpt lat="44.8804" lon="5.52305">
        <ele>1950.1</ele>
        <time>2022-01-19T10:30:26Z</time>
      </trkpt>
      <trkpt lat="44.8804" lon="5.52305">
        <ele>1950.1</ele>
        <time>2022-01-19T10:30:27Z</time>
      </trkpt>
      <trkpt lat="44.8804" lon="5.52305">
        <ele>1950.1</ele>
        <time>2022-01-19T10:30:28Z</time>
      </trkpt>
      <trkpt lat="44.8804" lon="5.52305">
        <ele>1950.1</ele>
        <time>2022-01-19T10:30:29Z</time>
      </trkpt>
      <trkpt lat="44.8804" lon="5.52305">
        <ele>1950.1</ele>
        <time>2022-01-19T10:30:30Z</time>
      </trkpt>
      <trkpt lat="44.8804" lon="5.52305">
        <ele>1950.1</ele>
        <time>2022-01-19T10:30:31Z</time>
      </trkpt>
      <trkpt lat="44.8804" lon="5.52305">
        <ele>1950.1</ele>
        <time>2022-01-19T10:30:32Z</time>
      </trkpt>
      <trkpt lat="44.8804" lon="5.52305">
        <ele>1950.1</ele>
        <time>2022-01-19T10:30:33Z</time>
      </trkpt>
      <trkpt lat="44.8804" lon="5.52305">
        <ele>1950.1</ele>
        <time>2022-01-19T10:30:34Z</time>
      </trkpt>
      <trkpt lat="44.8804" lon="5.52305">
        <ele>1950.1</ele>
        <time>2022-01-19T10:30:35Z</time>
      </trkpt>
      <trkpt lat="44.8804" lon="5.52305">
        <ele>1950.1</ele>
        <time>2022-01-19T10:30:36Z</time>
      </trkpt>
      <trkpt lat="44.8804" lon="5.52305">
        <ele>1950.1</ele>
        <time>2022-01-19T10:30:37Z</time>
      </trkpt>
      <trkpt lat="44.8804" lon="5.52305">
        <ele>1950.1</ele>
        <time>2022-01-19T10:30:38Z</time>
      </trkpt>
      <trkpt lat="44.8804" lon="5.52305">
        <ele>1950.1</ele>
        <time>2022-01-19T10:30:39Z</time>
      </trkpt>
      <trkpt lat="44.8804" lon="5.52305">
        <ele>1950.1</ele>
        <time>2022-01-19T10:30:40Z</time>
      </trkpt>
      <trkpt lat="44.8804" lon="5.52305">
        <ele>1950.1</ele>
        <time>2022-01-19T10:30:41Z</time>
      </trkpt>
      <trkpt lat="44.8804" lon="5.52305">
        <ele>1950.1</ele>
        <time>2022-01-19T10:30:42Z</time>
      </trkpt>
      <trkpt lat="44.8804" lon="5.52305">
        <ele>1950.1</ele>
        <time>2022-01-19T10:30:43Z</time>
      </trkpt>
      <trkpt lat="44.8804" lon="5.52305">
        <ele>1950.1</ele>
        <time>2022-01-19T10:30:44Z</time>
      </trkpt>
      <trkpt lat="44.8804" lon="5.52305">
        <ele>1950.1</ele>
        <time>2022-01-19T10:30:45Z</time>
      </trkpt>
      <trkpt lat="44.8804" lon="5.52305">
        <ele>1950.1</ele>
        <time>2022-01-19T10:30:46Z</time>
      </trkpt>
      <trkpt lat="44.8804" lon="5.52305">
        <ele>1950.1</ele>
        <time>2022-01-19T10:30:47Z</time>
      </trkpt>
      <trkpt lat="44.8804" lon="5.52305">
        <ele>1950.1</ele>
        <time>2022-01-19T10:30:48Z</time>
      </trkpt>
      <trkpt lat="44.8804" lon="5.52305">
        <ele>1950.1</ele>
        <time>2022-01-19T10:30:49Z</time>
      </trkpt>
      <trkpt lat="44.8804" lon="5.52305">
        <ele>1950.1</ele>
        <time>2022-01-19T10:30:50Z</time>
      </trkpt>
      <trkpt lat="44.8804" lon="5.52305">
        <ele>1950.1</ele>
        <time>2022-01-19T10:30:51Z</time>
      </trkpt>
      <trkpt lat="44.8804" lon="5.52305">
        <ele>1950.1</ele>
        <time>2022-01-19T10:30:52Z</time>
      </trkpt>
      <trkpt lat="44.8804" lon="5.52305">
        <ele>1950.1</ele>
        <time>2022-01-19T10:30:53Z</time>
      </trkpt>
      <trkpt lat="44.8804" lon="5.52305">
        <ele>1950.1</ele>
        <time>2022-01-19T10:30:54Z</time>
      </trkpt>
      <trkpt lat="44.8804" lon="5.52305">
        <ele>1950.1</ele>
        <time>2022-01-19T10:30:55Z</time>
      </trkpt>
      <trkpt lat="44.8804" lon="5.52305">
        <ele>1950.1</ele>
        <time>2022-01-19T10:30:56Z</time>
      </trkpt>
      <trkpt lat="44.8804" lon="5.52305">
        <ele>1950.1</ele>
        <time>2022-01-19T10:30:57Z</time>
      </trkpt>
      <trkpt lat="44.8804" lon="5.52305">
        <ele>1950.1</ele>
        <time>2022-01-19T10:30:58Z</time>
      </trkpt>
      <trkpt lat="44.8804" lon="5.52305">
        <ele>1950.1</ele>
        <time>2022-01-19T10:30:59Z</time>
      </trkpt>
      <trkpt lat="44.8804" lon="5.52305">
        <ele>1950.1</ele>
        <time>2022-01-19T10:31:00Z</time>
      </trkpt>
      <trkpt lat="44.8804" lon="5.52305">
        <ele>1950.1</ele>
        <time>2022-01-19T10:31:01Z</time>
      </trkpt>
      <trkpt lat="44.8804" lon="5.52305">
        <ele>1950.1</ele>
        <time>2022-01-19T10:31:02Z</time>
      </trkpt>
      <trkpt lat="44.8804" lon="5.52305">
        <ele>1950.1</ele>
        <time>2022-01-19T10:31:03Z</time>
      </trkpt>
      <trkpt lat="44.8804" lon="5.52305">
        <ele>1950.1</ele>
        <time>2022-01-19T10:31:04Z</time>
      </trkpt>
      <trkpt lat="44.8804" lon="5.52305">
        <ele>1950.1</ele>
        <time>2022-01-19T10:31:05Z</time>
      </trkpt>
      <trkpt lat="44.8804" lon="5.52305">
        <ele>1950.1</ele>
        <time>2022-01-19T10:31:06Z</time>
      </trkpt>
      <trkpt lat="44.8804" lon="5.52305">
        <ele>1950.1</ele>
        <time>2022-01-19T10:31:07Z</time>
      </trkpt>
      <trkpt lat="44.8804" lon="5.52305">
        <ele>1950.1</ele>
        <time>2022-01-19T10:31:08Z</time>
      </trkpt>
      <trkpt lat="44.8804" lon="5.52305">
        <ele>1950.1</ele>
        <time>2022-01-19T10:31:09Z</time>
      </trkpt>
      <trkpt lat="44.8804" lon="5.52305">
        <ele>1950.1</ele>
        <time>2022-01-19T10:31:10Z</time>
      </trkpt>
      <trkpt lat="44.8804" lon="5.52303">
        <ele>1950.7</ele>
        <time>2022-01-19T10:31:11Z</time>
      </trkpt>
      <trkpt lat="44.88039" lon="5.52303">
        <ele>1950.7</ele>
        <time>2022-01-19T10:31:12Z</time>
      </trkpt>
      <trkpt lat="44.88039" lon="5.52302">
        <ele>1950.7</ele>
        <time>2022-01-19T10:31:13Z</time>
      </trkpt>
      <trkpt lat="44.88039" lon="5.52302">
        <ele>1950.7</ele>
        <time>2022-01-19T10:31:14Z</time>
      </trkpt>
      <trkpt lat="44.88039" lon="5.52301">
        <ele>1950.7</ele>
        <time>2022-01-19T10:31:15Z</time>
      </trkpt>
      <trkpt lat="44.88038" lon="5.52301">
        <ele>1952.9</ele>
        <time>2022-01-19T10:31:16Z</time>
      </trkpt>
      <trkpt lat="44.88038" lon="5.523">
        <ele>1952.9</ele>
        <time>2022-01-19T10:31:17Z</time>
      </trkpt>
      <trkpt lat="44.88038" lon="5.523">
        <ele>1952.9</ele>
        <time>2022-01-19T10:31:18Z</time>
      </trkpt>
      <trkpt lat="44.88038" lon="5.523">
        <ele>1952.9</ele>
        <time>2022-01-19T10:31:19Z</time>
      </trkpt>
      <trkpt lat="44.88038" lon="5.52299">
        <ele>1952.9</ele>
        <time>2022-01-19T10:31:20Z</time>
      </trkpt>
      <trkpt lat="44.88037" lon="5.52299">
        <ele>1952.9</ele>
        <time>2022-01-19T10:31:21Z</time>
      </trkpt>
      <trkpt lat="44.88037" lon="5.52299">
        <ele>1953.5</ele>
        <time>2022-01-19T10:31:22Z</time>
      </trkpt>
      <trkpt lat="44.88037" lon="5.52299">
        <ele>1953.5</ele>
        <time>2022-01-19T10:31:23Z</time>
      </trkpt>
      <trkpt lat="44.88036" lon="5.52298">
        <ele>1953.5</ele>
        <time>2022-01-19T10:31:24Z</time>
      </trkpt>
      <trkpt lat="44.88036" lon="5.52298">
        <ele>1953.5</ele>
        <time>2022-01-19T10:31:25Z</time>
      </trkpt>
      <trkpt lat="44.88036" lon="5.52298">
        <ele>1953.5</ele>
        <time>2022-01-19T10:31:26Z</time>
      </trkpt>
      <trkpt lat="44.88036" lon="5.52298">
        <ele>1953.5</ele>
        <time>2022-01-19T10:31:27Z</time>
      </trkpt>
      <trkpt lat="44.88036" lon="5.52298">
        <ele>1953.5</ele>
        <time>2022-01-19T10:31:28Z</time>
      </trkpt>
      <trkpt lat="44.88036" lon="5.52298">
        <ele>1953.5</ele>
        <time>2022-01-19T10:31:29Z</time>
      </trkpt>
      <trkpt lat="44.88036" lon="5.52298">
        <ele>1953.5</ele>
        <time>2022-01-19T10:31:30Z</time>
      </trkpt>
      <trkpt lat="44.88036" lon="5.52298">
        <ele>1953.5</ele>
        <time>2022-01-19T10:31:31Z</time>
      </trkpt>
      <trkpt lat="44.88036" lon="5.52298">
        <ele>1953.5</ele>
        <time>2022-01-19T10:31:32Z</time>
      </trkpt>
      <trkpt lat="44.88034" lon="5.52296">
        <ele>1955.9</ele>
        <time>2022-01-19T10:31:33Z</time>
      </trkpt>
      <trkpt lat="44.88033" lon="5.52295">
        <ele>1955.9</ele>
        <time>2022-01-19T10:31:34Z</time>
      </trkpt>
      <trkpt lat="44.88033" lon="5.52295">
        <ele>1955.9</ele>
        <time>2022-01-19T10:31:35Z</time>
      </trkpt>
      <trkpt lat="44.88032" lon="5.52295">
        <ele>1958.6</ele>
        <time>2022-01-19T10:31:36Z</time>
      </trkpt>
      <trkpt lat="44.88032" lon="5.52295">
        <ele>1958.6</ele>
        <time>2022-01-19T10:31:37Z</time>
      </trkpt>
      <trkpt lat="44.88031" lon="5.52295">
        <ele>1959.1</ele>
        <time>2022-01-19T10:31:38Z</time>
      </trkpt>
      <trkpt lat="44.88031" lon="5.52294">
        <ele>1959.1</ele>
        <time>2022-01-19T10:31:39Z</time>
      </trkpt>
      <trkpt lat="44.88031" lon="5.52294">
        <ele>1959.1</ele>
        <time>2022-01-19T10:31:40Z</time>
      </trkpt>
      <trkpt lat="44.88031" lon="5.52294">
        <ele>1959.1</ele>
        <time>2022-01-19T10:31:41Z</time>
      </trkpt>
      <trkpt lat="44.8803" lon="5.52294">
        <ele>1959.1</ele>
        <time>2022-01-19T10:31:42Z</time>
      </trkpt>
      <trkpt lat="44.8803" lon="5.52294">
        <ele>1959.1</ele>
        <time>2022-01-19T10:31:43Z</time>
      </trkpt>
      <trkpt lat="44.8803" lon="5.52293">
        <ele>1959.1</ele>
        <time>2022-01-19T10:31:44Z</time>
      </trkpt>
      <trkpt lat="44.8803" lon="5.52293">
        <ele>1959.1</ele>
        <time>2022-01-19T10:31:45Z</time>
      </trkpt>
      <trkpt lat="44.88029" lon="5.52293">
        <ele>1961.8</ele>
        <time>2022-01-19T10:31:46Z</time>
      </trkpt>
      <trkpt lat="44.88029" lon="5.52293">
        <ele>1961.8</ele>
        <time>2022-01-19T10:31:47Z</time>
      </trkpt>
      <trkpt lat="44.88029" lon="5.52292">
        <ele>1961.8</ele>
        <time>2022-01-19T10:31:48Z</time>
      </trkpt>
      <trkpt lat="44.88029" lon="5.52292">
        <ele>1961.8</ele>
        <time>2022-01-19T10:31:49Z</time>
      </trkpt>
      <trkpt lat="44.88029" lon="5.52292">
        <ele>1961.8</ele>
        <time>2022-01-19T10:31:50Z</time>
      </trkpt>
      <trkpt lat="44.88029" lon="5.52292">
        <ele>1961.8</ele>
        <time>2022-01-19T10:31:51Z</time>
      </trkpt>
      <trkpt lat="44.88029" lon="5.52292">
        <ele>1961.8</ele>
        <time>2022-01-19T10:31:52Z</time>
      </trkpt>
      <trkpt lat="44.88029" lon="5.52292">
        <ele>1961.8</ele>
        <time>2022-01-19T10:31:53Z</time>
      </trkpt>
      <trkpt lat="44.88029" lon="5.52292">
        <ele>1961.8</ele>
        <time>2022-01-19T10:31:54Z</time>
      </trkpt>
      <trkpt lat="44.88029" lon="5.52292">
        <ele>1961.8</ele>
        <time>2022-01-19T10:31:55Z</time>
      </trkpt>
      <trkpt lat="44.88029" lon="5.52292">
        <ele>1961.8</ele>
        <time>2022-01-19T10:31:56Z</time>
      </trkpt>
      <trkpt lat="44.88029" lon="5.52292">
        <ele>1961.8</ele>
        <time>2022-01-19T10:31:57Z</time>
      </trkpt>
      <trkpt lat="44.88029" lon="5.52292">
        <ele>1961.8</ele>
        <time>2022-01-19T10:31:58Z</time>
      </trkpt>
      <trkpt lat="44.88029" lon="5.52292">
        <ele>1961.8</ele>
        <time>2022-01-19T10:31:59Z</time>
      </trkpt>
      <trkpt lat="44.88029" lon="5.52292">
        <ele>1961.8</ele>
        <time>2022-01-19T10:32:00Z</time>
      </trkpt>
      <trkpt lat="44.88029" lon="5.52292">
        <ele>1961.8</ele>
        <time>2022-01-19T10:32:01Z</time>
      </trkpt>
      <trkpt lat="44.88029" lon="5.52292">
        <ele>1961.8</ele>
        <time>2022-01-19T10:32:02Z</time>
      </trkpt>
      <trkpt lat="44.88029" lon="5.52292">
        <ele>1961.8</ele>
        <time>2022-01-19T10:32:03Z</time>
      </trkpt>
      <trkpt lat="44.88029" lon="5.52292">
        <ele>1961.8</ele>
        <time>2022-01-19T10:32:04Z</time>
      </trkpt>
      <trkpt lat="44.88029" lon="5.52292">
        <ele>1961.8</ele>
        <time>2022-01-19T10:32:05Z</time>
      </trkpt>
      <trkpt lat="44.88029" lon="5.52292">
        <ele>1961.8</ele>
        <time>2022-01-19T10:32:06Z</time>
      </trkpt>
      <trkpt lat="44.88029" lon="5.52292">
        <ele>1961.8</ele>
        <time>2022-01-19T10:32:07Z</time>
      </trkpt>
      <trkpt lat="44.88029" lon="5.52292">
        <ele>1961.8</ele>
        <time>2022-01-19T10:32:08Z</time>
      </trkpt>
      <trkpt lat="44.88029" lon="5.52292">
        <ele>1961.8</ele>
        <time>2022-01-19T10:32:09Z</time>
      </trkpt>
      <trkpt lat="44.88029" lon="5.52292">
        <ele>1961.8</ele>
        <time>2022-01-19T10:32:10Z</time>
      </trkpt>
      <trkpt lat="44.88029" lon="5.52292">
        <ele>1961.8</ele>
        <time>2022-01-19T10:32:11Z</time>
      </trkpt>
      <trkpt lat="44.88029" lon="5.52292">
        <ele>1961.8</ele>
        <time>2022-01-19T10:32:12Z</time>
      </trkpt>
      <trkpt lat="44.88022" lon="5.52286">
        <ele>1968.2</ele>
        <time>2022-01-19T10:32:13Z</time>
      </trkpt>
      <trkpt lat="44.88021" lon="5.52284">
        <ele>1968.2</ele>
        <time>2022-01-19T10:32:14Z</time>
      </trkpt>
      <trkpt lat="44.88021" lon="5.52284">
        <ele>1968.2</ele>
        <time>2022-01-19T10:32:15Z</time>
      </trkpt>
      <trkpt lat="44.8802" lon="5.52283">
        <ele>1968.2</ele>
        <time>2022-01-19T10:32:16Z</time>
      </trkpt>
      <trkpt lat="44.8802" lon="5.52283">
        <ele>1970.9</ele>
        <time>2022-01-19T10:32:17Z</time>
      </trkpt>
      <trkpt lat="44.8802" lon="5.52283">
        <ele>1970.9</ele>
        <time>2022-01-19T10:32:18Z</time>
      </trkpt>
      <trkpt lat="44.8802" lon="5.52282">
        <ele>1970.9</ele>
        <time>2022-01-19T10:32:19Z</time>
      </trkpt>
      <trkpt lat="44.88019" lon="5.52282">
        <ele>1971.3</ele>
        <time>2022-01-19T10:32:20Z</time>
      </trkpt>
      <trkpt lat="44.88019" lon="5.52281">
        <ele>1971.3</ele>
        <time>2022-01-19T10:32:21Z</time>
      </trkpt>
      <trkpt lat="44.88018" lon="5.52281">
        <ele>1971.3</ele>
        <time>2022-01-19T10:32:22Z</time>
      </trkpt>
      <trkpt lat="44.88018" lon="5.52281">
        <ele>1971.3</ele>
        <time>2022-01-19T10:32:23Z</time>
      </trkpt>
      <trkpt lat="44.88018" lon="5.52281">
        <ele>1971.3</ele>
        <time>2022-01-19T10:32:24Z</time>
      </trkpt>
      <trkpt lat="44.88017" lon="5.52281">
        <ele>1971.3</ele>
        <time>2022-01-19T10:32:25Z</time>
      </trkpt>
      <trkpt lat="44.88017" lon="5.5228">
        <ele>1973.9</ele>
        <time>2022-01-19T10:32:26Z</time>
      </trkpt>
      <trkpt lat="44.88017" lon="5.5228">
        <ele>1973.9</ele>
        <time>2022-01-19T10:32:27Z</time>
      </trkpt>
      <trkpt lat="44.88017" lon="5.5228">
        <ele>1973.9</ele>
        <time>2022-01-19T10:32:28Z</time>
      </trkpt>
      <trkpt lat="44.88017" lon="5.5228">
        <ele>1973.9</ele>
        <time>2022-01-19T10:32:29Z</time>
      </trkpt>
      <trkpt lat="44.88017" lon="5.5228">
        <ele>1973.9</ele>
        <time>2022-01-19T10:32:30Z</time>
      </trkpt>
      <trkpt lat="44.88017" lon="5.5228">
        <ele>1973.9</ele>
        <time>2022-01-19T10:32:31Z</time>
      </trkpt>
      <trkpt lat="44.88017" lon="5.5228">
        <ele>1973.9</ele>
        <time>2022-01-19T10:32:32Z</time>
      </trkpt>
      <trkpt lat="44.88017" lon="5.5228">
        <ele>1973.9</ele>
        <time>2022-01-19T10:32:33Z</time>
      </trkpt>
      <trkpt lat="44.88017" lon="5.5228">
        <ele>1973.9</ele>
        <time>2022-01-19T10:32:34Z</time>
      </trkpt>
      <trkpt lat="44.88017" lon="5.5228">
        <ele>1973.9</ele>
        <time>2022-01-19T10:32:35Z</time>
      </trkpt>
      <trkpt lat="44.88017" lon="5.5228">
        <ele>1973.9</ele>
        <time>2022-01-19T10:32:36Z</time>
      </trkpt>
      <trkpt lat="44.88017" lon="5.5228">
        <ele>1973.9</ele>
        <time>2022-01-19T10:32:37Z</time>
      </trkpt>
      <trkpt lat="44.88017" lon="5.5228">
        <ele>1973.9</ele>
        <time>2022-01-19T10:32:38Z</time>
      </trkpt>
      <trkpt lat="44.88017" lon="5.5228">
        <ele>1973.9</ele>
        <time>2022-01-19T10:32:39Z</time>
      </trkpt>
      <trkpt lat="44.88017" lon="5.5228">
        <ele>1973.9</ele>
        <time>2022-01-19T10:32:40Z</time>
      </trkpt>
      <trkpt lat="44.88017" lon="5.5228">
        <ele>1973.9</ele>
        <time>2022-01-19T10:32:41Z</time>
      </trkpt>
      <trkpt lat="44.88017" lon="5.5228">
        <ele>1973.9</ele>
        <time>2022-01-19T10:32:42Z</time>
      </trkpt>
      <trkpt lat="44.88017" lon="5.5228">
        <ele>1973.9</ele>
        <time>2022-01-19T10:32:43Z</time>
      </trkpt>
      <trkpt lat="44.88017" lon="5.5228">
        <ele>1973.9</ele>
        <time>2022-01-19T10:32:44Z</time>
      </trkpt>
      <trkpt lat="44.88017" lon="5.5228">
        <ele>1973.9</ele>
        <time>2022-01-19T10:32:45Z</time>
      </trkpt>
      <trkpt lat="44.88017" lon="5.5228">
        <ele>1973.9</ele>
        <time>2022-01-19T10:32:46Z</time>
      </trkpt>
      <trkpt lat="44.88017" lon="5.5228">
        <ele>1973.9</ele>
        <time>2022-01-19T10:32:47Z</time>
      </trkpt>
      <trkpt lat="44.88017" lon="5.5228">
        <ele>1973.9</ele>
        <time>2022-01-19T10:32:48Z</time>
      </trkpt>
      <trkpt lat="44.88017" lon="5.5228">
        <ele>1973.9</ele>
        <time>2022-01-19T10:32:49Z</time>
      </trkpt>
      <trkpt lat="44.88017" lon="5.5228">
        <ele>1973.9</ele>
        <time>2022-01-19T10:32:50Z</time>
      </trkpt>
      <trkpt lat="44.88017" lon="5.5228">
        <ele>1973.9</ele>
        <time>2022-01-19T10:32:51Z</time>
      </trkpt>
      <trkpt lat="44.88017" lon="5.5228">
        <ele>1973.9</ele>
        <time>2022-01-19T10:32:52Z</time>
      </trkpt>
      <trkpt lat="44.88017" lon="5.5228">
        <ele>1973.9</ele>
        <time>2022-01-19T10:32:53Z</time>
      </trkpt>
      <trkpt lat="44.88017" lon="5.5228">
        <ele>1973.9</ele>
        <time>2022-01-19T10:32:54Z</time>
      </trkpt>
      <trkpt lat="44.88017" lon="5.5228">
        <ele>1973.9</ele>
        <time>2022-01-19T10:32:55Z</time>
      </trkpt>
      <trkpt lat="44.88017" lon="5.5228">
        <ele>1973.9</ele>
        <time>2022-01-19T10:32:56Z</time>
      </trkpt>
      <trkpt lat="44.88017" lon="5.5228">
        <ele>1973.9</ele>
        <time>2022-01-19T10:32:57Z</time>
      </trkpt>
      <trkpt lat="44.88017" lon="5.5228">
        <ele>1973.9</ele>
        <time>2022-01-19T10:32:58Z</time>
      </trkpt>
      <trkpt lat="44.88017" lon="5.5228">
        <ele>1973.9</ele>
        <time>2022-01-19T10:32:59Z</time>
      </trkpt>
      <trkpt lat="44.88017" lon="5.5228">
        <ele>1973.9</ele>
        <time>2022-01-19T10:33:00Z</time>
      </trkpt>
      <trkpt lat="44.88017" lon="5.5228">
        <ele>1973.9</ele>
        <time>2022-01-19T10:33:01Z</time>
      </trkpt>
      <trkpt lat="44.88017" lon="5.5228">
        <ele>1973.9</ele>
        <time>2022-01-19T10:33:02Z</time>
      </trkpt>
      <trkpt lat="44.88017" lon="5.5228">
        <ele>1973.9</ele>
        <time>2022-01-19T10:33:03Z</time>
      </trkpt>
      <trkpt lat="44.88017" lon="5.5228">
        <ele>1973.9</ele>
        <time>2022-01-19T10:33:04Z</time>
      </trkpt>
      <trkpt lat="44.88008" lon="5.5228">
        <ele>1979.2</ele>
        <time>2022-01-19T10:33:05Z</time>
      </trkpt>
      <trkpt lat="44.88007" lon="5.5228">
        <ele>1981.8</ele>
        <time>2022-01-19T10:33:06Z</time>
      </trkpt>
      <trkpt lat="44.88007" lon="5.5228">
        <ele>1981.8</ele>
        <time>2022-01-19T10:33:07Z</time>
      </trkpt>
      <trkpt lat="44.88007" lon="5.52279">
        <ele>1981.8</ele>
        <time>2022-01-19T10:33:08Z</time>
      </trkpt>
      <trkpt lat="44.88007" lon="5.52279">
        <ele>1981.8</ele>
        <time>2022-01-19T10:33:09Z</time>
      </trkpt>
      <trkpt lat="44.88007" lon="5.52279">
        <ele>1981.8</ele>
        <time>2022-01-19T10:33:10Z</time>
      </trkpt>
      <trkpt lat="44.88007" lon="5.52279">
        <ele>1981.8</ele>
        <time>2022-01-19T10:33:11Z</time>
      </trkpt>
      <trkpt lat="44.88007" lon="5.52279">
        <ele>1981.8</ele>
        <time>2022-01-19T10:33:12Z</time>
      </trkpt>
      <trkpt lat="44.88007" lon="5.52279">
        <ele>1981.8</ele>
        <time>2022-01-19T10:33:13Z</time>
      </trkpt>
      <trkpt lat="44.88007" lon="5.52279">
        <ele>1981.8</ele>
        <time>2022-01-19T10:33:14Z</time>
      </trkpt>
      <trkpt lat="44.88007" lon="5.52279">
        <ele>1981.8</ele>
        <time>2022-01-19T10:33:15Z</time>
      </trkpt>
      <trkpt lat="44.88007" lon="5.52279">
        <ele>1981.8</ele>
        <time>2022-01-19T10:33:16Z</time>
      </trkpt>
      <trkpt lat="44.88007" lon="5.52279">
        <ele>1981.8</ele>
        <time>2022-01-19T10:33:17Z</time>
      </trkpt>
      <trkpt lat="44.88007" lon="5.52279">
        <ele>1981.8</ele>
        <time>2022-01-19T10:33:18Z</time>
      </trkpt>
      <trkpt lat="44.88007" lon="5.52279">
        <ele>1981.8</ele>
        <time>2022-01-19T10:33:19Z</time>
      </trkpt>
      <trkpt lat="44.88007" lon="5.52279">
        <ele>1981.8</ele>
        <time>2022-01-19T10:33:20Z</time>
      </trkpt>
      <trkpt lat="44.88007" lon="5.52279">
        <ele>1981.8</ele>
        <time>2022-01-19T10:33:21Z</time>
      </trkpt>
      <trkpt lat="44.88007" lon="5.52279">
        <ele>1981.8</ele>
        <time>2022-01-19T10:33:22Z</time>
      </trkpt>
      <trkpt lat="44.88007" lon="5.52279">
        <ele>1981.8</ele>
        <time>2022-01-19T10:33:23Z</time>
      </trkpt>
      <trkpt lat="44.88007" lon="5.52279">
        <ele>1981.8</ele>
        <time>2022-01-19T10:33:24Z</time>
      </trkpt>
      <trkpt lat="44.88007" lon="5.52279">
        <ele>1981.8</ele>
        <time>2022-01-19T10:33:25Z</time>
      </trkpt>
      <trkpt lat="44.88006" lon="5.52277">
        <ele>1982.2</ele>
        <time>2022-01-19T10:33:26Z</time>
      </trkpt>
      <trkpt lat="44.88005" lon="5.52276">
        <ele>1982.2</ele>
        <time>2022-01-19T10:33:27Z</time>
      </trkpt>
      <trkpt lat="44.88005" lon="5.52276">
        <ele>1984.9</ele>
        <time>2022-01-19T10:33:28Z</time>
      </trkpt>
      <trkpt lat="44.88005" lon="5.52275">
        <ele>1984.9</ele>
        <time>2022-01-19T10:33:29Z</time>
      </trkpt>
      <trkpt lat="44.88004" lon="5.52275">
        <ele>1984.9</ele>
        <time>2022-01-19T10:33:30Z</time>
      </trkpt>
      <trkpt lat="44.88004" lon="5.52274">
        <ele>1984.9</ele>
        <time>2022-01-19T10:33:31Z</time>
      </trkpt>
      <trkpt lat="44.88004" lon="5.52274">
        <ele>1984.9</ele>
        <time>2022-01-19T10:33:32Z</time>
      </trkpt>
      <trkpt lat="44.88003" lon="5.52274">
        <ele>1984.9</ele>
        <time>2022-01-19T10:33:33Z</time>
      </trkpt>
      <trkpt lat="44.88003" lon="5.52274">
        <ele>1984.9</ele>
        <time>2022-01-19T10:33:34Z</time>
      </trkpt>
      <trkpt lat="44.88003" lon="5.52273">
        <ele>1985.3</ele>
        <time>2022-01-19T10:33:35Z</time>
      </trkpt>
      <trkpt lat="44.88003" lon="5.52273">
        <ele>1985.3</ele>
        <time>2022-01-19T10:33:36Z</time>
      </trkpt>
      <trkpt lat="44.88003" lon="5.52273">
        <ele>1985.3</ele>
        <time>2022-01-19T10:33:37Z</time>
      </trkpt>
      <trkpt lat="44.88003" lon="5.52273">
        <ele>1985.3</ele>
        <time>2022-01-19T10:33:38Z</time>
      </trkpt>
      <trkpt lat="44.88003" lon="5.52273">
        <ele>1985.3</ele>
        <time>2022-01-19T10:33:39Z</time>
      </trkpt>
      <trkpt lat="44.88003" lon="5.52273">
        <ele>1985.3</ele>
        <time>2022-01-19T10:33:40Z</time>
      </trkpt>
      <trkpt lat="44.88003" lon="5.52273">
        <ele>1985.3</ele>
        <time>2022-01-19T10:33:41Z</time>
      </trkpt>
      <trkpt lat="44.88003" lon="5.52273">
        <ele>1985.3</ele>
        <time>2022-01-19T10:33:42Z</time>
      </trkpt>
      <trkpt lat="44.88003" lon="5.52273">
        <ele>1985.3</ele>
        <time>2022-01-19T10:33:43Z</time>
      </trkpt>
      <trkpt lat="44.88003" lon="5.52273">
        <ele>1985.3</ele>
        <time>2022-01-19T10:33:44Z</time>
      </trkpt>
      <trkpt lat="44.88003" lon="5.52273">
        <ele>1985.3</ele>
        <time>2022-01-19T10:33:45Z</time>
      </trkpt>
      <trkpt lat="44.88003" lon="5.52273">
        <ele>1985.3</ele>
        <time>2022-01-19T10:33:46Z</time>
      </trkpt>
      <trkpt lat="44.88003" lon="5.52273">
        <ele>1985.3</ele>
        <time>2022-01-19T10:33:47Z</time>
      </trkpt>
      <trkpt lat="44.88003" lon="5.52273">
        <ele>1985.3</ele>
        <time>2022-01-19T10:33:48Z</time>
      </trkpt>
      <trkpt lat="44.88" lon="5.52271">
        <ele>1988.2</ele>
        <time>2022-01-19T10:33:49Z</time>
      </trkpt>
      <trkpt lat="44.87999" lon="5.5227">
        <ele>1988.2</ele>
        <time>2022-01-19T10:33:50Z</time>
      </trkpt>
      <trkpt lat="44.87999" lon="5.5227">
        <ele>1988.2</ele>
        <time>2022-01-19T10:33:51Z</time>
      </trkpt>
      <trkpt lat="44.87999" lon="5.52269">
        <ele>1991.1</ele>
        <time>2022-01-19T10:33:52Z</time>
      </trkpt>
      <trkpt lat="44.87998" lon="5.52269">
        <ele>1991.5</ele>
        <time>2022-01-19T10:33:53Z</time>
      </trkpt>
      <trkpt lat="44.87998" lon="5.52269">
        <ele>1991.5</ele>
        <time>2022-01-19T10:33:54Z</time>
      </trkpt>
      <trkpt lat="44.87998" lon="5.52269">
        <ele>1991.5</ele>
        <time>2022-01-19T10:33:55Z</time>
      </trkpt>
      <trkpt lat="44.87997" lon="5.52269">
        <ele>1991.5</ele>
        <time>2022-01-19T10:33:56Z</time>
      </trkpt>
      <trkpt lat="44.87997" lon="5.52268">
        <ele>1991.5</ele>
        <time>2022-01-19T10:33:57Z</time>
      </trkpt>
      <trkpt lat="44.87996" lon="5.52268">
        <ele>1991.5</ele>
        <time>2022-01-19T10:33:58Z</time>
      </trkpt>
      <trkpt lat="44.87996" lon="5.52268">
        <ele>1994.4</ele>
        <time>2022-01-19T10:33:59Z</time>
      </trkpt>
      <trkpt lat="44.87995" lon="5.52268">
        <ele>1994.4</ele>
        <time>2022-01-19T10:34:00Z</time>
      </trkpt>
      <trkpt lat="44.87995" lon="5.52267">
        <ele>1994.4</ele>
        <time>2022-01-19T10:34:01Z</time>
      </trkpt>
      <trkpt lat="44.87995" lon="5.52267">
        <ele>1994.4</ele>
        <time>2022-01-19T10:34:02Z</time>
      </trkpt>
      <trkpt lat="44.87995" lon="5.52267">
        <ele>1994.4</ele>
        <time>2022-01-19T10:34:03Z</time>
      </trkpt>
      <trkpt lat="44.87995" lon="5.52267">
        <ele>1994.4</ele>
        <time>2022-01-19T10:34:04Z</time>
      </trkpt>
      <trkpt lat="44.87995" lon="5.52267">
        <ele>1994.4</ele>
        <time>2022-01-19T10:34:05Z</time>
      </trkpt>
      <trkpt lat="44.87995" lon="5.52267">
        <ele>1994.4</ele>
        <time>2022-01-19T10:34:06Z</time>
      </trkpt>
      <trkpt lat="44.87995" lon="5.52267">
        <ele>1994.4</ele>
        <time>2022-01-19T10:34:07Z</time>
      </trkpt>
      <trkpt lat="44.87995" lon="5.52267">
        <ele>1994.4</ele>
        <time>2022-01-19T10:34:08Z</time>
      </trkpt>
      <trkpt lat="44.87995" lon="5.52267">
        <ele>1994.4</ele>
        <time>2022-01-19T10:34:09Z</time>
      </trkpt>
      <trkpt lat="44.87995" lon="5.52267">
        <ele>1994.4</ele>
        <time>2022-01-19T10:34:10Z</time>
      </trkpt>
      <trkpt lat="44.87995" lon="5.52267">
        <ele>1994.4</ele>
        <time>2022-01-19T10:34:11Z</time>
      </trkpt>
      <trkpt lat="44.87995" lon="5.52267">
        <ele>1994.4</ele>
        <time>2022-01-19T10:34:12Z</time>
      </trkpt>
      <trkpt lat="44.87995" lon="5.52267">
        <ele>1994.4</ele>
        <time>2022-01-19T10:34:13Z</time>
      </trkpt>
      <trkpt lat="44.87995" lon="5.52267">
        <ele>1994.4</ele>
        <time>2022-01-19T10:34:14Z</time>
      </trkpt>
      <trkpt lat="44.87995" lon="5.52267">
        <ele>1994.4</ele>
        <time>2022-01-19T10:34:15Z</time>
      </trkpt>
      <trkpt lat="44.87995" lon="5.52267">
        <ele>1994.4</ele>
        <time>2022-01-19T10:34:16Z</time>
      </trkpt>
      <trkpt lat="44.87995" lon="5.52267">
        <ele>1994.4</ele>
        <time>2022-01-19T10:34:17Z</time>
      </trkpt>
      <trkpt lat="44.87995" lon="5.52267">
        <ele>1994.4</ele>
        <time>2022-01-19T10:34:18Z</time>
      </trkpt>
      <trkpt lat="44.87995" lon="5.52267">
        <ele>1994.4</ele>
        <time>2022-01-19T10:34:19Z</time>
      </trkpt>
      <trkpt lat="44.87995" lon="5.52267">
        <ele>1994.4</ele>
        <time>2022-01-19T10:34:20Z</time>
      </trkpt>
      <trkpt lat="44.87995" lon="5.52267">
        <ele>1994.4</ele>
        <time>2022-01-19T10:34:21Z</time>
      </trkpt>
      <trkpt lat="44.87995" lon="5.52267">
        <ele>1994.4</ele>
        <time>2022-01-19T10:34:22Z</time>
      </trkpt>
      <trkpt lat="44.87995" lon="5.52267">
        <ele>1994.4</ele>
        <time>2022-01-19T10:34:23Z</time>
      </trkpt>
      <trkpt lat="44.87995" lon="5.52267">
        <ele>1994.4</ele>
        <time>2022-01-19T10:34:24Z</time>
      </trkpt>
      <trkpt lat="44.87995" lon="5.52267">
        <ele>1994.4</ele>
        <time>2022-01-19T10:34:25Z</time>
      </trkpt>
      <trkpt lat="44.87987" lon="5.52262">
        <ele>2000.4</ele>
        <time>2022-01-19T10:34:26Z</time>
      </trkpt>
      <trkpt lat="44.87986" lon="5.52262">
        <ele>2003</ele>
        <time>2022-01-19T10:34:27Z</time>
      </trkpt>
      <trkpt lat="44.87986" lon="5.52262">
        <ele>2003</ele>
        <time>2022-01-19T10:34:28Z</time>
      </trkpt>
      <trkpt lat="44.87986" lon="5.52262">
        <ele>2003</ele>
        <time>2022-01-19T10:34:29Z</time>
      </trkpt>
      <trkpt lat="44.87986" lon="5.52262">
        <ele>2003</ele>
        <time>2022-01-19T10:34:30Z</time>
      </trkpt>
      <trkpt lat="44.87986" lon="5.52262">
        <ele>2003</ele>
        <time>2022-01-19T10:34:31Z</time>
      </trkpt>
      <trkpt lat="44.87986" lon="5.52262">
        <ele>2003</ele>
        <time>2022-01-19T10:34:32Z</time>
      </trkpt>
      <trkpt lat="44.87986" lon="5.52262">
        <ele>2003</ele>
        <time>2022-01-19T10:34:33Z</time>
      </trkpt>
      <trkpt lat="44.87986" lon="5.52262">
        <ele>2003</ele>
        <time>2022-01-19T10:34:34Z</time>
      </trkpt>
      <trkpt lat="44.87986" lon="5.52262">
        <ele>2003</ele>
        <time>2022-01-19T10:34:35Z</time>
      </trkpt>
      <trkpt lat="44.87986" lon="5.52262">
        <ele>2003</ele>
        <time>2022-01-19T10:34:36Z</time>
      </trkpt>
      <trkpt lat="44.87986" lon="5.52262">
        <ele>2003</ele>
        <time>2022-01-19T10:34:37Z</time>
      </trkpt>
      <trkpt lat="44.87986" lon="5.52262">
        <ele>2003</ele>
        <time>2022-01-19T10:34:38Z</time>
      </trkpt>
      <trkpt lat="44.87986" lon="5.52262">
        <ele>2003</ele>
        <time>2022-01-19T10:34:39Z</time>
      </trkpt>
      <trkpt lat="44.87986" lon="5.52262">
        <ele>2003</ele>
        <time>2022-01-19T10:34:40Z</time>
      </trkpt>
      <trkpt lat="44.87986" lon="5.52262">
        <ele>2003</ele>
        <time>2022-01-19T10:34:41Z</time>
      </trkpt>
      <trkpt lat="44.87986" lon="5.52262">
        <ele>2003</ele>
        <time>2022-01-19T10:34:42Z</time>
      </trkpt>
      <trkpt lat="44.87986" lon="5.52263">
        <ele>2003</ele>
        <time>2022-01-19T10:34:43Z</time>
      </trkpt>
      <trkpt lat="44.87987" lon="5.52263">
        <ele>2000.4</ele>
        <time>2022-01-19T10:34:44Z</time>
      </trkpt>
      <trkpt lat="44.87987" lon="5.52264">
        <ele>2000.4</ele>
        <time>2022-01-19T10:34:45Z</time>
      </trkpt>
      <trkpt lat="44.87987" lon="5.52264">
        <ele>2000.4</ele>
        <time>2022-01-19T10:34:46Z</time>
      </trkpt>
      <trkpt lat="44.87987" lon="5.52264">
        <ele>2000.4</ele>
        <time>2022-01-19T10:34:47Z</time>
      </trkpt>
      <trkpt lat="44.87987" lon="5.52264">
        <ele>2000.4</ele>
        <time>2022-01-19T10:34:48Z</time>
      </trkpt>
      <trkpt lat="44.87987" lon="5.52264">
        <ele>2000.4</ele>
        <time>2022-01-19T10:34:49Z</time>
      </trkpt>
      <trkpt lat="44.87988" lon="5.52266">
        <ele>2000.1</ele>
        <time>2022-01-19T10:34:50Z</time>
      </trkpt>
      <trkpt lat="44.87987" lon="5.52267">
        <ele>2000.1</ele>
        <time>2022-01-19T10:34:51Z</time>
      </trkpt>
      <trkpt lat="44.87987" lon="5.52267">
        <ele>2000.1</ele>
        <time>2022-01-19T10:34:52Z</time>
      </trkpt>
      <trkpt lat="44.87987" lon="5.52267">
        <ele>2000.1</ele>
        <time>2022-01-19T10:34:53Z</time>
      </trkpt>
      <trkpt lat="44.87987" lon="5.52267">
        <ele>2000.1</ele>
        <time>2022-01-19T10:34:54Z</time>
      </trkpt>
      <trkpt lat="44.87987" lon="5.52267">
        <ele>2000.1</ele>
        <time>2022-01-19T10:34:55Z</time>
      </trkpt>
      <trkpt lat="44.87987" lon="5.52267">
        <ele>2000.1</ele>
        <time>2022-01-19T10:34:56Z</time>
      </trkpt>
      <trkpt lat="44.87987" lon="5.52267">
        <ele>2000.1</ele>
        <time>2022-01-19T10:34:57Z</time>
      </trkpt>
      <trkpt lat="44.87987" lon="5.52267">
        <ele>2000.1</ele>
        <time>2022-01-19T10:34:58Z</time>
      </trkpt>
      <trkpt lat="44.87987" lon="5.52267">
        <ele>2000.1</ele>
        <time>2022-01-19T10:34:59Z</time>
      </trkpt>
      <trkpt lat="44.87987" lon="5.52267">
        <ele>2000.1</ele>
        <time>2022-01-19T10:35:00Z</time>
      </trkpt>
      <trkpt lat="44.87987" lon="5.52267">
        <ele>2000.1</ele>
        <time>2022-01-19T10:35:01Z</time>
      </trkpt>
      <trkpt lat="44.87987" lon="5.52267">
        <ele>2000.1</ele>
        <time>2022-01-19T10:35:02Z</time>
      </trkpt>
      <trkpt lat="44.87987" lon="5.52267">
        <ele>2000.1</ele>
        <time>2022-01-19T10:35:03Z</time>
      </trkpt>
      <trkpt lat="44.87987" lon="5.52267">
        <ele>2000.1</ele>
        <time>2022-01-19T10:35:04Z</time>
      </trkpt>
      <trkpt lat="44.87987" lon="5.52267">
        <ele>2000.1</ele>
        <time>2022-01-19T10:35:05Z</time>
      </trkpt>
      <trkpt lat="44.87987" lon="5.52267">
        <ele>2000.1</ele>
        <time>2022-01-19T10:35:06Z</time>
      </trkpt>
      <trkpt lat="44.87987" lon="5.52267">
        <ele>2000.1</ele>
        <time>2022-01-19T10:35:07Z</time>
      </trkpt>
      <trkpt lat="44.87987" lon="5.52267">
        <ele>2000.1</ele>
        <time>2022-01-19T10:35:08Z</time>
      </trkpt>
      <trkpt lat="44.87987" lon="5.52267">
        <ele>2000.1</ele>
        <time>2022-01-19T10:35:09Z</time>
      </trkpt>
      <trkpt lat="44.87987" lon="5.52267">
        <ele>2000.1</ele>
        <time>2022-01-19T10:35:10Z</time>
      </trkpt>
      <trkpt lat="44.87987" lon="5.52267">
        <ele>2000.1</ele>
        <time>2022-01-19T10:35:11Z</time>
      </trkpt>
      <trkpt lat="44.87987" lon="5.52267">
        <ele>2000.1</ele>
        <time>2022-01-19T10:35:12Z</time>
      </trkpt>
      <trkpt lat="44.87987" lon="5.52267">
        <ele>2000.1</ele>
        <time>2022-01-19T10:35:13Z</time>
      </trkpt>
      <trkpt lat="44.87987" lon="5.52267">
        <ele>2000.1</ele>
        <time>2022-01-19T10:35:14Z</time>
      </trkpt>
      <trkpt lat="44.87984" lon="5.52266">
        <ele>2005.4</ele>
        <time>2022-01-19T10:35:15Z</time>
      </trkpt>
      <trkpt lat="44.87983" lon="5.52266">
        <ele>2005.4</ele>
        <time>2022-01-19T10:35:16Z</time>
      </trkpt>
      <trkpt lat="44.87983" lon="5.52266">
        <ele>2005.4</ele>
        <time>2022-01-19T10:35:17Z</time>
      </trkpt>
      <trkpt lat="44.87983" lon="5.52265">
        <ele>2005.4</ele>
        <time>2022-01-19T10:35:18Z</time>
      </trkpt>
      <trkpt lat="44.87983" lon="5.52265">
        <ele>2005.4</ele>
        <time>2022-01-19T10:35:19Z</time>
      </trkpt>
      <trkpt lat="44.87983" lon="5.52265">
        <ele>2005.4</ele>
        <time>2022-01-19T10:35:20Z</time>
      </trkpt>
      <trkpt lat="44.87983" lon="5.52265">
        <ele>2005.4</ele>
        <time>2022-01-19T10:35:21Z</time>
      </trkpt>
      <trkpt lat="44.87983" lon="5.52265">
        <ele>2005.4</ele>
        <time>2022-01-19T10:35:22Z</time>
      </trkpt>
      <trkpt lat="44.87983" lon="5.52265">
        <ele>2005.4</ele>
        <time>2022-01-19T10:35:23Z</time>
      </trkpt>
      <trkpt lat="44.87983" lon="5.52265">
        <ele>2005.4</ele>
        <time>2022-01-19T10:35:24Z</time>
      </trkpt>
      <trkpt lat="44.87983" lon="5.52265">
        <ele>2005.4</ele>
        <time>2022-01-19T10:35:25Z</time>
      </trkpt>
      <trkpt lat="44.87983" lon="5.52265">
        <ele>2005.4</ele>
        <time>2022-01-19T10:35:26Z</time>
      </trkpt>
      <trkpt lat="44.87983" lon="5.52265">
        <ele>2005.4</ele>
        <time>2022-01-19T10:35:27Z</time>
      </trkpt>
      <trkpt lat="44.87983" lon="5.52265">
        <ele>2005.4</ele>
        <time>2022-01-19T10:35:28Z</time>
      </trkpt>
      <trkpt lat="44.87982" lon="5.52266">
        <ele>2005.4</ele>
        <time>2022-01-19T10:35:29Z</time>
      </trkpt>
      <trkpt lat="44.87982" lon="5.52267">
        <ele>2005.4</ele>
        <time>2022-01-19T10:35:30Z</time>
      </trkpt>
      <trkpt lat="44.87982" lon="5.52267">
        <ele>2005.4</ele>
        <time>2022-01-19T10:35:31Z</time>
      </trkpt>
      <trkpt lat="44.87982" lon="5.52267">
        <ele>2005.4</ele>
        <time>2022-01-19T10:35:32Z</time>
      </trkpt>
      <trkpt lat="44.87982" lon="5.52267">
        <ele>2005.4</ele>
        <time>2022-01-19T10:35:33Z</time>
      </trkpt>
      <trkpt lat="44.87982" lon="5.52267">
        <ele>2005.4</ele>
        <time>2022-01-19T10:35:34Z</time>
      </trkpt>
      <trkpt lat="44.87982" lon="5.52267">
        <ele>2005.4</ele>
        <time>2022-01-19T10:35:35Z</time>
      </trkpt>
      <trkpt lat="44.87982" lon="5.52267">
        <ele>2005.4</ele>
        <time>2022-01-19T10:35:36Z</time>
      </trkpt>
      <trkpt lat="44.87982" lon="5.52267">
        <ele>2005.4</ele>
        <time>2022-01-19T10:35:37Z</time>
      </trkpt>
      <trkpt lat="44.87982" lon="5.52267">
        <ele>2005.4</ele>
        <time>2022-01-19T10:35:38Z</time>
      </trkpt>
      <trkpt lat="44.87982" lon="5.52267">
        <ele>2005.4</ele>
        <time>2022-01-19T10:35:39Z</time>
      </trkpt>
      <trkpt lat="44.87982" lon="5.52267">
        <ele>2005.4</ele>
        <time>2022-01-19T10:35:40Z</time>
      </trkpt>
      <trkpt lat="44.87982" lon="5.52267">
        <ele>2005.4</ele>
        <time>2022-01-19T10:35:41Z</time>
      </trkpt>
      <trkpt lat="44.87982" lon="5.52267">
        <ele>2005.4</ele>
        <time>2022-01-19T10:35:42Z</time>
      </trkpt>
      <trkpt lat="44.87982" lon="5.52267">
        <ele>2005.4</ele>
        <time>2022-01-19T10:35:43Z</time>
      </trkpt>
      <trkpt lat="44.87982" lon="5.52267">
        <ele>2005.4</ele>
        <time>2022-01-19T10:35:44Z</time>
      </trkpt>
      <trkpt lat="44.87982" lon="5.52267">
        <ele>2005.4</ele>
        <time>2022-01-19T10:35:45Z</time>
      </trkpt>
      <trkpt lat="44.87982" lon="5.52267">
        <ele>2005.4</ele>
        <time>2022-01-19T10:35:46Z</time>
      </trkpt>
      <trkpt lat="44.87982" lon="5.52267">
        <ele>2005.4</ele>
        <time>2022-01-19T10:35:47Z</time>
      </trkpt>
      <trkpt lat="44.8798" lon="5.52266">
        <ele>2008.1</ele>
        <time>2022-01-19T10:35:48Z</time>
      </trkpt>
      <trkpt lat="44.87979" lon="5.52265">
        <ele>2008.1</ele>
        <time>2022-01-19T10:35:49Z</time>
      </trkpt>
      <trkpt lat="44.87979" lon="5.52265">
        <ele>2008.1</ele>
        <time>2022-01-19T10:35:50Z</time>
      </trkpt>
      <trkpt lat="44.87979" lon="5.52265">
        <ele>2008.1</ele>
        <time>2022-01-19T10:35:51Z</time>
      </trkpt>
      <trkpt lat="44.87978" lon="5.52265">
        <ele>2008.3</ele>
        <time>2022-01-19T10:35:52Z</time>
      </trkpt>
      <trkpt lat="44.87978" lon="5.52264">
        <ele>2008.3</ele>
        <time>2022-01-19T10:35:53Z</time>
      </trkpt>
      <trkpt lat="44.87978" lon="5.52264">
        <ele>2008.3</ele>
        <time>2022-01-19T10:35:54Z</time>
      </trkpt>
      <trkpt lat="44.87978" lon="5.52264">
        <ele>2008.3</ele>
        <time>2022-01-19T10:35:55Z</time>
      </trkpt>
      <trkpt lat="44.87978" lon="5.52264">
        <ele>2008.3</ele>
        <time>2022-01-19T10:35:56Z</time>
      </trkpt>
      <trkpt lat="44.87978" lon="5.52264">
        <ele>2008.3</ele>
        <time>2022-01-19T10:35:57Z</time>
      </trkpt>
      <trkpt lat="44.87978" lon="5.52264">
        <ele>2008.3</ele>
        <time>2022-01-19T10:35:58Z</time>
      </trkpt>
      <trkpt lat="44.87978" lon="5.52264">
        <ele>2008.3</ele>
        <time>2022-01-19T10:35:59Z</time>
      </trkpt>
      <trkpt lat="44.87978" lon="5.52264">
        <ele>2008.3</ele>
        <time>2022-01-19T10:36:00Z</time>
      </trkpt>
      <trkpt lat="44.87978" lon="5.52264">
        <ele>2008.3</ele>
        <time>2022-01-19T10:36:01Z</time>
      </trkpt>
      <trkpt lat="44.87978" lon="5.52264">
        <ele>2008.3</ele>
        <time>2022-01-19T10:36:02Z</time>
      </trkpt>
      <trkpt lat="44.87978" lon="5.52264">
        <ele>2008.3</ele>
        <time>2022-01-19T10:36:03Z</time>
      </trkpt>
      <trkpt lat="44.87978" lon="5.52264">
        <ele>2008.3</ele>
        <time>2022-01-19T10:36:04Z</time>
      </trkpt>
      <trkpt lat="44.87978" lon="5.52264">
        <ele>2008.3</ele>
        <time>2022-01-19T10:36:05Z</time>
      </trkpt>
      <trkpt lat="44.87978" lon="5.52264">
        <ele>2008.3</ele>
        <time>2022-01-19T10:36:06Z</time>
      </trkpt>
      <trkpt lat="44.87978" lon="5.52264">
        <ele>2008.3</ele>
        <time>2022-01-19T10:36:07Z</time>
      </trkpt>
      <trkpt lat="44.87978" lon="5.52264">
        <ele>2008.3</ele>
        <time>2022-01-19T10:36:08Z</time>
      </trkpt>
      <trkpt lat="44.87978" lon="5.52264">
        <ele>2008.3</ele>
        <time>2022-01-19T10:36:09Z</time>
      </trkpt>
      <trkpt lat="44.87978" lon="5.52264">
        <ele>2008.3</ele>
        <time>2022-01-19T10:36:10Z</time>
      </trkpt>
      <trkpt lat="44.87978" lon="5.52264">
        <ele>2008.3</ele>
        <time>2022-01-19T10:36:11Z</time>
      </trkpt>
      <trkpt lat="44.87978" lon="5.52264">
        <ele>2008.3</ele>
        <time>2022-01-19T10:36:12Z</time>
      </trkpt>
      <trkpt lat="44.87978" lon="5.52264">
        <ele>2008.3</ele>
        <time>2022-01-19T10:36:13Z</time>
      </trkpt>
      <trkpt lat="44.87978" lon="5.52264">
        <ele>2008.3</ele>
        <time>2022-01-19T10:36:14Z</time>
      </trkpt>
      <trkpt lat="44.87978" lon="5.52264">
        <ele>2008.3</ele>
        <time>2022-01-19T10:36:15Z</time>
      </trkpt>
      <trkpt lat="44.87978" lon="5.52264">
        <ele>2008.3</ele>
        <time>2022-01-19T10:36:16Z</time>
      </trkpt>
      <trkpt lat="44.87978" lon="5.52264">
        <ele>2008.3</ele>
        <time>2022-01-19T10:36:17Z</time>
      </trkpt>
      <trkpt lat="44.87978" lon="5.52264">
        <ele>2008.3</ele>
        <time>2022-01-19T10:36:18Z</time>
      </trkpt>
      <trkpt lat="44.87978" lon="5.52264">
        <ele>2008.3</ele>
        <time>2022-01-19T10:36:19Z</time>
      </trkpt>
      <trkpt lat="44.87974" lon="5.52259">
        <ele>2014.2</ele>
        <time>2022-01-19T10:36:20Z</time>
      </trkpt>
      <trkpt lat="44.87972" lon="5.52258">
        <ele>2014.2</ele>
        <time>2022-01-19T10:36:21Z</time>
      </trkpt>
      <trkpt lat="44.87973" lon="5.52257">
        <ele>2014.2</ele>
        <time>2022-01-19T10:36:22Z</time>
      </trkpt>
      <trkpt lat="44.87973" lon="5.52258">
        <ele>2014.2</ele>
        <time>2022-01-19T10:36:23Z</time>
      </trkpt>
      <trkpt lat="44.87972" lon="5.52258">
        <ele>2014.2</ele>
        <time>2022-01-19T10:36:24Z</time>
      </trkpt>
      <trkpt lat="44.87972" lon="5.52258">
        <ele>2014.2</ele>
        <time>2022-01-19T10:36:25Z</time>
      </trkpt>
      <trkpt lat="44.87972" lon="5.52258">
        <ele>2014.2</ele>
        <time>2022-01-19T10:36:26Z</time>
      </trkpt>
      <trkpt lat="44.87972" lon="5.52258">
        <ele>2014.2</ele>
        <time>2022-01-19T10:36:27Z</time>
      </trkpt>
      <trkpt lat="44.87972" lon="5.52258">
        <ele>2014.2</ele>
        <time>2022-01-19T10:36:28Z</time>
      </trkpt>
      <trkpt lat="44.87972" lon="5.52258">
        <ele>2014.2</ele>
        <time>2022-01-19T10:36:29Z</time>
      </trkpt>
      <trkpt lat="44.87972" lon="5.52258">
        <ele>2014.2</ele>
        <time>2022-01-19T10:36:30Z</time>
      </trkpt>
      <trkpt lat="44.87972" lon="5.52258">
        <ele>2014.2</ele>
        <time>2022-01-19T10:36:31Z</time>
      </trkpt>
      <trkpt lat="44.87972" lon="5.52258">
        <ele>2014.2</ele>
        <time>2022-01-19T10:36:32Z</time>
      </trkpt>
      <trkpt lat="44.87972" lon="5.52258">
        <ele>2014.2</ele>
        <time>2022-01-19T10:36:33Z</time>
      </trkpt>
      <trkpt lat="44.87972" lon="5.52258">
        <ele>2014.2</ele>
        <time>2022-01-19T10:36:34Z</time>
      </trkpt>
      <trkpt lat="44.87972" lon="5.52258">
        <ele>2014.2</ele>
        <time>2022-01-19T10:36:35Z</time>
      </trkpt>
      <trkpt lat="44.87972" lon="5.52258">
        <ele>2014.2</ele>
        <time>2022-01-19T10:36:36Z</time>
      </trkpt>
      <trkpt lat="44.87972" lon="5.52258">
        <ele>2014.2</ele>
        <time>2022-01-19T10:36:37Z</time>
      </trkpt>
      <trkpt lat="44.87972" lon="5.52258">
        <ele>2014.2</ele>
        <time>2022-01-19T10:36:38Z</time>
      </trkpt>
      <trkpt lat="44.87972" lon="5.52258">
        <ele>2014.2</ele>
        <time>2022-01-19T10:36:39Z</time>
      </trkpt>
      <trkpt lat="44.87972" lon="5.52258">
        <ele>2014.2</ele>
        <time>2022-01-19T10:36:40Z</time>
      </trkpt>
      <trkpt lat="44.87972" lon="5.52258">
        <ele>2014.2</ele>
        <time>2022-01-19T10:36:41Z</time>
      </trkpt>
      <trkpt lat="44.87972" lon="5.52258">
        <ele>2014.2</ele>
        <time>2022-01-19T10:36:42Z</time>
      </trkpt>
      <trkpt lat="44.87972" lon="5.52258">
        <ele>2014.2</ele>
        <time>2022-01-19T10:36:43Z</time>
      </trkpt>
      <trkpt lat="44.87972" lon="5.52258">
        <ele>2014.2</ele>
        <time>2022-01-19T10:36:44Z</time>
      </trkpt>
      <trkpt lat="44.87972" lon="5.52258">
        <ele>2014.2</ele>
        <time>2022-01-19T10:36:45Z</time>
      </trkpt>
      <trkpt lat="44.87972" lon="5.52258">
        <ele>2014.2</ele>
        <time>2022-01-19T10:36:46Z</time>
      </trkpt>
      <trkpt lat="44.87972" lon="5.52258">
        <ele>2014.2</ele>
        <time>2022-01-19T10:36:47Z</time>
      </trkpt>
      <trkpt lat="44.87972" lon="5.52258">
        <ele>2014.2</ele>
        <time>2022-01-19T10:36:48Z</time>
      </trkpt>
      <trkpt lat="44.87972" lon="5.52258">
        <ele>2014.2</ele>
        <time>2022-01-19T10:36:49Z</time>
      </trkpt>
      <trkpt lat="44.87972" lon="5.52258">
        <ele>2014.2</ele>
        <time>2022-01-19T10:36:50Z</time>
      </trkpt>
      <trkpt lat="44.87972" lon="5.52258">
        <ele>2014.2</ele>
        <time>2022-01-19T10:36:51Z</time>
      </trkpt>
      <trkpt lat="44.87972" lon="5.52258">
        <ele>2014.2</ele>
        <time>2022-01-19T10:36:52Z</time>
      </trkpt>
      <trkpt lat="44.87972" lon="5.52258">
        <ele>2014.2</ele>
        <time>2022-01-19T10:36:53Z</time>
      </trkpt>
      <trkpt lat="44.87972" lon="5.52258">
        <ele>2014.2</ele>
        <time>2022-01-19T10:36:54Z</time>
      </trkpt>
      <trkpt lat="44.87972" lon="5.52258">
        <ele>2014.2</ele>
        <time>2022-01-19T10:36:55Z</time>
      </trkpt>
      <trkpt lat="44.87972" lon="5.52258">
        <ele>2014.2</ele>
        <time>2022-01-19T10:36:56Z</time>
      </trkpt>
      <trkpt lat="44.87972" lon="5.52258">
        <ele>2014.2</ele>
        <time>2022-01-19T10:36:57Z</time>
      </trkpt>
      <trkpt lat="44.87972" lon="5.52258">
        <ele>2014.2</ele>
        <time>2022-01-19T10:36:58Z</time>
      </trkpt>
      <trkpt lat="44.87972" lon="5.52258">
        <ele>2014.2</ele>
        <time>2022-01-19T10:36:59Z</time>
      </trkpt>
      <trkpt lat="44.87972" lon="5.52258">
        <ele>2014.2</ele>
        <time>2022-01-19T10:37:00Z</time>
      </trkpt>
      <trkpt lat="44.87972" lon="5.52258">
        <ele>2014.2</ele>
        <time>2022-01-19T10:37:01Z</time>
      </trkpt>
      <trkpt lat="44.87972" lon="5.52258">
        <ele>2014.2</ele>
        <time>2022-01-19T10:37:02Z</time>
      </trkpt>
      <trkpt lat="44.87972" lon="5.52258">
        <ele>2014.2</ele>
        <time>2022-01-19T10:37:03Z</time>
      </trkpt>
      <trkpt lat="44.87972" lon="5.52258">
        <ele>2014.2</ele>
        <time>2022-01-19T10:37:04Z</time>
      </trkpt>
      <trkpt lat="44.87972" lon="5.52258">
        <ele>2014.2</ele>
        <time>2022-01-19T10:37:05Z</time>
      </trkpt>
      <trkpt lat="44.87972" lon="5.52258">
        <ele>2014.2</ele>
        <time>2022-01-19T10:37:06Z</time>
      </trkpt>
      <trkpt lat="44.87972" lon="5.52258">
        <ele>2014.2</ele>
        <time>2022-01-19T10:37:07Z</time>
      </trkpt>
      <trkpt lat="44.87972" lon="5.52258">
        <ele>2014.2</ele>
        <time>2022-01-19T10:37:08Z</time>
      </trkpt>
      <trkpt lat="44.87972" lon="5.52258">
        <ele>2014.2</ele>
        <time>2022-01-19T10:37:09Z</time>
      </trkpt>
      <trkpt lat="44.87972" lon="5.52258">
        <ele>2014.2</ele>
        <time>2022-01-19T10:37:10Z</time>
      </trkpt>
      <trkpt lat="44.87972" lon="5.52258">
        <ele>2014.2</ele>
        <time>2022-01-19T10:37:11Z</time>
      </trkpt>
      <trkpt lat="44.87972" lon="5.52258">
        <ele>2014.2</ele>
        <time>2022-01-19T10:37:12Z</time>
      </trkpt>
      <trkpt lat="44.87972" lon="5.52258">
        <ele>2014.2</ele>
        <time>2022-01-19T10:37:13Z</time>
      </trkpt>
      <trkpt lat="44.87972" lon="5.52258">
        <ele>2014.2</ele>
        <time>2022-01-19T10:37:14Z</time>
      </trkpt>
      <trkpt lat="44.87972" lon="5.52258">
        <ele>2014.2</ele>
        <time>2022-01-19T10:37:15Z</time>
      </trkpt>
      <trkpt lat="44.87972" lon="5.52258">
        <ele>2014.2</ele>
        <time>2022-01-19T10:37:16Z</time>
      </trkpt>
      <trkpt lat="44.87972" lon="5.52258">
        <ele>2014.2</ele>
        <time>2022-01-19T10:37:17Z</time>
      </trkpt>
      <trkpt lat="44.87972" lon="5.52258">
        <ele>2014.2</ele>
        <time>2022-01-19T10:37:18Z</time>
      </trkpt>
      <trkpt lat="44.87972" lon="5.52258">
        <ele>2014.2</ele>
        <time>2022-01-19T10:37:19Z</time>
      </trkpt>
      <trkpt lat="44.87972" lon="5.52258">
        <ele>2014.2</ele>
        <time>2022-01-19T10:37:20Z</time>
      </trkpt>
      <trkpt lat="44.87972" lon="5.52258">
        <ele>2014.2</ele>
        <time>2022-01-19T10:37:21Z</time>
      </trkpt>
      <trkpt lat="44.87972" lon="5.52258">
        <ele>2014.2</ele>
        <time>2022-01-19T10:37:22Z</time>
      </trkpt>
      <trkpt lat="44.87972" lon="5.52258">
        <ele>2014.2</ele>
        <time>2022-01-19T10:37:23Z</time>
      </trkpt>
      <trkpt lat="44.87972" lon="5.52258">
        <ele>2014.2</ele>
        <time>2022-01-19T10:37:24Z</time>
      </trkpt>
      <trkpt lat="44.87972" lon="5.52258">
        <ele>2014.2</ele>
        <time>2022-01-19T10:37:25Z</time>
      </trkpt>
      <trkpt lat="44.87972" lon="5.52258">
        <ele>2014.2</ele>
        <time>2022-01-19T10:37:26Z</time>
      </trkpt>
      <trkpt lat="44.87972" lon="5.52258">
        <ele>2014.2</ele>
        <time>2022-01-19T10:37:27Z</time>
      </trkpt>
      <trkpt lat="44.87972" lon="5.52258">
        <ele>2014.2</ele>
        <time>2022-01-19T10:37:28Z</time>
      </trkpt>
      <trkpt lat="44.87972" lon="5.52258">
        <ele>2014.2</ele>
        <time>2022-01-19T10:37:29Z</time>
      </trkpt>
      <trkpt lat="44.87972" lon="5.52258">
        <ele>2014.2</ele>
        <time>2022-01-19T10:37:30Z</time>
      </trkpt>
      <trkpt lat="44.87972" lon="5.52258">
        <ele>2014.2</ele>
        <time>2022-01-19T10:37:31Z</time>
      </trkpt>
      <trkpt lat="44.87972" lon="5.52258">
        <ele>2014.2</ele>
        <time>2022-01-19T10:37:32Z</time>
      </trkpt>
      <trkpt lat="44.87972" lon="5.52258">
        <ele>2014.2</ele>
        <time>2022-01-19T10:37:33Z</time>
      </trkpt>
      <trkpt lat="44.87972" lon="5.52258">
        <ele>2014.2</ele>
        <time>2022-01-19T10:37:34Z</time>
      </trkpt>
      <trkpt lat="44.87972" lon="5.52258">
        <ele>2014.2</ele>
        <time>2022-01-19T10:37:35Z</time>
      </trkpt>
      <trkpt lat="44.87972" lon="5.52258">
        <ele>2014.2</ele>
        <time>2022-01-19T10:37:36Z</time>
      </trkpt>
      <trkpt lat="44.87972" lon="5.52258">
        <ele>2014.2</ele>
        <time>2022-01-19T10:37:37Z</time>
      </trkpt>
      <trkpt lat="44.87972" lon="5.52258">
        <ele>2014.2</ele>
        <time>2022-01-19T10:37:38Z</time>
      </trkpt>
      <trkpt lat="44.87972" lon="5.52258">
        <ele>2014.2</ele>
        <time>2022-01-19T10:37:39Z</time>
      </trkpt>
      <trkpt lat="44.87972" lon="5.52258">
        <ele>2014.2</ele>
        <time>2022-01-19T10:37:40Z</time>
      </trkpt>
      <trkpt lat="44.87972" lon="5.52258">
        <ele>2014.2</ele>
        <time>2022-01-19T10:37:41Z</time>
      </trkpt>
      <trkpt lat="44.87972" lon="5.52258">
        <ele>2014.2</ele>
        <time>2022-01-19T10:37:42Z</time>
      </trkpt>
      <trkpt lat="44.87972" lon="5.52258">
        <ele>2014.2</ele>
        <time>2022-01-19T10:37:43Z</time>
      </trkpt>
      <trkpt lat="44.87972" lon="5.52258">
        <ele>2014.2</ele>
        <time>2022-01-19T10:37:44Z</time>
      </trkpt>
      <trkpt lat="44.87972" lon="5.52258">
        <ele>2014.2</ele>
        <time>2022-01-19T10:37:45Z</time>
      </trkpt>
      <trkpt lat="44.87972" lon="5.52258">
        <ele>2014.2</ele>
        <time>2022-01-19T10:37:46Z</time>
      </trkpt>
      <trkpt lat="44.87972" lon="5.52258">
        <ele>2014.2</ele>
        <time>2022-01-19T10:37:47Z</time>
      </trkpt>
      <trkpt lat="44.87972" lon="5.52258">
        <ele>2014.2</ele>
        <time>2022-01-19T10:37:48Z</time>
      </trkpt>
      <trkpt lat="44.87972" lon="5.52258">
        <ele>2014.2</ele>
        <time>2022-01-19T10:37:49Z</time>
      </trkpt>
      <trkpt lat="44.87972" lon="5.52258">
        <ele>2014.2</ele>
        <time>2022-01-19T10:37:50Z</time>
      </trkpt>
      <trkpt lat="44.87967" lon="5.52267">
        <ele>2020.2</ele>
        <time>2022-01-19T10:37:51Z</time>
      </trkpt>
      <trkpt lat="44.87966" lon="5.52268">
        <ele>2020.2</ele>
        <time>2022-01-19T10:37:52Z</time>
      </trkpt>
      <trkpt lat="44.87966" lon="5.52268">
        <ele>2020.2</ele>
        <time>2022-01-19T10:37:53Z</time>
      </trkpt>
      <trkpt lat="44.87966" lon="5.52268">
        <ele>2020.2</ele>
        <time>2022-01-19T10:37:54Z</time>
      </trkpt>
      <trkpt lat="44.87966" lon="5.52268">
        <ele>2020.2</ele>
        <time>2022-01-19T10:37:55Z</time>
      </trkpt>
      <trkpt lat="44.87966" lon="5.52268">
        <ele>2020.2</ele>
        <time>2022-01-19T10:37:56Z</time>
      </trkpt>
      <trkpt lat="44.87966" lon="5.52268">
        <ele>2020.2</ele>
        <time>2022-01-19T10:37:57Z</time>
      </trkpt>
      <trkpt lat="44.87966" lon="5.52268">
        <ele>2020.2</ele>
        <time>2022-01-19T10:37:58Z</time>
      </trkpt>
      <trkpt lat="44.87966" lon="5.52268">
        <ele>2020.2</ele>
        <time>2022-01-19T10:37:59Z</time>
      </trkpt>
      <trkpt lat="44.87966" lon="5.52268">
        <ele>2020.2</ele>
        <time>2022-01-19T10:38:00Z</time>
      </trkpt>
      <trkpt lat="44.87966" lon="5.52268">
        <ele>2020.2</ele>
        <time>2022-01-19T10:38:01Z</time>
      </trkpt>
      <trkpt lat="44.87966" lon="5.52268">
        <ele>2020.2</ele>
        <time>2022-01-19T10:38:02Z</time>
      </trkpt>
      <trkpt lat="44.87966" lon="5.52268">
        <ele>2020.2</ele>
        <time>2022-01-19T10:38:03Z</time>
      </trkpt>
      <trkpt lat="44.87966" lon="5.52268">
        <ele>2020.2</ele>
        <time>2022-01-19T10:38:04Z</time>
      </trkpt>
      <trkpt lat="44.87966" lon="5.52268">
        <ele>2020.2</ele>
        <time>2022-01-19T10:38:05Z</time>
      </trkpt>
      <trkpt lat="44.87966" lon="5.52268">
        <ele>2020.2</ele>
        <time>2022-01-19T10:38:06Z</time>
      </trkpt>
      <trkpt lat="44.87966" lon="5.52268">
        <ele>2020.2</ele>
        <time>2022-01-19T10:38:07Z</time>
      </trkpt>
      <trkpt lat="44.87966" lon="5.52268">
        <ele>2020.2</ele>
        <time>2022-01-19T10:38:08Z</time>
      </trkpt>
      <trkpt lat="44.87966" lon="5.52268">
        <ele>2020.2</ele>
        <time>2022-01-19T10:38:09Z</time>
      </trkpt>
      <trkpt lat="44.87966" lon="5.52268">
        <ele>2020.2</ele>
        <time>2022-01-19T10:38:10Z</time>
      </trkpt>
      <trkpt lat="44.87966" lon="5.52268">
        <ele>2020.2</ele>
        <time>2022-01-19T10:38:11Z</time>
      </trkpt>
      <trkpt lat="44.87966" lon="5.52268">
        <ele>2020.2</ele>
        <time>2022-01-19T10:38:12Z</time>
      </trkpt>
      <trkpt lat="44.87966" lon="5.52268">
        <ele>2020.2</ele>
        <time>2022-01-19T10:38:13Z</time>
      </trkpt>
      <trkpt lat="44.87966" lon="5.52268">
        <ele>2020.2</ele>
        <time>2022-01-19T10:38:14Z</time>
      </trkpt>
      <trkpt lat="44.87966" lon="5.52268">
        <ele>2020.2</ele>
        <time>2022-01-19T10:38:15Z</time>
      </trkpt>
      <trkpt lat="44.87966" lon="5.52268">
        <ele>2020.2</ele>
        <time>2022-01-19T10:38:16Z</time>
      </trkpt>
      <trkpt lat="44.87966" lon="5.52268">
        <ele>2020.2</ele>
        <time>2022-01-19T10:38:17Z</time>
      </trkpt>
      <trkpt lat="44.87966" lon="5.52268">
        <ele>2020.2</ele>
        <time>2022-01-19T10:38:18Z</time>
      </trkpt>
      <trkpt lat="44.87966" lon="5.52268">
        <ele>2020.2</ele>
        <time>2022-01-19T10:38:19Z</time>
      </trkpt>
      <trkpt lat="44.87966" lon="5.52268">
        <ele>2020.2</ele>
        <time>2022-01-19T10:38:20Z</time>
      </trkpt>
      <trkpt lat="44.87966" lon="5.52268">
        <ele>2020.2</ele>
        <time>2022-01-19T10:38:21Z</time>
      </trkpt>
      <trkpt lat="44.87966" lon="5.52268">
        <ele>2020.2</ele>
        <time>2022-01-19T10:38:22Z</time>
      </trkpt>
      <trkpt lat="44.87966" lon="5.52268">
        <ele>2020.2</ele>
        <time>2022-01-19T10:38:23Z</time>
      </trkpt>
      <trkpt lat="44.87966" lon="5.52268">
        <ele>2020.2</ele>
        <time>2022-01-19T10:38:24Z</time>
      </trkpt>
      <trkpt lat="44.87966" lon="5.52268">
        <ele>2020.2</ele>
        <time>2022-01-19T10:38:25Z</time>
      </trkpt>
      <trkpt lat="44.87966" lon="5.52268">
        <ele>2020.2</ele>
        <time>2022-01-19T10:38:26Z</time>
      </trkpt>
      <trkpt lat="44.87966" lon="5.52268">
        <ele>2020.2</ele>
        <time>2022-01-19T10:38:27Z</time>
      </trkpt>
      <trkpt lat="44.87966" lon="5.52268">
        <ele>2020.2</ele>
        <time>2022-01-19T10:38:28Z</time>
      </trkpt>
      <trkpt lat="44.87966" lon="5.52268">
        <ele>2020.2</ele>
        <time>2022-01-19T10:38:29Z</time>
      </trkpt>
      <trkpt lat="44.87966" lon="5.52268">
        <ele>2020.2</ele>
        <time>2022-01-19T10:38:30Z</time>
      </trkpt>
      <trkpt lat="44.87966" lon="5.52268">
        <ele>2020.2</ele>
        <time>2022-01-19T10:38:31Z</time>
      </trkpt>
      <trkpt lat="44.87966" lon="5.52268">
        <ele>2020.2</ele>
        <time>2022-01-19T10:38:32Z</time>
      </trkpt>
      <trkpt lat="44.87966" lon="5.52268">
        <ele>2020.2</ele>
        <time>2022-01-19T10:38:33Z</time>
      </trkpt>
      <trkpt lat="44.87966" lon="5.52268">
        <ele>2020.2</ele>
        <time>2022-01-19T10:38:34Z</time>
      </trkpt>
      <trkpt lat="44.87966" lon="5.52268">
        <ele>2020.2</ele>
        <time>2022-01-19T10:38:35Z</time>
      </trkpt>
      <trkpt lat="44.87966" lon="5.52268">
        <ele>2020.2</ele>
        <time>2022-01-19T10:38:36Z</time>
      </trkpt>
      <trkpt lat="44.87966" lon="5.52268">
        <ele>2020.2</ele>
        <time>2022-01-19T10:38:37Z</time>
      </trkpt>
      <trkpt lat="44.87966" lon="5.52268">
        <ele>2020.2</ele>
        <time>2022-01-19T10:38:38Z</time>
      </trkpt>
      <trkpt lat="44.87966" lon="5.52268">
        <ele>2020.2</ele>
        <time>2022-01-19T10:38:39Z</time>
      </trkpt>
      <trkpt lat="44.87966" lon="5.52268">
        <ele>2020.2</ele>
        <time>2022-01-19T10:38:40Z</time>
      </trkpt>
      <trkpt lat="44.87966" lon="5.52268">
        <ele>2020.2</ele>
        <time>2022-01-19T10:38:41Z</time>
      </trkpt>
      <trkpt lat="44.87966" lon="5.52268">
        <ele>2020.2</ele>
        <time>2022-01-19T10:38:42Z</time>
      </trkpt>
      <trkpt lat="44.87966" lon="5.52268">
        <ele>2020.2</ele>
        <time>2022-01-19T10:38:43Z</time>
      </trkpt>
      <trkpt lat="44.87966" lon="5.52268">
        <ele>2020.2</ele>
        <time>2022-01-19T10:38:44Z</time>
      </trkpt>
      <trkpt lat="44.87966" lon="5.52268">
        <ele>2020.2</ele>
        <time>2022-01-19T10:38:45Z</time>
      </trkpt>
      <trkpt lat="44.87966" lon="5.52268">
        <ele>2020.2</ele>
        <time>2022-01-19T10:38:46Z</time>
      </trkpt>
      <trkpt lat="44.87966" lon="5.52268">
        <ele>2020.2</ele>
        <time>2022-01-19T10:38:47Z</time>
      </trkpt>
      <trkpt lat="44.87966" lon="5.52268">
        <ele>2020.2</ele>
        <time>2022-01-19T10:38:48Z</time>
      </trkpt>
      <trkpt lat="44.87966" lon="5.52268">
        <ele>2020.2</ele>
        <time>2022-01-19T10:38:49Z</time>
      </trkpt>
      <trkpt lat="44.87966" lon="5.52268">
        <ele>2020.2</ele>
        <time>2022-01-19T10:38:50Z</time>
      </trkpt>
      <trkpt lat="44.87966" lon="5.52268">
        <ele>2020.2</ele>
        <time>2022-01-19T10:38:51Z</time>
      </trkpt>
      <trkpt lat="44.87966" lon="5.52268">
        <ele>2020.2</ele>
        <time>2022-01-19T10:38:52Z</time>
      </trkpt>
      <trkpt lat="44.87966" lon="5.52268">
        <ele>2020.2</ele>
        <time>2022-01-19T10:38:53Z</time>
      </trkpt>
      <trkpt lat="44.87966" lon="5.52268">
        <ele>2020.2</ele>
        <time>2022-01-19T10:38:54Z</time>
      </trkpt>
      <trkpt lat="44.87966" lon="5.52268">
        <ele>2020.2</ele>
        <time>2022-01-19T10:38:55Z</time>
      </trkpt>
      <trkpt lat="44.87966" lon="5.52268">
        <ele>2020.2</ele>
        <time>2022-01-19T10:38:56Z</time>
      </trkpt>
      <trkpt lat="44.87966" lon="5.52268">
        <ele>2020.2</ele>
        <time>2022-01-19T10:38:57Z</time>
      </trkpt>
      <trkpt lat="44.87962" lon="5.52271">
        <ele>2025.6</ele>
        <time>2022-01-19T10:38:58Z</time>
      </trkpt>
      <trkpt lat="44.87961" lon="5.52271">
        <ele>2025.6</ele>
        <time>2022-01-19T10:38:59Z</time>
      </trkpt>
      <trkpt lat="44.87961" lon="5.52271">
        <ele>2025.6</ele>
        <time>2022-01-19T10:39:00Z</time>
      </trkpt>
      <trkpt lat="44.87961" lon="5.52271">
        <ele>2025.6</ele>
        <time>2022-01-19T10:39:01Z</time>
      </trkpt>
      <trkpt lat="44.87961" lon="5.52271">
        <ele>2025.6</ele>
        <time>2022-01-19T10:39:02Z</time>
      </trkpt>
      <trkpt lat="44.87961" lon="5.52271">
        <ele>2025.6</ele>
        <time>2022-01-19T10:39:03Z</time>
      </trkpt>
      <trkpt lat="44.87961" lon="5.52271">
        <ele>2025.6</ele>
        <time>2022-01-19T10:39:04Z</time>
      </trkpt>
      <trkpt lat="44.87961" lon="5.52271">
        <ele>2025.6</ele>
        <time>2022-01-19T10:39:05Z</time>
      </trkpt>
      <trkpt lat="44.87961" lon="5.52271">
        <ele>2025.6</ele>
        <time>2022-01-19T10:39:06Z</time>
      </trkpt>
      <trkpt lat="44.87961" lon="5.52271">
        <ele>2025.6</ele>
        <time>2022-01-19T10:39:07Z</time>
      </trkpt>
      <trkpt lat="44.87961" lon="5.52271">
        <ele>2025.6</ele>
        <time>2022-01-19T10:39:08Z</time>
      </trkpt>
      <trkpt lat="44.87961" lon="5.52271">
        <ele>2025.6</ele>
        <time>2022-01-19T10:39:09Z</time>
      </trkpt>
      <trkpt lat="44.87961" lon="5.52271">
        <ele>2025.6</ele>
        <time>2022-01-19T10:39:10Z</time>
      </trkpt>
      <trkpt lat="44.87961" lon="5.52271">
        <ele>2025.6</ele>
        <time>2022-01-19T10:39:11Z</time>
      </trkpt>
      <trkpt lat="44.87961" lon="5.52271">
        <ele>2025.6</ele>
        <time>2022-01-19T10:39:12Z</time>
      </trkpt>
      <trkpt lat="44.87961" lon="5.52271">
        <ele>2025.6</ele>
        <time>2022-01-19T10:39:13Z</time>
      </trkpt>
      <trkpt lat="44.87961" lon="5.52271">
        <ele>2025.6</ele>
        <time>2022-01-19T10:39:14Z</time>
      </trkpt>
      <trkpt lat="44.87961" lon="5.52271">
        <ele>2025.6</ele>
        <time>2022-01-19T10:39:15Z</time>
      </trkpt>
      <trkpt lat="44.87961" lon="5.52271">
        <ele>2025.6</ele>
        <time>2022-01-19T10:39:16Z</time>
      </trkpt>
      <trkpt lat="44.87961" lon="5.52271">
        <ele>2025.6</ele>
        <time>2022-01-19T10:39:17Z</time>
      </trkpt>
      <trkpt lat="44.87961" lon="5.52271">
        <ele>2025.6</ele>
        <time>2022-01-19T10:39:18Z</time>
      </trkpt>
      <trkpt lat="44.87961" lon="5.52271">
        <ele>2025.6</ele>
        <time>2022-01-19T10:39:19Z</time>
      </trkpt>
      <trkpt lat="44.87961" lon="5.52271">
        <ele>2025.6</ele>
        <time>2022-01-19T10:39:20Z</time>
      </trkpt>
      <trkpt lat="44.87961" lon="5.52271">
        <ele>2025.6</ele>
        <time>2022-01-19T10:39:21Z</time>
      </trkpt>
      <trkpt lat="44.87961" lon="5.52271">
        <ele>2025.6</ele>
        <time>2022-01-19T10:39:22Z</time>
      </trkpt>
      <trkpt lat="44.87961" lon="5.52271">
        <ele>2025.6</ele>
        <time>2022-01-19T10:39:23Z</time>
      </trkpt>
      <trkpt lat="44.87961" lon="5.52271">
        <ele>2025.6</ele>
        <time>2022-01-19T10:39:24Z</time>
      </trkpt>
      <trkpt lat="44.87961" lon="5.52271">
        <ele>2025.6</ele>
        <time>2022-01-19T10:39:25Z</time>
      </trkpt>
      <trkpt lat="44.87961" lon="5.52271">
        <ele>2025.6</ele>
        <time>2022-01-19T10:39:26Z</time>
      </trkpt>
      <trkpt lat="44.87957" lon="5.52269">
        <ele>2028.2</ele>
        <time>2022-01-19T10:39:27Z</time>
      </trkpt>
      <trkpt lat="44.87957" lon="5.52269">
        <ele>2028.2</ele>
        <time>2022-01-19T10:39:28Z</time>
      </trkpt>
      <trkpt lat="44.87957" lon="5.52269">
        <ele>2028.2</ele>
        <time>2022-01-19T10:39:29Z</time>
      </trkpt>
      <trkpt lat="44.87957" lon="5.52269">
        <ele>2028.2</ele>
        <time>2022-01-19T10:39:30Z</time>
      </trkpt>
      <trkpt lat="44.87957" lon="5.52269">
        <ele>2028.2</ele>
        <time>2022-01-19T10:39:31Z</time>
      </trkpt>
      <trkpt lat="44.87957" lon="5.52269">
        <ele>2028.2</ele>
        <time>2022-01-19T10:39:32Z</time>
      </trkpt>
      <trkpt lat="44.87957" lon="5.52269">
        <ele>2028.2</ele>
        <time>2022-01-19T10:39:33Z</time>
      </trkpt>
      <trkpt lat="44.87957" lon="5.52269">
        <ele>2028.2</ele>
        <time>2022-01-19T10:39:34Z</time>
      </trkpt>
      <trkpt lat="44.87957" lon="5.52269">
        <ele>2028.2</ele>
        <time>2022-01-19T10:39:35Z</time>
      </trkpt>
      <trkpt lat="44.87955" lon="5.52268">
        <ele>2030.6</ele>
        <time>2022-01-19T10:39:36Z</time>
      </trkpt>
      <trkpt lat="44.87955" lon="5.52268">
        <ele>2030.6</ele>
        <time>2022-01-19T10:39:37Z</time>
      </trkpt>
      <trkpt lat="44.87954" lon="5.52268">
        <ele>2030.6</ele>
        <time>2022-01-19T10:39:38Z</time>
      </trkpt>
      <trkpt lat="44.87954" lon="5.52267">
        <ele>2030.6</ele>
        <time>2022-01-19T10:39:39Z</time>
      </trkpt>
      <trkpt lat="44.87954" lon="5.52267">
        <ele>2030.6</ele>
        <time>2022-01-19T10:39:40Z</time>
      </trkpt>
      <trkpt lat="44.87954" lon="5.52267">
        <ele>2030.6</ele>
        <time>2022-01-19T10:39:41Z</time>
      </trkpt>
      <trkpt lat="44.87954" lon="5.52267">
        <ele>2030.6</ele>
        <time>2022-01-19T10:39:42Z</time>
      </trkpt>
      <trkpt lat="44.87954" lon="5.52267">
        <ele>2030.6</ele>
        <time>2022-01-19T10:39:43Z</time>
      </trkpt>
      <trkpt lat="44.87954" lon="5.52267">
        <ele>2030.6</ele>
        <time>2022-01-19T10:39:44Z</time>
      </trkpt>
      <trkpt lat="44.87953" lon="5.52267">
        <ele>2033.1</ele>
        <time>2022-01-19T10:39:45Z</time>
      </trkpt>
      <trkpt lat="44.87952" lon="5.52266">
        <ele>2033.1</ele>
        <time>2022-01-19T10:39:46Z</time>
      </trkpt>
      <trkpt lat="44.87952" lon="5.52266">
        <ele>2033.1</ele>
        <time>2022-01-19T10:39:47Z</time>
      </trkpt>
      <trkpt lat="44.87952" lon="5.52266">
        <ele>2033.1</ele>
        <time>2022-01-19T10:39:48Z</time>
      </trkpt>
      <trkpt lat="44.87952" lon="5.52266">
        <ele>2033.1</ele>
        <time>2022-01-19T10:39:49Z</time>
      </trkpt>
      <trkpt lat="44.87952" lon="5.52266">
        <ele>2033.1</ele>
        <time>2022-01-19T10:39:50Z</time>
      </trkpt>
      <trkpt lat="44.87952" lon="5.52266">
        <ele>2033.1</ele>
        <time>2022-01-19T10:39:51Z</time>
      </trkpt>
      <trkpt lat="44.87952" lon="5.52266">
        <ele>2033.1</ele>
        <time>2022-01-19T10:39:52Z</time>
      </trkpt>
      <trkpt lat="44.87952" lon="5.52266">
        <ele>2033.1</ele>
        <time>2022-01-19T10:39:53Z</time>
      </trkpt>
      <trkpt lat="44.87952" lon="5.52266">
        <ele>2033.1</ele>
        <time>2022-01-19T10:39:54Z</time>
      </trkpt>
      <trkpt lat="44.87952" lon="5.52266">
        <ele>2033.1</ele>
        <time>2022-01-19T10:39:55Z</time>
      </trkpt>
      <trkpt lat="44.87952" lon="5.52266">
        <ele>2033.1</ele>
        <time>2022-01-19T10:39:56Z</time>
      </trkpt>
      <trkpt lat="44.87952" lon="5.52266">
        <ele>2033.1</ele>
        <time>2022-01-19T10:39:57Z</time>
      </trkpt>
      <trkpt lat="44.87952" lon="5.52266">
        <ele>2033.1</ele>
        <time>2022-01-19T10:39:58Z</time>
      </trkpt>
      <trkpt lat="44.87952" lon="5.52266">
        <ele>2033.1</ele>
        <time>2022-01-19T10:39:59Z</time>
      </trkpt>
      <trkpt lat="44.87952" lon="5.52266">
        <ele>2033.1</ele>
        <time>2022-01-19T10:40:00Z</time>
      </trkpt>
      <trkpt lat="44.87952" lon="5.52266">
        <ele>2033.1</ele>
        <time>2022-01-19T10:40:01Z</time>
      </trkpt>
      <trkpt lat="44.87952" lon="5.52266">
        <ele>2033.1</ele>
        <time>2022-01-19T10:40:02Z</time>
      </trkpt>
      <trkpt lat="44.87952" lon="5.52266">
        <ele>2033.1</ele>
        <time>2022-01-19T10:40:03Z</time>
      </trkpt>
      <trkpt lat="44.87952" lon="5.52266">
        <ele>2033.1</ele>
        <time>2022-01-19T10:40:04Z</time>
      </trkpt>
      <trkpt lat="44.87952" lon="5.52266">
        <ele>2033.1</ele>
        <time>2022-01-19T10:40:05Z</time>
      </trkpt>
      <trkpt lat="44.87952" lon="5.52266">
        <ele>2033.1</ele>
        <time>2022-01-19T10:40:06Z</time>
      </trkpt>
      <trkpt lat="44.87952" lon="5.52266">
        <ele>2033.1</ele>
        <time>2022-01-19T10:40:07Z</time>
      </trkpt>
      <trkpt lat="44.87952" lon="5.52266">
        <ele>2033.1</ele>
        <time>2022-01-19T10:40:08Z</time>
      </trkpt>
      <trkpt lat="44.87952" lon="5.52266">
        <ele>2033.1</ele>
        <time>2022-01-19T10:40:09Z</time>
      </trkpt>
      <trkpt lat="44.87952" lon="5.52266">
        <ele>2033.1</ele>
        <time>2022-01-19T10:40:10Z</time>
      </trkpt>
      <trkpt lat="44.87952" lon="5.52266">
        <ele>2033.1</ele>
        <time>2022-01-19T10:40:11Z</time>
      </trkpt>
      <trkpt lat="44.87952" lon="5.52266">
        <ele>2033.1</ele>
        <time>2022-01-19T10:40:12Z</time>
      </trkpt>
      <trkpt lat="44.87952" lon="5.52266">
        <ele>2033.1</ele>
        <time>2022-01-19T10:40:13Z</time>
      </trkpt>
      <trkpt lat="44.87952" lon="5.52266">
        <ele>2033.1</ele>
        <time>2022-01-19T10:40:14Z</time>
      </trkpt>
      <trkpt lat="44.87952" lon="5.52266">
        <ele>2033.1</ele>
        <time>2022-01-19T10:40:15Z</time>
      </trkpt>
      <trkpt lat="44.87952" lon="5.52266">
        <ele>2033.1</ele>
        <time>2022-01-19T10:40:16Z</time>
      </trkpt>
      <trkpt lat="44.87952" lon="5.52266">
        <ele>2033.1</ele>
        <time>2022-01-19T10:40:17Z</time>
      </trkpt>
      <trkpt lat="44.87952" lon="5.52266">
        <ele>2033.1</ele>
        <time>2022-01-19T10:40:18Z</time>
      </trkpt>
      <trkpt lat="44.87952" lon="5.52266">
        <ele>2033.1</ele>
        <time>2022-01-19T10:40:19Z</time>
      </trkpt>
      <trkpt lat="44.87952" lon="5.52266">
        <ele>2033.1</ele>
        <time>2022-01-19T10:40:20Z</time>
      </trkpt>
      <trkpt lat="44.87952" lon="5.52266">
        <ele>2033.1</ele>
        <time>2022-01-19T10:40:21Z</time>
      </trkpt>
      <trkpt lat="44.87952" lon="5.52266">
        <ele>2033.1</ele>
        <time>2022-01-19T10:40:22Z</time>
      </trkpt>
      <trkpt lat="44.87952" lon="5.52266">
        <ele>2033.1</ele>
        <time>2022-01-19T10:40:23Z</time>
      </trkpt>
      <trkpt lat="44.87952" lon="5.52266">
        <ele>2033.1</ele>
        <time>2022-01-19T10:40:24Z</time>
      </trkpt>
      <trkpt lat="44.87952" lon="5.52266">
        <ele>2033.1</ele>
        <time>2022-01-19T10:40:25Z</time>
      </trkpt>
      <trkpt lat="44.87952" lon="5.52266">
        <ele>2033.1</ele>
        <time>2022-01-19T10:40:26Z</time>
      </trkpt>
      <trkpt lat="44.87952" lon="5.52266">
        <ele>2033.1</ele>
        <time>2022-01-19T10:40:27Z</time>
      </trkpt>
      <trkpt lat="44.87952" lon="5.52266">
        <ele>2033.1</ele>
        <time>2022-01-19T10:40:28Z</time>
      </trkpt>
      <trkpt lat="44.87952" lon="5.52266">
        <ele>2033.1</ele>
        <time>2022-01-19T10:40:29Z</time>
      </trkpt>
      <trkpt lat="44.87952" lon="5.52266">
        <ele>2033.1</ele>
        <time>2022-01-19T10:40:30Z</time>
      </trkpt>
      <trkpt lat="44.87952" lon="5.52266">
        <ele>2033.1</ele>
        <time>2022-01-19T10:40:31Z</time>
      </trkpt>
      <trkpt lat="44.87952" lon="5.52266">
        <ele>2033.1</ele>
        <time>2022-01-19T10:40:32Z</time>
      </trkpt>
      <trkpt lat="44.87952" lon="5.52266">
        <ele>2033.1</ele>
        <time>2022-01-19T10:40:33Z</time>
      </trkpt>
      <trkpt lat="44.87952" lon="5.52266">
        <ele>2033.1</ele>
        <time>2022-01-19T10:40:34Z</time>
      </trkpt>
      <trkpt lat="44.87952" lon="5.52266">
        <ele>2033.1</ele>
        <time>2022-01-19T10:40:35Z</time>
      </trkpt>
      <trkpt lat="44.87952" lon="5.52266">
        <ele>2033.1</ele>
        <time>2022-01-19T10:40:36Z</time>
      </trkpt>
      <trkpt lat="44.87952" lon="5.52266">
        <ele>2033.1</ele>
        <time>2022-01-19T10:40:37Z</time>
      </trkpt>
      <trkpt lat="44.87952" lon="5.52266">
        <ele>2033.1</ele>
        <time>2022-01-19T10:40:38Z</time>
      </trkpt>
      <trkpt lat="44.87952" lon="5.52266">
        <ele>2033.1</ele>
        <time>2022-01-19T10:40:39Z</time>
      </trkpt>
      <trkpt lat="44.87952" lon="5.52266">
        <ele>2033.1</ele>
        <time>2022-01-19T10:40:40Z</time>
      </trkpt>
      <trkpt lat="44.87952" lon="5.52266">
        <ele>2033.1</ele>
        <time>2022-01-19T10:40:41Z</time>
      </trkpt>
      <trkpt lat="44.87952" lon="5.52266">
        <ele>2033.1</ele>
        <time>2022-01-19T10:40:42Z</time>
      </trkpt>
      <trkpt lat="44.87952" lon="5.52266">
        <ele>2033.1</ele>
        <time>2022-01-19T10:40:43Z</time>
      </trkpt>
      <trkpt lat="44.87952" lon="5.52266">
        <ele>2033.1</ele>
        <time>2022-01-19T10:40:44Z</time>
      </trkpt>
      <trkpt lat="44.87952" lon="5.52266">
        <ele>2033.1</ele>
        <time>2022-01-19T10:40:45Z</time>
      </trkpt>
      <trkpt lat="44.87952" lon="5.52266">
        <ele>2033.1</ele>
        <time>2022-01-19T10:40:46Z</time>
      </trkpt>
      <trkpt lat="44.87952" lon="5.52266">
        <ele>2033.1</ele>
        <time>2022-01-19T10:40:47Z</time>
      </trkpt>
      <trkpt lat="44.87952" lon="5.52266">
        <ele>2033.1</ele>
        <time>2022-01-19T10:40:48Z</time>
      </trkpt>
      <trkpt lat="44.87952" lon="5.52266">
        <ele>2033.1</ele>
        <time>2022-01-19T10:40:49Z</time>
      </trkpt>
      <trkpt lat="44.87952" lon="5.52266">
        <ele>2033.1</ele>
        <time>2022-01-19T10:40:50Z</time>
      </trkpt>
      <trkpt lat="44.87952" lon="5.52266">
        <ele>2033.1</ele>
        <time>2022-01-19T10:40:51Z</time>
      </trkpt>
      <trkpt lat="44.87952" lon="5.52266">
        <ele>2033.1</ele>
        <time>2022-01-19T10:40:52Z</time>
      </trkpt>
      <trkpt lat="44.87952" lon="5.52266">
        <ele>2033.1</ele>
        <time>2022-01-19T10:40:53Z</time>
      </trkpt>
      <trkpt lat="44.87952" lon="5.52266">
        <ele>2033.1</ele>
        <time>2022-01-19T10:40:54Z</time>
      </trkpt>
      <trkpt lat="44.87952" lon="5.52266">
        <ele>2033.1</ele>
        <time>2022-01-19T10:40:55Z</time>
      </trkpt>
      <trkpt lat="44.87952" lon="5.52266">
        <ele>2033.1</ele>
        <time>2022-01-19T10:40:56Z</time>
      </trkpt>
      <trkpt lat="44.87952" lon="5.52266">
        <ele>2033.1</ele>
        <time>2022-01-19T10:40:57Z</time>
      </trkpt>
      <trkpt lat="44.87952" lon="5.52266">
        <ele>2033.1</ele>
        <time>2022-01-19T10:40:58Z</time>
      </trkpt>
      <trkpt lat="44.87952" lon="5.52266">
        <ele>2033.1</ele>
        <time>2022-01-19T10:40:59Z</time>
      </trkpt>
      <trkpt lat="44.87952" lon="5.52266">
        <ele>2033.1</ele>
        <time>2022-01-19T10:41:00Z</time>
      </trkpt>
      <trkpt lat="44.87952" lon="5.52266">
        <ele>2033.1</ele>
        <time>2022-01-19T10:41:01Z</time>
      </trkpt>
      <trkpt lat="44.87952" lon="5.52266">
        <ele>2033.1</ele>
        <time>2022-01-19T10:41:02Z</time>
      </trkpt>
      <trkpt lat="44.87952" lon="5.52266">
        <ele>2033.1</ele>
        <time>2022-01-19T10:41:03Z</time>
      </trkpt>
      <trkpt lat="44.87952" lon="5.52266">
        <ele>2033.1</ele>
        <time>2022-01-19T10:41:04Z</time>
      </trkpt>
      <trkpt lat="44.87952" lon="5.52266">
        <ele>2033.1</ele>
        <time>2022-01-19T10:41:05Z</time>
      </trkpt>
      <trkpt lat="44.87952" lon="5.52266">
        <ele>2033.1</ele>
        <time>2022-01-19T10:41:06Z</time>
      </trkpt>
      <trkpt lat="44.87951" lon="5.52267">
        <ele>2033.1</ele>
        <time>2022-01-19T10:41:07Z</time>
      </trkpt>
      <trkpt lat="44.8795" lon="5.52267">
        <ele>2033.1</ele>
        <time>2022-01-19T10:41:08Z</time>
      </trkpt>
      <trkpt lat="44.8795" lon="5.52267">
        <ele>2035.8</ele>
        <time>2022-01-19T10:41:09Z</time>
      </trkpt>
      <trkpt lat="44.8795" lon="5.52267">
        <ele>2035.8</ele>
        <time>2022-01-19T10:41:10Z</time>
      </trkpt>
      <trkpt lat="44.8795" lon="5.52267">
        <ele>2035.8</ele>
        <time>2022-01-19T10:41:11Z</time>
      </trkpt>
      <trkpt lat="44.8795" lon="5.52267">
        <ele>2035.8</ele>
        <time>2022-01-19T10:41:12Z</time>
      </trkpt>
      <trkpt lat="44.8795" lon="5.52267">
        <ele>2035.8</ele>
        <time>2022-01-19T10:41:13Z</time>
      </trkpt>
      <trkpt lat="44.8795" lon="5.52267">
        <ele>2035.8</ele>
        <time>2022-01-19T10:41:14Z</time>
      </trkpt>
      <trkpt lat="44.8795" lon="5.52267">
        <ele>2035.8</ele>
        <time>2022-01-19T10:41:15Z</time>
      </trkpt>
      <trkpt lat="44.8795" lon="5.52267">
        <ele>2035.8</ele>
        <time>2022-01-19T10:41:16Z</time>
      </trkpt>
      <trkpt lat="44.8795" lon="5.52267">
        <ele>2035.8</ele>
        <time>2022-01-19T10:41:17Z</time>
      </trkpt>
      <trkpt lat="44.8795" lon="5.52267">
        <ele>2035.8</ele>
        <time>2022-01-19T10:41:18Z</time>
      </trkpt>
      <trkpt lat="44.8795" lon="5.52267">
        <ele>2035.8</ele>
        <time>2022-01-19T10:41:19Z</time>
      </trkpt>
      <trkpt lat="44.8795" lon="5.52267">
        <ele>2035.8</ele>
        <time>2022-01-19T10:41:20Z</time>
      </trkpt>
      <trkpt lat="44.8795" lon="5.52267">
        <ele>2035.8</ele>
        <time>2022-01-19T10:41:21Z</time>
      </trkpt>
      <trkpt lat="44.8795" lon="5.52267">
        <ele>2035.8</ele>
        <time>2022-01-19T10:41:22Z</time>
      </trkpt>
      <trkpt lat="44.8795" lon="5.52267">
        <ele>2035.8</ele>
        <time>2022-01-19T10:41:23Z</time>
      </trkpt>
      <trkpt lat="44.8795" lon="5.52267">
        <ele>2035.8</ele>
        <time>2022-01-19T10:41:24Z</time>
      </trkpt>
      <trkpt lat="44.8795" lon="5.52267">
        <ele>2035.8</ele>
        <time>2022-01-19T10:41:25Z</time>
      </trkpt>
      <trkpt lat="44.8795" lon="5.52267">
        <ele>2035.8</ele>
        <time>2022-01-19T10:41:26Z</time>
      </trkpt>
      <trkpt lat="44.8795" lon="5.52267">
        <ele>2035.8</ele>
        <time>2022-01-19T10:41:27Z</time>
      </trkpt>
      <trkpt lat="44.8795" lon="5.52267">
        <ele>2035.8</ele>
        <time>2022-01-19T10:41:28Z</time>
      </trkpt>
      <trkpt lat="44.8795" lon="5.52267">
        <ele>2035.8</ele>
        <time>2022-01-19T10:41:29Z</time>
      </trkpt>
      <trkpt lat="44.8795" lon="5.52267">
        <ele>2035.8</ele>
        <time>2022-01-19T10:41:30Z</time>
      </trkpt>
      <trkpt lat="44.8795" lon="5.52267">
        <ele>2035.8</ele>
        <time>2022-01-19T10:41:31Z</time>
      </trkpt>
      <trkpt lat="44.8795" lon="5.52267">
        <ele>2035.8</ele>
        <time>2022-01-19T10:41:32Z</time>
      </trkpt>
      <trkpt lat="44.8795" lon="5.52267">
        <ele>2035.8</ele>
        <time>2022-01-19T10:41:33Z</time>
      </trkpt>
      <trkpt lat="44.8795" lon="5.52267">
        <ele>2035.8</ele>
        <time>2022-01-19T10:41:34Z</time>
      </trkpt>
      <trkpt lat="44.8795" lon="5.52267">
        <ele>2035.8</ele>
        <time>2022-01-19T10:41:35Z</time>
      </trkpt>
      <trkpt lat="44.8795" lon="5.52267">
        <ele>2035.8</ele>
        <time>2022-01-19T10:41:36Z</time>
      </trkpt>
      <trkpt lat="44.8795" lon="5.52267">
        <ele>2035.8</ele>
        <time>2022-01-19T10:41:37Z</time>
      </trkpt>
      <trkpt lat="44.8795" lon="5.52267">
        <ele>2035.8</ele>
        <time>2022-01-19T10:41:38Z</time>
      </trkpt>
      <trkpt lat="44.8795" lon="5.52267">
        <ele>2035.8</ele>
        <time>2022-01-19T10:41:39Z</time>
      </trkpt>
      <trkpt lat="44.8795" lon="5.52267">
        <ele>2035.8</ele>
        <time>2022-01-19T10:41:40Z</time>
      </trkpt>
      <trkpt lat="44.8795" lon="5.52267">
        <ele>2035.8</ele>
        <time>2022-01-19T10:41:41Z</time>
      </trkpt>
      <trkpt lat="44.8795" lon="5.52267">
        <ele>2035.8</ele>
        <time>2022-01-19T10:41:42Z</time>
      </trkpt>
      <trkpt lat="44.8795" lon="5.52267">
        <ele>2035.8</ele>
        <time>2022-01-19T10:41:43Z</time>
      </trkpt>
      <trkpt lat="44.8795" lon="5.52267">
        <ele>2035.8</ele>
        <time>2022-01-19T10:41:44Z</time>
      </trkpt>
      <trkpt lat="44.8795" lon="5.52267">
        <ele>2035.8</ele>
        <time>2022-01-19T10:41:45Z</time>
      </trkpt>
      <trkpt lat="44.8795" lon="5.52267">
        <ele>2035.8</ele>
        <time>2022-01-19T10:41:46Z</time>
      </trkpt>
      <trkpt lat="44.8795" lon="5.52267">
        <ele>2035.8</ele>
        <time>2022-01-19T10:41:47Z</time>
      </trkpt>
      <trkpt lat="44.8795" lon="5.52267">
        <ele>2035.8</ele>
        <time>2022-01-19T10:41:48Z</time>
      </trkpt>
      <trkpt lat="44.8795" lon="5.52267">
        <ele>2035.8</ele>
        <time>2022-01-19T10:41:49Z</time>
      </trkpt>
      <trkpt lat="44.8795" lon="5.52267">
        <ele>2035.8</ele>
        <time>2022-01-19T10:41:50Z</time>
      </trkpt>
      <trkpt lat="44.8795" lon="5.52267">
        <ele>2035.8</ele>
        <time>2022-01-19T10:41:51Z</time>
      </trkpt>
      <trkpt lat="44.8795" lon="5.52267">
        <ele>2035.8</ele>
        <time>2022-01-19T10:41:52Z</time>
      </trkpt>
      <trkpt lat="44.8795" lon="5.52267">
        <ele>2035.8</ele>
        <time>2022-01-19T10:41:53Z</time>
      </trkpt>
      <trkpt lat="44.8795" lon="5.52267">
        <ele>2035.8</ele>
        <time>2022-01-19T10:41:54Z</time>
      </trkpt>
      <trkpt lat="44.8795" lon="5.52267">
        <ele>2035.8</ele>
        <time>2022-01-19T10:41:55Z</time>
      </trkpt>
      <trkpt lat="44.8795" lon="5.52267">
        <ele>2035.8</ele>
        <time>2022-01-19T10:41:56Z</time>
      </trkpt>
      <trkpt lat="44.8795" lon="5.52267">
        <ele>2035.8</ele>
        <time>2022-01-19T10:41:57Z</time>
      </trkpt>
      <trkpt lat="44.8795" lon="5.52267">
        <ele>2035.8</ele>
        <time>2022-01-19T10:41:58Z</time>
      </trkpt>
      <trkpt lat="44.8795" lon="5.52267">
        <ele>2035.8</ele>
        <time>2022-01-19T10:41:59Z</time>
      </trkpt>
      <trkpt lat="44.8795" lon="5.52267">
        <ele>2035.8</ele>
        <time>2022-01-19T10:42:00Z</time>
      </trkpt>
      <trkpt lat="44.8795" lon="5.52267">
        <ele>2035.8</ele>
        <time>2022-01-19T10:42:01Z</time>
      </trkpt>
      <trkpt lat="44.8795" lon="5.52267">
        <ele>2035.8</ele>
        <time>2022-01-19T10:42:02Z</time>
      </trkpt>
      <trkpt lat="44.8795" lon="5.52267">
        <ele>2035.8</ele>
        <time>2022-01-19T10:42:03Z</time>
      </trkpt>
      <trkpt lat="44.8795" lon="5.52267">
        <ele>2035.8</ele>
        <time>2022-01-19T10:42:04Z</time>
      </trkpt>
      <trkpt lat="44.8795" lon="5.52267">
        <ele>2035.8</ele>
        <time>2022-01-19T10:42:05Z</time>
      </trkpt>
      <trkpt lat="44.8795" lon="5.52267">
        <ele>2035.8</ele>
        <time>2022-01-19T10:42:06Z</time>
      </trkpt>
      <trkpt lat="44.8795" lon="5.52267">
        <ele>2035.8</ele>
        <time>2022-01-19T10:42:07Z</time>
      </trkpt>
      <trkpt lat="44.8795" lon="5.52267">
        <ele>2035.8</ele>
        <time>2022-01-19T10:42:08Z</time>
      </trkpt>
      <trkpt lat="44.8795" lon="5.52267">
        <ele>2035.8</ele>
        <time>2022-01-19T10:42:09Z</time>
      </trkpt>
      <trkpt lat="44.8795" lon="5.52267">
        <ele>2035.8</ele>
        <time>2022-01-19T10:42:10Z</time>
      </trkpt>
      <trkpt lat="44.8795" lon="5.52267">
        <ele>2035.8</ele>
        <time>2022-01-19T10:42:11Z</time>
      </trkpt>
      <trkpt lat="44.8795" lon="5.52267">
        <ele>2035.8</ele>
        <time>2022-01-19T10:42:12Z</time>
      </trkpt>
      <trkpt lat="44.8795" lon="5.52267">
        <ele>2035.8</ele>
        <time>2022-01-19T10:42:13Z</time>
      </trkpt>
      <trkpt lat="44.8795" lon="5.52267">
        <ele>2035.8</ele>
        <time>2022-01-19T10:42:14Z</time>
      </trkpt>
      <trkpt lat="44.8795" lon="5.52267">
        <ele>2035.8</ele>
        <time>2022-01-19T10:42:15Z</time>
      </trkpt>
      <trkpt lat="44.8795" lon="5.52267">
        <ele>2035.8</ele>
        <time>2022-01-19T10:42:16Z</time>
      </trkpt>
      <trkpt lat="44.8795" lon="5.52267">
        <ele>2035.8</ele>
        <time>2022-01-19T10:42:17Z</time>
      </trkpt>
      <trkpt lat="44.8795" lon="5.52267">
        <ele>2035.8</ele>
        <time>2022-01-19T10:42:18Z</time>
      </trkpt>
      <trkpt lat="44.8795" lon="5.52267">
        <ele>2035.8</ele>
        <time>2022-01-19T10:42:19Z</time>
      </trkpt>
      <trkpt lat="44.8795" lon="5.52267">
        <ele>2035.8</ele>
        <time>2022-01-19T10:42:20Z</time>
      </trkpt>
      <trkpt lat="44.8795" lon="5.52267">
        <ele>2035.8</ele>
        <time>2022-01-19T10:42:21Z</time>
      </trkpt>
      <trkpt lat="44.8795" lon="5.52267">
        <ele>2035.8</ele>
        <time>2022-01-19T10:42:22Z</time>
      </trkpt>
      <trkpt lat="44.8795" lon="5.52267">
        <ele>2035.8</ele>
        <time>2022-01-19T10:42:23Z</time>
      </trkpt>
      <trkpt lat="44.8795" lon="5.52267">
        <ele>2035.8</ele>
        <time>2022-01-19T10:42:24Z</time>
      </trkpt>
      <trkpt lat="44.8795" lon="5.52267">
        <ele>2035.8</ele>
        <time>2022-01-19T10:42:25Z</time>
      </trkpt>
      <trkpt lat="44.8795" lon="5.52267">
        <ele>2035.8</ele>
        <time>2022-01-19T10:42:26Z</time>
      </trkpt>
      <trkpt lat="44.8795" lon="5.52267">
        <ele>2035.8</ele>
        <time>2022-01-19T10:42:27Z</time>
      </trkpt>
      <trkpt lat="44.8795" lon="5.52267">
        <ele>2035.8</ele>
        <time>2022-01-19T10:42:28Z</time>
      </trkpt>
      <trkpt lat="44.8795" lon="5.52267">
        <ele>2035.8</ele>
        <time>2022-01-19T10:42:29Z</time>
      </trkpt>
      <trkpt lat="44.8795" lon="5.52267">
        <ele>2035.8</ele>
        <time>2022-01-19T10:42:30Z</time>
      </trkpt>
      <trkpt lat="44.8795" lon="5.52267">
        <ele>2035.8</ele>
        <time>2022-01-19T10:42:31Z</time>
      </trkpt>
      <trkpt lat="44.8795" lon="5.52267">
        <ele>2035.8</ele>
        <time>2022-01-19T10:42:32Z</time>
      </trkpt>
      <trkpt lat="44.8795" lon="5.52267">
        <ele>2035.8</ele>
        <time>2022-01-19T10:42:33Z</time>
      </trkpt>
      <trkpt lat="44.8795" lon="5.52267">
        <ele>2035.8</ele>
        <time>2022-01-19T10:42:34Z</time>
      </trkpt>
      <trkpt lat="44.8795" lon="5.52267">
        <ele>2035.8</ele>
        <time>2022-01-19T10:42:35Z</time>
      </trkpt>
      <trkpt lat="44.8795" lon="5.52267">
        <ele>2035.8</ele>
        <time>2022-01-19T10:42:36Z</time>
      </trkpt>
      <trkpt lat="44.8795" lon="5.52267">
        <ele>2035.8</ele>
        <time>2022-01-19T10:42:37Z</time>
      </trkpt>
      <trkpt lat="44.8795" lon="5.52267">
        <ele>2035.8</ele>
        <time>2022-01-19T10:42:38Z</time>
      </trkpt>
      <trkpt lat="44.8795" lon="5.52267">
        <ele>2035.8</ele>
        <time>2022-01-19T10:42:39Z</time>
      </trkpt>
      <trkpt lat="44.8795" lon="5.52267">
        <ele>2035.8</ele>
        <time>2022-01-19T10:42:40Z</time>
      </trkpt>
      <trkpt lat="44.8795" lon="5.52267">
        <ele>2035.8</ele>
        <time>2022-01-19T10:42:41Z</time>
      </trkpt>
      <trkpt lat="44.8795" lon="5.52267">
        <ele>2035.8</ele>
        <time>2022-01-19T10:42:42Z</time>
      </trkpt>
      <trkpt lat="44.8795" lon="5.52267">
        <ele>2035.8</ele>
        <time>2022-01-19T10:42:43Z</time>
      </trkpt>
      <trkpt lat="44.8795" lon="5.52267">
        <ele>2035.8</ele>
        <time>2022-01-19T10:42:44Z</time>
      </trkpt>
      <trkpt lat="44.8795" lon="5.52267">
        <ele>2035.8</ele>
        <time>2022-01-19T10:42:45Z</time>
      </trkpt>
      <trkpt lat="44.8795" lon="5.52267">
        <ele>2035.8</ele>
        <time>2022-01-19T10:42:46Z</time>
      </trkpt>
      <trkpt lat="44.8795" lon="5.52267">
        <ele>2035.8</ele>
        <time>2022-01-19T10:42:47Z</time>
      </trkpt>
      <trkpt lat="44.8795" lon="5.52267">
        <ele>2035.8</ele>
        <time>2022-01-19T10:42:48Z</time>
      </trkpt>
      <trkpt lat="44.8795" lon="5.52267">
        <ele>2035.8</ele>
        <time>2022-01-19T10:42:49Z</time>
      </trkpt>
      <trkpt lat="44.8795" lon="5.52267">
        <ele>2035.8</ele>
        <time>2022-01-19T10:42:50Z</time>
      </trkpt>
      <trkpt lat="44.8795" lon="5.52267">
        <ele>2035.8</ele>
        <time>2022-01-19T10:42:51Z</time>
      </trkpt>
      <trkpt lat="44.8795" lon="5.52267">
        <ele>2035.8</ele>
        <time>2022-01-19T10:42:52Z</time>
      </trkpt>
      <trkpt lat="44.8795" lon="5.52267">
        <ele>2035.8</ele>
        <time>2022-01-19T10:42:53Z</time>
      </trkpt>
      <trkpt lat="44.8795" lon="5.52267">
        <ele>2035.8</ele>
        <time>2022-01-19T10:42:54Z</time>
      </trkpt>
      <trkpt lat="44.8795" lon="5.52267">
        <ele>2035.8</ele>
        <time>2022-01-19T10:42:55Z</time>
      </trkpt>
      <trkpt lat="44.8795" lon="5.52267">
        <ele>2035.8</ele>
        <time>2022-01-19T10:42:56Z</time>
      </trkpt>
      <trkpt lat="44.8795" lon="5.52267">
        <ele>2035.8</ele>
        <time>2022-01-19T10:42:57Z</time>
      </trkpt>
      <trkpt lat="44.8795" lon="5.52267">
        <ele>2035.8</ele>
        <time>2022-01-19T10:42:58Z</time>
      </trkpt>
      <trkpt lat="44.8795" lon="5.52267">
        <ele>2035.8</ele>
        <time>2022-01-19T10:42:59Z</time>
      </trkpt>
      <trkpt lat="44.8795" lon="5.52267">
        <ele>2035.8</ele>
        <time>2022-01-19T10:43:00Z</time>
      </trkpt>
      <trkpt lat="44.8795" lon="5.52267">
        <ele>2035.8</ele>
        <time>2022-01-19T10:43:01Z</time>
      </trkpt>
      <trkpt lat="44.8795" lon="5.52267">
        <ele>2035.8</ele>
        <time>2022-01-19T10:43:02Z</time>
      </trkpt>
      <trkpt lat="44.8795" lon="5.52267">
        <ele>2035.8</ele>
        <time>2022-01-19T10:43:03Z</time>
      </trkpt>
      <trkpt lat="44.8795" lon="5.52267">
        <ele>2035.8</ele>
        <time>2022-01-19T10:43:04Z</time>
      </trkpt>
      <trkpt lat="44.8795" lon="5.52267">
        <ele>2035.8</ele>
        <time>2022-01-19T10:43:05Z</time>
      </trkpt>
      <trkpt lat="44.8795" lon="5.52267">
        <ele>2035.8</ele>
        <time>2022-01-19T10:43:06Z</time>
      </trkpt>
      <trkpt lat="44.8795" lon="5.52267">
        <ele>2035.8</ele>
        <time>2022-01-19T10:43:07Z</time>
      </trkpt>
      <trkpt lat="44.8795" lon="5.52267">
        <ele>2035.8</ele>
        <time>2022-01-19T10:43:08Z</time>
      </trkpt>
      <trkpt lat="44.8795" lon="5.52267">
        <ele>2035.8</ele>
        <time>2022-01-19T10:43:09Z</time>
      </trkpt>
      <trkpt lat="44.8795" lon="5.52267">
        <ele>2035.8</ele>
        <time>2022-01-19T10:43:10Z</time>
      </trkpt>
      <trkpt lat="44.8795" lon="5.52267">
        <ele>2035.8</ele>
        <time>2022-01-19T10:43:11Z</time>
      </trkpt>
      <trkpt lat="44.8795" lon="5.52267">
        <ele>2035.8</ele>
        <time>2022-01-19T10:43:12Z</time>
      </trkpt>
      <trkpt lat="44.8795" lon="5.52267">
        <ele>2035.8</ele>
        <time>2022-01-19T10:43:13Z</time>
      </trkpt>
      <trkpt lat="44.8795" lon="5.52267">
        <ele>2035.8</ele>
        <time>2022-01-19T10:43:14Z</time>
      </trkpt>
      <trkpt lat="44.87942" lon="5.52262">
        <ele>2041.3</ele>
        <time>2022-01-19T10:43:15Z</time>
      </trkpt>
      <trkpt lat="44.87941" lon="5.52262">
        <ele>2043.8</ele>
        <time>2022-01-19T10:43:16Z</time>
      </trkpt>
      <trkpt lat="44.87941" lon="5.52262">
        <ele>2043.8</ele>
        <time>2022-01-19T10:43:17Z</time>
      </trkpt>
      <trkpt lat="44.87941" lon="5.52263">
        <ele>2043.8</ele>
        <time>2022-01-19T10:43:18Z</time>
      </trkpt>
      <trkpt lat="44.87941" lon="5.52263">
        <ele>2043.8</ele>
        <time>2022-01-19T10:43:19Z</time>
      </trkpt>
      <trkpt lat="44.87941" lon="5.52263">
        <ele>2043.8</ele>
        <time>2022-01-19T10:43:20Z</time>
      </trkpt>
      <trkpt lat="44.87941" lon="5.52263">
        <ele>2043.8</ele>
        <time>2022-01-19T10:43:21Z</time>
      </trkpt>
      <trkpt lat="44.87941" lon="5.52263">
        <ele>2043.8</ele>
        <time>2022-01-19T10:43:22Z</time>
      </trkpt>
      <trkpt lat="44.87941" lon="5.52263">
        <ele>2043.8</ele>
        <time>2022-01-19T10:43:23Z</time>
      </trkpt>
      <trkpt lat="44.87941" lon="5.52263">
        <ele>2043.8</ele>
        <time>2022-01-19T10:43:24Z</time>
      </trkpt>
      <trkpt lat="44.87941" lon="5.52263">
        <ele>2043.8</ele>
        <time>2022-01-19T10:43:25Z</time>
      </trkpt>
      <trkpt lat="44.87941" lon="5.52263">
        <ele>2043.8</ele>
        <time>2022-01-19T10:43:26Z</time>
      </trkpt>
      <trkpt lat="44.87941" lon="5.52263">
        <ele>2043.8</ele>
        <time>2022-01-19T10:43:27Z</time>
      </trkpt>
      <trkpt lat="44.87941" lon="5.52263">
        <ele>2043.8</ele>
        <time>2022-01-19T10:43:28Z</time>
      </trkpt>
      <trkpt lat="44.87941" lon="5.52263">
        <ele>2043.8</ele>
        <time>2022-01-19T10:43:29Z</time>
      </trkpt>
      <trkpt lat="44.87941" lon="5.52263">
        <ele>2043.8</ele>
        <time>2022-01-19T10:43:30Z</time>
      </trkpt>
      <trkpt lat="44.8794" lon="5.52258">
        <ele>2043.8</ele>
        <time>2022-01-19T10:43:31Z</time>
      </trkpt>
      <trkpt lat="44.8794" lon="5.52256">
        <ele>2043.7</ele>
        <time>2022-01-19T10:43:32Z</time>
      </trkpt>
      <trkpt lat="44.8794" lon="5.52254">
        <ele>2043.7</ele>
        <time>2022-01-19T10:43:33Z</time>
      </trkpt>
      <trkpt lat="44.87939" lon="5.52254">
        <ele>2043.7</ele>
        <time>2022-01-19T10:43:34Z</time>
      </trkpt>
      <trkpt lat="44.87939" lon="5.52253">
        <ele>2043.7</ele>
        <time>2022-01-19T10:43:35Z</time>
      </trkpt>
      <trkpt lat="44.87938" lon="5.52252">
        <ele>2045.9</ele>
        <time>2022-01-19T10:43:36Z</time>
      </trkpt>
      <trkpt lat="44.87937" lon="5.52251">
        <ele>2045.8</ele>
        <time>2022-01-19T10:43:37Z</time>
      </trkpt>
      <trkpt lat="44.87937" lon="5.52251">
        <ele>2045.8</ele>
        <time>2022-01-19T10:43:38Z</time>
      </trkpt>
      <trkpt lat="44.87937" lon="5.5225">
        <ele>2045.8</ele>
        <time>2022-01-19T10:43:39Z</time>
      </trkpt>
      <trkpt lat="44.87936" lon="5.5225">
        <ele>2045.8</ele>
        <time>2022-01-19T10:43:40Z</time>
      </trkpt>
      <trkpt lat="44.87936" lon="5.52251">
        <ele>2045.8</ele>
        <time>2022-01-19T10:43:41Z</time>
      </trkpt>
      <trkpt lat="44.87935" lon="5.5225">
        <ele>2045.8</ele>
        <time>2022-01-19T10:43:42Z</time>
      </trkpt>
      <trkpt lat="44.87935" lon="5.5225">
        <ele>2045.8</ele>
        <time>2022-01-19T10:43:43Z</time>
      </trkpt>
      <trkpt lat="44.87935" lon="5.5225">
        <ele>2045.8</ele>
        <time>2022-01-19T10:43:44Z</time>
      </trkpt>
      <trkpt lat="44.87934" lon="5.52248">
        <ele>2047.9</ele>
        <time>2022-01-19T10:43:45Z</time>
      </trkpt>
      <trkpt lat="44.87933" lon="5.52247">
        <ele>2047.6</ele>
        <time>2022-01-19T10:43:46Z</time>
      </trkpt>
      <trkpt lat="44.87933" lon="5.52247">
        <ele>2047.6</ele>
        <time>2022-01-19T10:43:47Z</time>
      </trkpt>
      <trkpt lat="44.87933" lon="5.52247">
        <ele>2047.6</ele>
        <time>2022-01-19T10:43:48Z</time>
      </trkpt>
      <trkpt lat="44.87932" lon="5.52246">
        <ele>2047.6</ele>
        <time>2022-01-19T10:43:49Z</time>
      </trkpt>
      <trkpt lat="44.87932" lon="5.52246">
        <ele>2049.6</ele>
        <time>2022-01-19T10:43:50Z</time>
      </trkpt>
      <trkpt lat="44.87932" lon="5.52246">
        <ele>2049.6</ele>
        <time>2022-01-19T10:43:51Z</time>
      </trkpt>
      <trkpt lat="44.87931" lon="5.52245">
        <ele>2049.6</ele>
        <time>2022-01-19T10:43:52Z</time>
      </trkpt>
      <trkpt lat="44.8793" lon="5.52245">
        <ele>2049.6</ele>
        <time>2022-01-19T10:43:53Z</time>
      </trkpt>
      <trkpt lat="44.8793" lon="5.52245">
        <ele>2049.6</ele>
        <time>2022-01-19T10:43:54Z</time>
      </trkpt>
      <trkpt lat="44.87929" lon="5.52244">
        <ele>2049.6</ele>
        <time>2022-01-19T10:43:55Z</time>
      </trkpt>
      <trkpt lat="44.87929" lon="5.52244">
        <ele>2051.6</ele>
        <time>2022-01-19T10:43:56Z</time>
      </trkpt>
      <trkpt lat="44.87928" lon="5.52243">
        <ele>2051.6</ele>
        <time>2022-01-19T10:43:57Z</time>
      </trkpt>
      <trkpt lat="44.87928" lon="5.52243">
        <ele>2051.3</ele>
        <time>2022-01-19T10:43:58Z</time>
      </trkpt>
      <trkpt lat="44.87928" lon="5.52243">
        <ele>2051.3</ele>
        <time>2022-01-19T10:43:59Z</time>
      </trkpt>
      <trkpt lat="44.87928" lon="5.52243">
        <ele>2051.3</ele>
        <time>2022-01-19T10:44:00Z</time>
      </trkpt>
      <trkpt lat="44.87927" lon="5.52243">
        <ele>2051.3</ele>
        <time>2022-01-19T10:44:01Z</time>
      </trkpt>
      <trkpt lat="44.87927" lon="5.52243">
        <ele>2051.6</ele>
        <time>2022-01-19T10:44:02Z</time>
      </trkpt>
      <trkpt lat="44.87926" lon="5.52243">
        <ele>2053.4</ele>
        <time>2022-01-19T10:44:03Z</time>
      </trkpt>
      <trkpt lat="44.87925" lon="5.52243">
        <ele>2053.4</ele>
        <time>2022-01-19T10:44:04Z</time>
      </trkpt>
      <trkpt lat="44.87925" lon="5.52243">
        <ele>2053.4</ele>
        <time>2022-01-19T10:44:05Z</time>
      </trkpt>
      <trkpt lat="44.87924" lon="5.52243">
        <ele>2053.4</ele>
        <time>2022-01-19T10:44:06Z</time>
      </trkpt>
      <trkpt lat="44.87923" lon="5.52244">
        <ele>2056.8</ele>
        <time>2022-01-19T10:44:07Z</time>
      </trkpt>
      <trkpt lat="44.87922" lon="5.52244">
        <ele>2056.8</ele>
        <time>2022-01-19T10:44:08Z</time>
      </trkpt>
      <trkpt lat="44.87922" lon="5.52244">
        <ele>2056.8</ele>
        <time>2022-01-19T10:44:09Z</time>
      </trkpt>
      <trkpt lat="44.87921" lon="5.52244">
        <ele>2056.8</ele>
        <time>2022-01-19T10:44:10Z</time>
      </trkpt>
      <trkpt lat="44.87921" lon="5.52244">
        <ele>2056.8</ele>
        <time>2022-01-19T10:44:11Z</time>
      </trkpt>
      <trkpt lat="44.8792" lon="5.52244">
        <ele>2056.8</ele>
        <time>2022-01-19T10:44:12Z</time>
      </trkpt>
      <trkpt lat="44.8792" lon="5.52244">
        <ele>2056.8</ele>
        <time>2022-01-19T10:44:13Z</time>
      </trkpt>
      <trkpt lat="44.8792" lon="5.52244">
        <ele>2056.8</ele>
        <time>2022-01-19T10:44:14Z</time>
      </trkpt>
      <trkpt lat="44.8792" lon="5.52244">
        <ele>2056.8</ele>
        <time>2022-01-19T10:44:15Z</time>
      </trkpt>
      <trkpt lat="44.8792" lon="5.52244">
        <ele>2056.8</ele>
        <time>2022-01-19T10:44:16Z</time>
      </trkpt>
      <trkpt lat="44.8792" lon="5.52244">
        <ele>2056.8</ele>
        <time>2022-01-19T10:44:17Z</time>
      </trkpt>
      <trkpt lat="44.8792" lon="5.52244">
        <ele>2056.8</ele>
        <time>2022-01-19T10:44:18Z</time>
      </trkpt>
      <trkpt lat="44.8792" lon="5.52244">
        <ele>2056.8</ele>
        <time>2022-01-19T10:44:19Z</time>
      </trkpt>
      <trkpt lat="44.8792" lon="5.52244">
        <ele>2056.8</ele>
        <time>2022-01-19T10:44:20Z</time>
      </trkpt>
      <trkpt lat="44.8792" lon="5.52244">
        <ele>2056.8</ele>
        <time>2022-01-19T10:44:21Z</time>
      </trkpt>
      <trkpt lat="44.8792" lon="5.52244">
        <ele>2056.8</ele>
        <time>2022-01-19T10:44:22Z</time>
      </trkpt>
      <trkpt lat="44.8792" lon="5.52244">
        <ele>2056.8</ele>
        <time>2022-01-19T10:44:23Z</time>
      </trkpt>
      <trkpt lat="44.8792" lon="5.52244">
        <ele>2056.8</ele>
        <time>2022-01-19T10:44:24Z</time>
      </trkpt>
      <trkpt lat="44.8792" lon="5.52244">
        <ele>2056.8</ele>
        <time>2022-01-19T10:44:25Z</time>
      </trkpt>
      <trkpt lat="44.8792" lon="5.52244">
        <ele>2056.8</ele>
        <time>2022-01-19T10:44:26Z</time>
      </trkpt>
      <trkpt lat="44.8792" lon="5.52244">
        <ele>2056.8</ele>
        <time>2022-01-19T10:44:27Z</time>
      </trkpt>
      <trkpt lat="44.8792" lon="5.52244">
        <ele>2056.8</ele>
        <time>2022-01-19T10:44:28Z</time>
      </trkpt>
      <trkpt lat="44.8792" lon="5.52244">
        <ele>2056.8</ele>
        <time>2022-01-19T10:44:29Z</time>
      </trkpt>
      <trkpt lat="44.8792" lon="5.52244">
        <ele>2056.8</ele>
        <time>2022-01-19T10:44:30Z</time>
      </trkpt>
      <trkpt lat="44.8792" lon="5.52244">
        <ele>2056.8</ele>
        <time>2022-01-19T10:44:31Z</time>
      </trkpt>
      <trkpt lat="44.8792" lon="5.52244">
        <ele>2056.8</ele>
        <time>2022-01-19T10:44:32Z</time>
      </trkpt>
      <trkpt lat="44.8792" lon="5.52244">
        <ele>2056.8</ele>
        <time>2022-01-19T10:44:33Z</time>
      </trkpt>
      <trkpt lat="44.8792" lon="5.52244">
        <ele>2056.8</ele>
        <time>2022-01-19T10:44:34Z</time>
      </trkpt>
      <trkpt lat="44.8792" lon="5.52244">
        <ele>2056.8</ele>
        <time>2022-01-19T10:44:35Z</time>
      </trkpt>
      <trkpt lat="44.8792" lon="5.52244">
        <ele>2056.8</ele>
        <time>2022-01-19T10:44:36Z</time>
      </trkpt>
      <trkpt lat="44.8792" lon="5.52244">
        <ele>2056.8</ele>
        <time>2022-01-19T10:44:37Z</time>
      </trkpt>
      <trkpt lat="44.8792" lon="5.52244">
        <ele>2056.8</ele>
        <time>2022-01-19T10:44:38Z</time>
      </trkpt>
      <trkpt lat="44.8792" lon="5.52244">
        <ele>2056.8</ele>
        <time>2022-01-19T10:44:39Z</time>
      </trkpt>
      <trkpt lat="44.8792" lon="5.52244">
        <ele>2056.8</ele>
        <time>2022-01-19T10:44:40Z</time>
      </trkpt>
      <trkpt lat="44.8792" lon="5.52244">
        <ele>2056.8</ele>
        <time>2022-01-19T10:44:41Z</time>
      </trkpt>
      <trkpt lat="44.8792" lon="5.52244">
        <ele>2056.8</ele>
        <time>2022-01-19T10:44:42Z</time>
      </trkpt>
      <trkpt lat="44.8792" lon="5.52244">
        <ele>2056.8</ele>
        <time>2022-01-19T10:44:43Z</time>
      </trkpt>
      <trkpt lat="44.8792" lon="5.52244">
        <ele>2056.8</ele>
        <time>2022-01-19T10:44:44Z</time>
      </trkpt>
      <trkpt lat="44.8792" lon="5.52244">
        <ele>2056.8</ele>
        <time>2022-01-19T10:44:45Z</time>
      </trkpt>
      <trkpt lat="44.8792" lon="5.52244">
        <ele>2056.8</ele>
        <time>2022-01-19T10:44:46Z</time>
      </trkpt>
      <trkpt lat="44.8792" lon="5.52244">
        <ele>2056.8</ele>
        <time>2022-01-19T10:44:47Z</time>
      </trkpt>
      <trkpt lat="44.8792" lon="5.52244">
        <ele>2056.8</ele>
        <time>2022-01-19T10:44:48Z</time>
      </trkpt>
      <trkpt lat="44.8792" lon="5.52244">
        <ele>2056.8</ele>
        <time>2022-01-19T10:44:49Z</time>
      </trkpt>
      <trkpt lat="44.87913" lon="5.52243">
        <ele>2062.4</ele>
        <time>2022-01-19T10:44:50Z</time>
      </trkpt>
      <trkpt lat="44.87912" lon="5.52242">
        <ele>2062.4</ele>
        <time>2022-01-19T10:44:51Z</time>
      </trkpt>
      <trkpt lat="44.87912" lon="5.52242">
        <ele>2062.4</ele>
        <time>2022-01-19T10:44:52Z</time>
      </trkpt>
      <trkpt lat="44.87912" lon="5.52241">
        <ele>2062.4</ele>
        <time>2022-01-19T10:44:53Z</time>
      </trkpt>
      <trkpt lat="44.87912" lon="5.52241">
        <ele>2062.4</ele>
        <time>2022-01-19T10:44:54Z</time>
      </trkpt>
      <trkpt lat="44.87912" lon="5.52241">
        <ele>2062.4</ele>
        <time>2022-01-19T10:44:55Z</time>
      </trkpt>
      <trkpt lat="44.87912" lon="5.52241">
        <ele>2062.4</ele>
        <time>2022-01-19T10:44:56Z</time>
      </trkpt>
      <trkpt lat="44.87911" lon="5.52239">
        <ele>2063.9</ele>
        <time>2022-01-19T10:44:57Z</time>
      </trkpt>
      <trkpt lat="44.87911" lon="5.52238">
        <ele>2063.9</ele>
        <time>2022-01-19T10:44:58Z</time>
      </trkpt>
      <trkpt lat="44.87911" lon="5.52238">
        <ele>2063.9</ele>
        <time>2022-01-19T10:44:59Z</time>
      </trkpt>
      <trkpt lat="44.87911" lon="5.52237">
        <ele>2063.9</ele>
        <time>2022-01-19T10:45:00Z</time>
      </trkpt>
      <trkpt lat="44.87911" lon="5.52237">
        <ele>2063.9</ele>
        <time>2022-01-19T10:45:01Z</time>
      </trkpt>
      <trkpt lat="44.87911" lon="5.52237">
        <ele>2063.9</ele>
        <time>2022-01-19T10:45:02Z</time>
      </trkpt>
      <trkpt lat="44.87911" lon="5.52237">
        <ele>2063.9</ele>
        <time>2022-01-19T10:45:03Z</time>
      </trkpt>
      <trkpt lat="44.87911" lon="5.52237">
        <ele>2063.9</ele>
        <time>2022-01-19T10:45:04Z</time>
      </trkpt>
      <trkpt lat="44.87911" lon="5.52237">
        <ele>2063.9</ele>
        <time>2022-01-19T10:45:05Z</time>
      </trkpt>
      <trkpt lat="44.87911" lon="5.52237">
        <ele>2063.9</ele>
        <time>2022-01-19T10:45:06Z</time>
      </trkpt>
      <trkpt lat="44.87911" lon="5.52237">
        <ele>2063.9</ele>
        <time>2022-01-19T10:45:07Z</time>
      </trkpt>
      <trkpt lat="44.87911" lon="5.52237">
        <ele>2063.9</ele>
        <time>2022-01-19T10:45:08Z</time>
      </trkpt>
      <trkpt lat="44.87911" lon="5.52237">
        <ele>2063.9</ele>
        <time>2022-01-19T10:45:09Z</time>
      </trkpt>
      <trkpt lat="44.87911" lon="5.52237">
        <ele>2063.9</ele>
        <time>2022-01-19T10:45:10Z</time>
      </trkpt>
      <trkpt lat="44.87911" lon="5.52237">
        <ele>2063.9</ele>
        <time>2022-01-19T10:45:11Z</time>
      </trkpt>
      <trkpt lat="44.87911" lon="5.52237">
        <ele>2063.9</ele>
        <time>2022-01-19T10:45:12Z</time>
      </trkpt>
      <trkpt lat="44.87911" lon="5.52237">
        <ele>2063.9</ele>
        <time>2022-01-19T10:45:13Z</time>
      </trkpt>
      <trkpt lat="44.87911" lon="5.52237">
        <ele>2063.9</ele>
        <time>2022-01-19T10:45:14Z</time>
      </trkpt>
      <trkpt lat="44.87911" lon="5.52237">
        <ele>2063.9</ele>
        <time>2022-01-19T10:45:15Z</time>
      </trkpt>
      <trkpt lat="44.87911" lon="5.52237">
        <ele>2063.9</ele>
        <time>2022-01-19T10:45:16Z</time>
      </trkpt>
      <trkpt lat="44.87911" lon="5.52237">
        <ele>2063.9</ele>
        <time>2022-01-19T10:45:17Z</time>
      </trkpt>
      <trkpt lat="44.87911" lon="5.52237">
        <ele>2063.9</ele>
        <time>2022-01-19T10:45:18Z</time>
      </trkpt>
      <trkpt lat="44.87911" lon="5.52237">
        <ele>2063.9</ele>
        <time>2022-01-19T10:45:19Z</time>
      </trkpt>
      <trkpt lat="44.87911" lon="5.52237">
        <ele>2063.9</ele>
        <time>2022-01-19T10:45:20Z</time>
      </trkpt>
      <trkpt lat="44.87911" lon="5.52237">
        <ele>2063.9</ele>
        <time>2022-01-19T10:45:21Z</time>
      </trkpt>
      <trkpt lat="44.87911" lon="5.52237">
        <ele>2063.9</ele>
        <time>2022-01-19T10:45:22Z</time>
      </trkpt>
      <trkpt lat="44.87911" lon="5.52237">
        <ele>2063.9</ele>
        <time>2022-01-19T10:45:23Z</time>
      </trkpt>
      <trkpt lat="44.87911" lon="5.52237">
        <ele>2063.9</ele>
        <time>2022-01-19T10:45:24Z</time>
      </trkpt>
      <trkpt lat="44.87911" lon="5.52237">
        <ele>2063.9</ele>
        <time>2022-01-19T10:45:25Z</time>
      </trkpt>
      <trkpt lat="44.87911" lon="5.52237">
        <ele>2063.9</ele>
        <time>2022-01-19T10:45:26Z</time>
      </trkpt>
      <trkpt lat="44.87911" lon="5.52237">
        <ele>2063.9</ele>
        <time>2022-01-19T10:45:27Z</time>
      </trkpt>
      <trkpt lat="44.87911" lon="5.52237">
        <ele>2063.9</ele>
        <time>2022-01-19T10:45:28Z</time>
      </trkpt>
      <trkpt lat="44.87911" lon="5.52237">
        <ele>2063.9</ele>
        <time>2022-01-19T10:45:29Z</time>
      </trkpt>
      <trkpt lat="44.87907" lon="5.52237">
        <ele>2065.6</ele>
        <time>2022-01-19T10:45:30Z</time>
      </trkpt>
      <trkpt lat="44.87907" lon="5.52236">
        <ele>2065.6</ele>
        <time>2022-01-19T10:45:31Z</time>
      </trkpt>
      <trkpt lat="44.87907" lon="5.52236">
        <ele>2065.6</ele>
        <time>2022-01-19T10:45:32Z</time>
      </trkpt>
      <trkpt lat="44.87907" lon="5.52236">
        <ele>2065.6</ele>
        <time>2022-01-19T10:45:33Z</time>
      </trkpt>
      <trkpt lat="44.87907" lon="5.52236">
        <ele>2065.6</ele>
        <time>2022-01-19T10:45:34Z</time>
      </trkpt>
      <trkpt lat="44.87907" lon="5.52236">
        <ele>2065.6</ele>
        <time>2022-01-19T10:45:35Z</time>
      </trkpt>
      <trkpt lat="44.87907" lon="5.52236">
        <ele>2065.6</ele>
        <time>2022-01-19T10:45:36Z</time>
      </trkpt>
      <trkpt lat="44.87907" lon="5.52236">
        <ele>2065.6</ele>
        <time>2022-01-19T10:45:37Z</time>
      </trkpt>
      <trkpt lat="44.87907" lon="5.52236">
        <ele>2065.6</ele>
        <time>2022-01-19T10:45:38Z</time>
      </trkpt>
      <trkpt lat="44.87907" lon="5.52236">
        <ele>2065.6</ele>
        <time>2022-01-19T10:45:39Z</time>
      </trkpt>
      <trkpt lat="44.87907" lon="5.52236">
        <ele>2065.6</ele>
        <time>2022-01-19T10:45:40Z</time>
      </trkpt>
      <trkpt lat="44.87907" lon="5.52236">
        <ele>2065.6</ele>
        <time>2022-01-19T10:45:41Z</time>
      </trkpt>
      <trkpt lat="44.87907" lon="5.52236">
        <ele>2065.6</ele>
        <time>2022-01-19T10:45:42Z</time>
      </trkpt>
      <trkpt lat="44.87907" lon="5.52236">
        <ele>2065.6</ele>
        <time>2022-01-19T10:45:43Z</time>
      </trkpt>
      <trkpt lat="44.87907" lon="5.52236">
        <ele>2065.6</ele>
        <time>2022-01-19T10:45:44Z</time>
      </trkpt>
      <trkpt lat="44.87907" lon="5.52236">
        <ele>2065.6</ele>
        <time>2022-01-19T10:45:45Z</time>
      </trkpt>
      <trkpt lat="44.87907" lon="5.52236">
        <ele>2065.6</ele>
        <time>2022-01-19T10:45:46Z</time>
      </trkpt>
      <trkpt lat="44.87907" lon="5.52236">
        <ele>2065.6</ele>
        <time>2022-01-19T10:45:47Z</time>
      </trkpt>
      <trkpt lat="44.87907" lon="5.52236">
        <ele>2065.6</ele>
        <time>2022-01-19T10:45:48Z</time>
      </trkpt>
      <trkpt lat="44.87907" lon="5.52236">
        <ele>2065.6</ele>
        <time>2022-01-19T10:45:49Z</time>
      </trkpt>
      <trkpt lat="44.87907" lon="5.52236">
        <ele>2065.6</ele>
        <time>2022-01-19T10:45:50Z</time>
      </trkpt>
      <trkpt lat="44.87907" lon="5.52236">
        <ele>2065.6</ele>
        <time>2022-01-19T10:45:51Z</time>
      </trkpt>
      <trkpt lat="44.87907" lon="5.52236">
        <ele>2065.6</ele>
        <time>2022-01-19T10:45:52Z</time>
      </trkpt>
      <trkpt lat="44.87907" lon="5.52236">
        <ele>2065.6</ele>
        <time>2022-01-19T10:45:53Z</time>
      </trkpt>
      <trkpt lat="44.87907" lon="5.52236">
        <ele>2065.6</ele>
        <time>2022-01-19T10:45:54Z</time>
      </trkpt>
      <trkpt lat="44.87907" lon="5.52236">
        <ele>2065.6</ele>
        <time>2022-01-19T10:45:55Z</time>
      </trkpt>
      <trkpt lat="44.87907" lon="5.52236">
        <ele>2065.6</ele>
        <time>2022-01-19T10:45:56Z</time>
      </trkpt>
      <trkpt lat="44.87907" lon="5.52236">
        <ele>2065.6</ele>
        <time>2022-01-19T10:45:57Z</time>
      </trkpt>
      <trkpt lat="44.87907" lon="5.52236">
        <ele>2065.6</ele>
        <time>2022-01-19T10:45:58Z</time>
      </trkpt>
      <trkpt lat="44.87907" lon="5.52236">
        <ele>2065.6</ele>
        <time>2022-01-19T10:45:59Z</time>
      </trkpt>
      <trkpt lat="44.87907" lon="5.52236">
        <ele>2065.6</ele>
        <time>2022-01-19T10:46:00Z</time>
      </trkpt>
      <trkpt lat="44.87907" lon="5.52236">
        <ele>2065.6</ele>
        <time>2022-01-19T10:46:01Z</time>
      </trkpt>
      <trkpt lat="44.87907" lon="5.52236">
        <ele>2065.6</ele>
        <time>2022-01-19T10:46:02Z</time>
      </trkpt>
      <trkpt lat="44.87907" lon="5.52236">
        <ele>2065.6</ele>
        <time>2022-01-19T10:46:03Z</time>
      </trkpt>
      <trkpt lat="44.87907" lon="5.52236">
        <ele>2065.6</ele>
        <time>2022-01-19T10:46:04Z</time>
      </trkpt>
      <trkpt lat="44.87907" lon="5.52236">
        <ele>2065.6</ele>
        <time>2022-01-19T10:46:05Z</time>
      </trkpt>
      <trkpt lat="44.87907" lon="5.52236">
        <ele>2065.6</ele>
        <time>2022-01-19T10:46:06Z</time>
      </trkpt>
      <trkpt lat="44.87907" lon="5.52236">
        <ele>2065.6</ele>
        <time>2022-01-19T10:46:07Z</time>
      </trkpt>
      <trkpt lat="44.87907" lon="5.52236">
        <ele>2065.6</ele>
        <time>2022-01-19T10:46:08Z</time>
      </trkpt>
      <trkpt lat="44.87907" lon="5.52236">
        <ele>2065.6</ele>
        <time>2022-01-19T10:46:09Z</time>
      </trkpt>
      <trkpt lat="44.87907" lon="5.52236">
        <ele>2065.6</ele>
        <time>2022-01-19T10:46:10Z</time>
      </trkpt>
      <trkpt lat="44.87907" lon="5.52236">
        <ele>2065.6</ele>
        <time>2022-01-19T10:46:11Z</time>
      </trkpt>
      <trkpt lat="44.87907" lon="5.52236">
        <ele>2065.6</ele>
        <time>2022-01-19T10:46:12Z</time>
      </trkpt>
      <trkpt lat="44.87907" lon="5.52236">
        <ele>2065.6</ele>
        <time>2022-01-19T10:46:13Z</time>
      </trkpt>
      <trkpt lat="44.87907" lon="5.52236">
        <ele>2065.6</ele>
        <time>2022-01-19T10:46:14Z</time>
      </trkpt>
      <trkpt lat="44.87907" lon="5.52236">
        <ele>2065.6</ele>
        <time>2022-01-19T10:46:15Z</time>
      </trkpt>
      <trkpt lat="44.87907" lon="5.52236">
        <ele>2065.6</ele>
        <time>2022-01-19T10:46:16Z</time>
      </trkpt>
      <trkpt lat="44.87907" lon="5.52236">
        <ele>2065.6</ele>
        <time>2022-01-19T10:46:17Z</time>
      </trkpt>
      <trkpt lat="44.87907" lon="5.52236">
        <ele>2065.6</ele>
        <time>2022-01-19T10:46:18Z</time>
      </trkpt>
      <trkpt lat="44.87907" lon="5.52236">
        <ele>2065.6</ele>
        <time>2022-01-19T10:46:19Z</time>
      </trkpt>
      <trkpt lat="44.87907" lon="5.52236">
        <ele>2065.6</ele>
        <time>2022-01-19T10:46:20Z</time>
      </trkpt>
      <trkpt lat="44.87907" lon="5.52236">
        <ele>2065.6</ele>
        <time>2022-01-19T10:46:21Z</time>
      </trkpt>
      <trkpt lat="44.87907" lon="5.52236">
        <ele>2065.6</ele>
        <time>2022-01-19T10:46:22Z</time>
      </trkpt>
      <trkpt lat="44.87907" lon="5.52236">
        <ele>2065.6</ele>
        <time>2022-01-19T10:46:23Z</time>
      </trkpt>
      <trkpt lat="44.87907" lon="5.52236">
        <ele>2065.6</ele>
        <time>2022-01-19T10:46:24Z</time>
      </trkpt>
      <trkpt lat="44.87907" lon="5.52236">
        <ele>2065.6</ele>
        <time>2022-01-19T10:46:25Z</time>
      </trkpt>
      <trkpt lat="44.87907" lon="5.52236">
        <ele>2065.6</ele>
        <time>2022-01-19T10:46:26Z</time>
      </trkpt>
      <trkpt lat="44.87907" lon="5.52236">
        <ele>2065.6</ele>
        <time>2022-01-19T10:46:27Z</time>
      </trkpt>
      <trkpt lat="44.87902" lon="5.52238">
        <ele>2067.2</ele>
        <time>2022-01-19T10:46:28Z</time>
      </trkpt>
      <trkpt lat="44.87902" lon="5.52239">
        <ele>2067.2</ele>
        <time>2022-01-19T10:46:29Z</time>
      </trkpt>
      <trkpt lat="44.87902" lon="5.52238">
        <ele>2068.8</ele>
        <time>2022-01-19T10:46:30Z</time>
      </trkpt>
      <trkpt lat="44.87901" lon="5.52238">
        <ele>2068.8</ele>
        <time>2022-01-19T10:46:31Z</time>
      </trkpt>
      <trkpt lat="44.87901" lon="5.52238">
        <ele>2068.8</ele>
        <time>2022-01-19T10:46:32Z</time>
      </trkpt>
      <trkpt lat="44.87901" lon="5.52238">
        <ele>2068.8</ele>
        <time>2022-01-19T10:46:33Z</time>
      </trkpt>
      <trkpt lat="44.87901" lon="5.52238">
        <ele>2068.8</ele>
        <time>2022-01-19T10:46:34Z</time>
      </trkpt>
      <trkpt lat="44.87901" lon="5.52238">
        <ele>2068.8</ele>
        <time>2022-01-19T10:46:35Z</time>
      </trkpt>
      <trkpt lat="44.879" lon="5.52238">
        <ele>2068.7</ele>
        <time>2022-01-19T10:46:36Z</time>
      </trkpt>
      <trkpt lat="44.879" lon="5.52238">
        <ele>2068.7</ele>
        <time>2022-01-19T10:46:37Z</time>
      </trkpt>
      <trkpt lat="44.879" lon="5.52238">
        <ele>2068.6</ele>
        <time>2022-01-19T10:46:38Z</time>
      </trkpt>
      <trkpt lat="44.879" lon="5.52238">
        <ele>2068.5</ele>
        <time>2022-01-19T10:46:39Z</time>
      </trkpt>
      <trkpt lat="44.879" lon="5.52238">
        <ele>2068.4</ele>
        <time>2022-01-19T10:46:40Z</time>
      </trkpt>
      <trkpt lat="44.87899" lon="5.52238">
        <ele>2068.4</ele>
        <time>2022-01-19T10:46:41Z</time>
      </trkpt>
      <trkpt lat="44.87899" lon="5.52238">
        <ele>2068.3</ele>
        <time>2022-01-19T10:46:42Z</time>
      </trkpt>
      <trkpt lat="44.87899" lon="5.52238">
        <ele>2068.2</ele>
        <time>2022-01-19T10:46:43Z</time>
      </trkpt>
      <trkpt lat="44.87899" lon="5.52238">
        <ele>2068.2</ele>
        <time>2022-01-19T10:46:44Z</time>
      </trkpt>
      <trkpt lat="44.87899" lon="5.52238">
        <ele>2068.1</ele>
        <time>2022-01-19T10:46:45Z</time>
      </trkpt>
      <trkpt lat="44.87898" lon="5.52238">
        <ele>2069.5</ele>
        <time>2022-01-19T10:46:46Z</time>
      </trkpt>
      <trkpt lat="44.87898" lon="5.52238">
        <ele>2069.4</ele>
        <time>2022-01-19T10:46:47Z</time>
      </trkpt>
      <trkpt lat="44.87898" lon="5.52237">
        <ele>2069.3</ele>
        <time>2022-01-19T10:46:48Z</time>
      </trkpt>
      <trkpt lat="44.87898" lon="5.52237">
        <ele>2069.3</ele>
        <time>2022-01-19T10:46:49Z</time>
      </trkpt>
      <trkpt lat="44.87898" lon="5.52237">
        <ele>2069.2</ele>
        <time>2022-01-19T10:46:50Z</time>
      </trkpt>
      <trkpt lat="44.87897" lon="5.52237">
        <ele>2069.1</ele>
        <time>2022-01-19T10:46:51Z</time>
      </trkpt>
      <trkpt lat="44.87897" lon="5.52237">
        <ele>2069</ele>
        <time>2022-01-19T10:46:52Z</time>
      </trkpt>
      <trkpt lat="44.87897" lon="5.52237">
        <ele>2069</ele>
        <time>2022-01-19T10:46:53Z</time>
      </trkpt>
      <trkpt lat="44.87897" lon="5.52237">
        <ele>2068.9</ele>
        <time>2022-01-19T10:46:54Z</time>
      </trkpt>
      <trkpt lat="44.87897" lon="5.52237">
        <ele>2068.8</ele>
        <time>2022-01-19T10:46:55Z</time>
      </trkpt>
      <trkpt lat="44.87896" lon="5.52237">
        <ele>2068.8</ele>
        <time>2022-01-19T10:46:56Z</time>
      </trkpt>
      <trkpt lat="44.87896" lon="5.52237">
        <ele>2068.7</ele>
        <time>2022-01-19T10:46:57Z</time>
      </trkpt>
      <trkpt lat="44.87896" lon="5.52237">
        <ele>2068.7</ele>
        <time>2022-01-19T10:46:58Z</time>
      </trkpt>
      <trkpt lat="44.87896" lon="5.52237">
        <ele>2068.6</ele>
        <time>2022-01-19T10:46:59Z</time>
      </trkpt>
      <trkpt lat="44.87896" lon="5.52237">
        <ele>2068.5</ele>
        <time>2022-01-19T10:47:00Z</time>
      </trkpt>
      <trkpt lat="44.87895" lon="5.52237">
        <ele>2069.6</ele>
        <time>2022-01-19T10:47:01Z</time>
      </trkpt>
      <trkpt lat="44.87895" lon="5.52237">
        <ele>2069.6</ele>
        <time>2022-01-19T10:47:02Z</time>
      </trkpt>
      <trkpt lat="44.87895" lon="5.52237">
        <ele>2069.5</ele>
        <time>2022-01-19T10:47:03Z</time>
      </trkpt>
      <trkpt lat="44.87895" lon="5.52237">
        <ele>2069.4</ele>
        <time>2022-01-19T10:47:04Z</time>
      </trkpt>
      <trkpt lat="44.87895" lon="5.52237">
        <ele>2069.4</ele>
        <time>2022-01-19T10:47:05Z</time>
      </trkpt>
      <trkpt lat="44.87894" lon="5.52237">
        <ele>2069.3</ele>
        <time>2022-01-19T10:47:06Z</time>
      </trkpt>
      <trkpt lat="44.87894" lon="5.52237">
        <ele>2069.2</ele>
        <time>2022-01-19T10:47:07Z</time>
      </trkpt>
      <trkpt lat="44.87894" lon="5.52237">
        <ele>2069.2</ele>
        <time>2022-01-19T10:47:08Z</time>
      </trkpt>
      <trkpt lat="44.87894" lon="5.52237">
        <ele>2069.1</ele>
        <time>2022-01-19T10:47:09Z</time>
      </trkpt>
      <trkpt lat="44.87894" lon="5.52237">
        <ele>2069</ele>
        <time>2022-01-19T10:47:10Z</time>
      </trkpt>
      <trkpt lat="44.87893" lon="5.52237">
        <ele>2068.9</ele>
        <time>2022-01-19T10:47:11Z</time>
      </trkpt>
      <trkpt lat="44.87893" lon="5.52237">
        <ele>2068.9</ele>
        <time>2022-01-19T10:47:12Z</time>
      </trkpt>
      <trkpt lat="44.87893" lon="5.52236">
        <ele>2068.8</ele>
        <time>2022-01-19T10:47:13Z</time>
      </trkpt>
      <trkpt lat="44.87893" lon="5.52236">
        <ele>2068.8</ele>
        <time>2022-01-19T10:47:14Z</time>
      </trkpt>
      <trkpt lat="44.87893" lon="5.52236">
        <ele>2068.7</ele>
        <time>2022-01-19T10:47:15Z</time>
      </trkpt>
      <trkpt lat="44.87892" lon="5.52236">
        <ele>2069.6</ele>
        <time>2022-01-19T10:47:16Z</time>
      </trkpt>
      <trkpt lat="44.87892" lon="5.52236">
        <ele>2069.6</ele>
        <time>2022-01-19T10:47:17Z</time>
      </trkpt>
      <trkpt lat="44.87892" lon="5.52236">
        <ele>2069.5</ele>
        <time>2022-01-19T10:47:18Z</time>
      </trkpt>
      <trkpt lat="44.87892" lon="5.52236">
        <ele>2069.4</ele>
        <time>2022-01-19T10:47:19Z</time>
      </trkpt>
      <trkpt lat="44.87892" lon="5.52236">
        <ele>2069.4</ele>
        <time>2022-01-19T10:47:20Z</time>
      </trkpt>
      <trkpt lat="44.87891" lon="5.52236">
        <ele>2069.3</ele>
        <time>2022-01-19T10:47:21Z</time>
      </trkpt>
      <trkpt lat="44.87891" lon="5.52236">
        <ele>2069.2</ele>
        <time>2022-01-19T10:47:22Z</time>
      </trkpt>
      <trkpt lat="44.87891" lon="5.52236">
        <ele>2069.1</ele>
        <time>2022-01-19T10:47:23Z</time>
      </trkpt>
      <trkpt lat="44.87891" lon="5.52236">
        <ele>2069.1</ele>
        <time>2022-01-19T10:47:24Z</time>
      </trkpt>
      <trkpt lat="44.87891" lon="5.52236">
        <ele>2069.1</ele>
        <time>2022-01-19T10:47:25Z</time>
      </trkpt>
      <trkpt lat="44.8789" lon="5.52236">
        <ele>2069</ele>
        <time>2022-01-19T10:47:26Z</time>
      </trkpt>
      <trkpt lat="44.8789" lon="5.52236">
        <ele>2068.9</ele>
        <time>2022-01-19T10:47:27Z</time>
      </trkpt>
      <trkpt lat="44.8789" lon="5.52236">
        <ele>2068.8</ele>
        <time>2022-01-19T10:47:28Z</time>
      </trkpt>
      <trkpt lat="44.8789" lon="5.52236">
        <ele>2068.8</ele>
        <time>2022-01-19T10:47:29Z</time>
      </trkpt>
      <trkpt lat="44.8789" lon="5.52236">
        <ele>2068.7</ele>
        <time>2022-01-19T10:47:30Z</time>
      </trkpt>
      <trkpt lat="44.87889" lon="5.52236">
        <ele>2068.7</ele>
        <time>2022-01-19T10:47:31Z</time>
      </trkpt>
      <trkpt lat="44.87889" lon="5.52236">
        <ele>2069.3</ele>
        <time>2022-01-19T10:47:32Z</time>
      </trkpt>
      <trkpt lat="44.87889" lon="5.52236">
        <ele>2069.3</ele>
        <time>2022-01-19T10:47:33Z</time>
      </trkpt>
      <trkpt lat="44.87889" lon="5.52236">
        <ele>2069.1</ele>
        <time>2022-01-19T10:47:34Z</time>
      </trkpt>
      <trkpt lat="44.87889" lon="5.52236">
        <ele>2069.1</ele>
        <time>2022-01-19T10:47:35Z</time>
      </trkpt>
      <trkpt lat="44.87889" lon="5.52236">
        <ele>2069</ele>
        <time>2022-01-19T10:47:36Z</time>
      </trkpt>
      <trkpt lat="44.87888" lon="5.52235">
        <ele>2069</ele>
        <time>2022-01-19T10:47:37Z</time>
      </trkpt>
      <trkpt lat="44.87888" lon="5.52235">
        <ele>2068.8</ele>
        <time>2022-01-19T10:47:38Z</time>
      </trkpt>
      <trkpt lat="44.87888" lon="5.52235">
        <ele>2068.8</ele>
        <time>2022-01-19T10:47:39Z</time>
      </trkpt>
      <trkpt lat="44.87888" lon="5.52235">
        <ele>2068.7</ele>
        <time>2022-01-19T10:47:40Z</time>
      </trkpt>
      <trkpt lat="44.87888" lon="5.52235">
        <ele>2068.7</ele>
        <time>2022-01-19T10:47:41Z</time>
      </trkpt>
      <trkpt lat="44.87887" lon="5.52235">
        <ele>2068.6</ele>
        <time>2022-01-19T10:47:42Z</time>
      </trkpt>
      <trkpt lat="44.87887" lon="5.52235">
        <ele>2068.7</ele>
        <time>2022-01-19T10:47:43Z</time>
      </trkpt>
      <trkpt lat="44.87886" lon="5.52234">
        <ele>2069.1</ele>
        <time>2022-01-19T10:47:44Z</time>
      </trkpt>
      <trkpt lat="44.87886" lon="5.52234">
        <ele>2069.2</ele>
        <time>2022-01-19T10:47:45Z</time>
      </trkpt>
      <trkpt lat="44.87886" lon="5.52233">
        <ele>2069.1</ele>
        <time>2022-01-19T10:47:46Z</time>
      </trkpt>
      <trkpt lat="44.87886" lon="5.52233">
        <ele>2069</ele>
        <time>2022-01-19T10:47:47Z</time>
      </trkpt>
      <trkpt lat="44.87886" lon="5.52233">
        <ele>2068.9</ele>
        <time>2022-01-19T10:47:48Z</time>
      </trkpt>
      <trkpt lat="44.87886" lon="5.52233">
        <ele>2068.8</ele>
        <time>2022-01-19T10:47:49Z</time>
      </trkpt>
      <trkpt lat="44.87886" lon="5.52233">
        <ele>2068.7</ele>
        <time>2022-01-19T10:47:50Z</time>
      </trkpt>
      <trkpt lat="44.87886" lon="5.52233">
        <ele>2068.6</ele>
        <time>2022-01-19T10:47:51Z</time>
      </trkpt>
      <trkpt lat="44.87886" lon="5.52233">
        <ele>2068.5</ele>
        <time>2022-01-19T10:47:52Z</time>
      </trkpt>
      <trkpt lat="44.87883" lon="5.52231">
        <ele>2069.4</ele>
        <time>2022-01-19T10:47:53Z</time>
      </trkpt>
      <trkpt lat="44.87882" lon="5.5223">
        <ele>2069.4</ele>
        <time>2022-01-19T10:47:54Z</time>
      </trkpt>
      <trkpt lat="44.87882" lon="5.52229">
        <ele>2069.4</ele>
        <time>2022-01-19T10:47:55Z</time>
      </trkpt>
      <trkpt lat="44.87882" lon="5.52229">
        <ele>2069.3</ele>
        <time>2022-01-19T10:47:56Z</time>
      </trkpt>
      <trkpt lat="44.87882" lon="5.52229">
        <ele>2069.2</ele>
        <time>2022-01-19T10:47:57Z</time>
      </trkpt>
      <trkpt lat="44.87882" lon="5.52229">
        <ele>2069.1</ele>
        <time>2022-01-19T10:47:58Z</time>
      </trkpt>
      <trkpt lat="44.8788" lon="5.52228">
        <ele>2069.7</ele>
        <time>2022-01-19T10:47:59Z</time>
      </trkpt>
      <trkpt lat="44.8788" lon="5.52228">
        <ele>2069.6</ele>
        <time>2022-01-19T10:48:00Z</time>
      </trkpt>
      <trkpt lat="44.87879" lon="5.52228">
        <ele>2069.7</ele>
        <time>2022-01-19T10:48:01Z</time>
      </trkpt>
      <trkpt lat="44.87878" lon="5.52228">
        <ele>2069.6</ele>
        <time>2022-01-19T10:48:02Z</time>
      </trkpt>
      <trkpt lat="44.87878" lon="5.52227">
        <ele>2069.7</ele>
        <time>2022-01-19T10:48:03Z</time>
      </trkpt>
      <trkpt lat="44.87877" lon="5.52226">
        <ele>2069.7</ele>
        <time>2022-01-19T10:48:04Z</time>
      </trkpt>
      <trkpt lat="44.87877" lon="5.52225">
        <ele>2069.9</ele>
        <time>2022-01-19T10:48:05Z</time>
      </trkpt>
      <trkpt lat="44.87876" lon="5.52225">
        <ele>2069.9</ele>
        <time>2022-01-19T10:48:06Z</time>
      </trkpt>
      <trkpt lat="44.87875" lon="5.52224">
        <ele>2070</ele>
        <time>2022-01-19T10:48:07Z</time>
      </trkpt>
      <trkpt lat="44.87875" lon="5.52224">
        <ele>2070</ele>
        <time>2022-01-19T10:48:08Z</time>
      </trkpt>
      <trkpt lat="44.87874" lon="5.52224">
        <ele>2070.1</ele>
        <time>2022-01-19T10:48:09Z</time>
      </trkpt>
      <trkpt lat="44.87874" lon="5.52224">
        <ele>2070.1</ele>
        <time>2022-01-19T10:48:10Z</time>
      </trkpt>
      <trkpt lat="44.87873" lon="5.52223">
        <ele>2070.2</ele>
        <time>2022-01-19T10:48:11Z</time>
      </trkpt>
      <trkpt lat="44.87873" lon="5.52223">
        <ele>2070.2</ele>
        <time>2022-01-19T10:48:12Z</time>
      </trkpt>
      <trkpt lat="44.87872" lon="5.52223">
        <ele>2070.2</ele>
        <time>2022-01-19T10:48:13Z</time>
      </trkpt>
      <trkpt lat="44.87872" lon="5.52223">
        <ele>2070.2</ele>
        <time>2022-01-19T10:48:14Z</time>
      </trkpt>
      <trkpt lat="44.87871" lon="5.52223">
        <ele>2070.2</ele>
        <time>2022-01-19T10:48:15Z</time>
      </trkpt>
      <trkpt lat="44.87871" lon="5.52223">
        <ele>2070.4</ele>
        <time>2022-01-19T10:48:16Z</time>
      </trkpt>
      <trkpt lat="44.87871" lon="5.52224">
        <ele>2070.4</ele>
        <time>2022-01-19T10:48:17Z</time>
      </trkpt>
      <trkpt lat="44.87869" lon="5.52223">
        <ele>2070.7</ele>
        <time>2022-01-19T10:48:18Z</time>
      </trkpt>
      <trkpt lat="44.87869" lon="5.52223">
        <ele>2070.8</ele>
        <time>2022-01-19T10:48:19Z</time>
      </trkpt>
      <trkpt lat="44.87869" lon="5.52223">
        <ele>2070.9</ele>
        <time>2022-01-19T10:48:20Z</time>
      </trkpt>
      <trkpt lat="44.87867" lon="5.52223">
        <ele>2071.2</ele>
        <time>2022-01-19T10:48:21Z</time>
      </trkpt>
      <trkpt lat="44.87867" lon="5.52223">
        <ele>2071.2</ele>
        <time>2022-01-19T10:48:22Z</time>
      </trkpt>
      <trkpt lat="44.87867" lon="5.52223">
        <ele>2071.2</ele>
        <time>2022-01-19T10:48:23Z</time>
      </trkpt>
      <trkpt lat="44.87867" lon="5.52223">
        <ele>2071.2</ele>
        <time>2022-01-19T10:48:24Z</time>
      </trkpt>
      <trkpt lat="44.87867" lon="5.52223">
        <ele>2071.2</ele>
        <time>2022-01-19T10:48:25Z</time>
      </trkpt>
      <trkpt lat="44.87865" lon="5.52225">
        <ele>2071.9</ele>
        <time>2022-01-19T10:48:26Z</time>
      </trkpt>
      <trkpt lat="44.87864" lon="5.52226">
        <ele>2072</ele>
        <time>2022-01-19T10:48:27Z</time>
      </trkpt>
      <trkpt lat="44.87863" lon="5.52226">
        <ele>2072.2</ele>
        <time>2022-01-19T10:48:28Z</time>
      </trkpt>
      <trkpt lat="44.87863" lon="5.52227">
        <ele>2072.3</ele>
        <time>2022-01-19T10:48:29Z</time>
      </trkpt>
      <trkpt lat="44.87862" lon="5.52226">
        <ele>2072.6</ele>
        <time>2022-01-19T10:48:30Z</time>
      </trkpt>
      <trkpt lat="44.87861" lon="5.52226">
        <ele>2072.8</ele>
        <time>2022-01-19T10:48:31Z</time>
      </trkpt>
      <trkpt lat="44.87861" lon="5.52226">
        <ele>2072.8</ele>
        <time>2022-01-19T10:48:32Z</time>
      </trkpt>
      <trkpt lat="44.8786" lon="5.52226">
        <ele>2072.9</ele>
        <time>2022-01-19T10:48:33Z</time>
      </trkpt>
      <trkpt lat="44.87859" lon="5.52226">
        <ele>2073.1</ele>
        <time>2022-01-19T10:48:34Z</time>
      </trkpt>
      <trkpt lat="44.87859" lon="5.52226">
        <ele>2073.2</ele>
        <time>2022-01-19T10:48:35Z</time>
      </trkpt>
      <trkpt lat="44.87858" lon="5.52227">
        <ele>2073.4</ele>
        <time>2022-01-19T10:48:36Z</time>
      </trkpt>
      <trkpt lat="44.87858" lon="5.52227">
        <ele>2073.5</ele>
        <time>2022-01-19T10:48:37Z</time>
      </trkpt>
      <trkpt lat="44.87857" lon="5.52228">
        <ele>2073.7</ele>
        <time>2022-01-19T10:48:38Z</time>
      </trkpt>
      <trkpt lat="44.87856" lon="5.52228">
        <ele>2073.8</ele>
        <time>2022-01-19T10:48:39Z</time>
      </trkpt>
      <trkpt lat="44.87856" lon="5.52229">
        <ele>2073.9</ele>
        <time>2022-01-19T10:48:40Z</time>
      </trkpt>
      <trkpt lat="44.87855" lon="5.52229">
        <ele>2074</ele>
        <time>2022-01-19T10:48:41Z</time>
      </trkpt>
      <trkpt lat="44.87854" lon="5.52229">
        <ele>2074.2</ele>
        <time>2022-01-19T10:48:42Z</time>
      </trkpt>
      <trkpt lat="44.87854" lon="5.52229">
        <ele>2074.3</ele>
        <time>2022-01-19T10:48:43Z</time>
      </trkpt>
      <trkpt lat="44.87854" lon="5.52229">
        <ele>2074.3</ele>
        <time>2022-01-19T10:48:44Z</time>
      </trkpt>
      <trkpt lat="44.87853" lon="5.52229">
        <ele>2074.5</ele>
        <time>2022-01-19T10:48:45Z</time>
      </trkpt>
      <trkpt lat="44.87853" lon="5.52229">
        <ele>2074.6</ele>
        <time>2022-01-19T10:48:46Z</time>
      </trkpt>
      <trkpt lat="44.87852" lon="5.52228">
        <ele>2074.6</ele>
        <time>2022-01-19T10:48:47Z</time>
      </trkpt>
      <trkpt lat="44.87851" lon="5.52228">
        <ele>2074.8</ele>
        <time>2022-01-19T10:48:48Z</time>
      </trkpt>
      <trkpt lat="44.87851" lon="5.52228">
        <ele>2074.8</ele>
        <time>2022-01-19T10:48:49Z</time>
      </trkpt>
      <trkpt lat="44.87851" lon="5.52228">
        <ele>2074.8</ele>
        <time>2022-01-19T10:48:50Z</time>
      </trkpt>
      <trkpt lat="44.87851" lon="5.52228">
        <ele>2074.8</ele>
        <time>2022-01-19T10:48:51Z</time>
      </trkpt>
      <trkpt lat="44.8785" lon="5.52228">
        <ele>2075.1</ele>
        <time>2022-01-19T10:48:52Z</time>
      </trkpt>
      <trkpt lat="44.87849" lon="5.52228">
        <ele>2075.2</ele>
        <time>2022-01-19T10:48:53Z</time>
      </trkpt>
      <trkpt lat="44.87848" lon="5.52228">
        <ele>2075.4</ele>
        <time>2022-01-19T10:48:54Z</time>
      </trkpt>
      <trkpt lat="44.87848" lon="5.52228">
        <ele>2075.5</ele>
        <time>2022-01-19T10:48:55Z</time>
      </trkpt>
      <trkpt lat="44.87847" lon="5.52228">
        <ele>2075.7</ele>
        <time>2022-01-19T10:48:56Z</time>
      </trkpt>
      <trkpt lat="44.87846" lon="5.52229">
        <ele>2075.9</ele>
        <time>2022-01-19T10:48:57Z</time>
      </trkpt>
      <trkpt lat="44.87845" lon="5.52229">
        <ele>2076</ele>
        <time>2022-01-19T10:48:58Z</time>
      </trkpt>
      <trkpt lat="44.87845" lon="5.52229">
        <ele>2076.1</ele>
        <time>2022-01-19T10:48:59Z</time>
      </trkpt>
      <trkpt lat="44.87844" lon="5.52228">
        <ele>2076.2</ele>
        <time>2022-01-19T10:49:00Z</time>
      </trkpt>
      <trkpt lat="44.87843" lon="5.52229">
        <ele>2076.3</ele>
        <time>2022-01-19T10:49:01Z</time>
      </trkpt>
      <trkpt lat="44.87842" lon="5.52229">
        <ele>2076.5</ele>
        <time>2022-01-19T10:49:02Z</time>
      </trkpt>
      <trkpt lat="44.87842" lon="5.52229">
        <ele>2076.6</ele>
        <time>2022-01-19T10:49:03Z</time>
      </trkpt>
      <trkpt lat="44.87841" lon="5.52229">
        <ele>2076.7</ele>
        <time>2022-01-19T10:49:04Z</time>
      </trkpt>
      <trkpt lat="44.87841" lon="5.52228">
        <ele>2076.8</ele>
        <time>2022-01-19T10:49:05Z</time>
      </trkpt>
      <trkpt lat="44.8784" lon="5.52228">
        <ele>2077</ele>
        <time>2022-01-19T10:49:06Z</time>
      </trkpt>
      <trkpt lat="44.8784" lon="5.52228">
        <ele>2077.1</ele>
        <time>2022-01-19T10:49:07Z</time>
      </trkpt>
      <trkpt lat="44.87839" lon="5.52228">
        <ele>2077.1</ele>
        <time>2022-01-19T10:49:08Z</time>
      </trkpt>
      <trkpt lat="44.87838" lon="5.52229">
        <ele>2077.3</ele>
        <time>2022-01-19T10:49:09Z</time>
      </trkpt>
      <trkpt lat="44.87837" lon="5.52229">
        <ele>2077.5</ele>
        <time>2022-01-19T10:49:10Z</time>
      </trkpt>
      <trkpt lat="44.87836" lon="5.52229">
        <ele>2077.6</ele>
        <time>2022-01-19T10:49:11Z</time>
      </trkpt>
      <trkpt lat="44.87835" lon="5.52229">
        <ele>2077.8</ele>
        <time>2022-01-19T10:49:12Z</time>
      </trkpt>
      <trkpt lat="44.87834" lon="5.52229">
        <ele>2077.9</ele>
        <time>2022-01-19T10:49:13Z</time>
      </trkpt>
      <trkpt lat="44.87834" lon="5.52229">
        <ele>2078.1</ele>
        <time>2022-01-19T10:49:14Z</time>
      </trkpt>
      <trkpt lat="44.87833" lon="5.52229">
        <ele>2078.2</ele>
        <time>2022-01-19T10:49:15Z</time>
      </trkpt>
      <trkpt lat="44.87832" lon="5.52228">
        <ele>2078.3</ele>
        <time>2022-01-19T10:49:16Z</time>
      </trkpt>
      <trkpt lat="44.87832" lon="5.52228">
        <ele>2078.4</ele>
        <time>2022-01-19T10:49:17Z</time>
      </trkpt>
      <trkpt lat="44.87831" lon="5.52229">
        <ele>2078.5</ele>
        <time>2022-01-19T10:49:18Z</time>
      </trkpt>
      <trkpt lat="44.87831" lon="5.52229">
        <ele>2078.5</ele>
        <time>2022-01-19T10:49:19Z</time>
      </trkpt>
      <trkpt lat="44.87831" lon="5.52229">
        <ele>2078.5</ele>
        <time>2022-01-19T10:49:20Z</time>
      </trkpt>
      <trkpt lat="44.87831" lon="5.52229">
        <ele>2078.5</ele>
        <time>2022-01-19T10:49:21Z</time>
      </trkpt>
      <trkpt lat="44.87831" lon="5.52229">
        <ele>2078.5</ele>
        <time>2022-01-19T10:49:22Z</time>
      </trkpt>
      <trkpt lat="44.87831" lon="5.52229">
        <ele>2078.5</ele>
        <time>2022-01-19T10:49:23Z</time>
      </trkpt>
      <trkpt lat="44.87831" lon="5.52229">
        <ele>2078.5</ele>
        <time>2022-01-19T10:49:24Z</time>
      </trkpt>
      <trkpt lat="44.87831" lon="5.52229">
        <ele>2078.5</ele>
        <time>2022-01-19T10:49:25Z</time>
      </trkpt>
      <trkpt lat="44.87831" lon="5.52229">
        <ele>2078.5</ele>
        <time>2022-01-19T10:49:26Z</time>
      </trkpt>
      <trkpt lat="44.87831" lon="5.52229">
        <ele>2078.5</ele>
        <time>2022-01-19T10:49:27Z</time>
      </trkpt>
      <trkpt lat="44.87831" lon="5.52229">
        <ele>2078.5</ele>
        <time>2022-01-19T10:49:28Z</time>
      </trkpt>
      <trkpt lat="44.87831" lon="5.52229">
        <ele>2078.5</ele>
        <time>2022-01-19T10:49:29Z</time>
      </trkpt>
      <trkpt lat="44.87831" lon="5.52229">
        <ele>2078.5</ele>
        <time>2022-01-19T10:49:30Z</time>
      </trkpt>
      <trkpt lat="44.87831" lon="5.52229">
        <ele>2078.5</ele>
        <time>2022-01-19T10:49:31Z</time>
      </trkpt>
      <trkpt lat="44.87831" lon="5.52229">
        <ele>2078.5</ele>
        <time>2022-01-19T10:49:32Z</time>
      </trkpt>
      <trkpt lat="44.87831" lon="5.52229">
        <ele>2078.5</ele>
        <time>2022-01-19T10:49:33Z</time>
      </trkpt>
      <trkpt lat="44.87831" lon="5.52229">
        <ele>2078.5</ele>
        <time>2022-01-19T10:49:34Z</time>
      </trkpt>
      <trkpt lat="44.87831" lon="5.52229">
        <ele>2078.5</ele>
        <time>2022-01-19T10:49:35Z</time>
      </trkpt>
      <trkpt lat="44.87831" lon="5.52229">
        <ele>2078.5</ele>
        <time>2022-01-19T10:49:36Z</time>
      </trkpt>
      <trkpt lat="44.87831" lon="5.52229">
        <ele>2078.5</ele>
        <time>2022-01-19T10:49:37Z</time>
      </trkpt>
      <trkpt lat="44.87831" lon="5.52229">
        <ele>2078.5</ele>
        <time>2022-01-19T10:49:38Z</time>
      </trkpt>
      <trkpt lat="44.87831" lon="5.52229">
        <ele>2078.5</ele>
        <time>2022-01-19T10:49:39Z</time>
      </trkpt>
      <trkpt lat="44.87831" lon="5.52229">
        <ele>2078.5</ele>
        <time>2022-01-19T10:49:40Z</time>
      </trkpt>
      <trkpt lat="44.87831" lon="5.52229">
        <ele>2078.5</ele>
        <time>2022-01-19T10:49:41Z</time>
      </trkpt>
      <trkpt lat="44.87831" lon="5.52229">
        <ele>2078.5</ele>
        <time>2022-01-19T10:49:42Z</time>
      </trkpt>
      <trkpt lat="44.87831" lon="5.52229">
        <ele>2078.5</ele>
        <time>2022-01-19T10:49:43Z</time>
      </trkpt>
      <trkpt lat="44.87831" lon="5.52229">
        <ele>2078.5</ele>
        <time>2022-01-19T10:49:44Z</time>
      </trkpt>
      <trkpt lat="44.87831" lon="5.52229">
        <ele>2078.5</ele>
        <time>2022-01-19T10:49:45Z</time>
      </trkpt>
      <trkpt lat="44.87831" lon="5.52229">
        <ele>2078.5</ele>
        <time>2022-01-19T10:49:46Z</time>
      </trkpt>
      <trkpt lat="44.87831" lon="5.52227">
        <ele>2078.7</ele>
        <time>2022-01-19T10:49:47Z</time>
      </trkpt>
      <trkpt lat="44.87832" lon="5.52227">
        <ele>2078.8</ele>
        <time>2022-01-19T10:49:48Z</time>
      </trkpt>
      <trkpt lat="44.87832" lon="5.52226">
        <ele>2078.8</ele>
        <time>2022-01-19T10:49:49Z</time>
      </trkpt>
      <trkpt lat="44.87832" lon="5.52226">
        <ele>2078.9</ele>
        <time>2022-01-19T10:49:50Z</time>
      </trkpt>
      <trkpt lat="44.87833" lon="5.52226">
        <ele>2079</ele>
        <time>2022-01-19T10:49:51Z</time>
      </trkpt>
      <trkpt lat="44.87833" lon="5.52226">
        <ele>2079</ele>
        <time>2022-01-19T10:49:52Z</time>
      </trkpt>
      <trkpt lat="44.87833" lon="5.52226">
        <ele>2079.1</ele>
        <time>2022-01-19T10:49:53Z</time>
      </trkpt>
      <trkpt lat="44.87834" lon="5.52226">
        <ele>2079.1</ele>
        <time>2022-01-19T10:49:54Z</time>
      </trkpt>
      <trkpt lat="44.87834" lon="5.52226">
        <ele>2079.1</ele>
        <time>2022-01-19T10:49:55Z</time>
      </trkpt>
      <trkpt lat="44.87834" lon="5.52226">
        <ele>2079.1</ele>
        <time>2022-01-19T10:49:56Z</time>
      </trkpt>
      <trkpt lat="44.87834" lon="5.52226">
        <ele>2079.1</ele>
        <time>2022-01-19T10:49:57Z</time>
      </trkpt>
      <trkpt lat="44.87834" lon="5.52226">
        <ele>2079.1</ele>
        <time>2022-01-19T10:49:58Z</time>
      </trkpt>
      <trkpt lat="44.87834" lon="5.52226">
        <ele>2079.1</ele>
        <time>2022-01-19T10:49:59Z</time>
      </trkpt>
      <trkpt lat="44.87834" lon="5.52226">
        <ele>2079.1</ele>
        <time>2022-01-19T10:50:00Z</time>
      </trkpt>
      <trkpt lat="44.87834" lon="5.52226">
        <ele>2079.1</ele>
        <time>2022-01-19T10:50:01Z</time>
      </trkpt>
      <trkpt lat="44.87834" lon="5.52226">
        <ele>2079.1</ele>
        <time>2022-01-19T10:50:02Z</time>
      </trkpt>
      <trkpt lat="44.87834" lon="5.52226">
        <ele>2079.1</ele>
        <time>2022-01-19T10:50:03Z</time>
      </trkpt>
      <trkpt lat="44.87834" lon="5.52226">
        <ele>2079.1</ele>
        <time>2022-01-19T10:50:04Z</time>
      </trkpt>
      <trkpt lat="44.87834" lon="5.52226">
        <ele>2079.1</ele>
        <time>2022-01-19T10:50:05Z</time>
      </trkpt>
      <trkpt lat="44.87834" lon="5.52226">
        <ele>2079.1</ele>
        <time>2022-01-19T10:50:06Z</time>
      </trkpt>
      <trkpt lat="44.87834" lon="5.52226">
        <ele>2079.1</ele>
        <time>2022-01-19T10:50:07Z</time>
      </trkpt>
      <trkpt lat="44.87834" lon="5.52226">
        <ele>2079.1</ele>
        <time>2022-01-19T10:50:08Z</time>
      </trkpt>
      <trkpt lat="44.87834" lon="5.52226">
        <ele>2079.1</ele>
        <time>2022-01-19T10:50:09Z</time>
      </trkpt>
      <trkpt lat="44.87834" lon="5.52226">
        <ele>2079.1</ele>
        <time>2022-01-19T10:50:10Z</time>
      </trkpt>
      <trkpt lat="44.87834" lon="5.52226">
        <ele>2079.1</ele>
        <time>2022-01-19T10:50:11Z</time>
      </trkpt>
      <trkpt lat="44.87834" lon="5.52226">
        <ele>2079.1</ele>
        <time>2022-01-19T10:50:12Z</time>
      </trkpt>
      <trkpt lat="44.87834" lon="5.52226">
        <ele>2079.1</ele>
        <time>2022-01-19T10:50:13Z</time>
      </trkpt>
      <trkpt lat="44.87834" lon="5.52226">
        <ele>2079.1</ele>
        <time>2022-01-19T10:50:14Z</time>
      </trkpt>
      <trkpt lat="44.87834" lon="5.52226">
        <ele>2079.1</ele>
        <time>2022-01-19T10:50:15Z</time>
      </trkpt>
      <trkpt lat="44.87834" lon="5.52226">
        <ele>2079.1</ele>
        <time>2022-01-19T10:50:16Z</time>
      </trkpt>
      <trkpt lat="44.87834" lon="5.52226">
        <ele>2079.1</ele>
        <time>2022-01-19T10:50:17Z</time>
      </trkpt>
      <trkpt lat="44.87834" lon="5.52226">
        <ele>2079.1</ele>
        <time>2022-01-19T10:50:18Z</time>
      </trkpt>
      <trkpt lat="44.87834" lon="5.52226">
        <ele>2079.1</ele>
        <time>2022-01-19T10:50:19Z</time>
      </trkpt>
      <trkpt lat="44.87834" lon="5.52226">
        <ele>2079.1</ele>
        <time>2022-01-19T10:50:20Z</time>
      </trkpt>
      <trkpt lat="44.87834" lon="5.52226">
        <ele>2079.1</ele>
        <time>2022-01-19T10:50:21Z</time>
      </trkpt>
      <trkpt lat="44.87834" lon="5.52226">
        <ele>2079.1</ele>
        <time>2022-01-19T10:50:22Z</time>
      </trkpt>
      <trkpt lat="44.87834" lon="5.52226">
        <ele>2079.1</ele>
        <time>2022-01-19T10:50:23Z</time>
      </trkpt>
      <trkpt lat="44.87834" lon="5.52226">
        <ele>2079.1</ele>
        <time>2022-01-19T10:50:24Z</time>
      </trkpt>
      <trkpt lat="44.87834" lon="5.52226">
        <ele>2079.1</ele>
        <time>2022-01-19T10:50:25Z</time>
      </trkpt>
      <trkpt lat="44.87834" lon="5.52226">
        <ele>2079.1</ele>
        <time>2022-01-19T10:50:26Z</time>
      </trkpt>
      <trkpt lat="44.87834" lon="5.52226">
        <ele>2079.1</ele>
        <time>2022-01-19T10:50:27Z</time>
      </trkpt>
      <trkpt lat="44.87834" lon="5.52226">
        <ele>2079.1</ele>
        <time>2022-01-19T10:50:28Z</time>
      </trkpt>
      <trkpt lat="44.87834" lon="5.52226">
        <ele>2079.1</ele>
        <time>2022-01-19T10:50:29Z</time>
      </trkpt>
      <trkpt lat="44.87834" lon="5.52226">
        <ele>2079.1</ele>
        <time>2022-01-19T10:50:30Z</time>
      </trkpt>
      <trkpt lat="44.87834" lon="5.52226">
        <ele>2079.1</ele>
        <time>2022-01-19T10:50:31Z</time>
      </trkpt>
      <trkpt lat="44.87834" lon="5.52226">
        <ele>2079.1</ele>
        <time>2022-01-19T10:50:32Z</time>
      </trkpt>
      <trkpt lat="44.87834" lon="5.52226">
        <ele>2079.1</ele>
        <time>2022-01-19T10:50:33Z</time>
      </trkpt>
      <trkpt lat="44.87834" lon="5.52226">
        <ele>2079.1</ele>
        <time>2022-01-19T10:50:34Z</time>
      </trkpt>
      <trkpt lat="44.87834" lon="5.52226">
        <ele>2079.1</ele>
        <time>2022-01-19T10:50:35Z</time>
      </trkpt>
      <trkpt lat="44.87834" lon="5.52226">
        <ele>2079.1</ele>
        <time>2022-01-19T10:50:36Z</time>
      </trkpt>
      <trkpt lat="44.87834" lon="5.52226">
        <ele>2079.1</ele>
        <time>2022-01-19T10:50:37Z</time>
      </trkpt>
      <trkpt lat="44.87834" lon="5.52228">
        <ele>2079.4</ele>
        <time>2022-01-19T10:50:38Z</time>
      </trkpt>
      <trkpt lat="44.87835" lon="5.52229">
        <ele>2079.5</ele>
        <time>2022-01-19T10:50:39Z</time>
      </trkpt>
      <trkpt lat="44.87835" lon="5.52229">
        <ele>2079.6</ele>
        <time>2022-01-19T10:50:40Z</time>
      </trkpt>
      <trkpt lat="44.87836" lon="5.52229">
        <ele>2079.6</ele>
        <time>2022-01-19T10:50:41Z</time>
      </trkpt>
      <trkpt lat="44.87836" lon="5.52229">
        <ele>2079.7</ele>
        <time>2022-01-19T10:50:42Z</time>
      </trkpt>
      <trkpt lat="44.87837" lon="5.52229">
        <ele>2079.8</ele>
        <time>2022-01-19T10:50:43Z</time>
      </trkpt>
      <trkpt lat="44.87837" lon="5.52229">
        <ele>2079.9</ele>
        <time>2022-01-19T10:50:44Z</time>
      </trkpt>
      <trkpt lat="44.87838" lon="5.52229">
        <ele>2079.9</ele>
        <time>2022-01-19T10:50:45Z</time>
      </trkpt>
      <trkpt lat="44.87838" lon="5.52229">
        <ele>2080</ele>
        <time>2022-01-19T10:50:46Z</time>
      </trkpt>
      <trkpt lat="44.87839" lon="5.52229">
        <ele>2080.1</ele>
        <time>2022-01-19T10:50:47Z</time>
      </trkpt>
      <trkpt lat="44.8784" lon="5.52229">
        <ele>2080.2</ele>
        <time>2022-01-19T10:50:48Z</time>
      </trkpt>
      <trkpt lat="44.87841" lon="5.52229">
        <ele>2080.3</ele>
        <time>2022-01-19T10:50:49Z</time>
      </trkpt>
      <trkpt lat="44.87841" lon="5.52229">
        <ele>2080.4</ele>
        <time>2022-01-19T10:50:50Z</time>
      </trkpt>
      <trkpt lat="44.87842" lon="5.52229">
        <ele>2080.4</ele>
        <time>2022-01-19T10:50:51Z</time>
      </trkpt>
      <trkpt lat="44.87843" lon="5.52229">
        <ele>2080.6</ele>
        <time>2022-01-19T10:50:52Z</time>
      </trkpt>
      <trkpt lat="44.87844" lon="5.52228">
        <ele>2080.7</ele>
        <time>2022-01-19T10:50:53Z</time>
      </trkpt>
      <trkpt lat="44.87844" lon="5.52228">
        <ele>2080.8</ele>
        <time>2022-01-19T10:50:54Z</time>
      </trkpt>
      <trkpt lat="44.87845" lon="5.52228">
        <ele>2080.9</ele>
        <time>2022-01-19T10:50:55Z</time>
      </trkpt>
      <trkpt lat="44.87845" lon="5.52228">
        <ele>2080.9</ele>
        <time>2022-01-19T10:50:56Z</time>
      </trkpt>
      <trkpt lat="44.87846" lon="5.52228">
        <ele>2081</ele>
        <time>2022-01-19T10:50:57Z</time>
      </trkpt>
      <trkpt lat="44.87846" lon="5.52227">
        <ele>2081.1</ele>
        <time>2022-01-19T10:50:58Z</time>
      </trkpt>
      <trkpt lat="44.87847" lon="5.52227">
        <ele>2081.2</ele>
        <time>2022-01-19T10:50:59Z</time>
      </trkpt>
      <trkpt lat="44.87848" lon="5.52227">
        <ele>2081.2</ele>
        <time>2022-01-19T10:51:00Z</time>
      </trkpt>
      <trkpt lat="44.87848" lon="5.52227">
        <ele>2081.3</ele>
        <time>2022-01-19T10:51:01Z</time>
      </trkpt>
      <trkpt lat="44.87849" lon="5.52227">
        <ele>2081.4</ele>
        <time>2022-01-19T10:51:02Z</time>
      </trkpt>
      <trkpt lat="44.87849" lon="5.52227">
        <ele>2081.5</ele>
        <time>2022-01-19T10:51:03Z</time>
      </trkpt>
      <trkpt lat="44.8785" lon="5.52227">
        <ele>2081.5</ele>
        <time>2022-01-19T10:51:04Z</time>
      </trkpt>
      <trkpt lat="44.8785" lon="5.52226">
        <ele>2081.6</ele>
        <time>2022-01-19T10:51:05Z</time>
      </trkpt>
      <trkpt lat="44.8785" lon="5.52226">
        <ele>2081.6</ele>
        <time>2022-01-19T10:51:06Z</time>
      </trkpt>
      <trkpt lat="44.8785" lon="5.52226">
        <ele>2081.6</ele>
        <time>2022-01-19T10:51:07Z</time>
      </trkpt>
      <trkpt lat="44.8785" lon="5.52226">
        <ele>2081.6</ele>
        <time>2022-01-19T10:51:08Z</time>
      </trkpt>
      <trkpt lat="44.8785" lon="5.52226">
        <ele>2081.6</ele>
        <time>2022-01-19T10:51:09Z</time>
      </trkpt>
      <trkpt lat="44.8785" lon="5.52226">
        <ele>2081.6</ele>
        <time>2022-01-19T10:51:10Z</time>
      </trkpt>
      <trkpt lat="44.8785" lon="5.52226">
        <ele>2081.6</ele>
        <time>2022-01-19T10:51:11Z</time>
      </trkpt>
      <trkpt lat="44.8785" lon="5.52226">
        <ele>2081.6</ele>
        <time>2022-01-19T10:51:12Z</time>
      </trkpt>
      <trkpt lat="44.8785" lon="5.52226">
        <ele>2081.6</ele>
        <time>2022-01-19T10:51:13Z</time>
      </trkpt>
      <trkpt lat="44.8785" lon="5.52226">
        <ele>2081.6</ele>
        <time>2022-01-19T10:51:14Z</time>
      </trkpt>
      <trkpt lat="44.8785" lon="5.52226">
        <ele>2081.6</ele>
        <time>2022-01-19T10:51:15Z</time>
      </trkpt>
      <trkpt lat="44.8785" lon="5.52226">
        <ele>2081.6</ele>
        <time>2022-01-19T10:51:16Z</time>
      </trkpt>
      <trkpt lat="44.8785" lon="5.52226">
        <ele>2081.6</ele>
        <time>2022-01-19T10:51:17Z</time>
      </trkpt>
      <trkpt lat="44.8785" lon="5.52226">
        <ele>2081.6</ele>
        <time>2022-01-19T10:51:18Z</time>
      </trkpt>
      <trkpt lat="44.8785" lon="5.52226">
        <ele>2081.6</ele>
        <time>2022-01-19T10:51:19Z</time>
      </trkpt>
      <trkpt lat="44.8785" lon="5.52226">
        <ele>2081.6</ele>
        <time>2022-01-19T10:51:20Z</time>
      </trkpt>
      <trkpt lat="44.8785" lon="5.52226">
        <ele>2081.6</ele>
        <time>2022-01-19T10:51:21Z</time>
      </trkpt>
      <trkpt lat="44.87851" lon="5.52224">
        <ele>2081.8</ele>
        <time>2022-01-19T10:51:22Z</time>
      </trkpt>
      <trkpt lat="44.87851" lon="5.52224">
        <ele>2081.8</ele>
        <time>2022-01-19T10:51:23Z</time>
      </trkpt>
      <trkpt lat="44.87851" lon="5.52224">
        <ele>2081.8</ele>
        <time>2022-01-19T10:51:24Z</time>
      </trkpt>
      <trkpt lat="44.87851" lon="5.52224">
        <ele>2081.8</ele>
        <time>2022-01-19T10:51:25Z</time>
      </trkpt>
      <trkpt lat="44.87851" lon="5.52224">
        <ele>2081.8</ele>
        <time>2022-01-19T10:51:26Z</time>
      </trkpt>
      <trkpt lat="44.87851" lon="5.52224">
        <ele>2081.8</ele>
        <time>2022-01-19T10:51:27Z</time>
      </trkpt>
      <trkpt lat="44.87853" lon="5.52224">
        <ele>2082</ele>
        <time>2022-01-19T10:51:28Z</time>
      </trkpt>
      <trkpt lat="44.87854" lon="5.52224">
        <ele>2082.1</ele>
        <time>2022-01-19T10:51:29Z</time>
      </trkpt>
      <trkpt lat="44.87854" lon="5.52225">
        <ele>2082.2</ele>
        <time>2022-01-19T10:51:30Z</time>
      </trkpt>
      <trkpt lat="44.87855" lon="5.52225">
        <ele>2082.2</ele>
        <time>2022-01-19T10:51:31Z</time>
      </trkpt>
      <trkpt lat="44.87855" lon="5.52225">
        <ele>2082.3</ele>
        <time>2022-01-19T10:51:32Z</time>
      </trkpt>
      <trkpt lat="44.87856" lon="5.52226">
        <ele>2082.3</ele>
        <time>2022-01-19T10:51:33Z</time>
      </trkpt>
      <trkpt lat="44.87856" lon="5.52226">
        <ele>2082.3</ele>
        <time>2022-01-19T10:51:34Z</time>
      </trkpt>
      <trkpt lat="44.87856" lon="5.52225">
        <ele>2082.4</ele>
        <time>2022-01-19T10:51:35Z</time>
      </trkpt>
      <trkpt lat="44.87856" lon="5.52225">
        <ele>2082.4</ele>
        <time>2022-01-19T10:51:36Z</time>
      </trkpt>
      <trkpt lat="44.87856" lon="5.52225">
        <ele>2082.4</ele>
        <time>2022-01-19T10:51:37Z</time>
      </trkpt>
      <trkpt lat="44.87856" lon="5.52225">
        <ele>2082.4</ele>
        <time>2022-01-19T10:51:38Z</time>
      </trkpt>
      <trkpt lat="44.87856" lon="5.52225">
        <ele>2082.4</ele>
        <time>2022-01-19T10:51:39Z</time>
      </trkpt>
      <trkpt lat="44.87856" lon="5.52225">
        <ele>2082.4</ele>
        <time>2022-01-19T10:51:40Z</time>
      </trkpt>
      <trkpt lat="44.87856" lon="5.52225">
        <ele>2082.4</ele>
        <time>2022-01-19T10:51:41Z</time>
      </trkpt>
      <trkpt lat="44.87856" lon="5.52225">
        <ele>2082.4</ele>
        <time>2022-01-19T10:51:42Z</time>
      </trkpt>
      <trkpt lat="44.87856" lon="5.52225">
        <ele>2082.4</ele>
        <time>2022-01-19T10:51:43Z</time>
      </trkpt>
      <trkpt lat="44.87856" lon="5.52225">
        <ele>2082.4</ele>
        <time>2022-01-19T10:51:44Z</time>
      </trkpt>
      <trkpt lat="44.87856" lon="5.52225">
        <ele>2082.4</ele>
        <time>2022-01-19T10:51:45Z</time>
      </trkpt>
      <trkpt lat="44.87856" lon="5.52225">
        <ele>2082.4</ele>
        <time>2022-01-19T10:51:46Z</time>
      </trkpt>
      <trkpt lat="44.87856" lon="5.52225">
        <ele>2082.4</ele>
        <time>2022-01-19T10:51:47Z</time>
      </trkpt>
      <trkpt lat="44.87856" lon="5.52225">
        <ele>2082.4</ele>
        <time>2022-01-19T10:51:48Z</time>
      </trkpt>
      <trkpt lat="44.87856" lon="5.52225">
        <ele>2082.4</ele>
        <time>2022-01-19T10:51:49Z</time>
      </trkpt>
      <trkpt lat="44.87856" lon="5.52225">
        <ele>2082.4</ele>
        <time>2022-01-19T10:51:50Z</time>
      </trkpt>
      <trkpt lat="44.87856" lon="5.52225">
        <ele>2082.4</ele>
        <time>2022-01-19T10:51:51Z</time>
      </trkpt>
      <trkpt lat="44.87856" lon="5.52225">
        <ele>2082.4</ele>
        <time>2022-01-19T10:51:52Z</time>
      </trkpt>
      <trkpt lat="44.8786" lon="5.52231">
        <ele>2082.9</ele>
        <time>2022-01-19T10:51:53Z</time>
      </trkpt>
      <trkpt lat="44.87859" lon="5.52231">
        <ele>2083</ele>
        <time>2022-01-19T10:51:54Z</time>
      </trkpt>
      <trkpt lat="44.87859" lon="5.52231">
        <ele>2083</ele>
        <time>2022-01-19T10:51:55Z</time>
      </trkpt>
      <trkpt lat="44.87859" lon="5.52231">
        <ele>2083.1</ele>
        <time>2022-01-19T10:51:56Z</time>
      </trkpt>
      <trkpt lat="44.87858" lon="5.52231">
        <ele>2083.1</ele>
        <time>2022-01-19T10:51:57Z</time>
      </trkpt>
      <trkpt lat="44.87858" lon="5.52231">
        <ele>2083.2</ele>
        <time>2022-01-19T10:51:58Z</time>
      </trkpt>
      <trkpt lat="44.87857" lon="5.52231">
        <ele>2083.3</ele>
        <time>2022-01-19T10:51:59Z</time>
      </trkpt>
      <trkpt lat="44.87856" lon="5.52231">
        <ele>2083.3</ele>
        <time>2022-01-19T10:52:00Z</time>
      </trkpt>
      <trkpt lat="44.87856" lon="5.52231">
        <ele>2083.3</ele>
        <time>2022-01-19T10:52:01Z</time>
      </trkpt>
      <trkpt lat="44.87855" lon="5.52231">
        <ele>2083.4</ele>
        <time>2022-01-19T10:52:02Z</time>
      </trkpt>
      <trkpt lat="44.87855" lon="5.52231">
        <ele>2083.5</ele>
        <time>2022-01-19T10:52:03Z</time>
      </trkpt>
      <trkpt lat="44.87854" lon="5.52231">
        <ele>2083.5</ele>
        <time>2022-01-19T10:52:04Z</time>
      </trkpt>
      <trkpt lat="44.87854" lon="5.52231">
        <ele>2083.6</ele>
        <time>2022-01-19T10:52:05Z</time>
      </trkpt>
      <trkpt lat="44.87853" lon="5.52231">
        <ele>2083.6</ele>
        <time>2022-01-19T10:52:06Z</time>
      </trkpt>
      <trkpt lat="44.87853" lon="5.52232">
        <ele>2083.7</ele>
        <time>2022-01-19T10:52:07Z</time>
      </trkpt>
      <trkpt lat="44.87852" lon="5.52232">
        <ele>2083.7</ele>
        <time>2022-01-19T10:52:08Z</time>
      </trkpt>
      <trkpt lat="44.87851" lon="5.52232">
        <ele>2083.8</ele>
        <time>2022-01-19T10:52:09Z</time>
      </trkpt>
      <trkpt lat="44.87851" lon="5.52232">
        <ele>2083.9</ele>
        <time>2022-01-19T10:52:10Z</time>
      </trkpt>
      <trkpt lat="44.8785" lon="5.52232">
        <ele>2083.9</ele>
        <time>2022-01-19T10:52:11Z</time>
      </trkpt>
      <trkpt lat="44.87849" lon="5.52232">
        <ele>2084</ele>
        <time>2022-01-19T10:52:12Z</time>
      </trkpt>
      <trkpt lat="44.87849" lon="5.52232">
        <ele>2084</ele>
        <time>2022-01-19T10:52:13Z</time>
      </trkpt>
      <trkpt lat="44.87848" lon="5.52232">
        <ele>2084.1</ele>
        <time>2022-01-19T10:52:14Z</time>
      </trkpt>
      <trkpt lat="44.87848" lon="5.52232">
        <ele>2084.1</ele>
        <time>2022-01-19T10:52:15Z</time>
      </trkpt>
      <trkpt lat="44.87847" lon="5.52233">
        <ele>2084.2</ele>
        <time>2022-01-19T10:52:16Z</time>
      </trkpt>
      <trkpt lat="44.87846" lon="5.52233">
        <ele>2084.2</ele>
        <time>2022-01-19T10:52:17Z</time>
      </trkpt>
      <trkpt lat="44.87845" lon="5.52233">
        <ele>2084.3</ele>
        <time>2022-01-19T10:52:18Z</time>
      </trkpt>
      <trkpt lat="44.87845" lon="5.52233">
        <ele>2084.3</ele>
        <time>2022-01-19T10:52:19Z</time>
      </trkpt>
      <trkpt lat="44.87844" lon="5.52234">
        <ele>2084.4</ele>
        <time>2022-01-19T10:52:20Z</time>
      </trkpt>
      <trkpt lat="44.87843" lon="5.52234">
        <ele>2084.5</ele>
        <time>2022-01-19T10:52:21Z</time>
      </trkpt>
      <trkpt lat="44.87843" lon="5.52234">
        <ele>2084.5</ele>
        <time>2022-01-19T10:52:22Z</time>
      </trkpt>
      <trkpt lat="44.87842" lon="5.52234">
        <ele>2084.6</ele>
        <time>2022-01-19T10:52:23Z</time>
      </trkpt>
      <trkpt lat="44.87842" lon="5.52234">
        <ele>2084.6</ele>
        <time>2022-01-19T10:52:24Z</time>
      </trkpt>
      <trkpt lat="44.87841" lon="5.52234">
        <ele>2084.6</ele>
        <time>2022-01-19T10:52:25Z</time>
      </trkpt>
      <trkpt lat="44.8784" lon="5.52234">
        <ele>2084.7</ele>
        <time>2022-01-19T10:52:26Z</time>
      </trkpt>
      <trkpt lat="44.8784" lon="5.52235">
        <ele>2084.7</ele>
        <time>2022-01-19T10:52:27Z</time>
      </trkpt>
      <trkpt lat="44.87839" lon="5.52235">
        <ele>2084.8</ele>
        <time>2022-01-19T10:52:28Z</time>
      </trkpt>
      <trkpt lat="44.87838" lon="5.52234">
        <ele>2084.8</ele>
        <time>2022-01-19T10:52:29Z</time>
      </trkpt>
      <trkpt lat="44.87838" lon="5.52234">
        <ele>2084.9</ele>
        <time>2022-01-19T10:52:30Z</time>
      </trkpt>
      <trkpt lat="44.87837" lon="5.52234">
        <ele>2084.9</ele>
        <time>2022-01-19T10:52:31Z</time>
      </trkpt>
      <trkpt lat="44.87837" lon="5.52234">
        <ele>2084.9</ele>
        <time>2022-01-19T10:52:32Z</time>
      </trkpt>
      <trkpt lat="44.87836" lon="5.52235">
        <ele>2084.9</ele>
        <time>2022-01-19T10:52:33Z</time>
      </trkpt>
      <trkpt lat="44.87836" lon="5.52235">
        <ele>2085</ele>
        <time>2022-01-19T10:52:34Z</time>
      </trkpt>
      <trkpt lat="44.87835" lon="5.52235">
        <ele>2085</ele>
        <time>2022-01-19T10:52:35Z</time>
      </trkpt>
      <trkpt lat="44.87835" lon="5.52235">
        <ele>2085</ele>
        <time>2022-01-19T10:52:36Z</time>
      </trkpt>
      <trkpt lat="44.87835" lon="5.52235">
        <ele>2085</ele>
        <time>2022-01-19T10:52:37Z</time>
      </trkpt>
      <trkpt lat="44.87834" lon="5.52235">
        <ele>2085.1</ele>
        <time>2022-01-19T10:52:38Z</time>
      </trkpt>
      <trkpt lat="44.87833" lon="5.52234">
        <ele>2085.1</ele>
        <time>2022-01-19T10:52:39Z</time>
      </trkpt>
      <trkpt lat="44.87833" lon="5.52234">
        <ele>2085.1</ele>
        <time>2022-01-19T10:52:40Z</time>
      </trkpt>
      <trkpt lat="44.87832" lon="5.52234">
        <ele>2085.2</ele>
        <time>2022-01-19T10:52:41Z</time>
      </trkpt>
      <trkpt lat="44.87832" lon="5.52234">
        <ele>2085.2</ele>
        <time>2022-01-19T10:52:42Z</time>
      </trkpt>
      <trkpt lat="44.87831" lon="5.52234">
        <ele>2085.2</ele>
        <time>2022-01-19T10:52:43Z</time>
      </trkpt>
      <trkpt lat="44.87831" lon="5.52234">
        <ele>2085.2</ele>
        <time>2022-01-19T10:52:44Z</time>
      </trkpt>
      <trkpt lat="44.87831" lon="5.52234">
        <ele>2085.3</ele>
        <time>2022-01-19T10:52:45Z</time>
      </trkpt>
      <trkpt lat="44.87831" lon="5.52234">
        <ele>2085.3</ele>
        <time>2022-01-19T10:52:46Z</time>
      </trkpt>
      <trkpt lat="44.87831" lon="5.52234">
        <ele>2085.3</ele>
        <time>2022-01-19T10:52:47Z</time>
      </trkpt>
      <trkpt lat="44.87831" lon="5.52234">
        <ele>2085.3</ele>
        <time>2022-01-19T10:52:48Z</time>
      </trkpt>
      <trkpt lat="44.87831" lon="5.52234">
        <ele>2085.3</ele>
        <time>2022-01-19T10:52:49Z</time>
      </trkpt>
      <trkpt lat="44.87831" lon="5.52234">
        <ele>2085.3</ele>
        <time>2022-01-19T10:52:50Z</time>
      </trkpt>
      <trkpt lat="44.87831" lon="5.52234">
        <ele>2085.3</ele>
        <time>2022-01-19T10:52:51Z</time>
      </trkpt>
      <trkpt lat="44.87831" lon="5.52234">
        <ele>2085.3</ele>
        <time>2022-01-19T10:52:52Z</time>
      </trkpt>
      <trkpt lat="44.87831" lon="5.52234">
        <ele>2085.3</ele>
        <time>2022-01-19T10:52:53Z</time>
      </trkpt>
      <trkpt lat="44.87831" lon="5.52234">
        <ele>2085.3</ele>
        <time>2022-01-19T10:52:54Z</time>
      </trkpt>
      <trkpt lat="44.87831" lon="5.52234">
        <ele>2085.3</ele>
        <time>2022-01-19T10:52:55Z</time>
      </trkpt>
      <trkpt lat="44.87831" lon="5.52234">
        <ele>2085.3</ele>
        <time>2022-01-19T10:52:56Z</time>
      </trkpt>
      <trkpt lat="44.87831" lon="5.52234">
        <ele>2085.3</ele>
        <time>2022-01-19T10:52:57Z</time>
      </trkpt>
      <trkpt lat="44.87831" lon="5.52234">
        <ele>2085.3</ele>
        <time>2022-01-19T10:52:58Z</time>
      </trkpt>
      <trkpt lat="44.87831" lon="5.52234">
        <ele>2085.3</ele>
        <time>2022-01-19T10:52:59Z</time>
      </trkpt>
      <trkpt lat="44.87831" lon="5.52234">
        <ele>2085.3</ele>
        <time>2022-01-19T10:53:00Z</time>
      </trkpt>
      <trkpt lat="44.87831" lon="5.52234">
        <ele>2085.3</ele>
        <time>2022-01-19T10:53:01Z</time>
      </trkpt>
      <trkpt lat="44.87831" lon="5.52234">
        <ele>2085.3</ele>
        <time>2022-01-19T10:53:02Z</time>
      </trkpt>
      <trkpt lat="44.87831" lon="5.52234">
        <ele>2085.3</ele>
        <time>2022-01-19T10:53:03Z</time>
      </trkpt>
      <trkpt lat="44.87831" lon="5.52234">
        <ele>2085.3</ele>
        <time>2022-01-19T10:53:04Z</time>
      </trkpt>
      <trkpt lat="44.87831" lon="5.52234">
        <ele>2085.3</ele>
        <time>2022-01-19T10:53:05Z</time>
      </trkpt>
      <trkpt lat="44.87831" lon="5.52234">
        <ele>2085.3</ele>
        <time>2022-01-19T10:53:06Z</time>
      </trkpt>
      <trkpt lat="44.87831" lon="5.52234">
        <ele>2085.3</ele>
        <time>2022-01-19T10:53:07Z</time>
      </trkpt>
      <trkpt lat="44.87831" lon="5.52234">
        <ele>2085.3</ele>
        <time>2022-01-19T10:53:08Z</time>
      </trkpt>
      <trkpt lat="44.87831" lon="5.52234">
        <ele>2085.3</ele>
        <time>2022-01-19T10:53:09Z</time>
      </trkpt>
      <trkpt lat="44.87831" lon="5.52234">
        <ele>2085.3</ele>
        <time>2022-01-19T10:53:10Z</time>
      </trkpt>
      <trkpt lat="44.87831" lon="5.52234">
        <ele>2085.3</ele>
        <time>2022-01-19T10:53:11Z</time>
      </trkpt>
      <trkpt lat="44.87831" lon="5.52234">
        <ele>2085.3</ele>
        <time>2022-01-19T10:53:12Z</time>
      </trkpt>
      <trkpt lat="44.87831" lon="5.52234">
        <ele>2085.3</ele>
        <time>2022-01-19T10:53:13Z</time>
      </trkpt>
      <trkpt lat="44.87831" lon="5.52234">
        <ele>2085.3</ele>
        <time>2022-01-19T10:53:14Z</time>
      </trkpt>
      <trkpt lat="44.87831" lon="5.52234">
        <ele>2085.3</ele>
        <time>2022-01-19T10:53:15Z</time>
      </trkpt>
      <trkpt lat="44.87831" lon="5.52234">
        <ele>2085.3</ele>
        <time>2022-01-19T10:53:16Z</time>
      </trkpt>
      <trkpt lat="44.87831" lon="5.52234">
        <ele>2085.3</ele>
        <time>2022-01-19T10:53:17Z</time>
      </trkpt>
      <trkpt lat="44.87831" lon="5.52234">
        <ele>2085.3</ele>
        <time>2022-01-19T10:53:18Z</time>
      </trkpt>
      <trkpt lat="44.87831" lon="5.52234">
        <ele>2085.3</ele>
        <time>2022-01-19T10:53:19Z</time>
      </trkpt>
      <trkpt lat="44.87831" lon="5.52234">
        <ele>2085.3</ele>
        <time>2022-01-19T10:53:20Z</time>
      </trkpt>
      <trkpt lat="44.87831" lon="5.52234">
        <ele>2085.3</ele>
        <time>2022-01-19T10:53:21Z</time>
      </trkpt>
      <trkpt lat="44.87831" lon="5.52234">
        <ele>2085.3</ele>
        <time>2022-01-19T10:53:22Z</time>
      </trkpt>
      <trkpt lat="44.87831" lon="5.52234">
        <ele>2085.3</ele>
        <time>2022-01-19T10:53:23Z</time>
      </trkpt>
      <trkpt lat="44.87831" lon="5.52234">
        <ele>2085.3</ele>
        <time>2022-01-19T10:53:24Z</time>
      </trkpt>
      <trkpt lat="44.87831" lon="5.52234">
        <ele>2085.3</ele>
        <time>2022-01-19T10:53:25Z</time>
      </trkpt>
      <trkpt lat="44.87831" lon="5.52234">
        <ele>2085.3</ele>
        <time>2022-01-19T10:53:26Z</time>
      </trkpt>
      <trkpt lat="44.87831" lon="5.52234">
        <ele>2085.3</ele>
        <time>2022-01-19T10:53:27Z</time>
      </trkpt>
      <trkpt lat="44.87831" lon="5.52234">
        <ele>2085.3</ele>
        <time>2022-01-19T10:53:28Z</time>
      </trkpt>
      <trkpt lat="44.87831" lon="5.52234">
        <ele>2085.3</ele>
        <time>2022-01-19T10:53:29Z</time>
      </trkpt>
      <trkpt lat="44.87831" lon="5.52234">
        <ele>2085.3</ele>
        <time>2022-01-19T10:53:30Z</time>
      </trkpt>
      <trkpt lat="44.87831" lon="5.52234">
        <ele>2085.3</ele>
        <time>2022-01-19T10:53:31Z</time>
      </trkpt>
      <trkpt lat="44.87831" lon="5.52234">
        <ele>2085.3</ele>
        <time>2022-01-19T10:53:32Z</time>
      </trkpt>
      <trkpt lat="44.87831" lon="5.52234">
        <ele>2085.3</ele>
        <time>2022-01-19T10:53:33Z</time>
      </trkpt>
      <trkpt lat="44.87831" lon="5.52234">
        <ele>2085.3</ele>
        <time>2022-01-19T10:53:34Z</time>
      </trkpt>
      <trkpt lat="44.87831" lon="5.52234">
        <ele>2085.3</ele>
        <time>2022-01-19T10:53:35Z</time>
      </trkpt>
      <trkpt lat="44.87831" lon="5.52234">
        <ele>2085.3</ele>
        <time>2022-01-19T10:53:36Z</time>
      </trkpt>
      <trkpt lat="44.87831" lon="5.52234">
        <ele>2085.3</ele>
        <time>2022-01-19T10:53:37Z</time>
      </trkpt>
      <trkpt lat="44.87831" lon="5.52234">
        <ele>2085.3</ele>
        <time>2022-01-19T10:53:38Z</time>
      </trkpt>
      <trkpt lat="44.87831" lon="5.52234">
        <ele>2085.3</ele>
        <time>2022-01-19T10:53:39Z</time>
      </trkpt>
      <trkpt lat="44.87831" lon="5.52234">
        <ele>2085.3</ele>
        <time>2022-01-19T10:53:40Z</time>
      </trkpt>
      <trkpt lat="44.87831" lon="5.52234">
        <ele>2085.3</ele>
        <time>2022-01-19T10:53:41Z</time>
      </trkpt>
      <trkpt lat="44.87831" lon="5.52234">
        <ele>2085.3</ele>
        <time>2022-01-19T10:53:42Z</time>
      </trkpt>
      <trkpt lat="44.87831" lon="5.52234">
        <ele>2085.3</ele>
        <time>2022-01-19T10:53:43Z</time>
      </trkpt>
      <trkpt lat="44.87831" lon="5.52234">
        <ele>2085.3</ele>
        <time>2022-01-19T10:53:44Z</time>
      </trkpt>
      <trkpt lat="44.87831" lon="5.52234">
        <ele>2085.3</ele>
        <time>2022-01-19T10:53:45Z</time>
      </trkpt>
      <trkpt lat="44.87831" lon="5.52234">
        <ele>2085.3</ele>
        <time>2022-01-19T10:53:46Z</time>
      </trkpt>
      <trkpt lat="44.87831" lon="5.52234">
        <ele>2085.3</ele>
        <time>2022-01-19T10:53:47Z</time>
      </trkpt>
      <trkpt lat="44.87831" lon="5.52234">
        <ele>2085.3</ele>
        <time>2022-01-19T10:53:48Z</time>
      </trkpt>
      <trkpt lat="44.87831" lon="5.52234">
        <ele>2085.3</ele>
        <time>2022-01-19T10:53:49Z</time>
      </trkpt>
      <trkpt lat="44.87831" lon="5.52234">
        <ele>2085.3</ele>
        <time>2022-01-19T10:53:50Z</time>
      </trkpt>
      <trkpt lat="44.87831" lon="5.52234">
        <ele>2085.3</ele>
        <time>2022-01-19T10:53:51Z</time>
      </trkpt>
      <trkpt lat="44.87831" lon="5.52234">
        <ele>2085.3</ele>
        <time>2022-01-19T10:53:52Z</time>
      </trkpt>
      <trkpt lat="44.87831" lon="5.52234">
        <ele>2085.3</ele>
        <time>2022-01-19T10:53:53Z</time>
      </trkpt>
      <trkpt lat="44.87831" lon="5.52234">
        <ele>2085.3</ele>
        <time>2022-01-19T10:53:54Z</time>
      </trkpt>
      <trkpt lat="44.87831" lon="5.52234">
        <ele>2085.3</ele>
        <time>2022-01-19T10:53:55Z</time>
      </trkpt>
      <trkpt lat="44.87831" lon="5.52234">
        <ele>2085.3</ele>
        <time>2022-01-19T10:53:56Z</time>
      </trkpt>
      <trkpt lat="44.87831" lon="5.52234">
        <ele>2085.3</ele>
        <time>2022-01-19T10:53:57Z</time>
      </trkpt>
      <trkpt lat="44.87831" lon="5.52234">
        <ele>2085.3</ele>
        <time>2022-01-19T10:53:58Z</time>
      </trkpt>
      <trkpt lat="44.87831" lon="5.52234">
        <ele>2085.3</ele>
        <time>2022-01-19T10:53:59Z</time>
      </trkpt>
      <trkpt lat="44.87831" lon="5.52234">
        <ele>2085.3</ele>
        <time>2022-01-19T10:54:00Z</time>
      </trkpt>
      <trkpt lat="44.87831" lon="5.52231">
        <ele>2085.4</ele>
        <time>2022-01-19T10:54:01Z</time>
      </trkpt>
      <trkpt lat="44.87831" lon="5.5223">
        <ele>2085.4</ele>
        <time>2022-01-19T10:54:02Z</time>
      </trkpt>
      <trkpt lat="44.8783" lon="5.52229">
        <ele>2085.5</ele>
        <time>2022-01-19T10:54:03Z</time>
      </trkpt>
      <trkpt lat="44.8783" lon="5.52229">
        <ele>2085.5</ele>
        <time>2022-01-19T10:54:04Z</time>
      </trkpt>
      <trkpt lat="44.8783" lon="5.5223">
        <ele>2085.5</ele>
        <time>2022-01-19T10:54:05Z</time>
      </trkpt>
      <trkpt lat="44.87829" lon="5.5223">
        <ele>2085.6</ele>
        <time>2022-01-19T10:54:06Z</time>
      </trkpt>
      <trkpt lat="44.87828" lon="5.52231">
        <ele>2085.6</ele>
        <time>2022-01-19T10:54:07Z</time>
      </trkpt>
      <trkpt lat="44.87827" lon="5.52231">
        <ele>2085.6</ele>
        <time>2022-01-19T10:54:08Z</time>
      </trkpt>
      <trkpt lat="44.87826" lon="5.52231">
        <ele>2085.7</ele>
        <time>2022-01-19T10:54:09Z</time>
      </trkpt>
      <trkpt lat="44.87826" lon="5.52231">
        <ele>2085.7</ele>
        <time>2022-01-19T10:54:10Z</time>
      </trkpt>
      <trkpt lat="44.87825" lon="5.52231">
        <ele>2085.8</ele>
        <time>2022-01-19T10:54:11Z</time>
      </trkpt>
      <trkpt lat="44.87824" lon="5.52231">
        <ele>2085.8</ele>
        <time>2022-01-19T10:54:12Z</time>
      </trkpt>
      <trkpt lat="44.87823" lon="5.52231">
        <ele>2085.9</ele>
        <time>2022-01-19T10:54:13Z</time>
      </trkpt>
      <trkpt lat="44.87822" lon="5.52231">
        <ele>2085.9</ele>
        <time>2022-01-19T10:54:14Z</time>
      </trkpt>
      <trkpt lat="44.87822" lon="5.52231">
        <ele>2086</ele>
        <time>2022-01-19T10:54:15Z</time>
      </trkpt>
      <trkpt lat="44.87821" lon="5.5223">
        <ele>2086</ele>
        <time>2022-01-19T10:54:16Z</time>
      </trkpt>
      <trkpt lat="44.8782" lon="5.5223">
        <ele>2086.1</ele>
        <time>2022-01-19T10:54:17Z</time>
      </trkpt>
      <trkpt lat="44.87819" lon="5.5223">
        <ele>2086.1</ele>
        <time>2022-01-19T10:54:18Z</time>
      </trkpt>
      <trkpt lat="44.87819" lon="5.52229">
        <ele>2086.2</ele>
        <time>2022-01-19T10:54:19Z</time>
      </trkpt>
      <trkpt lat="44.87818" lon="5.52229">
        <ele>2086.2</ele>
        <time>2022-01-19T10:54:20Z</time>
      </trkpt>
      <trkpt lat="44.87817" lon="5.52229">
        <ele>2086.3</ele>
        <time>2022-01-19T10:54:21Z</time>
      </trkpt>
      <trkpt lat="44.87816" lon="5.52229">
        <ele>2086.4</ele>
        <time>2022-01-19T10:54:22Z</time>
      </trkpt>
      <trkpt lat="44.87816" lon="5.52229">
        <ele>2086.4</ele>
        <time>2022-01-19T10:54:23Z</time>
      </trkpt>
      <trkpt lat="44.87814" lon="5.52228">
        <ele>2086.5</ele>
        <time>2022-01-19T10:54:24Z</time>
      </trkpt>
      <trkpt lat="44.87814" lon="5.52227">
        <ele>2086.6</ele>
        <time>2022-01-19T10:54:25Z</time>
      </trkpt>
      <trkpt lat="44.87813" lon="5.52227">
        <ele>2086.6</ele>
        <time>2022-01-19T10:54:26Z</time>
      </trkpt>
      <trkpt lat="44.87813" lon="5.52227">
        <ele>2086.6</ele>
        <time>2022-01-19T10:54:27Z</time>
      </trkpt>
      <trkpt lat="44.87812" lon="5.52226">
        <ele>2086.7</ele>
        <time>2022-01-19T10:54:28Z</time>
      </trkpt>
      <trkpt lat="44.87811" lon="5.52225">
        <ele>2086.8</ele>
        <time>2022-01-19T10:54:29Z</time>
      </trkpt>
      <trkpt lat="44.8781" lon="5.52225">
        <ele>2086.9</ele>
        <time>2022-01-19T10:54:30Z</time>
      </trkpt>
      <trkpt lat="44.8781" lon="5.52225">
        <ele>2086.9</ele>
        <time>2022-01-19T10:54:31Z</time>
      </trkpt>
      <trkpt lat="44.87809" lon="5.52225">
        <ele>2087</ele>
        <time>2022-01-19T10:54:32Z</time>
      </trkpt>
      <trkpt lat="44.87808" lon="5.52226">
        <ele>2087.1</ele>
        <time>2022-01-19T10:54:33Z</time>
      </trkpt>
      <trkpt lat="44.87806" lon="5.52227">
        <ele>2087.2</ele>
        <time>2022-01-19T10:54:34Z</time>
      </trkpt>
      <trkpt lat="44.87805" lon="5.52227">
        <ele>2087.3</ele>
        <time>2022-01-19T10:54:35Z</time>
      </trkpt>
      <trkpt lat="44.87805" lon="5.52227">
        <ele>2087.4</ele>
        <time>2022-01-19T10:54:36Z</time>
      </trkpt>
      <trkpt lat="44.87804" lon="5.52226">
        <ele>2087.5</ele>
        <time>2022-01-19T10:54:37Z</time>
      </trkpt>
      <trkpt lat="44.87803" lon="5.52226">
        <ele>2087.5</ele>
        <time>2022-01-19T10:54:38Z</time>
      </trkpt>
      <trkpt lat="44.87803" lon="5.52225">
        <ele>2087.6</ele>
        <time>2022-01-19T10:54:39Z</time>
      </trkpt>
      <trkpt lat="44.87801" lon="5.52225">
        <ele>2087.7</ele>
        <time>2022-01-19T10:54:40Z</time>
      </trkpt>
      <trkpt lat="44.87801" lon="5.52225">
        <ele>2087.7</ele>
        <time>2022-01-19T10:54:41Z</time>
      </trkpt>
      <trkpt lat="44.87801" lon="5.52224">
        <ele>2087.8</ele>
        <time>2022-01-19T10:54:42Z</time>
      </trkpt>
      <trkpt lat="44.878" lon="5.52224">
        <ele>2087.8</ele>
        <time>2022-01-19T10:54:43Z</time>
      </trkpt>
      <trkpt lat="44.87799" lon="5.52224">
        <ele>2087.9</ele>
        <time>2022-01-19T10:54:44Z</time>
      </trkpt>
      <trkpt lat="44.87799" lon="5.52223">
        <ele>2088</ele>
        <time>2022-01-19T10:54:45Z</time>
      </trkpt>
      <trkpt lat="44.87798" lon="5.52223">
        <ele>2088</ele>
        <time>2022-01-19T10:54:46Z</time>
      </trkpt>
      <trkpt lat="44.87797" lon="5.52223">
        <ele>2088.1</ele>
        <time>2022-01-19T10:54:47Z</time>
      </trkpt>
      <trkpt lat="44.87796" lon="5.52222">
        <ele>2088.2</ele>
        <time>2022-01-19T10:54:48Z</time>
      </trkpt>
      <trkpt lat="44.87796" lon="5.52222">
        <ele>2088.3</ele>
        <time>2022-01-19T10:54:49Z</time>
      </trkpt>
      <trkpt lat="44.87795" lon="5.52221">
        <ele>2088.3</ele>
        <time>2022-01-19T10:54:50Z</time>
      </trkpt>
      <trkpt lat="44.87794" lon="5.52221">
        <ele>2088.5</ele>
        <time>2022-01-19T10:54:51Z</time>
      </trkpt>
      <trkpt lat="44.87793" lon="5.52221">
        <ele>2088.6</ele>
        <time>2022-01-19T10:54:52Z</time>
      </trkpt>
      <trkpt lat="44.87792" lon="5.52221">
        <ele>2088.6</ele>
        <time>2022-01-19T10:54:53Z</time>
      </trkpt>
      <trkpt lat="44.87792" lon="5.5222">
        <ele>2088.7</ele>
        <time>2022-01-19T10:54:54Z</time>
      </trkpt>
      <trkpt lat="44.87791" lon="5.5222">
        <ele>2088.8</ele>
        <time>2022-01-19T10:54:55Z</time>
      </trkpt>
      <trkpt lat="44.8779" lon="5.5222">
        <ele>2088.9</ele>
        <time>2022-01-19T10:54:56Z</time>
      </trkpt>
      <trkpt lat="44.8779" lon="5.52219">
        <ele>2089</ele>
        <time>2022-01-19T10:54:57Z</time>
      </trkpt>
      <trkpt lat="44.87789" lon="5.52218">
        <ele>2089.1</ele>
        <time>2022-01-19T10:54:58Z</time>
      </trkpt>
      <trkpt lat="44.87788" lon="5.52218">
        <ele>2089.2</ele>
        <time>2022-01-19T10:54:59Z</time>
      </trkpt>
      <trkpt lat="44.87787" lon="5.52217">
        <ele>2089.3</ele>
        <time>2022-01-19T10:55:00Z</time>
      </trkpt>
      <trkpt lat="44.87786" lon="5.52218">
        <ele>2089.4</ele>
        <time>2022-01-19T10:55:01Z</time>
      </trkpt>
      <trkpt lat="44.87785" lon="5.52217">
        <ele>2089.5</ele>
        <time>2022-01-19T10:55:02Z</time>
      </trkpt>
      <trkpt lat="44.87785" lon="5.52217">
        <ele>2089.6</ele>
        <time>2022-01-19T10:55:03Z</time>
      </trkpt>
      <trkpt lat="44.87785" lon="5.52217">
        <ele>2089.6</ele>
        <time>2022-01-19T10:55:04Z</time>
      </trkpt>
      <trkpt lat="44.87784" lon="5.52216">
        <ele>2089.7</ele>
        <time>2022-01-19T10:55:05Z</time>
      </trkpt>
      <trkpt lat="44.87784" lon="5.52215">
        <ele>2089.8</ele>
        <time>2022-01-19T10:55:06Z</time>
      </trkpt>
      <trkpt lat="44.87783" lon="5.52215">
        <ele>2089.9</ele>
        <time>2022-01-19T10:55:07Z</time>
      </trkpt>
      <trkpt lat="44.87783" lon="5.52215">
        <ele>2089.9</ele>
        <time>2022-01-19T10:55:08Z</time>
      </trkpt>
      <trkpt lat="44.87782" lon="5.52214">
        <ele>2090</ele>
        <time>2022-01-19T10:55:09Z</time>
      </trkpt>
      <trkpt lat="44.87782" lon="5.52214">
        <ele>2090.1</ele>
        <time>2022-01-19T10:55:10Z</time>
      </trkpt>
      <trkpt lat="44.87781" lon="5.52213">
        <ele>2090.2</ele>
        <time>2022-01-19T10:55:11Z</time>
      </trkpt>
      <trkpt lat="44.8778" lon="5.52213">
        <ele>2090.3</ele>
        <time>2022-01-19T10:55:12Z</time>
      </trkpt>
      <trkpt lat="44.8778" lon="5.52213">
        <ele>2090.4</ele>
        <time>2022-01-19T10:55:13Z</time>
      </trkpt>
      <trkpt lat="44.87779" lon="5.52212">
        <ele>2090.5</ele>
        <time>2022-01-19T10:55:14Z</time>
      </trkpt>
      <trkpt lat="44.87779" lon="5.52212">
        <ele>2090.6</ele>
        <time>2022-01-19T10:55:15Z</time>
      </trkpt>
      <trkpt lat="44.87779" lon="5.52212">
        <ele>2090.6</ele>
        <time>2022-01-19T10:55:16Z</time>
      </trkpt>
      <trkpt lat="44.87778" lon="5.52212">
        <ele>2090.7</ele>
        <time>2022-01-19T10:55:17Z</time>
      </trkpt>
      <trkpt lat="44.87777" lon="5.52211">
        <ele>2090.8</ele>
        <time>2022-01-19T10:55:18Z</time>
      </trkpt>
      <trkpt lat="44.87777" lon="5.52211">
        <ele>2090.8</ele>
        <time>2022-01-19T10:55:19Z</time>
      </trkpt>
      <trkpt lat="44.87776" lon="5.52211">
        <ele>2090.9</ele>
        <time>2022-01-19T10:55:20Z</time>
      </trkpt>
      <trkpt lat="44.87777" lon="5.52211">
        <ele>2090.9</ele>
        <time>2022-01-19T10:55:21Z</time>
      </trkpt>
      <trkpt lat="44.87776" lon="5.52211">
        <ele>2091</ele>
        <time>2022-01-19T10:55:22Z</time>
      </trkpt>
      <trkpt lat="44.87775" lon="5.52211">
        <ele>2091.1</ele>
        <time>2022-01-19T10:55:23Z</time>
      </trkpt>
      <trkpt lat="44.87775" lon="5.52211">
        <ele>2091.1</ele>
        <time>2022-01-19T10:55:24Z</time>
      </trkpt>
      <trkpt lat="44.87775" lon="5.52211">
        <ele>2091.1</ele>
        <time>2022-01-19T10:55:25Z</time>
      </trkpt>
      <trkpt lat="44.87775" lon="5.52211">
        <ele>2091.1</ele>
        <time>2022-01-19T10:55:26Z</time>
      </trkpt>
      <trkpt lat="44.87775" lon="5.52211">
        <ele>2091.1</ele>
        <time>2022-01-19T10:55:27Z</time>
      </trkpt>
      <trkpt lat="44.87773" lon="5.52212">
        <ele>2091.5</ele>
        <time>2022-01-19T10:55:28Z</time>
      </trkpt>
      <trkpt lat="44.87772" lon="5.52211">
        <ele>2091.6</ele>
        <time>2022-01-19T10:55:29Z</time>
      </trkpt>
      <trkpt lat="44.87772" lon="5.52211">
        <ele>2091.7</ele>
        <time>2022-01-19T10:55:30Z</time>
      </trkpt>
      <trkpt lat="44.87772" lon="5.5221">
        <ele>2091.7</ele>
        <time>2022-01-19T10:55:31Z</time>
      </trkpt>
      <trkpt lat="44.87772" lon="5.5221">
        <ele>2091.8</ele>
        <time>2022-01-19T10:55:32Z</time>
      </trkpt>
      <trkpt lat="44.87772" lon="5.5221">
        <ele>2091.8</ele>
        <time>2022-01-19T10:55:33Z</time>
      </trkpt>
      <trkpt lat="44.87772" lon="5.5221">
        <ele>2091.8</ele>
        <time>2022-01-19T10:55:34Z</time>
      </trkpt>
      <trkpt lat="44.87772" lon="5.5221">
        <ele>2091.8</ele>
        <time>2022-01-19T10:55:35Z</time>
      </trkpt>
      <trkpt lat="44.87772" lon="5.5221">
        <ele>2091.8</ele>
        <time>2022-01-19T10:55:36Z</time>
      </trkpt>
      <trkpt lat="44.87771" lon="5.52208">
        <ele>2092.1</ele>
        <time>2022-01-19T10:55:37Z</time>
      </trkpt>
      <trkpt lat="44.87769" lon="5.52209">
        <ele>2092.3</ele>
        <time>2022-01-19T10:55:38Z</time>
      </trkpt>
      <trkpt lat="44.87769" lon="5.52208">
        <ele>2092.4</ele>
        <time>2022-01-19T10:55:39Z</time>
      </trkpt>
      <trkpt lat="44.87769" lon="5.52208">
        <ele>2092.4</ele>
        <time>2022-01-19T10:55:40Z</time>
      </trkpt>
      <trkpt lat="44.87768" lon="5.52208">
        <ele>2092.5</ele>
        <time>2022-01-19T10:55:41Z</time>
      </trkpt>
      <trkpt lat="44.87768" lon="5.52208">
        <ele>2092.5</ele>
        <time>2022-01-19T10:55:42Z</time>
      </trkpt>
      <trkpt lat="44.87768" lon="5.52208">
        <ele>2092.6</ele>
        <time>2022-01-19T10:55:43Z</time>
      </trkpt>
      <trkpt lat="44.87767" lon="5.52208">
        <ele>2092.6</ele>
        <time>2022-01-19T10:55:44Z</time>
      </trkpt>
      <trkpt lat="44.87767" lon="5.52208">
        <ele>2092.7</ele>
        <time>2022-01-19T10:55:45Z</time>
      </trkpt>
      <trkpt lat="44.87766" lon="5.52208">
        <ele>2092.7</ele>
        <time>2022-01-19T10:55:46Z</time>
      </trkpt>
      <trkpt lat="44.87766" lon="5.52208">
        <ele>2092.8</ele>
        <time>2022-01-19T10:55:47Z</time>
      </trkpt>
      <trkpt lat="44.87766" lon="5.52208">
        <ele>2092.8</ele>
        <time>2022-01-19T10:55:48Z</time>
      </trkpt>
      <trkpt lat="44.87765" lon="5.52208">
        <ele>2092.9</ele>
        <time>2022-01-19T10:55:49Z</time>
      </trkpt>
      <trkpt lat="44.87765" lon="5.52208">
        <ele>2093</ele>
        <time>2022-01-19T10:55:50Z</time>
      </trkpt>
      <trkpt lat="44.87764" lon="5.52208">
        <ele>2093</ele>
        <time>2022-01-19T10:55:51Z</time>
      </trkpt>
      <trkpt lat="44.87764" lon="5.52208">
        <ele>2093.1</ele>
        <time>2022-01-19T10:55:52Z</time>
      </trkpt>
      <trkpt lat="44.87764" lon="5.52208">
        <ele>2093.1</ele>
        <time>2022-01-19T10:55:53Z</time>
      </trkpt>
      <trkpt lat="44.87763" lon="5.52208">
        <ele>2093.2</ele>
        <time>2022-01-19T10:55:54Z</time>
      </trkpt>
      <trkpt lat="44.87763" lon="5.52208">
        <ele>2093.2</ele>
        <time>2022-01-19T10:55:55Z</time>
      </trkpt>
      <trkpt lat="44.87762" lon="5.52208">
        <ele>2093.3</ele>
        <time>2022-01-19T10:55:56Z</time>
      </trkpt>
      <trkpt lat="44.87762" lon="5.52208">
        <ele>2093.3</ele>
        <time>2022-01-19T10:55:57Z</time>
      </trkpt>
      <trkpt lat="44.87762" lon="5.52208">
        <ele>2093.4</ele>
        <time>2022-01-19T10:55:58Z</time>
      </trkpt>
      <trkpt lat="44.87761" lon="5.52208">
        <ele>2093.4</ele>
        <time>2022-01-19T10:55:59Z</time>
      </trkpt>
      <trkpt lat="44.87761" lon="5.52208">
        <ele>2093.5</ele>
        <time>2022-01-19T10:56:00Z</time>
      </trkpt>
      <trkpt lat="44.8776" lon="5.52208">
        <ele>2093.6</ele>
        <time>2022-01-19T10:56:01Z</time>
      </trkpt>
      <trkpt lat="44.8776" lon="5.52208">
        <ele>2093.6</ele>
        <time>2022-01-19T10:56:02Z</time>
      </trkpt>
      <trkpt lat="44.8776" lon="5.52208">
        <ele>2093.7</ele>
        <time>2022-01-19T10:56:03Z</time>
      </trkpt>
      <trkpt lat="44.87759" lon="5.52208">
        <ele>2093.7</ele>
        <time>2022-01-19T10:56:04Z</time>
      </trkpt>
      <trkpt lat="44.87759" lon="5.52208">
        <ele>2093.8</ele>
        <time>2022-01-19T10:56:05Z</time>
      </trkpt>
      <trkpt lat="44.87759" lon="5.52208">
        <ele>2093.8</ele>
        <time>2022-01-19T10:56:06Z</time>
      </trkpt>
      <trkpt lat="44.87758" lon="5.52208">
        <ele>2093.9</ele>
        <time>2022-01-19T10:56:07Z</time>
      </trkpt>
      <trkpt lat="44.87758" lon="5.52208">
        <ele>2093.9</ele>
        <time>2022-01-19T10:56:08Z</time>
      </trkpt>
      <trkpt lat="44.87757" lon="5.52208">
        <ele>2094</ele>
        <time>2022-01-19T10:56:09Z</time>
      </trkpt>
      <trkpt lat="44.87757" lon="5.52208">
        <ele>2094.1</ele>
        <time>2022-01-19T10:56:10Z</time>
      </trkpt>
      <trkpt lat="44.87757" lon="5.52208">
        <ele>2094.1</ele>
        <time>2022-01-19T10:56:11Z</time>
      </trkpt>
      <trkpt lat="44.87756" lon="5.52208">
        <ele>2094.2</ele>
        <time>2022-01-19T10:56:12Z</time>
      </trkpt>
      <trkpt lat="44.87756" lon="5.52208">
        <ele>2094.2</ele>
        <time>2022-01-19T10:56:13Z</time>
      </trkpt>
      <trkpt lat="44.87755" lon="5.52207">
        <ele>2094.3</ele>
        <time>2022-01-19T10:56:14Z</time>
      </trkpt>
      <trkpt lat="44.87755" lon="5.52207">
        <ele>2094.3</ele>
        <time>2022-01-19T10:56:15Z</time>
      </trkpt>
      <trkpt lat="44.87755" lon="5.52207">
        <ele>2094.4</ele>
        <time>2022-01-19T10:56:16Z</time>
      </trkpt>
      <trkpt lat="44.87754" lon="5.52207">
        <ele>2094.5</ele>
        <time>2022-01-19T10:56:17Z</time>
      </trkpt>
      <trkpt lat="44.87754" lon="5.52207">
        <ele>2094.5</ele>
        <time>2022-01-19T10:56:18Z</time>
      </trkpt>
      <trkpt lat="44.87753" lon="5.52207">
        <ele>2094.6</ele>
        <time>2022-01-19T10:56:19Z</time>
      </trkpt>
      <trkpt lat="44.87753" lon="5.52207">
        <ele>2094.7</ele>
        <time>2022-01-19T10:56:20Z</time>
      </trkpt>
      <trkpt lat="44.87752" lon="5.52207">
        <ele>2094.8</ele>
        <time>2022-01-19T10:56:21Z</time>
      </trkpt>
      <trkpt lat="44.87752" lon="5.52207">
        <ele>2094.8</ele>
        <time>2022-01-19T10:56:22Z</time>
      </trkpt>
      <trkpt lat="44.87751" lon="5.52208">
        <ele>2094.9</ele>
        <time>2022-01-19T10:56:23Z</time>
      </trkpt>
      <trkpt lat="44.87751" lon="5.52208">
        <ele>2094.9</ele>
        <time>2022-01-19T10:56:24Z</time>
      </trkpt>
      <trkpt lat="44.87751" lon="5.52208">
        <ele>2094.9</ele>
        <time>2022-01-19T10:56:25Z</time>
      </trkpt>
      <trkpt lat="44.87751" lon="5.52208">
        <ele>2094.9</ele>
        <time>2022-01-19T10:56:26Z</time>
      </trkpt>
      <trkpt lat="44.87751" lon="5.52208">
        <ele>2094.9</ele>
        <time>2022-01-19T10:56:27Z</time>
      </trkpt>
      <trkpt lat="44.87749" lon="5.52208">
        <ele>2095.2</ele>
        <time>2022-01-19T10:56:28Z</time>
      </trkpt>
      <trkpt lat="44.87748" lon="5.52208">
        <ele>2095.4</ele>
        <time>2022-01-19T10:56:29Z</time>
      </trkpt>
      <trkpt lat="44.87748" lon="5.52208">
        <ele>2095.5</ele>
        <time>2022-01-19T10:56:30Z</time>
      </trkpt>
      <trkpt lat="44.87748" lon="5.52208">
        <ele>2095.5</ele>
        <time>2022-01-19T10:56:31Z</time>
      </trkpt>
      <trkpt lat="44.87747" lon="5.52208">
        <ele>2095.6</ele>
        <time>2022-01-19T10:56:32Z</time>
      </trkpt>
      <trkpt lat="44.87747" lon="5.52208">
        <ele>2095.7</ele>
        <time>2022-01-19T10:56:33Z</time>
      </trkpt>
      <trkpt lat="44.87746" lon="5.52208">
        <ele>2095.7</ele>
        <time>2022-01-19T10:56:34Z</time>
      </trkpt>
      <trkpt lat="44.87746" lon="5.52208">
        <ele>2095.8</ele>
        <time>2022-01-19T10:56:35Z</time>
      </trkpt>
      <trkpt lat="44.87746" lon="5.52207">
        <ele>2095.9</ele>
        <time>2022-01-19T10:56:36Z</time>
      </trkpt>
      <trkpt lat="44.87746" lon="5.52207">
        <ele>2095.9</ele>
        <time>2022-01-19T10:56:37Z</time>
      </trkpt>
      <trkpt lat="44.87746" lon="5.52207">
        <ele>2095.9</ele>
        <time>2022-01-19T10:56:38Z</time>
      </trkpt>
      <trkpt lat="44.87746" lon="5.52207">
        <ele>2095.9</ele>
        <time>2022-01-19T10:56:39Z</time>
      </trkpt>
      <trkpt lat="44.87746" lon="5.52207">
        <ele>2095.9</ele>
        <time>2022-01-19T10:56:40Z</time>
      </trkpt>
      <trkpt lat="44.87746" lon="5.52207">
        <ele>2095.9</ele>
        <time>2022-01-19T10:56:41Z</time>
      </trkpt>
      <trkpt lat="44.87746" lon="5.52207">
        <ele>2095.9</ele>
        <time>2022-01-19T10:56:42Z</time>
      </trkpt>
      <trkpt lat="44.87746" lon="5.52207">
        <ele>2095.9</ele>
        <time>2022-01-19T10:56:43Z</time>
      </trkpt>
      <trkpt lat="44.87746" lon="5.52207">
        <ele>2095.9</ele>
        <time>2022-01-19T10:56:44Z</time>
      </trkpt>
      <trkpt lat="44.87746" lon="5.52207">
        <ele>2095.9</ele>
        <time>2022-01-19T10:56:45Z</time>
      </trkpt>
      <trkpt lat="44.87746" lon="5.52207">
        <ele>2095.9</ele>
        <time>2022-01-19T10:56:46Z</time>
      </trkpt>
      <trkpt lat="44.87746" lon="5.52207">
        <ele>2095.9</ele>
        <time>2022-01-19T10:56:47Z</time>
      </trkpt>
      <trkpt lat="44.87746" lon="5.52207">
        <ele>2095.9</ele>
        <time>2022-01-19T10:56:48Z</time>
      </trkpt>
      <trkpt lat="44.87746" lon="5.52207">
        <ele>2095.9</ele>
        <time>2022-01-19T10:56:49Z</time>
      </trkpt>
      <trkpt lat="44.87746" lon="5.52207">
        <ele>2095.9</ele>
        <time>2022-01-19T10:56:50Z</time>
      </trkpt>
      <trkpt lat="44.8774" lon="5.52206">
        <ele>2096.8</ele>
        <time>2022-01-19T10:56:51Z</time>
      </trkpt>
      <trkpt lat="44.87739" lon="5.52206">
        <ele>2096.9</ele>
        <time>2022-01-19T10:56:52Z</time>
      </trkpt>
      <trkpt lat="44.87738" lon="5.52206">
        <ele>2096.9</ele>
        <time>2022-01-19T10:56:53Z</time>
      </trkpt>
      <trkpt lat="44.87738" lon="5.52206">
        <ele>2096.9</ele>
        <time>2022-01-19T10:56:54Z</time>
      </trkpt>
      <trkpt lat="44.87738" lon="5.52206">
        <ele>2096.9</ele>
        <time>2022-01-19T10:56:55Z</time>
      </trkpt>
      <trkpt lat="44.87738" lon="5.52206">
        <ele>2096.9</ele>
        <time>2022-01-19T10:56:56Z</time>
      </trkpt>
      <trkpt lat="44.87738" lon="5.52206">
        <ele>2096.9</ele>
        <time>2022-01-19T10:56:57Z</time>
      </trkpt>
      <trkpt lat="44.87738" lon="5.52206">
        <ele>2096.9</ele>
        <time>2022-01-19T10:56:58Z</time>
      </trkpt>
      <trkpt lat="44.87738" lon="5.52206">
        <ele>2096.9</ele>
        <time>2022-01-19T10:56:59Z</time>
      </trkpt>
      <trkpt lat="44.87738" lon="5.52206">
        <ele>2096.9</ele>
        <time>2022-01-19T10:57:00Z</time>
      </trkpt>
      <trkpt lat="44.87738" lon="5.52206">
        <ele>2096.9</ele>
        <time>2022-01-19T10:57:01Z</time>
      </trkpt>
      <trkpt lat="44.87738" lon="5.52206">
        <ele>2096.9</ele>
        <time>2022-01-19T10:57:02Z</time>
      </trkpt>
      <trkpt lat="44.87738" lon="5.52206">
        <ele>2096.9</ele>
        <time>2022-01-19T10:57:03Z</time>
      </trkpt>
      <trkpt lat="44.87738" lon="5.52206">
        <ele>2096.9</ele>
        <time>2022-01-19T10:57:04Z</time>
      </trkpt>
      <trkpt lat="44.87738" lon="5.52206">
        <ele>2096.9</ele>
        <time>2022-01-19T10:57:05Z</time>
      </trkpt>
      <trkpt lat="44.87738" lon="5.52206">
        <ele>2096.9</ele>
        <time>2022-01-19T10:57:06Z</time>
      </trkpt>
      <trkpt lat="44.87738" lon="5.52206">
        <ele>2096.9</ele>
        <time>2022-01-19T10:57:07Z</time>
      </trkpt>
      <trkpt lat="44.87738" lon="5.52206">
        <ele>2096.9</ele>
        <time>2022-01-19T10:57:08Z</time>
      </trkpt>
      <trkpt lat="44.87738" lon="5.52206">
        <ele>2096.9</ele>
        <time>2022-01-19T10:57:09Z</time>
      </trkpt>
      <trkpt lat="44.87738" lon="5.52206">
        <ele>2096.9</ele>
        <time>2022-01-19T10:57:10Z</time>
      </trkpt>
      <trkpt lat="44.87738" lon="5.52206">
        <ele>2096.9</ele>
        <time>2022-01-19T10:57:11Z</time>
      </trkpt>
      <trkpt lat="44.87738" lon="5.52206">
        <ele>2096.9</ele>
        <time>2022-01-19T10:57:12Z</time>
      </trkpt>
      <trkpt lat="44.87738" lon="5.52206">
        <ele>2096.9</ele>
        <time>2022-01-19T10:57:13Z</time>
      </trkpt>
      <trkpt lat="44.87738" lon="5.52206">
        <ele>2096.9</ele>
        <time>2022-01-19T10:57:14Z</time>
      </trkpt>
      <trkpt lat="44.87738" lon="5.52206">
        <ele>2096.9</ele>
        <time>2022-01-19T10:57:15Z</time>
      </trkpt>
      <trkpt lat="44.87738" lon="5.52206">
        <ele>2096.9</ele>
        <time>2022-01-19T10:57:16Z</time>
      </trkpt>
      <trkpt lat="44.87738" lon="5.52206">
        <ele>2096.9</ele>
        <time>2022-01-19T10:57:17Z</time>
      </trkpt>
      <trkpt lat="44.87738" lon="5.52206">
        <ele>2096.9</ele>
        <time>2022-01-19T10:57:18Z</time>
      </trkpt>
      <trkpt lat="44.87738" lon="5.52206">
        <ele>2096.9</ele>
        <time>2022-01-19T10:57:19Z</time>
      </trkpt>
      <trkpt lat="44.87738" lon="5.52206">
        <ele>2096.9</ele>
        <time>2022-01-19T10:57:20Z</time>
      </trkpt>
      <trkpt lat="44.87738" lon="5.52206">
        <ele>2096.9</ele>
        <time>2022-01-19T10:57:21Z</time>
      </trkpt>
      <trkpt lat="44.87738" lon="5.52206">
        <ele>2096.9</ele>
        <time>2022-01-19T10:57:22Z</time>
      </trkpt>
      <trkpt lat="44.87738" lon="5.52206">
        <ele>2096.9</ele>
        <time>2022-01-19T10:57:23Z</time>
      </trkpt>
      <trkpt lat="44.87736" lon="5.52205">
        <ele>2097.2</ele>
        <time>2022-01-19T10:57:24Z</time>
      </trkpt>
      <trkpt lat="44.87735" lon="5.52205">
        <ele>2097.2</ele>
        <time>2022-01-19T10:57:25Z</time>
      </trkpt>
      <trkpt lat="44.87735" lon="5.52205">
        <ele>2097.2</ele>
        <time>2022-01-19T10:57:26Z</time>
      </trkpt>
      <trkpt lat="44.87734" lon="5.52204">
        <ele>2096.3</ele>
        <time>2022-01-19T10:57:27Z</time>
      </trkpt>
      <trkpt lat="44.87734" lon="5.52204">
        <ele>2096.5</ele>
        <time>2022-01-19T10:57:28Z</time>
      </trkpt>
      <trkpt lat="44.87733" lon="5.52203">
        <ele>2096.5</ele>
        <time>2022-01-19T10:57:29Z</time>
      </trkpt>
      <trkpt lat="44.87732" lon="5.52203">
        <ele>2096.5</ele>
        <time>2022-01-19T10:57:30Z</time>
      </trkpt>
      <trkpt lat="44.87731" lon="5.52203">
        <ele>2096.8</ele>
        <time>2022-01-19T10:57:31Z</time>
      </trkpt>
      <trkpt lat="44.8773" lon="5.52202">
        <ele>2096.8</ele>
        <time>2022-01-19T10:57:32Z</time>
      </trkpt>
      <trkpt lat="44.8773" lon="5.52201">
        <ele>2096.8</ele>
        <time>2022-01-19T10:57:33Z</time>
      </trkpt>
      <trkpt lat="44.87729" lon="5.52201">
        <ele>2096.8</ele>
        <time>2022-01-19T10:57:34Z</time>
      </trkpt>
      <trkpt lat="44.87728" lon="5.522">
        <ele>2095.9</ele>
        <time>2022-01-19T10:57:35Z</time>
      </trkpt>
      <trkpt lat="44.87727" lon="5.52199">
        <ele>2096.2</ele>
        <time>2022-01-19T10:57:36Z</time>
      </trkpt>
      <trkpt lat="44.87726" lon="5.52198">
        <ele>2096.2</ele>
        <time>2022-01-19T10:57:37Z</time>
      </trkpt>
      <trkpt lat="44.87726" lon="5.52198">
        <ele>2096.2</ele>
        <time>2022-01-19T10:57:38Z</time>
      </trkpt>
      <trkpt lat="44.87725" lon="5.52197">
        <ele>2096.5</ele>
        <time>2022-01-19T10:57:39Z</time>
      </trkpt>
      <trkpt lat="44.87724" lon="5.52197">
        <ele>2096.5</ele>
        <time>2022-01-19T10:57:40Z</time>
      </trkpt>
      <trkpt lat="44.87723" lon="5.52196">
        <ele>2096.5</ele>
        <time>2022-01-19T10:57:41Z</time>
      </trkpt>
      <trkpt lat="44.87722" lon="5.52196">
        <ele>2095.8</ele>
        <time>2022-01-19T10:57:42Z</time>
      </trkpt>
      <trkpt lat="44.87721" lon="5.52196">
        <ele>2095.8</ele>
        <time>2022-01-19T10:57:43Z</time>
      </trkpt>
      <trkpt lat="44.87721" lon="5.52195">
        <ele>2095.8</ele>
        <time>2022-01-19T10:57:44Z</time>
      </trkpt>
      <trkpt lat="44.8772" lon="5.52195">
        <ele>2095.8</ele>
        <time>2022-01-19T10:57:45Z</time>
      </trkpt>
      <trkpt lat="44.87719" lon="5.52194">
        <ele>2095.8</ele>
        <time>2022-01-19T10:57:46Z</time>
      </trkpt>
      <trkpt lat="44.87718" lon="5.52194">
        <ele>2096</ele>
        <time>2022-01-19T10:57:47Z</time>
      </trkpt>
      <trkpt lat="44.87718" lon="5.52193">
        <ele>2096</ele>
        <time>2022-01-19T10:57:48Z</time>
      </trkpt>
      <trkpt lat="44.87717" lon="5.52193">
        <ele>2096</ele>
        <time>2022-01-19T10:57:49Z</time>
      </trkpt>
      <trkpt lat="44.87716" lon="5.52193">
        <ele>2096.3</ele>
        <time>2022-01-19T10:57:50Z</time>
      </trkpt>
      <trkpt lat="44.87715" lon="5.52192">
        <ele>2096.3</ele>
        <time>2022-01-19T10:57:51Z</time>
      </trkpt>
      <trkpt lat="44.87714" lon="5.52192">
        <ele>2095.2</ele>
        <time>2022-01-19T10:57:52Z</time>
      </trkpt>
      <trkpt lat="44.87713" lon="5.52191">
        <ele>2095.4</ele>
        <time>2022-01-19T10:57:53Z</time>
      </trkpt>
      <trkpt lat="44.87712" lon="5.5219">
        <ele>2095.4</ele>
        <time>2022-01-19T10:57:54Z</time>
      </trkpt>
      <trkpt lat="44.87711" lon="5.5219">
        <ele>2095.4</ele>
        <time>2022-01-19T10:57:55Z</time>
      </trkpt>
      <trkpt lat="44.8771" lon="5.52189">
        <ele>2095.4</ele>
        <time>2022-01-19T10:57:56Z</time>
      </trkpt>
      <trkpt lat="44.8771" lon="5.52188">
        <ele>2095.6</ele>
        <time>2022-01-19T10:57:57Z</time>
      </trkpt>
      <trkpt lat="44.87709" lon="5.52188">
        <ele>2095.6</ele>
        <time>2022-01-19T10:57:58Z</time>
      </trkpt>
      <trkpt lat="44.87709" lon="5.52187">
        <ele>2094.5</ele>
        <time>2022-01-19T10:57:59Z</time>
      </trkpt>
      <trkpt lat="44.87708" lon="5.52186">
        <ele>2094.5</ele>
        <time>2022-01-19T10:58:00Z</time>
      </trkpt>
      <trkpt lat="44.87708" lon="5.52186">
        <ele>2094.5</ele>
        <time>2022-01-19T10:58:01Z</time>
      </trkpt>
      <trkpt lat="44.87707" lon="5.52185">
        <ele>2094.5</ele>
        <time>2022-01-19T10:58:02Z</time>
      </trkpt>
      <trkpt lat="44.87706" lon="5.52185">
        <ele>2094.7</ele>
        <time>2022-01-19T10:58:03Z</time>
      </trkpt>
      <trkpt lat="44.87706" lon="5.52185">
        <ele>2094.7</ele>
        <time>2022-01-19T10:58:04Z</time>
      </trkpt>
      <trkpt lat="44.87705" lon="5.52184">
        <ele>2094.7</ele>
        <time>2022-01-19T10:58:05Z</time>
      </trkpt>
      <trkpt lat="44.87705" lon="5.52184">
        <ele>2094.7</ele>
        <time>2022-01-19T10:58:06Z</time>
      </trkpt>
      <trkpt lat="44.87704" lon="5.52183">
        <ele>2094.8</ele>
        <time>2022-01-19T10:58:07Z</time>
      </trkpt>
      <trkpt lat="44.87703" lon="5.52183">
        <ele>2093.7</ele>
        <time>2022-01-19T10:58:08Z</time>
      </trkpt>
      <trkpt lat="44.87703" lon="5.52182">
        <ele>2093.7</ele>
        <time>2022-01-19T10:58:09Z</time>
      </trkpt>
      <trkpt lat="44.87702" lon="5.52182">
        <ele>2093.7</ele>
        <time>2022-01-19T10:58:10Z</time>
      </trkpt>
      <trkpt lat="44.87702" lon="5.52181">
        <ele>2093.7</ele>
        <time>2022-01-19T10:58:11Z</time>
      </trkpt>
      <trkpt lat="44.87701" lon="5.52181">
        <ele>2093.7</ele>
        <time>2022-01-19T10:58:12Z</time>
      </trkpt>
      <trkpt lat="44.87701" lon="5.5218">
        <ele>2093.8</ele>
        <time>2022-01-19T10:58:13Z</time>
      </trkpt>
      <trkpt lat="44.877" lon="5.52179">
        <ele>2093.8</ele>
        <time>2022-01-19T10:58:14Z</time>
      </trkpt>
      <trkpt lat="44.877" lon="5.52178">
        <ele>2092.7</ele>
        <time>2022-01-19T10:58:15Z</time>
      </trkpt>
      <trkpt lat="44.87699" lon="5.52178">
        <ele>2092.7</ele>
        <time>2022-01-19T10:58:16Z</time>
      </trkpt>
      <trkpt lat="44.87698" lon="5.52177">
        <ele>2092.7</ele>
        <time>2022-01-19T10:58:17Z</time>
      </trkpt>
      <trkpt lat="44.87697" lon="5.52177">
        <ele>2092.8</ele>
        <time>2022-01-19T10:58:18Z</time>
      </trkpt>
      <trkpt lat="44.87697" lon="5.52176">
        <ele>2092.8</ele>
        <time>2022-01-19T10:58:19Z</time>
      </trkpt>
      <trkpt lat="44.87695" lon="5.52176">
        <ele>2092.8</ele>
        <time>2022-01-19T10:58:20Z</time>
      </trkpt>
      <trkpt lat="44.87694" lon="5.52176">
        <ele>2093</ele>
        <time>2022-01-19T10:58:21Z</time>
      </trkpt>
      <trkpt lat="44.87694" lon="5.52176">
        <ele>2093</ele>
        <time>2022-01-19T10:58:22Z</time>
      </trkpt>
      <trkpt lat="44.87693" lon="5.52175">
        <ele>2093</ele>
        <time>2022-01-19T10:58:23Z</time>
      </trkpt>
      <trkpt lat="44.87692" lon="5.52175">
        <ele>2093</ele>
        <time>2022-01-19T10:58:24Z</time>
      </trkpt>
      <trkpt lat="44.87691" lon="5.52175">
        <ele>2093.2</ele>
        <time>2022-01-19T10:58:25Z</time>
      </trkpt>
      <trkpt lat="44.8769" lon="5.52175">
        <ele>2092</ele>
        <time>2022-01-19T10:58:26Z</time>
      </trkpt>
      <trkpt lat="44.87689" lon="5.52174">
        <ele>2092</ele>
        <time>2022-01-19T10:58:27Z</time>
      </trkpt>
      <trkpt lat="44.87689" lon="5.52174">
        <ele>2092.2</ele>
        <time>2022-01-19T10:58:28Z</time>
      </trkpt>
      <trkpt lat="44.87688" lon="5.52174">
        <ele>2092.2</ele>
        <time>2022-01-19T10:58:29Z</time>
      </trkpt>
      <trkpt lat="44.87687" lon="5.52173">
        <ele>2092.2</ele>
        <time>2022-01-19T10:58:30Z</time>
      </trkpt>
      <trkpt lat="44.87686" lon="5.52174">
        <ele>2092.2</ele>
        <time>2022-01-19T10:58:31Z</time>
      </trkpt>
      <trkpt lat="44.87685" lon="5.52173">
        <ele>2092.4</ele>
        <time>2022-01-19T10:58:32Z</time>
      </trkpt>
      <trkpt lat="44.87685" lon="5.52173">
        <ele>2092.4</ele>
        <time>2022-01-19T10:58:33Z</time>
      </trkpt>
      <trkpt lat="44.87684" lon="5.52173">
        <ele>2092.4</ele>
        <time>2022-01-19T10:58:34Z</time>
      </trkpt>
      <trkpt lat="44.87684" lon="5.52173">
        <ele>2092.4</ele>
        <time>2022-01-19T10:58:35Z</time>
      </trkpt>
      <trkpt lat="44.87683" lon="5.52173">
        <ele>2092.4</ele>
        <time>2022-01-19T10:58:36Z</time>
      </trkpt>
      <trkpt lat="44.87682" lon="5.52173">
        <ele>2092.6</ele>
        <time>2022-01-19T10:58:37Z</time>
      </trkpt>
      <trkpt lat="44.87682" lon="5.52173">
        <ele>2092.6</ele>
        <time>2022-01-19T10:58:38Z</time>
      </trkpt>
      <trkpt lat="44.87681" lon="5.52173">
        <ele>2092.6</ele>
        <time>2022-01-19T10:58:39Z</time>
      </trkpt>
      <trkpt lat="44.8768" lon="5.52173">
        <ele>2092.6</ele>
        <time>2022-01-19T10:58:40Z</time>
      </trkpt>
      <trkpt lat="44.87679" lon="5.52173">
        <ele>2092.7</ele>
        <time>2022-01-19T10:58:41Z</time>
      </trkpt>
      <trkpt lat="44.87678" lon="5.52172">
        <ele>2092.7</ele>
        <time>2022-01-19T10:58:42Z</time>
      </trkpt>
      <trkpt lat="44.87677" lon="5.52172">
        <ele>2092.7</ele>
        <time>2022-01-19T10:58:43Z</time>
      </trkpt>
      <trkpt lat="44.87677" lon="5.52172">
        <ele>2092.7</ele>
        <time>2022-01-19T10:58:44Z</time>
      </trkpt>
      <trkpt lat="44.87676" lon="5.52172">
        <ele>2093</ele>
        <time>2022-01-19T10:58:45Z</time>
      </trkpt>
      <trkpt lat="44.87676" lon="5.52172">
        <ele>2093</ele>
        <time>2022-01-19T10:58:46Z</time>
      </trkpt>
      <trkpt lat="44.87674" lon="5.52172">
        <ele>2093</ele>
        <time>2022-01-19T10:58:47Z</time>
      </trkpt>
      <trkpt lat="44.87674" lon="5.52172">
        <ele>2093</ele>
        <time>2022-01-19T10:58:48Z</time>
      </trkpt>
      <trkpt lat="44.87673" lon="5.52172">
        <ele>2093.3</ele>
        <time>2022-01-19T10:58:49Z</time>
      </trkpt>
      <trkpt lat="44.87673" lon="5.52172">
        <ele>2093.3</ele>
        <time>2022-01-19T10:58:50Z</time>
      </trkpt>
      <trkpt lat="44.87672" lon="5.52172">
        <ele>2093.3</ele>
        <time>2022-01-19T10:58:51Z</time>
      </trkpt>
      <trkpt lat="44.87671" lon="5.52171">
        <ele>2093.3</ele>
        <time>2022-01-19T10:58:52Z</time>
      </trkpt>
      <trkpt lat="44.87671" lon="5.52172">
        <ele>2093.3</ele>
        <time>2022-01-19T10:58:53Z</time>
      </trkpt>
      <trkpt lat="44.8767" lon="5.52172">
        <ele>2093.6</ele>
        <time>2022-01-19T10:58:54Z</time>
      </trkpt>
      <trkpt lat="44.87669" lon="5.52172">
        <ele>2093.6</ele>
        <time>2022-01-19T10:58:55Z</time>
      </trkpt>
      <trkpt lat="44.87669" lon="5.52172">
        <ele>2093.6</ele>
        <time>2022-01-19T10:58:56Z</time>
      </trkpt>
      <trkpt lat="44.87668" lon="5.52172">
        <ele>2093.6</ele>
        <time>2022-01-19T10:58:57Z</time>
      </trkpt>
      <trkpt lat="44.87668" lon="5.52172">
        <ele>2093.6</ele>
        <time>2022-01-19T10:58:58Z</time>
      </trkpt>
      <trkpt lat="44.87667" lon="5.52172">
        <ele>2094</ele>
        <time>2022-01-19T10:58:59Z</time>
      </trkpt>
      <trkpt lat="44.87666" lon="5.52172">
        <ele>2094</ele>
        <time>2022-01-19T10:59:00Z</time>
      </trkpt>
      <trkpt lat="44.87666" lon="5.52172">
        <ele>2094</ele>
        <time>2022-01-19T10:59:01Z</time>
      </trkpt>
      <trkpt lat="44.87665" lon="5.52172">
        <ele>2094</ele>
        <time>2022-01-19T10:59:02Z</time>
      </trkpt>
      <trkpt lat="44.87664" lon="5.52171">
        <ele>2094</ele>
        <time>2022-01-19T10:59:03Z</time>
      </trkpt>
      <trkpt lat="44.87664" lon="5.52171">
        <ele>2094.5</ele>
        <time>2022-01-19T10:59:04Z</time>
      </trkpt>
      <trkpt lat="44.87663" lon="5.52171">
        <ele>2094.5</ele>
        <time>2022-01-19T10:59:05Z</time>
      </trkpt>
      <trkpt lat="44.87663" lon="5.52172">
        <ele>2094.5</ele>
        <time>2022-01-19T10:59:06Z</time>
      </trkpt>
      <trkpt lat="44.87662" lon="5.52172">
        <ele>2094.5</ele>
        <time>2022-01-19T10:59:07Z</time>
      </trkpt>
      <trkpt lat="44.87661" lon="5.52172">
        <ele>2094.5</ele>
        <time>2022-01-19T10:59:08Z</time>
      </trkpt>
      <trkpt lat="44.87661" lon="5.52172">
        <ele>2094.8</ele>
        <time>2022-01-19T10:59:09Z</time>
      </trkpt>
      <trkpt lat="44.8766" lon="5.52172">
        <ele>2094.8</ele>
        <time>2022-01-19T10:59:10Z</time>
      </trkpt>
      <trkpt lat="44.8766" lon="5.52172">
        <ele>2094.8</ele>
        <time>2022-01-19T10:59:11Z</time>
      </trkpt>
      <trkpt lat="44.87659" lon="5.52172">
        <ele>2094.8</ele>
        <time>2022-01-19T10:59:12Z</time>
      </trkpt>
      <trkpt lat="44.87658" lon="5.52172">
        <ele>2094.8</ele>
        <time>2022-01-19T10:59:13Z</time>
      </trkpt>
      <trkpt lat="44.87658" lon="5.52172">
        <ele>2095.2</ele>
        <time>2022-01-19T10:59:14Z</time>
      </trkpt>
      <trkpt lat="44.87657" lon="5.52172">
        <ele>2095.2</ele>
        <time>2022-01-19T10:59:15Z</time>
      </trkpt>
      <trkpt lat="44.87657" lon="5.52172">
        <ele>2095.2</ele>
        <time>2022-01-19T10:59:16Z</time>
      </trkpt>
      <trkpt lat="44.87656" lon="5.52172">
        <ele>2095.2</ele>
        <time>2022-01-19T10:59:17Z</time>
      </trkpt>
      <trkpt lat="44.87655" lon="5.52172">
        <ele>2095.2</ele>
        <time>2022-01-19T10:59:18Z</time>
      </trkpt>
      <trkpt lat="44.87655" lon="5.52173">
        <ele>2095.6</ele>
        <time>2022-01-19T10:59:19Z</time>
      </trkpt>
      <trkpt lat="44.87654" lon="5.52173">
        <ele>2095.6</ele>
        <time>2022-01-19T10:59:20Z</time>
      </trkpt>
      <trkpt lat="44.87653" lon="5.52173">
        <ele>2095.6</ele>
        <time>2022-01-19T10:59:21Z</time>
      </trkpt>
      <trkpt lat="44.87653" lon="5.52173">
        <ele>2095.6</ele>
        <time>2022-01-19T10:59:22Z</time>
      </trkpt>
      <trkpt lat="44.87653" lon="5.52173">
        <ele>2095.6</ele>
        <time>2022-01-19T10:59:23Z</time>
      </trkpt>
      <trkpt lat="44.87653" lon="5.52173">
        <ele>2095.6</ele>
        <time>2022-01-19T10:59:24Z</time>
      </trkpt>
      <trkpt lat="44.87653" lon="5.52173">
        <ele>2095.6</ele>
        <time>2022-01-19T10:59:25Z</time>
      </trkpt>
      <trkpt lat="44.87653" lon="5.52173">
        <ele>2095.6</ele>
        <time>2022-01-19T10:59:26Z</time>
      </trkpt>
      <trkpt lat="44.87653" lon="5.52173">
        <ele>2095.6</ele>
        <time>2022-01-19T10:59:27Z</time>
      </trkpt>
      <trkpt lat="44.87653" lon="5.52173">
        <ele>2095.6</ele>
        <time>2022-01-19T10:59:28Z</time>
      </trkpt>
      <trkpt lat="44.87653" lon="5.52173">
        <ele>2095.6</ele>
        <time>2022-01-19T10:59:29Z</time>
      </trkpt>
      <trkpt lat="44.87653" lon="5.52173">
        <ele>2095.6</ele>
        <time>2022-01-19T10:59:30Z</time>
      </trkpt>
      <trkpt lat="44.87653" lon="5.52173">
        <ele>2095.6</ele>
        <time>2022-01-19T10:59:31Z</time>
      </trkpt>
      <trkpt lat="44.87653" lon="5.52173">
        <ele>2095.6</ele>
        <time>2022-01-19T10:59:32Z</time>
      </trkpt>
      <trkpt lat="44.87653" lon="5.52173">
        <ele>2095.6</ele>
        <time>2022-01-19T10:59:33Z</time>
      </trkpt>
      <trkpt lat="44.87653" lon="5.52173">
        <ele>2095.6</ele>
        <time>2022-01-19T10:59:34Z</time>
      </trkpt>
      <trkpt lat="44.87653" lon="5.52173">
        <ele>2095.6</ele>
        <time>2022-01-19T10:59:35Z</time>
      </trkpt>
      <trkpt lat="44.87653" lon="5.52173">
        <ele>2095.6</ele>
        <time>2022-01-19T10:59:36Z</time>
      </trkpt>
      <trkpt lat="44.87653" lon="5.52173">
        <ele>2095.6</ele>
        <time>2022-01-19T10:59:37Z</time>
      </trkpt>
      <trkpt lat="44.87653" lon="5.52173">
        <ele>2095.6</ele>
        <time>2022-01-19T10:59:38Z</time>
      </trkpt>
      <trkpt lat="44.87653" lon="5.52173">
        <ele>2095.6</ele>
        <time>2022-01-19T10:59:39Z</time>
      </trkpt>
      <trkpt lat="44.87653" lon="5.52173">
        <ele>2095.6</ele>
        <time>2022-01-19T10:59:40Z</time>
      </trkpt>
      <trkpt lat="44.87653" lon="5.52173">
        <ele>2095.6</ele>
        <time>2022-01-19T10:59:41Z</time>
      </trkpt>
      <trkpt lat="44.87653" lon="5.52173">
        <ele>2095.6</ele>
        <time>2022-01-19T10:59:42Z</time>
      </trkpt>
      <trkpt lat="44.87653" lon="5.52173">
        <ele>2095.6</ele>
        <time>2022-01-19T10:59:43Z</time>
      </trkpt>
      <trkpt lat="44.87652" lon="5.52172">
        <ele>2095.6</ele>
        <time>2022-01-19T10:59:44Z</time>
      </trkpt>
      <trkpt lat="44.87652" lon="5.52172">
        <ele>2096.1</ele>
        <time>2022-01-19T10:59:45Z</time>
      </trkpt>
      <trkpt lat="44.87651" lon="5.52172">
        <ele>2096.1</ele>
        <time>2022-01-19T10:59:46Z</time>
      </trkpt>
      <trkpt lat="44.87651" lon="5.52173">
        <ele>2096.1</ele>
        <time>2022-01-19T10:59:47Z</time>
      </trkpt>
      <trkpt lat="44.8765" lon="5.52173">
        <ele>2096.1</ele>
        <time>2022-01-19T10:59:48Z</time>
      </trkpt>
      <trkpt lat="44.87649" lon="5.52174">
        <ele>2096.1</ele>
        <time>2022-01-19T10:59:49Z</time>
      </trkpt>
      <trkpt lat="44.87649" lon="5.52173">
        <ele>2096.1</ele>
        <time>2022-01-19T10:59:50Z</time>
      </trkpt>
      <trkpt lat="44.87648" lon="5.52173">
        <ele>2096.5</ele>
        <time>2022-01-19T10:59:51Z</time>
      </trkpt>
      <trkpt lat="44.87648" lon="5.52174">
        <ele>2096.5</ele>
        <time>2022-01-19T10:59:52Z</time>
      </trkpt>
      <trkpt lat="44.87648" lon="5.52174">
        <ele>2096.5</ele>
        <time>2022-01-19T10:59:53Z</time>
      </trkpt>
      <trkpt lat="44.87647" lon="5.52174">
        <ele>2096.5</ele>
        <time>2022-01-19T10:59:54Z</time>
      </trkpt>
      <trkpt lat="44.87646" lon="5.52174">
        <ele>2096.5</ele>
        <time>2022-01-19T10:59:55Z</time>
      </trkpt>
      <trkpt lat="44.87646" lon="5.52174">
        <ele>2097.1</ele>
        <time>2022-01-19T10:59:56Z</time>
      </trkpt>
      <trkpt lat="44.87645" lon="5.52174">
        <ele>2097.1</ele>
        <time>2022-01-19T10:59:57Z</time>
      </trkpt>
      <trkpt lat="44.87644" lon="5.52174">
        <ele>2097.1</ele>
        <time>2022-01-19T10:59:58Z</time>
      </trkpt>
      <trkpt lat="44.87644" lon="5.52174">
        <ele>2097.1</ele>
        <time>2022-01-19T10:59:59Z</time>
      </trkpt>
      <trkpt lat="44.87643" lon="5.52174">
        <ele>2097.1</ele>
        <time>2022-01-19T11:00:00Z</time>
      </trkpt>
      <trkpt lat="44.87643" lon="5.52174">
        <ele>2097.6</ele>
        <time>2022-01-19T11:00:01Z</time>
      </trkpt>
      <trkpt lat="44.87642" lon="5.52174">
        <ele>2097.6</ele>
        <time>2022-01-19T11:00:02Z</time>
      </trkpt>
      <trkpt lat="44.87642" lon="5.52175">
        <ele>2097.6</ele>
        <time>2022-01-19T11:00:03Z</time>
      </trkpt>
      <trkpt lat="44.87641" lon="5.52175">
        <ele>2099.1</ele>
        <time>2022-01-19T11:00:04Z</time>
      </trkpt>
      <trkpt lat="44.87641" lon="5.52175">
        <ele>2099.1</ele>
        <time>2022-01-19T11:00:05Z</time>
      </trkpt>
      <trkpt lat="44.8764" lon="5.52175">
        <ele>2097.6</ele>
        <time>2022-01-19T11:00:06Z</time>
      </trkpt>
      <trkpt lat="44.8764" lon="5.52175">
        <ele>2099.1</ele>
        <time>2022-01-19T11:00:07Z</time>
      </trkpt>
      <trkpt lat="44.87639" lon="5.52175">
        <ele>2099.7</ele>
        <time>2022-01-19T11:00:08Z</time>
      </trkpt>
      <trkpt lat="44.87639" lon="5.52175">
        <ele>2099.7</ele>
        <time>2022-01-19T11:00:09Z</time>
      </trkpt>
      <trkpt lat="44.87639" lon="5.52175">
        <ele>2099.7</ele>
        <time>2022-01-19T11:00:10Z</time>
      </trkpt>
      <trkpt lat="44.87638" lon="5.52175">
        <ele>2099.7</ele>
        <time>2022-01-19T11:00:11Z</time>
      </trkpt>
      <trkpt lat="44.87637" lon="5.52176">
        <ele>2099.7</ele>
        <time>2022-01-19T11:00:12Z</time>
      </trkpt>
      <trkpt lat="44.87637" lon="5.52175">
        <ele>2100.3</ele>
        <time>2022-01-19T11:00:13Z</time>
      </trkpt>
      <trkpt lat="44.87636" lon="5.52175">
        <ele>2100.3</ele>
        <time>2022-01-19T11:00:14Z</time>
      </trkpt>
      <trkpt lat="44.87636" lon="5.52176">
        <ele>2100.3</ele>
        <time>2022-01-19T11:00:15Z</time>
      </trkpt>
      <trkpt lat="44.87635" lon="5.52176">
        <ele>2100.3</ele>
        <time>2022-01-19T11:00:16Z</time>
      </trkpt>
      <trkpt lat="44.87634" lon="5.52176">
        <ele>2100.3</ele>
        <time>2022-01-19T11:00:17Z</time>
      </trkpt>
      <trkpt lat="44.87634" lon="5.52176">
        <ele>2101</ele>
        <time>2022-01-19T11:00:18Z</time>
      </trkpt>
      <trkpt lat="44.87633" lon="5.52176">
        <ele>2101</ele>
        <time>2022-01-19T11:00:19Z</time>
      </trkpt>
      <trkpt lat="44.87633" lon="5.52176">
        <ele>2101</ele>
        <time>2022-01-19T11:00:20Z</time>
      </trkpt>
      <trkpt lat="44.87632" lon="5.52176">
        <ele>2101</ele>
        <time>2022-01-19T11:00:21Z</time>
      </trkpt>
      <trkpt lat="44.87632" lon="5.52176">
        <ele>2101</ele>
        <time>2022-01-19T11:00:22Z</time>
      </trkpt>
      <trkpt lat="44.87631" lon="5.52176">
        <ele>2101</ele>
        <time>2022-01-19T11:00:23Z</time>
      </trkpt>
      <trkpt lat="44.87631" lon="5.52176">
        <ele>2101.6</ele>
        <time>2022-01-19T11:00:24Z</time>
      </trkpt>
      <trkpt lat="44.87631" lon="5.52176">
        <ele>2101.6</ele>
        <time>2022-01-19T11:00:25Z</time>
      </trkpt>
      <trkpt lat="44.87631" lon="5.52176">
        <ele>2101.6</ele>
        <time>2022-01-19T11:00:26Z</time>
      </trkpt>
      <trkpt lat="44.87631" lon="5.52176">
        <ele>2101.6</ele>
        <time>2022-01-19T11:00:27Z</time>
      </trkpt>
      <trkpt lat="44.87631" lon="5.52176">
        <ele>2101.6</ele>
        <time>2022-01-19T11:00:28Z</time>
      </trkpt>
      <trkpt lat="44.87631" lon="5.52176">
        <ele>2101.6</ele>
        <time>2022-01-19T11:00:29Z</time>
      </trkpt>
      <trkpt lat="44.87631" lon="5.52176">
        <ele>2101.6</ele>
        <time>2022-01-19T11:00:30Z</time>
      </trkpt>
      <trkpt lat="44.87631" lon="5.52176">
        <ele>2101.6</ele>
        <time>2022-01-19T11:00:31Z</time>
      </trkpt>
      <trkpt lat="44.87631" lon="5.52176">
        <ele>2101.6</ele>
        <time>2022-01-19T11:00:32Z</time>
      </trkpt>
      <trkpt lat="44.87631" lon="5.52176">
        <ele>2101.6</ele>
        <time>2022-01-19T11:00:33Z</time>
      </trkpt>
      <trkpt lat="44.87631" lon="5.52176">
        <ele>2101.6</ele>
        <time>2022-01-19T11:00:34Z</time>
      </trkpt>
      <trkpt lat="44.87631" lon="5.52176">
        <ele>2101.6</ele>
        <time>2022-01-19T11:00:35Z</time>
      </trkpt>
      <trkpt lat="44.87631" lon="5.52176">
        <ele>2101.6</ele>
        <time>2022-01-19T11:00:36Z</time>
      </trkpt>
      <trkpt lat="44.87631" lon="5.52176">
        <ele>2101.6</ele>
        <time>2022-01-19T11:00:37Z</time>
      </trkpt>
      <trkpt lat="44.87631" lon="5.52176">
        <ele>2101.6</ele>
        <time>2022-01-19T11:00:38Z</time>
      </trkpt>
      <trkpt lat="44.87631" lon="5.52176">
        <ele>2101.6</ele>
        <time>2022-01-19T11:00:39Z</time>
      </trkpt>
      <trkpt lat="44.87631" lon="5.52176">
        <ele>2101.6</ele>
        <time>2022-01-19T11:00:40Z</time>
      </trkpt>
      <trkpt lat="44.87631" lon="5.52176">
        <ele>2101.6</ele>
        <time>2022-01-19T11:00:41Z</time>
      </trkpt>
      <trkpt lat="44.87631" lon="5.52176">
        <ele>2101.6</ele>
        <time>2022-01-19T11:00:42Z</time>
      </trkpt>
      <trkpt lat="44.87631" lon="5.52176">
        <ele>2101.6</ele>
        <time>2022-01-19T11:00:43Z</time>
      </trkpt>
      <trkpt lat="44.87631" lon="5.52176">
        <ele>2101.6</ele>
        <time>2022-01-19T11:00:44Z</time>
      </trkpt>
      <trkpt lat="44.87631" lon="5.52176">
        <ele>2101.6</ele>
        <time>2022-01-19T11:00:45Z</time>
      </trkpt>
      <trkpt lat="44.87631" lon="5.52176">
        <ele>2101.6</ele>
        <time>2022-01-19T11:00:46Z</time>
      </trkpt>
      <trkpt lat="44.87631" lon="5.52176">
        <ele>2101.6</ele>
        <time>2022-01-19T11:00:47Z</time>
      </trkpt>
      <trkpt lat="44.87631" lon="5.52176">
        <ele>2101.6</ele>
        <time>2022-01-19T11:00:48Z</time>
      </trkpt>
      <trkpt lat="44.87631" lon="5.52176">
        <ele>2101.6</ele>
        <time>2022-01-19T11:00:49Z</time>
      </trkpt>
      <trkpt lat="44.87631" lon="5.52176">
        <ele>2101.6</ele>
        <time>2022-01-19T11:00:50Z</time>
      </trkpt>
      <trkpt lat="44.87631" lon="5.52176">
        <ele>2101.6</ele>
        <time>2022-01-19T11:00:51Z</time>
      </trkpt>
      <trkpt lat="44.87631" lon="5.52176">
        <ele>2101.6</ele>
        <time>2022-01-19T11:00:52Z</time>
      </trkpt>
      <trkpt lat="44.87631" lon="5.52176">
        <ele>2101.6</ele>
        <time>2022-01-19T11:00:53Z</time>
      </trkpt>
      <trkpt lat="44.87631" lon="5.52176">
        <ele>2101.6</ele>
        <time>2022-01-19T11:00:54Z</time>
      </trkpt>
      <trkpt lat="44.87631" lon="5.52176">
        <ele>2101.6</ele>
        <time>2022-01-19T11:00:55Z</time>
      </trkpt>
      <trkpt lat="44.87631" lon="5.52176">
        <ele>2101.6</ele>
        <time>2022-01-19T11:00:56Z</time>
      </trkpt>
      <trkpt lat="44.87631" lon="5.52176">
        <ele>2101.6</ele>
        <time>2022-01-19T11:00:57Z</time>
      </trkpt>
      <trkpt lat="44.87631" lon="5.52176">
        <ele>2101.6</ele>
        <time>2022-01-19T11:00:58Z</time>
      </trkpt>
      <trkpt lat="44.87631" lon="5.52176">
        <ele>2101.6</ele>
        <time>2022-01-19T11:00:59Z</time>
      </trkpt>
      <trkpt lat="44.87631" lon="5.52176">
        <ele>2101.6</ele>
        <time>2022-01-19T11:01:00Z</time>
      </trkpt>
      <trkpt lat="44.87631" lon="5.52176">
        <ele>2101.6</ele>
        <time>2022-01-19T11:01:01Z</time>
      </trkpt>
      <trkpt lat="44.87631" lon="5.52176">
        <ele>2101.6</ele>
        <time>2022-01-19T11:01:02Z</time>
      </trkpt>
      <trkpt lat="44.87631" lon="5.52176">
        <ele>2101.6</ele>
        <time>2022-01-19T11:01:03Z</time>
      </trkpt>
      <trkpt lat="44.87631" lon="5.52176">
        <ele>2101.6</ele>
        <time>2022-01-19T11:01:04Z</time>
      </trkpt>
      <trkpt lat="44.87631" lon="5.52176">
        <ele>2101.6</ele>
        <time>2022-01-19T11:01:05Z</time>
      </trkpt>
      <trkpt lat="44.87631" lon="5.52176">
        <ele>2101.6</ele>
        <time>2022-01-19T11:01:06Z</time>
      </trkpt>
      <trkpt lat="44.87631" lon="5.52176">
        <ele>2101.6</ele>
        <time>2022-01-19T11:01:07Z</time>
      </trkpt>
      <trkpt lat="44.87631" lon="5.52176">
        <ele>2101.6</ele>
        <time>2022-01-19T11:01:08Z</time>
      </trkpt>
      <trkpt lat="44.87631" lon="5.52176">
        <ele>2101.6</ele>
        <time>2022-01-19T11:01:09Z</time>
      </trkpt>
      <trkpt lat="44.87631" lon="5.52176">
        <ele>2101.6</ele>
        <time>2022-01-19T11:01:10Z</time>
      </trkpt>
      <trkpt lat="44.87631" lon="5.52176">
        <ele>2101.6</ele>
        <time>2022-01-19T11:01:11Z</time>
      </trkpt>
      <trkpt lat="44.87631" lon="5.52176">
        <ele>2101.6</ele>
        <time>2022-01-19T11:01:12Z</time>
      </trkpt>
      <trkpt lat="44.87631" lon="5.52176">
        <ele>2101.6</ele>
        <time>2022-01-19T11:01:13Z</time>
      </trkpt>
      <trkpt lat="44.87631" lon="5.52176">
        <ele>2101.6</ele>
        <time>2022-01-19T11:01:14Z</time>
      </trkpt>
      <trkpt lat="44.87631" lon="5.52176">
        <ele>2101.6</ele>
        <time>2022-01-19T11:01:15Z</time>
      </trkpt>
      <trkpt lat="44.87631" lon="5.52176">
        <ele>2101.6</ele>
        <time>2022-01-19T11:01:16Z</time>
      </trkpt>
      <trkpt lat="44.87631" lon="5.52176">
        <ele>2101.6</ele>
        <time>2022-01-19T11:01:17Z</time>
      </trkpt>
      <trkpt lat="44.87631" lon="5.52176">
        <ele>2101.6</ele>
        <time>2022-01-19T11:01:18Z</time>
      </trkpt>
      <trkpt lat="44.87631" lon="5.52176">
        <ele>2101.6</ele>
        <time>2022-01-19T11:01:19Z</time>
      </trkpt>
      <trkpt lat="44.87631" lon="5.52176">
        <ele>2101.6</ele>
        <time>2022-01-19T11:01:20Z</time>
      </trkpt>
      <trkpt lat="44.87631" lon="5.52176">
        <ele>2101.6</ele>
        <time>2022-01-19T11:01:21Z</time>
      </trkpt>
      <trkpt lat="44.87631" lon="5.52176">
        <ele>2101.6</ele>
        <time>2022-01-19T11:01:22Z</time>
      </trkpt>
      <trkpt lat="44.87631" lon="5.52176">
        <ele>2101.6</ele>
        <time>2022-01-19T11:01:23Z</time>
      </trkpt>
      <trkpt lat="44.87631" lon="5.52176">
        <ele>2101.6</ele>
        <time>2022-01-19T11:01:24Z</time>
      </trkpt>
      <trkpt lat="44.87631" lon="5.52176">
        <ele>2101.6</ele>
        <time>2022-01-19T11:01:25Z</time>
      </trkpt>
      <trkpt lat="44.87631" lon="5.52176">
        <ele>2101.6</ele>
        <time>2022-01-19T11:01:26Z</time>
      </trkpt>
      <trkpt lat="44.87631" lon="5.52176">
        <ele>2101.6</ele>
        <time>2022-01-19T11:01:27Z</time>
      </trkpt>
      <trkpt lat="44.87631" lon="5.52176">
        <ele>2101.6</ele>
        <time>2022-01-19T11:01:28Z</time>
      </trkpt>
      <trkpt lat="44.87631" lon="5.52176">
        <ele>2101.6</ele>
        <time>2022-01-19T11:01:29Z</time>
      </trkpt>
      <trkpt lat="44.87631" lon="5.52176">
        <ele>2101.6</ele>
        <time>2022-01-19T11:01:30Z</time>
      </trkpt>
      <trkpt lat="44.87631" lon="5.52176">
        <ele>2101.6</ele>
        <time>2022-01-19T11:01:31Z</time>
      </trkpt>
      <trkpt lat="44.87631" lon="5.52176">
        <ele>2101.6</ele>
        <time>2022-01-19T11:01:32Z</time>
      </trkpt>
      <trkpt lat="44.87631" lon="5.52176">
        <ele>2101.6</ele>
        <time>2022-01-19T11:01:33Z</time>
      </trkpt>
      <trkpt lat="44.87631" lon="5.52176">
        <ele>2101.6</ele>
        <time>2022-01-19T11:01:34Z</time>
      </trkpt>
      <trkpt lat="44.87631" lon="5.52176">
        <ele>2101.6</ele>
        <time>2022-01-19T11:01:35Z</time>
      </trkpt>
      <trkpt lat="44.87628" lon="5.5218">
        <ele>2103</ele>
        <time>2022-01-19T11:01:36Z</time>
      </trkpt>
      <trkpt lat="44.87628" lon="5.5218">
        <ele>2103.7</ele>
        <time>2022-01-19T11:01:37Z</time>
      </trkpt>
      <trkpt lat="44.87627" lon="5.5218">
        <ele>2103.7</ele>
        <time>2022-01-19T11:01:38Z</time>
      </trkpt>
      <trkpt lat="44.87627" lon="5.5218">
        <ele>2103.7</ele>
        <time>2022-01-19T11:01:39Z</time>
      </trkpt>
      <trkpt lat="44.87626" lon="5.5218">
        <ele>2103.7</ele>
        <time>2022-01-19T11:01:40Z</time>
      </trkpt>
      <trkpt lat="44.87626" lon="5.52181">
        <ele>2103.7</ele>
        <time>2022-01-19T11:01:41Z</time>
      </trkpt>
      <trkpt lat="44.87624" lon="5.52181">
        <ele>2104.4</ele>
        <time>2022-01-19T11:01:42Z</time>
      </trkpt>
      <trkpt lat="44.87624" lon="5.52181">
        <ele>2104.4</ele>
        <time>2022-01-19T11:01:43Z</time>
      </trkpt>
      <trkpt lat="44.87623" lon="5.52181">
        <ele>2104.4</ele>
        <time>2022-01-19T11:01:44Z</time>
      </trkpt>
      <trkpt lat="44.87623" lon="5.52182">
        <ele>2104.4</ele>
        <time>2022-01-19T11:01:45Z</time>
      </trkpt>
      <trkpt lat="44.87622" lon="5.52183">
        <ele>2105.1</ele>
        <time>2022-01-19T11:01:46Z</time>
      </trkpt>
      <trkpt lat="44.87621" lon="5.52183">
        <ele>2105.1</ele>
        <time>2022-01-19T11:01:47Z</time>
      </trkpt>
      <trkpt lat="44.87621" lon="5.52183">
        <ele>2105.1</ele>
        <time>2022-01-19T11:01:48Z</time>
      </trkpt>
      <trkpt lat="44.8762" lon="5.52183">
        <ele>2105.1</ele>
        <time>2022-01-19T11:01:49Z</time>
      </trkpt>
      <trkpt lat="44.87619" lon="5.52183">
        <ele>2105.1</ele>
        <time>2022-01-19T11:01:50Z</time>
      </trkpt>
      <trkpt lat="44.87619" lon="5.52183">
        <ele>2105.1</ele>
        <time>2022-01-19T11:01:51Z</time>
      </trkpt>
      <trkpt lat="44.87618" lon="5.52183">
        <ele>2105.8</ele>
        <time>2022-01-19T11:01:52Z</time>
      </trkpt>
      <trkpt lat="44.87618" lon="5.52183">
        <ele>2105.8</ele>
        <time>2022-01-19T11:01:53Z</time>
      </trkpt>
      <trkpt lat="44.87618" lon="5.52184">
        <ele>2107.3</ele>
        <time>2022-01-19T11:01:54Z</time>
      </trkpt>
      <trkpt lat="44.87617" lon="5.52184">
        <ele>2107.3</ele>
        <time>2022-01-19T11:01:55Z</time>
      </trkpt>
      <trkpt lat="44.87616" lon="5.52184">
        <ele>2107.3</ele>
        <time>2022-01-19T11:01:56Z</time>
      </trkpt>
      <trkpt lat="44.87616" lon="5.52184">
        <ele>2107.3</ele>
        <time>2022-01-19T11:01:57Z</time>
      </trkpt>
      <trkpt lat="44.87616" lon="5.52184">
        <ele>2108</ele>
        <time>2022-01-19T11:01:58Z</time>
      </trkpt>
      <trkpt lat="44.87615" lon="5.52184">
        <ele>2108</ele>
        <time>2022-01-19T11:01:59Z</time>
      </trkpt>
      <trkpt lat="44.87615" lon="5.52184">
        <ele>2108</ele>
        <time>2022-01-19T11:02:00Z</time>
      </trkpt>
      <trkpt lat="44.87615" lon="5.52184">
        <ele>2108</ele>
        <time>2022-01-19T11:02:01Z</time>
      </trkpt>
      <trkpt lat="44.87615" lon="5.52185">
        <ele>2108</ele>
        <time>2022-01-19T11:02:02Z</time>
      </trkpt>
      <trkpt lat="44.87614" lon="5.52185">
        <ele>2108</ele>
        <time>2022-01-19T11:02:03Z</time>
      </trkpt>
      <trkpt lat="44.87614" lon="5.52185">
        <ele>2108</ele>
        <time>2022-01-19T11:02:04Z</time>
      </trkpt>
      <trkpt lat="44.87613" lon="5.52186">
        <ele>2108</ele>
        <time>2022-01-19T11:02:05Z</time>
      </trkpt>
      <trkpt lat="44.87613" lon="5.52187">
        <ele>2108.9</ele>
        <time>2022-01-19T11:02:06Z</time>
      </trkpt>
      <trkpt lat="44.87612" lon="5.52187">
        <ele>2108.9</ele>
        <time>2022-01-19T11:02:07Z</time>
      </trkpt>
      <trkpt lat="44.87611" lon="5.52188">
        <ele>2110.4</ele>
        <time>2022-01-19T11:02:08Z</time>
      </trkpt>
      <trkpt lat="44.87611" lon="5.52189">
        <ele>2110.4</ele>
        <time>2022-01-19T11:02:09Z</time>
      </trkpt>
      <trkpt lat="44.87611" lon="5.52189">
        <ele>2110.4</ele>
        <time>2022-01-19T11:02:10Z</time>
      </trkpt>
      <trkpt lat="44.8761" lon="5.5219">
        <ele>2110.4</ele>
        <time>2022-01-19T11:02:11Z</time>
      </trkpt>
      <trkpt lat="44.8761" lon="5.5219">
        <ele>2111.3</ele>
        <time>2022-01-19T11:02:12Z</time>
      </trkpt>
      <trkpt lat="44.87609" lon="5.52191">
        <ele>2111.3</ele>
        <time>2022-01-19T11:02:13Z</time>
      </trkpt>
      <trkpt lat="44.87609" lon="5.52191">
        <ele>2111.3</ele>
        <time>2022-01-19T11:02:14Z</time>
      </trkpt>
      <trkpt lat="44.87608" lon="5.52192">
        <ele>2111.3</ele>
        <time>2022-01-19T11:02:15Z</time>
      </trkpt>
      <trkpt lat="44.87607" lon="5.52192">
        <ele>2112.8</ele>
        <time>2022-01-19T11:02:16Z</time>
      </trkpt>
      <trkpt lat="44.87607" lon="5.52193">
        <ele>2112.8</ele>
        <time>2022-01-19T11:02:17Z</time>
      </trkpt>
      <trkpt lat="44.87606" lon="5.52193">
        <ele>2113.8</ele>
        <time>2022-01-19T11:02:18Z</time>
      </trkpt>
      <trkpt lat="44.87606" lon="5.52194">
        <ele>2113.8</ele>
        <time>2022-01-19T11:02:19Z</time>
      </trkpt>
      <trkpt lat="44.87605" lon="5.52194">
        <ele>2113.8</ele>
        <time>2022-01-19T11:02:20Z</time>
      </trkpt>
      <trkpt lat="44.87605" lon="5.52194">
        <ele>2113.8</ele>
        <time>2022-01-19T11:02:21Z</time>
      </trkpt>
      <trkpt lat="44.87605" lon="5.52194">
        <ele>2113.8</ele>
        <time>2022-01-19T11:02:22Z</time>
      </trkpt>
      <trkpt lat="44.87605" lon="5.52195">
        <ele>2113.8</ele>
        <time>2022-01-19T11:02:23Z</time>
      </trkpt>
      <trkpt lat="44.87605" lon="5.52194">
        <ele>2113.8</ele>
        <time>2022-01-19T11:02:24Z</time>
      </trkpt>
      <trkpt lat="44.87604" lon="5.52194">
        <ele>2113.8</ele>
        <time>2022-01-19T11:02:25Z</time>
      </trkpt>
      <trkpt lat="44.87604" lon="5.52193">
        <ele>2113.8</ele>
        <time>2022-01-19T11:02:26Z</time>
      </trkpt>
      <trkpt lat="44.87604" lon="5.52193">
        <ele>2113.8</ele>
        <time>2022-01-19T11:02:27Z</time>
      </trkpt>
      <trkpt lat="44.87603" lon="5.52193">
        <ele>2114.7</ele>
        <time>2022-01-19T11:02:28Z</time>
      </trkpt>
      <trkpt lat="44.87603" lon="5.52193">
        <ele>2114.7</ele>
        <time>2022-01-19T11:02:29Z</time>
      </trkpt>
      <trkpt lat="44.87602" lon="5.52193">
        <ele>2114.7</ele>
        <time>2022-01-19T11:02:30Z</time>
      </trkpt>
      <trkpt lat="44.87602" lon="5.52193">
        <ele>2114.7</ele>
        <time>2022-01-19T11:02:31Z</time>
      </trkpt>
      <trkpt lat="44.87602" lon="5.52193">
        <ele>2114.7</ele>
        <time>2022-01-19T11:02:32Z</time>
      </trkpt>
      <trkpt lat="44.87601" lon="5.52193">
        <ele>2114.7</ele>
        <time>2022-01-19T11:02:33Z</time>
      </trkpt>
      <trkpt lat="44.876" lon="5.52193">
        <ele>2115.6</ele>
        <time>2022-01-19T11:02:34Z</time>
      </trkpt>
      <trkpt lat="44.876" lon="5.52193">
        <ele>2115.6</ele>
        <time>2022-01-19T11:02:35Z</time>
      </trkpt>
      <trkpt lat="44.876" lon="5.52193">
        <ele>2115.6</ele>
        <time>2022-01-19T11:02:36Z</time>
      </trkpt>
      <trkpt lat="44.876" lon="5.52193">
        <ele>2115.6</ele>
        <time>2022-01-19T11:02:37Z</time>
      </trkpt>
      <trkpt lat="44.876" lon="5.52193">
        <ele>2115.6</ele>
        <time>2022-01-19T11:02:38Z</time>
      </trkpt>
      <trkpt lat="44.876" lon="5.52193">
        <ele>2115.6</ele>
        <time>2022-01-19T11:02:39Z</time>
      </trkpt>
      <trkpt lat="44.876" lon="5.52193">
        <ele>2115.6</ele>
        <time>2022-01-19T11:02:40Z</time>
      </trkpt>
      <trkpt lat="44.876" lon="5.52193">
        <ele>2115.6</ele>
        <time>2022-01-19T11:02:41Z</time>
      </trkpt>
      <trkpt lat="44.87599" lon="5.52195">
        <ele>2115.6</ele>
        <time>2022-01-19T11:02:42Z</time>
      </trkpt>
      <trkpt lat="44.87598" lon="5.52195">
        <ele>2115.6</ele>
        <time>2022-01-19T11:02:43Z</time>
      </trkpt>
      <trkpt lat="44.87598" lon="5.52196">
        <ele>2115.6</ele>
        <time>2022-01-19T11:02:44Z</time>
      </trkpt>
      <trkpt lat="44.87597" lon="5.52196">
        <ele>2118.2</ele>
        <time>2022-01-19T11:02:45Z</time>
      </trkpt>
      <trkpt lat="44.87596" lon="5.52197">
        <ele>2118.2</ele>
        <time>2022-01-19T11:02:46Z</time>
      </trkpt>
      <trkpt lat="44.87596" lon="5.52197">
        <ele>2118.2</ele>
        <time>2022-01-19T11:02:47Z</time>
      </trkpt>
      <trkpt lat="44.87595" lon="5.52198">
        <ele>2118.2</ele>
        <time>2022-01-19T11:02:48Z</time>
      </trkpt>
      <trkpt lat="44.87595" lon="5.52198">
        <ele>2118.2</ele>
        <time>2022-01-19T11:02:49Z</time>
      </trkpt>
      <trkpt lat="44.87595" lon="5.52199">
        <ele>2118.2</ele>
        <time>2022-01-19T11:02:50Z</time>
      </trkpt>
      <trkpt lat="44.87594" lon="5.52199">
        <ele>2119.2</ele>
        <time>2022-01-19T11:02:51Z</time>
      </trkpt>
      <trkpt lat="44.87594" lon="5.52199">
        <ele>2119.2</ele>
        <time>2022-01-19T11:02:52Z</time>
      </trkpt>
      <trkpt lat="44.87594" lon="5.52199">
        <ele>2119.2</ele>
        <time>2022-01-19T11:02:53Z</time>
      </trkpt>
      <trkpt lat="44.87594" lon="5.52199">
        <ele>2119.2</ele>
        <time>2022-01-19T11:02:54Z</time>
      </trkpt>
      <trkpt lat="44.87594" lon="5.52198">
        <ele>2119.2</ele>
        <time>2022-01-19T11:02:55Z</time>
      </trkpt>
      <trkpt lat="44.87594" lon="5.52198">
        <ele>2119.2</ele>
        <time>2022-01-19T11:02:56Z</time>
      </trkpt>
      <trkpt lat="44.87594" lon="5.52198">
        <ele>2119.2</ele>
        <time>2022-01-19T11:02:57Z</time>
      </trkpt>
      <trkpt lat="44.87594" lon="5.52198">
        <ele>2119.2</ele>
        <time>2022-01-19T11:02:58Z</time>
      </trkpt>
      <trkpt lat="44.87594" lon="5.52198">
        <ele>2119.2</ele>
        <time>2022-01-19T11:02:59Z</time>
      </trkpt>
      <trkpt lat="44.87594" lon="5.52198">
        <ele>2119.2</ele>
        <time>2022-01-19T11:03:00Z</time>
      </trkpt>
      <trkpt lat="44.87594" lon="5.52198">
        <ele>2119.2</ele>
        <time>2022-01-19T11:03:01Z</time>
      </trkpt>
      <trkpt lat="44.87594" lon="5.52198">
        <ele>2119.2</ele>
        <time>2022-01-19T11:03:02Z</time>
      </trkpt>
      <trkpt lat="44.87594" lon="5.52198">
        <ele>2119.2</ele>
        <time>2022-01-19T11:03:03Z</time>
      </trkpt>
      <trkpt lat="44.87594" lon="5.52198">
        <ele>2119.2</ele>
        <time>2022-01-19T11:03:04Z</time>
      </trkpt>
      <trkpt lat="44.8759" lon="5.52199">
        <ele>2120.1</ele>
        <time>2022-01-19T11:03:05Z</time>
      </trkpt>
      <trkpt lat="44.87589" lon="5.522">
        <ele>2120.1</ele>
        <time>2022-01-19T11:03:06Z</time>
      </trkpt>
      <trkpt lat="44.87589" lon="5.522">
        <ele>2120.1</ele>
        <time>2022-01-19T11:03:07Z</time>
      </trkpt>
      <trkpt lat="44.87588" lon="5.52201">
        <ele>2122.9</ele>
        <time>2022-01-19T11:03:08Z</time>
      </trkpt>
      <trkpt lat="44.87587" lon="5.52202">
        <ele>2122.9</ele>
        <time>2022-01-19T11:03:09Z</time>
      </trkpt>
      <trkpt lat="44.87587" lon="5.52203">
        <ele>2122.9</ele>
        <time>2022-01-19T11:03:10Z</time>
      </trkpt>
      <trkpt lat="44.87586" lon="5.52203">
        <ele>2122.9</ele>
        <time>2022-01-19T11:03:11Z</time>
      </trkpt>
      <trkpt lat="44.87586" lon="5.52203">
        <ele>2122.9</ele>
        <time>2022-01-19T11:03:12Z</time>
      </trkpt>
      <trkpt lat="44.87586" lon="5.52204">
        <ele>2122.9</ele>
        <time>2022-01-19T11:03:13Z</time>
      </trkpt>
      <trkpt lat="44.87585" lon="5.52204">
        <ele>2124</ele>
        <time>2022-01-19T11:03:14Z</time>
      </trkpt>
      <trkpt lat="44.87585" lon="5.52204">
        <ele>2124</ele>
        <time>2022-01-19T11:03:15Z</time>
      </trkpt>
      <trkpt lat="44.87584" lon="5.52205">
        <ele>2124</ele>
        <time>2022-01-19T11:03:16Z</time>
      </trkpt>
      <trkpt lat="44.87584" lon="5.52205">
        <ele>2125.7</ele>
        <time>2022-01-19T11:03:17Z</time>
      </trkpt>
      <trkpt lat="44.87584" lon="5.52205">
        <ele>2125.7</ele>
        <time>2022-01-19T11:03:18Z</time>
      </trkpt>
      <trkpt lat="44.87583" lon="5.52206">
        <ele>2125.7</ele>
        <time>2022-01-19T11:03:19Z</time>
      </trkpt>
      <trkpt lat="44.87583" lon="5.52206">
        <ele>2125.7</ele>
        <time>2022-01-19T11:03:20Z</time>
      </trkpt>
      <trkpt lat="44.87582" lon="5.52207">
        <ele>2126.8</ele>
        <time>2022-01-19T11:03:21Z</time>
      </trkpt>
      <trkpt lat="44.87582" lon="5.52207">
        <ele>2126.8</ele>
        <time>2022-01-19T11:03:22Z</time>
      </trkpt>
      <trkpt lat="44.87581" lon="5.52207">
        <ele>2126.8</ele>
        <time>2022-01-19T11:03:23Z</time>
      </trkpt>
      <trkpt lat="44.87581" lon="5.52208">
        <ele>2126.8</ele>
        <time>2022-01-19T11:03:24Z</time>
      </trkpt>
      <trkpt lat="44.87581" lon="5.52208">
        <ele>2126.8</ele>
        <time>2022-01-19T11:03:25Z</time>
      </trkpt>
      <trkpt lat="44.8758" lon="5.52208">
        <ele>2126.8</ele>
        <time>2022-01-19T11:03:26Z</time>
      </trkpt>
      <trkpt lat="44.8758" lon="5.52208">
        <ele>2126.8</ele>
        <time>2022-01-19T11:03:27Z</time>
      </trkpt>
      <trkpt lat="44.87579" lon="5.52208">
        <ele>2126.8</ele>
        <time>2022-01-19T11:03:28Z</time>
      </trkpt>
      <trkpt lat="44.87579" lon="5.52208">
        <ele>2126.8</ele>
        <time>2022-01-19T11:03:29Z</time>
      </trkpt>
      <trkpt lat="44.87579" lon="5.52208">
        <ele>2126.8</ele>
        <time>2022-01-19T11:03:30Z</time>
      </trkpt>
      <trkpt lat="44.87579" lon="5.52208">
        <ele>2126.8</ele>
        <time>2022-01-19T11:03:31Z</time>
      </trkpt>
      <trkpt lat="44.87579" lon="5.52208">
        <ele>2126.8</ele>
        <time>2022-01-19T11:03:32Z</time>
      </trkpt>
      <trkpt lat="44.87579" lon="5.52208">
        <ele>2126.8</ele>
        <time>2022-01-19T11:03:33Z</time>
      </trkpt>
      <trkpt lat="44.87579" lon="5.52208">
        <ele>2126.8</ele>
        <time>2022-01-19T11:03:34Z</time>
      </trkpt>
      <trkpt lat="44.87579" lon="5.52208">
        <ele>2126.8</ele>
        <time>2022-01-19T11:03:35Z</time>
      </trkpt>
      <trkpt lat="44.87579" lon="5.52208">
        <ele>2126.8</ele>
        <time>2022-01-19T11:03:36Z</time>
      </trkpt>
      <trkpt lat="44.87577" lon="5.52209">
        <ele>2127.8</ele>
        <time>2022-01-19T11:03:37Z</time>
      </trkpt>
      <trkpt lat="44.87576" lon="5.52209">
        <ele>2127.8</ele>
        <time>2022-01-19T11:03:38Z</time>
      </trkpt>
      <trkpt lat="44.87576" lon="5.52209">
        <ele>2130.6</ele>
        <time>2022-01-19T11:03:39Z</time>
      </trkpt>
      <trkpt lat="44.87575" lon="5.5221">
        <ele>2130.6</ele>
        <time>2022-01-19T11:03:40Z</time>
      </trkpt>
      <trkpt lat="44.87575" lon="5.5221">
        <ele>2130.6</ele>
        <time>2022-01-19T11:03:41Z</time>
      </trkpt>
      <trkpt lat="44.87574" lon="5.52211">
        <ele>2130.6</ele>
        <time>2022-01-19T11:03:42Z</time>
      </trkpt>
      <trkpt lat="44.87574" lon="5.52211">
        <ele>2130.6</ele>
        <time>2022-01-19T11:03:43Z</time>
      </trkpt>
      <trkpt lat="44.87573" lon="5.52211">
        <ele>2130.6</ele>
        <time>2022-01-19T11:03:44Z</time>
      </trkpt>
      <trkpt lat="44.87573" lon="5.52212">
        <ele>2131.5</ele>
        <time>2022-01-19T11:03:45Z</time>
      </trkpt>
      <trkpt lat="44.87572" lon="5.52212">
        <ele>2131.5</ele>
        <time>2022-01-19T11:03:46Z</time>
      </trkpt>
      <trkpt lat="44.87571" lon="5.52213">
        <ele>2131.5</ele>
        <time>2022-01-19T11:03:47Z</time>
      </trkpt>
      <trkpt lat="44.87571" lon="5.52214">
        <ele>2133.4</ele>
        <time>2022-01-19T11:03:48Z</time>
      </trkpt>
      <trkpt lat="44.8757" lon="5.52214">
        <ele>2133.4</ele>
        <time>2022-01-19T11:03:49Z</time>
      </trkpt>
      <trkpt lat="44.8757" lon="5.52214">
        <ele>2134.3</ele>
        <time>2022-01-19T11:03:50Z</time>
      </trkpt>
      <trkpt lat="44.8757" lon="5.52214">
        <ele>2134.3</ele>
        <time>2022-01-19T11:03:51Z</time>
      </trkpt>
      <trkpt lat="44.87569" lon="5.52214">
        <ele>2134.3</ele>
        <time>2022-01-19T11:03:52Z</time>
      </trkpt>
      <trkpt lat="44.87569" lon="5.52214">
        <ele>2134.3</ele>
        <time>2022-01-19T11:03:53Z</time>
      </trkpt>
      <trkpt lat="44.87569" lon="5.52214">
        <ele>2134.3</ele>
        <time>2022-01-19T11:03:54Z</time>
      </trkpt>
      <trkpt lat="44.87569" lon="5.52214">
        <ele>2134.3</ele>
        <time>2022-01-19T11:03:55Z</time>
      </trkpt>
      <trkpt lat="44.87569" lon="5.52214">
        <ele>2134.3</ele>
        <time>2022-01-19T11:03:56Z</time>
      </trkpt>
      <trkpt lat="44.87569" lon="5.52214">
        <ele>2134.3</ele>
        <time>2022-01-19T11:03:57Z</time>
      </trkpt>
      <trkpt lat="44.87569" lon="5.52214">
        <ele>2134.3</ele>
        <time>2022-01-19T11:03:58Z</time>
      </trkpt>
      <trkpt lat="44.87569" lon="5.52214">
        <ele>2134.3</ele>
        <time>2022-01-19T11:03:59Z</time>
      </trkpt>
      <trkpt lat="44.87569" lon="5.52214">
        <ele>2134.3</ele>
        <time>2022-01-19T11:04:00Z</time>
      </trkpt>
      <trkpt lat="44.87569" lon="5.52214">
        <ele>2134.3</ele>
        <time>2022-01-19T11:04:01Z</time>
      </trkpt>
      <trkpt lat="44.87569" lon="5.52214">
        <ele>2134.3</ele>
        <time>2022-01-19T11:04:02Z</time>
      </trkpt>
      <trkpt lat="44.87569" lon="5.52214">
        <ele>2134.3</ele>
        <time>2022-01-19T11:04:03Z</time>
      </trkpt>
      <trkpt lat="44.87569" lon="5.52214">
        <ele>2134.3</ele>
        <time>2022-01-19T11:04:04Z</time>
      </trkpt>
      <trkpt lat="44.87569" lon="5.52214">
        <ele>2134.3</ele>
        <time>2022-01-19T11:04:05Z</time>
      </trkpt>
      <trkpt lat="44.87569" lon="5.52214">
        <ele>2134.3</ele>
        <time>2022-01-19T11:04:06Z</time>
      </trkpt>
      <trkpt lat="44.87569" lon="5.52214">
        <ele>2134.3</ele>
        <time>2022-01-19T11:04:07Z</time>
      </trkpt>
      <trkpt lat="44.87569" lon="5.52214">
        <ele>2134.3</ele>
        <time>2022-01-19T11:04:08Z</time>
      </trkpt>
      <trkpt lat="44.87564" lon="5.52216">
        <ele>2135.1</ele>
        <time>2022-01-19T11:04:09Z</time>
      </trkpt>
      <trkpt lat="44.87563" lon="5.52217">
        <ele>2135.9</ele>
        <time>2022-01-19T11:04:10Z</time>
      </trkpt>
      <trkpt lat="44.87563" lon="5.52217">
        <ele>2135.9</ele>
        <time>2022-01-19T11:04:11Z</time>
      </trkpt>
      <trkpt lat="44.87562" lon="5.52218">
        <ele>2137.9</ele>
        <time>2022-01-19T11:04:12Z</time>
      </trkpt>
      <trkpt lat="44.87562" lon="5.52218">
        <ele>2137.9</ele>
        <time>2022-01-19T11:04:13Z</time>
      </trkpt>
      <trkpt lat="44.87562" lon="5.52218">
        <ele>2137.9</ele>
        <time>2022-01-19T11:04:14Z</time>
      </trkpt>
      <trkpt lat="44.87561" lon="5.52219">
        <ele>2137.9</ele>
        <time>2022-01-19T11:04:15Z</time>
      </trkpt>
      <trkpt lat="44.87561" lon="5.5222">
        <ele>2138.7</ele>
        <time>2022-01-19T11:04:16Z</time>
      </trkpt>
      <trkpt lat="44.8756" lon="5.52221">
        <ele>2138.7</ele>
        <time>2022-01-19T11:04:17Z</time>
      </trkpt>
      <trkpt lat="44.8756" lon="5.52221">
        <ele>2138.7</ele>
        <time>2022-01-19T11:04:18Z</time>
      </trkpt>
      <trkpt lat="44.8756" lon="5.52222">
        <ele>2140.8</ele>
        <time>2022-01-19T11:04:19Z</time>
      </trkpt>
      <trkpt lat="44.8756" lon="5.52223">
        <ele>2140.8</ele>
        <time>2022-01-19T11:04:20Z</time>
      </trkpt>
      <trkpt lat="44.87559" lon="5.52223">
        <ele>2140.8</ele>
        <time>2022-01-19T11:04:21Z</time>
      </trkpt>
      <trkpt lat="44.87558" lon="5.52224">
        <ele>2140.8</ele>
        <time>2022-01-19T11:04:22Z</time>
      </trkpt>
      <trkpt lat="44.87558" lon="5.52225">
        <ele>2140.8</ele>
        <time>2022-01-19T11:04:23Z</time>
      </trkpt>
      <trkpt lat="44.87558" lon="5.52226">
        <ele>2141.7</ele>
        <time>2022-01-19T11:04:24Z</time>
      </trkpt>
      <trkpt lat="44.87557" lon="5.52226">
        <ele>2141.7</ele>
        <time>2022-01-19T11:04:25Z</time>
      </trkpt>
      <trkpt lat="44.87557" lon="5.52226">
        <ele>2143.8</ele>
        <time>2022-01-19T11:04:26Z</time>
      </trkpt>
      <trkpt lat="44.87557" lon="5.52227">
        <ele>2143.8</ele>
        <time>2022-01-19T11:04:27Z</time>
      </trkpt>
      <trkpt lat="44.87557" lon="5.52227">
        <ele>2143.8</ele>
        <time>2022-01-19T11:04:28Z</time>
      </trkpt>
      <trkpt lat="44.87556" lon="5.52228">
        <ele>2143.8</ele>
        <time>2022-01-19T11:04:29Z</time>
      </trkpt>
      <trkpt lat="44.87556" lon="5.52228">
        <ele>2143.8</ele>
        <time>2022-01-19T11:04:30Z</time>
      </trkpt>
      <trkpt lat="44.87555" lon="5.52228">
        <ele>2143.8</ele>
        <time>2022-01-19T11:04:31Z</time>
      </trkpt>
      <trkpt lat="44.87555" lon="5.52229">
        <ele>2143.8</ele>
        <time>2022-01-19T11:04:32Z</time>
      </trkpt>
      <trkpt lat="44.87554" lon="5.52229">
        <ele>2144.6</ele>
        <time>2022-01-19T11:04:33Z</time>
      </trkpt>
      <trkpt lat="44.87554" lon="5.5223">
        <ele>2144.6</ele>
        <time>2022-01-19T11:04:34Z</time>
      </trkpt>
      <trkpt lat="44.87554" lon="5.5223">
        <ele>2144.6</ele>
        <time>2022-01-19T11:04:35Z</time>
      </trkpt>
      <trkpt lat="44.87553" lon="5.5223">
        <ele>2144.6</ele>
        <time>2022-01-19T11:04:36Z</time>
      </trkpt>
      <trkpt lat="44.87553" lon="5.5223">
        <ele>2144.6</ele>
        <time>2022-01-19T11:04:37Z</time>
      </trkpt>
      <trkpt lat="44.87552" lon="5.5223">
        <ele>2144.6</ele>
        <time>2022-01-19T11:04:38Z</time>
      </trkpt>
      <trkpt lat="44.87552" lon="5.5223">
        <ele>2145.3</ele>
        <time>2022-01-19T11:04:39Z</time>
      </trkpt>
      <trkpt lat="44.87552" lon="5.52231">
        <ele>2147.6</ele>
        <time>2022-01-19T11:04:40Z</time>
      </trkpt>
      <trkpt lat="44.87551" lon="5.52231">
        <ele>2147.6</ele>
        <time>2022-01-19T11:04:41Z</time>
      </trkpt>
      <trkpt lat="44.8755" lon="5.52232">
        <ele>2147.6</ele>
        <time>2022-01-19T11:04:42Z</time>
      </trkpt>
      <trkpt lat="44.8755" lon="5.52232">
        <ele>2147.6</ele>
        <time>2022-01-19T11:04:43Z</time>
      </trkpt>
      <trkpt lat="44.8755" lon="5.52233">
        <ele>2147.6</ele>
        <time>2022-01-19T11:04:44Z</time>
      </trkpt>
      <trkpt lat="44.87549" lon="5.52233">
        <ele>2147.6</ele>
        <time>2022-01-19T11:04:45Z</time>
      </trkpt>
      <trkpt lat="44.87549" lon="5.52234">
        <ele>2148.2</ele>
        <time>2022-01-19T11:04:46Z</time>
      </trkpt>
      <trkpt lat="44.87548" lon="5.52234">
        <ele>2148.2</ele>
        <time>2022-01-19T11:04:47Z</time>
      </trkpt>
      <trkpt lat="44.87548" lon="5.52233">
        <ele>2148.2</ele>
        <time>2022-01-19T11:04:48Z</time>
      </trkpt>
      <trkpt lat="44.87547" lon="5.52233">
        <ele>2148.2</ele>
        <time>2022-01-19T11:04:49Z</time>
      </trkpt>
      <trkpt lat="44.87547" lon="5.52233">
        <ele>2148.2</ele>
        <time>2022-01-19T11:04:50Z</time>
      </trkpt>
      <trkpt lat="44.87547" lon="5.52233">
        <ele>2148.2</ele>
        <time>2022-01-19T11:04:51Z</time>
      </trkpt>
      <trkpt lat="44.87547" lon="5.52234">
        <ele>2148.2</ele>
        <time>2022-01-19T11:04:52Z</time>
      </trkpt>
      <trkpt lat="44.87547" lon="5.52234">
        <ele>2148.2</ele>
        <time>2022-01-19T11:04:53Z</time>
      </trkpt>
      <trkpt lat="44.87547" lon="5.52234">
        <ele>2148.2</ele>
        <time>2022-01-19T11:04:54Z</time>
      </trkpt>
      <trkpt lat="44.87547" lon="5.52234">
        <ele>2148.2</ele>
        <time>2022-01-19T11:04:55Z</time>
      </trkpt>
      <trkpt lat="44.87547" lon="5.52234">
        <ele>2148.2</ele>
        <time>2022-01-19T11:04:56Z</time>
      </trkpt>
      <trkpt lat="44.87547" lon="5.52234">
        <ele>2148.2</ele>
        <time>2022-01-19T11:04:57Z</time>
      </trkpt>
      <trkpt lat="44.87547" lon="5.52234">
        <ele>2148.2</ele>
        <time>2022-01-19T11:04:58Z</time>
      </trkpt>
      <trkpt lat="44.87547" lon="5.52234">
        <ele>2148.2</ele>
        <time>2022-01-19T11:04:59Z</time>
      </trkpt>
      <trkpt lat="44.87546" lon="5.52234">
        <ele>2148.2</ele>
        <time>2022-01-19T11:05:00Z</time>
      </trkpt>
      <trkpt lat="44.87545" lon="5.52234">
        <ele>2148.7</ele>
        <time>2022-01-19T11:05:01Z</time>
      </trkpt>
      <trkpt lat="44.87545" lon="5.52234">
        <ele>2148.7</ele>
        <time>2022-01-19T11:05:02Z</time>
      </trkpt>
      <trkpt lat="44.87545" lon="5.52234">
        <ele>2148.7</ele>
        <time>2022-01-19T11:05:03Z</time>
      </trkpt>
      <trkpt lat="44.87544" lon="5.52234">
        <ele>2148.7</ele>
        <time>2022-01-19T11:05:04Z</time>
      </trkpt>
      <trkpt lat="44.87544" lon="5.52234">
        <ele>2148.7</ele>
        <time>2022-01-19T11:05:05Z</time>
      </trkpt>
      <trkpt lat="44.87544" lon="5.52234">
        <ele>2148.7</ele>
        <time>2022-01-19T11:05:06Z</time>
      </trkpt>
      <trkpt lat="44.87544" lon="5.52234">
        <ele>2148.7</ele>
        <time>2022-01-19T11:05:07Z</time>
      </trkpt>
      <trkpt lat="44.87544" lon="5.52234">
        <ele>2148.7</ele>
        <time>2022-01-19T11:05:08Z</time>
      </trkpt>
      <trkpt lat="44.87544" lon="5.52234">
        <ele>2148.7</ele>
        <time>2022-01-19T11:05:09Z</time>
      </trkpt>
      <trkpt lat="44.87544" lon="5.52234">
        <ele>2148.7</ele>
        <time>2022-01-19T11:05:10Z</time>
      </trkpt>
      <trkpt lat="44.87544" lon="5.52234">
        <ele>2148.7</ele>
        <time>2022-01-19T11:05:11Z</time>
      </trkpt>
      <trkpt lat="44.87544" lon="5.52234">
        <ele>2148.7</ele>
        <time>2022-01-19T11:05:12Z</time>
      </trkpt>
      <trkpt lat="44.87544" lon="5.52234">
        <ele>2148.7</ele>
        <time>2022-01-19T11:05:13Z</time>
      </trkpt>
      <trkpt lat="44.87541" lon="5.52236">
        <ele>2151.6</ele>
        <time>2022-01-19T11:05:14Z</time>
      </trkpt>
      <trkpt lat="44.87541" lon="5.52237">
        <ele>2151.6</ele>
        <time>2022-01-19T11:05:15Z</time>
      </trkpt>
      <trkpt lat="44.8754" lon="5.52238">
        <ele>2151.6</ele>
        <time>2022-01-19T11:05:16Z</time>
      </trkpt>
      <trkpt lat="44.8754" lon="5.52238">
        <ele>2151.6</ele>
        <time>2022-01-19T11:05:17Z</time>
      </trkpt>
      <trkpt lat="44.8754" lon="5.52238">
        <ele>2151.6</ele>
        <time>2022-01-19T11:05:18Z</time>
      </trkpt>
      <trkpt lat="44.8754" lon="5.52238">
        <ele>2151.6</ele>
        <time>2022-01-19T11:05:19Z</time>
      </trkpt>
      <trkpt lat="44.8754" lon="5.52239">
        <ele>2151.6</ele>
        <time>2022-01-19T11:05:20Z</time>
      </trkpt>
      <trkpt lat="44.8754" lon="5.52239">
        <ele>2151.6</ele>
        <time>2022-01-19T11:05:21Z</time>
      </trkpt>
      <trkpt lat="44.8754" lon="5.52239">
        <ele>2151.6</ele>
        <time>2022-01-19T11:05:22Z</time>
      </trkpt>
      <trkpt lat="44.87539" lon="5.5224">
        <ele>2154.6</ele>
        <time>2022-01-19T11:05:23Z</time>
      </trkpt>
      <trkpt lat="44.87538" lon="5.52241">
        <ele>2154.6</ele>
        <time>2022-01-19T11:05:24Z</time>
      </trkpt>
      <trkpt lat="44.87537" lon="5.52242">
        <ele>2154.6</ele>
        <time>2022-01-19T11:05:25Z</time>
      </trkpt>
      <trkpt lat="44.87537" lon="5.52242">
        <ele>2154.6</ele>
        <time>2022-01-19T11:05:26Z</time>
      </trkpt>
      <trkpt lat="44.87537" lon="5.52243">
        <ele>2154.6</ele>
        <time>2022-01-19T11:05:27Z</time>
      </trkpt>
      <trkpt lat="44.87536" lon="5.52243">
        <ele>2155.1</ele>
        <time>2022-01-19T11:05:28Z</time>
      </trkpt>
      <trkpt lat="44.87536" lon="5.52244">
        <ele>2157.7</ele>
        <time>2022-01-19T11:05:29Z</time>
      </trkpt>
      <trkpt lat="44.87536" lon="5.52244">
        <ele>2157.7</ele>
        <time>2022-01-19T11:05:30Z</time>
      </trkpt>
      <trkpt lat="44.87535" lon="5.52245">
        <ele>2157.7</ele>
        <time>2022-01-19T11:05:31Z</time>
      </trkpt>
      <trkpt lat="44.87535" lon="5.52245">
        <ele>2157.7</ele>
        <time>2022-01-19T11:05:32Z</time>
      </trkpt>
      <trkpt lat="44.87534" lon="5.52245">
        <ele>2157.7</ele>
        <time>2022-01-19T11:05:33Z</time>
      </trkpt>
      <trkpt lat="44.87534" lon="5.52246">
        <ele>2157.7</ele>
        <time>2022-01-19T11:05:34Z</time>
      </trkpt>
      <trkpt lat="44.87534" lon="5.52246">
        <ele>2157.7</ele>
        <time>2022-01-19T11:05:35Z</time>
      </trkpt>
      <trkpt lat="44.87533" lon="5.52245">
        <ele>2158.3</ele>
        <time>2022-01-19T11:05:36Z</time>
      </trkpt>
      <trkpt lat="44.87533" lon="5.52245">
        <ele>2158.3</ele>
        <time>2022-01-19T11:05:37Z</time>
      </trkpt>
      <trkpt lat="44.87533" lon="5.52246">
        <ele>2158.3</ele>
        <time>2022-01-19T11:05:38Z</time>
      </trkpt>
      <trkpt lat="44.87533" lon="5.52246">
        <ele>2158.3</ele>
        <time>2022-01-19T11:05:39Z</time>
      </trkpt>
      <trkpt lat="44.87532" lon="5.52246">
        <ele>2158.3</ele>
        <time>2022-01-19T11:05:40Z</time>
      </trkpt>
      <trkpt lat="44.87532" lon="5.52246">
        <ele>2158.3</ele>
        <time>2022-01-19T11:05:41Z</time>
      </trkpt>
      <trkpt lat="44.87531" lon="5.52248">
        <ele>2161</ele>
        <time>2022-01-19T11:05:42Z</time>
      </trkpt>
      <trkpt lat="44.87531" lon="5.52249">
        <ele>2161</ele>
        <time>2022-01-19T11:05:43Z</time>
      </trkpt>
      <trkpt lat="44.87531" lon="5.52248">
        <ele>2161.6</ele>
        <time>2022-01-19T11:05:44Z</time>
      </trkpt>
      <trkpt lat="44.87531" lon="5.52249">
        <ele>2161.6</ele>
        <time>2022-01-19T11:05:45Z</time>
      </trkpt>
      <trkpt lat="44.8753" lon="5.52249">
        <ele>2161.6</ele>
        <time>2022-01-19T11:05:46Z</time>
      </trkpt>
      <trkpt lat="44.8753" lon="5.52249">
        <ele>2161.6</ele>
        <time>2022-01-19T11:05:47Z</time>
      </trkpt>
      <trkpt lat="44.8753" lon="5.52249">
        <ele>2161.6</ele>
        <time>2022-01-19T11:05:48Z</time>
      </trkpt>
      <trkpt lat="44.8753" lon="5.52249">
        <ele>2161.6</ele>
        <time>2022-01-19T11:05:49Z</time>
      </trkpt>
      <trkpt lat="44.8753" lon="5.52249">
        <ele>2161.6</ele>
        <time>2022-01-19T11:05:50Z</time>
      </trkpt>
      <trkpt lat="44.8753" lon="5.52249">
        <ele>2161.6</ele>
        <time>2022-01-19T11:05:51Z</time>
      </trkpt>
      <trkpt lat="44.8753" lon="5.52249">
        <ele>2161.6</ele>
        <time>2022-01-19T11:05:52Z</time>
      </trkpt>
      <trkpt lat="44.8753" lon="5.52249">
        <ele>2161.6</ele>
        <time>2022-01-19T11:05:53Z</time>
      </trkpt>
      <trkpt lat="44.87528" lon="5.5225">
        <ele>2161.6</ele>
        <time>2022-01-19T11:05:54Z</time>
      </trkpt>
      <trkpt lat="44.87527" lon="5.5225">
        <ele>2162.1</ele>
        <time>2022-01-19T11:05:55Z</time>
      </trkpt>
      <trkpt lat="44.87527" lon="5.5225">
        <ele>2162.1</ele>
        <time>2022-01-19T11:05:56Z</time>
      </trkpt>
      <trkpt lat="44.87528" lon="5.5225">
        <ele>2161.6</ele>
        <time>2022-01-19T11:05:57Z</time>
      </trkpt>
      <trkpt lat="44.87528" lon="5.52249">
        <ele>2161.6</ele>
        <time>2022-01-19T11:05:58Z</time>
      </trkpt>
      <trkpt lat="44.87528" lon="5.52249">
        <ele>2161.6</ele>
        <time>2022-01-19T11:05:59Z</time>
      </trkpt>
      <trkpt lat="44.87528" lon="5.52249">
        <ele>2161.6</ele>
        <time>2022-01-19T11:06:00Z</time>
      </trkpt>
      <trkpt lat="44.87528" lon="5.52249">
        <ele>2161.6</ele>
        <time>2022-01-19T11:06:01Z</time>
      </trkpt>
      <trkpt lat="44.87528" lon="5.52249">
        <ele>2161.6</ele>
        <time>2022-01-19T11:06:02Z</time>
      </trkpt>
      <trkpt lat="44.87528" lon="5.52249">
        <ele>2161.6</ele>
        <time>2022-01-19T11:06:03Z</time>
      </trkpt>
      <trkpt lat="44.87528" lon="5.52249">
        <ele>2161.6</ele>
        <time>2022-01-19T11:06:04Z</time>
      </trkpt>
      <trkpt lat="44.87528" lon="5.52249">
        <ele>2161.6</ele>
        <time>2022-01-19T11:06:05Z</time>
      </trkpt>
      <trkpt lat="44.87528" lon="5.52249">
        <ele>2161.6</ele>
        <time>2022-01-19T11:06:06Z</time>
      </trkpt>
      <trkpt lat="44.87528" lon="5.52249">
        <ele>2161.6</ele>
        <time>2022-01-19T11:06:07Z</time>
      </trkpt>
      <trkpt lat="44.87528" lon="5.52249">
        <ele>2161.6</ele>
        <time>2022-01-19T11:06:08Z</time>
      </trkpt>
      <trkpt lat="44.87528" lon="5.52249">
        <ele>2161.6</ele>
        <time>2022-01-19T11:06:09Z</time>
      </trkpt>
      <trkpt lat="44.87528" lon="5.52249">
        <ele>2161.6</ele>
        <time>2022-01-19T11:06:10Z</time>
      </trkpt>
      <trkpt lat="44.87528" lon="5.52249">
        <ele>2161.6</ele>
        <time>2022-01-19T11:06:11Z</time>
      </trkpt>
      <trkpt lat="44.87528" lon="5.52249">
        <ele>2161.6</ele>
        <time>2022-01-19T11:06:12Z</time>
      </trkpt>
      <trkpt lat="44.87528" lon="5.52249">
        <ele>2161.6</ele>
        <time>2022-01-19T11:06:13Z</time>
      </trkpt>
      <trkpt lat="44.87528" lon="5.52249">
        <ele>2161.6</ele>
        <time>2022-01-19T11:06:14Z</time>
      </trkpt>
      <trkpt lat="44.87528" lon="5.52249">
        <ele>2161.6</ele>
        <time>2022-01-19T11:06:15Z</time>
      </trkpt>
      <trkpt lat="44.87528" lon="5.52249">
        <ele>2161.6</ele>
        <time>2022-01-19T11:06:16Z</time>
      </trkpt>
      <trkpt lat="44.87528" lon="5.52249">
        <ele>2161.6</ele>
        <time>2022-01-19T11:06:17Z</time>
      </trkpt>
      <trkpt lat="44.87528" lon="5.52249">
        <ele>2161.6</ele>
        <time>2022-01-19T11:06:18Z</time>
      </trkpt>
      <trkpt lat="44.87528" lon="5.52249">
        <ele>2161.6</ele>
        <time>2022-01-19T11:06:19Z</time>
      </trkpt>
      <trkpt lat="44.87528" lon="5.52249">
        <ele>2161.6</ele>
        <time>2022-01-19T11:06:20Z</time>
      </trkpt>
      <trkpt lat="44.87528" lon="5.52249">
        <ele>2161.6</ele>
        <time>2022-01-19T11:06:21Z</time>
      </trkpt>
      <trkpt lat="44.87528" lon="5.52249">
        <ele>2161.6</ele>
        <time>2022-01-19T11:06:22Z</time>
      </trkpt>
      <trkpt lat="44.87528" lon="5.52249">
        <ele>2161.6</ele>
        <time>2022-01-19T11:06:23Z</time>
      </trkpt>
      <trkpt lat="44.87528" lon="5.52249">
        <ele>2161.6</ele>
        <time>2022-01-19T11:06:24Z</time>
      </trkpt>
      <trkpt lat="44.87528" lon="5.52249">
        <ele>2161.6</ele>
        <time>2022-01-19T11:06:25Z</time>
      </trkpt>
      <trkpt lat="44.87528" lon="5.52249">
        <ele>2161.6</ele>
        <time>2022-01-19T11:06:26Z</time>
      </trkpt>
      <trkpt lat="44.87528" lon="5.52249">
        <ele>2161.6</ele>
        <time>2022-01-19T11:06:27Z</time>
      </trkpt>
      <trkpt lat="44.87528" lon="5.52249">
        <ele>2161.6</ele>
        <time>2022-01-19T11:06:28Z</time>
      </trkpt>
      <trkpt lat="44.87528" lon="5.52249">
        <ele>2161.6</ele>
        <time>2022-01-19T11:06:29Z</time>
      </trkpt>
      <trkpt lat="44.87528" lon="5.52249">
        <ele>2161.6</ele>
        <time>2022-01-19T11:06:30Z</time>
      </trkpt>
      <trkpt lat="44.87528" lon="5.52249">
        <ele>2161.6</ele>
        <time>2022-01-19T11:06:31Z</time>
      </trkpt>
      <trkpt lat="44.87528" lon="5.52249">
        <ele>2161.6</ele>
        <time>2022-01-19T11:06:32Z</time>
      </trkpt>
      <trkpt lat="44.87528" lon="5.52249">
        <ele>2161.6</ele>
        <time>2022-01-19T11:06:33Z</time>
      </trkpt>
      <trkpt lat="44.87528" lon="5.52249">
        <ele>2161.6</ele>
        <time>2022-01-19T11:06:34Z</time>
      </trkpt>
      <trkpt lat="44.87528" lon="5.52249">
        <ele>2161.6</ele>
        <time>2022-01-19T11:06:35Z</time>
      </trkpt>
      <trkpt lat="44.87528" lon="5.52249">
        <ele>2161.6</ele>
        <time>2022-01-19T11:06:36Z</time>
      </trkpt>
      <trkpt lat="44.87528" lon="5.52249">
        <ele>2161.6</ele>
        <time>2022-01-19T11:06:37Z</time>
      </trkpt>
      <trkpt lat="44.87528" lon="5.52249">
        <ele>2161.6</ele>
        <time>2022-01-19T11:06:38Z</time>
      </trkpt>
      <trkpt lat="44.87528" lon="5.52249">
        <ele>2161.6</ele>
        <time>2022-01-19T11:06:39Z</time>
      </trkpt>
      <trkpt lat="44.87525" lon="5.52247">
        <ele>2159.3</ele>
        <time>2022-01-19T11:06:40Z</time>
      </trkpt>
      <trkpt lat="44.87524" lon="5.52247">
        <ele>2159.6</ele>
        <time>2022-01-19T11:06:41Z</time>
      </trkpt>
      <trkpt lat="44.87523" lon="5.52248">
        <ele>2162.5</ele>
        <time>2022-01-19T11:06:42Z</time>
      </trkpt>
      <trkpt lat="44.87523" lon="5.52248">
        <ele>2162.5</ele>
        <time>2022-01-19T11:06:43Z</time>
      </trkpt>
      <trkpt lat="44.87522" lon="5.52248">
        <ele>2162.5</ele>
        <time>2022-01-19T11:06:44Z</time>
      </trkpt>
      <trkpt lat="44.87522" lon="5.52249">
        <ele>2162.5</ele>
        <time>2022-01-19T11:06:45Z</time>
      </trkpt>
      <trkpt lat="44.87521" lon="5.52249">
        <ele>2162.9</ele>
        <time>2022-01-19T11:06:46Z</time>
      </trkpt>
      <trkpt lat="44.87521" lon="5.52249">
        <ele>2162.9</ele>
        <time>2022-01-19T11:06:47Z</time>
      </trkpt>
      <trkpt lat="44.8752" lon="5.5225">
        <ele>2162.9</ele>
        <time>2022-01-19T11:06:48Z</time>
      </trkpt>
      <trkpt lat="44.8752" lon="5.5225">
        <ele>2162.9</ele>
        <time>2022-01-19T11:06:49Z</time>
      </trkpt>
      <trkpt lat="44.87519" lon="5.5225">
        <ele>2162.9</ele>
        <time>2022-01-19T11:06:50Z</time>
      </trkpt>
      <trkpt lat="44.87519" lon="5.5225">
        <ele>2162.9</ele>
        <time>2022-01-19T11:06:51Z</time>
      </trkpt>
      <trkpt lat="44.87518" lon="5.52251">
        <ele>2163.1</ele>
        <time>2022-01-19T11:06:52Z</time>
      </trkpt>
      <trkpt lat="44.87517" lon="5.52251">
        <ele>2163.1</ele>
        <time>2022-01-19T11:06:53Z</time>
      </trkpt>
      <trkpt lat="44.87517" lon="5.52252">
        <ele>2163.1</ele>
        <time>2022-01-19T11:06:54Z</time>
      </trkpt>
      <trkpt lat="44.87516" lon="5.52252">
        <ele>2166</ele>
        <time>2022-01-19T11:06:55Z</time>
      </trkpt>
      <trkpt lat="44.87515" lon="5.52252">
        <ele>2166.4</ele>
        <time>2022-01-19T11:06:56Z</time>
      </trkpt>
      <trkpt lat="44.87515" lon="5.52253">
        <ele>2166.4</ele>
        <time>2022-01-19T11:06:57Z</time>
      </trkpt>
      <trkpt lat="44.87514" lon="5.52253">
        <ele>2166.5</ele>
        <time>2022-01-19T11:06:58Z</time>
      </trkpt>
      <trkpt lat="44.87513" lon="5.52254">
        <ele>2166.6</ele>
        <time>2022-01-19T11:06:59Z</time>
      </trkpt>
      <trkpt lat="44.87513" lon="5.52254">
        <ele>2166.7</ele>
        <time>2022-01-19T11:07:00Z</time>
      </trkpt>
      <trkpt lat="44.87512" lon="5.52254">
        <ele>2166.8</ele>
        <time>2022-01-19T11:07:01Z</time>
      </trkpt>
      <trkpt lat="44.87512" lon="5.52254">
        <ele>2166.9</ele>
        <time>2022-01-19T11:07:02Z</time>
      </trkpt>
      <trkpt lat="44.87512" lon="5.52254">
        <ele>2167</ele>
        <time>2022-01-19T11:07:03Z</time>
      </trkpt>
      <trkpt lat="44.87511" lon="5.52255">
        <ele>2167.1</ele>
        <time>2022-01-19T11:07:04Z</time>
      </trkpt>
      <trkpt lat="44.8751" lon="5.52255">
        <ele>2167.1</ele>
        <time>2022-01-19T11:07:05Z</time>
      </trkpt>
      <trkpt lat="44.8751" lon="5.52255">
        <ele>2167.2</ele>
        <time>2022-01-19T11:07:06Z</time>
      </trkpt>
      <trkpt lat="44.87509" lon="5.52256">
        <ele>2167.4</ele>
        <time>2022-01-19T11:07:07Z</time>
      </trkpt>
      <trkpt lat="44.87509" lon="5.52256">
        <ele>2167.5</ele>
        <time>2022-01-19T11:07:08Z</time>
      </trkpt>
      <trkpt lat="44.87508" lon="5.52256">
        <ele>2170.1</ele>
        <time>2022-01-19T11:07:09Z</time>
      </trkpt>
      <trkpt lat="44.87507" lon="5.52256">
        <ele>2170.1</ele>
        <time>2022-01-19T11:07:10Z</time>
      </trkpt>
      <trkpt lat="44.87507" lon="5.52256">
        <ele>2170.2</ele>
        <time>2022-01-19T11:07:11Z</time>
      </trkpt>
      <trkpt lat="44.87506" lon="5.52257">
        <ele>2170.3</ele>
        <time>2022-01-19T11:07:12Z</time>
      </trkpt>
      <trkpt lat="44.87505" lon="5.52257">
        <ele>2170.4</ele>
        <time>2022-01-19T11:07:13Z</time>
      </trkpt>
      <trkpt lat="44.87505" lon="5.52257">
        <ele>2170.4</ele>
        <time>2022-01-19T11:07:14Z</time>
      </trkpt>
      <trkpt lat="44.87504" lon="5.52258">
        <ele>2170.5</ele>
        <time>2022-01-19T11:07:15Z</time>
      </trkpt>
      <trkpt lat="44.87504" lon="5.52259">
        <ele>2170.6</ele>
        <time>2022-01-19T11:07:16Z</time>
      </trkpt>
      <trkpt lat="44.87503" lon="5.52259">
        <ele>2170.7</ele>
        <time>2022-01-19T11:07:17Z</time>
      </trkpt>
      <trkpt lat="44.87503" lon="5.52259">
        <ele>2170.7</ele>
        <time>2022-01-19T11:07:18Z</time>
      </trkpt>
      <trkpt lat="44.87502" lon="5.52259">
        <ele>2170.8</ele>
        <time>2022-01-19T11:07:19Z</time>
      </trkpt>
      <trkpt lat="44.87502" lon="5.52259">
        <ele>2170.9</ele>
        <time>2022-01-19T11:07:20Z</time>
      </trkpt>
      <trkpt lat="44.87501" lon="5.5226">
        <ele>2171</ele>
        <time>2022-01-19T11:07:21Z</time>
      </trkpt>
      <trkpt lat="44.87501" lon="5.52261">
        <ele>2172.9</ele>
        <time>2022-01-19T11:07:22Z</time>
      </trkpt>
      <trkpt lat="44.875" lon="5.52262">
        <ele>2172.9</ele>
        <time>2022-01-19T11:07:23Z</time>
      </trkpt>
      <trkpt lat="44.87499" lon="5.52262">
        <ele>2173</ele>
        <time>2022-01-19T11:07:24Z</time>
      </trkpt>
      <trkpt lat="44.87499" lon="5.52263">
        <ele>2173.1</ele>
        <time>2022-01-19T11:07:25Z</time>
      </trkpt>
      <trkpt lat="44.87499" lon="5.52263">
        <ele>2173.2</ele>
        <time>2022-01-19T11:07:26Z</time>
      </trkpt>
      <trkpt lat="44.87498" lon="5.52263">
        <ele>2173.2</ele>
        <time>2022-01-19T11:07:27Z</time>
      </trkpt>
      <trkpt lat="44.87497" lon="5.52264">
        <ele>2173.3</ele>
        <time>2022-01-19T11:07:28Z</time>
      </trkpt>
      <trkpt lat="44.87497" lon="5.52264">
        <ele>2173.3</ele>
        <time>2022-01-19T11:07:29Z</time>
      </trkpt>
      <trkpt lat="44.87496" lon="5.52264">
        <ele>2173.4</ele>
        <time>2022-01-19T11:07:30Z</time>
      </trkpt>
      <trkpt lat="44.87496" lon="5.52264">
        <ele>2173.4</ele>
        <time>2022-01-19T11:07:31Z</time>
      </trkpt>
      <trkpt lat="44.87495" lon="5.52264">
        <ele>2173.5</ele>
        <time>2022-01-19T11:07:32Z</time>
      </trkpt>
      <trkpt lat="44.87494" lon="5.52265">
        <ele>2174.7</ele>
        <time>2022-01-19T11:07:33Z</time>
      </trkpt>
      <trkpt lat="44.87494" lon="5.52265">
        <ele>2174.7</ele>
        <time>2022-01-19T11:07:34Z</time>
      </trkpt>
      <trkpt lat="44.87493" lon="5.52266">
        <ele>2174.8</ele>
        <time>2022-01-19T11:07:35Z</time>
      </trkpt>
      <trkpt lat="44.87493" lon="5.52266">
        <ele>2174.8</ele>
        <time>2022-01-19T11:07:36Z</time>
      </trkpt>
      <trkpt lat="44.87492" lon="5.52267">
        <ele>2174.9</ele>
        <time>2022-01-19T11:07:37Z</time>
      </trkpt>
      <trkpt lat="44.87492" lon="5.52267">
        <ele>2175</ele>
        <time>2022-01-19T11:07:38Z</time>
      </trkpt>
      <trkpt lat="44.87492" lon="5.52267">
        <ele>2175.1</ele>
        <time>2022-01-19T11:07:39Z</time>
      </trkpt>
      <trkpt lat="44.87492" lon="5.52267">
        <ele>2175.1</ele>
        <time>2022-01-19T11:07:40Z</time>
      </trkpt>
      <trkpt lat="44.87492" lon="5.52267">
        <ele>2175.2</ele>
        <time>2022-01-19T11:07:41Z</time>
      </trkpt>
      <trkpt lat="44.87492" lon="5.52267">
        <ele>2175.3</ele>
        <time>2022-01-19T11:07:42Z</time>
      </trkpt>
      <trkpt lat="44.87491" lon="5.52268">
        <ele>2175.3</ele>
        <time>2022-01-19T11:07:43Z</time>
      </trkpt>
      <trkpt lat="44.8749" lon="5.52269">
        <ele>2175.4</ele>
        <time>2022-01-19T11:07:44Z</time>
      </trkpt>
      <trkpt lat="44.87489" lon="5.52269">
        <ele>2176</ele>
        <time>2022-01-19T11:07:45Z</time>
      </trkpt>
      <trkpt lat="44.87489" lon="5.52269">
        <ele>2176.1</ele>
        <time>2022-01-19T11:07:46Z</time>
      </trkpt>
      <trkpt lat="44.87489" lon="5.5227">
        <ele>2176.2</ele>
        <time>2022-01-19T11:07:47Z</time>
      </trkpt>
      <trkpt lat="44.87488" lon="5.5227">
        <ele>2176.3</ele>
        <time>2022-01-19T11:07:48Z</time>
      </trkpt>
      <trkpt lat="44.87488" lon="5.52271">
        <ele>2176</ele>
        <time>2022-01-19T11:07:49Z</time>
      </trkpt>
      <trkpt lat="44.87487" lon="5.52272">
        <ele>2176.1</ele>
        <time>2022-01-19T11:07:50Z</time>
      </trkpt>
      <trkpt lat="44.87487" lon="5.52272">
        <ele>2176.2</ele>
        <time>2022-01-19T11:07:51Z</time>
      </trkpt>
      <trkpt lat="44.87486" lon="5.52273">
        <ele>2176.3</ele>
        <time>2022-01-19T11:07:52Z</time>
      </trkpt>
      <trkpt lat="44.87486" lon="5.52273">
        <ele>2176.3</ele>
        <time>2022-01-19T11:07:53Z</time>
      </trkpt>
      <trkpt lat="44.87485" lon="5.52273">
        <ele>2176.4</ele>
        <time>2022-01-19T11:07:54Z</time>
      </trkpt>
      <trkpt lat="44.87485" lon="5.52274">
        <ele>2176.3</ele>
        <time>2022-01-19T11:07:55Z</time>
      </trkpt>
      <trkpt lat="44.87484" lon="5.52274">
        <ele>2176.4</ele>
        <time>2022-01-19T11:07:56Z</time>
      </trkpt>
      <trkpt lat="44.87484" lon="5.52274">
        <ele>2176.5</ele>
        <time>2022-01-19T11:07:57Z</time>
      </trkpt>
      <trkpt lat="44.87484" lon="5.52274">
        <ele>2176.6</ele>
        <time>2022-01-19T11:07:58Z</time>
      </trkpt>
      <trkpt lat="44.87483" lon="5.52275">
        <ele>2176.6</ele>
        <time>2022-01-19T11:07:59Z</time>
      </trkpt>
      <trkpt lat="44.87483" lon="5.52276">
        <ele>2176.7</ele>
        <time>2022-01-19T11:08:00Z</time>
      </trkpt>
      <trkpt lat="44.87482" lon="5.52275">
        <ele>2176.5</ele>
        <time>2022-01-19T11:08:01Z</time>
      </trkpt>
      <trkpt lat="44.87481" lon="5.52275">
        <ele>2176.5</ele>
        <time>2022-01-19T11:08:02Z</time>
      </trkpt>
      <trkpt lat="44.87481" lon="5.52275">
        <ele>2176.6</ele>
        <time>2022-01-19T11:08:03Z</time>
      </trkpt>
      <trkpt lat="44.87481" lon="5.52275">
        <ele>2176.7</ele>
        <time>2022-01-19T11:08:04Z</time>
      </trkpt>
      <trkpt lat="44.8748" lon="5.52275">
        <ele>2176.8</ele>
        <time>2022-01-19T11:08:05Z</time>
      </trkpt>
      <trkpt lat="44.8748" lon="5.52275">
        <ele>2176.8</ele>
        <time>2022-01-19T11:08:06Z</time>
      </trkpt>
      <trkpt lat="44.87479" lon="5.52276">
        <ele>2176.9</ele>
        <time>2022-01-19T11:08:07Z</time>
      </trkpt>
      <trkpt lat="44.87479" lon="5.52276">
        <ele>2177</ele>
        <time>2022-01-19T11:08:08Z</time>
      </trkpt>
      <trkpt lat="44.87479" lon="5.52277">
        <ele>2176.7</ele>
        <time>2022-01-19T11:08:09Z</time>
      </trkpt>
      <trkpt lat="44.87478" lon="5.52277">
        <ele>2176.8</ele>
        <time>2022-01-19T11:08:10Z</time>
      </trkpt>
      <trkpt lat="44.87478" lon="5.52277">
        <ele>2176.8</ele>
        <time>2022-01-19T11:08:11Z</time>
      </trkpt>
      <trkpt lat="44.87477" lon="5.52278">
        <ele>2176.6</ele>
        <time>2022-01-19T11:08:12Z</time>
      </trkpt>
      <trkpt lat="44.87476" lon="5.52278">
        <ele>2176.7</ele>
        <time>2022-01-19T11:08:13Z</time>
      </trkpt>
      <trkpt lat="44.87476" lon="5.52279">
        <ele>2176.3</ele>
        <time>2022-01-19T11:08:14Z</time>
      </trkpt>
      <trkpt lat="44.87475" lon="5.5228">
        <ele>2176.3</ele>
        <time>2022-01-19T11:08:15Z</time>
      </trkpt>
      <trkpt lat="44.87475" lon="5.52281">
        <ele>2176.4</ele>
        <time>2022-01-19T11:08:16Z</time>
      </trkpt>
      <trkpt lat="44.87475" lon="5.52282">
        <ele>2176.1</ele>
        <time>2022-01-19T11:08:17Z</time>
      </trkpt>
      <trkpt lat="44.87474" lon="5.52283">
        <ele>2176.2</ele>
        <time>2022-01-19T11:08:18Z</time>
      </trkpt>
      <trkpt lat="44.87474" lon="5.52284">
        <ele>2176.2</ele>
        <time>2022-01-19T11:08:19Z</time>
      </trkpt>
      <trkpt lat="44.87473" lon="5.52284">
        <ele>2176.3</ele>
        <time>2022-01-19T11:08:20Z</time>
      </trkpt>
      <trkpt lat="44.87473" lon="5.52285">
        <ele>2176</ele>
        <time>2022-01-19T11:08:21Z</time>
      </trkpt>
      <trkpt lat="44.87472" lon="5.52286">
        <ele>2176.1</ele>
        <time>2022-01-19T11:08:22Z</time>
      </trkpt>
      <trkpt lat="44.87472" lon="5.52287">
        <ele>2175.9</ele>
        <time>2022-01-19T11:08:23Z</time>
      </trkpt>
      <trkpt lat="44.87471" lon="5.52287">
        <ele>2175.9</ele>
        <time>2022-01-19T11:08:24Z</time>
      </trkpt>
      <trkpt lat="44.87471" lon="5.52287">
        <ele>2176</ele>
        <time>2022-01-19T11:08:25Z</time>
      </trkpt>
      <trkpt lat="44.87471" lon="5.52288">
        <ele>2176.1</ele>
        <time>2022-01-19T11:08:26Z</time>
      </trkpt>
      <trkpt lat="44.8747" lon="5.52289">
        <ele>2176.2</ele>
        <time>2022-01-19T11:08:27Z</time>
      </trkpt>
      <trkpt lat="44.8747" lon="5.52289">
        <ele>2176.2</ele>
        <time>2022-01-19T11:08:28Z</time>
      </trkpt>
      <trkpt lat="44.8747" lon="5.52289">
        <ele>2176.3</ele>
        <time>2022-01-19T11:08:29Z</time>
      </trkpt>
      <trkpt lat="44.8747" lon="5.5229">
        <ele>2176.1</ele>
        <time>2022-01-19T11:08:30Z</time>
      </trkpt>
      <trkpt lat="44.87469" lon="5.52291">
        <ele>2176.4</ele>
        <time>2022-01-19T11:08:31Z</time>
      </trkpt>
      <trkpt lat="44.87468" lon="5.52291">
        <ele>2176.4</ele>
        <time>2022-01-19T11:08:32Z</time>
      </trkpt>
      <trkpt lat="44.87468" lon="5.52292">
        <ele>2176.5</ele>
        <time>2022-01-19T11:08:33Z</time>
      </trkpt>
      <trkpt lat="44.87467" lon="5.52292">
        <ele>2176.6</ele>
        <time>2022-01-19T11:08:34Z</time>
      </trkpt>
      <trkpt lat="44.87467" lon="5.52292">
        <ele>2176.6</ele>
        <time>2022-01-19T11:08:35Z</time>
      </trkpt>
      <trkpt lat="44.87466" lon="5.52292">
        <ele>2176.5</ele>
        <time>2022-01-19T11:08:36Z</time>
      </trkpt>
      <trkpt lat="44.87465" lon="5.52293">
        <ele>2176.5</ele>
        <time>2022-01-19T11:08:37Z</time>
      </trkpt>
      <trkpt lat="44.87465" lon="5.52293">
        <ele>2176.5</ele>
        <time>2022-01-19T11:08:38Z</time>
      </trkpt>
      <trkpt lat="44.87465" lon="5.52294">
        <ele>2176.5</ele>
        <time>2022-01-19T11:08:39Z</time>
      </trkpt>
      <trkpt lat="44.87464" lon="5.52294">
        <ele>2176.5</ele>
        <time>2022-01-19T11:08:40Z</time>
      </trkpt>
      <trkpt lat="44.87464" lon="5.52294">
        <ele>2176.5</ele>
        <time>2022-01-19T11:08:41Z</time>
      </trkpt>
      <trkpt lat="44.87463" lon="5.52295">
        <ele>2176.7</ele>
        <time>2022-01-19T11:08:42Z</time>
      </trkpt>
      <trkpt lat="44.87463" lon="5.52295">
        <ele>2177.5</ele>
        <time>2022-01-19T11:08:43Z</time>
      </trkpt>
      <trkpt lat="44.87462" lon="5.52296">
        <ele>2177.5</ele>
        <time>2022-01-19T11:08:44Z</time>
      </trkpt>
      <trkpt lat="44.87462" lon="5.52296">
        <ele>2177.5</ele>
        <time>2022-01-19T11:08:45Z</time>
      </trkpt>
      <trkpt lat="44.87462" lon="5.52296">
        <ele>2177.5</ele>
        <time>2022-01-19T11:08:46Z</time>
      </trkpt>
      <trkpt lat="44.87461" lon="5.52296">
        <ele>2177.5</ele>
        <time>2022-01-19T11:08:47Z</time>
      </trkpt>
      <trkpt lat="44.8746" lon="5.52297">
        <ele>2177.9</ele>
        <time>2022-01-19T11:08:48Z</time>
      </trkpt>
      <trkpt lat="44.8746" lon="5.52297">
        <ele>2177.9</ele>
        <time>2022-01-19T11:08:49Z</time>
      </trkpt>
      <trkpt lat="44.8746" lon="5.52297">
        <ele>2177.9</ele>
        <time>2022-01-19T11:08:50Z</time>
      </trkpt>
      <trkpt lat="44.8746" lon="5.52298">
        <ele>2177.9</ele>
        <time>2022-01-19T11:08:51Z</time>
      </trkpt>
      <trkpt lat="44.8746" lon="5.52298">
        <ele>2177.9</ele>
        <time>2022-01-19T11:08:52Z</time>
      </trkpt>
      <trkpt lat="44.87459" lon="5.52299">
        <ele>2177.9</ele>
        <time>2022-01-19T11:08:53Z</time>
      </trkpt>
      <trkpt lat="44.87459" lon="5.52299">
        <ele>2179.3</ele>
        <time>2022-01-19T11:08:54Z</time>
      </trkpt>
      <trkpt lat="44.87458" lon="5.523">
        <ele>2179.3</ele>
        <time>2022-01-19T11:08:55Z</time>
      </trkpt>
      <trkpt lat="44.87458" lon="5.523">
        <ele>2179.3</ele>
        <time>2022-01-19T11:08:56Z</time>
      </trkpt>
      <trkpt lat="44.87457" lon="5.52301">
        <ele>2180</ele>
        <time>2022-01-19T11:08:57Z</time>
      </trkpt>
      <trkpt lat="44.87457" lon="5.52302">
        <ele>2180</ele>
        <time>2022-01-19T11:08:58Z</time>
      </trkpt>
      <trkpt lat="44.87457" lon="5.52302">
        <ele>2180</ele>
        <time>2022-01-19T11:08:59Z</time>
      </trkpt>
      <trkpt lat="44.87457" lon="5.52302">
        <ele>2180</ele>
        <time>2022-01-19T11:09:00Z</time>
      </trkpt>
      <trkpt lat="44.87457" lon="5.52302">
        <ele>2180</ele>
        <time>2022-01-19T11:09:01Z</time>
      </trkpt>
      <trkpt lat="44.87457" lon="5.52302">
        <ele>2180</ele>
        <time>2022-01-19T11:09:02Z</time>
      </trkpt>
      <trkpt lat="44.87457" lon="5.52302">
        <ele>2180</ele>
        <time>2022-01-19T11:09:03Z</time>
      </trkpt>
      <trkpt lat="44.87457" lon="5.52302">
        <ele>2180</ele>
        <time>2022-01-19T11:09:04Z</time>
      </trkpt>
      <trkpt lat="44.87457" lon="5.52302">
        <ele>2180</ele>
        <time>2022-01-19T11:09:05Z</time>
      </trkpt>
      <trkpt lat="44.87457" lon="5.52302">
        <ele>2180</ele>
        <time>2022-01-19T11:09:06Z</time>
      </trkpt>
      <trkpt lat="44.87457" lon="5.52302">
        <ele>2180</ele>
        <time>2022-01-19T11:09:07Z</time>
      </trkpt>
      <trkpt lat="44.87457" lon="5.52302">
        <ele>2180</ele>
        <time>2022-01-19T11:09:08Z</time>
      </trkpt>
      <trkpt lat="44.87457" lon="5.52302">
        <ele>2180</ele>
        <time>2022-01-19T11:09:09Z</time>
      </trkpt>
      <trkpt lat="44.87457" lon="5.52302">
        <ele>2180</ele>
        <time>2022-01-19T11:09:10Z</time>
      </trkpt>
      <trkpt lat="44.87457" lon="5.52302">
        <ele>2180</ele>
        <time>2022-01-19T11:09:11Z</time>
      </trkpt>
      <trkpt lat="44.87457" lon="5.52302">
        <ele>2180</ele>
        <time>2022-01-19T11:09:12Z</time>
      </trkpt>
      <trkpt lat="44.87457" lon="5.52303">
        <ele>2180</ele>
        <time>2022-01-19T11:09:13Z</time>
      </trkpt>
      <trkpt lat="44.87456" lon="5.52304">
        <ele>2181.6</ele>
        <time>2022-01-19T11:09:14Z</time>
      </trkpt>
      <trkpt lat="44.87456" lon="5.52304">
        <ele>2181.6</ele>
        <time>2022-01-19T11:09:15Z</time>
      </trkpt>
      <trkpt lat="44.87455" lon="5.52305">
        <ele>2181.6</ele>
        <time>2022-01-19T11:09:16Z</time>
      </trkpt>
      <trkpt lat="44.87455" lon="5.52306">
        <ele>2181.6</ele>
        <time>2022-01-19T11:09:17Z</time>
      </trkpt>
      <trkpt lat="44.87455" lon="5.52306">
        <ele>2181.6</ele>
        <time>2022-01-19T11:09:18Z</time>
      </trkpt>
      <trkpt lat="44.87454" lon="5.52306">
        <ele>2182.4</ele>
        <time>2022-01-19T11:09:19Z</time>
      </trkpt>
      <trkpt lat="44.87454" lon="5.52307">
        <ele>2182.4</ele>
        <time>2022-01-19T11:09:20Z</time>
      </trkpt>
      <trkpt lat="44.87454" lon="5.52307">
        <ele>2182.4</ele>
        <time>2022-01-19T11:09:21Z</time>
      </trkpt>
      <trkpt lat="44.87454" lon="5.52307">
        <ele>2182.4</ele>
        <time>2022-01-19T11:09:22Z</time>
      </trkpt>
      <trkpt lat="44.87454" lon="5.52308">
        <ele>2184.1</ele>
        <time>2022-01-19T11:09:23Z</time>
      </trkpt>
      <trkpt lat="44.87453" lon="5.52308">
        <ele>2184.1</ele>
        <time>2022-01-19T11:09:24Z</time>
      </trkpt>
      <trkpt lat="44.87452" lon="5.52309">
        <ele>2184.1</ele>
        <time>2022-01-19T11:09:25Z</time>
      </trkpt>
      <trkpt lat="44.87452" lon="5.52309">
        <ele>2184.1</ele>
        <time>2022-01-19T11:09:26Z</time>
      </trkpt>
      <trkpt lat="44.87452" lon="5.5231">
        <ele>2184.1</ele>
        <time>2022-01-19T11:09:27Z</time>
      </trkpt>
      <trkpt lat="44.87452" lon="5.5231">
        <ele>2184.1</ele>
        <time>2022-01-19T11:09:28Z</time>
      </trkpt>
      <trkpt lat="44.87451" lon="5.52311">
        <ele>2184.8</ele>
        <time>2022-01-19T11:09:29Z</time>
      </trkpt>
      <trkpt lat="44.87451" lon="5.52311">
        <ele>2184.8</ele>
        <time>2022-01-19T11:09:30Z</time>
      </trkpt>
      <trkpt lat="44.87451" lon="5.52312">
        <ele>2186.3</ele>
        <time>2022-01-19T11:09:31Z</time>
      </trkpt>
      <trkpt lat="44.8745" lon="5.52313">
        <ele>2186.3</ele>
        <time>2022-01-19T11:09:32Z</time>
      </trkpt>
      <trkpt lat="44.8745" lon="5.52313">
        <ele>2186.3</ele>
        <time>2022-01-19T11:09:33Z</time>
      </trkpt>
      <trkpt lat="44.8745" lon="5.52314">
        <ele>2186.3</ele>
        <time>2022-01-19T11:09:34Z</time>
      </trkpt>
      <trkpt lat="44.8745" lon="5.52315">
        <ele>2186.3</ele>
        <time>2022-01-19T11:09:35Z</time>
      </trkpt>
      <trkpt lat="44.8745" lon="5.52316">
        <ele>2186.3</ele>
        <time>2022-01-19T11:09:36Z</time>
      </trkpt>
      <trkpt lat="44.87449" lon="5.52316">
        <ele>2186.3</ele>
        <time>2022-01-19T11:09:37Z</time>
      </trkpt>
      <trkpt lat="44.87449" lon="5.52317">
        <ele>2187.6</ele>
        <time>2022-01-19T11:09:38Z</time>
      </trkpt>
      <trkpt lat="44.87449" lon="5.52317">
        <ele>2187.6</ele>
        <time>2022-01-19T11:09:39Z</time>
      </trkpt>
      <trkpt lat="44.87449" lon="5.52318">
        <ele>2187.6</ele>
        <time>2022-01-19T11:09:40Z</time>
      </trkpt>
      <trkpt lat="44.87449" lon="5.52319">
        <ele>2187.6</ele>
        <time>2022-01-19T11:09:41Z</time>
      </trkpt>
      <trkpt lat="44.87449" lon="5.52319">
        <ele>2187.6</ele>
        <time>2022-01-19T11:09:42Z</time>
      </trkpt>
      <trkpt lat="44.87448" lon="5.5232">
        <ele>2188</ele>
        <time>2022-01-19T11:09:43Z</time>
      </trkpt>
      <trkpt lat="44.87448" lon="5.5232">
        <ele>2188</ele>
        <time>2022-01-19T11:09:44Z</time>
      </trkpt>
      <trkpt lat="44.87448" lon="5.52321">
        <ele>2189.1</ele>
        <time>2022-01-19T11:09:45Z</time>
      </trkpt>
      <trkpt lat="44.87448" lon="5.52322">
        <ele>2189.1</ele>
        <time>2022-01-19T11:09:46Z</time>
      </trkpt>
      <trkpt lat="44.87448" lon="5.52322">
        <ele>2189.1</ele>
        <time>2022-01-19T11:09:47Z</time>
      </trkpt>
      <trkpt lat="44.87448" lon="5.52322">
        <ele>2189.1</ele>
        <time>2022-01-19T11:09:48Z</time>
      </trkpt>
      <trkpt lat="44.87447" lon="5.52323">
        <ele>2189.1</ele>
        <time>2022-01-19T11:09:49Z</time>
      </trkpt>
      <trkpt lat="44.87447" lon="5.52324">
        <ele>2189.1</ele>
        <time>2022-01-19T11:09:50Z</time>
      </trkpt>
      <trkpt lat="44.87447" lon="5.52324">
        <ele>2189.1</ele>
        <time>2022-01-19T11:09:51Z</time>
      </trkpt>
      <trkpt lat="44.87446" lon="5.52325">
        <ele>2190.2</ele>
        <time>2022-01-19T11:09:52Z</time>
      </trkpt>
      <trkpt lat="44.87446" lon="5.52325">
        <ele>2190.2</ele>
        <time>2022-01-19T11:09:53Z</time>
      </trkpt>
      <trkpt lat="44.87446" lon="5.52326">
        <ele>2190.2</ele>
        <time>2022-01-19T11:09:54Z</time>
      </trkpt>
      <trkpt lat="44.87446" lon="5.52326">
        <ele>2190.2</ele>
        <time>2022-01-19T11:09:55Z</time>
      </trkpt>
      <trkpt lat="44.87446" lon="5.52326">
        <ele>2190.2</ele>
        <time>2022-01-19T11:09:56Z</time>
      </trkpt>
      <trkpt lat="44.87446" lon="5.52326">
        <ele>2190.2</ele>
        <time>2022-01-19T11:09:57Z</time>
      </trkpt>
      <trkpt lat="44.87446" lon="5.52326">
        <ele>2190.2</ele>
        <time>2022-01-19T11:09:58Z</time>
      </trkpt>
      <trkpt lat="44.87446" lon="5.52326">
        <ele>2190.2</ele>
        <time>2022-01-19T11:09:59Z</time>
      </trkpt>
      <trkpt lat="44.87446" lon="5.52326">
        <ele>2190.2</ele>
        <time>2022-01-19T11:10:00Z</time>
      </trkpt>
      <trkpt lat="44.87446" lon="5.52326">
        <ele>2190.2</ele>
        <time>2022-01-19T11:10:01Z</time>
      </trkpt>
      <trkpt lat="44.87446" lon="5.52326">
        <ele>2190.2</ele>
        <time>2022-01-19T11:10:02Z</time>
      </trkpt>
      <trkpt lat="44.87446" lon="5.52326">
        <ele>2190.2</ele>
        <time>2022-01-19T11:10:03Z</time>
      </trkpt>
      <trkpt lat="44.87446" lon="5.52326">
        <ele>2190.2</ele>
        <time>2022-01-19T11:10:04Z</time>
      </trkpt>
      <trkpt lat="44.87446" lon="5.52326">
        <ele>2190.2</ele>
        <time>2022-01-19T11:10:05Z</time>
      </trkpt>
      <trkpt lat="44.87446" lon="5.52326">
        <ele>2190.2</ele>
        <time>2022-01-19T11:10:06Z</time>
      </trkpt>
      <trkpt lat="44.87446" lon="5.52326">
        <ele>2190.2</ele>
        <time>2022-01-19T11:10:07Z</time>
      </trkpt>
      <trkpt lat="44.87446" lon="5.52326">
        <ele>2190.2</ele>
        <time>2022-01-19T11:10:08Z</time>
      </trkpt>
      <trkpt lat="44.87446" lon="5.52326">
        <ele>2190.2</ele>
        <time>2022-01-19T11:10:09Z</time>
      </trkpt>
      <trkpt lat="44.87446" lon="5.52326">
        <ele>2190.2</ele>
        <time>2022-01-19T11:10:10Z</time>
      </trkpt>
      <trkpt lat="44.87446" lon="5.52326">
        <ele>2190.2</ele>
        <time>2022-01-19T11:10:11Z</time>
      </trkpt>
      <trkpt lat="44.87446" lon="5.52326">
        <ele>2190.2</ele>
        <time>2022-01-19T11:10:12Z</time>
      </trkpt>
      <trkpt lat="44.87446" lon="5.52326">
        <ele>2190.2</ele>
        <time>2022-01-19T11:10:13Z</time>
      </trkpt>
      <trkpt lat="44.87446" lon="5.52326">
        <ele>2190.2</ele>
        <time>2022-01-19T11:10:14Z</time>
      </trkpt>
      <trkpt lat="44.87446" lon="5.52326">
        <ele>2190.2</ele>
        <time>2022-01-19T11:10:15Z</time>
      </trkpt>
      <trkpt lat="44.87446" lon="5.52326">
        <ele>2190.2</ele>
        <time>2022-01-19T11:10:16Z</time>
      </trkpt>
      <trkpt lat="44.87446" lon="5.52326">
        <ele>2190.2</ele>
        <time>2022-01-19T11:10:17Z</time>
      </trkpt>
      <trkpt lat="44.87446" lon="5.52326">
        <ele>2190.2</ele>
        <time>2022-01-19T11:10:18Z</time>
      </trkpt>
      <trkpt lat="44.87446" lon="5.52326">
        <ele>2190.2</ele>
        <time>2022-01-19T11:10:19Z</time>
      </trkpt>
      <trkpt lat="44.87446" lon="5.52326">
        <ele>2190.2</ele>
        <time>2022-01-19T11:10:20Z</time>
      </trkpt>
      <trkpt lat="44.87446" lon="5.52326">
        <ele>2190.2</ele>
        <time>2022-01-19T11:10:21Z</time>
      </trkpt>
      <trkpt lat="44.87446" lon="5.52326">
        <ele>2190.2</ele>
        <time>2022-01-19T11:10:22Z</time>
      </trkpt>
      <trkpt lat="44.87444" lon="5.52329">
        <ele>2191.4</ele>
        <time>2022-01-19T11:10:23Z</time>
      </trkpt>
      <trkpt lat="44.87444" lon="5.5233">
        <ele>2191.4</ele>
        <time>2022-01-19T11:10:24Z</time>
      </trkpt>
      <trkpt lat="44.87443" lon="5.52331">
        <ele>2191.4</ele>
        <time>2022-01-19T11:10:25Z</time>
      </trkpt>
      <trkpt lat="44.87443" lon="5.52331">
        <ele>2191.4</ele>
        <time>2022-01-19T11:10:26Z</time>
      </trkpt>
      <trkpt lat="44.87443" lon="5.52331">
        <ele>2191.4</ele>
        <time>2022-01-19T11:10:27Z</time>
      </trkpt>
      <trkpt lat="44.87443" lon="5.52331">
        <ele>2191.4</ele>
        <time>2022-01-19T11:10:28Z</time>
      </trkpt>
      <trkpt lat="44.87443" lon="5.52331">
        <ele>2191.4</ele>
        <time>2022-01-19T11:10:29Z</time>
      </trkpt>
      <trkpt lat="44.87443" lon="5.52331">
        <ele>2191.4</ele>
        <time>2022-01-19T11:10:30Z</time>
      </trkpt>
      <trkpt lat="44.87443" lon="5.52331">
        <ele>2191.4</ele>
        <time>2022-01-19T11:10:31Z</time>
      </trkpt>
      <trkpt lat="44.87443" lon="5.52331">
        <ele>2191.4</ele>
        <time>2022-01-19T11:10:32Z</time>
      </trkpt>
      <trkpt lat="44.87443" lon="5.52331">
        <ele>2191.4</ele>
        <time>2022-01-19T11:10:33Z</time>
      </trkpt>
      <trkpt lat="44.87443" lon="5.52331">
        <ele>2191.4</ele>
        <time>2022-01-19T11:10:34Z</time>
      </trkpt>
      <trkpt lat="44.87443" lon="5.52331">
        <ele>2191.4</ele>
        <time>2022-01-19T11:10:35Z</time>
      </trkpt>
      <trkpt lat="44.87443" lon="5.52331">
        <ele>2191.4</ele>
        <time>2022-01-19T11:10:36Z</time>
      </trkpt>
      <trkpt lat="44.87443" lon="5.52331">
        <ele>2191.4</ele>
        <time>2022-01-19T11:10:37Z</time>
      </trkpt>
      <trkpt lat="44.87443" lon="5.52331">
        <ele>2191.4</ele>
        <time>2022-01-19T11:10:38Z</time>
      </trkpt>
      <trkpt lat="44.87443" lon="5.52331">
        <ele>2191.4</ele>
        <time>2022-01-19T11:10:39Z</time>
      </trkpt>
      <trkpt lat="44.87443" lon="5.52331">
        <ele>2191.4</ele>
        <time>2022-01-19T11:10:40Z</time>
      </trkpt>
      <trkpt lat="44.87443" lon="5.52331">
        <ele>2191.4</ele>
        <time>2022-01-19T11:10:41Z</time>
      </trkpt>
      <trkpt lat="44.87443" lon="5.52331">
        <ele>2191.4</ele>
        <time>2022-01-19T11:10:42Z</time>
      </trkpt>
      <trkpt lat="44.87443" lon="5.52331">
        <ele>2191.4</ele>
        <time>2022-01-19T11:10:43Z</time>
      </trkpt>
      <trkpt lat="44.87443" lon="5.52331">
        <ele>2191.4</ele>
        <time>2022-01-19T11:10:44Z</time>
      </trkpt>
      <trkpt lat="44.87443" lon="5.52331">
        <ele>2191.4</ele>
        <time>2022-01-19T11:10:45Z</time>
      </trkpt>
      <trkpt lat="44.87443" lon="5.52331">
        <ele>2191.4</ele>
        <time>2022-01-19T11:10:46Z</time>
      </trkpt>
      <trkpt lat="44.87443" lon="5.52331">
        <ele>2191.4</ele>
        <time>2022-01-19T11:10:47Z</time>
      </trkpt>
      <trkpt lat="44.87443" lon="5.52331">
        <ele>2191.4</ele>
        <time>2022-01-19T11:10:48Z</time>
      </trkpt>
      <trkpt lat="44.87443" lon="5.52331">
        <ele>2191.4</ele>
        <time>2022-01-19T11:10:49Z</time>
      </trkpt>
      <trkpt lat="44.87443" lon="5.52331">
        <ele>2191.4</ele>
        <time>2022-01-19T11:10:50Z</time>
      </trkpt>
      <trkpt lat="44.87443" lon="5.52331">
        <ele>2191.4</ele>
        <time>2022-01-19T11:10:51Z</time>
      </trkpt>
      <trkpt lat="44.87443" lon="5.52331">
        <ele>2191.4</ele>
        <time>2022-01-19T11:10:52Z</time>
      </trkpt>
      <trkpt lat="44.87443" lon="5.52331">
        <ele>2191.4</ele>
        <time>2022-01-19T11:10:53Z</time>
      </trkpt>
      <trkpt lat="44.87443" lon="5.52331">
        <ele>2191.4</ele>
        <time>2022-01-19T11:10:54Z</time>
      </trkpt>
      <trkpt lat="44.87443" lon="5.52331">
        <ele>2191.4</ele>
        <time>2022-01-19T11:10:55Z</time>
      </trkpt>
      <trkpt lat="44.87443" lon="5.52331">
        <ele>2191.4</ele>
        <time>2022-01-19T11:10:56Z</time>
      </trkpt>
      <trkpt lat="44.87443" lon="5.52331">
        <ele>2191.4</ele>
        <time>2022-01-19T11:10:57Z</time>
      </trkpt>
      <trkpt lat="44.87443" lon="5.52331">
        <ele>2191.4</ele>
        <time>2022-01-19T11:10:58Z</time>
      </trkpt>
      <trkpt lat="44.87443" lon="5.52331">
        <ele>2191.4</ele>
        <time>2022-01-19T11:10:59Z</time>
      </trkpt>
      <trkpt lat="44.87443" lon="5.52331">
        <ele>2191.4</ele>
        <time>2022-01-19T11:11:00Z</time>
      </trkpt>
      <trkpt lat="44.87443" lon="5.52331">
        <ele>2191.4</ele>
        <time>2022-01-19T11:11:01Z</time>
      </trkpt>
      <trkpt lat="44.87443" lon="5.52331">
        <ele>2191.4</ele>
        <time>2022-01-19T11:11:02Z</time>
      </trkpt>
      <trkpt lat="44.87443" lon="5.52331">
        <ele>2191.4</ele>
        <time>2022-01-19T11:11:03Z</time>
      </trkpt>
      <trkpt lat="44.87443" lon="5.52331">
        <ele>2191.4</ele>
        <time>2022-01-19T11:11:04Z</time>
      </trkpt>
      <trkpt lat="44.87443" lon="5.52331">
        <ele>2191.4</ele>
        <time>2022-01-19T11:11:05Z</time>
      </trkpt>
      <trkpt lat="44.87443" lon="5.52331">
        <ele>2191.4</ele>
        <time>2022-01-19T11:11:06Z</time>
      </trkpt>
      <trkpt lat="44.87443" lon="5.52331">
        <ele>2191.4</ele>
        <time>2022-01-19T11:11:07Z</time>
      </trkpt>
      <trkpt lat="44.87443" lon="5.52331">
        <ele>2191.4</ele>
        <time>2022-01-19T11:11:08Z</time>
      </trkpt>
      <trkpt lat="44.87443" lon="5.52331">
        <ele>2191.4</ele>
        <time>2022-01-19T11:11:09Z</time>
      </trkpt>
      <trkpt lat="44.87443" lon="5.52331">
        <ele>2191.4</ele>
        <time>2022-01-19T11:11:10Z</time>
      </trkpt>
      <trkpt lat="44.87443" lon="5.52331">
        <ele>2191.4</ele>
        <time>2022-01-19T11:11:11Z</time>
      </trkpt>
      <trkpt lat="44.87443" lon="5.52331">
        <ele>2191.4</ele>
        <time>2022-01-19T11:11:12Z</time>
      </trkpt>
      <trkpt lat="44.87443" lon="5.52331">
        <ele>2191.4</ele>
        <time>2022-01-19T11:11:13Z</time>
      </trkpt>
      <trkpt lat="44.87443" lon="5.52331">
        <ele>2191.4</ele>
        <time>2022-01-19T11:11:14Z</time>
      </trkpt>
      <trkpt lat="44.87443" lon="5.52331">
        <ele>2191.4</ele>
        <time>2022-01-19T11:11:15Z</time>
      </trkpt>
      <trkpt lat="44.87443" lon="5.52331">
        <ele>2191.4</ele>
        <time>2022-01-19T11:11:16Z</time>
      </trkpt>
      <trkpt lat="44.87443" lon="5.52331">
        <ele>2191.4</ele>
        <time>2022-01-19T11:11:17Z</time>
      </trkpt>
      <trkpt lat="44.87443" lon="5.52331">
        <ele>2191.4</ele>
        <time>2022-01-19T11:11:18Z</time>
      </trkpt>
      <trkpt lat="44.87443" lon="5.52331">
        <ele>2191.4</ele>
        <time>2022-01-19T11:11:19Z</time>
      </trkpt>
      <trkpt lat="44.87443" lon="5.52331">
        <ele>2191.4</ele>
        <time>2022-01-19T11:11:20Z</time>
      </trkpt>
      <trkpt lat="44.87443" lon="5.52331">
        <ele>2191.4</ele>
        <time>2022-01-19T11:11:21Z</time>
      </trkpt>
      <trkpt lat="44.87443" lon="5.52331">
        <ele>2191.4</ele>
        <time>2022-01-19T11:11:22Z</time>
      </trkpt>
      <trkpt lat="44.87443" lon="5.52331">
        <ele>2191.4</ele>
        <time>2022-01-19T11:11:23Z</time>
      </trkpt>
      <trkpt lat="44.87443" lon="5.52331">
        <ele>2191.4</ele>
        <time>2022-01-19T11:11:24Z</time>
      </trkpt>
      <trkpt lat="44.87443" lon="5.52331">
        <ele>2191.4</ele>
        <time>2022-01-19T11:11:25Z</time>
      </trkpt>
      <trkpt lat="44.87443" lon="5.52331">
        <ele>2191.4</ele>
        <time>2022-01-19T11:11:26Z</time>
      </trkpt>
      <trkpt lat="44.87443" lon="5.52331">
        <ele>2191.4</ele>
        <time>2022-01-19T11:11:27Z</time>
      </trkpt>
      <trkpt lat="44.87443" lon="5.52331">
        <ele>2191.4</ele>
        <time>2022-01-19T11:11:28Z</time>
      </trkpt>
      <trkpt lat="44.87443" lon="5.52331">
        <ele>2191.4</ele>
        <time>2022-01-19T11:11:29Z</time>
      </trkpt>
      <trkpt lat="44.87443" lon="5.52331">
        <ele>2191.4</ele>
        <time>2022-01-19T11:11:30Z</time>
      </trkpt>
      <trkpt lat="44.87443" lon="5.52331">
        <ele>2191.4</ele>
        <time>2022-01-19T11:11:31Z</time>
      </trkpt>
      <trkpt lat="44.87443" lon="5.52331">
        <ele>2191.4</ele>
        <time>2022-01-19T11:11:32Z</time>
      </trkpt>
      <trkpt lat="44.87443" lon="5.52331">
        <ele>2191.4</ele>
        <time>2022-01-19T11:11:33Z</time>
      </trkpt>
      <trkpt lat="44.87443" lon="5.52331">
        <ele>2191.4</ele>
        <time>2022-01-19T11:11:34Z</time>
      </trkpt>
      <trkpt lat="44.87443" lon="5.52331">
        <ele>2191.4</ele>
        <time>2022-01-19T11:11:35Z</time>
      </trkpt>
      <trkpt lat="44.87443" lon="5.52331">
        <ele>2191.4</ele>
        <time>2022-01-19T11:11:36Z</time>
      </trkpt>
      <trkpt lat="44.87443" lon="5.52331">
        <ele>2191.4</ele>
        <time>2022-01-19T11:11:37Z</time>
      </trkpt>
      <trkpt lat="44.87443" lon="5.52331">
        <ele>2191.4</ele>
        <time>2022-01-19T11:11:38Z</time>
      </trkpt>
      <trkpt lat="44.87443" lon="5.52331">
        <ele>2191.4</ele>
        <time>2022-01-19T11:11:39Z</time>
      </trkpt>
      <trkpt lat="44.87443" lon="5.52331">
        <ele>2191.4</ele>
        <time>2022-01-19T11:11:40Z</time>
      </trkpt>
      <trkpt lat="44.87443" lon="5.52331">
        <ele>2191.4</ele>
        <time>2022-01-19T11:11:41Z</time>
      </trkpt>
      <trkpt lat="44.87443" lon="5.52331">
        <ele>2191.4</ele>
        <time>2022-01-19T11:11:42Z</time>
      </trkpt>
      <trkpt lat="44.87443" lon="5.52331">
        <ele>2191.4</ele>
        <time>2022-01-19T11:11:43Z</time>
      </trkpt>
      <trkpt lat="44.87443" lon="5.52331">
        <ele>2191.4</ele>
        <time>2022-01-19T11:11:44Z</time>
      </trkpt>
      <trkpt lat="44.87443" lon="5.52331">
        <ele>2191.4</ele>
        <time>2022-01-19T11:11:45Z</time>
      </trkpt>
      <trkpt lat="44.87443" lon="5.52331">
        <ele>2191.4</ele>
        <time>2022-01-19T11:11:46Z</time>
      </trkpt>
      <trkpt lat="44.87443" lon="5.52331">
        <ele>2191.4</ele>
        <time>2022-01-19T11:11:47Z</time>
      </trkpt>
      <trkpt lat="44.87443" lon="5.52331">
        <ele>2191.4</ele>
        <time>2022-01-19T11:11:48Z</time>
      </trkpt>
      <trkpt lat="44.87443" lon="5.52331">
        <ele>2191.4</ele>
        <time>2022-01-19T11:11:49Z</time>
      </trkpt>
      <trkpt lat="44.87443" lon="5.52331">
        <ele>2191.4</ele>
        <time>2022-01-19T11:11:50Z</time>
      </trkpt>
      <trkpt lat="44.87443" lon="5.52331">
        <ele>2191.4</ele>
        <time>2022-01-19T11:11:51Z</time>
      </trkpt>
      <trkpt lat="44.87443" lon="5.52331">
        <ele>2191.4</ele>
        <time>2022-01-19T11:11:52Z</time>
      </trkpt>
      <trkpt lat="44.87443" lon="5.52331">
        <ele>2191.4</ele>
        <time>2022-01-19T11:11:53Z</time>
      </trkpt>
      <trkpt lat="44.87443" lon="5.52331">
        <ele>2191.4</ele>
        <time>2022-01-19T11:11:54Z</time>
      </trkpt>
      <trkpt lat="44.87443" lon="5.52331">
        <ele>2191.4</ele>
        <time>2022-01-19T11:11:55Z</time>
      </trkpt>
      <trkpt lat="44.87443" lon="5.52331">
        <ele>2191.4</ele>
        <time>2022-01-19T11:11:56Z</time>
      </trkpt>
      <trkpt lat="44.87443" lon="5.52331">
        <ele>2191.4</ele>
        <time>2022-01-19T11:11:57Z</time>
      </trkpt>
      <trkpt lat="44.87443" lon="5.52331">
        <ele>2191.4</ele>
        <time>2022-01-19T11:11:58Z</time>
      </trkpt>
      <trkpt lat="44.87441" lon="5.52332">
        <ele>2191.4</ele>
        <time>2022-01-19T11:11:59Z</time>
      </trkpt>
      <trkpt lat="44.8744" lon="5.52332">
        <ele>2191.4</ele>
        <time>2022-01-19T11:12:00Z</time>
      </trkpt>
      <trkpt lat="44.87439" lon="5.52332">
        <ele>2191.4</ele>
        <time>2022-01-19T11:12:01Z</time>
      </trkpt>
      <trkpt lat="44.87439" lon="5.52333">
        <ele>2191.4</ele>
        <time>2022-01-19T11:12:02Z</time>
      </trkpt>
      <trkpt lat="44.87438" lon="5.52333">
        <ele>2191.4</ele>
        <time>2022-01-19T11:12:03Z</time>
      </trkpt>
      <trkpt lat="44.87438" lon="5.52333">
        <ele>2191.4</ele>
        <time>2022-01-19T11:12:04Z</time>
      </trkpt>
      <trkpt lat="44.87437" lon="5.52334">
        <ele>2192.4</ele>
        <time>2022-01-19T11:12:05Z</time>
      </trkpt>
      <trkpt lat="44.87436" lon="5.52334">
        <ele>2192.4</ele>
        <time>2022-01-19T11:12:06Z</time>
      </trkpt>
      <trkpt lat="44.87436" lon="5.52335">
        <ele>2192.4</ele>
        <time>2022-01-19T11:12:07Z</time>
      </trkpt>
      <trkpt lat="44.87435" lon="5.52335">
        <ele>2192.4</ele>
        <time>2022-01-19T11:12:08Z</time>
      </trkpt>
      <trkpt lat="44.87435" lon="5.52336">
        <ele>2192.4</ele>
        <time>2022-01-19T11:12:09Z</time>
      </trkpt>
      <trkpt lat="44.87434" lon="5.52336">
        <ele>2192.4</ele>
        <time>2022-01-19T11:12:10Z</time>
      </trkpt>
      <trkpt lat="44.87434" lon="5.52337">
        <ele>2192.4</ele>
        <time>2022-01-19T11:12:11Z</time>
      </trkpt>
      <trkpt lat="44.87433" lon="5.52337">
        <ele>2192.3</ele>
        <time>2022-01-19T11:12:12Z</time>
      </trkpt>
      <trkpt lat="44.87433" lon="5.52338">
        <ele>2192.3</ele>
        <time>2022-01-19T11:12:13Z</time>
      </trkpt>
      <trkpt lat="44.87433" lon="5.52338">
        <ele>2193.4</ele>
        <time>2022-01-19T11:12:14Z</time>
      </trkpt>
      <trkpt lat="44.87432" lon="5.52339">
        <ele>2193.4</ele>
        <time>2022-01-19T11:12:15Z</time>
      </trkpt>
      <trkpt lat="44.87431" lon="5.52339">
        <ele>2193.4</ele>
        <time>2022-01-19T11:12:16Z</time>
      </trkpt>
      <trkpt lat="44.87431" lon="5.5234">
        <ele>2193.4</ele>
        <time>2022-01-19T11:12:17Z</time>
      </trkpt>
      <trkpt lat="44.8743" lon="5.52341">
        <ele>2193.4</ele>
        <time>2022-01-19T11:12:18Z</time>
      </trkpt>
      <trkpt lat="44.8743" lon="5.52341">
        <ele>2193.3</ele>
        <time>2022-01-19T11:12:19Z</time>
      </trkpt>
      <trkpt lat="44.8743" lon="5.52342">
        <ele>2193.3</ele>
        <time>2022-01-19T11:12:20Z</time>
      </trkpt>
      <trkpt lat="44.87429" lon="5.52343">
        <ele>2194.4</ele>
        <time>2022-01-19T11:12:21Z</time>
      </trkpt>
      <trkpt lat="44.87429" lon="5.52344">
        <ele>2194.4</ele>
        <time>2022-01-19T11:12:22Z</time>
      </trkpt>
      <trkpt lat="44.87428" lon="5.52345">
        <ele>2194.4</ele>
        <time>2022-01-19T11:12:23Z</time>
      </trkpt>
      <trkpt lat="44.87427" lon="5.52345">
        <ele>2194.4</ele>
        <time>2022-01-19T11:12:24Z</time>
      </trkpt>
      <trkpt lat="44.87427" lon="5.52346">
        <ele>2194.3</ele>
        <time>2022-01-19T11:12:25Z</time>
      </trkpt>
      <trkpt lat="44.87426" lon="5.52347">
        <ele>2195.4</ele>
        <time>2022-01-19T11:12:26Z</time>
      </trkpt>
      <trkpt lat="44.87426" lon="5.52348">
        <ele>2195.4</ele>
        <time>2022-01-19T11:12:27Z</time>
      </trkpt>
      <trkpt lat="44.87425" lon="5.52348">
        <ele>2195.4</ele>
        <time>2022-01-19T11:12:28Z</time>
      </trkpt>
      <trkpt lat="44.87425" lon="5.52349">
        <ele>2195.4</ele>
        <time>2022-01-19T11:12:29Z</time>
      </trkpt>
      <trkpt lat="44.87424" lon="5.5235">
        <ele>2195.4</ele>
        <time>2022-01-19T11:12:30Z</time>
      </trkpt>
      <trkpt lat="44.87423" lon="5.5235">
        <ele>2195.2</ele>
        <time>2022-01-19T11:12:31Z</time>
      </trkpt>
      <trkpt lat="44.87423" lon="5.52351">
        <ele>2196.3</ele>
        <time>2022-01-19T11:12:32Z</time>
      </trkpt>
      <trkpt lat="44.87422" lon="5.52352">
        <ele>2196.3</ele>
        <time>2022-01-19T11:12:33Z</time>
      </trkpt>
      <trkpt lat="44.87422" lon="5.52353">
        <ele>2196.3</ele>
        <time>2022-01-19T11:12:34Z</time>
      </trkpt>
      <trkpt lat="44.87421" lon="5.52353">
        <ele>2196.1</ele>
        <time>2022-01-19T11:12:35Z</time>
      </trkpt>
      <trkpt lat="44.87421" lon="5.52353">
        <ele>2196.1</ele>
        <time>2022-01-19T11:12:36Z</time>
      </trkpt>
      <trkpt lat="44.8742" lon="5.52353">
        <ele>2196.1</ele>
        <time>2022-01-19T11:12:37Z</time>
      </trkpt>
      <trkpt lat="44.8742" lon="5.52353">
        <ele>2196.1</ele>
        <time>2022-01-19T11:12:38Z</time>
      </trkpt>
      <trkpt lat="44.87421" lon="5.52353">
        <ele>2196.1</ele>
        <time>2022-01-19T11:12:39Z</time>
      </trkpt>
      <trkpt lat="44.87421" lon="5.52353">
        <ele>2196.1</ele>
        <time>2022-01-19T11:12:40Z</time>
      </trkpt>
      <trkpt lat="44.87421" lon="5.52353">
        <ele>2196.1</ele>
        <time>2022-01-19T11:12:41Z</time>
      </trkpt>
      <trkpt lat="44.87421" lon="5.52353">
        <ele>2196.1</ele>
        <time>2022-01-19T11:12:42Z</time>
      </trkpt>
      <trkpt lat="44.87421" lon="5.52353">
        <ele>2196.1</ele>
        <time>2022-01-19T11:12:43Z</time>
      </trkpt>
      <trkpt lat="44.87421" lon="5.52353">
        <ele>2196.1</ele>
        <time>2022-01-19T11:12:44Z</time>
      </trkpt>
      <trkpt lat="44.87421" lon="5.52353">
        <ele>2196.1</ele>
        <time>2022-01-19T11:12:45Z</time>
      </trkpt>
      <trkpt lat="44.87421" lon="5.52353">
        <ele>2196.1</ele>
        <time>2022-01-19T11:12:46Z</time>
      </trkpt>
      <trkpt lat="44.87421" lon="5.52353">
        <ele>2196.1</ele>
        <time>2022-01-19T11:12:47Z</time>
      </trkpt>
      <trkpt lat="44.87421" lon="5.52353">
        <ele>2196.1</ele>
        <time>2022-01-19T11:12:48Z</time>
      </trkpt>
      <trkpt lat="44.87418" lon="5.52355">
        <ele>2197.1</ele>
        <time>2022-01-19T11:12:49Z</time>
      </trkpt>
      <trkpt lat="44.87418" lon="5.52356">
        <ele>2196.9</ele>
        <time>2022-01-19T11:12:50Z</time>
      </trkpt>
      <trkpt lat="44.87417" lon="5.52356">
        <ele>2196.9</ele>
        <time>2022-01-19T11:12:51Z</time>
      </trkpt>
      <trkpt lat="44.87417" lon="5.52357">
        <ele>2196.9</ele>
        <time>2022-01-19T11:12:52Z</time>
      </trkpt>
      <trkpt lat="44.87417" lon="5.52357">
        <ele>2196.9</ele>
        <time>2022-01-19T11:12:53Z</time>
      </trkpt>
      <trkpt lat="44.87417" lon="5.52357">
        <ele>2196.9</ele>
        <time>2022-01-19T11:12:54Z</time>
      </trkpt>
      <trkpt lat="44.87416" lon="5.52358">
        <ele>2196.9</ele>
        <time>2022-01-19T11:12:55Z</time>
      </trkpt>
      <trkpt lat="44.87416" lon="5.52358">
        <ele>2196.9</ele>
        <time>2022-01-19T11:12:56Z</time>
      </trkpt>
      <trkpt lat="44.87415" lon="5.52358">
        <ele>2196.9</ele>
        <time>2022-01-19T11:12:57Z</time>
      </trkpt>
      <trkpt lat="44.87415" lon="5.52358">
        <ele>2196.6</ele>
        <time>2022-01-19T11:12:58Z</time>
      </trkpt>
      <trkpt lat="44.87414" lon="5.52359">
        <ele>2196.6</ele>
        <time>2022-01-19T11:12:59Z</time>
      </trkpt>
      <trkpt lat="44.87414" lon="5.52359">
        <ele>2196.6</ele>
        <time>2022-01-19T11:13:00Z</time>
      </trkpt>
      <trkpt lat="44.87413" lon="5.52359">
        <ele>2197.7</ele>
        <time>2022-01-19T11:13:01Z</time>
      </trkpt>
      <trkpt lat="44.87413" lon="5.5236">
        <ele>2197.7</ele>
        <time>2022-01-19T11:13:02Z</time>
      </trkpt>
      <trkpt lat="44.87413" lon="5.5236">
        <ele>2197.7</ele>
        <time>2022-01-19T11:13:03Z</time>
      </trkpt>
      <trkpt lat="44.87412" lon="5.5236">
        <ele>2197.7</ele>
        <time>2022-01-19T11:13:04Z</time>
      </trkpt>
      <trkpt lat="44.87412" lon="5.5236">
        <ele>2197.4</ele>
        <time>2022-01-19T11:13:05Z</time>
      </trkpt>
      <trkpt lat="44.87412" lon="5.5236">
        <ele>2197.4</ele>
        <time>2022-01-19T11:13:06Z</time>
      </trkpt>
      <trkpt lat="44.87412" lon="5.5236">
        <ele>2197.4</ele>
        <time>2022-01-19T11:13:07Z</time>
      </trkpt>
      <trkpt lat="44.87411" lon="5.52361">
        <ele>2197.4</ele>
        <time>2022-01-19T11:13:08Z</time>
      </trkpt>
      <trkpt lat="44.87411" lon="5.52361">
        <ele>2197.4</ele>
        <time>2022-01-19T11:13:09Z</time>
      </trkpt>
      <trkpt lat="44.8741" lon="5.52361">
        <ele>2197.4</ele>
        <time>2022-01-19T11:13:10Z</time>
      </trkpt>
      <trkpt lat="44.8741" lon="5.52361">
        <ele>2197.4</ele>
        <time>2022-01-19T11:13:11Z</time>
      </trkpt>
      <trkpt lat="44.8741" lon="5.52362">
        <ele>2197.4</ele>
        <time>2022-01-19T11:13:12Z</time>
      </trkpt>
      <trkpt lat="44.8741" lon="5.52362">
        <ele>2197.4</ele>
        <time>2022-01-19T11:13:13Z</time>
      </trkpt>
      <trkpt lat="44.8741" lon="5.52362">
        <ele>2197.4</ele>
        <time>2022-01-19T11:13:14Z</time>
      </trkpt>
      <trkpt lat="44.8741" lon="5.52362">
        <ele>2197.4</ele>
        <time>2022-01-19T11:13:15Z</time>
      </trkpt>
      <trkpt lat="44.8741" lon="5.52362">
        <ele>2197.4</ele>
        <time>2022-01-19T11:13:16Z</time>
      </trkpt>
      <trkpt lat="44.87408" lon="5.52363">
        <ele>2197.2</ele>
        <time>2022-01-19T11:13:17Z</time>
      </trkpt>
      <trkpt lat="44.87407" lon="5.52363">
        <ele>2197.2</ele>
        <time>2022-01-19T11:13:18Z</time>
      </trkpt>
      <trkpt lat="44.87407" lon="5.52363">
        <ele>2197.2</ele>
        <time>2022-01-19T11:13:19Z</time>
      </trkpt>
      <trkpt lat="44.87407" lon="5.52363">
        <ele>2197.2</ele>
        <time>2022-01-19T11:13:20Z</time>
      </trkpt>
      <trkpt lat="44.87406" lon="5.52363">
        <ele>2197.2</ele>
        <time>2022-01-19T11:13:21Z</time>
      </trkpt>
      <trkpt lat="44.87406" lon="5.52363">
        <ele>2197</ele>
        <time>2022-01-19T11:13:22Z</time>
      </trkpt>
      <trkpt lat="44.87405" lon="5.52363">
        <ele>2197</ele>
        <time>2022-01-19T11:13:23Z</time>
      </trkpt>
      <trkpt lat="44.87405" lon="5.52364">
        <ele>2198</ele>
        <time>2022-01-19T11:13:24Z</time>
      </trkpt>
      <trkpt lat="44.87404" lon="5.52364">
        <ele>2198</ele>
        <time>2022-01-19T11:13:25Z</time>
      </trkpt>
      <trkpt lat="44.87403" lon="5.52363">
        <ele>2198</ele>
        <time>2022-01-19T11:13:26Z</time>
      </trkpt>
      <trkpt lat="44.87402" lon="5.52363">
        <ele>2196.8</ele>
        <time>2022-01-19T11:13:27Z</time>
      </trkpt>
      <trkpt lat="44.87402" lon="5.52363">
        <ele>2196.8</ele>
        <time>2022-01-19T11:13:28Z</time>
      </trkpt>
      <trkpt lat="44.87401" lon="5.52363">
        <ele>2196.8</ele>
        <time>2022-01-19T11:13:29Z</time>
      </trkpt>
      <trkpt lat="44.87401" lon="5.52363">
        <ele>2196.8</ele>
        <time>2022-01-19T11:13:30Z</time>
      </trkpt>
      <trkpt lat="44.874" lon="5.52363">
        <ele>2196.8</ele>
        <time>2022-01-19T11:13:31Z</time>
      </trkpt>
      <trkpt lat="44.87399" lon="5.52363">
        <ele>2196.5</ele>
        <time>2022-01-19T11:13:32Z</time>
      </trkpt>
      <trkpt lat="44.87399" lon="5.52362">
        <ele>2196.5</ele>
        <time>2022-01-19T11:13:33Z</time>
      </trkpt>
      <trkpt lat="44.87398" lon="5.52362">
        <ele>2196.5</ele>
        <time>2022-01-19T11:13:34Z</time>
      </trkpt>
      <trkpt lat="44.87397" lon="5.52362">
        <ele>2196.5</ele>
        <time>2022-01-19T11:13:35Z</time>
      </trkpt>
      <trkpt lat="44.87396" lon="5.52362">
        <ele>2196.3</ele>
        <time>2022-01-19T11:13:36Z</time>
      </trkpt>
      <trkpt lat="44.87396" lon="5.52362">
        <ele>2196.3</ele>
        <time>2022-01-19T11:13:37Z</time>
      </trkpt>
      <trkpt lat="44.87395" lon="5.52363">
        <ele>2196.3</ele>
        <time>2022-01-19T11:13:38Z</time>
      </trkpt>
      <trkpt lat="44.87394" lon="5.52363">
        <ele>2196.3</ele>
        <time>2022-01-19T11:13:39Z</time>
      </trkpt>
      <trkpt lat="44.87393" lon="5.52363">
        <ele>2196.1</ele>
        <time>2022-01-19T11:13:40Z</time>
      </trkpt>
      <trkpt lat="44.87393" lon="5.52363">
        <ele>2196.1</ele>
        <time>2022-01-19T11:13:41Z</time>
      </trkpt>
      <trkpt lat="44.87392" lon="5.52363">
        <ele>2196.1</ele>
        <time>2022-01-19T11:13:42Z</time>
      </trkpt>
      <trkpt lat="44.87392" lon="5.52363">
        <ele>2196.1</ele>
        <time>2022-01-19T11:13:43Z</time>
      </trkpt>
      <trkpt lat="44.87391" lon="5.52363">
        <ele>2196.1</ele>
        <time>2022-01-19T11:13:44Z</time>
      </trkpt>
      <trkpt lat="44.87391" lon="5.52363">
        <ele>2195.9</ele>
        <time>2022-01-19T11:13:45Z</time>
      </trkpt>
      <trkpt lat="44.8739" lon="5.52363">
        <ele>2195.9</ele>
        <time>2022-01-19T11:13:46Z</time>
      </trkpt>
      <trkpt lat="44.8739" lon="5.52362">
        <ele>2195.9</ele>
        <time>2022-01-19T11:13:47Z</time>
      </trkpt>
      <trkpt lat="44.87389" lon="5.52362">
        <ele>2195.9</ele>
        <time>2022-01-19T11:13:48Z</time>
      </trkpt>
      <trkpt lat="44.87388" lon="5.52362">
        <ele>2195.9</ele>
        <time>2022-01-19T11:13:49Z</time>
      </trkpt>
      <trkpt lat="44.87388" lon="5.52362">
        <ele>2195.9</ele>
        <time>2022-01-19T11:13:50Z</time>
      </trkpt>
      <trkpt lat="44.87387" lon="5.52362">
        <ele>2195.7</ele>
        <time>2022-01-19T11:13:51Z</time>
      </trkpt>
      <trkpt lat="44.87387" lon="5.52361">
        <ele>2195.7</ele>
        <time>2022-01-19T11:13:52Z</time>
      </trkpt>
      <trkpt lat="44.87386" lon="5.52361">
        <ele>2195.7</ele>
        <time>2022-01-19T11:13:53Z</time>
      </trkpt>
      <trkpt lat="44.87386" lon="5.52361">
        <ele>2195.7</ele>
        <time>2022-01-19T11:13:54Z</time>
      </trkpt>
      <trkpt lat="44.87385" lon="5.52361">
        <ele>2195.7</ele>
        <time>2022-01-19T11:13:55Z</time>
      </trkpt>
      <trkpt lat="44.87385" lon="5.5236">
        <ele>2195.7</ele>
        <time>2022-01-19T11:13:56Z</time>
      </trkpt>
      <trkpt lat="44.87384" lon="5.52361">
        <ele>2195.4</ele>
        <time>2022-01-19T11:13:57Z</time>
      </trkpt>
      <trkpt lat="44.87384" lon="5.52361">
        <ele>2195.4</ele>
        <time>2022-01-19T11:13:58Z</time>
      </trkpt>
      <trkpt lat="44.87383" lon="5.52361">
        <ele>2195.4</ele>
        <time>2022-01-19T11:13:59Z</time>
      </trkpt>
      <trkpt lat="44.87382" lon="5.52361">
        <ele>2195.4</ele>
        <time>2022-01-19T11:14:00Z</time>
      </trkpt>
      <trkpt lat="44.87381" lon="5.52361">
        <ele>2195.2</ele>
        <time>2022-01-19T11:14:01Z</time>
      </trkpt>
      <trkpt lat="44.87381" lon="5.5236">
        <ele>2195.2</ele>
        <time>2022-01-19T11:14:02Z</time>
      </trkpt>
      <trkpt lat="44.87381" lon="5.5236">
        <ele>2195.2</ele>
        <time>2022-01-19T11:14:03Z</time>
      </trkpt>
      <trkpt lat="44.8738" lon="5.5236">
        <ele>2195.2</ele>
        <time>2022-01-19T11:14:04Z</time>
      </trkpt>
      <trkpt lat="44.8738" lon="5.5236">
        <ele>2195.2</ele>
        <time>2022-01-19T11:14:05Z</time>
      </trkpt>
      <trkpt lat="44.87378" lon="5.52361">
        <ele>2195</ele>
        <time>2022-01-19T11:14:06Z</time>
      </trkpt>
      <trkpt lat="44.87378" lon="5.52361">
        <ele>2195</ele>
        <time>2022-01-19T11:14:07Z</time>
      </trkpt>
      <trkpt lat="44.87378" lon="5.5236">
        <ele>2195</ele>
        <time>2022-01-19T11:14:08Z</time>
      </trkpt>
      <trkpt lat="44.87377" lon="5.5236">
        <ele>2195</ele>
        <time>2022-01-19T11:14:09Z</time>
      </trkpt>
      <trkpt lat="44.87377" lon="5.5236">
        <ele>2195</ele>
        <time>2022-01-19T11:14:10Z</time>
      </trkpt>
      <trkpt lat="44.87376" lon="5.5236">
        <ele>2195</ele>
        <time>2022-01-19T11:14:11Z</time>
      </trkpt>
      <trkpt lat="44.87375" lon="5.5236">
        <ele>2194.8</ele>
        <time>2022-01-19T11:14:12Z</time>
      </trkpt>
      <trkpt lat="44.87375" lon="5.5236">
        <ele>2194.8</ele>
        <time>2022-01-19T11:14:13Z</time>
      </trkpt>
      <trkpt lat="44.87374" lon="5.5236">
        <ele>2194.8</ele>
        <time>2022-01-19T11:14:14Z</time>
      </trkpt>
      <trkpt lat="44.87373" lon="5.52359">
        <ele>2194.8</ele>
        <time>2022-01-19T11:14:15Z</time>
      </trkpt>
      <trkpt lat="44.87373" lon="5.52359">
        <ele>2194.8</ele>
        <time>2022-01-19T11:14:16Z</time>
      </trkpt>
      <trkpt lat="44.87373" lon="5.52359">
        <ele>2193.6</ele>
        <time>2022-01-19T11:14:17Z</time>
      </trkpt>
      <trkpt lat="44.87372" lon="5.52359">
        <ele>2193.4</ele>
        <time>2022-01-19T11:14:18Z</time>
      </trkpt>
      <trkpt lat="44.87372" lon="5.52359">
        <ele>2193.4</ele>
        <time>2022-01-19T11:14:19Z</time>
      </trkpt>
      <trkpt lat="44.87371" lon="5.52359">
        <ele>2193.4</ele>
        <time>2022-01-19T11:14:20Z</time>
      </trkpt>
      <trkpt lat="44.87371" lon="5.52358">
        <ele>2193.4</ele>
        <time>2022-01-19T11:14:21Z</time>
      </trkpt>
      <trkpt lat="44.8737" lon="5.52359">
        <ele>2193.4</ele>
        <time>2022-01-19T11:14:22Z</time>
      </trkpt>
      <trkpt lat="44.87369" lon="5.52359">
        <ele>2193.2</ele>
        <time>2022-01-19T11:14:23Z</time>
      </trkpt>
      <trkpt lat="44.87369" lon="5.52359">
        <ele>2193.2</ele>
        <time>2022-01-19T11:14:24Z</time>
      </trkpt>
      <trkpt lat="44.87368" lon="5.52359">
        <ele>2193.2</ele>
        <time>2022-01-19T11:14:25Z</time>
      </trkpt>
      <trkpt lat="44.87367" lon="5.52359">
        <ele>2194.5</ele>
        <time>2022-01-19T11:14:26Z</time>
      </trkpt>
      <trkpt lat="44.87367" lon="5.52359">
        <ele>2193.2</ele>
        <time>2022-01-19T11:14:27Z</time>
      </trkpt>
      <trkpt lat="44.87367" lon="5.52359">
        <ele>2194.5</ele>
        <time>2022-01-19T11:14:28Z</time>
      </trkpt>
      <trkpt lat="44.87366" lon="5.5236">
        <ele>2194.3</ele>
        <time>2022-01-19T11:14:29Z</time>
      </trkpt>
      <trkpt lat="44.87365" lon="5.5236">
        <ele>2194.3</ele>
        <time>2022-01-19T11:14:30Z</time>
      </trkpt>
      <trkpt lat="44.87364" lon="5.5236">
        <ele>2194.3</ele>
        <time>2022-01-19T11:14:31Z</time>
      </trkpt>
      <trkpt lat="44.87364" lon="5.5236">
        <ele>2194.3</ele>
        <time>2022-01-19T11:14:32Z</time>
      </trkpt>
      <trkpt lat="44.87363" lon="5.52361">
        <ele>2194.1</ele>
        <time>2022-01-19T11:14:33Z</time>
      </trkpt>
      <trkpt lat="44.87363" lon="5.52361">
        <ele>2194.1</ele>
        <time>2022-01-19T11:14:34Z</time>
      </trkpt>
      <trkpt lat="44.87362" lon="5.52361">
        <ele>2194.1</ele>
        <time>2022-01-19T11:14:35Z</time>
      </trkpt>
      <trkpt lat="44.87362" lon="5.52361">
        <ele>2194.1</ele>
        <time>2022-01-19T11:14:36Z</time>
      </trkpt>
      <trkpt lat="44.87362" lon="5.52361">
        <ele>2194.1</ele>
        <time>2022-01-19T11:14:37Z</time>
      </trkpt>
      <trkpt lat="44.87361" lon="5.52362">
        <ele>2194.1</ele>
        <time>2022-01-19T11:14:38Z</time>
      </trkpt>
      <trkpt lat="44.87361" lon="5.52362">
        <ele>2194.1</ele>
        <time>2022-01-19T11:14:39Z</time>
      </trkpt>
      <trkpt lat="44.87361" lon="5.52362">
        <ele>2194.1</ele>
        <time>2022-01-19T11:14:40Z</time>
      </trkpt>
      <trkpt lat="44.87361" lon="5.52362">
        <ele>2194.1</ele>
        <time>2022-01-19T11:14:41Z</time>
      </trkpt>
      <trkpt lat="44.87361" lon="5.52362">
        <ele>2194.1</ele>
        <time>2022-01-19T11:14:42Z</time>
      </trkpt>
      <trkpt lat="44.87361" lon="5.52362">
        <ele>2194.1</ele>
        <time>2022-01-19T11:14:43Z</time>
      </trkpt>
      <trkpt lat="44.87361" lon="5.52362">
        <ele>2194.1</ele>
        <time>2022-01-19T11:14:44Z</time>
      </trkpt>
      <trkpt lat="44.87361" lon="5.52362">
        <ele>2194.1</ele>
        <time>2022-01-19T11:14:45Z</time>
      </trkpt>
      <trkpt lat="44.87361" lon="5.52362">
        <ele>2194.1</ele>
        <time>2022-01-19T11:14:46Z</time>
      </trkpt>
      <trkpt lat="44.87361" lon="5.52362">
        <ele>2194.1</ele>
        <time>2022-01-19T11:14:47Z</time>
      </trkpt>
      <trkpt lat="44.8736" lon="5.52362">
        <ele>2193.9</ele>
        <time>2022-01-19T11:14:48Z</time>
      </trkpt>
      <trkpt lat="44.87359" lon="5.52362">
        <ele>2193.9</ele>
        <time>2022-01-19T11:14:49Z</time>
      </trkpt>
      <trkpt lat="44.87359" lon="5.52362">
        <ele>2193.9</ele>
        <time>2022-01-19T11:14:50Z</time>
      </trkpt>
      <trkpt lat="44.87359" lon="5.52362">
        <ele>2193.9</ele>
        <time>2022-01-19T11:14:51Z</time>
      </trkpt>
      <trkpt lat="44.87358" lon="5.52362">
        <ele>2193.9</ele>
        <time>2022-01-19T11:14:52Z</time>
      </trkpt>
      <trkpt lat="44.87358" lon="5.52362">
        <ele>2193.9</ele>
        <time>2022-01-19T11:14:53Z</time>
      </trkpt>
      <trkpt lat="44.87357" lon="5.52362">
        <ele>2193.9</ele>
        <time>2022-01-19T11:14:54Z</time>
      </trkpt>
      <trkpt lat="44.87357" lon="5.52362">
        <ele>2193.7</ele>
        <time>2022-01-19T11:14:55Z</time>
      </trkpt>
      <trkpt lat="44.87357" lon="5.52362">
        <ele>2193.7</ele>
        <time>2022-01-19T11:14:56Z</time>
      </trkpt>
      <trkpt lat="44.87356" lon="5.52362">
        <ele>2193.7</ele>
        <time>2022-01-19T11:14:57Z</time>
      </trkpt>
      <trkpt lat="44.87356" lon="5.52362">
        <ele>2193.7</ele>
        <time>2022-01-19T11:14:58Z</time>
      </trkpt>
      <trkpt lat="44.87355" lon="5.52362">
        <ele>2193.7</ele>
        <time>2022-01-19T11:14:59Z</time>
      </trkpt>
      <trkpt lat="44.87355" lon="5.52362">
        <ele>2193.7</ele>
        <time>2022-01-19T11:15:00Z</time>
      </trkpt>
      <trkpt lat="44.87354" lon="5.52363">
        <ele>2193.7</ele>
        <time>2022-01-19T11:15:01Z</time>
      </trkpt>
      <trkpt lat="44.87354" lon="5.52363">
        <ele>2193.6</ele>
        <time>2022-01-19T11:15:02Z</time>
      </trkpt>
      <trkpt lat="44.87354" lon="5.52363">
        <ele>2193.6</ele>
        <time>2022-01-19T11:15:03Z</time>
      </trkpt>
      <trkpt lat="44.87354" lon="5.52363">
        <ele>2193.6</ele>
        <time>2022-01-19T11:15:04Z</time>
      </trkpt>
      <trkpt lat="44.87354" lon="5.52363">
        <ele>2193.6</ele>
        <time>2022-01-19T11:15:05Z</time>
      </trkpt>
      <trkpt lat="44.87352" lon="5.52363">
        <ele>2193.6</ele>
        <time>2022-01-19T11:15:06Z</time>
      </trkpt>
      <trkpt lat="44.87351" lon="5.52363">
        <ele>2193.6</ele>
        <time>2022-01-19T11:15:07Z</time>
      </trkpt>
      <trkpt lat="44.87351" lon="5.52363">
        <ele>2193.4</ele>
        <time>2022-01-19T11:15:08Z</time>
      </trkpt>
      <trkpt lat="44.87349" lon="5.52364">
        <ele>2194.7</ele>
        <time>2022-01-19T11:15:09Z</time>
      </trkpt>
      <trkpt lat="44.87349" lon="5.52364">
        <ele>2194.7</ele>
        <time>2022-01-19T11:15:10Z</time>
      </trkpt>
      <trkpt lat="44.87349" lon="5.52364">
        <ele>2194.7</ele>
        <time>2022-01-19T11:15:11Z</time>
      </trkpt>
      <trkpt lat="44.87348" lon="5.52365">
        <ele>2194.7</ele>
        <time>2022-01-19T11:15:12Z</time>
      </trkpt>
      <trkpt lat="44.87348" lon="5.52365">
        <ele>2194.6</ele>
        <time>2022-01-19T11:15:13Z</time>
      </trkpt>
      <trkpt lat="44.87347" lon="5.52365">
        <ele>2194.6</ele>
        <time>2022-01-19T11:15:14Z</time>
      </trkpt>
      <trkpt lat="44.87346" lon="5.52366">
        <ele>2194.6</ele>
        <time>2022-01-19T11:15:15Z</time>
      </trkpt>
      <trkpt lat="44.87346" lon="5.52366">
        <ele>2194.6</ele>
        <time>2022-01-19T11:15:16Z</time>
      </trkpt>
      <trkpt lat="44.87346" lon="5.52367">
        <ele>2194.6</ele>
        <time>2022-01-19T11:15:17Z</time>
      </trkpt>
      <trkpt lat="44.87345" lon="5.52368">
        <ele>2195.9</ele>
        <time>2022-01-19T11:15:18Z</time>
      </trkpt>
      <trkpt lat="44.87345" lon="5.52368">
        <ele>2195.8</ele>
        <time>2022-01-19T11:15:19Z</time>
      </trkpt>
      <trkpt lat="44.87345" lon="5.52368">
        <ele>2195.8</ele>
        <time>2022-01-19T11:15:20Z</time>
      </trkpt>
      <trkpt lat="44.87345" lon="5.52368">
        <ele>2195.8</ele>
        <time>2022-01-19T11:15:21Z</time>
      </trkpt>
      <trkpt lat="44.87345" lon="5.52368">
        <ele>2195.8</ele>
        <time>2022-01-19T11:15:22Z</time>
      </trkpt>
      <trkpt lat="44.87343" lon="5.5237">
        <ele>2195.8</ele>
        <time>2022-01-19T11:15:23Z</time>
      </trkpt>
      <trkpt lat="44.87343" lon="5.5237">
        <ele>2195.8</ele>
        <time>2022-01-19T11:15:24Z</time>
      </trkpt>
      <trkpt lat="44.87342" lon="5.52371">
        <ele>2195.7</ele>
        <time>2022-01-19T11:15:25Z</time>
      </trkpt>
      <trkpt lat="44.87341" lon="5.52371">
        <ele>2195.7</ele>
        <time>2022-01-19T11:15:26Z</time>
      </trkpt>
      <trkpt lat="44.87341" lon="5.52372">
        <ele>2197</ele>
        <time>2022-01-19T11:15:27Z</time>
      </trkpt>
      <trkpt lat="44.8734" lon="5.52372">
        <ele>2197</ele>
        <time>2022-01-19T11:15:28Z</time>
      </trkpt>
      <trkpt lat="44.8734" lon="5.52373">
        <ele>2197</ele>
        <time>2022-01-19T11:15:29Z</time>
      </trkpt>
      <trkpt lat="44.8734" lon="5.52373">
        <ele>2197</ele>
        <time>2022-01-19T11:15:30Z</time>
      </trkpt>
      <trkpt lat="44.87339" lon="5.52373">
        <ele>2197</ele>
        <time>2022-01-19T11:15:31Z</time>
      </trkpt>
      <trkpt lat="44.87339" lon="5.52373">
        <ele>2197</ele>
        <time>2022-01-19T11:15:32Z</time>
      </trkpt>
      <trkpt lat="44.87339" lon="5.52373">
        <ele>2197</ele>
        <time>2022-01-19T11:15:33Z</time>
      </trkpt>
      <trkpt lat="44.87339" lon="5.52373">
        <ele>2197</ele>
        <time>2022-01-19T11:15:34Z</time>
      </trkpt>
      <trkpt lat="44.87339" lon="5.52373">
        <ele>2197</ele>
        <time>2022-01-19T11:15:35Z</time>
      </trkpt>
      <trkpt lat="44.87339" lon="5.52373">
        <ele>2197</ele>
        <time>2022-01-19T11:15:36Z</time>
      </trkpt>
      <trkpt lat="44.87339" lon="5.52373">
        <ele>2197</ele>
        <time>2022-01-19T11:15:37Z</time>
      </trkpt>
      <trkpt lat="44.87339" lon="5.52373">
        <ele>2197</ele>
        <time>2022-01-19T11:15:38Z</time>
      </trkpt>
      <trkpt lat="44.87339" lon="5.52373">
        <ele>2197</ele>
        <time>2022-01-19T11:15:39Z</time>
      </trkpt>
      <trkpt lat="44.87339" lon="5.52373">
        <ele>2197</ele>
        <time>2022-01-19T11:15:40Z</time>
      </trkpt>
      <trkpt lat="44.87339" lon="5.52373">
        <ele>2197</ele>
        <time>2022-01-19T11:15:41Z</time>
      </trkpt>
      <trkpt lat="44.87339" lon="5.52373">
        <ele>2197</ele>
        <time>2022-01-19T11:15:42Z</time>
      </trkpt>
      <trkpt lat="44.87339" lon="5.52373">
        <ele>2197</ele>
        <time>2022-01-19T11:15:43Z</time>
      </trkpt>
      <trkpt lat="44.87339" lon="5.52373">
        <ele>2197</ele>
        <time>2022-01-19T11:15:44Z</time>
      </trkpt>
      <trkpt lat="44.87339" lon="5.52373">
        <ele>2197</ele>
        <time>2022-01-19T11:15:45Z</time>
      </trkpt>
      <trkpt lat="44.87339" lon="5.52373">
        <ele>2197</ele>
        <time>2022-01-19T11:15:46Z</time>
      </trkpt>
      <trkpt lat="44.87339" lon="5.52373">
        <ele>2197</ele>
        <time>2022-01-19T11:15:47Z</time>
      </trkpt>
      <trkpt lat="44.87339" lon="5.52373">
        <ele>2197</ele>
        <time>2022-01-19T11:15:48Z</time>
      </trkpt>
      <trkpt lat="44.87335" lon="5.52383">
        <ele>2199.6</ele>
        <time>2022-01-19T11:15:49Z</time>
      </trkpt>
      <trkpt lat="44.87334" lon="5.52385">
        <ele>2199.6</ele>
        <time>2022-01-19T11:15:50Z</time>
      </trkpt>
      <trkpt lat="44.87333" lon="5.52386">
        <ele>2201.1</ele>
        <time>2022-01-19T11:15:51Z</time>
      </trkpt>
      <trkpt lat="44.87333" lon="5.52386">
        <ele>2201.1</ele>
        <time>2022-01-19T11:15:52Z</time>
      </trkpt>
      <trkpt lat="44.87333" lon="5.52386">
        <ele>2201.1</ele>
        <time>2022-01-19T11:15:53Z</time>
      </trkpt>
      <trkpt lat="44.87333" lon="5.52387">
        <ele>2201.1</ele>
        <time>2022-01-19T11:15:54Z</time>
      </trkpt>
      <trkpt lat="44.87332" lon="5.52387">
        <ele>2201.1</ele>
        <time>2022-01-19T11:15:55Z</time>
      </trkpt>
      <trkpt lat="44.87332" lon="5.52387">
        <ele>2201.1</ele>
        <time>2022-01-19T11:15:56Z</time>
      </trkpt>
      <trkpt lat="44.87331" lon="5.52388">
        <ele>2201.1</ele>
        <time>2022-01-19T11:15:57Z</time>
      </trkpt>
      <trkpt lat="44.87331" lon="5.52388">
        <ele>2201.1</ele>
        <time>2022-01-19T11:15:58Z</time>
      </trkpt>
      <trkpt lat="44.87331" lon="5.52388">
        <ele>2201.1</ele>
        <time>2022-01-19T11:15:59Z</time>
      </trkpt>
      <trkpt lat="44.87331" lon="5.52388">
        <ele>2201.1</ele>
        <time>2022-01-19T11:16:00Z</time>
      </trkpt>
      <trkpt lat="44.87331" lon="5.52388">
        <ele>2201.1</ele>
        <time>2022-01-19T11:16:01Z</time>
      </trkpt>
      <trkpt lat="44.87331" lon="5.52388">
        <ele>2201.1</ele>
        <time>2022-01-19T11:16:02Z</time>
      </trkpt>
      <trkpt lat="44.87331" lon="5.52388">
        <ele>2201.1</ele>
        <time>2022-01-19T11:16:03Z</time>
      </trkpt>
      <trkpt lat="44.87331" lon="5.52388">
        <ele>2201.1</ele>
        <time>2022-01-19T11:16:04Z</time>
      </trkpt>
      <trkpt lat="44.87331" lon="5.52388">
        <ele>2201.1</ele>
        <time>2022-01-19T11:16:05Z</time>
      </trkpt>
      <trkpt lat="44.8733" lon="5.52392">
        <ele>2202.6</ele>
        <time>2022-01-19T11:16:06Z</time>
      </trkpt>
      <trkpt lat="44.8733" lon="5.52393">
        <ele>2202.6</ele>
        <time>2022-01-19T11:16:07Z</time>
      </trkpt>
      <trkpt lat="44.87329" lon="5.52393">
        <ele>2202.6</ele>
        <time>2022-01-19T11:16:08Z</time>
      </trkpt>
      <trkpt lat="44.87329" lon="5.52394">
        <ele>2204.1</ele>
        <time>2022-01-19T11:16:09Z</time>
      </trkpt>
      <trkpt lat="44.87328" lon="5.52394">
        <ele>2204.1</ele>
        <time>2022-01-19T11:16:10Z</time>
      </trkpt>
      <trkpt lat="44.87328" lon="5.52395">
        <ele>2204.1</ele>
        <time>2022-01-19T11:16:11Z</time>
      </trkpt>
      <trkpt lat="44.87328" lon="5.52395">
        <ele>2204.1</ele>
        <time>2022-01-19T11:16:12Z</time>
      </trkpt>
      <trkpt lat="44.87328" lon="5.52395">
        <ele>2204.1</ele>
        <time>2022-01-19T11:16:13Z</time>
      </trkpt>
      <trkpt lat="44.87328" lon="5.52395">
        <ele>2204.1</ele>
        <time>2022-01-19T11:16:14Z</time>
      </trkpt>
      <trkpt lat="44.87328" lon="5.52395">
        <ele>2204.1</ele>
        <time>2022-01-19T11:16:15Z</time>
      </trkpt>
      <trkpt lat="44.87328" lon="5.52395">
        <ele>2204.1</ele>
        <time>2022-01-19T11:16:16Z</time>
      </trkpt>
      <trkpt lat="44.87328" lon="5.52395">
        <ele>2204.1</ele>
        <time>2022-01-19T11:16:17Z</time>
      </trkpt>
      <trkpt lat="44.87328" lon="5.52395">
        <ele>2204.1</ele>
        <time>2022-01-19T11:16:18Z</time>
      </trkpt>
      <trkpt lat="44.87328" lon="5.52395">
        <ele>2204.1</ele>
        <time>2022-01-19T11:16:19Z</time>
      </trkpt>
      <trkpt lat="44.87328" lon="5.52395">
        <ele>2204.1</ele>
        <time>2022-01-19T11:16:20Z</time>
      </trkpt>
      <trkpt lat="44.87328" lon="5.52395">
        <ele>2204.1</ele>
        <time>2022-01-19T11:16:21Z</time>
      </trkpt>
      <trkpt lat="44.87328" lon="5.52395">
        <ele>2204.1</ele>
        <time>2022-01-19T11:16:22Z</time>
      </trkpt>
      <trkpt lat="44.87328" lon="5.52395">
        <ele>2204.1</ele>
        <time>2022-01-19T11:16:23Z</time>
      </trkpt>
      <trkpt lat="44.87326" lon="5.52401">
        <ele>2205.6</ele>
        <time>2022-01-19T11:16:24Z</time>
      </trkpt>
      <trkpt lat="44.87325" lon="5.52402">
        <ele>2205.6</ele>
        <time>2022-01-19T11:16:25Z</time>
      </trkpt>
      <trkpt lat="44.87325" lon="5.52402">
        <ele>2206.9</ele>
        <time>2022-01-19T11:16:26Z</time>
      </trkpt>
      <trkpt lat="44.87325" lon="5.52403">
        <ele>2206.9</ele>
        <time>2022-01-19T11:16:27Z</time>
      </trkpt>
      <trkpt lat="44.87325" lon="5.52403">
        <ele>2206.9</ele>
        <time>2022-01-19T11:16:28Z</time>
      </trkpt>
      <trkpt lat="44.87325" lon="5.52403">
        <ele>2206.9</ele>
        <time>2022-01-19T11:16:29Z</time>
      </trkpt>
      <trkpt lat="44.87325" lon="5.52403">
        <ele>2206.9</ele>
        <time>2022-01-19T11:16:30Z</time>
      </trkpt>
      <trkpt lat="44.87325" lon="5.52403">
        <ele>2206.9</ele>
        <time>2022-01-19T11:16:31Z</time>
      </trkpt>
      <trkpt lat="44.87325" lon="5.52403">
        <ele>2206.9</ele>
        <time>2022-01-19T11:16:32Z</time>
      </trkpt>
      <trkpt lat="44.87325" lon="5.52403">
        <ele>2206.9</ele>
        <time>2022-01-19T11:16:33Z</time>
      </trkpt>
      <trkpt lat="44.87325" lon="5.52403">
        <ele>2206.9</ele>
        <time>2022-01-19T11:16:34Z</time>
      </trkpt>
      <trkpt lat="44.87325" lon="5.52403">
        <ele>2206.9</ele>
        <time>2022-01-19T11:16:35Z</time>
      </trkpt>
      <trkpt lat="44.87325" lon="5.52403">
        <ele>2206.9</ele>
        <time>2022-01-19T11:16:36Z</time>
      </trkpt>
      <trkpt lat="44.87325" lon="5.52403">
        <ele>2206.9</ele>
        <time>2022-01-19T11:16:37Z</time>
      </trkpt>
      <trkpt lat="44.87325" lon="5.52403">
        <ele>2206.9</ele>
        <time>2022-01-19T11:16:38Z</time>
      </trkpt>
      <trkpt lat="44.87323" lon="5.52404">
        <ele>2207</ele>
        <time>2022-01-19T11:16:39Z</time>
      </trkpt>
      <trkpt lat="44.87323" lon="5.52405">
        <ele>2207</ele>
        <time>2022-01-19T11:16:40Z</time>
      </trkpt>
      <trkpt lat="44.87323" lon="5.52405">
        <ele>2207</ele>
        <time>2022-01-19T11:16:41Z</time>
      </trkpt>
      <trkpt lat="44.87323" lon="5.52405">
        <ele>2207</ele>
        <time>2022-01-19T11:16:42Z</time>
      </trkpt>
      <trkpt lat="44.87323" lon="5.52405">
        <ele>2207</ele>
        <time>2022-01-19T11:16:43Z</time>
      </trkpt>
      <trkpt lat="44.87323" lon="5.52405">
        <ele>2207</ele>
        <time>2022-01-19T11:16:44Z</time>
      </trkpt>
      <trkpt lat="44.87323" lon="5.52405">
        <ele>2207</ele>
        <time>2022-01-19T11:16:45Z</time>
      </trkpt>
      <trkpt lat="44.87323" lon="5.52405">
        <ele>2207</ele>
        <time>2022-01-19T11:16:46Z</time>
      </trkpt>
      <trkpt lat="44.87323" lon="5.52405">
        <ele>2207</ele>
        <time>2022-01-19T11:16:47Z</time>
      </trkpt>
      <trkpt lat="44.87323" lon="5.52405">
        <ele>2207</ele>
        <time>2022-01-19T11:16:48Z</time>
      </trkpt>
      <trkpt lat="44.87323" lon="5.52405">
        <ele>2207</ele>
        <time>2022-01-19T11:16:49Z</time>
      </trkpt>
      <trkpt lat="44.87323" lon="5.52408">
        <ele>2208.3</ele>
        <time>2022-01-19T11:16:50Z</time>
      </trkpt>
      <trkpt lat="44.87323" lon="5.52409">
        <ele>2208.3</ele>
        <time>2022-01-19T11:16:51Z</time>
      </trkpt>
      <trkpt lat="44.87323" lon="5.5241">
        <ele>2208.3</ele>
        <time>2022-01-19T11:16:52Z</time>
      </trkpt>
      <trkpt lat="44.87323" lon="5.5241">
        <ele>2208.3</ele>
        <time>2022-01-19T11:16:53Z</time>
      </trkpt>
      <trkpt lat="44.87323" lon="5.52411">
        <ele>2209.6</ele>
        <time>2022-01-19T11:16:54Z</time>
      </trkpt>
      <trkpt lat="44.87323" lon="5.52411">
        <ele>2209.6</ele>
        <time>2022-01-19T11:16:55Z</time>
      </trkpt>
      <trkpt lat="44.87323" lon="5.52411">
        <ele>2209.6</ele>
        <time>2022-01-19T11:16:56Z</time>
      </trkpt>
      <trkpt lat="44.87323" lon="5.52411">
        <ele>2209.6</ele>
        <time>2022-01-19T11:16:57Z</time>
      </trkpt>
      <trkpt lat="44.87323" lon="5.52411">
        <ele>2209.6</ele>
        <time>2022-01-19T11:16:58Z</time>
      </trkpt>
      <trkpt lat="44.87323" lon="5.52411">
        <ele>2209.6</ele>
        <time>2022-01-19T11:16:59Z</time>
      </trkpt>
      <trkpt lat="44.87323" lon="5.52411">
        <ele>2209.6</ele>
        <time>2022-01-19T11:17:00Z</time>
      </trkpt>
      <trkpt lat="44.87323" lon="5.52411">
        <ele>2209.6</ele>
        <time>2022-01-19T11:17:01Z</time>
      </trkpt>
      <trkpt lat="44.87323" lon="5.52411">
        <ele>2209.6</ele>
        <time>2022-01-19T11:17:02Z</time>
      </trkpt>
      <trkpt lat="44.87323" lon="5.52411">
        <ele>2209.6</ele>
        <time>2022-01-19T11:17:03Z</time>
      </trkpt>
      <trkpt lat="44.87323" lon="5.52411">
        <ele>2209.6</ele>
        <time>2022-01-19T11:17:04Z</time>
      </trkpt>
      <trkpt lat="44.87323" lon="5.52411">
        <ele>2209.6</ele>
        <time>2022-01-19T11:17:05Z</time>
      </trkpt>
      <trkpt lat="44.87323" lon="5.52411">
        <ele>2209.6</ele>
        <time>2022-01-19T11:17:06Z</time>
      </trkpt>
      <trkpt lat="44.87323" lon="5.52411">
        <ele>2209.6</ele>
        <time>2022-01-19T11:17:07Z</time>
      </trkpt>
      <trkpt lat="44.87323" lon="5.52411">
        <ele>2209.6</ele>
        <time>2022-01-19T11:17:08Z</time>
      </trkpt>
      <trkpt lat="44.87323" lon="5.52411">
        <ele>2209.6</ele>
        <time>2022-01-19T11:17:09Z</time>
      </trkpt>
      <trkpt lat="44.87323" lon="5.52411">
        <ele>2209.6</ele>
        <time>2022-01-19T11:17:10Z</time>
      </trkpt>
      <trkpt lat="44.87323" lon="5.52411">
        <ele>2209.6</ele>
        <time>2022-01-19T11:17:11Z</time>
      </trkpt>
      <trkpt lat="44.87323" lon="5.52411">
        <ele>2209.6</ele>
        <time>2022-01-19T11:17:12Z</time>
      </trkpt>
      <trkpt lat="44.87323" lon="5.52411">
        <ele>2209.6</ele>
        <time>2022-01-19T11:17:13Z</time>
      </trkpt>
      <trkpt lat="44.87323" lon="5.52411">
        <ele>2209.6</ele>
        <time>2022-01-19T11:17:14Z</time>
      </trkpt>
      <trkpt lat="44.87323" lon="5.52411">
        <ele>2209.6</ele>
        <time>2022-01-19T11:17:15Z</time>
      </trkpt>
      <trkpt lat="44.87323" lon="5.52411">
        <ele>2209.6</ele>
        <time>2022-01-19T11:17:16Z</time>
      </trkpt>
      <trkpt lat="44.87323" lon="5.52411">
        <ele>2209.6</ele>
        <time>2022-01-19T11:17:17Z</time>
      </trkpt>
      <trkpt lat="44.87323" lon="5.52411">
        <ele>2209.6</ele>
        <time>2022-01-19T11:17:18Z</time>
      </trkpt>
      <trkpt lat="44.87323" lon="5.52411">
        <ele>2209.6</ele>
        <time>2022-01-19T11:17:19Z</time>
      </trkpt>
      <trkpt lat="44.87323" lon="5.52411">
        <ele>2209.6</ele>
        <time>2022-01-19T11:17:20Z</time>
      </trkpt>
      <trkpt lat="44.87322" lon="5.52423">
        <ele>2212.2</ele>
        <time>2022-01-19T11:17:21Z</time>
      </trkpt>
      <trkpt lat="44.87322" lon="5.52425">
        <ele>2213.5</ele>
        <time>2022-01-19T11:17:22Z</time>
      </trkpt>
      <trkpt lat="44.87322" lon="5.52425">
        <ele>2213.5</ele>
        <time>2022-01-19T11:17:23Z</time>
      </trkpt>
      <trkpt lat="44.87322" lon="5.52426">
        <ele>2213.5</ele>
        <time>2022-01-19T11:17:24Z</time>
      </trkpt>
      <trkpt lat="44.87322" lon="5.52426">
        <ele>2213.5</ele>
        <time>2022-01-19T11:17:25Z</time>
      </trkpt>
      <trkpt lat="44.87322" lon="5.52426">
        <ele>2213.5</ele>
        <time>2022-01-19T11:17:26Z</time>
      </trkpt>
      <trkpt lat="44.87322" lon="5.52426">
        <ele>2213.5</ele>
        <time>2022-01-19T11:17:27Z</time>
      </trkpt>
      <trkpt lat="44.87322" lon="5.52426">
        <ele>2213.5</ele>
        <time>2022-01-19T11:17:28Z</time>
      </trkpt>
      <trkpt lat="44.87322" lon="5.52426">
        <ele>2213.5</ele>
        <time>2022-01-19T11:17:29Z</time>
      </trkpt>
      <trkpt lat="44.87321" lon="5.52429">
        <ele>2214.8</ele>
        <time>2022-01-19T11:17:30Z</time>
      </trkpt>
      <trkpt lat="44.87321" lon="5.52429">
        <ele>2214.8</ele>
        <time>2022-01-19T11:17:31Z</time>
      </trkpt>
      <trkpt lat="44.87321" lon="5.5243">
        <ele>2214.8</ele>
        <time>2022-01-19T11:17:32Z</time>
      </trkpt>
      <trkpt lat="44.87321" lon="5.52431">
        <ele>2214.8</ele>
        <time>2022-01-19T11:17:33Z</time>
      </trkpt>
      <trkpt lat="44.87321" lon="5.52431">
        <ele>2214.8</ele>
        <time>2022-01-19T11:17:34Z</time>
      </trkpt>
      <trkpt lat="44.87321" lon="5.52431">
        <ele>2214.8</ele>
        <time>2022-01-19T11:17:35Z</time>
      </trkpt>
      <trkpt lat="44.87321" lon="5.52432">
        <ele>2214.8</ele>
        <time>2022-01-19T11:17:36Z</time>
      </trkpt>
      <trkpt lat="44.87321" lon="5.52432">
        <ele>2214.8</ele>
        <time>2022-01-19T11:17:37Z</time>
      </trkpt>
      <trkpt lat="44.87321" lon="5.52432">
        <ele>2214.8</ele>
        <time>2022-01-19T11:17:38Z</time>
      </trkpt>
      <trkpt lat="44.87321" lon="5.52432">
        <ele>2214.8</ele>
        <time>2022-01-19T11:17:39Z</time>
      </trkpt>
      <trkpt lat="44.87321" lon="5.52432">
        <ele>2214.8</ele>
        <time>2022-01-19T11:17:40Z</time>
      </trkpt>
      <trkpt lat="44.87321" lon="5.52432">
        <ele>2214.8</ele>
        <time>2022-01-19T11:17:41Z</time>
      </trkpt>
      <trkpt lat="44.87321" lon="5.52432">
        <ele>2214.8</ele>
        <time>2022-01-19T11:17:42Z</time>
      </trkpt>
      <trkpt lat="44.87323" lon="5.52434">
        <ele>2216.2</ele>
        <time>2022-01-19T11:17:43Z</time>
      </trkpt>
      <trkpt lat="44.87323" lon="5.52435">
        <ele>2216.2</ele>
        <time>2022-01-19T11:17:44Z</time>
      </trkpt>
      <trkpt lat="44.87323" lon="5.52435">
        <ele>2216.2</ele>
        <time>2022-01-19T11:17:45Z</time>
      </trkpt>
      <trkpt lat="44.87324" lon="5.52436">
        <ele>2216.2</ele>
        <time>2022-01-19T11:17:46Z</time>
      </trkpt>
      <trkpt lat="44.87324" lon="5.52436">
        <ele>2216.1</ele>
        <time>2022-01-19T11:17:47Z</time>
      </trkpt>
      <trkpt lat="44.87324" lon="5.52436">
        <ele>2216.1</ele>
        <time>2022-01-19T11:17:48Z</time>
      </trkpt>
      <trkpt lat="44.87324" lon="5.52437">
        <ele>2217.4</ele>
        <time>2022-01-19T11:17:49Z</time>
      </trkpt>
      <trkpt lat="44.87324" lon="5.52437">
        <ele>2217.4</ele>
        <time>2022-01-19T11:17:50Z</time>
      </trkpt>
      <trkpt lat="44.87324" lon="5.52438">
        <ele>2217.4</ele>
        <time>2022-01-19T11:17:51Z</time>
      </trkpt>
      <trkpt lat="44.87323" lon="5.52438">
        <ele>2217.6</ele>
        <time>2022-01-19T11:17:52Z</time>
      </trkpt>
      <trkpt lat="44.87323" lon="5.52439">
        <ele>2217.6</ele>
        <time>2022-01-19T11:17:53Z</time>
      </trkpt>
      <trkpt lat="44.87323" lon="5.52439">
        <ele>2217.6</ele>
        <time>2022-01-19T11:17:54Z</time>
      </trkpt>
      <trkpt lat="44.87323" lon="5.5244">
        <ele>2217.6</ele>
        <time>2022-01-19T11:17:55Z</time>
      </trkpt>
      <trkpt lat="44.87322" lon="5.5244">
        <ele>2217.6</ele>
        <time>2022-01-19T11:17:56Z</time>
      </trkpt>
      <trkpt lat="44.87322" lon="5.52441">
        <ele>2217.6</ele>
        <time>2022-01-19T11:17:57Z</time>
      </trkpt>
      <trkpt lat="44.87322" lon="5.52441">
        <ele>2218.9</ele>
        <time>2022-01-19T11:17:58Z</time>
      </trkpt>
      <trkpt lat="44.87321" lon="5.52441">
        <ele>2218.9</ele>
        <time>2022-01-19T11:17:59Z</time>
      </trkpt>
      <trkpt lat="44.87321" lon="5.52441">
        <ele>2218.9</ele>
        <time>2022-01-19T11:18:00Z</time>
      </trkpt>
      <trkpt lat="44.8732" lon="5.52442">
        <ele>2219.1</ele>
        <time>2022-01-19T11:18:01Z</time>
      </trkpt>
      <trkpt lat="44.8732" lon="5.52442">
        <ele>2219.1</ele>
        <time>2022-01-19T11:18:02Z</time>
      </trkpt>
      <trkpt lat="44.8732" lon="5.52442">
        <ele>2219.1</ele>
        <time>2022-01-19T11:18:03Z</time>
      </trkpt>
      <trkpt lat="44.8732" lon="5.52443">
        <ele>2219.1</ele>
        <time>2022-01-19T11:18:04Z</time>
      </trkpt>
      <trkpt lat="44.87319" lon="5.52443">
        <ele>2219.1</ele>
        <time>2022-01-19T11:18:05Z</time>
      </trkpt>
      <trkpt lat="44.87319" lon="5.52443">
        <ele>2219.1</ele>
        <time>2022-01-19T11:18:06Z</time>
      </trkpt>
      <trkpt lat="44.87318" lon="5.52444">
        <ele>2219.1</ele>
        <time>2022-01-19T11:18:07Z</time>
      </trkpt>
      <trkpt lat="44.87318" lon="5.52444">
        <ele>2219.1</ele>
        <time>2022-01-19T11:18:08Z</time>
      </trkpt>
      <trkpt lat="44.87317" lon="5.52445">
        <ele>2219.2</ele>
        <time>2022-01-19T11:18:09Z</time>
      </trkpt>
      <trkpt lat="44.87317" lon="5.52445">
        <ele>2219.2</ele>
        <time>2022-01-19T11:18:10Z</time>
      </trkpt>
      <trkpt lat="44.87317" lon="5.52445">
        <ele>2220.5</ele>
        <time>2022-01-19T11:18:11Z</time>
      </trkpt>
      <trkpt lat="44.87317" lon="5.52446">
        <ele>2220.5</ele>
        <time>2022-01-19T11:18:12Z</time>
      </trkpt>
      <trkpt lat="44.87317" lon="5.52446">
        <ele>2220.5</ele>
        <time>2022-01-19T11:18:13Z</time>
      </trkpt>
      <trkpt lat="44.87317" lon="5.52446">
        <ele>2220.5</ele>
        <time>2022-01-19T11:18:14Z</time>
      </trkpt>
      <trkpt lat="44.87317" lon="5.52446">
        <ele>2220.5</ele>
        <time>2022-01-19T11:18:15Z</time>
      </trkpt>
      <trkpt lat="44.87317" lon="5.52446">
        <ele>2220.5</ele>
        <time>2022-01-19T11:18:16Z</time>
      </trkpt>
      <trkpt lat="44.87315" lon="5.52446">
        <ele>2220.5</ele>
        <time>2022-01-19T11:18:17Z</time>
      </trkpt>
      <trkpt lat="44.87314" lon="5.52447">
        <ele>2220.7</ele>
        <time>2022-01-19T11:18:18Z</time>
      </trkpt>
      <trkpt lat="44.87314" lon="5.52447">
        <ele>2220.7</ele>
        <time>2022-01-19T11:18:19Z</time>
      </trkpt>
      <trkpt lat="44.87314" lon="5.52447">
        <ele>2220.7</ele>
        <time>2022-01-19T11:18:20Z</time>
      </trkpt>
      <trkpt lat="44.87314" lon="5.52447">
        <ele>2220.7</ele>
        <time>2022-01-19T11:18:21Z</time>
      </trkpt>
      <trkpt lat="44.87313" lon="5.52448">
        <ele>2220.7</ele>
        <time>2022-01-19T11:18:22Z</time>
      </trkpt>
      <trkpt lat="44.87312" lon="5.52448">
        <ele>2220.7</ele>
        <time>2022-01-19T11:18:23Z</time>
      </trkpt>
      <trkpt lat="44.87312" lon="5.52448">
        <ele>2220.7</ele>
        <time>2022-01-19T11:18:24Z</time>
      </trkpt>
      <trkpt lat="44.87312" lon="5.52448">
        <ele>2220.7</ele>
        <time>2022-01-19T11:18:25Z</time>
      </trkpt>
      <trkpt lat="44.87311" lon="5.52449">
        <ele>2220.8</ele>
        <time>2022-01-19T11:18:26Z</time>
      </trkpt>
      <trkpt lat="44.87311" lon="5.52449">
        <ele>2220.8</ele>
        <time>2022-01-19T11:18:27Z</time>
      </trkpt>
      <trkpt lat="44.87311" lon="5.52449">
        <ele>2220.8</ele>
        <time>2022-01-19T11:18:28Z</time>
      </trkpt>
      <trkpt lat="44.8731" lon="5.52449">
        <ele>2220.8</ele>
        <time>2022-01-19T11:18:29Z</time>
      </trkpt>
      <trkpt lat="44.87309" lon="5.52449">
        <ele>2222.1</ele>
        <time>2022-01-19T11:18:30Z</time>
      </trkpt>
      <trkpt lat="44.87309" lon="5.5245">
        <ele>2222.3</ele>
        <time>2022-01-19T11:18:31Z</time>
      </trkpt>
      <trkpt lat="44.87308" lon="5.5245">
        <ele>2222.3</ele>
        <time>2022-01-19T11:18:32Z</time>
      </trkpt>
      <trkpt lat="44.87308" lon="5.5245">
        <ele>2222.3</ele>
        <time>2022-01-19T11:18:33Z</time>
      </trkpt>
      <trkpt lat="44.87307" lon="5.5245">
        <ele>2222.3</ele>
        <time>2022-01-19T11:18:34Z</time>
      </trkpt>
      <trkpt lat="44.87307" lon="5.5245">
        <ele>2222.3</ele>
        <time>2022-01-19T11:18:35Z</time>
      </trkpt>
      <trkpt lat="44.87307" lon="5.5245">
        <ele>2222.3</ele>
        <time>2022-01-19T11:18:36Z</time>
      </trkpt>
      <trkpt lat="44.87306" lon="5.5245">
        <ele>2222.3</ele>
        <time>2022-01-19T11:18:37Z</time>
      </trkpt>
      <trkpt lat="44.87306" lon="5.5245">
        <ele>2222.3</ele>
        <time>2022-01-19T11:18:38Z</time>
      </trkpt>
      <trkpt lat="44.87305" lon="5.5245">
        <ele>2222.5</ele>
        <time>2022-01-19T11:18:39Z</time>
      </trkpt>
      <trkpt lat="44.87305" lon="5.5245">
        <ele>2222.5</ele>
        <time>2022-01-19T11:18:40Z</time>
      </trkpt>
      <trkpt lat="44.87304" lon="5.5245">
        <ele>2222.5</ele>
        <time>2022-01-19T11:18:41Z</time>
      </trkpt>
      <trkpt lat="44.87303" lon="5.5245">
        <ele>2222.5</ele>
        <time>2022-01-19T11:18:42Z</time>
      </trkpt>
      <trkpt lat="44.87303" lon="5.52451">
        <ele>2222.5</ele>
        <time>2022-01-19T11:18:43Z</time>
      </trkpt>
      <trkpt lat="44.87302" lon="5.52451">
        <ele>2222.8</ele>
        <time>2022-01-19T11:18:44Z</time>
      </trkpt>
      <trkpt lat="44.87302" lon="5.52451">
        <ele>2222.8</ele>
        <time>2022-01-19T11:18:45Z</time>
      </trkpt>
      <trkpt lat="44.87301" lon="5.52451">
        <ele>2222.8</ele>
        <time>2022-01-19T11:18:46Z</time>
      </trkpt>
      <trkpt lat="44.87301" lon="5.52451">
        <ele>2222.8</ele>
        <time>2022-01-19T11:18:47Z</time>
      </trkpt>
      <trkpt lat="44.87301" lon="5.52452">
        <ele>2222.8</ele>
        <time>2022-01-19T11:18:48Z</time>
      </trkpt>
      <trkpt lat="44.873" lon="5.52452">
        <ele>2222.8</ele>
        <time>2022-01-19T11:18:49Z</time>
      </trkpt>
      <trkpt lat="44.873" lon="5.52452">
        <ele>2222.8</ele>
        <time>2022-01-19T11:18:50Z</time>
      </trkpt>
      <trkpt lat="44.87299" lon="5.52452">
        <ele>2222.8</ele>
        <time>2022-01-19T11:18:51Z</time>
      </trkpt>
      <trkpt lat="44.87299" lon="5.52453">
        <ele>2223</ele>
        <time>2022-01-19T11:18:52Z</time>
      </trkpt>
      <trkpt lat="44.87298" lon="5.52454">
        <ele>2224.3</ele>
        <time>2022-01-19T11:18:53Z</time>
      </trkpt>
      <trkpt lat="44.87298" lon="5.52455">
        <ele>2224.3</ele>
        <time>2022-01-19T11:18:54Z</time>
      </trkpt>
      <trkpt lat="44.87297" lon="5.52456">
        <ele>2224.3</ele>
        <time>2022-01-19T11:18:55Z</time>
      </trkpt>
      <trkpt lat="44.87297" lon="5.52457">
        <ele>2224.3</ele>
        <time>2022-01-19T11:18:56Z</time>
      </trkpt>
      <trkpt lat="44.87297" lon="5.52458">
        <ele>2225.7</ele>
        <time>2022-01-19T11:18:57Z</time>
      </trkpt>
      <trkpt lat="44.87296" lon="5.52459">
        <ele>2225.9</ele>
        <time>2022-01-19T11:18:58Z</time>
      </trkpt>
      <trkpt lat="44.87296" lon="5.5246">
        <ele>2225.9</ele>
        <time>2022-01-19T11:18:59Z</time>
      </trkpt>
      <trkpt lat="44.87296" lon="5.5246">
        <ele>2225.9</ele>
        <time>2022-01-19T11:19:00Z</time>
      </trkpt>
      <trkpt lat="44.87296" lon="5.5246">
        <ele>2225.9</ele>
        <time>2022-01-19T11:19:01Z</time>
      </trkpt>
      <trkpt lat="44.87296" lon="5.52461">
        <ele>2225.9</ele>
        <time>2022-01-19T11:19:02Z</time>
      </trkpt>
      <trkpt lat="44.87296" lon="5.52461">
        <ele>2225.9</ele>
        <time>2022-01-19T11:19:03Z</time>
      </trkpt>
      <trkpt lat="44.87296" lon="5.52461">
        <ele>2225.9</ele>
        <time>2022-01-19T11:19:04Z</time>
      </trkpt>
      <trkpt lat="44.87295" lon="5.52463">
        <ele>2227.3</ele>
        <time>2022-01-19T11:19:05Z</time>
      </trkpt>
      <trkpt lat="44.87295" lon="5.52463">
        <ele>2227.3</ele>
        <time>2022-01-19T11:19:06Z</time>
      </trkpt>
      <trkpt lat="44.87295" lon="5.52464">
        <ele>2227.3</ele>
        <time>2022-01-19T11:19:07Z</time>
      </trkpt>
      <trkpt lat="44.87295" lon="5.52464">
        <ele>2227.3</ele>
        <time>2022-01-19T11:19:08Z</time>
      </trkpt>
      <trkpt lat="44.87295" lon="5.52464">
        <ele>2227.3</ele>
        <time>2022-01-19T11:19:09Z</time>
      </trkpt>
      <trkpt lat="44.87295" lon="5.52464">
        <ele>2227.3</ele>
        <time>2022-01-19T11:19:10Z</time>
      </trkpt>
      <trkpt lat="44.87295" lon="5.52464">
        <ele>2227.3</ele>
        <time>2022-01-19T11:19:11Z</time>
      </trkpt>
      <trkpt lat="44.87295" lon="5.52464">
        <ele>2227.3</ele>
        <time>2022-01-19T11:19:12Z</time>
      </trkpt>
      <trkpt lat="44.87295" lon="5.52464">
        <ele>2227.3</ele>
        <time>2022-01-19T11:19:13Z</time>
      </trkpt>
      <trkpt lat="44.87295" lon="5.52464">
        <ele>2227.3</ele>
        <time>2022-01-19T11:19:14Z</time>
      </trkpt>
      <trkpt lat="44.87295" lon="5.52464">
        <ele>2227.3</ele>
        <time>2022-01-19T11:19:15Z</time>
      </trkpt>
      <trkpt lat="44.87294" lon="5.52467">
        <ele>2228.8</ele>
        <time>2022-01-19T11:19:16Z</time>
      </trkpt>
      <trkpt lat="44.87294" lon="5.52467">
        <ele>2228.8</ele>
        <time>2022-01-19T11:19:17Z</time>
      </trkpt>
      <trkpt lat="44.87293" lon="5.52468">
        <ele>2229</ele>
        <time>2022-01-19T11:19:18Z</time>
      </trkpt>
      <trkpt lat="44.87293" lon="5.52469">
        <ele>2229</ele>
        <time>2022-01-19T11:19:19Z</time>
      </trkpt>
      <trkpt lat="44.87293" lon="5.52469">
        <ele>2229</ele>
        <time>2022-01-19T11:19:20Z</time>
      </trkpt>
      <trkpt lat="44.87293" lon="5.52469">
        <ele>2229</ele>
        <time>2022-01-19T11:19:21Z</time>
      </trkpt>
      <trkpt lat="44.87293" lon="5.52469">
        <ele>2229</ele>
        <time>2022-01-19T11:19:22Z</time>
      </trkpt>
      <trkpt lat="44.87293" lon="5.52469">
        <ele>2229</ele>
        <time>2022-01-19T11:19:23Z</time>
      </trkpt>
      <trkpt lat="44.87293" lon="5.52469">
        <ele>2229</ele>
        <time>2022-01-19T11:19:24Z</time>
      </trkpt>
      <trkpt lat="44.87293" lon="5.52469">
        <ele>2229</ele>
        <time>2022-01-19T11:19:25Z</time>
      </trkpt>
      <trkpt lat="44.87293" lon="5.52469">
        <ele>2229</ele>
        <time>2022-01-19T11:19:26Z</time>
      </trkpt>
      <trkpt lat="44.87293" lon="5.52469">
        <ele>2229</ele>
        <time>2022-01-19T11:19:27Z</time>
      </trkpt>
      <trkpt lat="44.87293" lon="5.52469">
        <ele>2229</ele>
        <time>2022-01-19T11:19:28Z</time>
      </trkpt>
      <trkpt lat="44.87293" lon="5.52469">
        <ele>2229</ele>
        <time>2022-01-19T11:19:29Z</time>
      </trkpt>
      <trkpt lat="44.87293" lon="5.52469">
        <ele>2229</ele>
        <time>2022-01-19T11:19:30Z</time>
      </trkpt>
      <trkpt lat="44.87293" lon="5.52469">
        <ele>2229</ele>
        <time>2022-01-19T11:19:31Z</time>
      </trkpt>
      <trkpt lat="44.87293" lon="5.52469">
        <ele>2229</ele>
        <time>2022-01-19T11:19:32Z</time>
      </trkpt>
      <trkpt lat="44.87293" lon="5.52469">
        <ele>2229</ele>
        <time>2022-01-19T11:19:33Z</time>
      </trkpt>
      <trkpt lat="44.87293" lon="5.52469">
        <ele>2229</ele>
        <time>2022-01-19T11:19:34Z</time>
      </trkpt>
      <trkpt lat="44.87293" lon="5.52469">
        <ele>2229</ele>
        <time>2022-01-19T11:19:35Z</time>
      </trkpt>
      <trkpt lat="44.87293" lon="5.52469">
        <ele>2229</ele>
        <time>2022-01-19T11:19:36Z</time>
      </trkpt>
      <trkpt lat="44.87293" lon="5.52469">
        <ele>2229</ele>
        <time>2022-01-19T11:19:37Z</time>
      </trkpt>
      <trkpt lat="44.87293" lon="5.52469">
        <ele>2229</ele>
        <time>2022-01-19T11:19:38Z</time>
      </trkpt>
      <trkpt lat="44.87293" lon="5.52469">
        <ele>2229</ele>
        <time>2022-01-19T11:19:39Z</time>
      </trkpt>
      <trkpt lat="44.87293" lon="5.52469">
        <ele>2229</ele>
        <time>2022-01-19T11:19:40Z</time>
      </trkpt>
      <trkpt lat="44.87293" lon="5.52469">
        <ele>2229</ele>
        <time>2022-01-19T11:19:41Z</time>
      </trkpt>
      <trkpt lat="44.87293" lon="5.52469">
        <ele>2229</ele>
        <time>2022-01-19T11:19:42Z</time>
      </trkpt>
      <trkpt lat="44.87293" lon="5.52469">
        <ele>2229</ele>
        <time>2022-01-19T11:19:43Z</time>
      </trkpt>
      <trkpt lat="44.87293" lon="5.52469">
        <ele>2229</ele>
        <time>2022-01-19T11:19:44Z</time>
      </trkpt>
      <trkpt lat="44.87293" lon="5.52469">
        <ele>2229</ele>
        <time>2022-01-19T11:19:45Z</time>
      </trkpt>
      <trkpt lat="44.87293" lon="5.52469">
        <ele>2229</ele>
        <time>2022-01-19T11:19:46Z</time>
      </trkpt>
      <trkpt lat="44.87293" lon="5.52469">
        <ele>2229</ele>
        <time>2022-01-19T11:19:47Z</time>
      </trkpt>
      <trkpt lat="44.87293" lon="5.52469">
        <ele>2229</ele>
        <time>2022-01-19T11:19:48Z</time>
      </trkpt>
      <trkpt lat="44.87293" lon="5.52469">
        <ele>2229</ele>
        <time>2022-01-19T11:19:49Z</time>
      </trkpt>
      <trkpt lat="44.87293" lon="5.52469">
        <ele>2229</ele>
        <time>2022-01-19T11:19:50Z</time>
      </trkpt>
      <trkpt lat="44.87293" lon="5.52469">
        <ele>2229</ele>
        <time>2022-01-19T11:19:51Z</time>
      </trkpt>
      <trkpt lat="44.87293" lon="5.52469">
        <ele>2229</ele>
        <time>2022-01-19T11:19:52Z</time>
      </trkpt>
      <trkpt lat="44.87293" lon="5.52469">
        <ele>2229</ele>
        <time>2022-01-19T11:19:53Z</time>
      </trkpt>
      <trkpt lat="44.87293" lon="5.52469">
        <ele>2229</ele>
        <time>2022-01-19T11:19:54Z</time>
      </trkpt>
      <trkpt lat="44.87293" lon="5.52469">
        <ele>2229</ele>
        <time>2022-01-19T11:19:55Z</time>
      </trkpt>
      <trkpt lat="44.87293" lon="5.52469">
        <ele>2229</ele>
        <time>2022-01-19T11:19:56Z</time>
      </trkpt>
      <trkpt lat="44.87293" lon="5.52469">
        <ele>2229</ele>
        <time>2022-01-19T11:19:57Z</time>
      </trkpt>
      <trkpt lat="44.87293" lon="5.52469">
        <ele>2229</ele>
        <time>2022-01-19T11:19:58Z</time>
      </trkpt>
      <trkpt lat="44.87293" lon="5.52469">
        <ele>2229</ele>
        <time>2022-01-19T11:19:59Z</time>
      </trkpt>
      <trkpt lat="44.87293" lon="5.52469">
        <ele>2229</ele>
        <time>2022-01-19T11:20:00Z</time>
      </trkpt>
      <trkpt lat="44.87293" lon="5.52469">
        <ele>2229</ele>
        <time>2022-01-19T11:20:01Z</time>
      </trkpt>
      <trkpt lat="44.87293" lon="5.52469">
        <ele>2229</ele>
        <time>2022-01-19T11:20:02Z</time>
      </trkpt>
      <trkpt lat="44.87293" lon="5.52469">
        <ele>2229</ele>
        <time>2022-01-19T11:20:03Z</time>
      </trkpt>
      <trkpt lat="44.87293" lon="5.52469">
        <ele>2229</ele>
        <time>2022-01-19T11:20:04Z</time>
      </trkpt>
      <trkpt lat="44.87293" lon="5.52469">
        <ele>2229</ele>
        <time>2022-01-19T11:20:05Z</time>
      </trkpt>
      <trkpt lat="44.87293" lon="5.52469">
        <ele>2229</ele>
        <time>2022-01-19T11:20:06Z</time>
      </trkpt>
      <trkpt lat="44.87293" lon="5.52469">
        <ele>2229</ele>
        <time>2022-01-19T11:20:07Z</time>
      </trkpt>
      <trkpt lat="44.87293" lon="5.52469">
        <ele>2229</ele>
        <time>2022-01-19T11:20:08Z</time>
      </trkpt>
      <trkpt lat="44.87293" lon="5.52469">
        <ele>2229</ele>
        <time>2022-01-19T11:20:09Z</time>
      </trkpt>
      <trkpt lat="44.87293" lon="5.52469">
        <ele>2229</ele>
        <time>2022-01-19T11:20:10Z</time>
      </trkpt>
      <trkpt lat="44.87293" lon="5.52469">
        <ele>2229</ele>
        <time>2022-01-19T11:20:11Z</time>
      </trkpt>
      <trkpt lat="44.87293" lon="5.52469">
        <ele>2229</ele>
        <time>2022-01-19T11:20:12Z</time>
      </trkpt>
      <trkpt lat="44.87293" lon="5.52469">
        <ele>2229</ele>
        <time>2022-01-19T11:20:13Z</time>
      </trkpt>
      <trkpt lat="44.87293" lon="5.52469">
        <ele>2229</ele>
        <time>2022-01-19T11:20:14Z</time>
      </trkpt>
      <trkpt lat="44.87293" lon="5.52469">
        <ele>2229</ele>
        <time>2022-01-19T11:20:15Z</time>
      </trkpt>
      <trkpt lat="44.87293" lon="5.52469">
        <ele>2229</ele>
        <time>2022-01-19T11:20:16Z</time>
      </trkpt>
      <trkpt lat="44.87293" lon="5.52469">
        <ele>2229</ele>
        <time>2022-01-19T11:20:17Z</time>
      </trkpt>
      <trkpt lat="44.87293" lon="5.52469">
        <ele>2229</ele>
        <time>2022-01-19T11:20:18Z</time>
      </trkpt>
      <trkpt lat="44.87293" lon="5.52469">
        <ele>2229</ele>
        <time>2022-01-19T11:20:19Z</time>
      </trkpt>
      <trkpt lat="44.87293" lon="5.52469">
        <ele>2229</ele>
        <time>2022-01-19T11:20:20Z</time>
      </trkpt>
      <trkpt lat="44.87293" lon="5.52469">
        <ele>2229</ele>
        <time>2022-01-19T11:20:21Z</time>
      </trkpt>
      <trkpt lat="44.87293" lon="5.52469">
        <ele>2229</ele>
        <time>2022-01-19T11:20:22Z</time>
      </trkpt>
      <trkpt lat="44.87293" lon="5.52469">
        <ele>2229</ele>
        <time>2022-01-19T11:20:23Z</time>
      </trkpt>
      <trkpt lat="44.87293" lon="5.52469">
        <ele>2229</ele>
        <time>2022-01-19T11:20:24Z</time>
      </trkpt>
      <trkpt lat="44.87293" lon="5.52469">
        <ele>2229</ele>
        <time>2022-01-19T11:20:25Z</time>
      </trkpt>
      <trkpt lat="44.87293" lon="5.52469">
        <ele>2229</ele>
        <time>2022-01-19T11:20:26Z</time>
      </trkpt>
      <trkpt lat="44.87293" lon="5.52469">
        <ele>2229</ele>
        <time>2022-01-19T11:20:27Z</time>
      </trkpt>
      <trkpt lat="44.87293" lon="5.52469">
        <ele>2229</ele>
        <time>2022-01-19T11:20:28Z</time>
      </trkpt>
      <trkpt lat="44.87293" lon="5.52469">
        <ele>2229</ele>
        <time>2022-01-19T11:20:29Z</time>
      </trkpt>
      <trkpt lat="44.87293" lon="5.52469">
        <ele>2229</ele>
        <time>2022-01-19T11:20:30Z</time>
      </trkpt>
      <trkpt lat="44.87293" lon="5.52469">
        <ele>2229</ele>
        <time>2022-01-19T11:20:31Z</time>
      </trkpt>
      <trkpt lat="44.87293" lon="5.52469">
        <ele>2229</ele>
        <time>2022-01-19T11:20:32Z</time>
      </trkpt>
      <trkpt lat="44.87293" lon="5.52469">
        <ele>2229</ele>
        <time>2022-01-19T11:20:33Z</time>
      </trkpt>
      <trkpt lat="44.87293" lon="5.52469">
        <ele>2229</ele>
        <time>2022-01-19T11:20:34Z</time>
      </trkpt>
      <trkpt lat="44.87293" lon="5.52469">
        <ele>2229</ele>
        <time>2022-01-19T11:20:35Z</time>
      </trkpt>
      <trkpt lat="44.87293" lon="5.52469">
        <ele>2229</ele>
        <time>2022-01-19T11:20:36Z</time>
      </trkpt>
      <trkpt lat="44.87293" lon="5.52469">
        <ele>2229</ele>
        <time>2022-01-19T11:20:37Z</time>
      </trkpt>
      <trkpt lat="44.87293" lon="5.52469">
        <ele>2229</ele>
        <time>2022-01-19T11:20:38Z</time>
      </trkpt>
      <trkpt lat="44.87293" lon="5.52469">
        <ele>2229</ele>
        <time>2022-01-19T11:20:39Z</time>
      </trkpt>
      <trkpt lat="44.87293" lon="5.52469">
        <ele>2229</ele>
        <time>2022-01-19T11:20:40Z</time>
      </trkpt>
      <trkpt lat="44.87293" lon="5.52469">
        <ele>2229</ele>
        <time>2022-01-19T11:20:41Z</time>
      </trkpt>
      <trkpt lat="44.87293" lon="5.52469">
        <ele>2229</ele>
        <time>2022-01-19T11:20:42Z</time>
      </trkpt>
      <trkpt lat="44.87293" lon="5.52469">
        <ele>2229</ele>
        <time>2022-01-19T11:20:43Z</time>
      </trkpt>
      <trkpt lat="44.87293" lon="5.52469">
        <ele>2229</ele>
        <time>2022-01-19T11:20:44Z</time>
      </trkpt>
      <trkpt lat="44.87293" lon="5.52469">
        <ele>2229</ele>
        <time>2022-01-19T11:20:45Z</time>
      </trkpt>
      <trkpt lat="44.87293" lon="5.52469">
        <ele>2229</ele>
        <time>2022-01-19T11:20:46Z</time>
      </trkpt>
      <trkpt lat="44.87293" lon="5.52469">
        <ele>2229</ele>
        <time>2022-01-19T11:20:47Z</time>
      </trkpt>
      <trkpt lat="44.87293" lon="5.52469">
        <ele>2229</ele>
        <time>2022-01-19T11:20:48Z</time>
      </trkpt>
      <trkpt lat="44.87293" lon="5.52469">
        <ele>2229</ele>
        <time>2022-01-19T11:20:49Z</time>
      </trkpt>
      <trkpt lat="44.87293" lon="5.52469">
        <ele>2229</ele>
        <time>2022-01-19T11:20:50Z</time>
      </trkpt>
      <trkpt lat="44.87293" lon="5.52469">
        <ele>2229</ele>
        <time>2022-01-19T11:20:51Z</time>
      </trkpt>
      <trkpt lat="44.87293" lon="5.52469">
        <ele>2229</ele>
        <time>2022-01-19T11:20:52Z</time>
      </trkpt>
      <trkpt lat="44.87293" lon="5.52469">
        <ele>2229</ele>
        <time>2022-01-19T11:20:53Z</time>
      </trkpt>
      <trkpt lat="44.87293" lon="5.52469">
        <ele>2229</ele>
        <time>2022-01-19T11:20:54Z</time>
      </trkpt>
      <trkpt lat="44.87293" lon="5.52469">
        <ele>2229</ele>
        <time>2022-01-19T11:20:55Z</time>
      </trkpt>
      <trkpt lat="44.87293" lon="5.52469">
        <ele>2229</ele>
        <time>2022-01-19T11:20:56Z</time>
      </trkpt>
      <trkpt lat="44.87293" lon="5.52469">
        <ele>2229</ele>
        <time>2022-01-19T11:20:57Z</time>
      </trkpt>
      <trkpt lat="44.87293" lon="5.52469">
        <ele>2229</ele>
        <time>2022-01-19T11:20:58Z</time>
      </trkpt>
      <trkpt lat="44.87293" lon="5.52469">
        <ele>2229</ele>
        <time>2022-01-19T11:20:59Z</time>
      </trkpt>
      <trkpt lat="44.87293" lon="5.52469">
        <ele>2229</ele>
        <time>2022-01-19T11:21:00Z</time>
      </trkpt>
      <trkpt lat="44.87293" lon="5.52469">
        <ele>2229</ele>
        <time>2022-01-19T11:21:01Z</time>
      </trkpt>
      <trkpt lat="44.87293" lon="5.52469">
        <ele>2229</ele>
        <time>2022-01-19T11:21:02Z</time>
      </trkpt>
      <trkpt lat="44.87293" lon="5.52469">
        <ele>2229</ele>
        <time>2022-01-19T11:21:03Z</time>
      </trkpt>
      <trkpt lat="44.87293" lon="5.52469">
        <ele>2229</ele>
        <time>2022-01-19T11:21:04Z</time>
      </trkpt>
      <trkpt lat="44.87293" lon="5.52469">
        <ele>2229</ele>
        <time>2022-01-19T11:21:05Z</time>
      </trkpt>
      <trkpt lat="44.87293" lon="5.52469">
        <ele>2229</ele>
        <time>2022-01-19T11:21:06Z</time>
      </trkpt>
      <trkpt lat="44.87293" lon="5.52469">
        <ele>2229</ele>
        <time>2022-01-19T11:21:07Z</time>
      </trkpt>
      <trkpt lat="44.87293" lon="5.52469">
        <ele>2229</ele>
        <time>2022-01-19T11:21:08Z</time>
      </trkpt>
      <trkpt lat="44.87293" lon="5.52469">
        <ele>2229</ele>
        <time>2022-01-19T11:21:09Z</time>
      </trkpt>
      <trkpt lat="44.87293" lon="5.52469">
        <ele>2229</ele>
        <time>2022-01-19T11:21:10Z</time>
      </trkpt>
      <trkpt lat="44.87293" lon="5.52469">
        <ele>2229</ele>
        <time>2022-01-19T11:21:11Z</time>
      </trkpt>
      <trkpt lat="44.87293" lon="5.52469">
        <ele>2229</ele>
        <time>2022-01-19T11:21:12Z</time>
      </trkpt>
      <trkpt lat="44.87293" lon="5.52469">
        <ele>2229</ele>
        <time>2022-01-19T11:21:13Z</time>
      </trkpt>
      <trkpt lat="44.87293" lon="5.52469">
        <ele>2229</ele>
        <time>2022-01-19T11:21:14Z</time>
      </trkpt>
      <trkpt lat="44.87293" lon="5.52469">
        <ele>2229</ele>
        <time>2022-01-19T11:21:15Z</time>
      </trkpt>
      <trkpt lat="44.87293" lon="5.52469">
        <ele>2229</ele>
        <time>2022-01-19T11:21:16Z</time>
      </trkpt>
      <trkpt lat="44.87293" lon="5.52469">
        <ele>2229</ele>
        <time>2022-01-19T11:21:17Z</time>
      </trkpt>
      <trkpt lat="44.87293" lon="5.52469">
        <ele>2229</ele>
        <time>2022-01-19T11:21:18Z</time>
      </trkpt>
      <trkpt lat="44.87293" lon="5.52469">
        <ele>2229</ele>
        <time>2022-01-19T11:21:19Z</time>
      </trkpt>
      <trkpt lat="44.87293" lon="5.52469">
        <ele>2229</ele>
        <time>2022-01-19T11:21:20Z</time>
      </trkpt>
      <trkpt lat="44.87293" lon="5.52469">
        <ele>2229</ele>
        <time>2022-01-19T11:21:21Z</time>
      </trkpt>
      <trkpt lat="44.87293" lon="5.52469">
        <ele>2229</ele>
        <time>2022-01-19T11:21:22Z</time>
      </trkpt>
      <trkpt lat="44.87293" lon="5.52469">
        <ele>2229</ele>
        <time>2022-01-19T11:21:23Z</time>
      </trkpt>
      <trkpt lat="44.87293" lon="5.52469">
        <ele>2229</ele>
        <time>2022-01-19T11:21:24Z</time>
      </trkpt>
      <trkpt lat="44.87293" lon="5.52469">
        <ele>2229</ele>
        <time>2022-01-19T11:21:25Z</time>
      </trkpt>
      <trkpt lat="44.87293" lon="5.52469">
        <ele>2229</ele>
        <time>2022-01-19T11:21:26Z</time>
      </trkpt>
      <trkpt lat="44.87293" lon="5.52469">
        <ele>2229</ele>
        <time>2022-01-19T11:21:27Z</time>
      </trkpt>
      <trkpt lat="44.87293" lon="5.52469">
        <ele>2229</ele>
        <time>2022-01-19T11:21:28Z</time>
      </trkpt>
      <trkpt lat="44.87293" lon="5.52469">
        <ele>2229</ele>
        <time>2022-01-19T11:21:29Z</time>
      </trkpt>
      <trkpt lat="44.87293" lon="5.52469">
        <ele>2229</ele>
        <time>2022-01-19T11:21:30Z</time>
      </trkpt>
      <trkpt lat="44.87293" lon="5.52469">
        <ele>2229</ele>
        <time>2022-01-19T11:21:31Z</time>
      </trkpt>
      <trkpt lat="44.87293" lon="5.52469">
        <ele>2229</ele>
        <time>2022-01-19T11:21:32Z</time>
      </trkpt>
      <trkpt lat="44.87293" lon="5.52469">
        <ele>2229</ele>
        <time>2022-01-19T11:21:33Z</time>
      </trkpt>
      <trkpt lat="44.87293" lon="5.52469">
        <ele>2229</ele>
        <time>2022-01-19T11:21:34Z</time>
      </trkpt>
      <trkpt lat="44.87293" lon="5.52469">
        <ele>2229</ele>
        <time>2022-01-19T11:21:35Z</time>
      </trkpt>
      <trkpt lat="44.87293" lon="5.52469">
        <ele>2229</ele>
        <time>2022-01-19T11:21:36Z</time>
      </trkpt>
      <trkpt lat="44.87293" lon="5.52469">
        <ele>2229</ele>
        <time>2022-01-19T11:21:37Z</time>
      </trkpt>
      <trkpt lat="44.87293" lon="5.52469">
        <ele>2229</ele>
        <time>2022-01-19T11:21:38Z</time>
      </trkpt>
      <trkpt lat="44.87293" lon="5.52469">
        <ele>2229</ele>
        <time>2022-01-19T11:21:39Z</time>
      </trkpt>
      <trkpt lat="44.87293" lon="5.52469">
        <ele>2229</ele>
        <time>2022-01-19T11:21:40Z</time>
      </trkpt>
      <trkpt lat="44.87293" lon="5.52469">
        <ele>2229</ele>
        <time>2022-01-19T11:21:41Z</time>
      </trkpt>
      <trkpt lat="44.87293" lon="5.52469">
        <ele>2229</ele>
        <time>2022-01-19T11:21:42Z</time>
      </trkpt>
      <trkpt lat="44.87293" lon="5.52469">
        <ele>2229</ele>
        <time>2022-01-19T11:21:43Z</time>
      </trkpt>
      <trkpt lat="44.87293" lon="5.52469">
        <ele>2229</ele>
        <time>2022-01-19T11:21:44Z</time>
      </trkpt>
      <trkpt lat="44.87293" lon="5.52469">
        <ele>2229</ele>
        <time>2022-01-19T11:21:45Z</time>
      </trkpt>
      <trkpt lat="44.87293" lon="5.52469">
        <ele>2229</ele>
        <time>2022-01-19T11:21:46Z</time>
      </trkpt>
      <trkpt lat="44.87293" lon="5.52469">
        <ele>2229</ele>
        <time>2022-01-19T11:21:47Z</time>
      </trkpt>
      <trkpt lat="44.87293" lon="5.52469">
        <ele>2229</ele>
        <time>2022-01-19T11:21:48Z</time>
      </trkpt>
      <trkpt lat="44.87293" lon="5.52469">
        <ele>2229</ele>
        <time>2022-01-19T11:21:49Z</time>
      </trkpt>
      <trkpt lat="44.87293" lon="5.52469">
        <ele>2229</ele>
        <time>2022-01-19T11:21:50Z</time>
      </trkpt>
      <trkpt lat="44.87293" lon="5.52469">
        <ele>2229</ele>
        <time>2022-01-19T11:21:51Z</time>
      </trkpt>
      <trkpt lat="44.87293" lon="5.52469">
        <ele>2229</ele>
        <time>2022-01-19T11:21:52Z</time>
      </trkpt>
      <trkpt lat="44.87293" lon="5.52469">
        <ele>2229</ele>
        <time>2022-01-19T11:21:53Z</time>
      </trkpt>
      <trkpt lat="44.87293" lon="5.52469">
        <ele>2229</ele>
        <time>2022-01-19T11:21:54Z</time>
      </trkpt>
      <trkpt lat="44.87293" lon="5.52469">
        <ele>2229</ele>
        <time>2022-01-19T11:21:55Z</time>
      </trkpt>
      <trkpt lat="44.87293" lon="5.52469">
        <ele>2229</ele>
        <time>2022-01-19T11:21:56Z</time>
      </trkpt>
      <trkpt lat="44.87293" lon="5.52469">
        <ele>2229</ele>
        <time>2022-01-19T11:21:57Z</time>
      </trkpt>
      <trkpt lat="44.87293" lon="5.52469">
        <ele>2229</ele>
        <time>2022-01-19T11:21:58Z</time>
      </trkpt>
      <trkpt lat="44.87293" lon="5.52469">
        <ele>2229</ele>
        <time>2022-01-19T11:21:59Z</time>
      </trkpt>
      <trkpt lat="44.87293" lon="5.52469">
        <ele>2229</ele>
        <time>2022-01-19T11:22:00Z</time>
      </trkpt>
      <trkpt lat="44.87293" lon="5.52469">
        <ele>2229</ele>
        <time>2022-01-19T11:22:01Z</time>
      </trkpt>
      <trkpt lat="44.87293" lon="5.52469">
        <ele>2229</ele>
        <time>2022-01-19T11:22:02Z</time>
      </trkpt>
      <trkpt lat="44.87293" lon="5.52469">
        <ele>2229</ele>
        <time>2022-01-19T11:22:03Z</time>
      </trkpt>
      <trkpt lat="44.87293" lon="5.52469">
        <ele>2229</ele>
        <time>2022-01-19T11:22:04Z</time>
      </trkpt>
      <trkpt lat="44.87293" lon="5.52469">
        <ele>2229</ele>
        <time>2022-01-19T11:22:05Z</time>
      </trkpt>
      <trkpt lat="44.87293" lon="5.52469">
        <ele>2229</ele>
        <time>2022-01-19T11:22:06Z</time>
      </trkpt>
      <trkpt lat="44.87293" lon="5.52469">
        <ele>2229</ele>
        <time>2022-01-19T11:22:07Z</time>
      </trkpt>
      <trkpt lat="44.87293" lon="5.52469">
        <ele>2229</ele>
        <time>2022-01-19T11:22:08Z</time>
      </trkpt>
      <trkpt lat="44.87293" lon="5.52469">
        <ele>2229</ele>
        <time>2022-01-19T11:22:09Z</time>
      </trkpt>
      <trkpt lat="44.87293" lon="5.52469">
        <ele>2229</ele>
        <time>2022-01-19T11:22:10Z</time>
      </trkpt>
      <trkpt lat="44.87293" lon="5.52469">
        <ele>2229</ele>
        <time>2022-01-19T11:22:11Z</time>
      </trkpt>
      <trkpt lat="44.87293" lon="5.52469">
        <ele>2229</ele>
        <time>2022-01-19T11:22:12Z</time>
      </trkpt>
      <trkpt lat="44.87293" lon="5.52469">
        <ele>2229</ele>
        <time>2022-01-19T11:22:13Z</time>
      </trkpt>
      <trkpt lat="44.87293" lon="5.52469">
        <ele>2229</ele>
        <time>2022-01-19T11:22:14Z</time>
      </trkpt>
      <trkpt lat="44.87293" lon="5.52469">
        <ele>2229</ele>
        <time>2022-01-19T11:22:15Z</time>
      </trkpt>
      <trkpt lat="44.87293" lon="5.52469">
        <ele>2229</ele>
        <time>2022-01-19T11:22:16Z</time>
      </trkpt>
      <trkpt lat="44.87293" lon="5.52469">
        <ele>2229</ele>
        <time>2022-01-19T11:22:17Z</time>
      </trkpt>
      <trkpt lat="44.87293" lon="5.52469">
        <ele>2229</ele>
        <time>2022-01-19T11:22:18Z</time>
      </trkpt>
      <trkpt lat="44.87293" lon="5.52469">
        <ele>2229</ele>
        <time>2022-01-19T11:22:19Z</time>
      </trkpt>
      <trkpt lat="44.87293" lon="5.52469">
        <ele>2229</ele>
        <time>2022-01-19T11:22:20Z</time>
      </trkpt>
      <trkpt lat="44.87293" lon="5.52469">
        <ele>2229</ele>
        <time>2022-01-19T11:22:21Z</time>
      </trkpt>
      <trkpt lat="44.87293" lon="5.52469">
        <ele>2229</ele>
        <time>2022-01-19T11:22:22Z</time>
      </trkpt>
      <trkpt lat="44.87293" lon="5.52469">
        <ele>2229</ele>
        <time>2022-01-19T11:22:23Z</time>
      </trkpt>
      <trkpt lat="44.87293" lon="5.52469">
        <ele>2229</ele>
        <time>2022-01-19T11:22:24Z</time>
      </trkpt>
      <trkpt lat="44.87293" lon="5.52469">
        <ele>2229</ele>
        <time>2022-01-19T11:22:25Z</time>
      </trkpt>
      <trkpt lat="44.87293" lon="5.52469">
        <ele>2229</ele>
        <time>2022-01-19T11:22:26Z</time>
      </trkpt>
      <trkpt lat="44.87293" lon="5.52469">
        <ele>2229</ele>
        <time>2022-01-19T11:22:27Z</time>
      </trkpt>
      <trkpt lat="44.87293" lon="5.52469">
        <ele>2229</ele>
        <time>2022-01-19T11:22:28Z</time>
      </trkpt>
      <trkpt lat="44.87293" lon="5.52469">
        <ele>2229</ele>
        <time>2022-01-19T11:22:29Z</time>
      </trkpt>
      <trkpt lat="44.87293" lon="5.52469">
        <ele>2229</ele>
        <time>2022-01-19T11:22:30Z</time>
      </trkpt>
      <trkpt lat="44.87293" lon="5.52469">
        <ele>2229</ele>
        <time>2022-01-19T11:22:31Z</time>
      </trkpt>
      <trkpt lat="44.87293" lon="5.52469">
        <ele>2229</ele>
        <time>2022-01-19T11:22:32Z</time>
      </trkpt>
      <trkpt lat="44.87293" lon="5.52469">
        <ele>2229</ele>
        <time>2022-01-19T11:22:33Z</time>
      </trkpt>
      <trkpt lat="44.87293" lon="5.52469">
        <ele>2229</ele>
        <time>2022-01-19T11:22:34Z</time>
      </trkpt>
      <trkpt lat="44.87293" lon="5.52469">
        <ele>2229</ele>
        <time>2022-01-19T11:22:35Z</time>
      </trkpt>
      <trkpt lat="44.87293" lon="5.52469">
        <ele>2229</ele>
        <time>2022-01-19T11:22:36Z</time>
      </trkpt>
      <trkpt lat="44.87293" lon="5.52469">
        <ele>2229</ele>
        <time>2022-01-19T11:22:37Z</time>
      </trkpt>
      <trkpt lat="44.87293" lon="5.52469">
        <ele>2229</ele>
        <time>2022-01-19T11:22:38Z</time>
      </trkpt>
      <trkpt lat="44.87291" lon="5.52475">
        <ele>2230.6</ele>
        <time>2022-01-19T11:22:39Z</time>
      </trkpt>
      <trkpt lat="44.8729" lon="5.52476">
        <ele>2232.4</ele>
        <time>2022-01-19T11:22:40Z</time>
      </trkpt>
      <trkpt lat="44.8729" lon="5.52477">
        <ele>2232.4</ele>
        <time>2022-01-19T11:22:41Z</time>
      </trkpt>
      <trkpt lat="44.8729" lon="5.52477">
        <ele>2232.4</ele>
        <time>2022-01-19T11:22:42Z</time>
      </trkpt>
      <trkpt lat="44.8729" lon="5.52478">
        <ele>2232.4</ele>
        <time>2022-01-19T11:22:43Z</time>
      </trkpt>
      <trkpt lat="44.8729" lon="5.52478">
        <ele>2232.4</ele>
        <time>2022-01-19T11:22:44Z</time>
      </trkpt>
      <trkpt lat="44.87289" lon="5.52478">
        <ele>2232.4</ele>
        <time>2022-01-19T11:22:45Z</time>
      </trkpt>
      <trkpt lat="44.87289" lon="5.52479">
        <ele>2232.4</ele>
        <time>2022-01-19T11:22:46Z</time>
      </trkpt>
      <trkpt lat="44.87289" lon="5.52479">
        <ele>2232.4</ele>
        <time>2022-01-19T11:22:47Z</time>
      </trkpt>
      <trkpt lat="44.87289" lon="5.5248">
        <ele>2234</ele>
        <time>2022-01-19T11:22:48Z</time>
      </trkpt>
      <trkpt lat="44.87288" lon="5.5248">
        <ele>2234</ele>
        <time>2022-01-19T11:22:49Z</time>
      </trkpt>
      <trkpt lat="44.87288" lon="5.52481">
        <ele>2234</ele>
        <time>2022-01-19T11:22:50Z</time>
      </trkpt>
      <trkpt lat="44.87288" lon="5.52481">
        <ele>2234</ele>
        <time>2022-01-19T11:22:51Z</time>
      </trkpt>
      <trkpt lat="44.87288" lon="5.52481">
        <ele>2234</ele>
        <time>2022-01-19T11:22:52Z</time>
      </trkpt>
      <trkpt lat="44.87288" lon="5.52481">
        <ele>2234</ele>
        <time>2022-01-19T11:22:53Z</time>
      </trkpt>
      <trkpt lat="44.87288" lon="5.52481">
        <ele>2234</ele>
        <time>2022-01-19T11:22:54Z</time>
      </trkpt>
      <trkpt lat="44.87288" lon="5.52481">
        <ele>2234</ele>
        <time>2022-01-19T11:22:55Z</time>
      </trkpt>
      <trkpt lat="44.87288" lon="5.52481">
        <ele>2234</ele>
        <time>2022-01-19T11:22:56Z</time>
      </trkpt>
      <trkpt lat="44.87288" lon="5.52481">
        <ele>2234</ele>
        <time>2022-01-19T11:22:57Z</time>
      </trkpt>
      <trkpt lat="44.87288" lon="5.52481">
        <ele>2234</ele>
        <time>2022-01-19T11:22:58Z</time>
      </trkpt>
      <trkpt lat="44.87288" lon="5.52481">
        <ele>2234</ele>
        <time>2022-01-19T11:22:59Z</time>
      </trkpt>
      <trkpt lat="44.87288" lon="5.52481">
        <ele>2234</ele>
        <time>2022-01-19T11:23:00Z</time>
      </trkpt>
      <trkpt lat="44.87288" lon="5.52481">
        <ele>2234</ele>
        <time>2022-01-19T11:23:01Z</time>
      </trkpt>
      <trkpt lat="44.87288" lon="5.52481">
        <ele>2234</ele>
        <time>2022-01-19T11:23:02Z</time>
      </trkpt>
      <trkpt lat="44.87288" lon="5.52481">
        <ele>2234</ele>
        <time>2022-01-19T11:23:03Z</time>
      </trkpt>
      <trkpt lat="44.87288" lon="5.52481">
        <ele>2234</ele>
        <time>2022-01-19T11:23:04Z</time>
      </trkpt>
      <trkpt lat="44.87288" lon="5.52481">
        <ele>2234</ele>
        <time>2022-01-19T11:23:05Z</time>
      </trkpt>
      <trkpt lat="44.87288" lon="5.52481">
        <ele>2234</ele>
        <time>2022-01-19T11:23:06Z</time>
      </trkpt>
      <trkpt lat="44.87288" lon="5.52481">
        <ele>2234</ele>
        <time>2022-01-19T11:23:07Z</time>
      </trkpt>
      <trkpt lat="44.87288" lon="5.52481">
        <ele>2234</ele>
        <time>2022-01-19T11:23:08Z</time>
      </trkpt>
      <trkpt lat="44.87288" lon="5.52481">
        <ele>2234</ele>
        <time>2022-01-19T11:23:09Z</time>
      </trkpt>
      <trkpt lat="44.87288" lon="5.52481">
        <ele>2234</ele>
        <time>2022-01-19T11:23:10Z</time>
      </trkpt>
      <trkpt lat="44.87288" lon="5.52481">
        <ele>2234</ele>
        <time>2022-01-19T11:23:11Z</time>
      </trkpt>
      <trkpt lat="44.87288" lon="5.52481">
        <ele>2234</ele>
        <time>2022-01-19T11:23:12Z</time>
      </trkpt>
      <trkpt lat="44.87288" lon="5.52481">
        <ele>2234</ele>
        <time>2022-01-19T11:23:13Z</time>
      </trkpt>
      <trkpt lat="44.87288" lon="5.52481">
        <ele>2234</ele>
        <time>2022-01-19T11:23:14Z</time>
      </trkpt>
      <trkpt lat="44.87288" lon="5.52481">
        <ele>2234</ele>
        <time>2022-01-19T11:23:15Z</time>
      </trkpt>
      <trkpt lat="44.87288" lon="5.52481">
        <ele>2234</ele>
        <time>2022-01-19T11:23:16Z</time>
      </trkpt>
      <trkpt lat="44.87288" lon="5.52481">
        <ele>2234</ele>
        <time>2022-01-19T11:23:17Z</time>
      </trkpt>
      <trkpt lat="44.87288" lon="5.52481">
        <ele>2234</ele>
        <time>2022-01-19T11:23:18Z</time>
      </trkpt>
      <trkpt lat="44.87288" lon="5.52481">
        <ele>2234</ele>
        <time>2022-01-19T11:23:19Z</time>
      </trkpt>
      <trkpt lat="44.87288" lon="5.52481">
        <ele>2234</ele>
        <time>2022-01-19T11:23:20Z</time>
      </trkpt>
      <trkpt lat="44.87288" lon="5.52481">
        <ele>2234</ele>
        <time>2022-01-19T11:23:21Z</time>
      </trkpt>
      <trkpt lat="44.87288" lon="5.52481">
        <ele>2234</ele>
        <time>2022-01-19T11:23:22Z</time>
      </trkpt>
      <trkpt lat="44.87288" lon="5.52481">
        <ele>2234</ele>
        <time>2022-01-19T11:23:23Z</time>
      </trkpt>
      <trkpt lat="44.87288" lon="5.52481">
        <ele>2234</ele>
        <time>2022-01-19T11:23:24Z</time>
      </trkpt>
      <trkpt lat="44.87288" lon="5.52481">
        <ele>2234</ele>
        <time>2022-01-19T11:23:25Z</time>
      </trkpt>
      <trkpt lat="44.87288" lon="5.52481">
        <ele>2234</ele>
        <time>2022-01-19T11:23:26Z</time>
      </trkpt>
      <trkpt lat="44.87288" lon="5.52481">
        <ele>2234</ele>
        <time>2022-01-19T11:23:27Z</time>
      </trkpt>
      <trkpt lat="44.87288" lon="5.52481">
        <ele>2234</ele>
        <time>2022-01-19T11:23:28Z</time>
      </trkpt>
      <trkpt lat="44.87288" lon="5.52481">
        <ele>2234</ele>
        <time>2022-01-19T11:23:29Z</time>
      </trkpt>
      <trkpt lat="44.87288" lon="5.52481">
        <ele>2234</ele>
        <time>2022-01-19T11:23:30Z</time>
      </trkpt>
      <trkpt lat="44.87288" lon="5.52481">
        <ele>2234</ele>
        <time>2022-01-19T11:23:31Z</time>
      </trkpt>
      <trkpt lat="44.87288" lon="5.52481">
        <ele>2234</ele>
        <time>2022-01-19T11:23:32Z</time>
      </trkpt>
      <trkpt lat="44.87288" lon="5.52481">
        <ele>2234</ele>
        <time>2022-01-19T11:23:33Z</time>
      </trkpt>
      <trkpt lat="44.87288" lon="5.52481">
        <ele>2234</ele>
        <time>2022-01-19T11:23:34Z</time>
      </trkpt>
      <trkpt lat="44.87288" lon="5.52481">
        <ele>2234</ele>
        <time>2022-01-19T11:23:35Z</time>
      </trkpt>
      <trkpt lat="44.87288" lon="5.52481">
        <ele>2234</ele>
        <time>2022-01-19T11:23:36Z</time>
      </trkpt>
      <trkpt lat="44.87288" lon="5.52481">
        <ele>2234</ele>
        <time>2022-01-19T11:23:37Z</time>
      </trkpt>
      <trkpt lat="44.87288" lon="5.52481">
        <ele>2234</ele>
        <time>2022-01-19T11:23:38Z</time>
      </trkpt>
      <trkpt lat="44.87288" lon="5.52481">
        <ele>2234</ele>
        <time>2022-01-19T11:23:39Z</time>
      </trkpt>
      <trkpt lat="44.87288" lon="5.52481">
        <ele>2234</ele>
        <time>2022-01-19T11:23:40Z</time>
      </trkpt>
      <trkpt lat="44.87288" lon="5.52481">
        <ele>2234</ele>
        <time>2022-01-19T11:23:41Z</time>
      </trkpt>
      <trkpt lat="44.87288" lon="5.52481">
        <ele>2234</ele>
        <time>2022-01-19T11:23:42Z</time>
      </trkpt>
      <trkpt lat="44.87288" lon="5.52481">
        <ele>2234</ele>
        <time>2022-01-19T11:23:43Z</time>
      </trkpt>
      <trkpt lat="44.87288" lon="5.52481">
        <ele>2234</ele>
        <time>2022-01-19T11:23:44Z</time>
      </trkpt>
      <trkpt lat="44.87288" lon="5.52481">
        <ele>2234</ele>
        <time>2022-01-19T11:23:45Z</time>
      </trkpt>
      <trkpt lat="44.87288" lon="5.52481">
        <ele>2234</ele>
        <time>2022-01-19T11:23:46Z</time>
      </trkpt>
      <trkpt lat="44.87288" lon="5.52481">
        <ele>2234</ele>
        <time>2022-01-19T11:23:47Z</time>
      </trkpt>
      <trkpt lat="44.87288" lon="5.52481">
        <ele>2234</ele>
        <time>2022-01-19T11:23:48Z</time>
      </trkpt>
      <trkpt lat="44.87288" lon="5.52481">
        <ele>2234</ele>
        <time>2022-01-19T11:23:49Z</time>
      </trkpt>
      <trkpt lat="44.87288" lon="5.52481">
        <ele>2234</ele>
        <time>2022-01-19T11:23:50Z</time>
      </trkpt>
      <trkpt lat="44.87288" lon="5.52481">
        <ele>2234</ele>
        <time>2022-01-19T11:23:51Z</time>
      </trkpt>
      <trkpt lat="44.87288" lon="5.52481">
        <ele>2234</ele>
        <time>2022-01-19T11:23:52Z</time>
      </trkpt>
      <trkpt lat="44.87289" lon="5.52482">
        <ele>2234</ele>
        <time>2022-01-19T11:23:53Z</time>
      </trkpt>
      <trkpt lat="44.87289" lon="5.52483">
        <ele>2234</ele>
        <time>2022-01-19T11:23:54Z</time>
      </trkpt>
      <trkpt lat="44.87289" lon="5.52483">
        <ele>2234</ele>
        <time>2022-01-19T11:23:55Z</time>
      </trkpt>
      <trkpt lat="44.87289" lon="5.52484">
        <ele>2235.5</ele>
        <time>2022-01-19T11:23:56Z</time>
      </trkpt>
      <trkpt lat="44.87289" lon="5.52484">
        <ele>2235.5</ele>
        <time>2022-01-19T11:23:57Z</time>
      </trkpt>
      <trkpt lat="44.87288" lon="5.52485">
        <ele>2235.5</ele>
        <time>2022-01-19T11:23:58Z</time>
      </trkpt>
      <trkpt lat="44.87288" lon="5.52485">
        <ele>2235.5</ele>
        <time>2022-01-19T11:23:59Z</time>
      </trkpt>
      <trkpt lat="44.87288" lon="5.52486">
        <ele>2235.5</ele>
        <time>2022-01-19T11:24:00Z</time>
      </trkpt>
      <trkpt lat="44.87288" lon="5.52486">
        <ele>2235.5</ele>
        <time>2022-01-19T11:24:01Z</time>
      </trkpt>
      <trkpt lat="44.87288" lon="5.52486">
        <ele>2235.5</ele>
        <time>2022-01-19T11:24:02Z</time>
      </trkpt>
      <trkpt lat="44.87288" lon="5.52486">
        <ele>2235.5</ele>
        <time>2022-01-19T11:24:03Z</time>
      </trkpt>
      <trkpt lat="44.87287" lon="5.52488">
        <ele>2237.3</ele>
        <time>2022-01-19T11:24:04Z</time>
      </trkpt>
      <trkpt lat="44.87286" lon="5.5249">
        <ele>2237.3</ele>
        <time>2022-01-19T11:24:05Z</time>
      </trkpt>
      <trkpt lat="44.87284" lon="5.52491">
        <ele>2237.3</ele>
        <time>2022-01-19T11:24:06Z</time>
      </trkpt>
      <trkpt lat="44.87285" lon="5.52492">
        <ele>2237.3</ele>
        <time>2022-01-19T11:24:07Z</time>
      </trkpt>
      <trkpt lat="44.87285" lon="5.52493">
        <ele>2238.7</ele>
        <time>2022-01-19T11:24:08Z</time>
      </trkpt>
      <trkpt lat="44.87285" lon="5.52494">
        <ele>2238.7</ele>
        <time>2022-01-19T11:24:09Z</time>
      </trkpt>
      <trkpt lat="44.87285" lon="5.52496">
        <ele>2238.7</ele>
        <time>2022-01-19T11:24:10Z</time>
      </trkpt>
      <trkpt lat="44.87285" lon="5.52497">
        <ele>2240.1</ele>
        <time>2022-01-19T11:24:11Z</time>
      </trkpt>
      <trkpt lat="44.87284" lon="5.52498">
        <ele>2240.4</ele>
        <time>2022-01-19T11:24:12Z</time>
      </trkpt>
      <trkpt lat="44.87284" lon="5.52498">
        <ele>2240.4</ele>
        <time>2022-01-19T11:24:13Z</time>
      </trkpt>
      <trkpt lat="44.87284" lon="5.52498">
        <ele>2240.4</ele>
        <time>2022-01-19T11:24:14Z</time>
      </trkpt>
      <trkpt lat="44.87284" lon="5.52498">
        <ele>2240.4</ele>
        <time>2022-01-19T11:24:15Z</time>
      </trkpt>
      <trkpt lat="44.87284" lon="5.52498">
        <ele>2240.4</ele>
        <time>2022-01-19T11:24:16Z</time>
      </trkpt>
      <trkpt lat="44.87284" lon="5.52499">
        <ele>2240.4</ele>
        <time>2022-01-19T11:24:17Z</time>
      </trkpt>
      <trkpt lat="44.87283" lon="5.525">
        <ele>2240.4</ele>
        <time>2022-01-19T11:24:18Z</time>
      </trkpt>
      <trkpt lat="44.87283" lon="5.52501">
        <ele>2240.4</ele>
        <time>2022-01-19T11:24:19Z</time>
      </trkpt>
      <trkpt lat="44.87283" lon="5.52501">
        <ele>2241.7</ele>
        <time>2022-01-19T11:24:20Z</time>
      </trkpt>
      <trkpt lat="44.87283" lon="5.52502">
        <ele>2241.7</ele>
        <time>2022-01-19T11:24:21Z</time>
      </trkpt>
      <trkpt lat="44.87283" lon="5.52503">
        <ele>2241.7</ele>
        <time>2022-01-19T11:24:22Z</time>
      </trkpt>
      <trkpt lat="44.87282" lon="5.52503">
        <ele>2241.7</ele>
        <time>2022-01-19T11:24:23Z</time>
      </trkpt>
      <trkpt lat="44.87282" lon="5.52504">
        <ele>2241.7</ele>
        <time>2022-01-19T11:24:24Z</time>
      </trkpt>
      <trkpt lat="44.87282" lon="5.52505">
        <ele>2241.7</ele>
        <time>2022-01-19T11:24:25Z</time>
      </trkpt>
      <trkpt lat="44.87282" lon="5.52505">
        <ele>2243.1</ele>
        <time>2022-01-19T11:24:26Z</time>
      </trkpt>
      <trkpt lat="44.87282" lon="5.52506">
        <ele>2243.1</ele>
        <time>2022-01-19T11:24:27Z</time>
      </trkpt>
      <trkpt lat="44.87282" lon="5.52506">
        <ele>2243.1</ele>
        <time>2022-01-19T11:24:28Z</time>
      </trkpt>
      <trkpt lat="44.87282" lon="5.52507">
        <ele>2243.1</ele>
        <time>2022-01-19T11:24:29Z</time>
      </trkpt>
      <trkpt lat="44.87282" lon="5.52508">
        <ele>2243.1</ele>
        <time>2022-01-19T11:24:30Z</time>
      </trkpt>
      <trkpt lat="44.87282" lon="5.52508">
        <ele>2243.1</ele>
        <time>2022-01-19T11:24:31Z</time>
      </trkpt>
      <trkpt lat="44.87282" lon="5.52509">
        <ele>2243.1</ele>
        <time>2022-01-19T11:24:32Z</time>
      </trkpt>
      <trkpt lat="44.87281" lon="5.52509">
        <ele>2243.1</ele>
        <time>2022-01-19T11:24:33Z</time>
      </trkpt>
      <trkpt lat="44.87281" lon="5.5251">
        <ele>2244.4</ele>
        <time>2022-01-19T11:24:34Z</time>
      </trkpt>
      <trkpt lat="44.87281" lon="5.5251">
        <ele>2244.4</ele>
        <time>2022-01-19T11:24:35Z</time>
      </trkpt>
      <trkpt lat="44.87281" lon="5.5251">
        <ele>2244.4</ele>
        <time>2022-01-19T11:24:36Z</time>
      </trkpt>
      <trkpt lat="44.87281" lon="5.52511">
        <ele>2244.4</ele>
        <time>2022-01-19T11:24:37Z</time>
      </trkpt>
      <trkpt lat="44.87281" lon="5.52511">
        <ele>2244.4</ele>
        <time>2022-01-19T11:24:38Z</time>
      </trkpt>
      <trkpt lat="44.87281" lon="5.52512">
        <ele>2244.7</ele>
        <time>2022-01-19T11:24:39Z</time>
      </trkpt>
      <trkpt lat="44.87281" lon="5.52512">
        <ele>2244.7</ele>
        <time>2022-01-19T11:24:40Z</time>
      </trkpt>
      <trkpt lat="44.87281" lon="5.52512">
        <ele>2244.7</ele>
        <time>2022-01-19T11:24:41Z</time>
      </trkpt>
      <trkpt lat="44.87281" lon="5.52512">
        <ele>2244.7</ele>
        <time>2022-01-19T11:24:42Z</time>
      </trkpt>
      <trkpt lat="44.87281" lon="5.52512">
        <ele>2244.7</ele>
        <time>2022-01-19T11:24:43Z</time>
      </trkpt>
      <trkpt lat="44.87281" lon="5.52512">
        <ele>2244.7</ele>
        <time>2022-01-19T11:24:44Z</time>
      </trkpt>
      <trkpt lat="44.87281" lon="5.52512">
        <ele>2244.7</ele>
        <time>2022-01-19T11:24:45Z</time>
      </trkpt>
      <trkpt lat="44.87281" lon="5.52512">
        <ele>2244.7</ele>
        <time>2022-01-19T11:24:46Z</time>
      </trkpt>
      <trkpt lat="44.87281" lon="5.52512">
        <ele>2244.7</ele>
        <time>2022-01-19T11:24:47Z</time>
      </trkpt>
      <trkpt lat="44.87281" lon="5.52512">
        <ele>2244.7</ele>
        <time>2022-01-19T11:24:48Z</time>
      </trkpt>
      <trkpt lat="44.87281" lon="5.52512">
        <ele>2244.7</ele>
        <time>2022-01-19T11:24:49Z</time>
      </trkpt>
      <trkpt lat="44.87281" lon="5.52512">
        <ele>2244.7</ele>
        <time>2022-01-19T11:24:50Z</time>
      </trkpt>
      <trkpt lat="44.87281" lon="5.52512">
        <ele>2244.7</ele>
        <time>2022-01-19T11:24:51Z</time>
      </trkpt>
      <trkpt lat="44.87281" lon="5.52512">
        <ele>2244.7</ele>
        <time>2022-01-19T11:24:52Z</time>
      </trkpt>
      <trkpt lat="44.87281" lon="5.52512">
        <ele>2244.7</ele>
        <time>2022-01-19T11:24:53Z</time>
      </trkpt>
      <trkpt lat="44.87281" lon="5.52512">
        <ele>2244.7</ele>
        <time>2022-01-19T11:24:54Z</time>
      </trkpt>
      <trkpt lat="44.87281" lon="5.52512">
        <ele>2244.7</ele>
        <time>2022-01-19T11:24:55Z</time>
      </trkpt>
      <trkpt lat="44.87281" lon="5.52512">
        <ele>2244.7</ele>
        <time>2022-01-19T11:24:56Z</time>
      </trkpt>
      <trkpt lat="44.87281" lon="5.52512">
        <ele>2244.7</ele>
        <time>2022-01-19T11:24:57Z</time>
      </trkpt>
      <trkpt lat="44.87281" lon="5.52512">
        <ele>2244.7</ele>
        <time>2022-01-19T11:24:58Z</time>
      </trkpt>
      <trkpt lat="44.87281" lon="5.52512">
        <ele>2244.7</ele>
        <time>2022-01-19T11:24:59Z</time>
      </trkpt>
      <trkpt lat="44.87281" lon="5.52512">
        <ele>2244.7</ele>
        <time>2022-01-19T11:25:00Z</time>
      </trkpt>
      <trkpt lat="44.87281" lon="5.52512">
        <ele>2244.7</ele>
        <time>2022-01-19T11:25:01Z</time>
      </trkpt>
      <trkpt lat="44.87281" lon="5.52512">
        <ele>2244.7</ele>
        <time>2022-01-19T11:25:02Z</time>
      </trkpt>
      <trkpt lat="44.87281" lon="5.52512">
        <ele>2244.7</ele>
        <time>2022-01-19T11:25:03Z</time>
      </trkpt>
      <trkpt lat="44.87281" lon="5.52512">
        <ele>2244.7</ele>
        <time>2022-01-19T11:25:04Z</time>
      </trkpt>
      <trkpt lat="44.87281" lon="5.52512">
        <ele>2244.7</ele>
        <time>2022-01-19T11:25:05Z</time>
      </trkpt>
      <trkpt lat="44.87281" lon="5.52512">
        <ele>2244.7</ele>
        <time>2022-01-19T11:25:06Z</time>
      </trkpt>
      <trkpt lat="44.87281" lon="5.52512">
        <ele>2244.7</ele>
        <time>2022-01-19T11:25:07Z</time>
      </trkpt>
      <trkpt lat="44.87281" lon="5.52512">
        <ele>2244.7</ele>
        <time>2022-01-19T11:25:08Z</time>
      </trkpt>
      <trkpt lat="44.87281" lon="5.52512">
        <ele>2244.7</ele>
        <time>2022-01-19T11:25:09Z</time>
      </trkpt>
      <trkpt lat="44.87281" lon="5.52512">
        <ele>2244.7</ele>
        <time>2022-01-19T11:25:10Z</time>
      </trkpt>
      <trkpt lat="44.87281" lon="5.52512">
        <ele>2244.7</ele>
        <time>2022-01-19T11:25:11Z</time>
      </trkpt>
      <trkpt lat="44.87276" lon="5.52523">
        <ele>2249.2</ele>
        <time>2022-01-19T11:25:12Z</time>
      </trkpt>
      <trkpt lat="44.87276" lon="5.52524">
        <ele>2249.2</ele>
        <time>2022-01-19T11:25:13Z</time>
      </trkpt>
      <trkpt lat="44.87276" lon="5.52524">
        <ele>2249.2</ele>
        <time>2022-01-19T11:25:14Z</time>
      </trkpt>
      <trkpt lat="44.87276" lon="5.52524">
        <ele>2249.2</ele>
        <time>2022-01-19T11:25:15Z</time>
      </trkpt>
      <trkpt lat="44.87276" lon="5.52524">
        <ele>2249.2</ele>
        <time>2022-01-19T11:25:16Z</time>
      </trkpt>
      <trkpt lat="44.87276" lon="5.52524">
        <ele>2249.2</ele>
        <time>2022-01-19T11:25:17Z</time>
      </trkpt>
      <trkpt lat="44.87275" lon="5.52525">
        <ele>2249.2</ele>
        <time>2022-01-19T11:25:18Z</time>
      </trkpt>
      <trkpt lat="44.87275" lon="5.52525">
        <ele>2249.2</ele>
        <time>2022-01-19T11:25:19Z</time>
      </trkpt>
      <trkpt lat="44.87275" lon="5.52525">
        <ele>2249.5</ele>
        <time>2022-01-19T11:25:20Z</time>
      </trkpt>
      <trkpt lat="44.87275" lon="5.52524">
        <ele>2249.5</ele>
        <time>2022-01-19T11:25:21Z</time>
      </trkpt>
      <trkpt lat="44.87275" lon="5.52524">
        <ele>2249.5</ele>
        <time>2022-01-19T11:25:22Z</time>
      </trkpt>
      <trkpt lat="44.87275" lon="5.52524">
        <ele>2249.5</ele>
        <time>2022-01-19T11:25:23Z</time>
      </trkpt>
      <trkpt lat="44.87275" lon="5.52524">
        <ele>2249.5</ele>
        <time>2022-01-19T11:25:24Z</time>
      </trkpt>
      <trkpt lat="44.87275" lon="5.52524">
        <ele>2249.5</ele>
        <time>2022-01-19T11:25:25Z</time>
      </trkpt>
      <trkpt lat="44.87275" lon="5.52524">
        <ele>2249.5</ele>
        <time>2022-01-19T11:25:26Z</time>
      </trkpt>
      <trkpt lat="44.87275" lon="5.52524">
        <ele>2249.5</ele>
        <time>2022-01-19T11:25:27Z</time>
      </trkpt>
      <trkpt lat="44.87275" lon="5.52524">
        <ele>2249.5</ele>
        <time>2022-01-19T11:25:28Z</time>
      </trkpt>
      <trkpt lat="44.87275" lon="5.52524">
        <ele>2249.5</ele>
        <time>2022-01-19T11:25:29Z</time>
      </trkpt>
      <trkpt lat="44.87272" lon="5.52526">
        <ele>2249.5</ele>
        <time>2022-01-19T11:25:30Z</time>
      </trkpt>
      <trkpt lat="44.87272" lon="5.52526">
        <ele>2249.8</ele>
        <time>2022-01-19T11:25:31Z</time>
      </trkpt>
      <trkpt lat="44.87272" lon="5.52527">
        <ele>2251.3</ele>
        <time>2022-01-19T11:25:32Z</time>
      </trkpt>
      <trkpt lat="44.87271" lon="5.52527">
        <ele>2251.3</ele>
        <time>2022-01-19T11:25:33Z</time>
      </trkpt>
      <trkpt lat="44.87271" lon="5.52527">
        <ele>2251.3</ele>
        <time>2022-01-19T11:25:34Z</time>
      </trkpt>
      <trkpt lat="44.8727" lon="5.52527">
        <ele>2251.3</ele>
        <time>2022-01-19T11:25:35Z</time>
      </trkpt>
      <trkpt lat="44.8727" lon="5.52527">
        <ele>2251.3</ele>
        <time>2022-01-19T11:25:36Z</time>
      </trkpt>
      <trkpt lat="44.87269" lon="5.52527">
        <ele>2251.3</ele>
        <time>2022-01-19T11:25:37Z</time>
      </trkpt>
      <trkpt lat="44.87269" lon="5.52527">
        <ele>2251.5</ele>
        <time>2022-01-19T11:25:38Z</time>
      </trkpt>
      <trkpt lat="44.87269" lon="5.52527">
        <ele>2251.5</ele>
        <time>2022-01-19T11:25:39Z</time>
      </trkpt>
      <trkpt lat="44.87268" lon="5.52527">
        <ele>2251.5</ele>
        <time>2022-01-19T11:25:40Z</time>
      </trkpt>
      <trkpt lat="44.87268" lon="5.52526">
        <ele>2250.1</ele>
        <time>2022-01-19T11:25:41Z</time>
      </trkpt>
      <trkpt lat="44.87267" lon="5.52526">
        <ele>2250.1</ele>
        <time>2022-01-19T11:25:42Z</time>
      </trkpt>
      <trkpt lat="44.87267" lon="5.52526">
        <ele>2250.1</ele>
        <time>2022-01-19T11:25:43Z</time>
      </trkpt>
      <trkpt lat="44.87267" lon="5.52525">
        <ele>2250.1</ele>
        <time>2022-01-19T11:25:44Z</time>
      </trkpt>
      <trkpt lat="44.87266" lon="5.52525">
        <ele>2250.1</ele>
        <time>2022-01-19T11:25:45Z</time>
      </trkpt>
      <trkpt lat="44.87266" lon="5.52525">
        <ele>2250.1</ele>
        <time>2022-01-19T11:25:46Z</time>
      </trkpt>
      <trkpt lat="44.87266" lon="5.52525">
        <ele>2250.1</ele>
        <time>2022-01-19T11:25:47Z</time>
      </trkpt>
      <trkpt lat="44.87266" lon="5.52525">
        <ele>2250.1</ele>
        <time>2022-01-19T11:25:48Z</time>
      </trkpt>
      <trkpt lat="44.87266" lon="5.52525">
        <ele>2250.1</ele>
        <time>2022-01-19T11:25:49Z</time>
      </trkpt>
      <trkpt lat="44.87266" lon="5.52525">
        <ele>2250.1</ele>
        <time>2022-01-19T11:25:50Z</time>
      </trkpt>
      <trkpt lat="44.87266" lon="5.52525">
        <ele>2250.1</ele>
        <time>2022-01-19T11:25:51Z</time>
      </trkpt>
      <trkpt lat="44.87266" lon="5.52525">
        <ele>2250.1</ele>
        <time>2022-01-19T11:25:52Z</time>
      </trkpt>
      <trkpt lat="44.87266" lon="5.52525">
        <ele>2250.1</ele>
        <time>2022-01-19T11:25:53Z</time>
      </trkpt>
      <trkpt lat="44.87266" lon="5.52525">
        <ele>2250.1</ele>
        <time>2022-01-19T11:25:54Z</time>
      </trkpt>
      <trkpt lat="44.87266" lon="5.52525">
        <ele>2250.1</ele>
        <time>2022-01-19T11:25:55Z</time>
      </trkpt>
      <trkpt lat="44.87262" lon="5.52523">
        <ele>2250.7</ele>
        <time>2022-01-19T11:25:56Z</time>
      </trkpt>
      <trkpt lat="44.87262" lon="5.52523">
        <ele>2250.7</ele>
        <time>2022-01-19T11:25:57Z</time>
      </trkpt>
      <trkpt lat="44.87261" lon="5.52524">
        <ele>2250.7</ele>
        <time>2022-01-19T11:25:58Z</time>
      </trkpt>
      <trkpt lat="44.87261" lon="5.52524">
        <ele>2250.7</ele>
        <time>2022-01-19T11:25:59Z</time>
      </trkpt>
      <trkpt lat="44.87261" lon="5.52524">
        <ele>2250.7</ele>
        <time>2022-01-19T11:26:00Z</time>
      </trkpt>
      <trkpt lat="44.8726" lon="5.52524">
        <ele>2250.7</ele>
        <time>2022-01-19T11:26:01Z</time>
      </trkpt>
      <trkpt lat="44.8726" lon="5.52524">
        <ele>2251</ele>
        <time>2022-01-19T11:26:02Z</time>
      </trkpt>
      <trkpt lat="44.87259" lon="5.52525">
        <ele>2251</ele>
        <time>2022-01-19T11:26:03Z</time>
      </trkpt>
      <trkpt lat="44.87259" lon="5.52525">
        <ele>2251</ele>
        <time>2022-01-19T11:26:04Z</time>
      </trkpt>
      <trkpt lat="44.87259" lon="5.52525">
        <ele>2251</ele>
        <time>2022-01-19T11:26:05Z</time>
      </trkpt>
      <trkpt lat="44.87258" lon="5.52525">
        <ele>2251</ele>
        <time>2022-01-19T11:26:06Z</time>
      </trkpt>
      <trkpt lat="44.87258" lon="5.52525">
        <ele>2251</ele>
        <time>2022-01-19T11:26:07Z</time>
      </trkpt>
      <trkpt lat="44.87257" lon="5.52525">
        <ele>2251</ele>
        <time>2022-01-19T11:26:08Z</time>
      </trkpt>
      <trkpt lat="44.87257" lon="5.52525">
        <ele>2251</ele>
        <time>2022-01-19T11:26:09Z</time>
      </trkpt>
      <trkpt lat="44.87257" lon="5.52525">
        <ele>2251.3</ele>
        <time>2022-01-19T11:26:10Z</time>
      </trkpt>
      <trkpt lat="44.87256" lon="5.52525">
        <ele>2251.3</ele>
        <time>2022-01-19T11:26:11Z</time>
      </trkpt>
      <trkpt lat="44.87256" lon="5.52525">
        <ele>2251.3</ele>
        <time>2022-01-19T11:26:12Z</time>
      </trkpt>
      <trkpt lat="44.87255" lon="5.52525">
        <ele>2251.3</ele>
        <time>2022-01-19T11:26:13Z</time>
      </trkpt>
      <trkpt lat="44.87254" lon="5.52524">
        <ele>2251.3</ele>
        <time>2022-01-19T11:26:14Z</time>
      </trkpt>
      <trkpt lat="44.87254" lon="5.52524">
        <ele>2251.3</ele>
        <time>2022-01-19T11:26:15Z</time>
      </trkpt>
      <trkpt lat="44.87253" lon="5.52523">
        <ele>2251.7</ele>
        <time>2022-01-19T11:26:16Z</time>
      </trkpt>
      <trkpt lat="44.87253" lon="5.52523">
        <ele>2251.7</ele>
        <time>2022-01-19T11:26:17Z</time>
      </trkpt>
      <trkpt lat="44.87253" lon="5.52522">
        <ele>2251.7</ele>
        <time>2022-01-19T11:26:18Z</time>
      </trkpt>
      <trkpt lat="44.87253" lon="5.52522">
        <ele>2250.3</ele>
        <time>2022-01-19T11:26:19Z</time>
      </trkpt>
      <trkpt lat="44.87252" lon="5.52521">
        <ele>2250.3</ele>
        <time>2022-01-19T11:26:20Z</time>
      </trkpt>
      <trkpt lat="44.87252" lon="5.52521">
        <ele>2250.3</ele>
        <time>2022-01-19T11:26:21Z</time>
      </trkpt>
      <trkpt lat="44.87251" lon="5.5252">
        <ele>2250.3</ele>
        <time>2022-01-19T11:26:22Z</time>
      </trkpt>
      <trkpt lat="44.87251" lon="5.5252">
        <ele>2250.3</ele>
        <time>2022-01-19T11:26:23Z</time>
      </trkpt>
      <trkpt lat="44.87251" lon="5.5252">
        <ele>2250.3</ele>
        <time>2022-01-19T11:26:24Z</time>
      </trkpt>
      <trkpt lat="44.87251" lon="5.52519">
        <ele>2250.7</ele>
        <time>2022-01-19T11:26:25Z</time>
      </trkpt>
      <trkpt lat="44.87251" lon="5.52519">
        <ele>2250.7</ele>
        <time>2022-01-19T11:26:26Z</time>
      </trkpt>
      <trkpt lat="44.8725" lon="5.52518">
        <ele>2250.7</ele>
        <time>2022-01-19T11:26:27Z</time>
      </trkpt>
      <trkpt lat="44.8725" lon="5.52517">
        <ele>2249.3</ele>
        <time>2022-01-19T11:26:28Z</time>
      </trkpt>
      <trkpt lat="44.87249" lon="5.52517">
        <ele>2249.3</ele>
        <time>2022-01-19T11:26:29Z</time>
      </trkpt>
      <trkpt lat="44.87249" lon="5.52516">
        <ele>2249.3</ele>
        <time>2022-01-19T11:26:30Z</time>
      </trkpt>
      <trkpt lat="44.87248" lon="5.52516">
        <ele>2249.3</ele>
        <time>2022-01-19T11:26:31Z</time>
      </trkpt>
      <trkpt lat="44.87248" lon="5.52516">
        <ele>2249.3</ele>
        <time>2022-01-19T11:26:32Z</time>
      </trkpt>
      <trkpt lat="44.87248" lon="5.52516">
        <ele>2249.7</ele>
        <time>2022-01-19T11:26:33Z</time>
      </trkpt>
      <trkpt lat="44.87247" lon="5.52516">
        <ele>2249.7</ele>
        <time>2022-01-19T11:26:34Z</time>
      </trkpt>
      <trkpt lat="44.87247" lon="5.52516">
        <ele>2249.7</ele>
        <time>2022-01-19T11:26:35Z</time>
      </trkpt>
      <trkpt lat="44.87247" lon="5.52516">
        <ele>2249.7</ele>
        <time>2022-01-19T11:26:36Z</time>
      </trkpt>
      <trkpt lat="44.87246" lon="5.52515">
        <ele>2249.7</ele>
        <time>2022-01-19T11:26:37Z</time>
      </trkpt>
      <trkpt lat="44.87246" lon="5.52515">
        <ele>2249.7</ele>
        <time>2022-01-19T11:26:38Z</time>
      </trkpt>
      <trkpt lat="44.87246" lon="5.52515">
        <ele>2249.7</ele>
        <time>2022-01-19T11:26:39Z</time>
      </trkpt>
      <trkpt lat="44.87245" lon="5.52515">
        <ele>2249.7</ele>
        <time>2022-01-19T11:26:40Z</time>
      </trkpt>
      <trkpt lat="44.87245" lon="5.52515">
        <ele>2250.1</ele>
        <time>2022-01-19T11:26:41Z</time>
      </trkpt>
      <trkpt lat="44.87244" lon="5.52516">
        <ele>2250.1</ele>
        <time>2022-01-19T11:26:42Z</time>
      </trkpt>
      <trkpt lat="44.87244" lon="5.52516">
        <ele>2250.1</ele>
        <time>2022-01-19T11:26:43Z</time>
      </trkpt>
      <trkpt lat="44.87243" lon="5.52516">
        <ele>2250.1</ele>
        <time>2022-01-19T11:26:44Z</time>
      </trkpt>
      <trkpt lat="44.87243" lon="5.52516">
        <ele>2250.1</ele>
        <time>2022-01-19T11:26:45Z</time>
      </trkpt>
      <trkpt lat="44.87242" lon="5.52516">
        <ele>2250.1</ele>
        <time>2022-01-19T11:26:46Z</time>
      </trkpt>
      <trkpt lat="44.87241" lon="5.52516">
        <ele>2250.4</ele>
        <time>2022-01-19T11:26:47Z</time>
      </trkpt>
      <trkpt lat="44.87241" lon="5.52517">
        <ele>2250.4</ele>
        <time>2022-01-19T11:26:48Z</time>
      </trkpt>
      <trkpt lat="44.8724" lon="5.52517">
        <ele>2250.4</ele>
        <time>2022-01-19T11:26:49Z</time>
      </trkpt>
      <trkpt lat="44.8724" lon="5.52517">
        <ele>2250.4</ele>
        <time>2022-01-19T11:26:50Z</time>
      </trkpt>
      <trkpt lat="44.87239" lon="5.52517">
        <ele>2250.4</ele>
        <time>2022-01-19T11:26:51Z</time>
      </trkpt>
      <trkpt lat="44.87239" lon="5.52518">
        <ele>2250.4</ele>
        <time>2022-01-19T11:26:52Z</time>
      </trkpt>
      <trkpt lat="44.87238" lon="5.52518">
        <ele>2250.8</ele>
        <time>2022-01-19T11:26:53Z</time>
      </trkpt>
      <trkpt lat="44.87238" lon="5.52518">
        <ele>2252.2</ele>
        <time>2022-01-19T11:26:54Z</time>
      </trkpt>
      <trkpt lat="44.87237" lon="5.52518">
        <ele>2250.8</ele>
        <time>2022-01-19T11:26:55Z</time>
      </trkpt>
      <trkpt lat="44.87237" lon="5.52518">
        <ele>2250.8</ele>
        <time>2022-01-19T11:26:56Z</time>
      </trkpt>
      <trkpt lat="44.87237" lon="5.52518">
        <ele>2250.8</ele>
        <time>2022-01-19T11:26:57Z</time>
      </trkpt>
      <trkpt lat="44.87237" lon="5.52517">
        <ele>2250.8</ele>
        <time>2022-01-19T11:26:58Z</time>
      </trkpt>
      <trkpt lat="44.87237" lon="5.52517">
        <ele>2250.8</ele>
        <time>2022-01-19T11:26:59Z</time>
      </trkpt>
      <trkpt lat="44.87237" lon="5.52517">
        <ele>2250.8</ele>
        <time>2022-01-19T11:27:00Z</time>
      </trkpt>
      <trkpt lat="44.87237" lon="5.52517">
        <ele>2250.8</ele>
        <time>2022-01-19T11:27:01Z</time>
      </trkpt>
      <trkpt lat="44.87237" lon="5.52517">
        <ele>2250.8</ele>
        <time>2022-01-19T11:27:02Z</time>
      </trkpt>
      <trkpt lat="44.87237" lon="5.52517">
        <ele>2250.8</ele>
        <time>2022-01-19T11:27:03Z</time>
      </trkpt>
      <trkpt lat="44.87237" lon="5.52517">
        <ele>2250.8</ele>
        <time>2022-01-19T11:27:04Z</time>
      </trkpt>
      <trkpt lat="44.87237" lon="5.52517">
        <ele>2250.8</ele>
        <time>2022-01-19T11:27:05Z</time>
      </trkpt>
      <trkpt lat="44.87237" lon="5.52517">
        <ele>2250.8</ele>
        <time>2022-01-19T11:27:06Z</time>
      </trkpt>
      <trkpt lat="44.87237" lon="5.52517">
        <ele>2250.8</ele>
        <time>2022-01-19T11:27:07Z</time>
      </trkpt>
      <trkpt lat="44.87237" lon="5.52517">
        <ele>2250.8</ele>
        <time>2022-01-19T11:27:08Z</time>
      </trkpt>
      <trkpt lat="44.87234" lon="5.52519">
        <ele>2252.6</ele>
        <time>2022-01-19T11:27:09Z</time>
      </trkpt>
      <trkpt lat="44.87233" lon="5.52519">
        <ele>2252.6</ele>
        <time>2022-01-19T11:27:10Z</time>
      </trkpt>
      <trkpt lat="44.87233" lon="5.52519">
        <ele>2252.6</ele>
        <time>2022-01-19T11:27:11Z</time>
      </trkpt>
      <trkpt lat="44.87233" lon="5.5252">
        <ele>2252.6</ele>
        <time>2022-01-19T11:27:12Z</time>
      </trkpt>
      <trkpt lat="44.87232" lon="5.5252">
        <ele>2253</ele>
        <time>2022-01-19T11:27:13Z</time>
      </trkpt>
      <trkpt lat="44.87232" lon="5.5252">
        <ele>2253</ele>
        <time>2022-01-19T11:27:14Z</time>
      </trkpt>
      <trkpt lat="44.87232" lon="5.5252">
        <ele>2253</ele>
        <time>2022-01-19T11:27:15Z</time>
      </trkpt>
      <trkpt lat="44.87232" lon="5.5252">
        <ele>2253</ele>
        <time>2022-01-19T11:27:16Z</time>
      </trkpt>
      <trkpt lat="44.87232" lon="5.5252">
        <ele>2253</ele>
        <time>2022-01-19T11:27:17Z</time>
      </trkpt>
      <trkpt lat="44.87232" lon="5.5252">
        <ele>2253</ele>
        <time>2022-01-19T11:27:18Z</time>
      </trkpt>
      <trkpt lat="44.87232" lon="5.5252">
        <ele>2253.1</ele>
        <time>2022-01-19T11:27:19Z</time>
      </trkpt>
      <trkpt lat="44.87232" lon="5.5252">
        <ele>2253.1</ele>
        <time>2022-01-19T11:27:20Z</time>
      </trkpt>
      <trkpt lat="44.87232" lon="5.5252">
        <ele>2253.1</ele>
        <time>2022-01-19T11:27:21Z</time>
      </trkpt>
      <trkpt lat="44.87232" lon="5.5252">
        <ele>2253.1</ele>
        <time>2022-01-19T11:27:22Z</time>
      </trkpt>
      <trkpt lat="44.87232" lon="5.5252">
        <ele>2253.1</ele>
        <time>2022-01-19T11:27:23Z</time>
      </trkpt>
      <trkpt lat="44.87228" lon="5.52521">
        <ele>2253.5</ele>
        <time>2022-01-19T11:27:24Z</time>
      </trkpt>
      <trkpt lat="44.87228" lon="5.52521">
        <ele>2253.6</ele>
        <time>2022-01-19T11:27:25Z</time>
      </trkpt>
      <trkpt lat="44.87227" lon="5.52521">
        <ele>2253.6</ele>
        <time>2022-01-19T11:27:26Z</time>
      </trkpt>
      <trkpt lat="44.87227" lon="5.52521">
        <ele>2253.6</ele>
        <time>2022-01-19T11:27:27Z</time>
      </trkpt>
      <trkpt lat="44.87227" lon="5.52521">
        <ele>2253.6</ele>
        <time>2022-01-19T11:27:28Z</time>
      </trkpt>
      <trkpt lat="44.87227" lon="5.52521">
        <ele>2253.6</ele>
        <time>2022-01-19T11:27:29Z</time>
      </trkpt>
      <trkpt lat="44.87227" lon="5.52521">
        <ele>2253.7</ele>
        <time>2022-01-19T11:27:30Z</time>
      </trkpt>
      <trkpt lat="44.87227" lon="5.52521">
        <ele>2253.7</ele>
        <time>2022-01-19T11:27:31Z</time>
      </trkpt>
      <trkpt lat="44.87226" lon="5.52522">
        <ele>2255.3</ele>
        <time>2022-01-19T11:27:32Z</time>
      </trkpt>
      <trkpt lat="44.87225" lon="5.52522">
        <ele>2255.3</ele>
        <time>2022-01-19T11:27:33Z</time>
      </trkpt>
      <trkpt lat="44.87225" lon="5.52522">
        <ele>2254.2</ele>
        <time>2022-01-19T11:27:34Z</time>
      </trkpt>
      <trkpt lat="44.87225" lon="5.52522">
        <ele>2255.3</ele>
        <time>2022-01-19T11:27:35Z</time>
      </trkpt>
      <trkpt lat="44.87225" lon="5.52522">
        <ele>2255.3</ele>
        <time>2022-01-19T11:27:36Z</time>
      </trkpt>
      <trkpt lat="44.87225" lon="5.52522">
        <ele>2255.3</ele>
        <time>2022-01-19T11:27:37Z</time>
      </trkpt>
      <trkpt lat="44.87225" lon="5.52522">
        <ele>2255.3</ele>
        <time>2022-01-19T11:27:38Z</time>
      </trkpt>
      <trkpt lat="44.87225" lon="5.52522">
        <ele>2255.3</ele>
        <time>2022-01-19T11:27:39Z</time>
      </trkpt>
      <trkpt lat="44.87225" lon="5.52522">
        <ele>2255.3</ele>
        <time>2022-01-19T11:27:40Z</time>
      </trkpt>
      <trkpt lat="44.87225" lon="5.52522">
        <ele>2255.3</ele>
        <time>2022-01-19T11:27:41Z</time>
      </trkpt>
      <trkpt lat="44.87225" lon="5.52522">
        <ele>2255.3</ele>
        <time>2022-01-19T11:27:42Z</time>
      </trkpt>
      <trkpt lat="44.87225" lon="5.52522">
        <ele>2255.3</ele>
        <time>2022-01-19T11:27:43Z</time>
      </trkpt>
      <trkpt lat="44.87223" lon="5.52524">
        <ele>2255.9</ele>
        <time>2022-01-19T11:27:44Z</time>
      </trkpt>
      <trkpt lat="44.87222" lon="5.52524">
        <ele>2255.9</ele>
        <time>2022-01-19T11:27:45Z</time>
      </trkpt>
      <trkpt lat="44.87221" lon="5.52524">
        <ele>2256</ele>
        <time>2022-01-19T11:27:46Z</time>
      </trkpt>
      <trkpt lat="44.87221" lon="5.52524">
        <ele>2256</ele>
        <time>2022-01-19T11:27:47Z</time>
      </trkpt>
      <trkpt lat="44.8722" lon="5.52524">
        <ele>2256</ele>
        <time>2022-01-19T11:27:48Z</time>
      </trkpt>
      <trkpt lat="44.8722" lon="5.52525">
        <ele>2256.4</ele>
        <time>2022-01-19T11:27:49Z</time>
      </trkpt>
      <trkpt lat="44.87219" lon="5.52525">
        <ele>2256.5</ele>
        <time>2022-01-19T11:27:50Z</time>
      </trkpt>
      <trkpt lat="44.87219" lon="5.52525">
        <ele>2256.5</ele>
        <time>2022-01-19T11:27:51Z</time>
      </trkpt>
      <trkpt lat="44.87219" lon="5.52525">
        <ele>2256.6</ele>
        <time>2022-01-19T11:27:52Z</time>
      </trkpt>
      <trkpt lat="44.87218" lon="5.52525">
        <ele>2256.6</ele>
        <time>2022-01-19T11:27:53Z</time>
      </trkpt>
      <trkpt lat="44.87218" lon="5.52525">
        <ele>2256.6</ele>
        <time>2022-01-19T11:27:54Z</time>
      </trkpt>
      <trkpt lat="44.87218" lon="5.52525">
        <ele>2256.6</ele>
        <time>2022-01-19T11:27:55Z</time>
      </trkpt>
      <trkpt lat="44.87218" lon="5.52525">
        <ele>2256.6</ele>
        <time>2022-01-19T11:27:56Z</time>
      </trkpt>
      <trkpt lat="44.87218" lon="5.52525">
        <ele>2256.7</ele>
        <time>2022-01-19T11:27:57Z</time>
      </trkpt>
      <trkpt lat="44.87218" lon="5.52525">
        <ele>2256.7</ele>
        <time>2022-01-19T11:27:58Z</time>
      </trkpt>
      <trkpt lat="44.87218" lon="5.52525">
        <ele>2256.7</ele>
        <time>2022-01-19T11:27:59Z</time>
      </trkpt>
      <trkpt lat="44.87218" lon="5.52525">
        <ele>2256.7</ele>
        <time>2022-01-19T11:28:00Z</time>
      </trkpt>
      <trkpt lat="44.87218" lon="5.52525">
        <ele>2256.7</ele>
        <time>2022-01-19T11:28:01Z</time>
      </trkpt>
      <trkpt lat="44.87218" lon="5.52525">
        <ele>2256.7</ele>
        <time>2022-01-19T11:28:02Z</time>
      </trkpt>
      <trkpt lat="44.87216" lon="5.52525">
        <ele>2257.2</ele>
        <time>2022-01-19T11:28:03Z</time>
      </trkpt>
      <trkpt lat="44.87215" lon="5.52525">
        <ele>2257.3</ele>
        <time>2022-01-19T11:28:04Z</time>
      </trkpt>
      <trkpt lat="44.87215" lon="5.52525">
        <ele>2257.3</ele>
        <time>2022-01-19T11:28:05Z</time>
      </trkpt>
      <trkpt lat="44.87215" lon="5.52526">
        <ele>2257.3</ele>
        <time>2022-01-19T11:28:06Z</time>
      </trkpt>
      <trkpt lat="44.87215" lon="5.52526">
        <ele>2257.4</ele>
        <time>2022-01-19T11:28:07Z</time>
      </trkpt>
      <trkpt lat="44.87215" lon="5.52526">
        <ele>2257.4</ele>
        <time>2022-01-19T11:28:08Z</time>
      </trkpt>
      <trkpt lat="44.87214" lon="5.52526">
        <ele>2257.7</ele>
        <time>2022-01-19T11:28:09Z</time>
      </trkpt>
      <trkpt lat="44.87214" lon="5.52526">
        <ele>2257.8</ele>
        <time>2022-01-19T11:28:10Z</time>
      </trkpt>
      <trkpt lat="44.87213" lon="5.52525">
        <ele>2257.8</ele>
        <time>2022-01-19T11:28:11Z</time>
      </trkpt>
      <trkpt lat="44.87213" lon="5.52525">
        <ele>2257.9</ele>
        <time>2022-01-19T11:28:12Z</time>
      </trkpt>
      <trkpt lat="44.87212" lon="5.52525">
        <ele>2258</ele>
        <time>2022-01-19T11:28:13Z</time>
      </trkpt>
      <trkpt lat="44.87212" lon="5.52525">
        <ele>2258</ele>
        <time>2022-01-19T11:28:14Z</time>
      </trkpt>
      <trkpt lat="44.87212" lon="5.52525">
        <ele>2258.1</ele>
        <time>2022-01-19T11:28:15Z</time>
      </trkpt>
      <trkpt lat="44.87211" lon="5.52526">
        <ele>2258.4</ele>
        <time>2022-01-19T11:28:16Z</time>
      </trkpt>
      <trkpt lat="44.8721" lon="5.52525">
        <ele>2258.5</ele>
        <time>2022-01-19T11:28:17Z</time>
      </trkpt>
      <trkpt lat="44.87209" lon="5.52526">
        <ele>2258.6</ele>
        <time>2022-01-19T11:28:18Z</time>
      </trkpt>
      <trkpt lat="44.87209" lon="5.52526">
        <ele>2258.7</ele>
        <time>2022-01-19T11:28:19Z</time>
      </trkpt>
      <trkpt lat="44.87208" lon="5.52526">
        <ele>2259</ele>
        <time>2022-01-19T11:28:20Z</time>
      </trkpt>
      <trkpt lat="44.87207" lon="5.52526">
        <ele>2259.2</ele>
        <time>2022-01-19T11:28:21Z</time>
      </trkpt>
      <trkpt lat="44.87207" lon="5.52526">
        <ele>2259.3</ele>
        <time>2022-01-19T11:28:22Z</time>
      </trkpt>
      <trkpt lat="44.87206" lon="5.52526">
        <ele>2259.4</ele>
        <time>2022-01-19T11:28:23Z</time>
      </trkpt>
      <trkpt lat="44.87205" lon="5.52526">
        <ele>2259.5</ele>
        <time>2022-01-19T11:28:24Z</time>
      </trkpt>
      <trkpt lat="44.87205" lon="5.52526">
        <ele>2259.7</ele>
        <time>2022-01-19T11:28:25Z</time>
      </trkpt>
      <trkpt lat="44.87204" lon="5.52526">
        <ele>2259.9</ele>
        <time>2022-01-19T11:28:26Z</time>
      </trkpt>
      <trkpt lat="44.87204" lon="5.52526">
        <ele>2259.9</ele>
        <time>2022-01-19T11:28:27Z</time>
      </trkpt>
      <trkpt lat="44.87204" lon="5.52525">
        <ele>2260</ele>
        <time>2022-01-19T11:28:28Z</time>
      </trkpt>
      <trkpt lat="44.87203" lon="5.52525">
        <ele>2260.1</ele>
        <time>2022-01-19T11:28:29Z</time>
      </trkpt>
      <trkpt lat="44.87203" lon="5.52525">
        <ele>2260.2</ele>
        <time>2022-01-19T11:28:30Z</time>
      </trkpt>
      <trkpt lat="44.87203" lon="5.52525">
        <ele>2260.3</ele>
        <time>2022-01-19T11:28:31Z</time>
      </trkpt>
      <trkpt lat="44.87203" lon="5.52525">
        <ele>2260.3</ele>
        <time>2022-01-19T11:28:32Z</time>
      </trkpt>
      <trkpt lat="44.87203" lon="5.52525">
        <ele>2260.3</ele>
        <time>2022-01-19T11:28:33Z</time>
      </trkpt>
      <trkpt lat="44.87203" lon="5.52525">
        <ele>2260.3</ele>
        <time>2022-01-19T11:28:34Z</time>
      </trkpt>
      <trkpt lat="44.87203" lon="5.52525">
        <ele>2260.4</ele>
        <time>2022-01-19T11:28:35Z</time>
      </trkpt>
      <trkpt lat="44.87203" lon="5.52525">
        <ele>2260.4</ele>
        <time>2022-01-19T11:28:36Z</time>
      </trkpt>
      <trkpt lat="44.87203" lon="5.52525">
        <ele>2260.4</ele>
        <time>2022-01-19T11:28:37Z</time>
      </trkpt>
      <trkpt lat="44.87203" lon="5.52525">
        <ele>2260.4</ele>
        <time>2022-01-19T11:28:38Z</time>
      </trkpt>
      <trkpt lat="44.87203" lon="5.52525">
        <ele>2260.4</ele>
        <time>2022-01-19T11:28:39Z</time>
      </trkpt>
      <trkpt lat="44.87201" lon="5.52526">
        <ele>2260.8</ele>
        <time>2022-01-19T11:28:40Z</time>
      </trkpt>
      <trkpt lat="44.87201" lon="5.52525">
        <ele>2261</ele>
        <time>2022-01-19T11:28:41Z</time>
      </trkpt>
      <trkpt lat="44.872" lon="5.52525">
        <ele>2261</ele>
        <time>2022-01-19T11:28:42Z</time>
      </trkpt>
      <trkpt lat="44.872" lon="5.52525">
        <ele>2261.1</ele>
        <time>2022-01-19T11:28:43Z</time>
      </trkpt>
      <trkpt lat="44.87199" lon="5.52525">
        <ele>2261.2</ele>
        <time>2022-01-19T11:28:44Z</time>
      </trkpt>
      <trkpt lat="44.87199" lon="5.52525">
        <ele>2261.4</ele>
        <time>2022-01-19T11:28:45Z</time>
      </trkpt>
      <trkpt lat="44.87198" lon="5.52525">
        <ele>2261.6</ele>
        <time>2022-01-19T11:28:46Z</time>
      </trkpt>
      <trkpt lat="44.87198" lon="5.52525">
        <ele>2261.8</ele>
        <time>2022-01-19T11:28:47Z</time>
      </trkpt>
      <trkpt lat="44.87197" lon="5.52524">
        <ele>2261.9</ele>
        <time>2022-01-19T11:28:48Z</time>
      </trkpt>
      <trkpt lat="44.87196" lon="5.52524">
        <ele>2262.1</ele>
        <time>2022-01-19T11:28:49Z</time>
      </trkpt>
      <trkpt lat="44.87196" lon="5.52525">
        <ele>2262.2</ele>
        <time>2022-01-19T11:28:50Z</time>
      </trkpt>
      <trkpt lat="44.87195" lon="5.52524">
        <ele>2262.5</ele>
        <time>2022-01-19T11:28:51Z</time>
      </trkpt>
      <trkpt lat="44.87194" lon="5.52524">
        <ele>2262.7</ele>
        <time>2022-01-19T11:28:52Z</time>
      </trkpt>
      <trkpt lat="44.87193" lon="5.52524">
        <ele>2262.8</ele>
        <time>2022-01-19T11:28:53Z</time>
      </trkpt>
      <trkpt lat="44.87192" lon="5.52524">
        <ele>2263.1</ele>
        <time>2022-01-19T11:28:54Z</time>
      </trkpt>
      <trkpt lat="44.87191" lon="5.52524">
        <ele>2263.3</ele>
        <time>2022-01-19T11:28:55Z</time>
      </trkpt>
      <trkpt lat="44.87191" lon="5.52524">
        <ele>2263.4</ele>
        <time>2022-01-19T11:28:56Z</time>
      </trkpt>
      <trkpt lat="44.87191" lon="5.52524">
        <ele>2263.5</ele>
        <time>2022-01-19T11:28:57Z</time>
      </trkpt>
      <trkpt lat="44.8719" lon="5.52526">
        <ele>2263.8</ele>
        <time>2022-01-19T11:28:58Z</time>
      </trkpt>
      <trkpt lat="44.87188" lon="5.52527">
        <ele>2264.1</ele>
        <time>2022-01-19T11:28:59Z</time>
      </trkpt>
      <trkpt lat="44.87188" lon="5.52527">
        <ele>2264.2</ele>
        <time>2022-01-19T11:29:00Z</time>
      </trkpt>
      <trkpt lat="44.87188" lon="5.52528">
        <ele>2264.2</ele>
        <time>2022-01-19T11:29:01Z</time>
      </trkpt>
      <trkpt lat="44.87189" lon="5.52528">
        <ele>2264.3</ele>
        <time>2022-01-19T11:29:02Z</time>
      </trkpt>
      <trkpt lat="44.87189" lon="5.52528">
        <ele>2264.3</ele>
        <time>2022-01-19T11:29:03Z</time>
      </trkpt>
      <trkpt lat="44.87189" lon="5.52528">
        <ele>2264.3</ele>
        <time>2022-01-19T11:29:04Z</time>
      </trkpt>
      <trkpt lat="44.87189" lon="5.52528">
        <ele>2264.3</ele>
        <time>2022-01-19T11:29:05Z</time>
      </trkpt>
      <trkpt lat="44.87189" lon="5.52528">
        <ele>2264.3</ele>
        <time>2022-01-19T11:29:06Z</time>
      </trkpt>
      <trkpt lat="44.87189" lon="5.52528">
        <ele>2264.3</ele>
        <time>2022-01-19T11:29:07Z</time>
      </trkpt>
      <trkpt lat="44.87189" lon="5.52528">
        <ele>2264.3</ele>
        <time>2022-01-19T11:29:08Z</time>
      </trkpt>
      <trkpt lat="44.87189" lon="5.52528">
        <ele>2264.3</ele>
        <time>2022-01-19T11:29:09Z</time>
      </trkpt>
      <trkpt lat="44.87189" lon="5.52528">
        <ele>2264.3</ele>
        <time>2022-01-19T11:29:10Z</time>
      </trkpt>
      <trkpt lat="44.87189" lon="5.52528">
        <ele>2264.3</ele>
        <time>2022-01-19T11:29:11Z</time>
      </trkpt>
      <trkpt lat="44.87189" lon="5.52528">
        <ele>2264.3</ele>
        <time>2022-01-19T11:29:12Z</time>
      </trkpt>
      <trkpt lat="44.87189" lon="5.52528">
        <ele>2264.3</ele>
        <time>2022-01-19T11:29:13Z</time>
      </trkpt>
      <trkpt lat="44.87189" lon="5.52528">
        <ele>2264.3</ele>
        <time>2022-01-19T11:29:14Z</time>
      </trkpt>
      <trkpt lat="44.87189" lon="5.52528">
        <ele>2264.3</ele>
        <time>2022-01-19T11:29:15Z</time>
      </trkpt>
      <trkpt lat="44.87189" lon="5.52528">
        <ele>2264.3</ele>
        <time>2022-01-19T11:29:16Z</time>
      </trkpt>
      <trkpt lat="44.87189" lon="5.52528">
        <ele>2264.3</ele>
        <time>2022-01-19T11:29:17Z</time>
      </trkpt>
      <trkpt lat="44.87189" lon="5.52528">
        <ele>2264.3</ele>
        <time>2022-01-19T11:29:18Z</time>
      </trkpt>
      <trkpt lat="44.87189" lon="5.52528">
        <ele>2264.3</ele>
        <time>2022-01-19T11:29:19Z</time>
      </trkpt>
      <trkpt lat="44.87189" lon="5.52528">
        <ele>2264.3</ele>
        <time>2022-01-19T11:29:20Z</time>
      </trkpt>
      <trkpt lat="44.87189" lon="5.52528">
        <ele>2264.3</ele>
        <time>2022-01-19T11:29:21Z</time>
      </trkpt>
      <trkpt lat="44.87189" lon="5.52528">
        <ele>2264.3</ele>
        <time>2022-01-19T11:29:22Z</time>
      </trkpt>
      <trkpt lat="44.87189" lon="5.52528">
        <ele>2264.3</ele>
        <time>2022-01-19T11:29:23Z</time>
      </trkpt>
      <trkpt lat="44.87189" lon="5.52528">
        <ele>2264.3</ele>
        <time>2022-01-19T11:29:24Z</time>
      </trkpt>
      <trkpt lat="44.87189" lon="5.52528">
        <ele>2264.3</ele>
        <time>2022-01-19T11:29:25Z</time>
      </trkpt>
      <trkpt lat="44.87189" lon="5.52528">
        <ele>2264.3</ele>
        <time>2022-01-19T11:29:26Z</time>
      </trkpt>
      <trkpt lat="44.87189" lon="5.52528">
        <ele>2264.3</ele>
        <time>2022-01-19T11:29:27Z</time>
      </trkpt>
      <trkpt lat="44.87189" lon="5.52528">
        <ele>2264.3</ele>
        <time>2022-01-19T11:29:28Z</time>
      </trkpt>
      <trkpt lat="44.87189" lon="5.52528">
        <ele>2264.3</ele>
        <time>2022-01-19T11:29:29Z</time>
      </trkpt>
      <trkpt lat="44.87189" lon="5.52528">
        <ele>2264.3</ele>
        <time>2022-01-19T11:29:30Z</time>
      </trkpt>
      <trkpt lat="44.87189" lon="5.52528">
        <ele>2264.3</ele>
        <time>2022-01-19T11:29:31Z</time>
      </trkpt>
      <trkpt lat="44.87189" lon="5.52528">
        <ele>2264.3</ele>
        <time>2022-01-19T11:29:32Z</time>
      </trkpt>
      <trkpt lat="44.87189" lon="5.52528">
        <ele>2264.3</ele>
        <time>2022-01-19T11:29:33Z</time>
      </trkpt>
      <trkpt lat="44.87188" lon="5.52529">
        <ele>2264.6</ele>
        <time>2022-01-19T11:29:34Z</time>
      </trkpt>
      <trkpt lat="44.87187" lon="5.52529">
        <ele>2264.8</ele>
        <time>2022-01-19T11:29:35Z</time>
      </trkpt>
      <trkpt lat="44.87186" lon="5.52529">
        <ele>2264.9</ele>
        <time>2022-01-19T11:29:36Z</time>
      </trkpt>
      <trkpt lat="44.87186" lon="5.52529">
        <ele>2265</ele>
        <time>2022-01-19T11:29:37Z</time>
      </trkpt>
      <trkpt lat="44.87185" lon="5.52529">
        <ele>2265.2</ele>
        <time>2022-01-19T11:29:38Z</time>
      </trkpt>
      <trkpt lat="44.87184" lon="5.52528">
        <ele>2265.4</ele>
        <time>2022-01-19T11:29:39Z</time>
      </trkpt>
      <trkpt lat="44.87183" lon="5.52527">
        <ele>2265.6</ele>
        <time>2022-01-19T11:29:40Z</time>
      </trkpt>
      <trkpt lat="44.87182" lon="5.52527">
        <ele>2265.8</ele>
        <time>2022-01-19T11:29:41Z</time>
      </trkpt>
      <trkpt lat="44.87182" lon="5.52527">
        <ele>2266</ele>
        <time>2022-01-19T11:29:42Z</time>
      </trkpt>
      <trkpt lat="44.8718" lon="5.52527">
        <ele>2266.2</ele>
        <time>2022-01-19T11:29:43Z</time>
      </trkpt>
      <trkpt lat="44.8718" lon="5.52527">
        <ele>2266.4</ele>
        <time>2022-01-19T11:29:44Z</time>
      </trkpt>
      <trkpt lat="44.87179" lon="5.52527">
        <ele>2266.5</ele>
        <time>2022-01-19T11:29:45Z</time>
      </trkpt>
      <trkpt lat="44.87178" lon="5.52527">
        <ele>2266.7</ele>
        <time>2022-01-19T11:29:46Z</time>
      </trkpt>
      <trkpt lat="44.87177" lon="5.52527">
        <ele>2266.9</ele>
        <time>2022-01-19T11:29:47Z</time>
      </trkpt>
      <trkpt lat="44.87177" lon="5.52527">
        <ele>2267.1</ele>
        <time>2022-01-19T11:29:48Z</time>
      </trkpt>
      <trkpt lat="44.87175" lon="5.52527">
        <ele>2267.4</ele>
        <time>2022-01-19T11:29:49Z</time>
      </trkpt>
      <trkpt lat="44.87175" lon="5.52527">
        <ele>2267.5</ele>
        <time>2022-01-19T11:29:50Z</time>
      </trkpt>
      <trkpt lat="44.87174" lon="5.52527">
        <ele>2267.6</ele>
        <time>2022-01-19T11:29:51Z</time>
      </trkpt>
      <trkpt lat="44.87174" lon="5.52527">
        <ele>2267.7</ele>
        <time>2022-01-19T11:29:52Z</time>
      </trkpt>
      <trkpt lat="44.87173" lon="5.52527">
        <ele>2267.9</ele>
        <time>2022-01-19T11:29:53Z</time>
      </trkpt>
      <trkpt lat="44.87172" lon="5.52527">
        <ele>2268.1</ele>
        <time>2022-01-19T11:29:54Z</time>
      </trkpt>
      <trkpt lat="44.87171" lon="5.52526">
        <ele>2268.3</ele>
        <time>2022-01-19T11:29:55Z</time>
      </trkpt>
      <trkpt lat="44.87171" lon="5.52526">
        <ele>2268.3</ele>
        <time>2022-01-19T11:29:56Z</time>
      </trkpt>
      <trkpt lat="44.8717" lon="5.52526">
        <ele>2268.5</ele>
        <time>2022-01-19T11:29:57Z</time>
      </trkpt>
      <trkpt lat="44.87169" lon="5.52526">
        <ele>2268.7</ele>
        <time>2022-01-19T11:29:58Z</time>
      </trkpt>
      <trkpt lat="44.87169" lon="5.52526">
        <ele>2268.8</ele>
        <time>2022-01-19T11:29:59Z</time>
      </trkpt>
      <trkpt lat="44.87168" lon="5.52526">
        <ele>2268.9</ele>
        <time>2022-01-19T11:30:00Z</time>
      </trkpt>
      <trkpt lat="44.87167" lon="5.52527">
        <ele>2269.1</ele>
        <time>2022-01-19T11:30:01Z</time>
      </trkpt>
      <trkpt lat="44.87167" lon="5.52527">
        <ele>2269.2</ele>
        <time>2022-01-19T11:30:02Z</time>
      </trkpt>
      <trkpt lat="44.87166" lon="5.52527">
        <ele>2269.3</ele>
        <time>2022-01-19T11:30:03Z</time>
      </trkpt>
      <trkpt lat="44.87166" lon="5.52526">
        <ele>2269.4</ele>
        <time>2022-01-19T11:30:04Z</time>
      </trkpt>
      <trkpt lat="44.87166" lon="5.52526">
        <ele>2269.5</ele>
        <time>2022-01-19T11:30:05Z</time>
      </trkpt>
      <trkpt lat="44.87165" lon="5.52526">
        <ele>2269.7</ele>
        <time>2022-01-19T11:30:06Z</time>
      </trkpt>
      <trkpt lat="44.87164" lon="5.52526">
        <ele>2269.8</ele>
        <time>2022-01-19T11:30:07Z</time>
      </trkpt>
      <trkpt lat="44.87164" lon="5.52527">
        <ele>2270</ele>
        <time>2022-01-19T11:30:08Z</time>
      </trkpt>
      <trkpt lat="44.87163" lon="5.52527">
        <ele>2270.1</ele>
        <time>2022-01-19T11:30:09Z</time>
      </trkpt>
      <trkpt lat="44.87163" lon="5.52528">
        <ele>2270.3</ele>
        <time>2022-01-19T11:30:10Z</time>
      </trkpt>
      <trkpt lat="44.87162" lon="5.52528">
        <ele>2270.4</ele>
        <time>2022-01-19T11:30:11Z</time>
      </trkpt>
      <trkpt lat="44.87162" lon="5.52528">
        <ele>2270.5</ele>
        <time>2022-01-19T11:30:12Z</time>
      </trkpt>
      <trkpt lat="44.87161" lon="5.52529">
        <ele>2270.7</ele>
        <time>2022-01-19T11:30:13Z</time>
      </trkpt>
      <trkpt lat="44.8716" lon="5.52529">
        <ele>2270.9</ele>
        <time>2022-01-19T11:30:14Z</time>
      </trkpt>
      <trkpt lat="44.87159" lon="5.5253">
        <ele>2271</ele>
        <time>2022-01-19T11:30:15Z</time>
      </trkpt>
      <trkpt lat="44.87159" lon="5.5253">
        <ele>2271.1</ele>
        <time>2022-01-19T11:30:16Z</time>
      </trkpt>
      <trkpt lat="44.87159" lon="5.5253">
        <ele>2271.3</ele>
        <time>2022-01-19T11:30:17Z</time>
      </trkpt>
      <trkpt lat="44.87158" lon="5.52531">
        <ele>2271.5</ele>
        <time>2022-01-19T11:30:18Z</time>
      </trkpt>
      <trkpt lat="44.87157" lon="5.52531">
        <ele>2271.7</ele>
        <time>2022-01-19T11:30:19Z</time>
      </trkpt>
      <trkpt lat="44.87157" lon="5.52531">
        <ele>2271.7</ele>
        <time>2022-01-19T11:30:20Z</time>
      </trkpt>
      <trkpt lat="44.87156" lon="5.52531">
        <ele>2271.9</ele>
        <time>2022-01-19T11:30:21Z</time>
      </trkpt>
      <trkpt lat="44.87155" lon="5.52531">
        <ele>2272.1</ele>
        <time>2022-01-19T11:30:22Z</time>
      </trkpt>
      <trkpt lat="44.87154" lon="5.52531">
        <ele>2272.3</ele>
        <time>2022-01-19T11:30:23Z</time>
      </trkpt>
      <trkpt lat="44.87154" lon="5.52532">
        <ele>2272.4</ele>
        <time>2022-01-19T11:30:24Z</time>
      </trkpt>
      <trkpt lat="44.87153" lon="5.52532">
        <ele>2272.7</ele>
        <time>2022-01-19T11:30:25Z</time>
      </trkpt>
      <trkpt lat="44.87153" lon="5.52533">
        <ele>2272.8</ele>
        <time>2022-01-19T11:30:26Z</time>
      </trkpt>
      <trkpt lat="44.87152" lon="5.52533">
        <ele>2272.9</ele>
        <time>2022-01-19T11:30:27Z</time>
      </trkpt>
      <trkpt lat="44.87151" lon="5.52534">
        <ele>2273.1</ele>
        <time>2022-01-19T11:30:28Z</time>
      </trkpt>
      <trkpt lat="44.87151" lon="5.52534">
        <ele>2273.3</ele>
        <time>2022-01-19T11:30:29Z</time>
      </trkpt>
      <trkpt lat="44.8715" lon="5.52535">
        <ele>2273.4</ele>
        <time>2022-01-19T11:30:30Z</time>
      </trkpt>
      <trkpt lat="44.8715" lon="5.52535">
        <ele>2273.5</ele>
        <time>2022-01-19T11:30:31Z</time>
      </trkpt>
      <trkpt lat="44.8715" lon="5.52536">
        <ele>2273.5</ele>
        <time>2022-01-19T11:30:32Z</time>
      </trkpt>
      <trkpt lat="44.8715" lon="5.52537">
        <ele>2273.7</ele>
        <time>2022-01-19T11:30:33Z</time>
      </trkpt>
      <trkpt lat="44.87149" lon="5.52538">
        <ele>2274</ele>
        <time>2022-01-19T11:30:34Z</time>
      </trkpt>
      <trkpt lat="44.87148" lon="5.52539">
        <ele>2274.2</ele>
        <time>2022-01-19T11:30:35Z</time>
      </trkpt>
      <trkpt lat="44.87148" lon="5.52539">
        <ele>2274.3</ele>
        <time>2022-01-19T11:30:36Z</time>
      </trkpt>
      <trkpt lat="44.87147" lon="5.5254">
        <ele>2274.6</ele>
        <time>2022-01-19T11:30:37Z</time>
      </trkpt>
      <trkpt lat="44.87147" lon="5.5254">
        <ele>2274.7</ele>
        <time>2022-01-19T11:30:38Z</time>
      </trkpt>
      <trkpt lat="44.87147" lon="5.52541">
        <ele>2274.7</ele>
        <time>2022-01-19T11:30:39Z</time>
      </trkpt>
      <trkpt lat="44.87146" lon="5.52541">
        <ele>2274.9</ele>
        <time>2022-01-19T11:30:40Z</time>
      </trkpt>
      <trkpt lat="44.87146" lon="5.52541">
        <ele>2274.9</ele>
        <time>2022-01-19T11:30:41Z</time>
      </trkpt>
      <trkpt lat="44.87146" lon="5.52541">
        <ele>2274.9</ele>
        <time>2022-01-19T11:30:42Z</time>
      </trkpt>
      <trkpt lat="44.87146" lon="5.52541">
        <ele>2274.9</ele>
        <time>2022-01-19T11:30:43Z</time>
      </trkpt>
      <trkpt lat="44.87145" lon="5.52542">
        <ele>2275.2</ele>
        <time>2022-01-19T11:30:44Z</time>
      </trkpt>
      <trkpt lat="44.87144" lon="5.52543">
        <ele>2275.4</ele>
        <time>2022-01-19T11:30:45Z</time>
      </trkpt>
      <trkpt lat="44.87144" lon="5.52543">
        <ele>2275.5</ele>
        <time>2022-01-19T11:30:46Z</time>
      </trkpt>
      <trkpt lat="44.87143" lon="5.52543">
        <ele>2275.6</ele>
        <time>2022-01-19T11:30:47Z</time>
      </trkpt>
      <trkpt lat="44.87143" lon="5.52544">
        <ele>2275.8</ele>
        <time>2022-01-19T11:30:48Z</time>
      </trkpt>
      <trkpt lat="44.87142" lon="5.52544">
        <ele>2275.9</ele>
        <time>2022-01-19T11:30:49Z</time>
      </trkpt>
      <trkpt lat="44.87142" lon="5.52544">
        <ele>2276</ele>
        <time>2022-01-19T11:30:50Z</time>
      </trkpt>
      <trkpt lat="44.87141" lon="5.52545">
        <ele>2276.2</ele>
        <time>2022-01-19T11:30:51Z</time>
      </trkpt>
      <trkpt lat="44.87141" lon="5.52545">
        <ele>2276.3</ele>
        <time>2022-01-19T11:30:52Z</time>
      </trkpt>
      <trkpt lat="44.8714" lon="5.52545">
        <ele>2276.3</ele>
        <time>2022-01-19T11:30:53Z</time>
      </trkpt>
      <trkpt lat="44.8714" lon="5.52546">
        <ele>2276.5</ele>
        <time>2022-01-19T11:30:54Z</time>
      </trkpt>
      <trkpt lat="44.87139" lon="5.52546">
        <ele>2276.6</ele>
        <time>2022-01-19T11:30:55Z</time>
      </trkpt>
      <trkpt lat="44.87139" lon="5.52546">
        <ele>2276.7</ele>
        <time>2022-01-19T11:30:56Z</time>
      </trkpt>
      <trkpt lat="44.87138" lon="5.52547">
        <ele>2276.8</ele>
        <time>2022-01-19T11:30:57Z</time>
      </trkpt>
      <trkpt lat="44.87138" lon="5.52547">
        <ele>2276.9</ele>
        <time>2022-01-19T11:30:58Z</time>
      </trkpt>
      <trkpt lat="44.87137" lon="5.52548">
        <ele>2277</ele>
        <time>2022-01-19T11:30:59Z</time>
      </trkpt>
      <trkpt lat="44.87137" lon="5.52548">
        <ele>2277.1</ele>
        <time>2022-01-19T11:31:00Z</time>
      </trkpt>
      <trkpt lat="44.87136" lon="5.52548">
        <ele>2277.3</ele>
        <time>2022-01-19T11:31:01Z</time>
      </trkpt>
      <trkpt lat="44.87135" lon="5.52548">
        <ele>2277.4</ele>
        <time>2022-01-19T11:31:02Z</time>
      </trkpt>
      <trkpt lat="44.87135" lon="5.52549">
        <ele>2277.5</ele>
        <time>2022-01-19T11:31:03Z</time>
      </trkpt>
      <trkpt lat="44.87135" lon="5.52549">
        <ele>2277.6</ele>
        <time>2022-01-19T11:31:04Z</time>
      </trkpt>
      <trkpt lat="44.87134" lon="5.52549">
        <ele>2277.7</ele>
        <time>2022-01-19T11:31:05Z</time>
      </trkpt>
      <trkpt lat="44.87134" lon="5.5255">
        <ele>2277.8</ele>
        <time>2022-01-19T11:31:06Z</time>
      </trkpt>
      <trkpt lat="44.87133" lon="5.5255">
        <ele>2277.9</ele>
        <time>2022-01-19T11:31:07Z</time>
      </trkpt>
      <trkpt lat="44.87133" lon="5.5255">
        <ele>2277.9</ele>
        <time>2022-01-19T11:31:08Z</time>
      </trkpt>
      <trkpt lat="44.87133" lon="5.5255">
        <ele>2277.9</ele>
        <time>2022-01-19T11:31:09Z</time>
      </trkpt>
      <trkpt lat="44.87133" lon="5.5255">
        <ele>2277.9</ele>
        <time>2022-01-19T11:31:10Z</time>
      </trkpt>
      <trkpt lat="44.87133" lon="5.5255">
        <ele>2277.9</ele>
        <time>2022-01-19T11:31:11Z</time>
      </trkpt>
      <trkpt lat="44.87133" lon="5.5255">
        <ele>2277.9</ele>
        <time>2022-01-19T11:31:12Z</time>
      </trkpt>
      <trkpt lat="44.87133" lon="5.5255">
        <ele>2277.9</ele>
        <time>2022-01-19T11:31:13Z</time>
      </trkpt>
      <trkpt lat="44.87133" lon="5.5255">
        <ele>2277.9</ele>
        <time>2022-01-19T11:31:14Z</time>
      </trkpt>
      <trkpt lat="44.87133" lon="5.52552">
        <ele>2278.1</ele>
        <time>2022-01-19T11:31:15Z</time>
      </trkpt>
      <trkpt lat="44.87133" lon="5.52553">
        <ele>2278.2</ele>
        <time>2022-01-19T11:31:16Z</time>
      </trkpt>
      <trkpt lat="44.87133" lon="5.52554">
        <ele>2278.3</ele>
        <time>2022-01-19T11:31:17Z</time>
      </trkpt>
      <trkpt lat="44.87133" lon="5.52554">
        <ele>2278.4</ele>
        <time>2022-01-19T11:31:18Z</time>
      </trkpt>
      <trkpt lat="44.87133" lon="5.52555">
        <ele>2278.4</ele>
        <time>2022-01-19T11:31:19Z</time>
      </trkpt>
      <trkpt lat="44.87133" lon="5.52555">
        <ele>2278.5</ele>
        <time>2022-01-19T11:31:20Z</time>
      </trkpt>
      <trkpt lat="44.87133" lon="5.52555">
        <ele>2278.5</ele>
        <time>2022-01-19T11:31:21Z</time>
      </trkpt>
      <trkpt lat="44.87133" lon="5.52555">
        <ele>2278.5</ele>
        <time>2022-01-19T11:31:22Z</time>
      </trkpt>
      <trkpt lat="44.87133" lon="5.52555">
        <ele>2278.5</ele>
        <time>2022-01-19T11:31:23Z</time>
      </trkpt>
      <trkpt lat="44.87133" lon="5.52555">
        <ele>2278.5</ele>
        <time>2022-01-19T11:31:24Z</time>
      </trkpt>
      <trkpt lat="44.87133" lon="5.52555">
        <ele>2278.5</ele>
        <time>2022-01-19T11:31:25Z</time>
      </trkpt>
      <trkpt lat="44.87133" lon="5.52555">
        <ele>2278.5</ele>
        <time>2022-01-19T11:31:26Z</time>
      </trkpt>
      <trkpt lat="44.87134" lon="5.52558">
        <ele>2278.9</ele>
        <time>2022-01-19T11:31:27Z</time>
      </trkpt>
      <trkpt lat="44.87134" lon="5.52559">
        <ele>2279</ele>
        <time>2022-01-19T11:31:28Z</time>
      </trkpt>
      <trkpt lat="44.87135" lon="5.5256">
        <ele>2279.1</ele>
        <time>2022-01-19T11:31:29Z</time>
      </trkpt>
      <trkpt lat="44.87135" lon="5.5256">
        <ele>2279.2</ele>
        <time>2022-01-19T11:31:30Z</time>
      </trkpt>
      <trkpt lat="44.87135" lon="5.52561">
        <ele>2279.2</ele>
        <time>2022-01-19T11:31:31Z</time>
      </trkpt>
      <trkpt lat="44.87134" lon="5.52561">
        <ele>2279.3</ele>
        <time>2022-01-19T11:31:32Z</time>
      </trkpt>
      <trkpt lat="44.87134" lon="5.52561">
        <ele>2279.3</ele>
        <time>2022-01-19T11:31:33Z</time>
      </trkpt>
      <trkpt lat="44.87134" lon="5.52561">
        <ele>2279.3</ele>
        <time>2022-01-19T11:31:34Z</time>
      </trkpt>
      <trkpt lat="44.87134" lon="5.52561">
        <ele>2279.3</ele>
        <time>2022-01-19T11:31:35Z</time>
      </trkpt>
      <trkpt lat="44.87134" lon="5.52561">
        <ele>2279.3</ele>
        <time>2022-01-19T11:31:36Z</time>
      </trkpt>
      <trkpt lat="44.87134" lon="5.52561">
        <ele>2279.3</ele>
        <time>2022-01-19T11:31:37Z</time>
      </trkpt>
      <trkpt lat="44.87134" lon="5.52561">
        <ele>2279.3</ele>
        <time>2022-01-19T11:31:38Z</time>
      </trkpt>
      <trkpt lat="44.87134" lon="5.52561">
        <ele>2279.3</ele>
        <time>2022-01-19T11:31:39Z</time>
      </trkpt>
      <trkpt lat="44.87132" lon="5.52562">
        <ele>2279.8</ele>
        <time>2022-01-19T11:31:40Z</time>
      </trkpt>
      <trkpt lat="44.87132" lon="5.52562">
        <ele>2279.8</ele>
        <time>2022-01-19T11:31:41Z</time>
      </trkpt>
      <trkpt lat="44.87131" lon="5.52562">
        <ele>2279.9</ele>
        <time>2022-01-19T11:31:42Z</time>
      </trkpt>
      <trkpt lat="44.8713" lon="5.52562">
        <ele>2280</ele>
        <time>2022-01-19T11:31:43Z</time>
      </trkpt>
      <trkpt lat="44.8713" lon="5.52562">
        <ele>2280.1</ele>
        <time>2022-01-19T11:31:44Z</time>
      </trkpt>
      <trkpt lat="44.87129" lon="5.52563">
        <ele>2280.2</ele>
        <time>2022-01-19T11:31:45Z</time>
      </trkpt>
      <trkpt lat="44.87129" lon="5.52563">
        <ele>2280.3</ele>
        <time>2022-01-19T11:31:46Z</time>
      </trkpt>
      <trkpt lat="44.87129" lon="5.52563">
        <ele>2280.3</ele>
        <time>2022-01-19T11:31:47Z</time>
      </trkpt>
      <trkpt lat="44.87128" lon="5.52563">
        <ele>2280.5</ele>
        <time>2022-01-19T11:31:48Z</time>
      </trkpt>
      <trkpt lat="44.87128" lon="5.52564">
        <ele>2280.5</ele>
        <time>2022-01-19T11:31:49Z</time>
      </trkpt>
      <trkpt lat="44.87127" lon="5.52564">
        <ele>2280.6</ele>
        <time>2022-01-19T11:31:50Z</time>
      </trkpt>
      <trkpt lat="44.87127" lon="5.52564">
        <ele>2280.7</ele>
        <time>2022-01-19T11:31:51Z</time>
      </trkpt>
      <trkpt lat="44.87126" lon="5.52564">
        <ele>2280.7</ele>
        <time>2022-01-19T11:31:52Z</time>
      </trkpt>
      <trkpt lat="44.87126" lon="5.52564">
        <ele>2280.8</ele>
        <time>2022-01-19T11:31:53Z</time>
      </trkpt>
      <trkpt lat="44.87125" lon="5.52564">
        <ele>2280.9</ele>
        <time>2022-01-19T11:31:54Z</time>
      </trkpt>
      <trkpt lat="44.87125" lon="5.52565">
        <ele>2281</ele>
        <time>2022-01-19T11:31:55Z</time>
      </trkpt>
      <trkpt lat="44.87125" lon="5.52565">
        <ele>2281</ele>
        <time>2022-01-19T11:31:56Z</time>
      </trkpt>
      <trkpt lat="44.87124" lon="5.52565">
        <ele>2281.1</ele>
        <time>2022-01-19T11:31:57Z</time>
      </trkpt>
      <trkpt lat="44.87124" lon="5.52566">
        <ele>2281.2</ele>
        <time>2022-01-19T11:31:58Z</time>
      </trkpt>
      <trkpt lat="44.87124" lon="5.52566">
        <ele>2281.3</ele>
        <time>2022-01-19T11:31:59Z</time>
      </trkpt>
      <trkpt lat="44.87123" lon="5.52567">
        <ele>2281.3</ele>
        <time>2022-01-19T11:32:00Z</time>
      </trkpt>
      <trkpt lat="44.87123" lon="5.52567">
        <ele>2281.4</ele>
        <time>2022-01-19T11:32:01Z</time>
      </trkpt>
      <trkpt lat="44.87123" lon="5.52567">
        <ele>2281.5</ele>
        <time>2022-01-19T11:32:02Z</time>
      </trkpt>
      <trkpt lat="44.87122" lon="5.52568">
        <ele>2281.5</ele>
        <time>2022-01-19T11:32:03Z</time>
      </trkpt>
      <trkpt lat="44.87122" lon="5.52568">
        <ele>2281.6</ele>
        <time>2022-01-19T11:32:04Z</time>
      </trkpt>
      <trkpt lat="44.87121" lon="5.52569">
        <ele>2281.7</ele>
        <time>2022-01-19T11:32:05Z</time>
      </trkpt>
      <trkpt lat="44.87121" lon="5.52569">
        <ele>2281.9</ele>
        <time>2022-01-19T11:32:06Z</time>
      </trkpt>
      <trkpt lat="44.8712" lon="5.52569">
        <ele>2282</ele>
        <time>2022-01-19T11:32:07Z</time>
      </trkpt>
      <trkpt lat="44.87119" lon="5.52569">
        <ele>2282.1</ele>
        <time>2022-01-19T11:32:08Z</time>
      </trkpt>
      <trkpt lat="44.87119" lon="5.52569">
        <ele>2282.1</ele>
        <time>2022-01-19T11:32:09Z</time>
      </trkpt>
      <trkpt lat="44.87119" lon="5.52568">
        <ele>2282.2</ele>
        <time>2022-01-19T11:32:10Z</time>
      </trkpt>
      <trkpt lat="44.87118" lon="5.52569">
        <ele>2282.3</ele>
        <time>2022-01-19T11:32:11Z</time>
      </trkpt>
      <trkpt lat="44.87118" lon="5.52569">
        <ele>2282.3</ele>
        <time>2022-01-19T11:32:12Z</time>
      </trkpt>
      <trkpt lat="44.87117" lon="5.52569">
        <ele>2282.4</ele>
        <time>2022-01-19T11:32:13Z</time>
      </trkpt>
      <trkpt lat="44.87117" lon="5.52569">
        <ele>2282.5</ele>
        <time>2022-01-19T11:32:14Z</time>
      </trkpt>
      <trkpt lat="44.87116" lon="5.52569">
        <ele>2282.6</ele>
        <time>2022-01-19T11:32:15Z</time>
      </trkpt>
      <trkpt lat="44.87116" lon="5.52569">
        <ele>2282.6</ele>
        <time>2022-01-19T11:32:16Z</time>
      </trkpt>
      <trkpt lat="44.87116" lon="5.52569">
        <ele>2282.7</ele>
        <time>2022-01-19T11:32:17Z</time>
      </trkpt>
      <trkpt lat="44.87115" lon="5.52569">
        <ele>2282.8</ele>
        <time>2022-01-19T11:32:18Z</time>
      </trkpt>
      <trkpt lat="44.87114" lon="5.52569">
        <ele>2282.9</ele>
        <time>2022-01-19T11:32:19Z</time>
      </trkpt>
      <trkpt lat="44.87114" lon="5.52569">
        <ele>2282.9</ele>
        <time>2022-01-19T11:32:20Z</time>
      </trkpt>
      <trkpt lat="44.87114" lon="5.52569">
        <ele>2283</ele>
        <time>2022-01-19T11:32:21Z</time>
      </trkpt>
      <trkpt lat="44.87113" lon="5.52569">
        <ele>2283.1</ele>
        <time>2022-01-19T11:32:22Z</time>
      </trkpt>
      <trkpt lat="44.87113" lon="5.5257">
        <ele>2283.2</ele>
        <time>2022-01-19T11:32:23Z</time>
      </trkpt>
      <trkpt lat="44.87112" lon="5.5257">
        <ele>2283.3</ele>
        <time>2022-01-19T11:32:24Z</time>
      </trkpt>
      <trkpt lat="44.87112" lon="5.5257">
        <ele>2283.3</ele>
        <time>2022-01-19T11:32:25Z</time>
      </trkpt>
      <trkpt lat="44.87111" lon="5.5257">
        <ele>2283.4</ele>
        <time>2022-01-19T11:32:26Z</time>
      </trkpt>
      <trkpt lat="44.87111" lon="5.5257">
        <ele>2283.5</ele>
        <time>2022-01-19T11:32:27Z</time>
      </trkpt>
      <trkpt lat="44.87111" lon="5.5257">
        <ele>2283.5</ele>
        <time>2022-01-19T11:32:28Z</time>
      </trkpt>
      <trkpt lat="44.8711" lon="5.5257">
        <ele>2283.6</ele>
        <time>2022-01-19T11:32:29Z</time>
      </trkpt>
      <trkpt lat="44.8711" lon="5.5257">
        <ele>2283.6</ele>
        <time>2022-01-19T11:32:30Z</time>
      </trkpt>
      <trkpt lat="44.87109" lon="5.5257">
        <ele>2283.7</ele>
        <time>2022-01-19T11:32:31Z</time>
      </trkpt>
      <trkpt lat="44.87109" lon="5.5257">
        <ele>2283.7</ele>
        <time>2022-01-19T11:32:32Z</time>
      </trkpt>
      <trkpt lat="44.87109" lon="5.5257">
        <ele>2283.8</ele>
        <time>2022-01-19T11:32:33Z</time>
      </trkpt>
      <trkpt lat="44.87108" lon="5.5257">
        <ele>2283.9</ele>
        <time>2022-01-19T11:32:34Z</time>
      </trkpt>
      <trkpt lat="44.87108" lon="5.5257">
        <ele>2283.9</ele>
        <time>2022-01-19T11:32:35Z</time>
      </trkpt>
      <trkpt lat="44.87108" lon="5.5257">
        <ele>2284</ele>
        <time>2022-01-19T11:32:36Z</time>
      </trkpt>
      <trkpt lat="44.87107" lon="5.5257">
        <ele>2284.1</ele>
        <time>2022-01-19T11:32:37Z</time>
      </trkpt>
      <trkpt lat="44.87106" lon="5.52571">
        <ele>2284.1</ele>
        <time>2022-01-19T11:32:38Z</time>
      </trkpt>
      <trkpt lat="44.87106" lon="5.52571">
        <ele>2284.2</ele>
        <time>2022-01-19T11:32:39Z</time>
      </trkpt>
      <trkpt lat="44.87105" lon="5.52571">
        <ele>2284.3</ele>
        <time>2022-01-19T11:32:40Z</time>
      </trkpt>
      <trkpt lat="44.87105" lon="5.52571">
        <ele>2284.4</ele>
        <time>2022-01-19T11:32:41Z</time>
      </trkpt>
      <trkpt lat="44.87104" lon="5.52572">
        <ele>2284.5</ele>
        <time>2022-01-19T11:32:42Z</time>
      </trkpt>
      <trkpt lat="44.87103" lon="5.52572">
        <ele>2284.5</ele>
        <time>2022-01-19T11:32:43Z</time>
      </trkpt>
      <trkpt lat="44.87103" lon="5.52572">
        <ele>2284.6</ele>
        <time>2022-01-19T11:32:44Z</time>
      </trkpt>
      <trkpt lat="44.87102" lon="5.52572">
        <ele>2284.7</ele>
        <time>2022-01-19T11:32:45Z</time>
      </trkpt>
      <trkpt lat="44.87101" lon="5.52572">
        <ele>2284.8</ele>
        <time>2022-01-19T11:32:46Z</time>
      </trkpt>
      <trkpt lat="44.87101" lon="5.52572">
        <ele>2284.9</ele>
        <time>2022-01-19T11:32:47Z</time>
      </trkpt>
      <trkpt lat="44.871" lon="5.52572">
        <ele>2285</ele>
        <time>2022-01-19T11:32:48Z</time>
      </trkpt>
      <trkpt lat="44.871" lon="5.52572">
        <ele>2285</ele>
        <time>2022-01-19T11:32:49Z</time>
      </trkpt>
      <trkpt lat="44.87099" lon="5.52572">
        <ele>2285.1</ele>
        <time>2022-01-19T11:32:50Z</time>
      </trkpt>
      <trkpt lat="44.87098" lon="5.52572">
        <ele>2285.2</ele>
        <time>2022-01-19T11:32:51Z</time>
      </trkpt>
      <trkpt lat="44.87098" lon="5.52572">
        <ele>2285.2</ele>
        <time>2022-01-19T11:32:52Z</time>
      </trkpt>
      <trkpt lat="44.87098" lon="5.52572">
        <ele>2285.3</ele>
        <time>2022-01-19T11:32:53Z</time>
      </trkpt>
      <trkpt lat="44.87097" lon="5.52572">
        <ele>2285.3</ele>
        <time>2022-01-19T11:32:54Z</time>
      </trkpt>
      <trkpt lat="44.87097" lon="5.52572">
        <ele>2285.4</ele>
        <time>2022-01-19T11:32:55Z</time>
      </trkpt>
      <trkpt lat="44.87096" lon="5.52572">
        <ele>2285.4</ele>
        <time>2022-01-19T11:32:56Z</time>
      </trkpt>
      <trkpt lat="44.87096" lon="5.52572">
        <ele>2285.4</ele>
        <time>2022-01-19T11:32:57Z</time>
      </trkpt>
      <trkpt lat="44.87096" lon="5.52572">
        <ele>2285.5</ele>
        <time>2022-01-19T11:32:58Z</time>
      </trkpt>
      <trkpt lat="44.87096" lon="5.52572">
        <ele>2285.5</ele>
        <time>2022-01-19T11:32:59Z</time>
      </trkpt>
      <trkpt lat="44.87096" lon="5.52572">
        <ele>2285.5</ele>
        <time>2022-01-19T11:33:00Z</time>
      </trkpt>
      <trkpt lat="44.87096" lon="5.52572">
        <ele>2285.5</ele>
        <time>2022-01-19T11:33:01Z</time>
      </trkpt>
      <trkpt lat="44.87096" lon="5.52572">
        <ele>2285.5</ele>
        <time>2022-01-19T11:33:02Z</time>
      </trkpt>
      <trkpt lat="44.87096" lon="5.52572">
        <ele>2285.5</ele>
        <time>2022-01-19T11:33:03Z</time>
      </trkpt>
      <trkpt lat="44.87096" lon="5.52572">
        <ele>2285.5</ele>
        <time>2022-01-19T11:33:04Z</time>
      </trkpt>
      <trkpt lat="44.87096" lon="5.52572">
        <ele>2285.5</ele>
        <time>2022-01-19T11:33:05Z</time>
      </trkpt>
      <trkpt lat="44.87092" lon="5.52573">
        <ele>2285.9</ele>
        <time>2022-01-19T11:33:06Z</time>
      </trkpt>
      <trkpt lat="44.87092" lon="5.52573">
        <ele>2285.9</ele>
        <time>2022-01-19T11:33:07Z</time>
      </trkpt>
      <trkpt lat="44.87092" lon="5.52573">
        <ele>2286</ele>
        <time>2022-01-19T11:33:08Z</time>
      </trkpt>
      <trkpt lat="44.87092" lon="5.52573">
        <ele>2286</ele>
        <time>2022-01-19T11:33:09Z</time>
      </trkpt>
      <trkpt lat="44.87091" lon="5.52573">
        <ele>2286</ele>
        <time>2022-01-19T11:33:10Z</time>
      </trkpt>
      <trkpt lat="44.87091" lon="5.52574">
        <ele>2286.1</ele>
        <time>2022-01-19T11:33:11Z</time>
      </trkpt>
      <trkpt lat="44.8709" lon="5.52574">
        <ele>2286.2</ele>
        <time>2022-01-19T11:33:12Z</time>
      </trkpt>
      <trkpt lat="44.8709" lon="5.52574">
        <ele>2286.2</ele>
        <time>2022-01-19T11:33:13Z</time>
      </trkpt>
      <trkpt lat="44.8709" lon="5.52574">
        <ele>2286.3</ele>
        <time>2022-01-19T11:33:14Z</time>
      </trkpt>
      <trkpt lat="44.87089" lon="5.52574">
        <ele>2286.3</ele>
        <time>2022-01-19T11:33:15Z</time>
      </trkpt>
      <trkpt lat="44.87089" lon="5.52574">
        <ele>2286.3</ele>
        <time>2022-01-19T11:33:16Z</time>
      </trkpt>
      <trkpt lat="44.87089" lon="5.52574">
        <ele>2286.3</ele>
        <time>2022-01-19T11:33:17Z</time>
      </trkpt>
      <trkpt lat="44.87088" lon="5.52574">
        <ele>2286.5</ele>
        <time>2022-01-19T11:33:18Z</time>
      </trkpt>
      <trkpt lat="44.87087" lon="5.52574">
        <ele>2286.6</ele>
        <time>2022-01-19T11:33:19Z</time>
      </trkpt>
      <trkpt lat="44.87087" lon="5.52574">
        <ele>2286.6</ele>
        <time>2022-01-19T11:33:20Z</time>
      </trkpt>
      <trkpt lat="44.87086" lon="5.52575">
        <ele>2286.7</ele>
        <time>2022-01-19T11:33:21Z</time>
      </trkpt>
      <trkpt lat="44.87085" lon="5.52575">
        <ele>2286.8</ele>
        <time>2022-01-19T11:33:22Z</time>
      </trkpt>
      <trkpt lat="44.87085" lon="5.52575">
        <ele>2286.9</ele>
        <time>2022-01-19T11:33:23Z</time>
      </trkpt>
      <trkpt lat="44.87084" lon="5.52575">
        <ele>2287</ele>
        <time>2022-01-19T11:33:24Z</time>
      </trkpt>
      <trkpt lat="44.87084" lon="5.52575">
        <ele>2287</ele>
        <time>2022-01-19T11:33:25Z</time>
      </trkpt>
      <trkpt lat="44.87083" lon="5.52576">
        <ele>2287.1</ele>
        <time>2022-01-19T11:33:26Z</time>
      </trkpt>
      <trkpt lat="44.87083" lon="5.52576">
        <ele>2287.2</ele>
        <time>2022-01-19T11:33:27Z</time>
      </trkpt>
      <trkpt lat="44.87083" lon="5.52577">
        <ele>2287.2</ele>
        <time>2022-01-19T11:33:28Z</time>
      </trkpt>
      <trkpt lat="44.87083" lon="5.52577">
        <ele>2287.2</ele>
        <time>2022-01-19T11:33:29Z</time>
      </trkpt>
      <trkpt lat="44.87082" lon="5.52577">
        <ele>2287.2</ele>
        <time>2022-01-19T11:33:30Z</time>
      </trkpt>
      <trkpt lat="44.87082" lon="5.52577">
        <ele>2287.3</ele>
        <time>2022-01-19T11:33:31Z</time>
      </trkpt>
      <trkpt lat="44.87082" lon="5.52578">
        <ele>2287.3</ele>
        <time>2022-01-19T11:33:32Z</time>
      </trkpt>
      <trkpt lat="44.87082" lon="5.52578">
        <ele>2287.3</ele>
        <time>2022-01-19T11:33:33Z</time>
      </trkpt>
      <trkpt lat="44.87082" lon="5.52578">
        <ele>2287.4</ele>
        <time>2022-01-19T11:33:34Z</time>
      </trkpt>
      <trkpt lat="44.87082" lon="5.52578">
        <ele>2287.4</ele>
        <time>2022-01-19T11:33:35Z</time>
      </trkpt>
      <trkpt lat="44.87082" lon="5.52579">
        <ele>2287.4</ele>
        <time>2022-01-19T11:33:36Z</time>
      </trkpt>
      <trkpt lat="44.87081" lon="5.52579">
        <ele>2287.5</ele>
        <time>2022-01-19T11:33:37Z</time>
      </trkpt>
      <trkpt lat="44.87081" lon="5.52579">
        <ele>2287.5</ele>
        <time>2022-01-19T11:33:38Z</time>
      </trkpt>
      <trkpt lat="44.87081" lon="5.52579">
        <ele>2287.5</ele>
        <time>2022-01-19T11:33:39Z</time>
      </trkpt>
      <trkpt lat="44.87081" lon="5.5258">
        <ele>2287.6</ele>
        <time>2022-01-19T11:33:40Z</time>
      </trkpt>
      <trkpt lat="44.87081" lon="5.5258">
        <ele>2287.6</ele>
        <time>2022-01-19T11:33:41Z</time>
      </trkpt>
      <trkpt lat="44.87081" lon="5.5258">
        <ele>2287.6</ele>
        <time>2022-01-19T11:33:42Z</time>
      </trkpt>
      <trkpt lat="44.87081" lon="5.5258">
        <ele>2287.7</ele>
        <time>2022-01-19T11:33:43Z</time>
      </trkpt>
      <trkpt lat="44.8708" lon="5.52581">
        <ele>2287.7</ele>
        <time>2022-01-19T11:33:44Z</time>
      </trkpt>
      <trkpt lat="44.8708" lon="5.52581">
        <ele>2287.7</ele>
        <time>2022-01-19T11:33:45Z</time>
      </trkpt>
      <trkpt lat="44.8708" lon="5.52581">
        <ele>2287.8</ele>
        <time>2022-01-19T11:33:46Z</time>
      </trkpt>
      <trkpt lat="44.8708" lon="5.52582">
        <ele>2287.8</ele>
        <time>2022-01-19T11:33:47Z</time>
      </trkpt>
      <trkpt lat="44.8708" lon="5.52582">
        <ele>2287.9</ele>
        <time>2022-01-19T11:33:48Z</time>
      </trkpt>
      <trkpt lat="44.8708" lon="5.52582">
        <ele>2287.9</ele>
        <time>2022-01-19T11:33:49Z</time>
      </trkpt>
      <trkpt lat="44.8708" lon="5.52582">
        <ele>2287.9</ele>
        <time>2022-01-19T11:33:50Z</time>
      </trkpt>
      <trkpt lat="44.87079" lon="5.52583">
        <ele>2288</ele>
        <time>2022-01-19T11:33:51Z</time>
      </trkpt>
      <trkpt lat="44.87079" lon="5.52583">
        <ele>2288</ele>
        <time>2022-01-19T11:33:52Z</time>
      </trkpt>
      <trkpt lat="44.87079" lon="5.52583">
        <ele>2288.1</ele>
        <time>2022-01-19T11:33:53Z</time>
      </trkpt>
      <trkpt lat="44.87079" lon="5.52583">
        <ele>2288.1</ele>
        <time>2022-01-19T11:33:54Z</time>
      </trkpt>
      <trkpt lat="44.87079" lon="5.52584">
        <ele>2288.1</ele>
        <time>2022-01-19T11:33:55Z</time>
      </trkpt>
      <trkpt lat="44.87079" lon="5.52584">
        <ele>2288.2</ele>
        <time>2022-01-19T11:33:56Z</time>
      </trkpt>
      <trkpt lat="44.87079" lon="5.52584">
        <ele>2288.2</ele>
        <time>2022-01-19T11:33:57Z</time>
      </trkpt>
      <trkpt lat="44.87078" lon="5.52584">
        <ele>2288.2</ele>
        <time>2022-01-19T11:33:58Z</time>
      </trkpt>
      <trkpt lat="44.87078" lon="5.52585">
        <ele>2288.3</ele>
        <time>2022-01-19T11:33:59Z</time>
      </trkpt>
      <trkpt lat="44.87078" lon="5.52585">
        <ele>2288.3</ele>
        <time>2022-01-19T11:34:00Z</time>
      </trkpt>
      <trkpt lat="44.87078" lon="5.52585">
        <ele>2288.3</ele>
        <time>2022-01-19T11:34:01Z</time>
      </trkpt>
      <trkpt lat="44.87078" lon="5.52585">
        <ele>2288.4</ele>
        <time>2022-01-19T11:34:02Z</time>
      </trkpt>
      <trkpt lat="44.87078" lon="5.52586">
        <ele>2288.4</ele>
        <time>2022-01-19T11:34:03Z</time>
      </trkpt>
      <trkpt lat="44.87078" lon="5.52586">
        <ele>2288.5</ele>
        <time>2022-01-19T11:34:04Z</time>
      </trkpt>
      <trkpt lat="44.87077" lon="5.52586">
        <ele>2288.5</ele>
        <time>2022-01-19T11:34:05Z</time>
      </trkpt>
      <trkpt lat="44.87077" lon="5.52587">
        <ele>2288.5</ele>
        <time>2022-01-19T11:34:06Z</time>
      </trkpt>
      <trkpt lat="44.87077" lon="5.52587">
        <ele>2288.6</ele>
        <time>2022-01-19T11:34:07Z</time>
      </trkpt>
      <trkpt lat="44.87077" lon="5.52587">
        <ele>2288.6</ele>
        <time>2022-01-19T11:34:08Z</time>
      </trkpt>
      <trkpt lat="44.87077" lon="5.52587">
        <ele>2288.7</ele>
        <time>2022-01-19T11:34:09Z</time>
      </trkpt>
      <trkpt lat="44.87077" lon="5.52588">
        <ele>2288.7</ele>
        <time>2022-01-19T11:34:10Z</time>
      </trkpt>
      <trkpt lat="44.87077" lon="5.52588">
        <ele>2288.7</ele>
        <time>2022-01-19T11:34:11Z</time>
      </trkpt>
      <trkpt lat="44.87077" lon="5.52588">
        <ele>2288.8</ele>
        <time>2022-01-19T11:34:12Z</time>
      </trkpt>
      <trkpt lat="44.87076" lon="5.52588">
        <ele>2288.8</ele>
        <time>2022-01-19T11:34:13Z</time>
      </trkpt>
      <trkpt lat="44.87076" lon="5.52589">
        <ele>2288.9</ele>
        <time>2022-01-19T11:34:14Z</time>
      </trkpt>
      <trkpt lat="44.87076" lon="5.52589">
        <ele>2288.9</ele>
        <time>2022-01-19T11:34:15Z</time>
      </trkpt>
      <trkpt lat="44.87076" lon="5.52589">
        <ele>2288.9</ele>
        <time>2022-01-19T11:34:16Z</time>
      </trkpt>
      <trkpt lat="44.87076" lon="5.52589">
        <ele>2289</ele>
        <time>2022-01-19T11:34:17Z</time>
      </trkpt>
      <trkpt lat="44.87076" lon="5.5259">
        <ele>2289</ele>
        <time>2022-01-19T11:34:18Z</time>
      </trkpt>
      <trkpt lat="44.87076" lon="5.5259">
        <ele>2289.1</ele>
        <time>2022-01-19T11:34:19Z</time>
      </trkpt>
      <trkpt lat="44.87075" lon="5.5259">
        <ele>2289.1</ele>
        <time>2022-01-19T11:34:20Z</time>
      </trkpt>
      <trkpt lat="44.87075" lon="5.52591">
        <ele>2289.1</ele>
        <time>2022-01-19T11:34:21Z</time>
      </trkpt>
      <trkpt lat="44.87075" lon="5.52591">
        <ele>2289.2</ele>
        <time>2022-01-19T11:34:22Z</time>
      </trkpt>
      <trkpt lat="44.87075" lon="5.52591">
        <ele>2289.2</ele>
        <time>2022-01-19T11:34:23Z</time>
      </trkpt>
      <trkpt lat="44.87075" lon="5.52591">
        <ele>2289.3</ele>
        <time>2022-01-19T11:34:24Z</time>
      </trkpt>
      <trkpt lat="44.87075" lon="5.52592">
        <ele>2289.3</ele>
        <time>2022-01-19T11:34:25Z</time>
      </trkpt>
      <trkpt lat="44.87075" lon="5.52592">
        <ele>2289.4</ele>
        <time>2022-01-19T11:34:26Z</time>
      </trkpt>
      <trkpt lat="44.87074" lon="5.52592">
        <ele>2289.4</ele>
        <time>2022-01-19T11:34:27Z</time>
      </trkpt>
      <trkpt lat="44.87074" lon="5.52592">
        <ele>2289.4</ele>
        <time>2022-01-19T11:34:28Z</time>
      </trkpt>
      <trkpt lat="44.87074" lon="5.52593">
        <ele>2289.5</ele>
        <time>2022-01-19T11:34:29Z</time>
      </trkpt>
      <trkpt lat="44.87074" lon="5.52593">
        <ele>2289.5</ele>
        <time>2022-01-19T11:34:30Z</time>
      </trkpt>
      <trkpt lat="44.87074" lon="5.52593">
        <ele>2289.6</ele>
        <time>2022-01-19T11:34:31Z</time>
      </trkpt>
      <trkpt lat="44.87074" lon="5.52593">
        <ele>2289.6</ele>
        <time>2022-01-19T11:34:32Z</time>
      </trkpt>
      <trkpt lat="44.87074" lon="5.52594">
        <ele>2289.7</ele>
        <time>2022-01-19T11:34:33Z</time>
      </trkpt>
      <trkpt lat="44.87073" lon="5.52594">
        <ele>2289.7</ele>
        <time>2022-01-19T11:34:34Z</time>
      </trkpt>
      <trkpt lat="44.87073" lon="5.52594">
        <ele>2289.8</ele>
        <time>2022-01-19T11:34:35Z</time>
      </trkpt>
      <trkpt lat="44.87073" lon="5.52594">
        <ele>2289.8</ele>
        <time>2022-01-19T11:34:36Z</time>
      </trkpt>
      <trkpt lat="44.87073" lon="5.52595">
        <ele>2289.8</ele>
        <time>2022-01-19T11:34:37Z</time>
      </trkpt>
      <trkpt lat="44.87073" lon="5.52595">
        <ele>2289.9</ele>
        <time>2022-01-19T11:34:38Z</time>
      </trkpt>
      <trkpt lat="44.87073" lon="5.52595">
        <ele>2289.9</ele>
        <time>2022-01-19T11:34:39Z</time>
      </trkpt>
      <trkpt lat="44.87073" lon="5.52596">
        <ele>2290</ele>
        <time>2022-01-19T11:34:40Z</time>
      </trkpt>
      <trkpt lat="44.87072" lon="5.52596">
        <ele>2290</ele>
        <time>2022-01-19T11:34:41Z</time>
      </trkpt>
      <trkpt lat="44.87072" lon="5.52596">
        <ele>2290.1</ele>
        <time>2022-01-19T11:34:42Z</time>
      </trkpt>
      <trkpt lat="44.87072" lon="5.52596">
        <ele>2290.1</ele>
        <time>2022-01-19T11:34:43Z</time>
      </trkpt>
      <trkpt lat="44.87072" lon="5.52597">
        <ele>2290.1</ele>
        <time>2022-01-19T11:34:44Z</time>
      </trkpt>
      <trkpt lat="44.87072" lon="5.52597">
        <ele>2290.2</ele>
        <time>2022-01-19T11:34:45Z</time>
      </trkpt>
      <trkpt lat="44.87072" lon="5.52597">
        <ele>2290.2</ele>
        <time>2022-01-19T11:34:46Z</time>
      </trkpt>
      <trkpt lat="44.87072" lon="5.52597">
        <ele>2290.3</ele>
        <time>2022-01-19T11:34:47Z</time>
      </trkpt>
      <trkpt lat="44.87071" lon="5.52598">
        <ele>2290.3</ele>
        <time>2022-01-19T11:34:48Z</time>
      </trkpt>
      <trkpt lat="44.87071" lon="5.52598">
        <ele>2290.4</ele>
        <time>2022-01-19T11:34:49Z</time>
      </trkpt>
      <trkpt lat="44.87071" lon="5.52598">
        <ele>2290.4</ele>
        <time>2022-01-19T11:34:50Z</time>
      </trkpt>
      <trkpt lat="44.87071" lon="5.52598">
        <ele>2290.5</ele>
        <time>2022-01-19T11:34:51Z</time>
      </trkpt>
      <trkpt lat="44.87071" lon="5.52599">
        <ele>2290.5</ele>
        <time>2022-01-19T11:34:52Z</time>
      </trkpt>
      <trkpt lat="44.87071" lon="5.52599">
        <ele>2290.6</ele>
        <time>2022-01-19T11:34:53Z</time>
      </trkpt>
      <trkpt lat="44.87071" lon="5.52599">
        <ele>2290.6</ele>
        <time>2022-01-19T11:34:54Z</time>
      </trkpt>
      <trkpt lat="44.8707" lon="5.52599">
        <ele>2290.6</ele>
        <time>2022-01-19T11:34:55Z</time>
      </trkpt>
      <trkpt lat="44.8707" lon="5.526">
        <ele>2290.7</ele>
        <time>2022-01-19T11:34:56Z</time>
      </trkpt>
      <trkpt lat="44.8707" lon="5.526">
        <ele>2290.7</ele>
        <time>2022-01-19T11:34:57Z</time>
      </trkpt>
      <trkpt lat="44.8707" lon="5.526">
        <ele>2290.8</ele>
        <time>2022-01-19T11:34:58Z</time>
      </trkpt>
      <trkpt lat="44.8707" lon="5.52601">
        <ele>2290.8</ele>
        <time>2022-01-19T11:34:59Z</time>
      </trkpt>
      <trkpt lat="44.8707" lon="5.52601">
        <ele>2290.9</ele>
        <time>2022-01-19T11:35:00Z</time>
      </trkpt>
      <trkpt lat="44.8707" lon="5.52601">
        <ele>2290.9</ele>
        <time>2022-01-19T11:35:01Z</time>
      </trkpt>
      <trkpt lat="44.87069" lon="5.52601">
        <ele>2291</ele>
        <time>2022-01-19T11:35:02Z</time>
      </trkpt>
      <trkpt lat="44.87069" lon="5.52602">
        <ele>2291</ele>
        <time>2022-01-19T11:35:03Z</time>
      </trkpt>
      <trkpt lat="44.87069" lon="5.52602">
        <ele>2291.1</ele>
        <time>2022-01-19T11:35:04Z</time>
      </trkpt>
      <trkpt lat="44.87069" lon="5.52602">
        <ele>2291.1</ele>
        <time>2022-01-19T11:35:05Z</time>
      </trkpt>
      <trkpt lat="44.87069" lon="5.52602">
        <ele>2291.2</ele>
        <time>2022-01-19T11:35:06Z</time>
      </trkpt>
      <trkpt lat="44.87069" lon="5.52603">
        <ele>2291.2</ele>
        <time>2022-01-19T11:35:07Z</time>
      </trkpt>
      <trkpt lat="44.87069" lon="5.52603">
        <ele>2291.3</ele>
        <time>2022-01-19T11:35:08Z</time>
      </trkpt>
      <trkpt lat="44.87068" lon="5.52603">
        <ele>2291.3</ele>
        <time>2022-01-19T11:35:09Z</time>
      </trkpt>
      <trkpt lat="44.87068" lon="5.52603">
        <ele>2291.3</ele>
        <time>2022-01-19T11:35:10Z</time>
      </trkpt>
      <trkpt lat="44.87068" lon="5.52604">
        <ele>2291.4</ele>
        <time>2022-01-19T11:35:11Z</time>
      </trkpt>
      <trkpt lat="44.87068" lon="5.52604">
        <ele>2291.4</ele>
        <time>2022-01-19T11:35:12Z</time>
      </trkpt>
      <trkpt lat="44.87068" lon="5.52604">
        <ele>2291.5</ele>
        <time>2022-01-19T11:35:13Z</time>
      </trkpt>
      <trkpt lat="44.87068" lon="5.52605">
        <ele>2291.5</ele>
        <time>2022-01-19T11:35:14Z</time>
      </trkpt>
      <trkpt lat="44.87068" lon="5.52605">
        <ele>2291.6</ele>
        <time>2022-01-19T11:35:15Z</time>
      </trkpt>
      <trkpt lat="44.87067" lon="5.52605">
        <ele>2291.6</ele>
        <time>2022-01-19T11:35:16Z</time>
      </trkpt>
      <trkpt lat="44.87067" lon="5.52605">
        <ele>2291.7</ele>
        <time>2022-01-19T11:35:17Z</time>
      </trkpt>
      <trkpt lat="44.87067" lon="5.52606">
        <ele>2291.7</ele>
        <time>2022-01-19T11:35:18Z</time>
      </trkpt>
      <trkpt lat="44.87067" lon="5.52606">
        <ele>2291.8</ele>
        <time>2022-01-19T11:35:19Z</time>
      </trkpt>
      <trkpt lat="44.87067" lon="5.52606">
        <ele>2291.8</ele>
        <time>2022-01-19T11:35:20Z</time>
      </trkpt>
      <trkpt lat="44.87067" lon="5.52606">
        <ele>2291.9</ele>
        <time>2022-01-19T11:35:21Z</time>
      </trkpt>
      <trkpt lat="44.87067" lon="5.52607">
        <ele>2291.9</ele>
        <time>2022-01-19T11:35:22Z</time>
      </trkpt>
      <trkpt lat="44.87066" lon="5.52607">
        <ele>2292</ele>
        <time>2022-01-19T11:35:23Z</time>
      </trkpt>
      <trkpt lat="44.87066" lon="5.52607">
        <ele>2292</ele>
        <time>2022-01-19T11:35:24Z</time>
      </trkpt>
      <trkpt lat="44.87066" lon="5.52607">
        <ele>2292.1</ele>
        <time>2022-01-19T11:35:25Z</time>
      </trkpt>
      <trkpt lat="44.87066" lon="5.52608">
        <ele>2292.1</ele>
        <time>2022-01-19T11:35:26Z</time>
      </trkpt>
      <trkpt lat="44.87066" lon="5.52608">
        <ele>2292.1</ele>
        <time>2022-01-19T11:35:27Z</time>
      </trkpt>
      <trkpt lat="44.87066" lon="5.52608">
        <ele>2292.2</ele>
        <time>2022-01-19T11:35:28Z</time>
      </trkpt>
      <trkpt lat="44.87066" lon="5.52608">
        <ele>2292.2</ele>
        <time>2022-01-19T11:35:29Z</time>
      </trkpt>
      <trkpt lat="44.87066" lon="5.52609">
        <ele>2292.3</ele>
        <time>2022-01-19T11:35:30Z</time>
      </trkpt>
      <trkpt lat="44.87065" lon="5.52609">
        <ele>2292.3</ele>
        <time>2022-01-19T11:35:31Z</time>
      </trkpt>
      <trkpt lat="44.87065" lon="5.52609">
        <ele>2292.4</ele>
        <time>2022-01-19T11:35:32Z</time>
      </trkpt>
      <trkpt lat="44.87065" lon="5.5261">
        <ele>2292.4</ele>
        <time>2022-01-19T11:35:33Z</time>
      </trkpt>
      <trkpt lat="44.87065" lon="5.5261">
        <ele>2292.5</ele>
        <time>2022-01-19T11:35:34Z</time>
      </trkpt>
      <trkpt lat="44.87065" lon="5.5261">
        <ele>2292.5</ele>
        <time>2022-01-19T11:35:35Z</time>
      </trkpt>
      <trkpt lat="44.87065" lon="5.5261">
        <ele>2292.6</ele>
        <time>2022-01-19T11:35:36Z</time>
      </trkpt>
      <trkpt lat="44.87065" lon="5.52611">
        <ele>2292.6</ele>
        <time>2022-01-19T11:35:37Z</time>
      </trkpt>
      <trkpt lat="44.87064" lon="5.52611">
        <ele>2292.7</ele>
        <time>2022-01-19T11:35:38Z</time>
      </trkpt>
      <trkpt lat="44.87064" lon="5.52611">
        <ele>2292.7</ele>
        <time>2022-01-19T11:35:39Z</time>
      </trkpt>
      <trkpt lat="44.87064" lon="5.52611">
        <ele>2292.8</ele>
        <time>2022-01-19T11:35:40Z</time>
      </trkpt>
      <trkpt lat="44.87064" lon="5.52612">
        <ele>2292.8</ele>
        <time>2022-01-19T11:35:41Z</time>
      </trkpt>
      <trkpt lat="44.87064" lon="5.52612">
        <ele>2292.8</ele>
        <time>2022-01-19T11:35:42Z</time>
      </trkpt>
      <trkpt lat="44.87064" lon="5.52612">
        <ele>2292.9</ele>
        <time>2022-01-19T11:35:43Z</time>
      </trkpt>
      <trkpt lat="44.87064" lon="5.52613">
        <ele>2293</ele>
        <time>2022-01-19T11:35:44Z</time>
      </trkpt>
      <trkpt lat="44.87064" lon="5.52614">
        <ele>2293.1</ele>
        <time>2022-01-19T11:35:45Z</time>
      </trkpt>
      <trkpt lat="44.87064" lon="5.52614">
        <ele>2293.2</ele>
        <time>2022-01-19T11:35:46Z</time>
      </trkpt>
      <trkpt lat="44.87065" lon="5.52615">
        <ele>2293.3</ele>
        <time>2022-01-19T11:35:47Z</time>
      </trkpt>
      <trkpt lat="44.87065" lon="5.52615">
        <ele>2293.4</ele>
        <time>2022-01-19T11:35:48Z</time>
      </trkpt>
      <trkpt lat="44.87065" lon="5.52616">
        <ele>2293.5</ele>
        <time>2022-01-19T11:35:49Z</time>
      </trkpt>
      <trkpt lat="44.87065" lon="5.52616">
        <ele>2293.6</ele>
        <time>2022-01-19T11:35:50Z</time>
      </trkpt>
      <trkpt lat="44.87066" lon="5.52617">
        <ele>2293.7</ele>
        <time>2022-01-19T11:35:51Z</time>
      </trkpt>
      <trkpt lat="44.87066" lon="5.52617">
        <ele>2293.8</ele>
        <time>2022-01-19T11:35:52Z</time>
      </trkpt>
      <trkpt lat="44.87066" lon="5.52618">
        <ele>2293.9</ele>
        <time>2022-01-19T11:35:53Z</time>
      </trkpt>
      <trkpt lat="44.87066" lon="5.52618">
        <ele>2294</ele>
        <time>2022-01-19T11:35:54Z</time>
      </trkpt>
      <trkpt lat="44.87067" lon="5.52619">
        <ele>2294</ele>
        <time>2022-01-19T11:35:55Z</time>
      </trkpt>
      <trkpt lat="44.87067" lon="5.52619">
        <ele>2294.1</ele>
        <time>2022-01-19T11:35:56Z</time>
      </trkpt>
      <trkpt lat="44.87066" lon="5.52619">
        <ele>2294.2</ele>
        <time>2022-01-19T11:35:57Z</time>
      </trkpt>
      <trkpt lat="44.87066" lon="5.52619">
        <ele>2294.2</ele>
        <time>2022-01-19T11:35:58Z</time>
      </trkpt>
      <trkpt lat="44.87066" lon="5.52619">
        <ele>2294.2</ele>
        <time>2022-01-19T11:35:59Z</time>
      </trkpt>
      <trkpt lat="44.87066" lon="5.52619">
        <ele>2294.2</ele>
        <time>2022-01-19T11:36:00Z</time>
      </trkpt>
      <trkpt lat="44.87066" lon="5.52619">
        <ele>2294.2</ele>
        <time>2022-01-19T11:36:01Z</time>
      </trkpt>
      <trkpt lat="44.87066" lon="5.52619">
        <ele>2294.2</ele>
        <time>2022-01-19T11:36:02Z</time>
      </trkpt>
      <trkpt lat="44.87066" lon="5.5262">
        <ele>2294.2</ele>
        <time>2022-01-19T11:36:03Z</time>
      </trkpt>
      <trkpt lat="44.87066" lon="5.52621">
        <ele>2294.3</ele>
        <time>2022-01-19T11:36:04Z</time>
      </trkpt>
      <trkpt lat="44.87067" lon="5.52621">
        <ele>2294.4</ele>
        <time>2022-01-19T11:36:05Z</time>
      </trkpt>
      <trkpt lat="44.87067" lon="5.52622">
        <ele>2294.5</ele>
        <time>2022-01-19T11:36:06Z</time>
      </trkpt>
      <trkpt lat="44.87067" lon="5.52622">
        <ele>2294.6</ele>
        <time>2022-01-19T11:36:07Z</time>
      </trkpt>
      <trkpt lat="44.87067" lon="5.52623">
        <ele>2294.6</ele>
        <time>2022-01-19T11:36:08Z</time>
      </trkpt>
      <trkpt lat="44.87067" lon="5.52623">
        <ele>2294.7</ele>
        <time>2022-01-19T11:36:09Z</time>
      </trkpt>
      <trkpt lat="44.87067" lon="5.52624">
        <ele>2294.9</ele>
        <time>2022-01-19T11:36:10Z</time>
      </trkpt>
      <trkpt lat="44.87068" lon="5.52625">
        <ele>2295</ele>
        <time>2022-01-19T11:36:11Z</time>
      </trkpt>
      <trkpt lat="44.87068" lon="5.52626">
        <ele>2295.1</ele>
        <time>2022-01-19T11:36:12Z</time>
      </trkpt>
      <trkpt lat="44.87068" lon="5.52626">
        <ele>2295.2</ele>
        <time>2022-01-19T11:36:13Z</time>
      </trkpt>
      <trkpt lat="44.87068" lon="5.52627">
        <ele>2295.3</ele>
        <time>2022-01-19T11:36:14Z</time>
      </trkpt>
      <trkpt lat="44.87069" lon="5.52628">
        <ele>2295.4</ele>
        <time>2022-01-19T11:36:15Z</time>
      </trkpt>
      <trkpt lat="44.87069" lon="5.52628">
        <ele>2295.5</ele>
        <time>2022-01-19T11:36:16Z</time>
      </trkpt>
      <trkpt lat="44.87069" lon="5.52628">
        <ele>2295.5</ele>
        <time>2022-01-19T11:36:17Z</time>
      </trkpt>
      <trkpt lat="44.87069" lon="5.52629">
        <ele>2295.6</ele>
        <time>2022-01-19T11:36:18Z</time>
      </trkpt>
      <trkpt lat="44.87069" lon="5.52629">
        <ele>2295.6</ele>
        <time>2022-01-19T11:36:19Z</time>
      </trkpt>
      <trkpt lat="44.87069" lon="5.52629">
        <ele>2295.6</ele>
        <time>2022-01-19T11:36:20Z</time>
      </trkpt>
      <trkpt lat="44.87069" lon="5.52629">
        <ele>2295.7</ele>
        <time>2022-01-19T11:36:21Z</time>
      </trkpt>
      <trkpt lat="44.87069" lon="5.5263">
        <ele>2295.7</ele>
        <time>2022-01-19T11:36:22Z</time>
      </trkpt>
      <trkpt lat="44.87068" lon="5.5263">
        <ele>2295.8</ele>
        <time>2022-01-19T11:36:23Z</time>
      </trkpt>
      <trkpt lat="44.87068" lon="5.5263">
        <ele>2295.8</ele>
        <time>2022-01-19T11:36:24Z</time>
      </trkpt>
      <trkpt lat="44.87068" lon="5.5263">
        <ele>2295.9</ele>
        <time>2022-01-19T11:36:25Z</time>
      </trkpt>
      <trkpt lat="44.87068" lon="5.5263">
        <ele>2295.9</ele>
        <time>2022-01-19T11:36:26Z</time>
      </trkpt>
      <trkpt lat="44.87068" lon="5.5263">
        <ele>2295.9</ele>
        <time>2022-01-19T11:36:27Z</time>
      </trkpt>
      <trkpt lat="44.87068" lon="5.5263">
        <ele>2295.9</ele>
        <time>2022-01-19T11:36:28Z</time>
      </trkpt>
      <trkpt lat="44.87068" lon="5.5263">
        <ele>2295.9</ele>
        <time>2022-01-19T11:36:29Z</time>
      </trkpt>
      <trkpt lat="44.87068" lon="5.5263">
        <ele>2295.9</ele>
        <time>2022-01-19T11:36:30Z</time>
      </trkpt>
      <trkpt lat="44.87068" lon="5.5263">
        <ele>2295.9</ele>
        <time>2022-01-19T11:36:31Z</time>
      </trkpt>
      <trkpt lat="44.87068" lon="5.52633">
        <ele>2296.3</ele>
        <time>2022-01-19T11:36:32Z</time>
      </trkpt>
      <trkpt lat="44.87069" lon="5.52634">
        <ele>2296.4</ele>
        <time>2022-01-19T11:36:33Z</time>
      </trkpt>
      <trkpt lat="44.87069" lon="5.52635">
        <ele>2296.6</ele>
        <time>2022-01-19T11:36:34Z</time>
      </trkpt>
      <trkpt lat="44.87069" lon="5.52636">
        <ele>2296.7</ele>
        <time>2022-01-19T11:36:35Z</time>
      </trkpt>
      <trkpt lat="44.8707" lon="5.52637">
        <ele>2296.9</ele>
        <time>2022-01-19T11:36:36Z</time>
      </trkpt>
      <trkpt lat="44.8707" lon="5.52638">
        <ele>2297</ele>
        <time>2022-01-19T11:36:37Z</time>
      </trkpt>
      <trkpt lat="44.8707" lon="5.52638">
        <ele>2297.1</ele>
        <time>2022-01-19T11:36:38Z</time>
      </trkpt>
      <trkpt lat="44.87071" lon="5.52639">
        <ele>2297.2</ele>
        <time>2022-01-19T11:36:39Z</time>
      </trkpt>
      <trkpt lat="44.87071" lon="5.5264">
        <ele>2297.3</ele>
        <time>2022-01-19T11:36:40Z</time>
      </trkpt>
      <trkpt lat="44.87071" lon="5.52641">
        <ele>2297.4</ele>
        <time>2022-01-19T11:36:41Z</time>
      </trkpt>
      <trkpt lat="44.87071" lon="5.52642">
        <ele>2297.5</ele>
        <time>2022-01-19T11:36:42Z</time>
      </trkpt>
      <trkpt lat="44.87071" lon="5.52642">
        <ele>2297.6</ele>
        <time>2022-01-19T11:36:43Z</time>
      </trkpt>
      <trkpt lat="44.87071" lon="5.52642">
        <ele>2297.6</ele>
        <time>2022-01-19T11:36:44Z</time>
      </trkpt>
      <trkpt lat="44.87071" lon="5.52643">
        <ele>2297.7</ele>
        <time>2022-01-19T11:36:45Z</time>
      </trkpt>
      <trkpt lat="44.87071" lon="5.52643">
        <ele>2297.7</ele>
        <time>2022-01-19T11:36:46Z</time>
      </trkpt>
      <trkpt lat="44.87071" lon="5.52644">
        <ele>2297.8</ele>
        <time>2022-01-19T11:36:47Z</time>
      </trkpt>
      <trkpt lat="44.87071" lon="5.52645">
        <ele>2297.9</ele>
        <time>2022-01-19T11:36:48Z</time>
      </trkpt>
      <trkpt lat="44.87071" lon="5.52645">
        <ele>2298</ele>
        <time>2022-01-19T11:36:49Z</time>
      </trkpt>
      <trkpt lat="44.87072" lon="5.52646">
        <ele>2298.1</ele>
        <time>2022-01-19T11:36:50Z</time>
      </trkpt>
      <trkpt lat="44.87072" lon="5.52646">
        <ele>2298.2</ele>
        <time>2022-01-19T11:36:51Z</time>
      </trkpt>
      <trkpt lat="44.87072" lon="5.52647">
        <ele>2298.2</ele>
        <time>2022-01-19T11:36:52Z</time>
      </trkpt>
      <trkpt lat="44.87072" lon="5.52647">
        <ele>2298.3</ele>
        <time>2022-01-19T11:36:53Z</time>
      </trkpt>
      <trkpt lat="44.87072" lon="5.52647">
        <ele>2298.3</ele>
        <time>2022-01-19T11:36:54Z</time>
      </trkpt>
      <trkpt lat="44.87072" lon="5.52647">
        <ele>2298.3</ele>
        <time>2022-01-19T11:36:55Z</time>
      </trkpt>
      <trkpt lat="44.87072" lon="5.52647">
        <ele>2298.3</ele>
        <time>2022-01-19T11:36:56Z</time>
      </trkpt>
      <trkpt lat="44.87072" lon="5.52647">
        <ele>2298.3</ele>
        <time>2022-01-19T11:36:57Z</time>
      </trkpt>
      <trkpt lat="44.87072" lon="5.52647">
        <ele>2298.3</ele>
        <time>2022-01-19T11:36:58Z</time>
      </trkpt>
      <trkpt lat="44.87072" lon="5.52647">
        <ele>2298.4</ele>
        <time>2022-01-19T11:36:59Z</time>
      </trkpt>
      <trkpt lat="44.87073" lon="5.52647">
        <ele>2298.5</ele>
        <time>2022-01-19T11:37:00Z</time>
      </trkpt>
      <trkpt lat="44.87073" lon="5.52648">
        <ele>2298.6</ele>
        <time>2022-01-19T11:37:01Z</time>
      </trkpt>
      <trkpt lat="44.87073" lon="5.52648">
        <ele>2298.6</ele>
        <time>2022-01-19T11:37:02Z</time>
      </trkpt>
      <trkpt lat="44.87074" lon="5.52648">
        <ele>2298.7</ele>
        <time>2022-01-19T11:37:03Z</time>
      </trkpt>
      <trkpt lat="44.87074" lon="5.52648">
        <ele>2298.7</ele>
        <time>2022-01-19T11:37:04Z</time>
      </trkpt>
      <trkpt lat="44.87074" lon="5.52648">
        <ele>2298.7</ele>
        <time>2022-01-19T11:37:05Z</time>
      </trkpt>
      <trkpt lat="44.87074" lon="5.52648">
        <ele>2298.7</ele>
        <time>2022-01-19T11:37:06Z</time>
      </trkpt>
      <trkpt lat="44.87074" lon="5.52648">
        <ele>2298.7</ele>
        <time>2022-01-19T11:37:07Z</time>
      </trkpt>
      <trkpt lat="44.87074" lon="5.52648">
        <ele>2298.7</ele>
        <time>2022-01-19T11:37:08Z</time>
      </trkpt>
      <trkpt lat="44.87075" lon="5.5265">
        <ele>2299.1</ele>
        <time>2022-01-19T11:37:09Z</time>
      </trkpt>
      <trkpt lat="44.87076" lon="5.52651">
        <ele>2299.2</ele>
        <time>2022-01-19T11:37:10Z</time>
      </trkpt>
      <trkpt lat="44.87076" lon="5.52651">
        <ele>2299.3</ele>
        <time>2022-01-19T11:37:11Z</time>
      </trkpt>
      <trkpt lat="44.87077" lon="5.52652">
        <ele>2299.4</ele>
        <time>2022-01-19T11:37:12Z</time>
      </trkpt>
      <trkpt lat="44.87077" lon="5.52652">
        <ele>2299.5</ele>
        <time>2022-01-19T11:37:13Z</time>
      </trkpt>
      <trkpt lat="44.87077" lon="5.52653">
        <ele>2299.5</ele>
        <time>2022-01-19T11:37:14Z</time>
      </trkpt>
      <trkpt lat="44.87078" lon="5.52653">
        <ele>2299.7</ele>
        <time>2022-01-19T11:37:15Z</time>
      </trkpt>
      <trkpt lat="44.87078" lon="5.52654">
        <ele>2299.8</ele>
        <time>2022-01-19T11:37:16Z</time>
      </trkpt>
      <trkpt lat="44.87079" lon="5.52654">
        <ele>2299.9</ele>
        <time>2022-01-19T11:37:17Z</time>
      </trkpt>
      <trkpt lat="44.8708" lon="5.52655">
        <ele>2300</ele>
        <time>2022-01-19T11:37:18Z</time>
      </trkpt>
      <trkpt lat="44.8708" lon="5.52655">
        <ele>2300.1</ele>
        <time>2022-01-19T11:37:19Z</time>
      </trkpt>
      <trkpt lat="44.8708" lon="5.52656">
        <ele>2300.2</ele>
        <time>2022-01-19T11:37:20Z</time>
      </trkpt>
      <trkpt lat="44.87081" lon="5.52656">
        <ele>2300.2</ele>
        <time>2022-01-19T11:37:21Z</time>
      </trkpt>
      <trkpt lat="44.87081" lon="5.52657">
        <ele>2300.3</ele>
        <time>2022-01-19T11:37:22Z</time>
      </trkpt>
      <trkpt lat="44.87081" lon="5.52657">
        <ele>2300.3</ele>
        <time>2022-01-19T11:37:23Z</time>
      </trkpt>
      <trkpt lat="44.87081" lon="5.52657">
        <ele>2300.3</ele>
        <time>2022-01-19T11:37:24Z</time>
      </trkpt>
      <trkpt lat="44.87081" lon="5.52657">
        <ele>2300.3</ele>
        <time>2022-01-19T11:37:25Z</time>
      </trkpt>
      <trkpt lat="44.87081" lon="5.52657">
        <ele>2300.3</ele>
        <time>2022-01-19T11:37:26Z</time>
      </trkpt>
      <trkpt lat="44.87081" lon="5.52657">
        <ele>2300.3</ele>
        <time>2022-01-19T11:37:27Z</time>
      </trkpt>
      <trkpt lat="44.87081" lon="5.52657">
        <ele>2300.3</ele>
        <time>2022-01-19T11:37:28Z</time>
      </trkpt>
      <trkpt lat="44.87081" lon="5.52657">
        <ele>2300.3</ele>
        <time>2022-01-19T11:37:29Z</time>
      </trkpt>
      <trkpt lat="44.87081" lon="5.52657">
        <ele>2300.3</ele>
        <time>2022-01-19T11:37:30Z</time>
      </trkpt>
      <trkpt lat="44.87081" lon="5.52657">
        <ele>2300.3</ele>
        <time>2022-01-19T11:37:31Z</time>
      </trkpt>
      <trkpt lat="44.87081" lon="5.52657">
        <ele>2300.3</ele>
        <time>2022-01-19T11:37:32Z</time>
      </trkpt>
      <trkpt lat="44.87081" lon="5.52657">
        <ele>2300.3</ele>
        <time>2022-01-19T11:37:33Z</time>
      </trkpt>
      <trkpt lat="44.87081" lon="5.52657">
        <ele>2300.3</ele>
        <time>2022-01-19T11:37:34Z</time>
      </trkpt>
      <trkpt lat="44.87081" lon="5.52657">
        <ele>2300.3</ele>
        <time>2022-01-19T11:37:35Z</time>
      </trkpt>
      <trkpt lat="44.87081" lon="5.52657">
        <ele>2300.3</ele>
        <time>2022-01-19T11:37:36Z</time>
      </trkpt>
      <trkpt lat="44.87081" lon="5.52657">
        <ele>2300.3</ele>
        <time>2022-01-19T11:37:37Z</time>
      </trkpt>
      <trkpt lat="44.87081" lon="5.52659">
        <ele>2300.6</ele>
        <time>2022-01-19T11:37:38Z</time>
      </trkpt>
      <trkpt lat="44.87081" lon="5.52659">
        <ele>2300.6</ele>
        <time>2022-01-19T11:37:39Z</time>
      </trkpt>
      <trkpt lat="44.87081" lon="5.5266">
        <ele>2300.7</ele>
        <time>2022-01-19T11:37:40Z</time>
      </trkpt>
      <trkpt lat="44.87081" lon="5.5266">
        <ele>2300.8</ele>
        <time>2022-01-19T11:37:41Z</time>
      </trkpt>
      <trkpt lat="44.8708" lon="5.52661">
        <ele>2300.9</ele>
        <time>2022-01-19T11:37:42Z</time>
      </trkpt>
      <trkpt lat="44.8708" lon="5.52661">
        <ele>2300.9</ele>
        <time>2022-01-19T11:37:43Z</time>
      </trkpt>
      <trkpt lat="44.8708" lon="5.52661">
        <ele>2301</ele>
        <time>2022-01-19T11:37:44Z</time>
      </trkpt>
      <trkpt lat="44.87079" lon="5.52661">
        <ele>2301.1</ele>
        <time>2022-01-19T11:37:45Z</time>
      </trkpt>
      <trkpt lat="44.87079" lon="5.52661">
        <ele>2301.2</ele>
        <time>2022-01-19T11:37:46Z</time>
      </trkpt>
      <trkpt lat="44.87079" lon="5.52662">
        <ele>2301.2</ele>
        <time>2022-01-19T11:37:47Z</time>
      </trkpt>
      <trkpt lat="44.87078" lon="5.52662">
        <ele>2301.3</ele>
        <time>2022-01-19T11:37:48Z</time>
      </trkpt>
      <trkpt lat="44.87077" lon="5.52663">
        <ele>2301.4</ele>
        <time>2022-01-19T11:37:49Z</time>
      </trkpt>
      <trkpt lat="44.87077" lon="5.52663">
        <ele>2301.6</ele>
        <time>2022-01-19T11:37:50Z</time>
      </trkpt>
      <trkpt lat="44.87076" lon="5.52663">
        <ele>2301.6</ele>
        <time>2022-01-19T11:37:51Z</time>
      </trkpt>
      <trkpt lat="44.87076" lon="5.52664">
        <ele>2301.7</ele>
        <time>2022-01-19T11:37:52Z</time>
      </trkpt>
      <trkpt lat="44.87075" lon="5.52664">
        <ele>2301.9</ele>
        <time>2022-01-19T11:37:53Z</time>
      </trkpt>
      <trkpt lat="44.87074" lon="5.52664">
        <ele>2301.9</ele>
        <time>2022-01-19T11:37:54Z</time>
      </trkpt>
      <trkpt lat="44.87074" lon="5.52664">
        <ele>2302</ele>
        <time>2022-01-19T11:37:55Z</time>
      </trkpt>
      <trkpt lat="44.87074" lon="5.52664">
        <ele>2302.1</ele>
        <time>2022-01-19T11:37:56Z</time>
      </trkpt>
      <trkpt lat="44.87073" lon="5.52664">
        <ele>2302.2</ele>
        <time>2022-01-19T11:37:57Z</time>
      </trkpt>
      <trkpt lat="44.87072" lon="5.52665">
        <ele>2302.3</ele>
        <time>2022-01-19T11:37:58Z</time>
      </trkpt>
      <trkpt lat="44.87072" lon="5.52665">
        <ele>2302.3</ele>
        <time>2022-01-19T11:37:59Z</time>
      </trkpt>
      <trkpt lat="44.87071" lon="5.52665">
        <ele>2302.5</ele>
        <time>2022-01-19T11:38:00Z</time>
      </trkpt>
      <trkpt lat="44.8707" lon="5.52665">
        <ele>2302.6</ele>
        <time>2022-01-19T11:38:01Z</time>
      </trkpt>
      <trkpt lat="44.8707" lon="5.52665">
        <ele>2302.6</ele>
        <time>2022-01-19T11:38:02Z</time>
      </trkpt>
      <trkpt lat="44.87069" lon="5.52665">
        <ele>2302.7</ele>
        <time>2022-01-19T11:38:03Z</time>
      </trkpt>
      <trkpt lat="44.87068" lon="5.52665">
        <ele>2302.8</ele>
        <time>2022-01-19T11:38:04Z</time>
      </trkpt>
      <trkpt lat="44.87068" lon="5.52665">
        <ele>2302.9</ele>
        <time>2022-01-19T11:38:05Z</time>
      </trkpt>
      <trkpt lat="44.87067" lon="5.52666">
        <ele>2303</ele>
        <time>2022-01-19T11:38:06Z</time>
      </trkpt>
      <trkpt lat="44.87067" lon="5.52665">
        <ele>2303.1</ele>
        <time>2022-01-19T11:38:07Z</time>
      </trkpt>
      <trkpt lat="44.87066" lon="5.52665">
        <ele>2303.2</ele>
        <time>2022-01-19T11:38:08Z</time>
      </trkpt>
      <trkpt lat="44.87066" lon="5.52665">
        <ele>2303.2</ele>
        <time>2022-01-19T11:38:09Z</time>
      </trkpt>
      <trkpt lat="44.87065" lon="5.52666">
        <ele>2303.3</ele>
        <time>2022-01-19T11:38:10Z</time>
      </trkpt>
      <trkpt lat="44.87064" lon="5.52666">
        <ele>2303.4</ele>
        <time>2022-01-19T11:38:11Z</time>
      </trkpt>
      <trkpt lat="44.87064" lon="5.52666">
        <ele>2303.5</ele>
        <time>2022-01-19T11:38:12Z</time>
      </trkpt>
      <trkpt lat="44.87063" lon="5.52666">
        <ele>2303.6</ele>
        <time>2022-01-19T11:38:13Z</time>
      </trkpt>
      <trkpt lat="44.87063" lon="5.52667">
        <ele>2303.6</ele>
        <time>2022-01-19T11:38:14Z</time>
      </trkpt>
      <trkpt lat="44.87062" lon="5.52667">
        <ele>2303.7</ele>
        <time>2022-01-19T11:38:15Z</time>
      </trkpt>
      <trkpt lat="44.87062" lon="5.52667">
        <ele>2303.8</ele>
        <time>2022-01-19T11:38:16Z</time>
      </trkpt>
      <trkpt lat="44.87061" lon="5.52667">
        <ele>2303.8</ele>
        <time>2022-01-19T11:38:17Z</time>
      </trkpt>
      <trkpt lat="44.87061" lon="5.52667">
        <ele>2303.9</ele>
        <time>2022-01-19T11:38:18Z</time>
      </trkpt>
      <trkpt lat="44.8706" lon="5.52667">
        <ele>2304</ele>
        <time>2022-01-19T11:38:19Z</time>
      </trkpt>
      <trkpt lat="44.8706" lon="5.52667">
        <ele>2304</ele>
        <time>2022-01-19T11:38:20Z</time>
      </trkpt>
      <trkpt lat="44.87059" lon="5.52667">
        <ele>2304.1</ele>
        <time>2022-01-19T11:38:21Z</time>
      </trkpt>
      <trkpt lat="44.87059" lon="5.52667">
        <ele>2304.2</ele>
        <time>2022-01-19T11:38:22Z</time>
      </trkpt>
      <trkpt lat="44.87059" lon="5.52666">
        <ele>2304.3</ele>
        <time>2022-01-19T11:38:23Z</time>
      </trkpt>
      <trkpt lat="44.87059" lon="5.52666">
        <ele>2304.3</ele>
        <time>2022-01-19T11:38:24Z</time>
      </trkpt>
      <trkpt lat="44.87059" lon="5.52666">
        <ele>2304.3</ele>
        <time>2022-01-19T11:38:25Z</time>
      </trkpt>
      <trkpt lat="44.87059" lon="5.52666">
        <ele>2304.3</ele>
        <time>2022-01-19T11:38:26Z</time>
      </trkpt>
      <trkpt lat="44.87059" lon="5.52666">
        <ele>2304.3</ele>
        <time>2022-01-19T11:38:27Z</time>
      </trkpt>
      <trkpt lat="44.87059" lon="5.52666">
        <ele>2304.3</ele>
        <time>2022-01-19T11:38:28Z</time>
      </trkpt>
      <trkpt lat="44.87059" lon="5.52666">
        <ele>2304.3</ele>
        <time>2022-01-19T11:38:29Z</time>
      </trkpt>
      <trkpt lat="44.87059" lon="5.52666">
        <ele>2304.3</ele>
        <time>2022-01-19T11:38:30Z</time>
      </trkpt>
      <trkpt lat="44.87059" lon="5.52666">
        <ele>2304.3</ele>
        <time>2022-01-19T11:38:31Z</time>
      </trkpt>
      <trkpt lat="44.87059" lon="5.52666">
        <ele>2304.3</ele>
        <time>2022-01-19T11:38:32Z</time>
      </trkpt>
      <trkpt lat="44.87059" lon="5.52666">
        <ele>2304.3</ele>
        <time>2022-01-19T11:38:33Z</time>
      </trkpt>
      <trkpt lat="44.87059" lon="5.52666">
        <ele>2304.3</ele>
        <time>2022-01-19T11:38:34Z</time>
      </trkpt>
      <trkpt lat="44.87059" lon="5.52666">
        <ele>2304.3</ele>
        <time>2022-01-19T11:38:35Z</time>
      </trkpt>
      <trkpt lat="44.87059" lon="5.52666">
        <ele>2304.3</ele>
        <time>2022-01-19T11:38:36Z</time>
      </trkpt>
      <trkpt lat="44.87059" lon="5.52666">
        <ele>2304.3</ele>
        <time>2022-01-19T11:38:37Z</time>
      </trkpt>
      <trkpt lat="44.87058" lon="5.52666">
        <ele>2304.4</ele>
        <time>2022-01-19T11:38:38Z</time>
      </trkpt>
      <trkpt lat="44.87057" lon="5.52666">
        <ele>2304.5</ele>
        <time>2022-01-19T11:38:39Z</time>
      </trkpt>
      <trkpt lat="44.87056" lon="5.52666">
        <ele>2304.6</ele>
        <time>2022-01-19T11:38:40Z</time>
      </trkpt>
      <trkpt lat="44.87056" lon="5.52666">
        <ele>2304.7</ele>
        <time>2022-01-19T11:38:41Z</time>
      </trkpt>
      <trkpt lat="44.87055" lon="5.52666">
        <ele>2304.8</ele>
        <time>2022-01-19T11:38:42Z</time>
      </trkpt>
      <trkpt lat="44.87055" lon="5.52665">
        <ele>2304.9</ele>
        <time>2022-01-19T11:38:43Z</time>
      </trkpt>
      <trkpt lat="44.87054" lon="5.52665">
        <ele>2305</ele>
        <time>2022-01-19T11:38:44Z</time>
      </trkpt>
      <trkpt lat="44.87053" lon="5.52664">
        <ele>2305.1</ele>
        <time>2022-01-19T11:38:45Z</time>
      </trkpt>
      <trkpt lat="44.87052" lon="5.52664">
        <ele>2305.2</ele>
        <time>2022-01-19T11:38:46Z</time>
      </trkpt>
      <trkpt lat="44.87051" lon="5.52664">
        <ele>2305.4</ele>
        <time>2022-01-19T11:38:47Z</time>
      </trkpt>
      <trkpt lat="44.8705" lon="5.52664">
        <ele>2305.5</ele>
        <time>2022-01-19T11:38:48Z</time>
      </trkpt>
      <trkpt lat="44.87049" lon="5.52663">
        <ele>2305.6</ele>
        <time>2022-01-19T11:38:49Z</time>
      </trkpt>
      <trkpt lat="44.87048" lon="5.52663">
        <ele>2305.7</ele>
        <time>2022-01-19T11:38:50Z</time>
      </trkpt>
      <trkpt lat="44.87047" lon="5.52663">
        <ele>2305.9</ele>
        <time>2022-01-19T11:38:51Z</time>
      </trkpt>
      <trkpt lat="44.87047" lon="5.52662">
        <ele>2306</ele>
        <time>2022-01-19T11:38:52Z</time>
      </trkpt>
      <trkpt lat="44.87046" lon="5.52662">
        <ele>2306.2</ele>
        <time>2022-01-19T11:38:53Z</time>
      </trkpt>
      <trkpt lat="44.87045" lon="5.52662">
        <ele>2306.3</ele>
        <time>2022-01-19T11:38:54Z</time>
      </trkpt>
      <trkpt lat="44.87044" lon="5.52661">
        <ele>2306.4</ele>
        <time>2022-01-19T11:38:55Z</time>
      </trkpt>
      <trkpt lat="44.87043" lon="5.52661">
        <ele>2306.5</ele>
        <time>2022-01-19T11:38:56Z</time>
      </trkpt>
      <trkpt lat="44.87042" lon="5.52661">
        <ele>2306.7</ele>
        <time>2022-01-19T11:38:57Z</time>
      </trkpt>
      <trkpt lat="44.87042" lon="5.52661">
        <ele>2306.8</ele>
        <time>2022-01-19T11:38:58Z</time>
      </trkpt>
      <trkpt lat="44.8704" lon="5.5266">
        <ele>2307</ele>
        <time>2022-01-19T11:38:59Z</time>
      </trkpt>
      <trkpt lat="44.8704" lon="5.5266">
        <ele>2307.1</ele>
        <time>2022-01-19T11:39:00Z</time>
      </trkpt>
      <trkpt lat="44.87039" lon="5.52659">
        <ele>2307.3</ele>
        <time>2022-01-19T11:39:01Z</time>
      </trkpt>
      <trkpt lat="44.87039" lon="5.52659">
        <ele>2307.3</ele>
        <time>2022-01-19T11:39:02Z</time>
      </trkpt>
      <trkpt lat="44.87038" lon="5.52659">
        <ele>2307.5</ele>
        <time>2022-01-19T11:39:03Z</time>
      </trkpt>
      <trkpt lat="44.87037" lon="5.52658">
        <ele>2307.7</ele>
        <time>2022-01-19T11:39:04Z</time>
      </trkpt>
      <trkpt lat="44.87037" lon="5.52658">
        <ele>2307.8</ele>
        <time>2022-01-19T11:39:05Z</time>
      </trkpt>
      <trkpt lat="44.87036" lon="5.52657">
        <ele>2307.9</ele>
        <time>2022-01-19T11:39:06Z</time>
      </trkpt>
      <trkpt lat="44.87035" lon="5.52657">
        <ele>2308.1</ele>
        <time>2022-01-19T11:39:07Z</time>
      </trkpt>
      <trkpt lat="44.87034" lon="5.52657">
        <ele>2308.2</ele>
        <time>2022-01-19T11:39:08Z</time>
      </trkpt>
      <trkpt lat="44.87034" lon="5.52657">
        <ele>2308.4</ele>
        <time>2022-01-19T11:39:09Z</time>
      </trkpt>
      <trkpt lat="44.87032" lon="5.52656">
        <ele>2308.6</ele>
        <time>2022-01-19T11:39:10Z</time>
      </trkpt>
      <trkpt lat="44.87032" lon="5.52656">
        <ele>2308.7</ele>
        <time>2022-01-19T11:39:11Z</time>
      </trkpt>
      <trkpt lat="44.87031" lon="5.52656">
        <ele>2308.8</ele>
        <time>2022-01-19T11:39:12Z</time>
      </trkpt>
      <trkpt lat="44.87031" lon="5.52656">
        <ele>2308.9</ele>
        <time>2022-01-19T11:39:13Z</time>
      </trkpt>
      <trkpt lat="44.8703" lon="5.52656">
        <ele>2309</ele>
        <time>2022-01-19T11:39:14Z</time>
      </trkpt>
      <trkpt lat="44.8703" lon="5.52656">
        <ele>2309.1</ele>
        <time>2022-01-19T11:39:15Z</time>
      </trkpt>
      <trkpt lat="44.8703" lon="5.52656">
        <ele>2309.1</ele>
        <time>2022-01-19T11:39:16Z</time>
      </trkpt>
      <trkpt lat="44.8703" lon="5.52656">
        <ele>2309.1</ele>
        <time>2022-01-19T11:39:17Z</time>
      </trkpt>
      <trkpt lat="44.8703" lon="5.52656">
        <ele>2309.1</ele>
        <time>2022-01-19T11:39:18Z</time>
      </trkpt>
      <trkpt lat="44.87028" lon="5.52656">
        <ele>2309.4</ele>
        <time>2022-01-19T11:39:19Z</time>
      </trkpt>
      <trkpt lat="44.87027" lon="5.52656">
        <ele>2309.5</ele>
        <time>2022-01-19T11:39:20Z</time>
      </trkpt>
      <trkpt lat="44.87027" lon="5.52657">
        <ele>2309.7</ele>
        <time>2022-01-19T11:39:21Z</time>
      </trkpt>
      <trkpt lat="44.87026" lon="5.52656">
        <ele>2309.8</ele>
        <time>2022-01-19T11:39:22Z</time>
      </trkpt>
      <trkpt lat="44.87026" lon="5.52656">
        <ele>2309.8</ele>
        <time>2022-01-19T11:39:23Z</time>
      </trkpt>
      <trkpt lat="44.87025" lon="5.52656">
        <ele>2310</ele>
        <time>2022-01-19T11:39:24Z</time>
      </trkpt>
      <trkpt lat="44.87024" lon="5.52656">
        <ele>2310.1</ele>
        <time>2022-01-19T11:39:25Z</time>
      </trkpt>
      <trkpt lat="44.87024" lon="5.52656">
        <ele>2310.3</ele>
        <time>2022-01-19T11:39:26Z</time>
      </trkpt>
      <trkpt lat="44.87023" lon="5.52656">
        <ele>2310.3</ele>
        <time>2022-01-19T11:39:27Z</time>
      </trkpt>
      <trkpt lat="44.87023" lon="5.52656">
        <ele>2310.5</ele>
        <time>2022-01-19T11:39:28Z</time>
      </trkpt>
      <trkpt lat="44.87022" lon="5.52655">
        <ele>2310.6</ele>
        <time>2022-01-19T11:39:29Z</time>
      </trkpt>
      <trkpt lat="44.87021" lon="5.52655">
        <ele>2310.8</ele>
        <time>2022-01-19T11:39:30Z</time>
      </trkpt>
      <trkpt lat="44.8702" lon="5.52655">
        <ele>2310.9</ele>
        <time>2022-01-19T11:39:31Z</time>
      </trkpt>
      <trkpt lat="44.87019" lon="5.52654">
        <ele>2311.1</ele>
        <time>2022-01-19T11:39:32Z</time>
      </trkpt>
      <trkpt lat="44.87019" lon="5.52654">
        <ele>2311.2</ele>
        <time>2022-01-19T11:39:33Z</time>
      </trkpt>
      <trkpt lat="44.87018" lon="5.52654">
        <ele>2311.3</ele>
        <time>2022-01-19T11:39:34Z</time>
      </trkpt>
      <trkpt lat="44.87017" lon="5.52654">
        <ele>2311.5</ele>
        <time>2022-01-19T11:39:35Z</time>
      </trkpt>
      <trkpt lat="44.87017" lon="5.52654">
        <ele>2311.5</ele>
        <time>2022-01-19T11:39:36Z</time>
      </trkpt>
      <trkpt lat="44.87016" lon="5.52654">
        <ele>2311.7</ele>
        <time>2022-01-19T11:39:37Z</time>
      </trkpt>
      <trkpt lat="44.87015" lon="5.52653">
        <ele>2311.8</ele>
        <time>2022-01-19T11:39:38Z</time>
      </trkpt>
      <trkpt lat="44.87015" lon="5.52653">
        <ele>2311.9</ele>
        <time>2022-01-19T11:39:39Z</time>
      </trkpt>
      <trkpt lat="44.87014" lon="5.52653">
        <ele>2312.1</ele>
        <time>2022-01-19T11:39:40Z</time>
      </trkpt>
      <trkpt lat="44.87013" lon="5.52653">
        <ele>2312.2</ele>
        <time>2022-01-19T11:39:41Z</time>
      </trkpt>
      <trkpt lat="44.87012" lon="5.52653">
        <ele>2312.3</ele>
        <time>2022-01-19T11:39:42Z</time>
      </trkpt>
      <trkpt lat="44.87011" lon="5.52653">
        <ele>2312.5</ele>
        <time>2022-01-19T11:39:43Z</time>
      </trkpt>
      <trkpt lat="44.87011" lon="5.52653">
        <ele>2312.5</ele>
        <time>2022-01-19T11:39:44Z</time>
      </trkpt>
      <trkpt lat="44.8701" lon="5.52652">
        <ele>2312.7</ele>
        <time>2022-01-19T11:39:45Z</time>
      </trkpt>
      <trkpt lat="44.8701" lon="5.52652">
        <ele>2312.7</ele>
        <time>2022-01-19T11:39:46Z</time>
      </trkpt>
      <trkpt lat="44.87009" lon="5.52652">
        <ele>2312.9</ele>
        <time>2022-01-19T11:39:47Z</time>
      </trkpt>
      <trkpt lat="44.87009" lon="5.52653">
        <ele>2312.9</ele>
        <time>2022-01-19T11:39:48Z</time>
      </trkpt>
      <trkpt lat="44.87008" lon="5.52653">
        <ele>2313.1</ele>
        <time>2022-01-19T11:39:49Z</time>
      </trkpt>
      <trkpt lat="44.87007" lon="5.52653">
        <ele>2313.2</ele>
        <time>2022-01-19T11:39:50Z</time>
      </trkpt>
      <trkpt lat="44.87006" lon="5.52653">
        <ele>2313.3</ele>
        <time>2022-01-19T11:39:51Z</time>
      </trkpt>
      <trkpt lat="44.87005" lon="5.52653">
        <ele>2313.5</ele>
        <time>2022-01-19T11:39:52Z</time>
      </trkpt>
      <trkpt lat="44.87005" lon="5.52654">
        <ele>2313.6</ele>
        <time>2022-01-19T11:39:53Z</time>
      </trkpt>
      <trkpt lat="44.87004" lon="5.52654">
        <ele>2313.7</ele>
        <time>2022-01-19T11:39:54Z</time>
      </trkpt>
      <trkpt lat="44.87003" lon="5.52654">
        <ele>2313.8</ele>
        <time>2022-01-19T11:39:55Z</time>
      </trkpt>
      <trkpt lat="44.87003" lon="5.52654">
        <ele>2313.9</ele>
        <time>2022-01-19T11:39:56Z</time>
      </trkpt>
      <trkpt lat="44.87002" lon="5.52654">
        <ele>2314</ele>
        <time>2022-01-19T11:39:57Z</time>
      </trkpt>
      <trkpt lat="44.87002" lon="5.52654">
        <ele>2314.1</ele>
        <time>2022-01-19T11:39:58Z</time>
      </trkpt>
      <trkpt lat="44.87001" lon="5.52654">
        <ele>2314.2</ele>
        <time>2022-01-19T11:39:59Z</time>
      </trkpt>
      <trkpt lat="44.87" lon="5.52654">
        <ele>2314.3</ele>
        <time>2022-01-19T11:40:00Z</time>
      </trkpt>
      <trkpt lat="44.87" lon="5.52655">
        <ele>2314.4</ele>
        <time>2022-01-19T11:40:01Z</time>
      </trkpt>
      <trkpt lat="44.86999" lon="5.52655">
        <ele>2314.5</ele>
        <time>2022-01-19T11:40:02Z</time>
      </trkpt>
      <trkpt lat="44.86998" lon="5.52655">
        <ele>2314.6</ele>
        <time>2022-01-19T11:40:03Z</time>
      </trkpt>
      <trkpt lat="44.86998" lon="5.52655">
        <ele>2314.7</ele>
        <time>2022-01-19T11:40:04Z</time>
      </trkpt>
      <trkpt lat="44.86997" lon="5.52656">
        <ele>2314.8</ele>
        <time>2022-01-19T11:40:05Z</time>
      </trkpt>
      <trkpt lat="44.86997" lon="5.52656">
        <ele>2314.9</ele>
        <time>2022-01-19T11:40:06Z</time>
      </trkpt>
      <trkpt lat="44.86996" lon="5.52657">
        <ele>2315</ele>
        <time>2022-01-19T11:40:07Z</time>
      </trkpt>
      <trkpt lat="44.86995" lon="5.52657">
        <ele>2315.2</ele>
        <time>2022-01-19T11:40:08Z</time>
      </trkpt>
      <trkpt lat="44.86994" lon="5.52657">
        <ele>2315.3</ele>
        <time>2022-01-19T11:40:09Z</time>
      </trkpt>
      <trkpt lat="44.86994" lon="5.52658">
        <ele>2315.3</ele>
        <time>2022-01-19T11:40:10Z</time>
      </trkpt>
      <trkpt lat="44.86993" lon="5.52658">
        <ele>2315.5</ele>
        <time>2022-01-19T11:40:11Z</time>
      </trkpt>
      <trkpt lat="44.86993" lon="5.52658">
        <ele>2315.5</ele>
        <time>2022-01-19T11:40:12Z</time>
      </trkpt>
      <trkpt lat="44.86992" lon="5.52658">
        <ele>2315.6</ele>
        <time>2022-01-19T11:40:13Z</time>
      </trkpt>
      <trkpt lat="44.86992" lon="5.52657">
        <ele>2315.7</ele>
        <time>2022-01-19T11:40:14Z</time>
      </trkpt>
      <trkpt lat="44.86992" lon="5.52657">
        <ele>2315.7</ele>
        <time>2022-01-19T11:40:15Z</time>
      </trkpt>
      <trkpt lat="44.86991" lon="5.52657">
        <ele>2315.8</ele>
        <time>2022-01-19T11:40:16Z</time>
      </trkpt>
      <trkpt lat="44.86991" lon="5.52657">
        <ele>2315.8</ele>
        <time>2022-01-19T11:40:17Z</time>
      </trkpt>
      <trkpt lat="44.86991" lon="5.52657">
        <ele>2315.8</ele>
        <time>2022-01-19T11:40:18Z</time>
      </trkpt>
      <trkpt lat="44.86991" lon="5.52657">
        <ele>2315.8</ele>
        <time>2022-01-19T11:40:19Z</time>
      </trkpt>
      <trkpt lat="44.86991" lon="5.52657">
        <ele>2315.8</ele>
        <time>2022-01-19T11:40:20Z</time>
      </trkpt>
      <trkpt lat="44.86991" lon="5.52657">
        <ele>2315.8</ele>
        <time>2022-01-19T11:40:21Z</time>
      </trkpt>
      <trkpt lat="44.86991" lon="5.52657">
        <ele>2315.8</ele>
        <time>2022-01-19T11:40:22Z</time>
      </trkpt>
      <trkpt lat="44.86992" lon="5.52658">
        <ele>2315.9</ele>
        <time>2022-01-19T11:40:23Z</time>
      </trkpt>
      <trkpt lat="44.86991" lon="5.52659">
        <ele>2316</ele>
        <time>2022-01-19T11:40:24Z</time>
      </trkpt>
      <trkpt lat="44.86991" lon="5.52659">
        <ele>2316</ele>
        <time>2022-01-19T11:40:25Z</time>
      </trkpt>
      <trkpt lat="44.8699" lon="5.52659">
        <ele>2316.2</ele>
        <time>2022-01-19T11:40:26Z</time>
      </trkpt>
      <trkpt lat="44.8699" lon="5.52659">
        <ele>2316.2</ele>
        <time>2022-01-19T11:40:27Z</time>
      </trkpt>
      <trkpt lat="44.86989" lon="5.52659">
        <ele>2316.3</ele>
        <time>2022-01-19T11:40:28Z</time>
      </trkpt>
      <trkpt lat="44.86989" lon="5.52659">
        <ele>2316.4</ele>
        <time>2022-01-19T11:40:29Z</time>
      </trkpt>
      <trkpt lat="44.86988" lon="5.52659">
        <ele>2316.5</ele>
        <time>2022-01-19T11:40:30Z</time>
      </trkpt>
      <trkpt lat="44.86988" lon="5.52659">
        <ele>2316.5</ele>
        <time>2022-01-19T11:40:31Z</time>
      </trkpt>
      <trkpt lat="44.86988" lon="5.52659">
        <ele>2316.5</ele>
        <time>2022-01-19T11:40:32Z</time>
      </trkpt>
      <trkpt lat="44.86987" lon="5.5266">
        <ele>2316.6</ele>
        <time>2022-01-19T11:40:33Z</time>
      </trkpt>
      <trkpt lat="44.86987" lon="5.5266">
        <ele>2316.7</ele>
        <time>2022-01-19T11:40:34Z</time>
      </trkpt>
      <trkpt lat="44.86986" lon="5.5266">
        <ele>2316.8</ele>
        <time>2022-01-19T11:40:35Z</time>
      </trkpt>
      <trkpt lat="44.86986" lon="5.52661">
        <ele>2316.9</ele>
        <time>2022-01-19T11:40:36Z</time>
      </trkpt>
      <trkpt lat="44.86985" lon="5.52661">
        <ele>2317</ele>
        <time>2022-01-19T11:40:37Z</time>
      </trkpt>
      <trkpt lat="44.86985" lon="5.52661">
        <ele>2317</ele>
        <time>2022-01-19T11:40:38Z</time>
      </trkpt>
      <trkpt lat="44.86984" lon="5.52661">
        <ele>2317.1</ele>
        <time>2022-01-19T11:40:39Z</time>
      </trkpt>
      <trkpt lat="44.86984" lon="5.52661">
        <ele>2317.2</ele>
        <time>2022-01-19T11:40:40Z</time>
      </trkpt>
      <trkpt lat="44.86984" lon="5.52662">
        <ele>2317.3</ele>
        <time>2022-01-19T11:40:41Z</time>
      </trkpt>
      <trkpt lat="44.86983" lon="5.52662">
        <ele>2317.4</ele>
        <time>2022-01-19T11:40:42Z</time>
      </trkpt>
      <trkpt lat="44.86982" lon="5.52663">
        <ele>2317.5</ele>
        <time>2022-01-19T11:40:43Z</time>
      </trkpt>
      <trkpt lat="44.86982" lon="5.52663">
        <ele>2317.6</ele>
        <time>2022-01-19T11:40:44Z</time>
      </trkpt>
      <trkpt lat="44.86982" lon="5.52663">
        <ele>2317.7</ele>
        <time>2022-01-19T11:40:45Z</time>
      </trkpt>
      <trkpt lat="44.86981" lon="5.52663">
        <ele>2317.8</ele>
        <time>2022-01-19T11:40:46Z</time>
      </trkpt>
      <trkpt lat="44.86981" lon="5.52664">
        <ele>2317.8</ele>
        <time>2022-01-19T11:40:47Z</time>
      </trkpt>
      <trkpt lat="44.8698" lon="5.52664">
        <ele>2317.9</ele>
        <time>2022-01-19T11:40:48Z</time>
      </trkpt>
      <trkpt lat="44.86979" lon="5.52664">
        <ele>2318</ele>
        <time>2022-01-19T11:40:49Z</time>
      </trkpt>
      <trkpt lat="44.86979" lon="5.52664">
        <ele>2318.2</ele>
        <time>2022-01-19T11:40:50Z</time>
      </trkpt>
      <trkpt lat="44.86978" lon="5.52664">
        <ele>2318.2</ele>
        <time>2022-01-19T11:40:51Z</time>
      </trkpt>
      <trkpt lat="44.86977" lon="5.52664">
        <ele>2318.4</ele>
        <time>2022-01-19T11:40:52Z</time>
      </trkpt>
      <trkpt lat="44.86977" lon="5.52664">
        <ele>2318.5</ele>
        <time>2022-01-19T11:40:53Z</time>
      </trkpt>
      <trkpt lat="44.86976" lon="5.52664">
        <ele>2318.6</ele>
        <time>2022-01-19T11:40:54Z</time>
      </trkpt>
      <trkpt lat="44.86975" lon="5.52664">
        <ele>2318.7</ele>
        <time>2022-01-19T11:40:55Z</time>
      </trkpt>
      <trkpt lat="44.86975" lon="5.52664">
        <ele>2318.8</ele>
        <time>2022-01-19T11:40:56Z</time>
      </trkpt>
      <trkpt lat="44.86974" lon="5.52664">
        <ele>2318.9</ele>
        <time>2022-01-19T11:40:57Z</time>
      </trkpt>
      <trkpt lat="44.86974" lon="5.52664">
        <ele>2319</ele>
        <time>2022-01-19T11:40:58Z</time>
      </trkpt>
      <trkpt lat="44.86973" lon="5.52663">
        <ele>2319.1</ele>
        <time>2022-01-19T11:40:59Z</time>
      </trkpt>
      <trkpt lat="44.86973" lon="5.52663">
        <ele>2319.1</ele>
        <time>2022-01-19T11:41:00Z</time>
      </trkpt>
      <trkpt lat="44.86973" lon="5.52663">
        <ele>2319.1</ele>
        <time>2022-01-19T11:41:01Z</time>
      </trkpt>
      <trkpt lat="44.86972" lon="5.52664">
        <ele>2319.1</ele>
        <time>2022-01-19T11:41:02Z</time>
      </trkpt>
      <trkpt lat="44.86971" lon="5.52664">
        <ele>2319.1</ele>
        <time>2022-01-19T11:41:03Z</time>
      </trkpt>
      <trkpt lat="44.86971" lon="5.52664">
        <ele>2319.1</ele>
        <time>2022-01-19T11:41:04Z</time>
      </trkpt>
      <trkpt lat="44.8697" lon="5.52665">
        <ele>2319.1</ele>
        <time>2022-01-19T11:41:05Z</time>
      </trkpt>
      <trkpt lat="44.86969" lon="5.52664">
        <ele>2319.1</ele>
        <time>2022-01-19T11:41:06Z</time>
      </trkpt>
      <trkpt lat="44.86969" lon="5.52664">
        <ele>2319.1</ele>
        <time>2022-01-19T11:41:07Z</time>
      </trkpt>
      <trkpt lat="44.86968" lon="5.52665">
        <ele>2319.1</ele>
        <time>2022-01-19T11:41:08Z</time>
      </trkpt>
      <trkpt lat="44.86968" lon="5.52665">
        <ele>2319.1</ele>
        <time>2022-01-19T11:41:09Z</time>
      </trkpt>
      <trkpt lat="44.86968" lon="5.52666">
        <ele>2319.1</ele>
        <time>2022-01-19T11:41:10Z</time>
      </trkpt>
      <trkpt lat="44.86968" lon="5.52667">
        <ele>2319.1</ele>
        <time>2022-01-19T11:41:11Z</time>
      </trkpt>
      <trkpt lat="44.86968" lon="5.52667">
        <ele>2319.1</ele>
        <time>2022-01-19T11:41:12Z</time>
      </trkpt>
      <trkpt lat="44.86968" lon="5.52667">
        <ele>2319.1</ele>
        <time>2022-01-19T11:41:13Z</time>
      </trkpt>
      <trkpt lat="44.86968" lon="5.52667">
        <ele>2319.1</ele>
        <time>2022-01-19T11:41:14Z</time>
      </trkpt>
      <trkpt lat="44.86967" lon="5.52666">
        <ele>2319.1</ele>
        <time>2022-01-19T11:41:15Z</time>
      </trkpt>
      <trkpt lat="44.86967" lon="5.52665">
        <ele>2319.1</ele>
        <time>2022-01-19T11:41:16Z</time>
      </trkpt>
      <trkpt lat="44.86966" lon="5.52664">
        <ele>2319.1</ele>
        <time>2022-01-19T11:41:17Z</time>
      </trkpt>
      <trkpt lat="44.86966" lon="5.52663">
        <ele>2319.1</ele>
        <time>2022-01-19T11:41:18Z</time>
      </trkpt>
      <trkpt lat="44.86966" lon="5.52662">
        <ele>2319.1</ele>
        <time>2022-01-19T11:41:19Z</time>
      </trkpt>
      <trkpt lat="44.86965" lon="5.52661">
        <ele>2319.1</ele>
        <time>2022-01-19T11:41:20Z</time>
      </trkpt>
      <trkpt lat="44.86965" lon="5.5266">
        <ele>2319.1</ele>
        <time>2022-01-19T11:41:21Z</time>
      </trkpt>
      <trkpt lat="44.86965" lon="5.52659">
        <ele>2319.1</ele>
        <time>2022-01-19T11:41:22Z</time>
      </trkpt>
      <trkpt lat="44.86965" lon="5.52659">
        <ele>2319.1</ele>
        <time>2022-01-19T11:41:23Z</time>
      </trkpt>
      <trkpt lat="44.86965" lon="5.52658">
        <ele>2319.1</ele>
        <time>2022-01-19T11:41:24Z</time>
      </trkpt>
      <trkpt lat="44.86964" lon="5.52658">
        <ele>2319.1</ele>
        <time>2022-01-19T11:41:25Z</time>
      </trkpt>
      <trkpt lat="44.86963" lon="5.52657">
        <ele>2319.1</ele>
        <time>2022-01-19T11:41:26Z</time>
      </trkpt>
      <trkpt lat="44.86963" lon="5.52656">
        <ele>2319.1</ele>
        <time>2022-01-19T11:41:27Z</time>
      </trkpt>
      <trkpt lat="44.86963" lon="5.52657">
        <ele>2319.1</ele>
        <time>2022-01-19T11:41:28Z</time>
      </trkpt>
      <trkpt lat="44.86963" lon="5.52657">
        <ele>2319.1</ele>
        <time>2022-01-19T11:41:29Z</time>
      </trkpt>
      <trkpt lat="44.86963" lon="5.52657">
        <ele>2319.1</ele>
        <time>2022-01-19T11:41:30Z</time>
      </trkpt>
      <trkpt lat="44.86963" lon="5.52657">
        <ele>2319.1</ele>
        <time>2022-01-19T11:41:31Z</time>
      </trkpt>
      <trkpt lat="44.86963" lon="5.52657">
        <ele>2319.1</ele>
        <time>2022-01-19T11:41:32Z</time>
      </trkpt>
      <trkpt lat="44.86963" lon="5.52657">
        <ele>2319.1</ele>
        <time>2022-01-19T11:41:33Z</time>
      </trkpt>
      <trkpt lat="44.86963" lon="5.52657">
        <ele>2319.1</ele>
        <time>2022-01-19T11:41:34Z</time>
      </trkpt>
      <trkpt lat="44.86963" lon="5.52657">
        <ele>2319.1</ele>
        <time>2022-01-19T11:41:35Z</time>
      </trkpt>
      <trkpt lat="44.86963" lon="5.52657">
        <ele>2319.1</ele>
        <time>2022-01-19T11:41:36Z</time>
      </trkpt>
      <trkpt lat="44.86963" lon="5.52657">
        <ele>2319.1</ele>
        <time>2022-01-19T11:41:37Z</time>
      </trkpt>
      <trkpt lat="44.86963" lon="5.52657">
        <ele>2319.1</ele>
        <time>2022-01-19T11:41:38Z</time>
      </trkpt>
      <trkpt lat="44.86963" lon="5.52657">
        <ele>2319.1</ele>
        <time>2022-01-19T11:41:39Z</time>
      </trkpt>
      <trkpt lat="44.86963" lon="5.52657">
        <ele>2319.1</ele>
        <time>2022-01-19T11:41:40Z</time>
      </trkpt>
      <trkpt lat="44.86963" lon="5.52658">
        <ele>2319.1</ele>
        <time>2022-01-19T11:41:41Z</time>
      </trkpt>
      <trkpt lat="44.86964" lon="5.52658">
        <ele>2319.1</ele>
        <time>2022-01-19T11:41:42Z</time>
      </trkpt>
      <trkpt lat="44.86964" lon="5.52658">
        <ele>2319.1</ele>
        <time>2022-01-19T11:41:43Z</time>
      </trkpt>
      <trkpt lat="44.86965" lon="5.52659">
        <ele>2319.1</ele>
        <time>2022-01-19T11:41:44Z</time>
      </trkpt>
      <trkpt lat="44.86966" lon="5.5266">
        <ele>2319.1</ele>
        <time>2022-01-19T11:41:45Z</time>
      </trkpt>
      <trkpt lat="44.86966" lon="5.5266">
        <ele>2319.1</ele>
        <time>2022-01-19T11:41:46Z</time>
      </trkpt>
      <trkpt lat="44.86967" lon="5.52661">
        <ele>2319.1</ele>
        <time>2022-01-19T11:41:47Z</time>
      </trkpt>
      <trkpt lat="44.86967" lon="5.52661">
        <ele>2319.1</ele>
        <time>2022-01-19T11:41:48Z</time>
      </trkpt>
      <trkpt lat="44.86968" lon="5.52662">
        <ele>2319.1</ele>
        <time>2022-01-19T11:41:49Z</time>
      </trkpt>
      <trkpt lat="44.86968" lon="5.52663">
        <ele>2319.1</ele>
        <time>2022-01-19T11:41:50Z</time>
      </trkpt>
      <trkpt lat="44.86969" lon="5.52663">
        <ele>2319.1</ele>
        <time>2022-01-19T11:41:51Z</time>
      </trkpt>
      <trkpt lat="44.8697" lon="5.52663">
        <ele>2319.1</ele>
        <time>2022-01-19T11:41:52Z</time>
      </trkpt>
      <trkpt lat="44.86971" lon="5.52663">
        <ele>2319.1</ele>
        <time>2022-01-19T11:41:53Z</time>
      </trkpt>
      <trkpt lat="44.86971" lon="5.52664">
        <ele>2319.1</ele>
        <time>2022-01-19T11:41:54Z</time>
      </trkpt>
      <trkpt lat="44.86972" lon="5.52665">
        <ele>2319.1</ele>
        <time>2022-01-19T11:41:55Z</time>
      </trkpt>
      <trkpt lat="44.86972" lon="5.52665">
        <ele>2319.1</ele>
        <time>2022-01-19T11:41:56Z</time>
      </trkpt>
      <trkpt lat="44.86972" lon="5.52665">
        <ele>2319.1</ele>
        <time>2022-01-19T11:41:57Z</time>
      </trkpt>
      <trkpt lat="44.86973" lon="5.52666">
        <ele>2319.1</ele>
        <time>2022-01-19T11:41:58Z</time>
      </trkpt>
      <trkpt lat="44.86973" lon="5.52666">
        <ele>2319.1</ele>
        <time>2022-01-19T11:41:59Z</time>
      </trkpt>
      <trkpt lat="44.86973" lon="5.52667">
        <ele>2319.1</ele>
        <time>2022-01-19T11:42:00Z</time>
      </trkpt>
      <trkpt lat="44.86973" lon="5.52666">
        <ele>2319.1</ele>
        <time>2022-01-19T11:42:01Z</time>
      </trkpt>
      <trkpt lat="44.86973" lon="5.52666">
        <ele>2319.1</ele>
        <time>2022-01-19T11:42:02Z</time>
      </trkpt>
      <trkpt lat="44.86974" lon="5.52666">
        <ele>2319.1</ele>
        <time>2022-01-19T11:42:03Z</time>
      </trkpt>
      <trkpt lat="44.86974" lon="5.52666">
        <ele>2319.1</ele>
        <time>2022-01-19T11:42:04Z</time>
      </trkpt>
      <trkpt lat="44.86975" lon="5.52665">
        <ele>2319.1</ele>
        <time>2022-01-19T11:42:05Z</time>
      </trkpt>
      <trkpt lat="44.86975" lon="5.52665">
        <ele>2319.2</ele>
        <time>2022-01-19T11:42:06Z</time>
      </trkpt>
      <trkpt lat="44.86976" lon="5.52665">
        <ele>2319.2</ele>
        <time>2022-01-19T11:42:07Z</time>
      </trkpt>
      <trkpt lat="44.86977" lon="5.52664">
        <ele>2319.2</ele>
        <time>2022-01-19T11:42:08Z</time>
      </trkpt>
      <trkpt lat="44.86977" lon="5.52664">
        <ele>2319.2</ele>
        <time>2022-01-19T11:42:09Z</time>
      </trkpt>
      <trkpt lat="44.86977" lon="5.52664">
        <ele>2319.2</ele>
        <time>2022-01-19T11:42:10Z</time>
      </trkpt>
      <trkpt lat="44.86977" lon="5.52664">
        <ele>2319.2</ele>
        <time>2022-01-19T11:42:11Z</time>
      </trkpt>
      <trkpt lat="44.86977" lon="5.52664">
        <ele>2319.2</ele>
        <time>2022-01-19T11:42:12Z</time>
      </trkpt>
      <trkpt lat="44.86977" lon="5.52664">
        <ele>2319.2</ele>
        <time>2022-01-19T11:42:13Z</time>
      </trkpt>
      <trkpt lat="44.86977" lon="5.52664">
        <ele>2319.2</ele>
        <time>2022-01-19T11:42:14Z</time>
      </trkpt>
      <trkpt lat="44.86977" lon="5.52664">
        <ele>2319.2</ele>
        <time>2022-01-19T11:42:15Z</time>
      </trkpt>
      <trkpt lat="44.86977" lon="5.52664">
        <ele>2319.2</ele>
        <time>2022-01-19T11:42:16Z</time>
      </trkpt>
      <trkpt lat="44.86977" lon="5.52664">
        <ele>2319.2</ele>
        <time>2022-01-19T11:42:17Z</time>
      </trkpt>
      <trkpt lat="44.86977" lon="5.52664">
        <ele>2319.2</ele>
        <time>2022-01-19T11:42:18Z</time>
      </trkpt>
      <trkpt lat="44.86977" lon="5.52664">
        <ele>2319.2</ele>
        <time>2022-01-19T11:42:19Z</time>
      </trkpt>
      <trkpt lat="44.86977" lon="5.52664">
        <ele>2319.2</ele>
        <time>2022-01-19T11:42:20Z</time>
      </trkpt>
      <trkpt lat="44.86977" lon="5.52664">
        <ele>2319.2</ele>
        <time>2022-01-19T11:42:21Z</time>
      </trkpt>
      <trkpt lat="44.86977" lon="5.52664">
        <ele>2319.2</ele>
        <time>2022-01-19T11:42:22Z</time>
      </trkpt>
      <trkpt lat="44.86977" lon="5.52664">
        <ele>2319.2</ele>
        <time>2022-01-19T11:42:23Z</time>
      </trkpt>
      <trkpt lat="44.86977" lon="5.52664">
        <ele>2319.2</ele>
        <time>2022-01-19T11:42:24Z</time>
      </trkpt>
      <trkpt lat="44.86977" lon="5.52664">
        <ele>2319.2</ele>
        <time>2022-01-19T11:42:25Z</time>
      </trkpt>
      <trkpt lat="44.86977" lon="5.52664">
        <ele>2319.2</ele>
        <time>2022-01-19T11:42:26Z</time>
      </trkpt>
      <trkpt lat="44.86977" lon="5.52664">
        <ele>2319.2</ele>
        <time>2022-01-19T11:42:27Z</time>
      </trkpt>
      <trkpt lat="44.86976" lon="5.52664">
        <ele>2319.2</ele>
        <time>2022-01-19T11:42:28Z</time>
      </trkpt>
      <trkpt lat="44.86975" lon="5.52664">
        <ele>2319.2</ele>
        <time>2022-01-19T11:42:29Z</time>
      </trkpt>
      <trkpt lat="44.86975" lon="5.52664">
        <ele>2319.2</ele>
        <time>2022-01-19T11:42:30Z</time>
      </trkpt>
      <trkpt lat="44.86974" lon="5.52664">
        <ele>2319.2</ele>
        <time>2022-01-19T11:42:31Z</time>
      </trkpt>
      <trkpt lat="44.86974" lon="5.52664">
        <ele>2319.2</ele>
        <time>2022-01-19T11:42:32Z</time>
      </trkpt>
      <trkpt lat="44.86973" lon="5.52665">
        <ele>2319.2</ele>
        <time>2022-01-19T11:42:33Z</time>
      </trkpt>
      <trkpt lat="44.86973" lon="5.52665">
        <ele>2319.2</ele>
        <time>2022-01-19T11:42:34Z</time>
      </trkpt>
      <trkpt lat="44.86972" lon="5.52665">
        <ele>2319.2</ele>
        <time>2022-01-19T11:42:35Z</time>
      </trkpt>
      <trkpt lat="44.86971" lon="5.52665">
        <ele>2319.2</ele>
        <time>2022-01-19T11:42:36Z</time>
      </trkpt>
      <trkpt lat="44.86971" lon="5.52665">
        <ele>2319.2</ele>
        <time>2022-01-19T11:42:37Z</time>
      </trkpt>
      <trkpt lat="44.8697" lon="5.52665">
        <ele>2319.2</ele>
        <time>2022-01-19T11:42:38Z</time>
      </trkpt>
      <trkpt lat="44.8697" lon="5.52664">
        <ele>2319.2</ele>
        <time>2022-01-19T11:42:39Z</time>
      </trkpt>
      <trkpt lat="44.86969" lon="5.52664">
        <ele>2319.2</ele>
        <time>2022-01-19T11:42:40Z</time>
      </trkpt>
      <trkpt lat="44.86969" lon="5.52664">
        <ele>2319.2</ele>
        <time>2022-01-19T11:42:41Z</time>
      </trkpt>
      <trkpt lat="44.86968" lon="5.52664">
        <ele>2319.2</ele>
        <time>2022-01-19T11:42:42Z</time>
      </trkpt>
      <trkpt lat="44.86968" lon="5.52664">
        <ele>2319.2</ele>
        <time>2022-01-19T11:42:43Z</time>
      </trkpt>
      <trkpt lat="44.86968" lon="5.52664">
        <ele>2319.2</ele>
        <time>2022-01-19T11:42:44Z</time>
      </trkpt>
      <trkpt lat="44.86968" lon="5.52664">
        <ele>2319.2</ele>
        <time>2022-01-19T11:42:45Z</time>
      </trkpt>
      <trkpt lat="44.86967" lon="5.52664">
        <ele>2319.2</ele>
        <time>2022-01-19T11:42:46Z</time>
      </trkpt>
      <trkpt lat="44.86966" lon="5.52664">
        <ele>2319.2</ele>
        <time>2022-01-19T11:42:47Z</time>
      </trkpt>
      <trkpt lat="44.86966" lon="5.52664">
        <ele>2319.2</ele>
        <time>2022-01-19T11:42:48Z</time>
      </trkpt>
      <trkpt lat="44.86966" lon="5.52663">
        <ele>2319.2</ele>
        <time>2022-01-19T11:42:49Z</time>
      </trkpt>
      <trkpt lat="44.86965" lon="5.52663">
        <ele>2319.2</ele>
        <time>2022-01-19T11:42:50Z</time>
      </trkpt>
      <trkpt lat="44.86965" lon="5.52663">
        <ele>2319.2</ele>
        <time>2022-01-19T11:42:51Z</time>
      </trkpt>
      <trkpt lat="44.86964" lon="5.52663">
        <ele>2319.2</ele>
        <time>2022-01-19T11:42:52Z</time>
      </trkpt>
      <trkpt lat="44.86964" lon="5.52663">
        <ele>2319.2</ele>
        <time>2022-01-19T11:42:53Z</time>
      </trkpt>
      <trkpt lat="44.86963" lon="5.52663">
        <ele>2319.2</ele>
        <time>2022-01-19T11:42:54Z</time>
      </trkpt>
      <trkpt lat="44.86963" lon="5.52663">
        <ele>2319.2</ele>
        <time>2022-01-19T11:42:55Z</time>
      </trkpt>
      <trkpt lat="44.86963" lon="5.52663">
        <ele>2319.2</ele>
        <time>2022-01-19T11:42:56Z</time>
      </trkpt>
      <trkpt lat="44.86963" lon="5.52663">
        <ele>2319.2</ele>
        <time>2022-01-19T11:42:57Z</time>
      </trkpt>
      <trkpt lat="44.86963" lon="5.52663">
        <ele>2319.2</ele>
        <time>2022-01-19T11:42:58Z</time>
      </trkpt>
      <trkpt lat="44.86963" lon="5.52663">
        <ele>2319.2</ele>
        <time>2022-01-19T11:42:59Z</time>
      </trkpt>
      <trkpt lat="44.86963" lon="5.52663">
        <ele>2319.2</ele>
        <time>2022-01-19T11:43:00Z</time>
      </trkpt>
      <trkpt lat="44.86963" lon="5.52663">
        <ele>2319.2</ele>
        <time>2022-01-19T11:43:01Z</time>
      </trkpt>
      <trkpt lat="44.86963" lon="5.52663">
        <ele>2319.2</ele>
        <time>2022-01-19T11:43:02Z</time>
      </trkpt>
      <trkpt lat="44.86963" lon="5.52663">
        <ele>2319.2</ele>
        <time>2022-01-19T11:43:03Z</time>
      </trkpt>
      <trkpt lat="44.86963" lon="5.52663">
        <ele>2319.2</ele>
        <time>2022-01-19T11:43:04Z</time>
      </trkpt>
      <trkpt lat="44.86963" lon="5.52663">
        <ele>2319.2</ele>
        <time>2022-01-19T11:43:05Z</time>
      </trkpt>
      <trkpt lat="44.86963" lon="5.52663">
        <ele>2319.2</ele>
        <time>2022-01-19T11:43:06Z</time>
      </trkpt>
      <trkpt lat="44.86963" lon="5.52663">
        <ele>2319.2</ele>
        <time>2022-01-19T11:43:07Z</time>
      </trkpt>
      <trkpt lat="44.86963" lon="5.52663">
        <ele>2319.2</ele>
        <time>2022-01-19T11:43:08Z</time>
      </trkpt>
      <trkpt lat="44.86963" lon="5.52663">
        <ele>2319.2</ele>
        <time>2022-01-19T11:43:09Z</time>
      </trkpt>
      <trkpt lat="44.86963" lon="5.52663">
        <ele>2319.2</ele>
        <time>2022-01-19T11:43:10Z</time>
      </trkpt>
      <trkpt lat="44.86963" lon="5.52663">
        <ele>2319.2</ele>
        <time>2022-01-19T11:43:11Z</time>
      </trkpt>
      <trkpt lat="44.86963" lon="5.52663">
        <ele>2319.2</ele>
        <time>2022-01-19T11:43:12Z</time>
      </trkpt>
      <trkpt lat="44.86963" lon="5.52663">
        <ele>2319.2</ele>
        <time>2022-01-19T11:43:13Z</time>
      </trkpt>
      <trkpt lat="44.86963" lon="5.52663">
        <ele>2319.2</ele>
        <time>2022-01-19T11:43:14Z</time>
      </trkpt>
      <trkpt lat="44.86963" lon="5.52663">
        <ele>2319.2</ele>
        <time>2022-01-19T11:43:15Z</time>
      </trkpt>
      <trkpt lat="44.86963" lon="5.52663">
        <ele>2319.2</ele>
        <time>2022-01-19T11:43:16Z</time>
      </trkpt>
      <trkpt lat="44.86963" lon="5.52663">
        <ele>2319.2</ele>
        <time>2022-01-19T11:43:17Z</time>
      </trkpt>
      <trkpt lat="44.86964" lon="5.52663">
        <ele>2319.2</ele>
        <time>2022-01-19T11:43:18Z</time>
      </trkpt>
      <trkpt lat="44.86964" lon="5.52664">
        <ele>2319.2</ele>
        <time>2022-01-19T11:43:19Z</time>
      </trkpt>
      <trkpt lat="44.86964" lon="5.52664">
        <ele>2319.2</ele>
        <time>2022-01-19T11:43:20Z</time>
      </trkpt>
      <trkpt lat="44.86965" lon="5.52664">
        <ele>2319.2</ele>
        <time>2022-01-19T11:43:21Z</time>
      </trkpt>
      <trkpt lat="44.86965" lon="5.52664">
        <ele>2319.2</ele>
        <time>2022-01-19T11:43:22Z</time>
      </trkpt>
      <trkpt lat="44.86965" lon="5.52665">
        <ele>2319.2</ele>
        <time>2022-01-19T11:43:23Z</time>
      </trkpt>
      <trkpt lat="44.86965" lon="5.52665">
        <ele>2319.2</ele>
        <time>2022-01-19T11:43:24Z</time>
      </trkpt>
      <trkpt lat="44.86965" lon="5.52665">
        <ele>2319.2</ele>
        <time>2022-01-19T11:43:25Z</time>
      </trkpt>
      <trkpt lat="44.86965" lon="5.52665">
        <ele>2319.2</ele>
        <time>2022-01-19T11:43:26Z</time>
      </trkpt>
      <trkpt lat="44.86965" lon="5.52665">
        <ele>2319.2</ele>
        <time>2022-01-19T11:43:27Z</time>
      </trkpt>
      <trkpt lat="44.86965" lon="5.52665">
        <ele>2319.2</ele>
        <time>2022-01-19T11:43:28Z</time>
      </trkpt>
      <trkpt lat="44.86965" lon="5.52665">
        <ele>2319.2</ele>
        <time>2022-01-19T11:43:29Z</time>
      </trkpt>
      <trkpt lat="44.86965" lon="5.52665">
        <ele>2319.2</ele>
        <time>2022-01-19T11:43:30Z</time>
      </trkpt>
      <trkpt lat="44.86965" lon="5.52665">
        <ele>2319.2</ele>
        <time>2022-01-19T11:43:31Z</time>
      </trkpt>
      <trkpt lat="44.86965" lon="5.52665">
        <ele>2319.2</ele>
        <time>2022-01-19T11:43:32Z</time>
      </trkpt>
      <trkpt lat="44.86965" lon="5.52665">
        <ele>2319.2</ele>
        <time>2022-01-19T11:43:33Z</time>
      </trkpt>
      <trkpt lat="44.86965" lon="5.52665">
        <ele>2319.2</ele>
        <time>2022-01-19T11:43:34Z</time>
      </trkpt>
      <trkpt lat="44.86965" lon="5.52665">
        <ele>2319.2</ele>
        <time>2022-01-19T11:43:35Z</time>
      </trkpt>
      <trkpt lat="44.86965" lon="5.52665">
        <ele>2319.2</ele>
        <time>2022-01-19T11:43:36Z</time>
      </trkpt>
      <trkpt lat="44.86965" lon="5.52665">
        <ele>2319.2</ele>
        <time>2022-01-19T11:43:37Z</time>
      </trkpt>
      <trkpt lat="44.86965" lon="5.52665">
        <ele>2319.2</ele>
        <time>2022-01-19T11:43:38Z</time>
      </trkpt>
      <trkpt lat="44.86965" lon="5.52665">
        <ele>2319.2</ele>
        <time>2022-01-19T11:43:39Z</time>
      </trkpt>
      <trkpt lat="44.86965" lon="5.52665">
        <ele>2319.2</ele>
        <time>2022-01-19T11:43:40Z</time>
      </trkpt>
      <trkpt lat="44.86965" lon="5.52665">
        <ele>2319.2</ele>
        <time>2022-01-19T11:43:41Z</time>
      </trkpt>
      <trkpt lat="44.86965" lon="5.52665">
        <ele>2319.2</ele>
        <time>2022-01-19T11:43:42Z</time>
      </trkpt>
      <trkpt lat="44.86965" lon="5.52665">
        <ele>2319.2</ele>
        <time>2022-01-19T11:43:43Z</time>
      </trkpt>
      <trkpt lat="44.86965" lon="5.52665">
        <ele>2319.2</ele>
        <time>2022-01-19T11:43:44Z</time>
      </trkpt>
      <trkpt lat="44.86965" lon="5.52665">
        <ele>2319.2</ele>
        <time>2022-01-19T11:43:45Z</time>
      </trkpt>
      <trkpt lat="44.86965" lon="5.52665">
        <ele>2319.2</ele>
        <time>2022-01-19T11:43:46Z</time>
      </trkpt>
      <trkpt lat="44.86965" lon="5.52665">
        <ele>2319.2</ele>
        <time>2022-01-19T11:43:47Z</time>
      </trkpt>
      <trkpt lat="44.86965" lon="5.52665">
        <ele>2319.2</ele>
        <time>2022-01-19T11:43:48Z</time>
      </trkpt>
      <trkpt lat="44.86965" lon="5.52665">
        <ele>2319.2</ele>
        <time>2022-01-19T11:43:49Z</time>
      </trkpt>
      <trkpt lat="44.86965" lon="5.52665">
        <ele>2319.2</ele>
        <time>2022-01-19T11:43:50Z</time>
      </trkpt>
      <trkpt lat="44.86965" lon="5.52665">
        <ele>2319.2</ele>
        <time>2022-01-19T11:43:51Z</time>
      </trkpt>
      <trkpt lat="44.86965" lon="5.52665">
        <ele>2319.2</ele>
        <time>2022-01-19T11:43:52Z</time>
      </trkpt>
      <trkpt lat="44.86965" lon="5.52665">
        <ele>2319.2</ele>
        <time>2022-01-19T11:43:53Z</time>
      </trkpt>
      <trkpt lat="44.86965" lon="5.52665">
        <ele>2319.2</ele>
        <time>2022-01-19T11:43:54Z</time>
      </trkpt>
      <trkpt lat="44.86965" lon="5.52665">
        <ele>2319.2</ele>
        <time>2022-01-19T11:43:55Z</time>
      </trkpt>
      <trkpt lat="44.86965" lon="5.52665">
        <ele>2319.2</ele>
        <time>2022-01-19T11:43:56Z</time>
      </trkpt>
      <trkpt lat="44.86965" lon="5.52665">
        <ele>2319.2</ele>
        <time>2022-01-19T11:43:57Z</time>
      </trkpt>
      <trkpt lat="44.86965" lon="5.52665">
        <ele>2319.2</ele>
        <time>2022-01-19T11:43:58Z</time>
      </trkpt>
      <trkpt lat="44.86965" lon="5.52664">
        <ele>2319.2</ele>
        <time>2022-01-19T11:43:59Z</time>
      </trkpt>
      <trkpt lat="44.86965" lon="5.52663">
        <ele>2319.2</ele>
        <time>2022-01-19T11:44:00Z</time>
      </trkpt>
      <trkpt lat="44.86964" lon="5.52663">
        <ele>2319.2</ele>
        <time>2022-01-19T11:44:01Z</time>
      </trkpt>
      <trkpt lat="44.86964" lon="5.52662">
        <ele>2319.2</ele>
        <time>2022-01-19T11:44:02Z</time>
      </trkpt>
      <trkpt lat="44.86964" lon="5.52661">
        <ele>2319.2</ele>
        <time>2022-01-19T11:44:03Z</time>
      </trkpt>
      <trkpt lat="44.86964" lon="5.52661">
        <ele>2319.2</ele>
        <time>2022-01-19T11:44:04Z</time>
      </trkpt>
      <trkpt lat="44.86964" lon="5.52661">
        <ele>2319.2</ele>
        <time>2022-01-19T11:44:05Z</time>
      </trkpt>
      <trkpt lat="44.86964" lon="5.52661">
        <ele>2319.2</ele>
        <time>2022-01-19T11:44:06Z</time>
      </trkpt>
      <trkpt lat="44.86964" lon="5.5266">
        <ele>2319.2</ele>
        <time>2022-01-19T11:44:07Z</time>
      </trkpt>
      <trkpt lat="44.86964" lon="5.5266">
        <ele>2319.2</ele>
        <time>2022-01-19T11:44:08Z</time>
      </trkpt>
      <trkpt lat="44.86964" lon="5.52659">
        <ele>2319.2</ele>
        <time>2022-01-19T11:44:09Z</time>
      </trkpt>
      <trkpt lat="44.86964" lon="5.52658">
        <ele>2319.2</ele>
        <time>2022-01-19T11:44:10Z</time>
      </trkpt>
      <trkpt lat="44.86963" lon="5.52658">
        <ele>2319.2</ele>
        <time>2022-01-19T11:44:11Z</time>
      </trkpt>
      <trkpt lat="44.86963" lon="5.52657">
        <ele>2319.2</ele>
        <time>2022-01-19T11:44:12Z</time>
      </trkpt>
      <trkpt lat="44.86963" lon="5.52656">
        <ele>2319.2</ele>
        <time>2022-01-19T11:44:13Z</time>
      </trkpt>
      <trkpt lat="44.86962" lon="5.52655">
        <ele>2319.2</ele>
        <time>2022-01-19T11:44:14Z</time>
      </trkpt>
      <trkpt lat="44.86961" lon="5.52655">
        <ele>2319.2</ele>
        <time>2022-01-19T11:44:15Z</time>
      </trkpt>
      <trkpt lat="44.86961" lon="5.52655">
        <ele>2319.2</ele>
        <time>2022-01-19T11:44:16Z</time>
      </trkpt>
      <trkpt lat="44.8696" lon="5.52655">
        <ele>2319.2</ele>
        <time>2022-01-19T11:44:17Z</time>
      </trkpt>
      <trkpt lat="44.8696" lon="5.52655">
        <ele>2319.2</ele>
        <time>2022-01-19T11:44:18Z</time>
      </trkpt>
      <trkpt lat="44.8696" lon="5.52655">
        <ele>2319.2</ele>
        <time>2022-01-19T11:44:19Z</time>
      </trkpt>
      <trkpt lat="44.8696" lon="5.52655">
        <ele>2319.2</ele>
        <time>2022-01-19T11:44:20Z</time>
      </trkpt>
      <trkpt lat="44.8696" lon="5.52655">
        <ele>2319.2</ele>
        <time>2022-01-19T11:44:21Z</time>
      </trkpt>
      <trkpt lat="44.8696" lon="5.52655">
        <ele>2319.2</ele>
        <time>2022-01-19T11:44:22Z</time>
      </trkpt>
      <trkpt lat="44.8696" lon="5.52655">
        <ele>2319.2</ele>
        <time>2022-01-19T11:44:23Z</time>
      </trkpt>
      <trkpt lat="44.8696" lon="5.52655">
        <ele>2319.2</ele>
        <time>2022-01-19T11:44:24Z</time>
      </trkpt>
      <trkpt lat="44.8696" lon="5.52655">
        <ele>2319.2</ele>
        <time>2022-01-19T11:44:25Z</time>
      </trkpt>
      <trkpt lat="44.8696" lon="5.52655">
        <ele>2319.2</ele>
        <time>2022-01-19T11:44:26Z</time>
      </trkpt>
      <trkpt lat="44.8696" lon="5.52655">
        <ele>2319.2</ele>
        <time>2022-01-19T11:44:27Z</time>
      </trkpt>
      <trkpt lat="44.8696" lon="5.52655">
        <ele>2319.2</ele>
        <time>2022-01-19T11:44:28Z</time>
      </trkpt>
      <trkpt lat="44.8696" lon="5.52655">
        <ele>2319.2</ele>
        <time>2022-01-19T11:44:29Z</time>
      </trkpt>
      <trkpt lat="44.8696" lon="5.52655">
        <ele>2319.2</ele>
        <time>2022-01-19T11:44:30Z</time>
      </trkpt>
      <trkpt lat="44.8696" lon="5.52655">
        <ele>2319.2</ele>
        <time>2022-01-19T11:44:31Z</time>
      </trkpt>
      <trkpt lat="44.8696" lon="5.52655">
        <ele>2319.2</ele>
        <time>2022-01-19T11:44:32Z</time>
      </trkpt>
      <trkpt lat="44.8696" lon="5.52655">
        <ele>2319.2</ele>
        <time>2022-01-19T11:44:33Z</time>
      </trkpt>
      <trkpt lat="44.8696" lon="5.52655">
        <ele>2319.2</ele>
        <time>2022-01-19T11:44:34Z</time>
      </trkpt>
      <trkpt lat="44.8696" lon="5.52655">
        <ele>2319.2</ele>
        <time>2022-01-19T11:44:35Z</time>
      </trkpt>
      <trkpt lat="44.8696" lon="5.52655">
        <ele>2319.2</ele>
        <time>2022-01-19T11:44:36Z</time>
      </trkpt>
      <trkpt lat="44.8696" lon="5.52655">
        <ele>2319.2</ele>
        <time>2022-01-19T11:44:37Z</time>
      </trkpt>
      <trkpt lat="44.8696" lon="5.52655">
        <ele>2319.2</ele>
        <time>2022-01-19T11:44:38Z</time>
      </trkpt>
      <trkpt lat="44.8696" lon="5.52655">
        <ele>2319.2</ele>
        <time>2022-01-19T11:44:39Z</time>
      </trkpt>
      <trkpt lat="44.8696" lon="5.52655">
        <ele>2319.2</ele>
        <time>2022-01-19T11:44:40Z</time>
      </trkpt>
      <trkpt lat="44.8696" lon="5.52655">
        <ele>2319.2</ele>
        <time>2022-01-19T11:44:41Z</time>
      </trkpt>
      <trkpt lat="44.8696" lon="5.52655">
        <ele>2319.2</ele>
        <time>2022-01-19T11:44:42Z</time>
      </trkpt>
      <trkpt lat="44.8696" lon="5.52655">
        <ele>2319.2</ele>
        <time>2022-01-19T11:44:43Z</time>
      </trkpt>
      <trkpt lat="44.8696" lon="5.52655">
        <ele>2319.2</ele>
        <time>2022-01-19T11:44:44Z</time>
      </trkpt>
      <trkpt lat="44.8696" lon="5.52655">
        <ele>2319.2</ele>
        <time>2022-01-19T11:44:45Z</time>
      </trkpt>
      <trkpt lat="44.8696" lon="5.52655">
        <ele>2319.2</ele>
        <time>2022-01-19T11:44:46Z</time>
      </trkpt>
      <trkpt lat="44.8696" lon="5.52655">
        <ele>2319.2</ele>
        <time>2022-01-19T11:44:47Z</time>
      </trkpt>
      <trkpt lat="44.8696" lon="5.52655">
        <ele>2319.2</ele>
        <time>2022-01-19T11:44:48Z</time>
      </trkpt>
      <trkpt lat="44.8696" lon="5.52655">
        <ele>2319.2</ele>
        <time>2022-01-19T11:44:49Z</time>
      </trkpt>
      <trkpt lat="44.8696" lon="5.52655">
        <ele>2319.2</ele>
        <time>2022-01-19T11:44:50Z</time>
      </trkpt>
      <trkpt lat="44.8696" lon="5.52655">
        <ele>2319.2</ele>
        <time>2022-01-19T11:44:51Z</time>
      </trkpt>
      <trkpt lat="44.8696" lon="5.52655">
        <ele>2319.2</ele>
        <time>2022-01-19T11:44:52Z</time>
      </trkpt>
      <trkpt lat="44.8696" lon="5.52655">
        <ele>2319.2</ele>
        <time>2022-01-19T11:44:53Z</time>
      </trkpt>
      <trkpt lat="44.8696" lon="5.52655">
        <ele>2319.2</ele>
        <time>2022-01-19T11:44:54Z</time>
      </trkpt>
      <trkpt lat="44.8696" lon="5.52655">
        <ele>2319.2</ele>
        <time>2022-01-19T11:44:55Z</time>
      </trkpt>
      <trkpt lat="44.8696" lon="5.52655">
        <ele>2319.2</ele>
        <time>2022-01-19T11:44:56Z</time>
      </trkpt>
      <trkpt lat="44.8696" lon="5.52655">
        <ele>2319.2</ele>
        <time>2022-01-19T11:44:57Z</time>
      </trkpt>
      <trkpt lat="44.8696" lon="5.52655">
        <ele>2319.2</ele>
        <time>2022-01-19T11:44:58Z</time>
      </trkpt>
      <trkpt lat="44.8696" lon="5.52655">
        <ele>2319.2</ele>
        <time>2022-01-19T11:44:59Z</time>
      </trkpt>
      <trkpt lat="44.8696" lon="5.52655">
        <ele>2319.2</ele>
        <time>2022-01-19T11:45:00Z</time>
      </trkpt>
      <trkpt lat="44.8696" lon="5.52655">
        <ele>2319.2</ele>
        <time>2022-01-19T11:45:01Z</time>
      </trkpt>
      <trkpt lat="44.8696" lon="5.52655">
        <ele>2319.2</ele>
        <time>2022-01-19T11:45:02Z</time>
      </trkpt>
      <trkpt lat="44.8696" lon="5.52656">
        <ele>2319.2</ele>
        <time>2022-01-19T11:45:03Z</time>
      </trkpt>
      <trkpt lat="44.8696" lon="5.52656">
        <ele>2319.2</ele>
        <time>2022-01-19T11:45:04Z</time>
      </trkpt>
      <trkpt lat="44.8696" lon="5.52656">
        <ele>2319.2</ele>
        <time>2022-01-19T11:45:05Z</time>
      </trkpt>
      <trkpt lat="44.8696" lon="5.52656">
        <ele>2319.2</ele>
        <time>2022-01-19T11:45:06Z</time>
      </trkpt>
      <trkpt lat="44.8696" lon="5.52656">
        <ele>2319.2</ele>
        <time>2022-01-19T11:45:07Z</time>
      </trkpt>
      <trkpt lat="44.8696" lon="5.52656">
        <ele>2319.2</ele>
        <time>2022-01-19T11:45:08Z</time>
      </trkpt>
      <trkpt lat="44.8696" lon="5.52656">
        <ele>2319.2</ele>
        <time>2022-01-19T11:45:09Z</time>
      </trkpt>
      <trkpt lat="44.8696" lon="5.52656">
        <ele>2319.2</ele>
        <time>2022-01-19T11:45:10Z</time>
      </trkpt>
      <trkpt lat="44.8696" lon="5.52656">
        <ele>2319.2</ele>
        <time>2022-01-19T11:45:11Z</time>
      </trkpt>
      <trkpt lat="44.8696" lon="5.52656">
        <ele>2319.2</ele>
        <time>2022-01-19T11:45:12Z</time>
      </trkpt>
      <trkpt lat="44.8696" lon="5.52656">
        <ele>2319.2</ele>
        <time>2022-01-19T11:45:13Z</time>
      </trkpt>
      <trkpt lat="44.8696" lon="5.52656">
        <ele>2319.2</ele>
        <time>2022-01-19T11:45:14Z</time>
      </trkpt>
      <trkpt lat="44.8696" lon="5.52656">
        <ele>2319.2</ele>
        <time>2022-01-19T11:45:15Z</time>
      </trkpt>
      <trkpt lat="44.8696" lon="5.52656">
        <ele>2319.2</ele>
        <time>2022-01-19T11:45:16Z</time>
      </trkpt>
      <trkpt lat="44.8696" lon="5.52656">
        <ele>2319.2</ele>
        <time>2022-01-19T11:45:17Z</time>
      </trkpt>
      <trkpt lat="44.8696" lon="5.52656">
        <ele>2319.2</ele>
        <time>2022-01-19T11:45:18Z</time>
      </trkpt>
      <trkpt lat="44.8696" lon="5.52656">
        <ele>2319.2</ele>
        <time>2022-01-19T11:45:19Z</time>
      </trkpt>
      <trkpt lat="44.8696" lon="5.52656">
        <ele>2319.2</ele>
        <time>2022-01-19T11:45:20Z</time>
      </trkpt>
      <trkpt lat="44.8696" lon="5.52656">
        <ele>2319.2</ele>
        <time>2022-01-19T11:45:21Z</time>
      </trkpt>
      <trkpt lat="44.8696" lon="5.52656">
        <ele>2319.2</ele>
        <time>2022-01-19T11:45:22Z</time>
      </trkpt>
      <trkpt lat="44.8696" lon="5.52656">
        <ele>2319.2</ele>
        <time>2022-01-19T11:45:23Z</time>
      </trkpt>
      <trkpt lat="44.8696" lon="5.52656">
        <ele>2319.2</ele>
        <time>2022-01-19T11:45:24Z</time>
      </trkpt>
      <trkpt lat="44.8696" lon="5.52656">
        <ele>2319.2</ele>
        <time>2022-01-19T11:45:25Z</time>
      </trkpt>
      <trkpt lat="44.8696" lon="5.52656">
        <ele>2319.2</ele>
        <time>2022-01-19T11:45:26Z</time>
      </trkpt>
      <trkpt lat="44.8696" lon="5.52656">
        <ele>2319.2</ele>
        <time>2022-01-19T11:45:27Z</time>
      </trkpt>
      <trkpt lat="44.8696" lon="5.52656">
        <ele>2319.2</ele>
        <time>2022-01-19T11:45:28Z</time>
      </trkpt>
      <trkpt lat="44.8696" lon="5.52656">
        <ele>2319.2</ele>
        <time>2022-01-19T11:45:29Z</time>
      </trkpt>
      <trkpt lat="44.8696" lon="5.52656">
        <ele>2319.2</ele>
        <time>2022-01-19T11:45:30Z</time>
      </trkpt>
      <trkpt lat="44.8696" lon="5.52656">
        <ele>2319.2</ele>
        <time>2022-01-19T11:45:31Z</time>
      </trkpt>
      <trkpt lat="44.8696" lon="5.52656">
        <ele>2319.2</ele>
        <time>2022-01-19T11:45:32Z</time>
      </trkpt>
      <trkpt lat="44.8696" lon="5.52656">
        <ele>2319.2</ele>
        <time>2022-01-19T11:45:33Z</time>
      </trkpt>
      <trkpt lat="44.8696" lon="5.52656">
        <ele>2319.2</ele>
        <time>2022-01-19T11:45:34Z</time>
      </trkpt>
      <trkpt lat="44.8696" lon="5.52656">
        <ele>2319.2</ele>
        <time>2022-01-19T11:45:35Z</time>
      </trkpt>
      <trkpt lat="44.8696" lon="5.52656">
        <ele>2319.2</ele>
        <time>2022-01-19T11:45:36Z</time>
      </trkpt>
      <trkpt lat="44.8696" lon="5.52656">
        <ele>2319.2</ele>
        <time>2022-01-19T11:45:37Z</time>
      </trkpt>
      <trkpt lat="44.8696" lon="5.52656">
        <ele>2319.2</ele>
        <time>2022-01-19T11:45:38Z</time>
      </trkpt>
      <trkpt lat="44.8696" lon="5.52656">
        <ele>2319.2</ele>
        <time>2022-01-19T11:45:39Z</time>
      </trkpt>
      <trkpt lat="44.8696" lon="5.52656">
        <ele>2319.2</ele>
        <time>2022-01-19T11:45:40Z</time>
      </trkpt>
      <trkpt lat="44.8696" lon="5.52656">
        <ele>2319.2</ele>
        <time>2022-01-19T11:45:41Z</time>
      </trkpt>
      <trkpt lat="44.8696" lon="5.52656">
        <ele>2319.2</ele>
        <time>2022-01-19T11:45:42Z</time>
      </trkpt>
      <trkpt lat="44.8696" lon="5.52656">
        <ele>2319.2</ele>
        <time>2022-01-19T11:45:43Z</time>
      </trkpt>
      <trkpt lat="44.8696" lon="5.52656">
        <ele>2319.2</ele>
        <time>2022-01-19T11:45:44Z</time>
      </trkpt>
      <trkpt lat="44.8696" lon="5.52656">
        <ele>2319.2</ele>
        <time>2022-01-19T11:45:45Z</time>
      </trkpt>
      <trkpt lat="44.8696" lon="5.52656">
        <ele>2319.2</ele>
        <time>2022-01-19T11:45:46Z</time>
      </trkpt>
      <trkpt lat="44.8696" lon="5.52656">
        <ele>2319.2</ele>
        <time>2022-01-19T11:45:47Z</time>
      </trkpt>
      <trkpt lat="44.8696" lon="5.52656">
        <ele>2319.2</ele>
        <time>2022-01-19T11:45:48Z</time>
      </trkpt>
      <trkpt lat="44.8696" lon="5.52656">
        <ele>2319.2</ele>
        <time>2022-01-19T11:45:49Z</time>
      </trkpt>
      <trkpt lat="44.8696" lon="5.52656">
        <ele>2319.2</ele>
        <time>2022-01-19T11:45:50Z</time>
      </trkpt>
      <trkpt lat="44.8696" lon="5.52656">
        <ele>2319.2</ele>
        <time>2022-01-19T11:45:51Z</time>
      </trkpt>
      <trkpt lat="44.8696" lon="5.52656">
        <ele>2319.2</ele>
        <time>2022-01-19T11:45:52Z</time>
      </trkpt>
      <trkpt lat="44.8696" lon="5.52656">
        <ele>2319.2</ele>
        <time>2022-01-19T11:45:53Z</time>
      </trkpt>
      <trkpt lat="44.8696" lon="5.52656">
        <ele>2319.2</ele>
        <time>2022-01-19T11:45:54Z</time>
      </trkpt>
      <trkpt lat="44.8696" lon="5.52656">
        <ele>2319.2</ele>
        <time>2022-01-19T11:45:55Z</time>
      </trkpt>
      <trkpt lat="44.8696" lon="5.52656">
        <ele>2319.2</ele>
        <time>2022-01-19T11:45:56Z</time>
      </trkpt>
      <trkpt lat="44.8696" lon="5.52656">
        <ele>2319.2</ele>
        <time>2022-01-19T11:45:57Z</time>
      </trkpt>
      <trkpt lat="44.8696" lon="5.52656">
        <ele>2319.2</ele>
        <time>2022-01-19T11:45:58Z</time>
      </trkpt>
      <trkpt lat="44.8696" lon="5.52656">
        <ele>2319.2</ele>
        <time>2022-01-19T11:45:59Z</time>
      </trkpt>
      <trkpt lat="44.8696" lon="5.52656">
        <ele>2319.2</ele>
        <time>2022-01-19T11:46:00Z</time>
      </trkpt>
      <trkpt lat="44.8696" lon="5.52656">
        <ele>2319.2</ele>
        <time>2022-01-19T11:46:01Z</time>
      </trkpt>
      <trkpt lat="44.8696" lon="5.52656">
        <ele>2319.2</ele>
        <time>2022-01-19T11:46:02Z</time>
      </trkpt>
      <trkpt lat="44.8696" lon="5.52656">
        <ele>2319.2</ele>
        <time>2022-01-19T11:46:03Z</time>
      </trkpt>
      <trkpt lat="44.8696" lon="5.52656">
        <ele>2319.2</ele>
        <time>2022-01-19T11:46:04Z</time>
      </trkpt>
      <trkpt lat="44.8696" lon="5.52656">
        <ele>2319.2</ele>
        <time>2022-01-19T11:46:05Z</time>
      </trkpt>
      <trkpt lat="44.8696" lon="5.52656">
        <ele>2319.2</ele>
        <time>2022-01-19T11:46:06Z</time>
      </trkpt>
      <trkpt lat="44.8696" lon="5.52656">
        <ele>2319.2</ele>
        <time>2022-01-19T11:46:07Z</time>
      </trkpt>
      <trkpt lat="44.8696" lon="5.52656">
        <ele>2319.2</ele>
        <time>2022-01-19T11:46:08Z</time>
      </trkpt>
      <trkpt lat="44.8696" lon="5.52656">
        <ele>2319.2</ele>
        <time>2022-01-19T11:46:09Z</time>
      </trkpt>
      <trkpt lat="44.8696" lon="5.52656">
        <ele>2319.2</ele>
        <time>2022-01-19T11:46:10Z</time>
      </trkpt>
      <trkpt lat="44.8696" lon="5.52656">
        <ele>2319.2</ele>
        <time>2022-01-19T11:46:11Z</time>
      </trkpt>
      <trkpt lat="44.8696" lon="5.52656">
        <ele>2319.2</ele>
        <time>2022-01-19T11:46:12Z</time>
      </trkpt>
      <trkpt lat="44.8696" lon="5.52656">
        <ele>2319.2</ele>
        <time>2022-01-19T11:46:13Z</time>
      </trkpt>
      <trkpt lat="44.8696" lon="5.52656">
        <ele>2319.2</ele>
        <time>2022-01-19T11:46:14Z</time>
      </trkpt>
      <trkpt lat="44.8696" lon="5.52656">
        <ele>2319.2</ele>
        <time>2022-01-19T11:46:15Z</time>
      </trkpt>
      <trkpt lat="44.8696" lon="5.52656">
        <ele>2319.2</ele>
        <time>2022-01-19T11:46:16Z</time>
      </trkpt>
      <trkpt lat="44.8696" lon="5.52656">
        <ele>2319.2</ele>
        <time>2022-01-19T11:46:17Z</time>
      </trkpt>
      <trkpt lat="44.8696" lon="5.52656">
        <ele>2319.2</ele>
        <time>2022-01-19T11:46:18Z</time>
      </trkpt>
      <trkpt lat="44.8696" lon="5.52656">
        <ele>2319.2</ele>
        <time>2022-01-19T11:46:19Z</time>
      </trkpt>
      <trkpt lat="44.8696" lon="5.52656">
        <ele>2319.2</ele>
        <time>2022-01-19T11:46:20Z</time>
      </trkpt>
      <trkpt lat="44.8696" lon="5.52656">
        <ele>2319.2</ele>
        <time>2022-01-19T11:46:21Z</time>
      </trkpt>
      <trkpt lat="44.8696" lon="5.52656">
        <ele>2319.2</ele>
        <time>2022-01-19T11:46:22Z</time>
      </trkpt>
      <trkpt lat="44.8696" lon="5.52656">
        <ele>2319.2</ele>
        <time>2022-01-19T11:46:23Z</time>
      </trkpt>
      <trkpt lat="44.8696" lon="5.52656">
        <ele>2319.2</ele>
        <time>2022-01-19T11:46:24Z</time>
      </trkpt>
      <trkpt lat="44.8696" lon="5.52656">
        <ele>2319.2</ele>
        <time>2022-01-19T11:46:25Z</time>
      </trkpt>
      <trkpt lat="44.8696" lon="5.52656">
        <ele>2319.2</ele>
        <time>2022-01-19T11:46:26Z</time>
      </trkpt>
      <trkpt lat="44.8696" lon="5.52656">
        <ele>2319.2</ele>
        <time>2022-01-19T11:46:27Z</time>
      </trkpt>
      <trkpt lat="44.8696" lon="5.52656">
        <ele>2319.2</ele>
        <time>2022-01-19T11:46:28Z</time>
      </trkpt>
      <trkpt lat="44.8696" lon="5.52656">
        <ele>2319.2</ele>
        <time>2022-01-19T11:46:29Z</time>
      </trkpt>
      <trkpt lat="44.8696" lon="5.52656">
        <ele>2319.2</ele>
        <time>2022-01-19T11:46:30Z</time>
      </trkpt>
      <trkpt lat="44.8696" lon="5.52656">
        <ele>2319.2</ele>
        <time>2022-01-19T11:46:31Z</time>
      </trkpt>
      <trkpt lat="44.8696" lon="5.52656">
        <ele>2319.2</ele>
        <time>2022-01-19T11:46:32Z</time>
      </trkpt>
      <trkpt lat="44.8696" lon="5.52656">
        <ele>2319.2</ele>
        <time>2022-01-19T11:46:33Z</time>
      </trkpt>
      <trkpt lat="44.8696" lon="5.52656">
        <ele>2319.2</ele>
        <time>2022-01-19T11:46:34Z</time>
      </trkpt>
      <trkpt lat="44.8696" lon="5.52656">
        <ele>2319.2</ele>
        <time>2022-01-19T11:46:35Z</time>
      </trkpt>
      <trkpt lat="44.8696" lon="5.52656">
        <ele>2319.2</ele>
        <time>2022-01-19T11:46:36Z</time>
      </trkpt>
      <trkpt lat="44.8696" lon="5.52656">
        <ele>2319.2</ele>
        <time>2022-01-19T11:46:37Z</time>
      </trkpt>
      <trkpt lat="44.86962" lon="5.52657">
        <ele>2319.2</ele>
        <time>2022-01-19T11:46:38Z</time>
      </trkpt>
      <trkpt lat="44.86962" lon="5.52658">
        <ele>2319.2</ele>
        <time>2022-01-19T11:46:39Z</time>
      </trkpt>
      <trkpt lat="44.86961" lon="5.52658">
        <ele>2319.2</ele>
        <time>2022-01-19T11:46:40Z</time>
      </trkpt>
      <trkpt lat="44.86961" lon="5.52658">
        <ele>2319.2</ele>
        <time>2022-01-19T11:46:41Z</time>
      </trkpt>
      <trkpt lat="44.86961" lon="5.52659">
        <ele>2319.2</ele>
        <time>2022-01-19T11:46:42Z</time>
      </trkpt>
      <trkpt lat="44.86961" lon="5.52659">
        <ele>2319.2</ele>
        <time>2022-01-19T11:46:43Z</time>
      </trkpt>
      <trkpt lat="44.86961" lon="5.5266">
        <ele>2319.2</ele>
        <time>2022-01-19T11:46:44Z</time>
      </trkpt>
      <trkpt lat="44.86961" lon="5.5266">
        <ele>2319.2</ele>
        <time>2022-01-19T11:46:45Z</time>
      </trkpt>
      <trkpt lat="44.86961" lon="5.52661">
        <ele>2319.2</ele>
        <time>2022-01-19T11:46:46Z</time>
      </trkpt>
      <trkpt lat="44.86961" lon="5.52661">
        <ele>2319.2</ele>
        <time>2022-01-19T11:46:47Z</time>
      </trkpt>
      <trkpt lat="44.86961" lon="5.52661">
        <ele>2319.2</ele>
        <time>2022-01-19T11:46:48Z</time>
      </trkpt>
      <trkpt lat="44.86961" lon="5.52661">
        <ele>2319.2</ele>
        <time>2022-01-19T11:46:49Z</time>
      </trkpt>
      <trkpt lat="44.86961" lon="5.52661">
        <ele>2319.2</ele>
        <time>2022-01-19T11:46:50Z</time>
      </trkpt>
      <trkpt lat="44.86961" lon="5.52661">
        <ele>2319.2</ele>
        <time>2022-01-19T11:46:51Z</time>
      </trkpt>
      <trkpt lat="44.86961" lon="5.52661">
        <ele>2319.2</ele>
        <time>2022-01-19T11:46:52Z</time>
      </trkpt>
      <trkpt lat="44.86963" lon="5.52664">
        <ele>2319.2</ele>
        <time>2022-01-19T11:46:53Z</time>
      </trkpt>
      <trkpt lat="44.86963" lon="5.52665">
        <ele>2319.2</ele>
        <time>2022-01-19T11:46:54Z</time>
      </trkpt>
      <trkpt lat="44.86964" lon="5.52665">
        <ele>2319.2</ele>
        <time>2022-01-19T11:46:55Z</time>
      </trkpt>
      <trkpt lat="44.86964" lon="5.52665">
        <ele>2319.2</ele>
        <time>2022-01-19T11:46:56Z</time>
      </trkpt>
      <trkpt lat="44.86964" lon="5.52666">
        <ele>2319.2</ele>
        <time>2022-01-19T11:46:57Z</time>
      </trkpt>
      <trkpt lat="44.86965" lon="5.52666">
        <ele>2319.2</ele>
        <time>2022-01-19T11:46:58Z</time>
      </trkpt>
      <trkpt lat="44.86965" lon="5.52667">
        <ele>2319.2</ele>
        <time>2022-01-19T11:46:59Z</time>
      </trkpt>
      <trkpt lat="44.86965" lon="5.52667">
        <ele>2319.2</ele>
        <time>2022-01-19T11:47:00Z</time>
      </trkpt>
      <trkpt lat="44.86965" lon="5.52667">
        <ele>2319.2</ele>
        <time>2022-01-19T11:47:01Z</time>
      </trkpt>
      <trkpt lat="44.86965" lon="5.52667">
        <ele>2319.2</ele>
        <time>2022-01-19T11:47:02Z</time>
      </trkpt>
      <trkpt lat="44.86965" lon="5.52667">
        <ele>2319.2</ele>
        <time>2022-01-19T11:47:03Z</time>
      </trkpt>
      <trkpt lat="44.86965" lon="5.52667">
        <ele>2319.2</ele>
        <time>2022-01-19T11:47:04Z</time>
      </trkpt>
      <trkpt lat="44.86965" lon="5.52667">
        <ele>2319.2</ele>
        <time>2022-01-19T11:47:05Z</time>
      </trkpt>
      <trkpt lat="44.86965" lon="5.52667">
        <ele>2319.2</ele>
        <time>2022-01-19T11:47:06Z</time>
      </trkpt>
      <trkpt lat="44.86965" lon="5.52667">
        <ele>2319.2</ele>
        <time>2022-01-19T11:47:07Z</time>
      </trkpt>
      <trkpt lat="44.86965" lon="5.52667">
        <ele>2319.2</ele>
        <time>2022-01-19T11:47:08Z</time>
      </trkpt>
      <trkpt lat="44.86965" lon="5.52667">
        <ele>2319.2</ele>
        <time>2022-01-19T11:47:09Z</time>
      </trkpt>
      <trkpt lat="44.86965" lon="5.52667">
        <ele>2319.2</ele>
        <time>2022-01-19T11:47:10Z</time>
      </trkpt>
      <trkpt lat="44.86965" lon="5.52667">
        <ele>2319.2</ele>
        <time>2022-01-19T11:47:11Z</time>
      </trkpt>
      <trkpt lat="44.86965" lon="5.52667">
        <ele>2319.2</ele>
        <time>2022-01-19T11:47:12Z</time>
      </trkpt>
      <trkpt lat="44.86965" lon="5.52667">
        <ele>2319.2</ele>
        <time>2022-01-19T11:47:13Z</time>
      </trkpt>
      <trkpt lat="44.86965" lon="5.52667">
        <ele>2319.2</ele>
        <time>2022-01-19T11:47:14Z</time>
      </trkpt>
      <trkpt lat="44.86965" lon="5.52667">
        <ele>2319.2</ele>
        <time>2022-01-19T11:47:15Z</time>
      </trkpt>
      <trkpt lat="44.86965" lon="5.52667">
        <ele>2319.2</ele>
        <time>2022-01-19T11:47:16Z</time>
      </trkpt>
      <trkpt lat="44.86965" lon="5.52667">
        <ele>2319.2</ele>
        <time>2022-01-19T11:47:17Z</time>
      </trkpt>
      <trkpt lat="44.86965" lon="5.52667">
        <ele>2319.2</ele>
        <time>2022-01-19T11:47:18Z</time>
      </trkpt>
      <trkpt lat="44.86965" lon="5.52667">
        <ele>2319.2</ele>
        <time>2022-01-19T11:47:19Z</time>
      </trkpt>
      <trkpt lat="44.86965" lon="5.52667">
        <ele>2319.2</ele>
        <time>2022-01-19T11:47:20Z</time>
      </trkpt>
      <trkpt lat="44.86965" lon="5.52667">
        <ele>2319.2</ele>
        <time>2022-01-19T11:47:21Z</time>
      </trkpt>
      <trkpt lat="44.86965" lon="5.52667">
        <ele>2319.2</ele>
        <time>2022-01-19T11:47:22Z</time>
      </trkpt>
      <trkpt lat="44.86965" lon="5.52667">
        <ele>2319.2</ele>
        <time>2022-01-19T11:47:23Z</time>
      </trkpt>
      <trkpt lat="44.86965" lon="5.52667">
        <ele>2319.2</ele>
        <time>2022-01-19T11:47:24Z</time>
      </trkpt>
      <trkpt lat="44.86965" lon="5.52667">
        <ele>2319.2</ele>
        <time>2022-01-19T11:47:25Z</time>
      </trkpt>
      <trkpt lat="44.86965" lon="5.52667">
        <ele>2319.2</ele>
        <time>2022-01-19T11:47:26Z</time>
      </trkpt>
      <trkpt lat="44.86965" lon="5.52667">
        <ele>2319.2</ele>
        <time>2022-01-19T11:47:27Z</time>
      </trkpt>
      <trkpt lat="44.86965" lon="5.52667">
        <ele>2319.2</ele>
        <time>2022-01-19T11:47:28Z</time>
      </trkpt>
      <trkpt lat="44.86965" lon="5.52667">
        <ele>2319.2</ele>
        <time>2022-01-19T11:47:29Z</time>
      </trkpt>
      <trkpt lat="44.86965" lon="5.52667">
        <ele>2319.2</ele>
        <time>2022-01-19T11:47:30Z</time>
      </trkpt>
      <trkpt lat="44.86965" lon="5.52667">
        <ele>2319.2</ele>
        <time>2022-01-19T11:47:31Z</time>
      </trkpt>
      <trkpt lat="44.86965" lon="5.52667">
        <ele>2319.2</ele>
        <time>2022-01-19T11:47:32Z</time>
      </trkpt>
      <trkpt lat="44.86965" lon="5.52667">
        <ele>2319.2</ele>
        <time>2022-01-19T11:47:33Z</time>
      </trkpt>
      <trkpt lat="44.86965" lon="5.52667">
        <ele>2319.1</ele>
        <time>2022-01-19T11:47:34Z</time>
      </trkpt>
      <trkpt lat="44.86965" lon="5.52667">
        <ele>2319.1</ele>
        <time>2022-01-19T11:47:35Z</time>
      </trkpt>
      <trkpt lat="44.86965" lon="5.52667">
        <ele>2319.1</ele>
        <time>2022-01-19T11:47:36Z</time>
      </trkpt>
      <trkpt lat="44.86965" lon="5.52667">
        <ele>2319</ele>
        <time>2022-01-19T11:47:37Z</time>
      </trkpt>
      <trkpt lat="44.86965" lon="5.52667">
        <ele>2319</ele>
        <time>2022-01-19T11:47:38Z</time>
      </trkpt>
      <trkpt lat="44.86965" lon="5.52667">
        <ele>2319</ele>
        <time>2022-01-19T11:47:39Z</time>
      </trkpt>
      <trkpt lat="44.86965" lon="5.52667">
        <ele>2318.9</ele>
        <time>2022-01-19T11:47:40Z</time>
      </trkpt>
      <trkpt lat="44.86965" lon="5.52667">
        <ele>2318.9</ele>
        <time>2022-01-19T11:47:41Z</time>
      </trkpt>
      <trkpt lat="44.86965" lon="5.52667">
        <ele>2318.9</ele>
        <time>2022-01-19T11:47:42Z</time>
      </trkpt>
      <trkpt lat="44.86965" lon="5.52668">
        <ele>2318.8</ele>
        <time>2022-01-19T11:47:43Z</time>
      </trkpt>
      <trkpt lat="44.86965" lon="5.52668">
        <ele>2318.8</ele>
        <time>2022-01-19T11:47:44Z</time>
      </trkpt>
      <trkpt lat="44.86965" lon="5.52668">
        <ele>2318.7</ele>
        <time>2022-01-19T11:47:45Z</time>
      </trkpt>
      <trkpt lat="44.86965" lon="5.52668">
        <ele>2318.7</ele>
        <time>2022-01-19T11:47:46Z</time>
      </trkpt>
      <trkpt lat="44.86965" lon="5.52668">
        <ele>2318.7</ele>
        <time>2022-01-19T11:47:47Z</time>
      </trkpt>
      <trkpt lat="44.86965" lon="5.52668">
        <ele>2318.6</ele>
        <time>2022-01-19T11:47:48Z</time>
      </trkpt>
      <trkpt lat="44.86965" lon="5.52668">
        <ele>2318.6</ele>
        <time>2022-01-19T11:47:49Z</time>
      </trkpt>
      <trkpt lat="44.86965" lon="5.52668">
        <ele>2318.6</ele>
        <time>2022-01-19T11:47:50Z</time>
      </trkpt>
      <trkpt lat="44.86965" lon="5.52668">
        <ele>2318.5</ele>
        <time>2022-01-19T11:47:51Z</time>
      </trkpt>
      <trkpt lat="44.86965" lon="5.52668">
        <ele>2318.5</ele>
        <time>2022-01-19T11:47:52Z</time>
      </trkpt>
      <trkpt lat="44.86965" lon="5.52668">
        <ele>2318.4</ele>
        <time>2022-01-19T11:47:53Z</time>
      </trkpt>
      <trkpt lat="44.86965" lon="5.52668">
        <ele>2318.4</ele>
        <time>2022-01-19T11:47:54Z</time>
      </trkpt>
      <trkpt lat="44.86965" lon="5.52668">
        <ele>2318.4</ele>
        <time>2022-01-19T11:47:55Z</time>
      </trkpt>
      <trkpt lat="44.86965" lon="5.52668">
        <ele>2318.3</ele>
        <time>2022-01-19T11:47:56Z</time>
      </trkpt>
      <trkpt lat="44.86965" lon="5.52668">
        <ele>2318.3</ele>
        <time>2022-01-19T11:47:57Z</time>
      </trkpt>
      <trkpt lat="44.86965" lon="5.52668">
        <ele>2318.3</ele>
        <time>2022-01-19T11:47:58Z</time>
      </trkpt>
      <trkpt lat="44.86965" lon="5.52668">
        <ele>2318.2</ele>
        <time>2022-01-19T11:47:59Z</time>
      </trkpt>
      <trkpt lat="44.86965" lon="5.52668">
        <ele>2318.2</ele>
        <time>2022-01-19T11:48:00Z</time>
      </trkpt>
      <trkpt lat="44.86965" lon="5.52668">
        <ele>2318.2</ele>
        <time>2022-01-19T11:48:01Z</time>
      </trkpt>
      <trkpt lat="44.86965" lon="5.52668">
        <ele>2318.1</ele>
        <time>2022-01-19T11:48:02Z</time>
      </trkpt>
      <trkpt lat="44.86965" lon="5.52668">
        <ele>2318.1</ele>
        <time>2022-01-19T11:48:03Z</time>
      </trkpt>
      <trkpt lat="44.86965" lon="5.52668">
        <ele>2318</ele>
        <time>2022-01-19T11:48:04Z</time>
      </trkpt>
      <trkpt lat="44.86965" lon="5.52668">
        <ele>2318</ele>
        <time>2022-01-19T11:48:05Z</time>
      </trkpt>
      <trkpt lat="44.86965" lon="5.52668">
        <ele>2318</ele>
        <time>2022-01-19T11:48:06Z</time>
      </trkpt>
      <trkpt lat="44.86965" lon="5.52668">
        <ele>2317.9</ele>
        <time>2022-01-19T11:48:07Z</time>
      </trkpt>
      <trkpt lat="44.86965" lon="5.52668">
        <ele>2317.9</ele>
        <time>2022-01-19T11:48:08Z</time>
      </trkpt>
      <trkpt lat="44.86965" lon="5.52668">
        <ele>2317.9</ele>
        <time>2022-01-19T11:48:09Z</time>
      </trkpt>
      <trkpt lat="44.86965" lon="5.52668">
        <ele>2317.8</ele>
        <time>2022-01-19T11:48:10Z</time>
      </trkpt>
      <trkpt lat="44.86965" lon="5.52668">
        <ele>2317.8</ele>
        <time>2022-01-19T11:48:11Z</time>
      </trkpt>
      <trkpt lat="44.86965" lon="5.52668">
        <ele>2317.8</ele>
        <time>2022-01-19T11:48:12Z</time>
      </trkpt>
      <trkpt lat="44.86965" lon="5.52668">
        <ele>2317.7</ele>
        <time>2022-01-19T11:48:13Z</time>
      </trkpt>
      <trkpt lat="44.86965" lon="5.52668">
        <ele>2317.7</ele>
        <time>2022-01-19T11:48:14Z</time>
      </trkpt>
      <trkpt lat="44.86965" lon="5.52668">
        <ele>2317.7</ele>
        <time>2022-01-19T11:48:15Z</time>
      </trkpt>
      <trkpt lat="44.86965" lon="5.52668">
        <ele>2317.6</ele>
        <time>2022-01-19T11:48:16Z</time>
      </trkpt>
      <trkpt lat="44.86965" lon="5.52668">
        <ele>2317.6</ele>
        <time>2022-01-19T11:48:17Z</time>
      </trkpt>
      <trkpt lat="44.86965" lon="5.52668">
        <ele>2317.5</ele>
        <time>2022-01-19T11:48:18Z</time>
      </trkpt>
      <trkpt lat="44.86965" lon="5.52668">
        <ele>2317.5</ele>
        <time>2022-01-19T11:48:19Z</time>
      </trkpt>
      <trkpt lat="44.86965" lon="5.52668">
        <ele>2317.5</ele>
        <time>2022-01-19T11:48:20Z</time>
      </trkpt>
      <trkpt lat="44.86965" lon="5.52668">
        <ele>2317.4</ele>
        <time>2022-01-19T11:48:21Z</time>
      </trkpt>
      <trkpt lat="44.86965" lon="5.52668">
        <ele>2317.4</ele>
        <time>2022-01-19T11:48:22Z</time>
      </trkpt>
      <trkpt lat="44.86965" lon="5.52668">
        <ele>2317.4</ele>
        <time>2022-01-19T11:48:23Z</time>
      </trkpt>
      <trkpt lat="44.86965" lon="5.52668">
        <ele>2317.3</ele>
        <time>2022-01-19T11:48:24Z</time>
      </trkpt>
      <trkpt lat="44.86965" lon="5.52668">
        <ele>2317.3</ele>
        <time>2022-01-19T11:48:25Z</time>
      </trkpt>
      <trkpt lat="44.86965" lon="5.52668">
        <ele>2317.3</ele>
        <time>2022-01-19T11:48:26Z</time>
      </trkpt>
      <trkpt lat="44.86965" lon="5.52668">
        <ele>2317.2</ele>
        <time>2022-01-19T11:48:27Z</time>
      </trkpt>
      <trkpt lat="44.86965" lon="5.52668">
        <ele>2317.2</ele>
        <time>2022-01-19T11:48:28Z</time>
      </trkpt>
      <trkpt lat="44.86965" lon="5.52668">
        <ele>2317.1</ele>
        <time>2022-01-19T11:48:29Z</time>
      </trkpt>
      <trkpt lat="44.86965" lon="5.52668">
        <ele>2317.1</ele>
        <time>2022-01-19T11:48:30Z</time>
      </trkpt>
      <trkpt lat="44.86965" lon="5.52668">
        <ele>2317.1</ele>
        <time>2022-01-19T11:48:31Z</time>
      </trkpt>
      <trkpt lat="44.86965" lon="5.52668">
        <ele>2317</ele>
        <time>2022-01-19T11:48:32Z</time>
      </trkpt>
      <trkpt lat="44.86965" lon="5.52668">
        <ele>2317</ele>
        <time>2022-01-19T11:48:33Z</time>
      </trkpt>
      <trkpt lat="44.86965" lon="5.52668">
        <ele>2317</ele>
        <time>2022-01-19T11:48:34Z</time>
      </trkpt>
      <trkpt lat="44.86965" lon="5.52668">
        <ele>2316.9</ele>
        <time>2022-01-19T11:48:35Z</time>
      </trkpt>
      <trkpt lat="44.86965" lon="5.52668">
        <ele>2316.9</ele>
        <time>2022-01-19T11:48:36Z</time>
      </trkpt>
      <trkpt lat="44.86965" lon="5.52668">
        <ele>2316.9</ele>
        <time>2022-01-19T11:48:37Z</time>
      </trkpt>
      <trkpt lat="44.86965" lon="5.52668">
        <ele>2316.8</ele>
        <time>2022-01-19T11:48:38Z</time>
      </trkpt>
      <trkpt lat="44.86965" lon="5.52668">
        <ele>2316.8</ele>
        <time>2022-01-19T11:48:39Z</time>
      </trkpt>
      <trkpt lat="44.86965" lon="5.52668">
        <ele>2316.8</ele>
        <time>2022-01-19T11:48:40Z</time>
      </trkpt>
      <trkpt lat="44.86965" lon="5.52669">
        <ele>2316.7</ele>
        <time>2022-01-19T11:48:41Z</time>
      </trkpt>
      <trkpt lat="44.86965" lon="5.52669">
        <ele>2316.6</ele>
        <time>2022-01-19T11:48:42Z</time>
      </trkpt>
      <trkpt lat="44.86965" lon="5.52669">
        <ele>2316.6</ele>
        <time>2022-01-19T11:48:43Z</time>
      </trkpt>
      <trkpt lat="44.86965" lon="5.52669">
        <ele>2316.5</ele>
        <time>2022-01-19T11:48:44Z</time>
      </trkpt>
      <trkpt lat="44.86965" lon="5.52669">
        <ele>2316.5</ele>
        <time>2022-01-19T11:48:45Z</time>
      </trkpt>
      <trkpt lat="44.86965" lon="5.52669">
        <ele>2316.5</ele>
        <time>2022-01-19T11:48:46Z</time>
      </trkpt>
      <trkpt lat="44.86965" lon="5.52669">
        <ele>2316.4</ele>
        <time>2022-01-19T11:48:47Z</time>
      </trkpt>
      <trkpt lat="44.86965" lon="5.52669">
        <ele>2316.4</ele>
        <time>2022-01-19T11:48:48Z</time>
      </trkpt>
      <trkpt lat="44.86965" lon="5.52669">
        <ele>2316.4</ele>
        <time>2022-01-19T11:48:49Z</time>
      </trkpt>
      <trkpt lat="44.86965" lon="5.52669">
        <ele>2316.3</ele>
        <time>2022-01-19T11:48:50Z</time>
      </trkpt>
      <trkpt lat="44.86965" lon="5.52669">
        <ele>2316.3</ele>
        <time>2022-01-19T11:48:51Z</time>
      </trkpt>
      <trkpt lat="44.86965" lon="5.52669">
        <ele>2316.2</ele>
        <time>2022-01-19T11:48:52Z</time>
      </trkpt>
      <trkpt lat="44.86965" lon="5.52669">
        <ele>2316.2</ele>
        <time>2022-01-19T11:48:53Z</time>
      </trkpt>
      <trkpt lat="44.86965" lon="5.52669">
        <ele>2316.2</ele>
        <time>2022-01-19T11:48:54Z</time>
      </trkpt>
      <trkpt lat="44.86965" lon="5.52669">
        <ele>2316.1</ele>
        <time>2022-01-19T11:48:55Z</time>
      </trkpt>
      <trkpt lat="44.86965" lon="5.52669">
        <ele>2316.1</ele>
        <time>2022-01-19T11:48:56Z</time>
      </trkpt>
      <trkpt lat="44.86965" lon="5.52669">
        <ele>2316.1</ele>
        <time>2022-01-19T11:48:57Z</time>
      </trkpt>
      <trkpt lat="44.86965" lon="5.52669">
        <ele>2316</ele>
        <time>2022-01-19T11:48:58Z</time>
      </trkpt>
      <trkpt lat="44.86965" lon="5.52669">
        <ele>2316</ele>
        <time>2022-01-19T11:48:59Z</time>
      </trkpt>
      <trkpt lat="44.86965" lon="5.52669">
        <ele>2315.9</ele>
        <time>2022-01-19T11:49:00Z</time>
      </trkpt>
      <trkpt lat="44.86965" lon="5.52669">
        <ele>2315.9</ele>
        <time>2022-01-19T11:49:01Z</time>
      </trkpt>
      <trkpt lat="44.86965" lon="5.52669">
        <ele>2315.9</ele>
        <time>2022-01-19T11:49:02Z</time>
      </trkpt>
      <trkpt lat="44.86965" lon="5.52669">
        <ele>2315.8</ele>
        <time>2022-01-19T11:49:03Z</time>
      </trkpt>
      <trkpt lat="44.86965" lon="5.52669">
        <ele>2315.8</ele>
        <time>2022-01-19T11:49:04Z</time>
      </trkpt>
      <trkpt lat="44.86965" lon="5.52669">
        <ele>2315.8</ele>
        <time>2022-01-19T11:49:05Z</time>
      </trkpt>
      <trkpt lat="44.86965" lon="5.52669">
        <ele>2315.7</ele>
        <time>2022-01-19T11:49:06Z</time>
      </trkpt>
      <trkpt lat="44.86965" lon="5.52669">
        <ele>2315.7</ele>
        <time>2022-01-19T11:49:07Z</time>
      </trkpt>
      <trkpt lat="44.86965" lon="5.52669">
        <ele>2315.6</ele>
        <time>2022-01-19T11:49:08Z</time>
      </trkpt>
      <trkpt lat="44.86965" lon="5.52669">
        <ele>2315.6</ele>
        <time>2022-01-19T11:49:09Z</time>
      </trkpt>
      <trkpt lat="44.86965" lon="5.52669">
        <ele>2315.6</ele>
        <time>2022-01-19T11:49:10Z</time>
      </trkpt>
      <trkpt lat="44.86965" lon="5.52669">
        <ele>2315.5</ele>
        <time>2022-01-19T11:49:11Z</time>
      </trkpt>
      <trkpt lat="44.86965" lon="5.52669">
        <ele>2315.5</ele>
        <time>2022-01-19T11:49:12Z</time>
      </trkpt>
      <trkpt lat="44.86965" lon="5.52669">
        <ele>2315.5</ele>
        <time>2022-01-19T11:49:13Z</time>
      </trkpt>
      <trkpt lat="44.86965" lon="5.52669">
        <ele>2315.5</ele>
        <time>2022-01-19T11:49:14Z</time>
      </trkpt>
      <trkpt lat="44.86965" lon="5.52669">
        <ele>2315.5</ele>
        <time>2022-01-19T11:49:15Z</time>
      </trkpt>
      <trkpt lat="44.86965" lon="5.52669">
        <ele>2315.5</ele>
        <time>2022-01-19T11:49:16Z</time>
      </trkpt>
      <trkpt lat="44.86965" lon="5.52669">
        <ele>2315.5</ele>
        <time>2022-01-19T11:49:17Z</time>
      </trkpt>
      <trkpt lat="44.86965" lon="5.52669">
        <ele>2315.5</ele>
        <time>2022-01-19T11:49:18Z</time>
      </trkpt>
      <trkpt lat="44.86965" lon="5.52669">
        <ele>2315.5</ele>
        <time>2022-01-19T11:49:19Z</time>
      </trkpt>
      <trkpt lat="44.86965" lon="5.52669">
        <ele>2315.5</ele>
        <time>2022-01-19T11:49:20Z</time>
      </trkpt>
      <trkpt lat="44.86965" lon="5.52669">
        <ele>2315.5</ele>
        <time>2022-01-19T11:49:21Z</time>
      </trkpt>
      <trkpt lat="44.86965" lon="5.52669">
        <ele>2315.5</ele>
        <time>2022-01-19T11:49:22Z</time>
      </trkpt>
      <trkpt lat="44.86965" lon="5.52669">
        <ele>2315.5</ele>
        <time>2022-01-19T11:49:23Z</time>
      </trkpt>
      <trkpt lat="44.86965" lon="5.52669">
        <ele>2315.5</ele>
        <time>2022-01-19T11:49:24Z</time>
      </trkpt>
      <trkpt lat="44.86965" lon="5.52669">
        <ele>2315.5</ele>
        <time>2022-01-19T11:49:25Z</time>
      </trkpt>
      <trkpt lat="44.86965" lon="5.52669">
        <ele>2315.5</ele>
        <time>2022-01-19T11:49:26Z</time>
      </trkpt>
      <trkpt lat="44.86965" lon="5.52669">
        <ele>2315.5</ele>
        <time>2022-01-19T11:49:27Z</time>
      </trkpt>
      <trkpt lat="44.86965" lon="5.52669">
        <ele>2315.5</ele>
        <time>2022-01-19T11:49:28Z</time>
      </trkpt>
      <trkpt lat="44.86965" lon="5.52669">
        <ele>2315.5</ele>
        <time>2022-01-19T11:49:29Z</time>
      </trkpt>
      <trkpt lat="44.86965" lon="5.52669">
        <ele>2315.5</ele>
        <time>2022-01-19T11:49:30Z</time>
      </trkpt>
      <trkpt lat="44.86965" lon="5.52669">
        <ele>2315.5</ele>
        <time>2022-01-19T11:49:31Z</time>
      </trkpt>
      <trkpt lat="44.86965" lon="5.52669">
        <ele>2315.5</ele>
        <time>2022-01-19T11:49:32Z</time>
      </trkpt>
      <trkpt lat="44.86965" lon="5.52669">
        <ele>2315.5</ele>
        <time>2022-01-19T11:49:33Z</time>
      </trkpt>
      <trkpt lat="44.86965" lon="5.52669">
        <ele>2315.5</ele>
        <time>2022-01-19T11:49:34Z</time>
      </trkpt>
      <trkpt lat="44.86965" lon="5.52669">
        <ele>2315.5</ele>
        <time>2022-01-19T11:49:35Z</time>
      </trkpt>
      <trkpt lat="44.86965" lon="5.52669">
        <ele>2315.5</ele>
        <time>2022-01-19T11:49:36Z</time>
      </trkpt>
      <trkpt lat="44.86965" lon="5.52669">
        <ele>2315.5</ele>
        <time>2022-01-19T11:49:37Z</time>
      </trkpt>
      <trkpt lat="44.86965" lon="5.52669">
        <ele>2315.5</ele>
        <time>2022-01-19T11:49:38Z</time>
      </trkpt>
      <trkpt lat="44.86965" lon="5.52669">
        <ele>2315.5</ele>
        <time>2022-01-19T11:49:39Z</time>
      </trkpt>
      <trkpt lat="44.86965" lon="5.52669">
        <ele>2315.5</ele>
        <time>2022-01-19T11:49:40Z</time>
      </trkpt>
      <trkpt lat="44.86965" lon="5.52669">
        <ele>2315.5</ele>
        <time>2022-01-19T11:49:41Z</time>
      </trkpt>
      <trkpt lat="44.86965" lon="5.52669">
        <ele>2315.5</ele>
        <time>2022-01-19T11:49:42Z</time>
      </trkpt>
      <trkpt lat="44.86965" lon="5.52669">
        <ele>2315.5</ele>
        <time>2022-01-19T11:49:43Z</time>
      </trkpt>
      <trkpt lat="44.86965" lon="5.52669">
        <ele>2315.5</ele>
        <time>2022-01-19T11:49:44Z</time>
      </trkpt>
      <trkpt lat="44.86965" lon="5.52669">
        <ele>2315.5</ele>
        <time>2022-01-19T11:49:45Z</time>
      </trkpt>
      <trkpt lat="44.86965" lon="5.52669">
        <ele>2315.5</ele>
        <time>2022-01-19T11:49:46Z</time>
      </trkpt>
      <trkpt lat="44.86965" lon="5.52669">
        <ele>2315.5</ele>
        <time>2022-01-19T11:49:47Z</time>
      </trkpt>
      <trkpt lat="44.86965" lon="5.52669">
        <ele>2315.5</ele>
        <time>2022-01-19T11:49:48Z</time>
      </trkpt>
      <trkpt lat="44.86965" lon="5.52669">
        <ele>2315.5</ele>
        <time>2022-01-19T11:49:49Z</time>
      </trkpt>
      <trkpt lat="44.86965" lon="5.52669">
        <ele>2315.5</ele>
        <time>2022-01-19T11:49:50Z</time>
      </trkpt>
      <trkpt lat="44.86965" lon="5.52669">
        <ele>2315.5</ele>
        <time>2022-01-19T11:49:51Z</time>
      </trkpt>
      <trkpt lat="44.86965" lon="5.52669">
        <ele>2315.5</ele>
        <time>2022-01-19T11:49:52Z</time>
      </trkpt>
      <trkpt lat="44.86965" lon="5.52669">
        <ele>2315.5</ele>
        <time>2022-01-19T11:49:53Z</time>
      </trkpt>
      <trkpt lat="44.86965" lon="5.52669">
        <ele>2315.5</ele>
        <time>2022-01-19T11:49:54Z</time>
      </trkpt>
      <trkpt lat="44.86965" lon="5.52669">
        <ele>2315.5</ele>
        <time>2022-01-19T11:49:55Z</time>
      </trkpt>
      <trkpt lat="44.86965" lon="5.52669">
        <ele>2315.5</ele>
        <time>2022-01-19T11:49:56Z</time>
      </trkpt>
      <trkpt lat="44.86965" lon="5.52669">
        <ele>2315.5</ele>
        <time>2022-01-19T11:49:57Z</time>
      </trkpt>
      <trkpt lat="44.86965" lon="5.52669">
        <ele>2315.5</ele>
        <time>2022-01-19T11:49:58Z</time>
      </trkpt>
      <trkpt lat="44.86965" lon="5.52669">
        <ele>2315.5</ele>
        <time>2022-01-19T11:49:59Z</time>
      </trkpt>
      <trkpt lat="44.86965" lon="5.52669">
        <ele>2315.5</ele>
        <time>2022-01-19T11:50:00Z</time>
      </trkpt>
      <trkpt lat="44.86965" lon="5.52669">
        <ele>2315.5</ele>
        <time>2022-01-19T11:50:01Z</time>
      </trkpt>
      <trkpt lat="44.86965" lon="5.52669">
        <ele>2315.5</ele>
        <time>2022-01-19T11:50:02Z</time>
      </trkpt>
      <trkpt lat="44.86965" lon="5.52669">
        <ele>2315.5</ele>
        <time>2022-01-19T11:50:03Z</time>
      </trkpt>
      <trkpt lat="44.86965" lon="5.52669">
        <ele>2315.5</ele>
        <time>2022-01-19T11:50:04Z</time>
      </trkpt>
      <trkpt lat="44.86965" lon="5.52669">
        <ele>2315.5</ele>
        <time>2022-01-19T11:50:05Z</time>
      </trkpt>
      <trkpt lat="44.86965" lon="5.52669">
        <ele>2315.5</ele>
        <time>2022-01-19T11:50:06Z</time>
      </trkpt>
      <trkpt lat="44.86965" lon="5.52669">
        <ele>2315.5</ele>
        <time>2022-01-19T11:50:07Z</time>
      </trkpt>
      <trkpt lat="44.86965" lon="5.52669">
        <ele>2315.5</ele>
        <time>2022-01-19T11:50:08Z</time>
      </trkpt>
      <trkpt lat="44.86965" lon="5.52669">
        <ele>2315.5</ele>
        <time>2022-01-19T11:50:09Z</time>
      </trkpt>
      <trkpt lat="44.86965" lon="5.52669">
        <ele>2315.5</ele>
        <time>2022-01-19T11:50:10Z</time>
      </trkpt>
      <trkpt lat="44.86965" lon="5.52669">
        <ele>2315.5</ele>
        <time>2022-01-19T11:50:11Z</time>
      </trkpt>
      <trkpt lat="44.86965" lon="5.52669">
        <ele>2315.5</ele>
        <time>2022-01-19T11:50:12Z</time>
      </trkpt>
      <trkpt lat="44.86965" lon="5.52669">
        <ele>2315.5</ele>
        <time>2022-01-19T11:50:13Z</time>
      </trkpt>
      <trkpt lat="44.86965" lon="5.52669">
        <ele>2315.5</ele>
        <time>2022-01-19T11:50:14Z</time>
      </trkpt>
      <trkpt lat="44.86965" lon="5.52669">
        <ele>2315.5</ele>
        <time>2022-01-19T11:50:15Z</time>
      </trkpt>
      <trkpt lat="44.86965" lon="5.52669">
        <ele>2315.5</ele>
        <time>2022-01-19T11:50:16Z</time>
      </trkpt>
      <trkpt lat="44.86965" lon="5.52669">
        <ele>2315.5</ele>
        <time>2022-01-19T11:50:17Z</time>
      </trkpt>
      <trkpt lat="44.86965" lon="5.52669">
        <ele>2315.5</ele>
        <time>2022-01-19T11:50:18Z</time>
      </trkpt>
      <trkpt lat="44.86965" lon="5.52669">
        <ele>2315.5</ele>
        <time>2022-01-19T11:50:19Z</time>
      </trkpt>
      <trkpt lat="44.86965" lon="5.52669">
        <ele>2315.5</ele>
        <time>2022-01-19T11:50:20Z</time>
      </trkpt>
      <trkpt lat="44.86965" lon="5.52669">
        <ele>2315.5</ele>
        <time>2022-01-19T11:50:21Z</time>
      </trkpt>
      <trkpt lat="44.86965" lon="5.52669">
        <ele>2315.5</ele>
        <time>2022-01-19T11:50:22Z</time>
      </trkpt>
      <trkpt lat="44.86965" lon="5.52669">
        <ele>2315.5</ele>
        <time>2022-01-19T11:50:23Z</time>
      </trkpt>
      <trkpt lat="44.86965" lon="5.52669">
        <ele>2315.5</ele>
        <time>2022-01-19T11:50:24Z</time>
      </trkpt>
      <trkpt lat="44.86965" lon="5.52669">
        <ele>2315.5</ele>
        <time>2022-01-19T11:50:25Z</time>
      </trkpt>
      <trkpt lat="44.86964" lon="5.52666">
        <ele>2315.1</ele>
        <time>2022-01-19T11:50:26Z</time>
      </trkpt>
      <trkpt lat="44.86963" lon="5.52665">
        <ele>2315</ele>
        <time>2022-01-19T11:50:27Z</time>
      </trkpt>
      <trkpt lat="44.86963" lon="5.52664">
        <ele>2314.9</ele>
        <time>2022-01-19T11:50:28Z</time>
      </trkpt>
      <trkpt lat="44.86963" lon="5.52664">
        <ele>2314.9</ele>
        <time>2022-01-19T11:50:29Z</time>
      </trkpt>
      <trkpt lat="44.86963" lon="5.52663">
        <ele>2314.8</ele>
        <time>2022-01-19T11:50:30Z</time>
      </trkpt>
      <trkpt lat="44.86963" lon="5.52663">
        <ele>2314.8</ele>
        <time>2022-01-19T11:50:31Z</time>
      </trkpt>
      <trkpt lat="44.86963" lon="5.52662">
        <ele>2314.7</ele>
        <time>2022-01-19T11:50:32Z</time>
      </trkpt>
      <trkpt lat="44.86963" lon="5.52662">
        <ele>2314.7</ele>
        <time>2022-01-19T11:50:33Z</time>
      </trkpt>
      <trkpt lat="44.86963" lon="5.52662">
        <ele>2314.7</ele>
        <time>2022-01-19T11:50:34Z</time>
      </trkpt>
      <trkpt lat="44.86963" lon="5.52662">
        <ele>2314.7</ele>
        <time>2022-01-19T11:50:35Z</time>
      </trkpt>
      <trkpt lat="44.86963" lon="5.52662">
        <ele>2314.7</ele>
        <time>2022-01-19T11:50:36Z</time>
      </trkpt>
      <trkpt lat="44.86963" lon="5.52662">
        <ele>2314.7</ele>
        <time>2022-01-19T11:50:37Z</time>
      </trkpt>
      <trkpt lat="44.86963" lon="5.52662">
        <ele>2314.7</ele>
        <time>2022-01-19T11:50:38Z</time>
      </trkpt>
      <trkpt lat="44.86963" lon="5.52662">
        <ele>2314.7</ele>
        <time>2022-01-19T11:50:39Z</time>
      </trkpt>
      <trkpt lat="44.86963" lon="5.52662">
        <ele>2314.7</ele>
        <time>2022-01-19T11:50:40Z</time>
      </trkpt>
      <trkpt lat="44.86963" lon="5.52662">
        <ele>2314.7</ele>
        <time>2022-01-19T11:50:41Z</time>
      </trkpt>
      <trkpt lat="44.86963" lon="5.52662">
        <ele>2314.7</ele>
        <time>2022-01-19T11:50:42Z</time>
      </trkpt>
      <trkpt lat="44.86963" lon="5.52662">
        <ele>2314.7</ele>
        <time>2022-01-19T11:50:43Z</time>
      </trkpt>
      <trkpt lat="44.86963" lon="5.52662">
        <ele>2314.7</ele>
        <time>2022-01-19T11:50:44Z</time>
      </trkpt>
      <trkpt lat="44.86963" lon="5.52662">
        <ele>2314.7</ele>
        <time>2022-01-19T11:50:45Z</time>
      </trkpt>
      <trkpt lat="44.86963" lon="5.52662">
        <ele>2314.7</ele>
        <time>2022-01-19T11:50:46Z</time>
      </trkpt>
      <trkpt lat="44.86963" lon="5.52662">
        <ele>2314.7</ele>
        <time>2022-01-19T11:50:47Z</time>
      </trkpt>
      <trkpt lat="44.86963" lon="5.52662">
        <ele>2314.7</ele>
        <time>2022-01-19T11:50:48Z</time>
      </trkpt>
      <trkpt lat="44.86963" lon="5.52662">
        <ele>2314.7</ele>
        <time>2022-01-19T11:50:49Z</time>
      </trkpt>
      <trkpt lat="44.86963" lon="5.52662">
        <ele>2314.7</ele>
        <time>2022-01-19T11:50:50Z</time>
      </trkpt>
      <trkpt lat="44.86963" lon="5.52662">
        <ele>2314.7</ele>
        <time>2022-01-19T11:50:51Z</time>
      </trkpt>
      <trkpt lat="44.86963" lon="5.52662">
        <ele>2314.7</ele>
        <time>2022-01-19T11:50:52Z</time>
      </trkpt>
      <trkpt lat="44.86963" lon="5.52662">
        <ele>2314.7</ele>
        <time>2022-01-19T11:50:53Z</time>
      </trkpt>
      <trkpt lat="44.86963" lon="5.52662">
        <ele>2314.7</ele>
        <time>2022-01-19T11:50:54Z</time>
      </trkpt>
      <trkpt lat="44.86963" lon="5.52662">
        <ele>2314.7</ele>
        <time>2022-01-19T11:50:55Z</time>
      </trkpt>
      <trkpt lat="44.86963" lon="5.52662">
        <ele>2314.7</ele>
        <time>2022-01-19T11:50:56Z</time>
      </trkpt>
      <trkpt lat="44.86963" lon="5.52662">
        <ele>2314.7</ele>
        <time>2022-01-19T11:50:57Z</time>
      </trkpt>
      <trkpt lat="44.86963" lon="5.52662">
        <ele>2314.7</ele>
        <time>2022-01-19T11:50:58Z</time>
      </trkpt>
      <trkpt lat="44.86963" lon="5.52662">
        <ele>2314.7</ele>
        <time>2022-01-19T11:50:59Z</time>
      </trkpt>
      <trkpt lat="44.86963" lon="5.52662">
        <ele>2314.7</ele>
        <time>2022-01-19T11:51:00Z</time>
      </trkpt>
      <trkpt lat="44.86963" lon="5.52662">
        <ele>2314.7</ele>
        <time>2022-01-19T11:51:01Z</time>
      </trkpt>
      <trkpt lat="44.86963" lon="5.52662">
        <ele>2314.7</ele>
        <time>2022-01-19T11:51:02Z</time>
      </trkpt>
      <trkpt lat="44.86963" lon="5.52662">
        <ele>2314.7</ele>
        <time>2022-01-19T11:51:03Z</time>
      </trkpt>
      <trkpt lat="44.86963" lon="5.52662">
        <ele>2314.7</ele>
        <time>2022-01-19T11:51:04Z</time>
      </trkpt>
      <trkpt lat="44.86963" lon="5.52662">
        <ele>2314.7</ele>
        <time>2022-01-19T11:51:05Z</time>
      </trkpt>
      <trkpt lat="44.86963" lon="5.52662">
        <ele>2314.7</ele>
        <time>2022-01-19T11:51:06Z</time>
      </trkpt>
      <trkpt lat="44.86963" lon="5.52662">
        <ele>2314.7</ele>
        <time>2022-01-19T11:51:07Z</time>
      </trkpt>
      <trkpt lat="44.86963" lon="5.52662">
        <ele>2314.7</ele>
        <time>2022-01-19T11:51:08Z</time>
      </trkpt>
      <trkpt lat="44.86963" lon="5.52662">
        <ele>2314.7</ele>
        <time>2022-01-19T11:51:09Z</time>
      </trkpt>
      <trkpt lat="44.86963" lon="5.52662">
        <ele>2314.7</ele>
        <time>2022-01-19T11:51:10Z</time>
      </trkpt>
      <trkpt lat="44.86963" lon="5.52662">
        <ele>2314.7</ele>
        <time>2022-01-19T11:51:11Z</time>
      </trkpt>
      <trkpt lat="44.86963" lon="5.52662">
        <ele>2314.7</ele>
        <time>2022-01-19T11:51:12Z</time>
      </trkpt>
      <trkpt lat="44.86963" lon="5.52662">
        <ele>2314.7</ele>
        <time>2022-01-19T11:51:13Z</time>
      </trkpt>
      <trkpt lat="44.86963" lon="5.52662">
        <ele>2314.7</ele>
        <time>2022-01-19T11:51:14Z</time>
      </trkpt>
      <trkpt lat="44.86963" lon="5.52662">
        <ele>2314.7</ele>
        <time>2022-01-19T11:51:15Z</time>
      </trkpt>
      <trkpt lat="44.86963" lon="5.52662">
        <ele>2314.7</ele>
        <time>2022-01-19T11:51:16Z</time>
      </trkpt>
      <trkpt lat="44.86963" lon="5.52662">
        <ele>2314.7</ele>
        <time>2022-01-19T11:51:17Z</time>
      </trkpt>
      <trkpt lat="44.86963" lon="5.52662">
        <ele>2314.7</ele>
        <time>2022-01-19T11:51:18Z</time>
      </trkpt>
      <trkpt lat="44.86963" lon="5.52662">
        <ele>2314.7</ele>
        <time>2022-01-19T11:51:19Z</time>
      </trkpt>
      <trkpt lat="44.86963" lon="5.52662">
        <ele>2314.7</ele>
        <time>2022-01-19T11:51:20Z</time>
      </trkpt>
      <trkpt lat="44.86963" lon="5.52662">
        <ele>2314.7</ele>
        <time>2022-01-19T11:51:21Z</time>
      </trkpt>
      <trkpt lat="44.86963" lon="5.52662">
        <ele>2314.7</ele>
        <time>2022-01-19T11:51:22Z</time>
      </trkpt>
      <trkpt lat="44.86963" lon="5.52662">
        <ele>2314.7</ele>
        <time>2022-01-19T11:51:23Z</time>
      </trkpt>
      <trkpt lat="44.86963" lon="5.52662">
        <ele>2314.7</ele>
        <time>2022-01-19T11:51:24Z</time>
      </trkpt>
      <trkpt lat="44.86963" lon="5.52662">
        <ele>2314.7</ele>
        <time>2022-01-19T11:51:25Z</time>
      </trkpt>
      <trkpt lat="44.86963" lon="5.52662">
        <ele>2314.7</ele>
        <time>2022-01-19T11:51:26Z</time>
      </trkpt>
      <trkpt lat="44.86963" lon="5.52662">
        <ele>2314.7</ele>
        <time>2022-01-19T11:51:27Z</time>
      </trkpt>
      <trkpt lat="44.86963" lon="5.52662">
        <ele>2314.7</ele>
        <time>2022-01-19T11:51:28Z</time>
      </trkpt>
      <trkpt lat="44.86963" lon="5.52662">
        <ele>2314.7</ele>
        <time>2022-01-19T11:51:29Z</time>
      </trkpt>
      <trkpt lat="44.86963" lon="5.52662">
        <ele>2314.7</ele>
        <time>2022-01-19T11:51:30Z</time>
      </trkpt>
      <trkpt lat="44.86963" lon="5.52662">
        <ele>2314.7</ele>
        <time>2022-01-19T11:51:31Z</time>
      </trkpt>
      <trkpt lat="44.86963" lon="5.52662">
        <ele>2314.7</ele>
        <time>2022-01-19T11:51:32Z</time>
      </trkpt>
      <trkpt lat="44.86963" lon="5.52662">
        <ele>2314.7</ele>
        <time>2022-01-19T11:51:33Z</time>
      </trkpt>
      <trkpt lat="44.86963" lon="5.52662">
        <ele>2314.7</ele>
        <time>2022-01-19T11:51:34Z</time>
      </trkpt>
      <trkpt lat="44.86963" lon="5.52662">
        <ele>2314.7</ele>
        <time>2022-01-19T11:51:35Z</time>
      </trkpt>
      <trkpt lat="44.86963" lon="5.52662">
        <ele>2314.7</ele>
        <time>2022-01-19T11:51:36Z</time>
      </trkpt>
      <trkpt lat="44.86963" lon="5.52662">
        <ele>2314.7</ele>
        <time>2022-01-19T11:51:37Z</time>
      </trkpt>
      <trkpt lat="44.86963" lon="5.52662">
        <ele>2314.7</ele>
        <time>2022-01-19T11:51:38Z</time>
      </trkpt>
      <trkpt lat="44.86963" lon="5.52662">
        <ele>2314.7</ele>
        <time>2022-01-19T11:51:39Z</time>
      </trkpt>
      <trkpt lat="44.86963" lon="5.52662">
        <ele>2314.7</ele>
        <time>2022-01-19T11:51:40Z</time>
      </trkpt>
      <trkpt lat="44.86963" lon="5.52662">
        <ele>2314.7</ele>
        <time>2022-01-19T11:51:41Z</time>
      </trkpt>
      <trkpt lat="44.86963" lon="5.52662">
        <ele>2314.7</ele>
        <time>2022-01-19T11:51:42Z</time>
      </trkpt>
      <trkpt lat="44.86963" lon="5.52662">
        <ele>2314.7</ele>
        <time>2022-01-19T11:51:43Z</time>
      </trkpt>
      <trkpt lat="44.86963" lon="5.52662">
        <ele>2314.7</ele>
        <time>2022-01-19T11:51:44Z</time>
      </trkpt>
      <trkpt lat="44.86963" lon="5.52662">
        <ele>2314.7</ele>
        <time>2022-01-19T11:51:45Z</time>
      </trkpt>
      <trkpt lat="44.86963" lon="5.52662">
        <ele>2314.7</ele>
        <time>2022-01-19T11:51:46Z</time>
      </trkpt>
      <trkpt lat="44.86963" lon="5.52662">
        <ele>2314.7</ele>
        <time>2022-01-19T11:51:47Z</time>
      </trkpt>
      <trkpt lat="44.86963" lon="5.52662">
        <ele>2314.7</ele>
        <time>2022-01-19T11:51:48Z</time>
      </trkpt>
      <trkpt lat="44.86963" lon="5.52662">
        <ele>2314.7</ele>
        <time>2022-01-19T11:51:49Z</time>
      </trkpt>
      <trkpt lat="44.86963" lon="5.52662">
        <ele>2314.7</ele>
        <time>2022-01-19T11:51:50Z</time>
      </trkpt>
      <trkpt lat="44.86963" lon="5.52662">
        <ele>2314.7</ele>
        <time>2022-01-19T11:51:51Z</time>
      </trkpt>
      <trkpt lat="44.86963" lon="5.52662">
        <ele>2314.7</ele>
        <time>2022-01-19T11:51:52Z</time>
      </trkpt>
      <trkpt lat="44.86963" lon="5.52662">
        <ele>2314.7</ele>
        <time>2022-01-19T11:51:53Z</time>
      </trkpt>
      <trkpt lat="44.86963" lon="5.52662">
        <ele>2314.7</ele>
        <time>2022-01-19T11:51:54Z</time>
      </trkpt>
      <trkpt lat="44.86963" lon="5.52662">
        <ele>2314.7</ele>
        <time>2022-01-19T11:51:55Z</time>
      </trkpt>
      <trkpt lat="44.86963" lon="5.52662">
        <ele>2314.7</ele>
        <time>2022-01-19T11:51:56Z</time>
      </trkpt>
      <trkpt lat="44.86963" lon="5.52662">
        <ele>2314.7</ele>
        <time>2022-01-19T11:51:57Z</time>
      </trkpt>
      <trkpt lat="44.86963" lon="5.52662">
        <ele>2314.7</ele>
        <time>2022-01-19T11:51:58Z</time>
      </trkpt>
      <trkpt lat="44.86963" lon="5.52662">
        <ele>2314.7</ele>
        <time>2022-01-19T11:51:59Z</time>
      </trkpt>
      <trkpt lat="44.86963" lon="5.52662">
        <ele>2314.7</ele>
        <time>2022-01-19T11:52:00Z</time>
      </trkpt>
      <trkpt lat="44.86963" lon="5.52662">
        <ele>2314.7</ele>
        <time>2022-01-19T11:52:01Z</time>
      </trkpt>
      <trkpt lat="44.86963" lon="5.52662">
        <ele>2314.7</ele>
        <time>2022-01-19T11:52:02Z</time>
      </trkpt>
      <trkpt lat="44.86963" lon="5.52662">
        <ele>2314.7</ele>
        <time>2022-01-19T11:52:03Z</time>
      </trkpt>
      <trkpt lat="44.86963" lon="5.52662">
        <ele>2314.7</ele>
        <time>2022-01-19T11:52:04Z</time>
      </trkpt>
      <trkpt lat="44.86963" lon="5.52662">
        <ele>2314.7</ele>
        <time>2022-01-19T11:52:05Z</time>
      </trkpt>
      <trkpt lat="44.86963" lon="5.52662">
        <ele>2314.7</ele>
        <time>2022-01-19T11:52:06Z</time>
      </trkpt>
      <trkpt lat="44.86963" lon="5.52662">
        <ele>2314.7</ele>
        <time>2022-01-19T11:52:07Z</time>
      </trkpt>
      <trkpt lat="44.86963" lon="5.52662">
        <ele>2314.7</ele>
        <time>2022-01-19T11:52:08Z</time>
      </trkpt>
      <trkpt lat="44.86963" lon="5.52662">
        <ele>2314.7</ele>
        <time>2022-01-19T11:52:09Z</time>
      </trkpt>
      <trkpt lat="44.86963" lon="5.52662">
        <ele>2314.7</ele>
        <time>2022-01-19T11:52:10Z</time>
      </trkpt>
      <trkpt lat="44.86963" lon="5.52662">
        <ele>2314.7</ele>
        <time>2022-01-19T11:52:11Z</time>
      </trkpt>
      <trkpt lat="44.86963" lon="5.52662">
        <ele>2314.7</ele>
        <time>2022-01-19T11:52:12Z</time>
      </trkpt>
      <trkpt lat="44.86963" lon="5.52662">
        <ele>2314.7</ele>
        <time>2022-01-19T11:52:13Z</time>
      </trkpt>
      <trkpt lat="44.86963" lon="5.52662">
        <ele>2314.7</ele>
        <time>2022-01-19T11:52:14Z</time>
      </trkpt>
      <trkpt lat="44.86963" lon="5.52662">
        <ele>2314.7</ele>
        <time>2022-01-19T11:52:15Z</time>
      </trkpt>
      <trkpt lat="44.86963" lon="5.52662">
        <ele>2314.7</ele>
        <time>2022-01-19T11:52:16Z</time>
      </trkpt>
      <trkpt lat="44.86963" lon="5.52662">
        <ele>2314.7</ele>
        <time>2022-01-19T11:52:17Z</time>
      </trkpt>
      <trkpt lat="44.86963" lon="5.52662">
        <ele>2314.7</ele>
        <time>2022-01-19T11:52:18Z</time>
      </trkpt>
      <trkpt lat="44.86963" lon="5.52662">
        <ele>2314.7</ele>
        <time>2022-01-19T11:52:19Z</time>
      </trkpt>
      <trkpt lat="44.86963" lon="5.52662">
        <ele>2314.7</ele>
        <time>2022-01-19T11:52:20Z</time>
      </trkpt>
      <trkpt lat="44.86963" lon="5.52662">
        <ele>2314.7</ele>
        <time>2022-01-19T11:52:21Z</time>
      </trkpt>
      <trkpt lat="44.86963" lon="5.52662">
        <ele>2314.7</ele>
        <time>2022-01-19T11:52:22Z</time>
      </trkpt>
      <trkpt lat="44.86963" lon="5.52662">
        <ele>2314.7</ele>
        <time>2022-01-19T11:52:23Z</time>
      </trkpt>
      <trkpt lat="44.86963" lon="5.52662">
        <ele>2314.7</ele>
        <time>2022-01-19T11:52:24Z</time>
      </trkpt>
      <trkpt lat="44.86963" lon="5.52662">
        <ele>2314.7</ele>
        <time>2022-01-19T11:52:25Z</time>
      </trkpt>
      <trkpt lat="44.86963" lon="5.52662">
        <ele>2314.7</ele>
        <time>2022-01-19T11:52:26Z</time>
      </trkpt>
      <trkpt lat="44.86963" lon="5.52662">
        <ele>2314.7</ele>
        <time>2022-01-19T11:52:27Z</time>
      </trkpt>
      <trkpt lat="44.86963" lon="5.52662">
        <ele>2314.7</ele>
        <time>2022-01-19T11:52:28Z</time>
      </trkpt>
      <trkpt lat="44.86963" lon="5.52662">
        <ele>2314.7</ele>
        <time>2022-01-19T11:52:29Z</time>
      </trkpt>
      <trkpt lat="44.86963" lon="5.52662">
        <ele>2314.7</ele>
        <time>2022-01-19T11:52:30Z</time>
      </trkpt>
      <trkpt lat="44.86963" lon="5.52662">
        <ele>2314.7</ele>
        <time>2022-01-19T11:52:31Z</time>
      </trkpt>
      <trkpt lat="44.86963" lon="5.52662">
        <ele>2314.7</ele>
        <time>2022-01-19T11:52:32Z</time>
      </trkpt>
      <trkpt lat="44.86963" lon="5.52662">
        <ele>2314.7</ele>
        <time>2022-01-19T11:52:33Z</time>
      </trkpt>
      <trkpt lat="44.86963" lon="5.52662">
        <ele>2314.7</ele>
        <time>2022-01-19T11:52:34Z</time>
      </trkpt>
      <trkpt lat="44.86963" lon="5.52662">
        <ele>2314.7</ele>
        <time>2022-01-19T11:52:35Z</time>
      </trkpt>
      <trkpt lat="44.86963" lon="5.52662">
        <ele>2314.7</ele>
        <time>2022-01-19T11:52:36Z</time>
      </trkpt>
      <trkpt lat="44.86963" lon="5.52662">
        <ele>2314.7</ele>
        <time>2022-01-19T11:52:37Z</time>
      </trkpt>
      <trkpt lat="44.86963" lon="5.52662">
        <ele>2314.7</ele>
        <time>2022-01-19T11:52:38Z</time>
      </trkpt>
      <trkpt lat="44.86963" lon="5.52662">
        <ele>2314.7</ele>
        <time>2022-01-19T11:52:39Z</time>
      </trkpt>
      <trkpt lat="44.86963" lon="5.52662">
        <ele>2314.7</ele>
        <time>2022-01-19T11:52:40Z</time>
      </trkpt>
      <trkpt lat="44.86963" lon="5.52662">
        <ele>2314.7</ele>
        <time>2022-01-19T11:52:41Z</time>
      </trkpt>
      <trkpt lat="44.86963" lon="5.52662">
        <ele>2314.7</ele>
        <time>2022-01-19T11:52:42Z</time>
      </trkpt>
      <trkpt lat="44.86963" lon="5.52662">
        <ele>2314.7</ele>
        <time>2022-01-19T11:52:43Z</time>
      </trkpt>
      <trkpt lat="44.86963" lon="5.52662">
        <ele>2314.7</ele>
        <time>2022-01-19T11:52:44Z</time>
      </trkpt>
      <trkpt lat="44.86963" lon="5.52662">
        <ele>2314.7</ele>
        <time>2022-01-19T11:52:45Z</time>
      </trkpt>
      <trkpt lat="44.86963" lon="5.52662">
        <ele>2314.7</ele>
        <time>2022-01-19T11:52:46Z</time>
      </trkpt>
      <trkpt lat="44.86963" lon="5.52662">
        <ele>2314.7</ele>
        <time>2022-01-19T11:52:47Z</time>
      </trkpt>
      <trkpt lat="44.86963" lon="5.52662">
        <ele>2314.7</ele>
        <time>2022-01-19T11:52:48Z</time>
      </trkpt>
      <trkpt lat="44.86963" lon="5.52662">
        <ele>2314.7</ele>
        <time>2022-01-19T11:52:49Z</time>
      </trkpt>
      <trkpt lat="44.86963" lon="5.52662">
        <ele>2314.7</ele>
        <time>2022-01-19T11:52:50Z</time>
      </trkpt>
      <trkpt lat="44.86963" lon="5.52662">
        <ele>2314.7</ele>
        <time>2022-01-19T11:52:51Z</time>
      </trkpt>
      <trkpt lat="44.86963" lon="5.52662">
        <ele>2314.7</ele>
        <time>2022-01-19T11:52:52Z</time>
      </trkpt>
      <trkpt lat="44.86963" lon="5.52662">
        <ele>2314.7</ele>
        <time>2022-01-19T11:52:53Z</time>
      </trkpt>
      <trkpt lat="44.86963" lon="5.52662">
        <ele>2314.7</ele>
        <time>2022-01-19T11:52:54Z</time>
      </trkpt>
      <trkpt lat="44.86963" lon="5.52662">
        <ele>2314.7</ele>
        <time>2022-01-19T11:52:55Z</time>
      </trkpt>
      <trkpt lat="44.86963" lon="5.52662">
        <ele>2314.7</ele>
        <time>2022-01-19T11:52:56Z</time>
      </trkpt>
      <trkpt lat="44.86963" lon="5.52662">
        <ele>2314.7</ele>
        <time>2022-01-19T11:52:57Z</time>
      </trkpt>
      <trkpt lat="44.86963" lon="5.52662">
        <ele>2314.7</ele>
        <time>2022-01-19T11:52:58Z</time>
      </trkpt>
      <trkpt lat="44.86963" lon="5.52662">
        <ele>2314.7</ele>
        <time>2022-01-19T11:52:59Z</time>
      </trkpt>
      <trkpt lat="44.86963" lon="5.52662">
        <ele>2314.7</ele>
        <time>2022-01-19T11:53:00Z</time>
      </trkpt>
      <trkpt lat="44.86963" lon="5.52662">
        <ele>2314.7</ele>
        <time>2022-01-19T11:53:01Z</time>
      </trkpt>
      <trkpt lat="44.86963" lon="5.52662">
        <ele>2314.7</ele>
        <time>2022-01-19T11:53:02Z</time>
      </trkpt>
      <trkpt lat="44.86963" lon="5.52662">
        <ele>2314.7</ele>
        <time>2022-01-19T11:53:03Z</time>
      </trkpt>
      <trkpt lat="44.86963" lon="5.52662">
        <ele>2314.7</ele>
        <time>2022-01-19T11:53:04Z</time>
      </trkpt>
      <trkpt lat="44.86963" lon="5.52662">
        <ele>2314.7</ele>
        <time>2022-01-19T11:53:05Z</time>
      </trkpt>
      <trkpt lat="44.86963" lon="5.52662">
        <ele>2314.7</ele>
        <time>2022-01-19T11:53:06Z</time>
      </trkpt>
      <trkpt lat="44.86963" lon="5.52662">
        <ele>2314.7</ele>
        <time>2022-01-19T11:53:07Z</time>
      </trkpt>
      <trkpt lat="44.86963" lon="5.52662">
        <ele>2314.7</ele>
        <time>2022-01-19T11:53:08Z</time>
      </trkpt>
      <trkpt lat="44.86963" lon="5.52662">
        <ele>2314.7</ele>
        <time>2022-01-19T11:53:09Z</time>
      </trkpt>
      <trkpt lat="44.86963" lon="5.52662">
        <ele>2314.7</ele>
        <time>2022-01-19T11:53:10Z</time>
      </trkpt>
      <trkpt lat="44.86963" lon="5.52662">
        <ele>2314.7</ele>
        <time>2022-01-19T11:53:11Z</time>
      </trkpt>
      <trkpt lat="44.86963" lon="5.52662">
        <ele>2314.7</ele>
        <time>2022-01-19T11:53:12Z</time>
      </trkpt>
      <trkpt lat="44.86963" lon="5.52662">
        <ele>2314.7</ele>
        <time>2022-01-19T11:53:13Z</time>
      </trkpt>
      <trkpt lat="44.86963" lon="5.52662">
        <ele>2314.7</ele>
        <time>2022-01-19T11:53:14Z</time>
      </trkpt>
      <trkpt lat="44.86963" lon="5.52662">
        <ele>2314.7</ele>
        <time>2022-01-19T11:53:15Z</time>
      </trkpt>
      <trkpt lat="44.86963" lon="5.52662">
        <ele>2314.7</ele>
        <time>2022-01-19T11:53:16Z</time>
      </trkpt>
      <trkpt lat="44.86963" lon="5.52662">
        <ele>2314.7</ele>
        <time>2022-01-19T11:53:17Z</time>
      </trkpt>
      <trkpt lat="44.86963" lon="5.52662">
        <ele>2314.7</ele>
        <time>2022-01-19T11:53:18Z</time>
      </trkpt>
      <trkpt lat="44.86963" lon="5.52662">
        <ele>2314.7</ele>
        <time>2022-01-19T11:53:19Z</time>
      </trkpt>
      <trkpt lat="44.86963" lon="5.52662">
        <ele>2314.7</ele>
        <time>2022-01-19T11:53:20Z</time>
      </trkpt>
      <trkpt lat="44.86963" lon="5.52662">
        <ele>2314.7</ele>
        <time>2022-01-19T11:53:21Z</time>
      </trkpt>
      <trkpt lat="44.86963" lon="5.52662">
        <ele>2314.7</ele>
        <time>2022-01-19T11:53:22Z</time>
      </trkpt>
      <trkpt lat="44.86963" lon="5.52662">
        <ele>2314.7</ele>
        <time>2022-01-19T11:53:23Z</time>
      </trkpt>
      <trkpt lat="44.86963" lon="5.52662">
        <ele>2314.7</ele>
        <time>2022-01-19T11:53:24Z</time>
      </trkpt>
      <trkpt lat="44.86963" lon="5.52662">
        <ele>2314.7</ele>
        <time>2022-01-19T11:53:25Z</time>
      </trkpt>
      <trkpt lat="44.86963" lon="5.52662">
        <ele>2314.7</ele>
        <time>2022-01-19T11:53:26Z</time>
      </trkpt>
      <trkpt lat="44.86963" lon="5.52662">
        <ele>2314.7</ele>
        <time>2022-01-19T11:53:27Z</time>
      </trkpt>
      <trkpt lat="44.86963" lon="5.52662">
        <ele>2314.7</ele>
        <time>2022-01-19T11:53:28Z</time>
      </trkpt>
      <trkpt lat="44.86963" lon="5.52662">
        <ele>2314.7</ele>
        <time>2022-01-19T11:53:29Z</time>
      </trkpt>
      <trkpt lat="44.86963" lon="5.52662">
        <ele>2314.7</ele>
        <time>2022-01-19T11:53:30Z</time>
      </trkpt>
      <trkpt lat="44.86963" lon="5.52662">
        <ele>2314.7</ele>
        <time>2022-01-19T11:53:31Z</time>
      </trkpt>
      <trkpt lat="44.86963" lon="5.52662">
        <ele>2314.7</ele>
        <time>2022-01-19T11:53:32Z</time>
      </trkpt>
      <trkpt lat="44.86963" lon="5.52662">
        <ele>2314.7</ele>
        <time>2022-01-19T11:53:33Z</time>
      </trkpt>
      <trkpt lat="44.86963" lon="5.52662">
        <ele>2314.7</ele>
        <time>2022-01-19T11:53:34Z</time>
      </trkpt>
      <trkpt lat="44.86963" lon="5.52662">
        <ele>2314.7</ele>
        <time>2022-01-19T11:53:35Z</time>
      </trkpt>
      <trkpt lat="44.86963" lon="5.52662">
        <ele>2314.7</ele>
        <time>2022-01-19T11:53:36Z</time>
      </trkpt>
      <trkpt lat="44.86963" lon="5.52662">
        <ele>2314.7</ele>
        <time>2022-01-19T11:53:37Z</time>
      </trkpt>
      <trkpt lat="44.86963" lon="5.52662">
        <ele>2314.7</ele>
        <time>2022-01-19T11:53:38Z</time>
      </trkpt>
      <trkpt lat="44.86963" lon="5.52662">
        <ele>2314.7</ele>
        <time>2022-01-19T11:53:39Z</time>
      </trkpt>
      <trkpt lat="44.86963" lon="5.52662">
        <ele>2314.7</ele>
        <time>2022-01-19T11:53:40Z</time>
      </trkpt>
      <trkpt lat="44.86963" lon="5.52662">
        <ele>2314.7</ele>
        <time>2022-01-19T11:53:41Z</time>
      </trkpt>
      <trkpt lat="44.86963" lon="5.52662">
        <ele>2314.7</ele>
        <time>2022-01-19T11:53:42Z</time>
      </trkpt>
      <trkpt lat="44.86963" lon="5.52662">
        <ele>2314.7</ele>
        <time>2022-01-19T11:53:43Z</time>
      </trkpt>
      <trkpt lat="44.86963" lon="5.52662">
        <ele>2314.7</ele>
        <time>2022-01-19T11:53:44Z</time>
      </trkpt>
      <trkpt lat="44.86963" lon="5.52662">
        <ele>2314.7</ele>
        <time>2022-01-19T11:53:45Z</time>
      </trkpt>
      <trkpt lat="44.86963" lon="5.52662">
        <ele>2314.7</ele>
        <time>2022-01-19T11:53:46Z</time>
      </trkpt>
      <trkpt lat="44.86963" lon="5.52662">
        <ele>2314.7</ele>
        <time>2022-01-19T11:53:47Z</time>
      </trkpt>
      <trkpt lat="44.86963" lon="5.52662">
        <ele>2314.7</ele>
        <time>2022-01-19T11:53:48Z</time>
      </trkpt>
      <trkpt lat="44.86963" lon="5.52662">
        <ele>2314.7</ele>
        <time>2022-01-19T11:53:49Z</time>
      </trkpt>
      <trkpt lat="44.86963" lon="5.52662">
        <ele>2314.7</ele>
        <time>2022-01-19T11:53:50Z</time>
      </trkpt>
      <trkpt lat="44.86963" lon="5.52662">
        <ele>2314.7</ele>
        <time>2022-01-19T11:53:51Z</time>
      </trkpt>
      <trkpt lat="44.86963" lon="5.52662">
        <ele>2314.7</ele>
        <time>2022-01-19T11:53:52Z</time>
      </trkpt>
      <trkpt lat="44.86963" lon="5.52662">
        <ele>2314.7</ele>
        <time>2022-01-19T11:53:53Z</time>
      </trkpt>
      <trkpt lat="44.86963" lon="5.52662">
        <ele>2314.7</ele>
        <time>2022-01-19T11:53:54Z</time>
      </trkpt>
      <trkpt lat="44.86963" lon="5.52662">
        <ele>2314.7</ele>
        <time>2022-01-19T11:53:55Z</time>
      </trkpt>
      <trkpt lat="44.86963" lon="5.52662">
        <ele>2314.7</ele>
        <time>2022-01-19T11:53:56Z</time>
      </trkpt>
      <trkpt lat="44.86963" lon="5.52662">
        <ele>2314.7</ele>
        <time>2022-01-19T11:53:57Z</time>
      </trkpt>
      <trkpt lat="44.86963" lon="5.52662">
        <ele>2314.7</ele>
        <time>2022-01-19T11:53:58Z</time>
      </trkpt>
      <trkpt lat="44.86963" lon="5.52662">
        <ele>2314.7</ele>
        <time>2022-01-19T11:53:59Z</time>
      </trkpt>
      <trkpt lat="44.86963" lon="5.52662">
        <ele>2314.7</ele>
        <time>2022-01-19T11:54:00Z</time>
      </trkpt>
      <trkpt lat="44.86963" lon="5.52662">
        <ele>2314.7</ele>
        <time>2022-01-19T11:54:01Z</time>
      </trkpt>
      <trkpt lat="44.86963" lon="5.52662">
        <ele>2314.7</ele>
        <time>2022-01-19T11:54:02Z</time>
      </trkpt>
      <trkpt lat="44.86963" lon="5.52662">
        <ele>2314.7</ele>
        <time>2022-01-19T11:54:03Z</time>
      </trkpt>
      <trkpt lat="44.86963" lon="5.52662">
        <ele>2314.7</ele>
        <time>2022-01-19T11:54:04Z</time>
      </trkpt>
      <trkpt lat="44.86963" lon="5.52662">
        <ele>2314.7</ele>
        <time>2022-01-19T11:54:05Z</time>
      </trkpt>
      <trkpt lat="44.86963" lon="5.52662">
        <ele>2314.7</ele>
        <time>2022-01-19T11:54:06Z</time>
      </trkpt>
      <trkpt lat="44.86963" lon="5.52662">
        <ele>2314.7</ele>
        <time>2022-01-19T11:54:07Z</time>
      </trkpt>
      <trkpt lat="44.86963" lon="5.52662">
        <ele>2314.7</ele>
        <time>2022-01-19T11:54:08Z</time>
      </trkpt>
      <trkpt lat="44.86963" lon="5.52662">
        <ele>2314.7</ele>
        <time>2022-01-19T11:54:09Z</time>
      </trkpt>
      <trkpt lat="44.86963" lon="5.52662">
        <ele>2314.7</ele>
        <time>2022-01-19T11:54:10Z</time>
      </trkpt>
      <trkpt lat="44.86963" lon="5.52662">
        <ele>2314.7</ele>
        <time>2022-01-19T11:54:11Z</time>
      </trkpt>
      <trkpt lat="44.86963" lon="5.52662">
        <ele>2314.7</ele>
        <time>2022-01-19T11:54:12Z</time>
      </trkpt>
      <trkpt lat="44.86963" lon="5.52662">
        <ele>2314.7</ele>
        <time>2022-01-19T11:54:13Z</time>
      </trkpt>
      <trkpt lat="44.86963" lon="5.52662">
        <ele>2314.7</ele>
        <time>2022-01-19T11:54:14Z</time>
      </trkpt>
      <trkpt lat="44.86963" lon="5.52662">
        <ele>2314.7</ele>
        <time>2022-01-19T11:54:15Z</time>
      </trkpt>
      <trkpt lat="44.86963" lon="5.52662">
        <ele>2314.7</ele>
        <time>2022-01-19T11:54:16Z</time>
      </trkpt>
      <trkpt lat="44.86963" lon="5.52662">
        <ele>2314.7</ele>
        <time>2022-01-19T11:54:17Z</time>
      </trkpt>
      <trkpt lat="44.86963" lon="5.52662">
        <ele>2314.7</ele>
        <time>2022-01-19T11:54:18Z</time>
      </trkpt>
      <trkpt lat="44.86963" lon="5.52662">
        <ele>2314.7</ele>
        <time>2022-01-19T11:54:19Z</time>
      </trkpt>
      <trkpt lat="44.86963" lon="5.52662">
        <ele>2314.7</ele>
        <time>2022-01-19T11:54:20Z</time>
      </trkpt>
      <trkpt lat="44.86963" lon="5.52662">
        <ele>2314.7</ele>
        <time>2022-01-19T11:54:21Z</time>
      </trkpt>
      <trkpt lat="44.86963" lon="5.52662">
        <ele>2314.7</ele>
        <time>2022-01-19T11:54:22Z</time>
      </trkpt>
      <trkpt lat="44.86963" lon="5.52662">
        <ele>2314.7</ele>
        <time>2022-01-19T11:54:23Z</time>
      </trkpt>
      <trkpt lat="44.86963" lon="5.52662">
        <ele>2314.7</ele>
        <time>2022-01-19T11:54:24Z</time>
      </trkpt>
      <trkpt lat="44.86963" lon="5.52662">
        <ele>2314.7</ele>
        <time>2022-01-19T11:54:25Z</time>
      </trkpt>
      <trkpt lat="44.86963" lon="5.52662">
        <ele>2314.7</ele>
        <time>2022-01-19T11:54:26Z</time>
      </trkpt>
      <trkpt lat="44.86963" lon="5.52662">
        <ele>2314.7</ele>
        <time>2022-01-19T11:54:27Z</time>
      </trkpt>
      <trkpt lat="44.86963" lon="5.52662">
        <ele>2314.7</ele>
        <time>2022-01-19T11:54:28Z</time>
      </trkpt>
      <trkpt lat="44.86963" lon="5.52662">
        <ele>2314.7</ele>
        <time>2022-01-19T11:54:29Z</time>
      </trkpt>
      <trkpt lat="44.86963" lon="5.52662">
        <ele>2314.7</ele>
        <time>2022-01-19T11:54:30Z</time>
      </trkpt>
      <trkpt lat="44.86963" lon="5.52662">
        <ele>2314.7</ele>
        <time>2022-01-19T11:54:31Z</time>
      </trkpt>
      <trkpt lat="44.86963" lon="5.52662">
        <ele>2314.7</ele>
        <time>2022-01-19T11:54:32Z</time>
      </trkpt>
      <trkpt lat="44.86963" lon="5.52662">
        <ele>2314.7</ele>
        <time>2022-01-19T11:54:33Z</time>
      </trkpt>
      <trkpt lat="44.86963" lon="5.52662">
        <ele>2314.7</ele>
        <time>2022-01-19T11:54:34Z</time>
      </trkpt>
      <trkpt lat="44.86963" lon="5.52662">
        <ele>2314.7</ele>
        <time>2022-01-19T11:54:35Z</time>
      </trkpt>
      <trkpt lat="44.86963" lon="5.52662">
        <ele>2314.7</ele>
        <time>2022-01-19T11:54:36Z</time>
      </trkpt>
      <trkpt lat="44.86963" lon="5.52662">
        <ele>2314.7</ele>
        <time>2022-01-19T11:54:37Z</time>
      </trkpt>
      <trkpt lat="44.86963" lon="5.52662">
        <ele>2314.7</ele>
        <time>2022-01-19T11:54:38Z</time>
      </trkpt>
      <trkpt lat="44.86963" lon="5.52662">
        <ele>2314.7</ele>
        <time>2022-01-19T11:54:39Z</time>
      </trkpt>
      <trkpt lat="44.86963" lon="5.52662">
        <ele>2314.7</ele>
        <time>2022-01-19T11:54:40Z</time>
      </trkpt>
      <trkpt lat="44.86963" lon="5.52662">
        <ele>2314.7</ele>
        <time>2022-01-19T11:54:41Z</time>
      </trkpt>
      <trkpt lat="44.86963" lon="5.52662">
        <ele>2314.7</ele>
        <time>2022-01-19T11:54:42Z</time>
      </trkpt>
      <trkpt lat="44.86963" lon="5.52662">
        <ele>2314.7</ele>
        <time>2022-01-19T11:54:43Z</time>
      </trkpt>
      <trkpt lat="44.86963" lon="5.52662">
        <ele>2314.7</ele>
        <time>2022-01-19T11:54:44Z</time>
      </trkpt>
      <trkpt lat="44.86963" lon="5.52662">
        <ele>2314.7</ele>
        <time>2022-01-19T11:54:45Z</time>
      </trkpt>
      <trkpt lat="44.86963" lon="5.52662">
        <ele>2314.7</ele>
        <time>2022-01-19T11:54:46Z</time>
      </trkpt>
      <trkpt lat="44.86963" lon="5.52662">
        <ele>2314.7</ele>
        <time>2022-01-19T11:54:47Z</time>
      </trkpt>
      <trkpt lat="44.86963" lon="5.52662">
        <ele>2314.7</ele>
        <time>2022-01-19T11:54:48Z</time>
      </trkpt>
      <trkpt lat="44.86963" lon="5.52662">
        <ele>2314.7</ele>
        <time>2022-01-19T11:54:49Z</time>
      </trkpt>
      <trkpt lat="44.86963" lon="5.52662">
        <ele>2314.7</ele>
        <time>2022-01-19T11:54:50Z</time>
      </trkpt>
      <trkpt lat="44.86963" lon="5.52662">
        <ele>2314.7</ele>
        <time>2022-01-19T11:54:51Z</time>
      </trkpt>
      <trkpt lat="44.86963" lon="5.52662">
        <ele>2314.7</ele>
        <time>2022-01-19T11:54:52Z</time>
      </trkpt>
      <trkpt lat="44.86963" lon="5.52662">
        <ele>2314.7</ele>
        <time>2022-01-19T11:54:53Z</time>
      </trkpt>
      <trkpt lat="44.86963" lon="5.52662">
        <ele>2314.7</ele>
        <time>2022-01-19T11:54:54Z</time>
      </trkpt>
      <trkpt lat="44.86963" lon="5.52662">
        <ele>2314.7</ele>
        <time>2022-01-19T11:54:55Z</time>
      </trkpt>
      <trkpt lat="44.86963" lon="5.52662">
        <ele>2314.7</ele>
        <time>2022-01-19T11:54:56Z</time>
      </trkpt>
      <trkpt lat="44.86963" lon="5.52662">
        <ele>2314.7</ele>
        <time>2022-01-19T11:54:57Z</time>
      </trkpt>
      <trkpt lat="44.86963" lon="5.52662">
        <ele>2314.7</ele>
        <time>2022-01-19T11:54:58Z</time>
      </trkpt>
      <trkpt lat="44.86963" lon="5.52662">
        <ele>2314.7</ele>
        <time>2022-01-19T11:54:59Z</time>
      </trkpt>
      <trkpt lat="44.86963" lon="5.52662">
        <ele>2314.7</ele>
        <time>2022-01-19T11:55:00Z</time>
      </trkpt>
      <trkpt lat="44.86963" lon="5.52662">
        <ele>2314.7</ele>
        <time>2022-01-19T11:55:01Z</time>
      </trkpt>
      <trkpt lat="44.86963" lon="5.52662">
        <ele>2314.7</ele>
        <time>2022-01-19T11:55:02Z</time>
      </trkpt>
      <trkpt lat="44.86963" lon="5.52662">
        <ele>2314.7</ele>
        <time>2022-01-19T11:55:03Z</time>
      </trkpt>
      <trkpt lat="44.86963" lon="5.52662">
        <ele>2314.7</ele>
        <time>2022-01-19T11:55:04Z</time>
      </trkpt>
      <trkpt lat="44.86963" lon="5.52662">
        <ele>2314.7</ele>
        <time>2022-01-19T11:55:05Z</time>
      </trkpt>
      <trkpt lat="44.86963" lon="5.52662">
        <ele>2314.7</ele>
        <time>2022-01-19T11:55:06Z</time>
      </trkpt>
      <trkpt lat="44.86963" lon="5.52662">
        <ele>2314.7</ele>
        <time>2022-01-19T11:55:07Z</time>
      </trkpt>
      <trkpt lat="44.86963" lon="5.52662">
        <ele>2314.7</ele>
        <time>2022-01-19T11:55:08Z</time>
      </trkpt>
      <trkpt lat="44.86963" lon="5.52662">
        <ele>2314.7</ele>
        <time>2022-01-19T11:55:09Z</time>
      </trkpt>
      <trkpt lat="44.86963" lon="5.52662">
        <ele>2314.7</ele>
        <time>2022-01-19T11:55:10Z</time>
      </trkpt>
      <trkpt lat="44.86963" lon="5.52662">
        <ele>2314.7</ele>
        <time>2022-01-19T11:55:11Z</time>
      </trkpt>
      <trkpt lat="44.86963" lon="5.52662">
        <ele>2314.7</ele>
        <time>2022-01-19T11:55:12Z</time>
      </trkpt>
      <trkpt lat="44.86963" lon="5.52662">
        <ele>2314.7</ele>
        <time>2022-01-19T11:55:13Z</time>
      </trkpt>
      <trkpt lat="44.86963" lon="5.52662">
        <ele>2314.7</ele>
        <time>2022-01-19T11:55:14Z</time>
      </trkpt>
      <trkpt lat="44.86963" lon="5.52662">
        <ele>2314.7</ele>
        <time>2022-01-19T11:55:15Z</time>
      </trkpt>
      <trkpt lat="44.86963" lon="5.52662">
        <ele>2314.7</ele>
        <time>2022-01-19T11:55:16Z</time>
      </trkpt>
      <trkpt lat="44.86963" lon="5.52662">
        <ele>2314.7</ele>
        <time>2022-01-19T11:55:17Z</time>
      </trkpt>
      <trkpt lat="44.86963" lon="5.52662">
        <ele>2314.7</ele>
        <time>2022-01-19T11:55:18Z</time>
      </trkpt>
      <trkpt lat="44.86963" lon="5.52662">
        <ele>2314.7</ele>
        <time>2022-01-19T11:55:19Z</time>
      </trkpt>
      <trkpt lat="44.86963" lon="5.52662">
        <ele>2314.7</ele>
        <time>2022-01-19T11:55:20Z</time>
      </trkpt>
      <trkpt lat="44.86963" lon="5.52662">
        <ele>2314.7</ele>
        <time>2022-01-19T11:55:21Z</time>
      </trkpt>
      <trkpt lat="44.86963" lon="5.52662">
        <ele>2314.7</ele>
        <time>2022-01-19T11:55:22Z</time>
      </trkpt>
      <trkpt lat="44.86963" lon="5.52662">
        <ele>2314.7</ele>
        <time>2022-01-19T11:55:23Z</time>
      </trkpt>
      <trkpt lat="44.86963" lon="5.52662">
        <ele>2314.7</ele>
        <time>2022-01-19T11:55:24Z</time>
      </trkpt>
      <trkpt lat="44.86963" lon="5.52662">
        <ele>2314.7</ele>
        <time>2022-01-19T11:55:25Z</time>
      </trkpt>
      <trkpt lat="44.86963" lon="5.52662">
        <ele>2314.7</ele>
        <time>2022-01-19T11:55:26Z</time>
      </trkpt>
      <trkpt lat="44.86963" lon="5.52662">
        <ele>2314.7</ele>
        <time>2022-01-19T11:55:27Z</time>
      </trkpt>
      <trkpt lat="44.86963" lon="5.52662">
        <ele>2314.7</ele>
        <time>2022-01-19T11:55:28Z</time>
      </trkpt>
      <trkpt lat="44.86963" lon="5.52662">
        <ele>2314.7</ele>
        <time>2022-01-19T11:55:29Z</time>
      </trkpt>
      <trkpt lat="44.86963" lon="5.52662">
        <ele>2314.7</ele>
        <time>2022-01-19T11:55:30Z</time>
      </trkpt>
      <trkpt lat="44.86963" lon="5.52662">
        <ele>2314.7</ele>
        <time>2022-01-19T11:55:31Z</time>
      </trkpt>
      <trkpt lat="44.86963" lon="5.52662">
        <ele>2314.7</ele>
        <time>2022-01-19T11:55:32Z</time>
      </trkpt>
      <trkpt lat="44.86963" lon="5.52662">
        <ele>2314.7</ele>
        <time>2022-01-19T11:55:33Z</time>
      </trkpt>
      <trkpt lat="44.86963" lon="5.52662">
        <ele>2314.7</ele>
        <time>2022-01-19T11:55:34Z</time>
      </trkpt>
      <trkpt lat="44.86963" lon="5.52662">
        <ele>2314.7</ele>
        <time>2022-01-19T11:55:35Z</time>
      </trkpt>
      <trkpt lat="44.86963" lon="5.52662">
        <ele>2314.7</ele>
        <time>2022-01-19T11:55:36Z</time>
      </trkpt>
      <trkpt lat="44.86963" lon="5.52662">
        <ele>2314.7</ele>
        <time>2022-01-19T11:55:37Z</time>
      </trkpt>
      <trkpt lat="44.86963" lon="5.52662">
        <ele>2314.7</ele>
        <time>2022-01-19T11:55:38Z</time>
      </trkpt>
      <trkpt lat="44.86963" lon="5.52662">
        <ele>2314.7</ele>
        <time>2022-01-19T11:55:39Z</time>
      </trkpt>
      <trkpt lat="44.86963" lon="5.52662">
        <ele>2314.7</ele>
        <time>2022-01-19T11:55:40Z</time>
      </trkpt>
      <trkpt lat="44.86963" lon="5.52662">
        <ele>2314.7</ele>
        <time>2022-01-19T11:55:41Z</time>
      </trkpt>
      <trkpt lat="44.86963" lon="5.52662">
        <ele>2314.7</ele>
        <time>2022-01-19T11:55:42Z</time>
      </trkpt>
      <trkpt lat="44.86963" lon="5.52662">
        <ele>2314.7</ele>
        <time>2022-01-19T11:55:43Z</time>
      </trkpt>
      <trkpt lat="44.86963" lon="5.52662">
        <ele>2314.7</ele>
        <time>2022-01-19T11:55:44Z</time>
      </trkpt>
      <trkpt lat="44.86963" lon="5.52662">
        <ele>2314.7</ele>
        <time>2022-01-19T11:55:45Z</time>
      </trkpt>
      <trkpt lat="44.86963" lon="5.52662">
        <ele>2314.7</ele>
        <time>2022-01-19T11:55:46Z</time>
      </trkpt>
      <trkpt lat="44.86963" lon="5.52662">
        <ele>2314.7</ele>
        <time>2022-01-19T11:55:47Z</time>
      </trkpt>
      <trkpt lat="44.86963" lon="5.52662">
        <ele>2314.7</ele>
        <time>2022-01-19T11:55:48Z</time>
      </trkpt>
      <trkpt lat="44.86963" lon="5.52662">
        <ele>2314.7</ele>
        <time>2022-01-19T11:55:49Z</time>
      </trkpt>
      <trkpt lat="44.86963" lon="5.52662">
        <ele>2314.7</ele>
        <time>2022-01-19T11:55:50Z</time>
      </trkpt>
      <trkpt lat="44.86963" lon="5.52662">
        <ele>2314.7</ele>
        <time>2022-01-19T11:55:51Z</time>
      </trkpt>
      <trkpt lat="44.86963" lon="5.52662">
        <ele>2314.7</ele>
        <time>2022-01-19T11:55:52Z</time>
      </trkpt>
      <trkpt lat="44.86963" lon="5.52662">
        <ele>2314.7</ele>
        <time>2022-01-19T11:55:53Z</time>
      </trkpt>
      <trkpt lat="44.86963" lon="5.52662">
        <ele>2314.7</ele>
        <time>2022-01-19T11:55:54Z</time>
      </trkpt>
      <trkpt lat="44.86963" lon="5.52662">
        <ele>2314.7</ele>
        <time>2022-01-19T11:55:55Z</time>
      </trkpt>
      <trkpt lat="44.86963" lon="5.52662">
        <ele>2314.7</ele>
        <time>2022-01-19T11:55:56Z</time>
      </trkpt>
      <trkpt lat="44.86963" lon="5.52662">
        <ele>2314.7</ele>
        <time>2022-01-19T11:55:57Z</time>
      </trkpt>
      <trkpt lat="44.86963" lon="5.52662">
        <ele>2314.7</ele>
        <time>2022-01-19T11:55:58Z</time>
      </trkpt>
      <trkpt lat="44.86963" lon="5.52662">
        <ele>2314.7</ele>
        <time>2022-01-19T11:55:59Z</time>
      </trkpt>
      <trkpt lat="44.86963" lon="5.52662">
        <ele>2314.7</ele>
        <time>2022-01-19T11:56:00Z</time>
      </trkpt>
      <trkpt lat="44.86963" lon="5.52662">
        <ele>2314.7</ele>
        <time>2022-01-19T11:56:01Z</time>
      </trkpt>
      <trkpt lat="44.86963" lon="5.52662">
        <ele>2314.7</ele>
        <time>2022-01-19T11:56:02Z</time>
      </trkpt>
      <trkpt lat="44.86963" lon="5.52662">
        <ele>2314.7</ele>
        <time>2022-01-19T11:56:03Z</time>
      </trkpt>
      <trkpt lat="44.86963" lon="5.52662">
        <ele>2314.7</ele>
        <time>2022-01-19T11:56:04Z</time>
      </trkpt>
      <trkpt lat="44.86963" lon="5.52662">
        <ele>2314.7</ele>
        <time>2022-01-19T11:56:05Z</time>
      </trkpt>
      <trkpt lat="44.86963" lon="5.52662">
        <ele>2314.7</ele>
        <time>2022-01-19T11:56:06Z</time>
      </trkpt>
      <trkpt lat="44.86963" lon="5.52662">
        <ele>2314.7</ele>
        <time>2022-01-19T11:56:07Z</time>
      </trkpt>
      <trkpt lat="44.86963" lon="5.52662">
        <ele>2314.7</ele>
        <time>2022-01-19T11:56:08Z</time>
      </trkpt>
      <trkpt lat="44.86963" lon="5.52662">
        <ele>2314.7</ele>
        <time>2022-01-19T11:56:09Z</time>
      </trkpt>
      <trkpt lat="44.86963" lon="5.52662">
        <ele>2314.7</ele>
        <time>2022-01-19T11:56:10Z</time>
      </trkpt>
      <trkpt lat="44.86963" lon="5.52662">
        <ele>2314.7</ele>
        <time>2022-01-19T11:56:11Z</time>
      </trkpt>
      <trkpt lat="44.86963" lon="5.52662">
        <ele>2314.7</ele>
        <time>2022-01-19T11:56:12Z</time>
      </trkpt>
      <trkpt lat="44.86963" lon="5.52662">
        <ele>2314.7</ele>
        <time>2022-01-19T11:56:13Z</time>
      </trkpt>
      <trkpt lat="44.86963" lon="5.52662">
        <ele>2314.7</ele>
        <time>2022-01-19T11:56:14Z</time>
      </trkpt>
      <trkpt lat="44.86963" lon="5.52662">
        <ele>2314.7</ele>
        <time>2022-01-19T11:56:15Z</time>
      </trkpt>
      <trkpt lat="44.86963" lon="5.52662">
        <ele>2314.7</ele>
        <time>2022-01-19T11:56:16Z</time>
      </trkpt>
      <trkpt lat="44.86963" lon="5.52662">
        <ele>2314.7</ele>
        <time>2022-01-19T11:56:17Z</time>
      </trkpt>
      <trkpt lat="44.86963" lon="5.52662">
        <ele>2314.7</ele>
        <time>2022-01-19T11:56:18Z</time>
      </trkpt>
      <trkpt lat="44.86963" lon="5.52662">
        <ele>2314.7</ele>
        <time>2022-01-19T11:56:19Z</time>
      </trkpt>
      <trkpt lat="44.86963" lon="5.52662">
        <ele>2314.7</ele>
        <time>2022-01-19T11:56:20Z</time>
      </trkpt>
      <trkpt lat="44.86963" lon="5.52662">
        <ele>2314.7</ele>
        <time>2022-01-19T11:56:21Z</time>
      </trkpt>
      <trkpt lat="44.86963" lon="5.52662">
        <ele>2314.7</ele>
        <time>2022-01-19T11:56:22Z</time>
      </trkpt>
      <trkpt lat="44.86963" lon="5.52662">
        <ele>2314.7</ele>
        <time>2022-01-19T11:56:23Z</time>
      </trkpt>
      <trkpt lat="44.86963" lon="5.52662">
        <ele>2314.7</ele>
        <time>2022-01-19T11:56:24Z</time>
      </trkpt>
      <trkpt lat="44.86963" lon="5.52662">
        <ele>2314.7</ele>
        <time>2022-01-19T11:56:25Z</time>
      </trkpt>
      <trkpt lat="44.86963" lon="5.52662">
        <ele>2314.7</ele>
        <time>2022-01-19T11:56:26Z</time>
      </trkpt>
      <trkpt lat="44.86963" lon="5.52662">
        <ele>2314.7</ele>
        <time>2022-01-19T11:56:27Z</time>
      </trkpt>
      <trkpt lat="44.86963" lon="5.52662">
        <ele>2314.7</ele>
        <time>2022-01-19T11:56:28Z</time>
      </trkpt>
      <trkpt lat="44.86963" lon="5.52662">
        <ele>2314.7</ele>
        <time>2022-01-19T11:56:29Z</time>
      </trkpt>
      <trkpt lat="44.86963" lon="5.52662">
        <ele>2314.7</ele>
        <time>2022-01-19T11:56:30Z</time>
      </trkpt>
      <trkpt lat="44.86963" lon="5.52662">
        <ele>2314.7</ele>
        <time>2022-01-19T11:56:31Z</time>
      </trkpt>
      <trkpt lat="44.86963" lon="5.52662">
        <ele>2314.7</ele>
        <time>2022-01-19T11:56:32Z</time>
      </trkpt>
      <trkpt lat="44.86963" lon="5.52662">
        <ele>2314.7</ele>
        <time>2022-01-19T11:56:33Z</time>
      </trkpt>
      <trkpt lat="44.86963" lon="5.52662">
        <ele>2314.7</ele>
        <time>2022-01-19T11:56:34Z</time>
      </trkpt>
      <trkpt lat="44.86963" lon="5.52662">
        <ele>2314.7</ele>
        <time>2022-01-19T11:56:35Z</time>
      </trkpt>
      <trkpt lat="44.86963" lon="5.52662">
        <ele>2314.7</ele>
        <time>2022-01-19T11:56:36Z</time>
      </trkpt>
      <trkpt lat="44.86963" lon="5.52662">
        <ele>2314.7</ele>
        <time>2022-01-19T11:56:37Z</time>
      </trkpt>
      <trkpt lat="44.86963" lon="5.52662">
        <ele>2314.7</ele>
        <time>2022-01-19T11:56:38Z</time>
      </trkpt>
      <trkpt lat="44.86963" lon="5.52662">
        <ele>2314.7</ele>
        <time>2022-01-19T11:56:39Z</time>
      </trkpt>
      <trkpt lat="44.86963" lon="5.52662">
        <ele>2314.7</ele>
        <time>2022-01-19T11:56:40Z</time>
      </trkpt>
      <trkpt lat="44.86963" lon="5.52662">
        <ele>2314.7</ele>
        <time>2022-01-19T11:56:41Z</time>
      </trkpt>
      <trkpt lat="44.86963" lon="5.52662">
        <ele>2314.7</ele>
        <time>2022-01-19T11:56:42Z</time>
      </trkpt>
      <trkpt lat="44.86963" lon="5.52662">
        <ele>2314.7</ele>
        <time>2022-01-19T11:56:43Z</time>
      </trkpt>
      <trkpt lat="44.86963" lon="5.52662">
        <ele>2314.7</ele>
        <time>2022-01-19T11:56:44Z</time>
      </trkpt>
      <trkpt lat="44.86963" lon="5.52662">
        <ele>2314.7</ele>
        <time>2022-01-19T11:56:45Z</time>
      </trkpt>
      <trkpt lat="44.86963" lon="5.52662">
        <ele>2314.7</ele>
        <time>2022-01-19T11:56:46Z</time>
      </trkpt>
      <trkpt lat="44.86963" lon="5.52662">
        <ele>2314.7</ele>
        <time>2022-01-19T11:56:47Z</time>
      </trkpt>
      <trkpt lat="44.86963" lon="5.52662">
        <ele>2314.7</ele>
        <time>2022-01-19T11:56:48Z</time>
      </trkpt>
      <trkpt lat="44.86963" lon="5.52662">
        <ele>2314.7</ele>
        <time>2022-01-19T11:56:49Z</time>
      </trkpt>
      <trkpt lat="44.86963" lon="5.52662">
        <ele>2314.7</ele>
        <time>2022-01-19T11:56:50Z</time>
      </trkpt>
      <trkpt lat="44.86963" lon="5.52662">
        <ele>2314.7</ele>
        <time>2022-01-19T11:56:51Z</time>
      </trkpt>
      <trkpt lat="44.86963" lon="5.52662">
        <ele>2314.7</ele>
        <time>2022-01-19T11:56:52Z</time>
      </trkpt>
      <trkpt lat="44.86963" lon="5.52662">
        <ele>2314.7</ele>
        <time>2022-01-19T11:56:53Z</time>
      </trkpt>
      <trkpt lat="44.86963" lon="5.52662">
        <ele>2314.7</ele>
        <time>2022-01-19T11:56:54Z</time>
      </trkpt>
      <trkpt lat="44.86963" lon="5.52662">
        <ele>2314.7</ele>
        <time>2022-01-19T11:56:55Z</time>
      </trkpt>
      <trkpt lat="44.86963" lon="5.52661">
        <ele>2314.5</ele>
        <time>2022-01-19T11:56:56Z</time>
      </trkpt>
      <trkpt lat="44.86963" lon="5.52661">
        <ele>2314.5</ele>
        <time>2022-01-19T11:56:57Z</time>
      </trkpt>
      <trkpt lat="44.86962" lon="5.5266">
        <ele>2314.3</ele>
        <time>2022-01-19T11:56:58Z</time>
      </trkpt>
      <trkpt lat="44.86961" lon="5.5266">
        <ele>2314.2</ele>
        <time>2022-01-19T11:56:59Z</time>
      </trkpt>
      <trkpt lat="44.86961" lon="5.52659">
        <ele>2314.2</ele>
        <time>2022-01-19T11:57:00Z</time>
      </trkpt>
      <trkpt lat="44.86961" lon="5.52659">
        <ele>2314.1</ele>
        <time>2022-01-19T11:57:01Z</time>
      </trkpt>
      <trkpt lat="44.86961" lon="5.52659">
        <ele>2314.1</ele>
        <time>2022-01-19T11:57:02Z</time>
      </trkpt>
      <trkpt lat="44.86961" lon="5.52659">
        <ele>2314</ele>
        <time>2022-01-19T11:57:03Z</time>
      </trkpt>
      <trkpt lat="44.86961" lon="5.52659">
        <ele>2314</ele>
        <time>2022-01-19T11:57:04Z</time>
      </trkpt>
      <trkpt lat="44.86962" lon="5.52659">
        <ele>2314</ele>
        <time>2022-01-19T11:57:05Z</time>
      </trkpt>
      <trkpt lat="44.86962" lon="5.52659">
        <ele>2313.9</ele>
        <time>2022-01-19T11:57:06Z</time>
      </trkpt>
      <trkpt lat="44.86962" lon="5.52659">
        <ele>2313.9</ele>
        <time>2022-01-19T11:57:07Z</time>
      </trkpt>
      <trkpt lat="44.86962" lon="5.52658">
        <ele>2313.8</ele>
        <time>2022-01-19T11:57:08Z</time>
      </trkpt>
      <trkpt lat="44.86962" lon="5.52658">
        <ele>2313.8</ele>
        <time>2022-01-19T11:57:09Z</time>
      </trkpt>
      <trkpt lat="44.86962" lon="5.52658">
        <ele>2313.8</ele>
        <time>2022-01-19T11:57:10Z</time>
      </trkpt>
      <trkpt lat="44.86963" lon="5.52657">
        <ele>2313.7</ele>
        <time>2022-01-19T11:57:11Z</time>
      </trkpt>
      <trkpt lat="44.86963" lon="5.52657">
        <ele>2313.6</ele>
        <time>2022-01-19T11:57:12Z</time>
      </trkpt>
      <trkpt lat="44.86962" lon="5.52657">
        <ele>2313.6</ele>
        <time>2022-01-19T11:57:13Z</time>
      </trkpt>
      <trkpt lat="44.86962" lon="5.52658">
        <ele>2313.5</ele>
        <time>2022-01-19T11:57:14Z</time>
      </trkpt>
      <trkpt lat="44.86962" lon="5.52658">
        <ele>2313.5</ele>
        <time>2022-01-19T11:57:15Z</time>
      </trkpt>
      <trkpt lat="44.86962" lon="5.52658">
        <ele>2313.5</ele>
        <time>2022-01-19T11:57:16Z</time>
      </trkpt>
      <trkpt lat="44.86962" lon="5.52658">
        <ele>2313.5</ele>
        <time>2022-01-19T11:57:17Z</time>
      </trkpt>
      <trkpt lat="44.86962" lon="5.52658">
        <ele>2313.5</ele>
        <time>2022-01-19T11:57:18Z</time>
      </trkpt>
      <trkpt lat="44.86962" lon="5.52658">
        <ele>2313.5</ele>
        <time>2022-01-19T11:57:19Z</time>
      </trkpt>
      <trkpt lat="44.86962" lon="5.52658">
        <ele>2313.5</ele>
        <time>2022-01-19T11:57:20Z</time>
      </trkpt>
      <trkpt lat="44.86962" lon="5.52658">
        <ele>2313.5</ele>
        <time>2022-01-19T11:57:21Z</time>
      </trkpt>
      <trkpt lat="44.86962" lon="5.52658">
        <ele>2313.5</ele>
        <time>2022-01-19T11:57:22Z</time>
      </trkpt>
      <trkpt lat="44.86962" lon="5.52658">
        <ele>2313.5</ele>
        <time>2022-01-19T11:57:23Z</time>
      </trkpt>
      <trkpt lat="44.86962" lon="5.52658">
        <ele>2313.5</ele>
        <time>2022-01-19T11:57:24Z</time>
      </trkpt>
      <trkpt lat="44.86962" lon="5.52658">
        <ele>2313.5</ele>
        <time>2022-01-19T11:57:25Z</time>
      </trkpt>
      <trkpt lat="44.86962" lon="5.52658">
        <ele>2313.5</ele>
        <time>2022-01-19T11:57:26Z</time>
      </trkpt>
      <trkpt lat="44.86962" lon="5.52658">
        <ele>2313.5</ele>
        <time>2022-01-19T11:57:27Z</time>
      </trkpt>
      <trkpt lat="44.86962" lon="5.52658">
        <ele>2313.5</ele>
        <time>2022-01-19T11:57:28Z</time>
      </trkpt>
      <trkpt lat="44.86962" lon="5.52658">
        <ele>2313.5</ele>
        <time>2022-01-19T11:57:29Z</time>
      </trkpt>
      <trkpt lat="44.86962" lon="5.52658">
        <ele>2313.5</ele>
        <time>2022-01-19T11:57:30Z</time>
      </trkpt>
      <trkpt lat="44.86962" lon="5.52658">
        <ele>2313.5</ele>
        <time>2022-01-19T11:57:31Z</time>
      </trkpt>
      <trkpt lat="44.86962" lon="5.52658">
        <ele>2313.5</ele>
        <time>2022-01-19T11:57:32Z</time>
      </trkpt>
      <trkpt lat="44.86962" lon="5.52658">
        <ele>2313.5</ele>
        <time>2022-01-19T11:57:33Z</time>
      </trkpt>
      <trkpt lat="44.86962" lon="5.52658">
        <ele>2313.5</ele>
        <time>2022-01-19T11:57:34Z</time>
      </trkpt>
      <trkpt lat="44.86962" lon="5.52658">
        <ele>2313.5</ele>
        <time>2022-01-19T11:57:35Z</time>
      </trkpt>
      <trkpt lat="44.86962" lon="5.52658">
        <ele>2313.5</ele>
        <time>2022-01-19T11:57:36Z</time>
      </trkpt>
      <trkpt lat="44.86962" lon="5.52658">
        <ele>2313.5</ele>
        <time>2022-01-19T11:57:37Z</time>
      </trkpt>
      <trkpt lat="44.86962" lon="5.52658">
        <ele>2313.5</ele>
        <time>2022-01-19T11:57:38Z</time>
      </trkpt>
      <trkpt lat="44.86962" lon="5.52658">
        <ele>2313.5</ele>
        <time>2022-01-19T11:57:39Z</time>
      </trkpt>
      <trkpt lat="44.86962" lon="5.52658">
        <ele>2313.5</ele>
        <time>2022-01-19T11:57:40Z</time>
      </trkpt>
      <trkpt lat="44.86962" lon="5.52658">
        <ele>2313.5</ele>
        <time>2022-01-19T11:57:41Z</time>
      </trkpt>
      <trkpt lat="44.86962" lon="5.52658">
        <ele>2313.5</ele>
        <time>2022-01-19T11:57:42Z</time>
      </trkpt>
      <trkpt lat="44.86962" lon="5.52658">
        <ele>2313.5</ele>
        <time>2022-01-19T11:57:43Z</time>
      </trkpt>
      <trkpt lat="44.86962" lon="5.52658">
        <ele>2313.5</ele>
        <time>2022-01-19T11:57:44Z</time>
      </trkpt>
      <trkpt lat="44.86962" lon="5.52658">
        <ele>2313.5</ele>
        <time>2022-01-19T11:57:45Z</time>
      </trkpt>
      <trkpt lat="44.86962" lon="5.52658">
        <ele>2313.5</ele>
        <time>2022-01-19T11:57:46Z</time>
      </trkpt>
      <trkpt lat="44.86962" lon="5.52658">
        <ele>2313.5</ele>
        <time>2022-01-19T11:57:47Z</time>
      </trkpt>
      <trkpt lat="44.86962" lon="5.52658">
        <ele>2313.5</ele>
        <time>2022-01-19T11:57:48Z</time>
      </trkpt>
      <trkpt lat="44.86962" lon="5.52658">
        <ele>2313.5</ele>
        <time>2022-01-19T11:57:49Z</time>
      </trkpt>
      <trkpt lat="44.86962" lon="5.52658">
        <ele>2313.5</ele>
        <time>2022-01-19T11:57:50Z</time>
      </trkpt>
      <trkpt lat="44.86962" lon="5.52658">
        <ele>2313.5</ele>
        <time>2022-01-19T11:57:51Z</time>
      </trkpt>
      <trkpt lat="44.86962" lon="5.52658">
        <ele>2313.5</ele>
        <time>2022-01-19T11:57:52Z</time>
      </trkpt>
      <trkpt lat="44.86962" lon="5.52658">
        <ele>2313.5</ele>
        <time>2022-01-19T11:57:53Z</time>
      </trkpt>
      <trkpt lat="44.86962" lon="5.52658">
        <ele>2313.5</ele>
        <time>2022-01-19T11:57:54Z</time>
      </trkpt>
      <trkpt lat="44.86962" lon="5.52658">
        <ele>2313.5</ele>
        <time>2022-01-19T11:57:55Z</time>
      </trkpt>
      <trkpt lat="44.86962" lon="5.52658">
        <ele>2313.5</ele>
        <time>2022-01-19T11:57:56Z</time>
      </trkpt>
      <trkpt lat="44.86962" lon="5.52658">
        <ele>2313.5</ele>
        <time>2022-01-19T11:57:57Z</time>
      </trkpt>
      <trkpt lat="44.86962" lon="5.52658">
        <ele>2313.5</ele>
        <time>2022-01-19T11:57:58Z</time>
      </trkpt>
      <trkpt lat="44.86962" lon="5.52658">
        <ele>2313.5</ele>
        <time>2022-01-19T11:57:59Z</time>
      </trkpt>
      <trkpt lat="44.86962" lon="5.52658">
        <ele>2313.5</ele>
        <time>2022-01-19T11:58:00Z</time>
      </trkpt>
      <trkpt lat="44.86962" lon="5.52658">
        <ele>2313.5</ele>
        <time>2022-01-19T11:58:01Z</time>
      </trkpt>
      <trkpt lat="44.86962" lon="5.52658">
        <ele>2313.5</ele>
        <time>2022-01-19T11:58:02Z</time>
      </trkpt>
      <trkpt lat="44.86962" lon="5.52658">
        <ele>2313.5</ele>
        <time>2022-01-19T11:58:03Z</time>
      </trkpt>
      <trkpt lat="44.86962" lon="5.52658">
        <ele>2313.5</ele>
        <time>2022-01-19T11:58:04Z</time>
      </trkpt>
      <trkpt lat="44.86962" lon="5.52658">
        <ele>2313.5</ele>
        <time>2022-01-19T11:58:05Z</time>
      </trkpt>
      <trkpt lat="44.86962" lon="5.52658">
        <ele>2313.5</ele>
        <time>2022-01-19T11:58:06Z</time>
      </trkpt>
      <trkpt lat="44.86962" lon="5.52658">
        <ele>2313.5</ele>
        <time>2022-01-19T11:58:07Z</time>
      </trkpt>
      <trkpt lat="44.86962" lon="5.52658">
        <ele>2313.5</ele>
        <time>2022-01-19T11:58:08Z</time>
      </trkpt>
      <trkpt lat="44.86962" lon="5.52658">
        <ele>2313.5</ele>
        <time>2022-01-19T11:58:09Z</time>
      </trkpt>
      <trkpt lat="44.86962" lon="5.52658">
        <ele>2313.5</ele>
        <time>2022-01-19T11:58:10Z</time>
      </trkpt>
      <trkpt lat="44.86962" lon="5.52658">
        <ele>2313.5</ele>
        <time>2022-01-19T11:58:11Z</time>
      </trkpt>
      <trkpt lat="44.86962" lon="5.52658">
        <ele>2313.5</ele>
        <time>2022-01-19T11:58:12Z</time>
      </trkpt>
      <trkpt lat="44.86962" lon="5.52658">
        <ele>2313.5</ele>
        <time>2022-01-19T11:58:13Z</time>
      </trkpt>
      <trkpt lat="44.86962" lon="5.52658">
        <ele>2313.5</ele>
        <time>2022-01-19T11:58:14Z</time>
      </trkpt>
      <trkpt lat="44.86962" lon="5.52658">
        <ele>2313.5</ele>
        <time>2022-01-19T11:58:15Z</time>
      </trkpt>
      <trkpt lat="44.86962" lon="5.52658">
        <ele>2313.5</ele>
        <time>2022-01-19T11:58:16Z</time>
      </trkpt>
      <trkpt lat="44.86962" lon="5.52658">
        <ele>2313.5</ele>
        <time>2022-01-19T11:58:17Z</time>
      </trkpt>
      <trkpt lat="44.86962" lon="5.52658">
        <ele>2313.5</ele>
        <time>2022-01-19T11:58:18Z</time>
      </trkpt>
      <trkpt lat="44.86962" lon="5.52658">
        <ele>2313.5</ele>
        <time>2022-01-19T11:58:19Z</time>
      </trkpt>
      <trkpt lat="44.86962" lon="5.52658">
        <ele>2313.5</ele>
        <time>2022-01-19T11:58:20Z</time>
      </trkpt>
      <trkpt lat="44.86962" lon="5.52658">
        <ele>2313.5</ele>
        <time>2022-01-19T11:58:21Z</time>
      </trkpt>
      <trkpt lat="44.86962" lon="5.52658">
        <ele>2313.5</ele>
        <time>2022-01-19T11:58:22Z</time>
      </trkpt>
      <trkpt lat="44.86962" lon="5.52658">
        <ele>2313.5</ele>
        <time>2022-01-19T11:58:23Z</time>
      </trkpt>
      <trkpt lat="44.86962" lon="5.52658">
        <ele>2313.5</ele>
        <time>2022-01-19T11:58:24Z</time>
      </trkpt>
      <trkpt lat="44.86962" lon="5.52658">
        <ele>2313.5</ele>
        <time>2022-01-19T11:58:25Z</time>
      </trkpt>
      <trkpt lat="44.86962" lon="5.52658">
        <ele>2313.5</ele>
        <time>2022-01-19T11:58:26Z</time>
      </trkpt>
      <trkpt lat="44.86962" lon="5.52658">
        <ele>2313.5</ele>
        <time>2022-01-19T11:58:27Z</time>
      </trkpt>
      <trkpt lat="44.86962" lon="5.52658">
        <ele>2313.5</ele>
        <time>2022-01-19T11:58:28Z</time>
      </trkpt>
      <trkpt lat="44.86962" lon="5.52658">
        <ele>2313.5</ele>
        <time>2022-01-19T11:58:29Z</time>
      </trkpt>
      <trkpt lat="44.86962" lon="5.52658">
        <ele>2313.5</ele>
        <time>2022-01-19T11:58:30Z</time>
      </trkpt>
      <trkpt lat="44.86962" lon="5.52658">
        <ele>2313.5</ele>
        <time>2022-01-19T11:58:31Z</time>
      </trkpt>
      <trkpt lat="44.86962" lon="5.52658">
        <ele>2313.5</ele>
        <time>2022-01-19T11:58:32Z</time>
      </trkpt>
      <trkpt lat="44.86962" lon="5.52658">
        <ele>2313.5</ele>
        <time>2022-01-19T11:58:33Z</time>
      </trkpt>
      <trkpt lat="44.86962" lon="5.52658">
        <ele>2313.5</ele>
        <time>2022-01-19T11:58:34Z</time>
      </trkpt>
      <trkpt lat="44.86962" lon="5.52658">
        <ele>2313.5</ele>
        <time>2022-01-19T11:58:35Z</time>
      </trkpt>
      <trkpt lat="44.86962" lon="5.52658">
        <ele>2313.5</ele>
        <time>2022-01-19T11:58:36Z</time>
      </trkpt>
      <trkpt lat="44.86962" lon="5.52658">
        <ele>2313.5</ele>
        <time>2022-01-19T11:58:37Z</time>
      </trkpt>
      <trkpt lat="44.86962" lon="5.52659">
        <ele>2313.3</ele>
        <time>2022-01-19T11:58:38Z</time>
      </trkpt>
      <trkpt lat="44.86962" lon="5.5266">
        <ele>2313.2</ele>
        <time>2022-01-19T11:58:39Z</time>
      </trkpt>
      <trkpt lat="44.86962" lon="5.5266">
        <ele>2313.2</ele>
        <time>2022-01-19T11:58:40Z</time>
      </trkpt>
      <trkpt lat="44.86962" lon="5.52661">
        <ele>2313.1</ele>
        <time>2022-01-19T11:58:41Z</time>
      </trkpt>
      <trkpt lat="44.86963" lon="5.52661">
        <ele>2313</ele>
        <time>2022-01-19T11:58:42Z</time>
      </trkpt>
      <trkpt lat="44.86963" lon="5.52661">
        <ele>2313</ele>
        <time>2022-01-19T11:58:43Z</time>
      </trkpt>
      <trkpt lat="44.86963" lon="5.52661">
        <ele>2313</ele>
        <time>2022-01-19T11:58:44Z</time>
      </trkpt>
      <trkpt lat="44.86963" lon="5.52661">
        <ele>2313</ele>
        <time>2022-01-19T11:58:45Z</time>
      </trkpt>
      <trkpt lat="44.86963" lon="5.52662">
        <ele>2312.8</ele>
        <time>2022-01-19T11:58:46Z</time>
      </trkpt>
      <trkpt lat="44.86964" lon="5.52663">
        <ele>2312.7</ele>
        <time>2022-01-19T11:58:47Z</time>
      </trkpt>
      <trkpt lat="44.86964" lon="5.52663">
        <ele>2312.7</ele>
        <time>2022-01-19T11:58:48Z</time>
      </trkpt>
      <trkpt lat="44.86964" lon="5.52663">
        <ele>2312.7</ele>
        <time>2022-01-19T11:58:49Z</time>
      </trkpt>
      <trkpt lat="44.86964" lon="5.52663">
        <ele>2312.7</ele>
        <time>2022-01-19T11:58:50Z</time>
      </trkpt>
      <trkpt lat="44.86964" lon="5.52663">
        <ele>2312.7</ele>
        <time>2022-01-19T11:58:51Z</time>
      </trkpt>
      <trkpt lat="44.86964" lon="5.52663">
        <ele>2312.7</ele>
        <time>2022-01-19T11:58:52Z</time>
      </trkpt>
      <trkpt lat="44.86964" lon="5.52663">
        <ele>2312.7</ele>
        <time>2022-01-19T11:58:53Z</time>
      </trkpt>
      <trkpt lat="44.86964" lon="5.52663">
        <ele>2312.7</ele>
        <time>2022-01-19T11:58:54Z</time>
      </trkpt>
      <trkpt lat="44.86964" lon="5.52663">
        <ele>2312.7</ele>
        <time>2022-01-19T11:58:55Z</time>
      </trkpt>
      <trkpt lat="44.86964" lon="5.52663">
        <ele>2312.7</ele>
        <time>2022-01-19T11:58:56Z</time>
      </trkpt>
      <trkpt lat="44.86964" lon="5.52663">
        <ele>2312.7</ele>
        <time>2022-01-19T11:58:57Z</time>
      </trkpt>
      <trkpt lat="44.86964" lon="5.52663">
        <ele>2312.7</ele>
        <time>2022-01-19T11:58:58Z</time>
      </trkpt>
      <trkpt lat="44.86964" lon="5.52663">
        <ele>2312.7</ele>
        <time>2022-01-19T11:58:59Z</time>
      </trkpt>
      <trkpt lat="44.86964" lon="5.52663">
        <ele>2312.7</ele>
        <time>2022-01-19T11:59:00Z</time>
      </trkpt>
      <trkpt lat="44.86964" lon="5.52663">
        <ele>2312.7</ele>
        <time>2022-01-19T11:59:01Z</time>
      </trkpt>
      <trkpt lat="44.86964" lon="5.52663">
        <ele>2312.7</ele>
        <time>2022-01-19T11:59:02Z</time>
      </trkpt>
      <trkpt lat="44.86964" lon="5.52663">
        <ele>2312.7</ele>
        <time>2022-01-19T11:59:03Z</time>
      </trkpt>
      <trkpt lat="44.86964" lon="5.52663">
        <ele>2312.7</ele>
        <time>2022-01-19T11:59:04Z</time>
      </trkpt>
      <trkpt lat="44.86964" lon="5.52663">
        <ele>2312.7</ele>
        <time>2022-01-19T11:59:05Z</time>
      </trkpt>
      <trkpt lat="44.86964" lon="5.52663">
        <ele>2312.7</ele>
        <time>2022-01-19T11:59:06Z</time>
      </trkpt>
      <trkpt lat="44.86964" lon="5.52663">
        <ele>2312.7</ele>
        <time>2022-01-19T11:59:07Z</time>
      </trkpt>
      <trkpt lat="44.86964" lon="5.52663">
        <ele>2312.7</ele>
        <time>2022-01-19T11:59:08Z</time>
      </trkpt>
      <trkpt lat="44.86964" lon="5.52663">
        <ele>2312.7</ele>
        <time>2022-01-19T11:59:09Z</time>
      </trkpt>
      <trkpt lat="44.86964" lon="5.52663">
        <ele>2312.7</ele>
        <time>2022-01-19T11:59:10Z</time>
      </trkpt>
      <trkpt lat="44.86964" lon="5.52663">
        <ele>2312.7</ele>
        <time>2022-01-19T11:59:11Z</time>
      </trkpt>
      <trkpt lat="44.86964" lon="5.52663">
        <ele>2312.7</ele>
        <time>2022-01-19T11:59:12Z</time>
      </trkpt>
      <trkpt lat="44.86964" lon="5.52663">
        <ele>2312.7</ele>
        <time>2022-01-19T11:59:13Z</time>
      </trkpt>
      <trkpt lat="44.86964" lon="5.52663">
        <ele>2312.7</ele>
        <time>2022-01-19T11:59:14Z</time>
      </trkpt>
      <trkpt lat="44.86964" lon="5.52663">
        <ele>2312.7</ele>
        <time>2022-01-19T11:59:15Z</time>
      </trkpt>
      <trkpt lat="44.86964" lon="5.52663">
        <ele>2312.7</ele>
        <time>2022-01-19T11:59:16Z</time>
      </trkpt>
      <trkpt lat="44.86964" lon="5.52663">
        <ele>2312.7</ele>
        <time>2022-01-19T11:59:17Z</time>
      </trkpt>
      <trkpt lat="44.86964" lon="5.52663">
        <ele>2312.7</ele>
        <time>2022-01-19T11:59:18Z</time>
      </trkpt>
      <trkpt lat="44.86964" lon="5.52663">
        <ele>2312.7</ele>
        <time>2022-01-19T11:59:19Z</time>
      </trkpt>
      <trkpt lat="44.86964" lon="5.52663">
        <ele>2312.7</ele>
        <time>2022-01-19T11:59:20Z</time>
      </trkpt>
      <trkpt lat="44.86964" lon="5.52663">
        <ele>2312.7</ele>
        <time>2022-01-19T11:59:21Z</time>
      </trkpt>
      <trkpt lat="44.86964" lon="5.52663">
        <ele>2312.7</ele>
        <time>2022-01-19T11:59:22Z</time>
      </trkpt>
      <trkpt lat="44.86964" lon="5.52663">
        <ele>2312.7</ele>
        <time>2022-01-19T11:59:23Z</time>
      </trkpt>
      <trkpt lat="44.86964" lon="5.52663">
        <ele>2312.7</ele>
        <time>2022-01-19T11:59:24Z</time>
      </trkpt>
      <trkpt lat="44.86964" lon="5.52663">
        <ele>2312.7</ele>
        <time>2022-01-19T11:59:25Z</time>
      </trkpt>
      <trkpt lat="44.86964" lon="5.52663">
        <ele>2312.7</ele>
        <time>2022-01-19T11:59:26Z</time>
      </trkpt>
      <trkpt lat="44.86964" lon="5.52663">
        <ele>2312.7</ele>
        <time>2022-01-19T11:59:27Z</time>
      </trkpt>
      <trkpt lat="44.86964" lon="5.52663">
        <ele>2312.7</ele>
        <time>2022-01-19T11:59:28Z</time>
      </trkpt>
      <trkpt lat="44.86964" lon="5.52663">
        <ele>2312.7</ele>
        <time>2022-01-19T11:59:29Z</time>
      </trkpt>
      <trkpt lat="44.86964" lon="5.52663">
        <ele>2312.7</ele>
        <time>2022-01-19T11:59:30Z</time>
      </trkpt>
      <trkpt lat="44.86964" lon="5.52663">
        <ele>2312.7</ele>
        <time>2022-01-19T11:59:31Z</time>
      </trkpt>
      <trkpt lat="44.86964" lon="5.52663">
        <ele>2312.7</ele>
        <time>2022-01-19T11:59:32Z</time>
      </trkpt>
      <trkpt lat="44.86964" lon="5.52663">
        <ele>2312.7</ele>
        <time>2022-01-19T11:59:33Z</time>
      </trkpt>
      <trkpt lat="44.86964" lon="5.52663">
        <ele>2312.7</ele>
        <time>2022-01-19T11:59:34Z</time>
      </trkpt>
      <trkpt lat="44.86964" lon="5.52663">
        <ele>2312.7</ele>
        <time>2022-01-19T11:59:35Z</time>
      </trkpt>
      <trkpt lat="44.86964" lon="5.52663">
        <ele>2312.7</ele>
        <time>2022-01-19T11:59:36Z</time>
      </trkpt>
      <trkpt lat="44.86964" lon="5.52663">
        <ele>2312.7</ele>
        <time>2022-01-19T11:59:37Z</time>
      </trkpt>
      <trkpt lat="44.86964" lon="5.52663">
        <ele>2312.7</ele>
        <time>2022-01-19T11:59:38Z</time>
      </trkpt>
      <trkpt lat="44.86964" lon="5.52663">
        <ele>2312.7</ele>
        <time>2022-01-19T11:59:39Z</time>
      </trkpt>
      <trkpt lat="44.86964" lon="5.52663">
        <ele>2312.7</ele>
        <time>2022-01-19T11:59:40Z</time>
      </trkpt>
      <trkpt lat="44.86964" lon="5.52663">
        <ele>2312.7</ele>
        <time>2022-01-19T11:59:41Z</time>
      </trkpt>
      <trkpt lat="44.86964" lon="5.52663">
        <ele>2312.7</ele>
        <time>2022-01-19T11:59:42Z</time>
      </trkpt>
      <trkpt lat="44.86964" lon="5.52663">
        <ele>2312.7</ele>
        <time>2022-01-19T11:59:43Z</time>
      </trkpt>
      <trkpt lat="44.86964" lon="5.52663">
        <ele>2312.7</ele>
        <time>2022-01-19T11:59:44Z</time>
      </trkpt>
      <trkpt lat="44.86964" lon="5.52663">
        <ele>2312.7</ele>
        <time>2022-01-19T11:59:45Z</time>
      </trkpt>
      <trkpt lat="44.86964" lon="5.52663">
        <ele>2312.7</ele>
        <time>2022-01-19T11:59:46Z</time>
      </trkpt>
      <trkpt lat="44.86964" lon="5.52663">
        <ele>2312.7</ele>
        <time>2022-01-19T11:59:47Z</time>
      </trkpt>
      <trkpt lat="44.86964" lon="5.52663">
        <ele>2312.7</ele>
        <time>2022-01-19T11:59:48Z</time>
      </trkpt>
      <trkpt lat="44.86964" lon="5.52663">
        <ele>2312.7</ele>
        <time>2022-01-19T11:59:49Z</time>
      </trkpt>
      <trkpt lat="44.86964" lon="5.52663">
        <ele>2312.7</ele>
        <time>2022-01-19T11:59:50Z</time>
      </trkpt>
      <trkpt lat="44.86964" lon="5.52663">
        <ele>2312.7</ele>
        <time>2022-01-19T11:59:51Z</time>
      </trkpt>
      <trkpt lat="44.86964" lon="5.52663">
        <ele>2312.7</ele>
        <time>2022-01-19T11:59:52Z</time>
      </trkpt>
      <trkpt lat="44.86964" lon="5.52663">
        <ele>2312.7</ele>
        <time>2022-01-19T11:59:53Z</time>
      </trkpt>
      <trkpt lat="44.86964" lon="5.52663">
        <ele>2312.7</ele>
        <time>2022-01-19T11:59:54Z</time>
      </trkpt>
      <trkpt lat="44.86964" lon="5.52663">
        <ele>2312.7</ele>
        <time>2022-01-19T11:59:55Z</time>
      </trkpt>
      <trkpt lat="44.86964" lon="5.52663">
        <ele>2312.7</ele>
        <time>2022-01-19T11:59:56Z</time>
      </trkpt>
      <trkpt lat="44.86964" lon="5.52663">
        <ele>2312.7</ele>
        <time>2022-01-19T11:59:57Z</time>
      </trkpt>
      <trkpt lat="44.86964" lon="5.52663">
        <ele>2312.7</ele>
        <time>2022-01-19T11:59:58Z</time>
      </trkpt>
      <trkpt lat="44.86964" lon="5.52663">
        <ele>2312.7</ele>
        <time>2022-01-19T11:59:59Z</time>
      </trkpt>
      <trkpt lat="44.86964" lon="5.52663">
        <ele>2312.7</ele>
        <time>2022-01-19T12:00:00Z</time>
      </trkpt>
      <trkpt lat="44.86964" lon="5.52663">
        <ele>2312.7</ele>
        <time>2022-01-19T12:00:01Z</time>
      </trkpt>
      <trkpt lat="44.86964" lon="5.52663">
        <ele>2312.7</ele>
        <time>2022-01-19T12:00:02Z</time>
      </trkpt>
      <trkpt lat="44.86964" lon="5.52663">
        <ele>2312.7</ele>
        <time>2022-01-19T12:00:03Z</time>
      </trkpt>
      <trkpt lat="44.86964" lon="5.52663">
        <ele>2312.7</ele>
        <time>2022-01-19T12:00:04Z</time>
      </trkpt>
      <trkpt lat="44.86964" lon="5.52663">
        <ele>2312.7</ele>
        <time>2022-01-19T12:00:05Z</time>
      </trkpt>
      <trkpt lat="44.86964" lon="5.52663">
        <ele>2312.7</ele>
        <time>2022-01-19T12:00:06Z</time>
      </trkpt>
      <trkpt lat="44.86964" lon="5.52663">
        <ele>2312.7</ele>
        <time>2022-01-19T12:00:07Z</time>
      </trkpt>
      <trkpt lat="44.86964" lon="5.52663">
        <ele>2312.7</ele>
        <time>2022-01-19T12:00:08Z</time>
      </trkpt>
      <trkpt lat="44.86964" lon="5.52663">
        <ele>2312.7</ele>
        <time>2022-01-19T12:00:09Z</time>
      </trkpt>
      <trkpt lat="44.86964" lon="5.52663">
        <ele>2312.7</ele>
        <time>2022-01-19T12:00:10Z</time>
      </trkpt>
      <trkpt lat="44.86964" lon="5.52663">
        <ele>2312.7</ele>
        <time>2022-01-19T12:00:11Z</time>
      </trkpt>
      <trkpt lat="44.86964" lon="5.52663">
        <ele>2312.7</ele>
        <time>2022-01-19T12:00:12Z</time>
      </trkpt>
      <trkpt lat="44.86964" lon="5.52663">
        <ele>2312.7</ele>
        <time>2022-01-19T12:00:13Z</time>
      </trkpt>
      <trkpt lat="44.86964" lon="5.52663">
        <ele>2312.7</ele>
        <time>2022-01-19T12:00:14Z</time>
      </trkpt>
      <trkpt lat="44.86964" lon="5.52663">
        <ele>2312.7</ele>
        <time>2022-01-19T12:00:15Z</time>
      </trkpt>
      <trkpt lat="44.86964" lon="5.52663">
        <ele>2312.7</ele>
        <time>2022-01-19T12:00:16Z</time>
      </trkpt>
      <trkpt lat="44.86964" lon="5.52663">
        <ele>2312.7</ele>
        <time>2022-01-19T12:00:17Z</time>
      </trkpt>
      <trkpt lat="44.86964" lon="5.52663">
        <ele>2312.7</ele>
        <time>2022-01-19T12:00:18Z</time>
      </trkpt>
      <trkpt lat="44.86964" lon="5.52663">
        <ele>2312.7</ele>
        <time>2022-01-19T12:00:19Z</time>
      </trkpt>
      <trkpt lat="44.86964" lon="5.52663">
        <ele>2312.7</ele>
        <time>2022-01-19T12:00:20Z</time>
      </trkpt>
      <trkpt lat="44.86964" lon="5.52663">
        <ele>2312.7</ele>
        <time>2022-01-19T12:00:21Z</time>
      </trkpt>
      <trkpt lat="44.86964" lon="5.52663">
        <ele>2312.7</ele>
        <time>2022-01-19T12:00:22Z</time>
      </trkpt>
      <trkpt lat="44.86964" lon="5.52663">
        <ele>2312.7</ele>
        <time>2022-01-19T12:00:23Z</time>
      </trkpt>
      <trkpt lat="44.86964" lon="5.52663">
        <ele>2312.7</ele>
        <time>2022-01-19T12:00:24Z</time>
      </trkpt>
      <trkpt lat="44.86964" lon="5.52663">
        <ele>2312.7</ele>
        <time>2022-01-19T12:00:25Z</time>
      </trkpt>
      <trkpt lat="44.86964" lon="5.52663">
        <ele>2312.7</ele>
        <time>2022-01-19T12:00:26Z</time>
      </trkpt>
      <trkpt lat="44.86964" lon="5.52663">
        <ele>2312.7</ele>
        <time>2022-01-19T12:00:27Z</time>
      </trkpt>
      <trkpt lat="44.86964" lon="5.52663">
        <ele>2312.7</ele>
        <time>2022-01-19T12:00:28Z</time>
      </trkpt>
      <trkpt lat="44.86964" lon="5.52663">
        <ele>2312.7</ele>
        <time>2022-01-19T12:00:29Z</time>
      </trkpt>
      <trkpt lat="44.86964" lon="5.52663">
        <ele>2312.7</ele>
        <time>2022-01-19T12:00:30Z</time>
      </trkpt>
      <trkpt lat="44.86964" lon="5.52663">
        <ele>2312.7</ele>
        <time>2022-01-19T12:00:31Z</time>
      </trkpt>
      <trkpt lat="44.86964" lon="5.52663">
        <ele>2312.7</ele>
        <time>2022-01-19T12:00:32Z</time>
      </trkpt>
      <trkpt lat="44.86964" lon="5.52663">
        <ele>2312.7</ele>
        <time>2022-01-19T12:00:33Z</time>
      </trkpt>
      <trkpt lat="44.86964" lon="5.52663">
        <ele>2312.7</ele>
        <time>2022-01-19T12:00:34Z</time>
      </trkpt>
      <trkpt lat="44.86964" lon="5.52663">
        <ele>2312.7</ele>
        <time>2022-01-19T12:00:35Z</time>
      </trkpt>
      <trkpt lat="44.86964" lon="5.52663">
        <ele>2312.7</ele>
        <time>2022-01-19T12:00:36Z</time>
      </trkpt>
      <trkpt lat="44.86964" lon="5.52663">
        <ele>2312.7</ele>
        <time>2022-01-19T12:00:37Z</time>
      </trkpt>
      <trkpt lat="44.86964" lon="5.52663">
        <ele>2312.7</ele>
        <time>2022-01-19T12:00:38Z</time>
      </trkpt>
      <trkpt lat="44.86964" lon="5.52663">
        <ele>2312.7</ele>
        <time>2022-01-19T12:00:39Z</time>
      </trkpt>
      <trkpt lat="44.86964" lon="5.52663">
        <ele>2312.7</ele>
        <time>2022-01-19T12:00:40Z</time>
      </trkpt>
      <trkpt lat="44.86964" lon="5.52663">
        <ele>2312.7</ele>
        <time>2022-01-19T12:00:41Z</time>
      </trkpt>
      <trkpt lat="44.86964" lon="5.52663">
        <ele>2312.7</ele>
        <time>2022-01-19T12:00:42Z</time>
      </trkpt>
      <trkpt lat="44.86964" lon="5.52663">
        <ele>2312.7</ele>
        <time>2022-01-19T12:00:43Z</time>
      </trkpt>
      <trkpt lat="44.86964" lon="5.52663">
        <ele>2312.7</ele>
        <time>2022-01-19T12:00:44Z</time>
      </trkpt>
      <trkpt lat="44.86964" lon="5.52663">
        <ele>2312.7</ele>
        <time>2022-01-19T12:00:45Z</time>
      </trkpt>
      <trkpt lat="44.86964" lon="5.52663">
        <ele>2312.7</ele>
        <time>2022-01-19T12:00:46Z</time>
      </trkpt>
      <trkpt lat="44.86964" lon="5.52663">
        <ele>2312.7</ele>
        <time>2022-01-19T12:00:47Z</time>
      </trkpt>
      <trkpt lat="44.86964" lon="5.52663">
        <ele>2312.7</ele>
        <time>2022-01-19T12:00:48Z</time>
      </trkpt>
      <trkpt lat="44.86964" lon="5.52663">
        <ele>2312.7</ele>
        <time>2022-01-19T12:00:49Z</time>
      </trkpt>
      <trkpt lat="44.86964" lon="5.52663">
        <ele>2312.7</ele>
        <time>2022-01-19T12:00:50Z</time>
      </trkpt>
      <trkpt lat="44.86964" lon="5.52663">
        <ele>2312.7</ele>
        <time>2022-01-19T12:00:51Z</time>
      </trkpt>
      <trkpt lat="44.86964" lon="5.52663">
        <ele>2312.7</ele>
        <time>2022-01-19T12:00:52Z</time>
      </trkpt>
      <trkpt lat="44.86964" lon="5.52663">
        <ele>2312.7</ele>
        <time>2022-01-19T12:00:53Z</time>
      </trkpt>
      <trkpt lat="44.86964" lon="5.52663">
        <ele>2312.7</ele>
        <time>2022-01-19T12:00:54Z</time>
      </trkpt>
      <trkpt lat="44.86964" lon="5.52663">
        <ele>2312.7</ele>
        <time>2022-01-19T12:00:55Z</time>
      </trkpt>
      <trkpt lat="44.86964" lon="5.52663">
        <ele>2312.7</ele>
        <time>2022-01-19T12:00:56Z</time>
      </trkpt>
      <trkpt lat="44.86964" lon="5.52663">
        <ele>2312.7</ele>
        <time>2022-01-19T12:00:57Z</time>
      </trkpt>
      <trkpt lat="44.86964" lon="5.52663">
        <ele>2312.7</ele>
        <time>2022-01-19T12:00:58Z</time>
      </trkpt>
      <trkpt lat="44.86964" lon="5.52663">
        <ele>2312.7</ele>
        <time>2022-01-19T12:00:59Z</time>
      </trkpt>
      <trkpt lat="44.86964" lon="5.52663">
        <ele>2312.7</ele>
        <time>2022-01-19T12:01:00Z</time>
      </trkpt>
      <trkpt lat="44.86964" lon="5.52663">
        <ele>2312.7</ele>
        <time>2022-01-19T12:01:01Z</time>
      </trkpt>
      <trkpt lat="44.86964" lon="5.52663">
        <ele>2312.7</ele>
        <time>2022-01-19T12:01:02Z</time>
      </trkpt>
      <trkpt lat="44.86964" lon="5.52663">
        <ele>2312.7</ele>
        <time>2022-01-19T12:01:03Z</time>
      </trkpt>
      <trkpt lat="44.86964" lon="5.52663">
        <ele>2312.7</ele>
        <time>2022-01-19T12:01:04Z</time>
      </trkpt>
      <trkpt lat="44.86964" lon="5.52663">
        <ele>2312.7</ele>
        <time>2022-01-19T12:01:05Z</time>
      </trkpt>
      <trkpt lat="44.86964" lon="5.52663">
        <ele>2312.7</ele>
        <time>2022-01-19T12:01:06Z</time>
      </trkpt>
      <trkpt lat="44.86964" lon="5.52663">
        <ele>2312.7</ele>
        <time>2022-01-19T12:01:07Z</time>
      </trkpt>
      <trkpt lat="44.86964" lon="5.52663">
        <ele>2312.7</ele>
        <time>2022-01-19T12:01:08Z</time>
      </trkpt>
      <trkpt lat="44.86964" lon="5.52663">
        <ele>2312.7</ele>
        <time>2022-01-19T12:01:09Z</time>
      </trkpt>
      <trkpt lat="44.86964" lon="5.52663">
        <ele>2312.7</ele>
        <time>2022-01-19T12:01:10Z</time>
      </trkpt>
      <trkpt lat="44.86964" lon="5.52663">
        <ele>2312.7</ele>
        <time>2022-01-19T12:01:11Z</time>
      </trkpt>
      <trkpt lat="44.86964" lon="5.52663">
        <ele>2312.7</ele>
        <time>2022-01-19T12:01:12Z</time>
      </trkpt>
      <trkpt lat="44.86964" lon="5.52663">
        <ele>2312.7</ele>
        <time>2022-01-19T12:01:13Z</time>
      </trkpt>
      <trkpt lat="44.86964" lon="5.52663">
        <ele>2312.7</ele>
        <time>2022-01-19T12:01:14Z</time>
      </trkpt>
      <trkpt lat="44.86964" lon="5.52663">
        <ele>2312.7</ele>
        <time>2022-01-19T12:01:15Z</time>
      </trkpt>
      <trkpt lat="44.86964" lon="5.52663">
        <ele>2312.7</ele>
        <time>2022-01-19T12:01:16Z</time>
      </trkpt>
      <trkpt lat="44.86964" lon="5.52663">
        <ele>2312.7</ele>
        <time>2022-01-19T12:01:17Z</time>
      </trkpt>
      <trkpt lat="44.86964" lon="5.52663">
        <ele>2312.7</ele>
        <time>2022-01-19T12:01:18Z</time>
      </trkpt>
      <trkpt lat="44.86964" lon="5.52663">
        <ele>2312.7</ele>
        <time>2022-01-19T12:01:19Z</time>
      </trkpt>
      <trkpt lat="44.86964" lon="5.52663">
        <ele>2312.7</ele>
        <time>2022-01-19T12:01:20Z</time>
      </trkpt>
      <trkpt lat="44.86964" lon="5.52663">
        <ele>2312.7</ele>
        <time>2022-01-19T12:01:21Z</time>
      </trkpt>
      <trkpt lat="44.86964" lon="5.52663">
        <ele>2312.7</ele>
        <time>2022-01-19T12:01:22Z</time>
      </trkpt>
      <trkpt lat="44.86964" lon="5.52663">
        <ele>2312.7</ele>
        <time>2022-01-19T12:01:23Z</time>
      </trkpt>
      <trkpt lat="44.86964" lon="5.52663">
        <ele>2312.7</ele>
        <time>2022-01-19T12:01:24Z</time>
      </trkpt>
      <trkpt lat="44.86964" lon="5.52663">
        <ele>2312.7</ele>
        <time>2022-01-19T12:01:25Z</time>
      </trkpt>
      <trkpt lat="44.86964" lon="5.52663">
        <ele>2312.7</ele>
        <time>2022-01-19T12:01:26Z</time>
      </trkpt>
      <trkpt lat="44.86964" lon="5.52663">
        <ele>2312.7</ele>
        <time>2022-01-19T12:01:27Z</time>
      </trkpt>
      <trkpt lat="44.86964" lon="5.52663">
        <ele>2312.7</ele>
        <time>2022-01-19T12:01:28Z</time>
      </trkpt>
      <trkpt lat="44.86964" lon="5.52663">
        <ele>2312.7</ele>
        <time>2022-01-19T12:01:29Z</time>
      </trkpt>
      <trkpt lat="44.86964" lon="5.52663">
        <ele>2312.7</ele>
        <time>2022-01-19T12:01:30Z</time>
      </trkpt>
      <trkpt lat="44.86964" lon="5.52663">
        <ele>2312.7</ele>
        <time>2022-01-19T12:01:31Z</time>
      </trkpt>
      <trkpt lat="44.86964" lon="5.52663">
        <ele>2312.7</ele>
        <time>2022-01-19T12:01:32Z</time>
      </trkpt>
      <trkpt lat="44.86964" lon="5.52663">
        <ele>2312.7</ele>
        <time>2022-01-19T12:01:33Z</time>
      </trkpt>
      <trkpt lat="44.86964" lon="5.52663">
        <ele>2312.7</ele>
        <time>2022-01-19T12:01:34Z</time>
      </trkpt>
      <trkpt lat="44.86964" lon="5.52663">
        <ele>2312.7</ele>
        <time>2022-01-19T12:01:35Z</time>
      </trkpt>
      <trkpt lat="44.86964" lon="5.52663">
        <ele>2312.7</ele>
        <time>2022-01-19T12:01:36Z</time>
      </trkpt>
      <trkpt lat="44.86964" lon="5.52663">
        <ele>2312.7</ele>
        <time>2022-01-19T12:01:37Z</time>
      </trkpt>
      <trkpt lat="44.86964" lon="5.52663">
        <ele>2312.7</ele>
        <time>2022-01-19T12:01:38Z</time>
      </trkpt>
      <trkpt lat="44.86964" lon="5.52663">
        <ele>2312.7</ele>
        <time>2022-01-19T12:01:39Z</time>
      </trkpt>
      <trkpt lat="44.86964" lon="5.52663">
        <ele>2312.7</ele>
        <time>2022-01-19T12:01:40Z</time>
      </trkpt>
      <trkpt lat="44.86964" lon="5.52663">
        <ele>2312.7</ele>
        <time>2022-01-19T12:01:41Z</time>
      </trkpt>
      <trkpt lat="44.86964" lon="5.52663">
        <ele>2312.7</ele>
        <time>2022-01-19T12:01:42Z</time>
      </trkpt>
      <trkpt lat="44.86964" lon="5.52663">
        <ele>2312.7</ele>
        <time>2022-01-19T12:01:43Z</time>
      </trkpt>
      <trkpt lat="44.86964" lon="5.52663">
        <ele>2312.7</ele>
        <time>2022-01-19T12:01:44Z</time>
      </trkpt>
      <trkpt lat="44.86964" lon="5.52663">
        <ele>2312.7</ele>
        <time>2022-01-19T12:01:45Z</time>
      </trkpt>
      <trkpt lat="44.86964" lon="5.52663">
        <ele>2312.7</ele>
        <time>2022-01-19T12:01:46Z</time>
      </trkpt>
      <trkpt lat="44.86964" lon="5.52663">
        <ele>2312.7</ele>
        <time>2022-01-19T12:01:47Z</time>
      </trkpt>
      <trkpt lat="44.86964" lon="5.52663">
        <ele>2312.7</ele>
        <time>2022-01-19T12:01:48Z</time>
      </trkpt>
      <trkpt lat="44.86964" lon="5.52663">
        <ele>2312.7</ele>
        <time>2022-01-19T12:01:49Z</time>
      </trkpt>
      <trkpt lat="44.86964" lon="5.52663">
        <ele>2312.7</ele>
        <time>2022-01-19T12:01:50Z</time>
      </trkpt>
      <trkpt lat="44.86964" lon="5.52663">
        <ele>2312.7</ele>
        <time>2022-01-19T12:01:51Z</time>
      </trkpt>
      <trkpt lat="44.86964" lon="5.52663">
        <ele>2312.7</ele>
        <time>2022-01-19T12:01:52Z</time>
      </trkpt>
      <trkpt lat="44.86964" lon="5.52663">
        <ele>2312.7</ele>
        <time>2022-01-19T12:01:53Z</time>
      </trkpt>
      <trkpt lat="44.86964" lon="5.52663">
        <ele>2312.7</ele>
        <time>2022-01-19T12:01:54Z</time>
      </trkpt>
      <trkpt lat="44.86964" lon="5.52663">
        <ele>2312.7</ele>
        <time>2022-01-19T12:01:55Z</time>
      </trkpt>
      <trkpt lat="44.86964" lon="5.52663">
        <ele>2312.7</ele>
        <time>2022-01-19T12:01:56Z</time>
      </trkpt>
      <trkpt lat="44.86964" lon="5.52663">
        <ele>2312.7</ele>
        <time>2022-01-19T12:01:57Z</time>
      </trkpt>
      <trkpt lat="44.86964" lon="5.52663">
        <ele>2312.7</ele>
        <time>2022-01-19T12:01:58Z</time>
      </trkpt>
      <trkpt lat="44.86964" lon="5.52663">
        <ele>2312.7</ele>
        <time>2022-01-19T12:01:59Z</time>
      </trkpt>
      <trkpt lat="44.86964" lon="5.52663">
        <ele>2312.7</ele>
        <time>2022-01-19T12:02:00Z</time>
      </trkpt>
      <trkpt lat="44.86964" lon="5.52663">
        <ele>2312.7</ele>
        <time>2022-01-19T12:02:01Z</time>
      </trkpt>
      <trkpt lat="44.86964" lon="5.52663">
        <ele>2312.7</ele>
        <time>2022-01-19T12:02:02Z</time>
      </trkpt>
      <trkpt lat="44.86964" lon="5.52663">
        <ele>2312.7</ele>
        <time>2022-01-19T12:02:03Z</time>
      </trkpt>
      <trkpt lat="44.86964" lon="5.52663">
        <ele>2312.7</ele>
        <time>2022-01-19T12:02:04Z</time>
      </trkpt>
      <trkpt lat="44.86964" lon="5.52663">
        <ele>2312.7</ele>
        <time>2022-01-19T12:02:05Z</time>
      </trkpt>
      <trkpt lat="44.86964" lon="5.52663">
        <ele>2312.7</ele>
        <time>2022-01-19T12:02:06Z</time>
      </trkpt>
      <trkpt lat="44.86964" lon="5.52663">
        <ele>2312.7</ele>
        <time>2022-01-19T12:02:07Z</time>
      </trkpt>
      <trkpt lat="44.86964" lon="5.52663">
        <ele>2312.7</ele>
        <time>2022-01-19T12:02:08Z</time>
      </trkpt>
      <trkpt lat="44.86964" lon="5.52663">
        <ele>2312.7</ele>
        <time>2022-01-19T12:02:09Z</time>
      </trkpt>
      <trkpt lat="44.86964" lon="5.52663">
        <ele>2312.7</ele>
        <time>2022-01-19T12:02:10Z</time>
      </trkpt>
      <trkpt lat="44.86964" lon="5.52663">
        <ele>2312.7</ele>
        <time>2022-01-19T12:02:11Z</time>
      </trkpt>
      <trkpt lat="44.86964" lon="5.52663">
        <ele>2312.7</ele>
        <time>2022-01-19T12:02:12Z</time>
      </trkpt>
      <trkpt lat="44.86964" lon="5.52663">
        <ele>2312.7</ele>
        <time>2022-01-19T12:02:13Z</time>
      </trkpt>
      <trkpt lat="44.86964" lon="5.52663">
        <ele>2312.7</ele>
        <time>2022-01-19T12:02:14Z</time>
      </trkpt>
      <trkpt lat="44.86964" lon="5.52663">
        <ele>2312.7</ele>
        <time>2022-01-19T12:02:15Z</time>
      </trkpt>
      <trkpt lat="44.86964" lon="5.52663">
        <ele>2312.7</ele>
        <time>2022-01-19T12:02:16Z</time>
      </trkpt>
      <trkpt lat="44.86964" lon="5.52663">
        <ele>2312.7</ele>
        <time>2022-01-19T12:02:17Z</time>
      </trkpt>
      <trkpt lat="44.86964" lon="5.52663">
        <ele>2312.7</ele>
        <time>2022-01-19T12:02:18Z</time>
      </trkpt>
      <trkpt lat="44.86964" lon="5.52663">
        <ele>2312.7</ele>
        <time>2022-01-19T12:02:19Z</time>
      </trkpt>
      <trkpt lat="44.86964" lon="5.52663">
        <ele>2312.7</ele>
        <time>2022-01-19T12:02:20Z</time>
      </trkpt>
      <trkpt lat="44.86964" lon="5.52663">
        <ele>2312.7</ele>
        <time>2022-01-19T12:02:21Z</time>
      </trkpt>
      <trkpt lat="44.86964" lon="5.52663">
        <ele>2312.7</ele>
        <time>2022-01-19T12:02:22Z</time>
      </trkpt>
      <trkpt lat="44.86964" lon="5.52663">
        <ele>2312.7</ele>
        <time>2022-01-19T12:02:23Z</time>
      </trkpt>
      <trkpt lat="44.86964" lon="5.52663">
        <ele>2312.7</ele>
        <time>2022-01-19T12:02:24Z</time>
      </trkpt>
      <trkpt lat="44.86964" lon="5.52663">
        <ele>2312.7</ele>
        <time>2022-01-19T12:02:25Z</time>
      </trkpt>
      <trkpt lat="44.86964" lon="5.52663">
        <ele>2312.7</ele>
        <time>2022-01-19T12:02:26Z</time>
      </trkpt>
      <trkpt lat="44.86964" lon="5.52663">
        <ele>2312.7</ele>
        <time>2022-01-19T12:02:27Z</time>
      </trkpt>
      <trkpt lat="44.86964" lon="5.52663">
        <ele>2312.7</ele>
        <time>2022-01-19T12:02:28Z</time>
      </trkpt>
      <trkpt lat="44.86964" lon="5.52663">
        <ele>2312.7</ele>
        <time>2022-01-19T12:02:29Z</time>
      </trkpt>
      <trkpt lat="44.86964" lon="5.52663">
        <ele>2312.7</ele>
        <time>2022-01-19T12:02:30Z</time>
      </trkpt>
      <trkpt lat="44.86963" lon="5.52655">
        <ele>2311.7</ele>
        <time>2022-01-19T12:02:31Z</time>
      </trkpt>
      <trkpt lat="44.86964" lon="5.52654">
        <ele>2311.5</ele>
        <time>2022-01-19T12:02:32Z</time>
      </trkpt>
      <trkpt lat="44.86964" lon="5.52653">
        <ele>2311.4</ele>
        <time>2022-01-19T12:02:33Z</time>
      </trkpt>
      <trkpt lat="44.86965" lon="5.52652">
        <ele>2311.2</ele>
        <time>2022-01-19T12:02:34Z</time>
      </trkpt>
      <trkpt lat="44.86966" lon="5.52651">
        <ele>2311.1</ele>
        <time>2022-01-19T12:02:35Z</time>
      </trkpt>
      <trkpt lat="44.86966" lon="5.52651">
        <ele>2310.9</ele>
        <time>2022-01-19T12:02:36Z</time>
      </trkpt>
      <trkpt lat="44.86967" lon="5.5265">
        <ele>2310.8</ele>
        <time>2022-01-19T12:02:37Z</time>
      </trkpt>
      <trkpt lat="44.86967" lon="5.5265">
        <ele>2310.7</ele>
        <time>2022-01-19T12:02:38Z</time>
      </trkpt>
      <trkpt lat="44.86968" lon="5.52649">
        <ele>2310.6</ele>
        <time>2022-01-19T12:02:39Z</time>
      </trkpt>
      <trkpt lat="44.86969" lon="5.52648">
        <ele>2310.4</ele>
        <time>2022-01-19T12:02:40Z</time>
      </trkpt>
      <trkpt lat="44.86969" lon="5.52647">
        <ele>2310.2</ele>
        <time>2022-01-19T12:02:41Z</time>
      </trkpt>
      <trkpt lat="44.8697" lon="5.52647">
        <ele>2310.1</ele>
        <time>2022-01-19T12:02:42Z</time>
      </trkpt>
      <trkpt lat="44.86971" lon="5.52646">
        <ele>2309.9</ele>
        <time>2022-01-19T12:02:43Z</time>
      </trkpt>
      <trkpt lat="44.86971" lon="5.52645">
        <ele>2309.8</ele>
        <time>2022-01-19T12:02:44Z</time>
      </trkpt>
      <trkpt lat="44.86971" lon="5.52645">
        <ele>2309.7</ele>
        <time>2022-01-19T12:02:45Z</time>
      </trkpt>
      <trkpt lat="44.86972" lon="5.52644">
        <ele>2309.6</ele>
        <time>2022-01-19T12:02:46Z</time>
      </trkpt>
      <trkpt lat="44.86972" lon="5.52644">
        <ele>2309.5</ele>
        <time>2022-01-19T12:02:47Z</time>
      </trkpt>
      <trkpt lat="44.86973" lon="5.52643">
        <ele>2309.3</ele>
        <time>2022-01-19T12:02:48Z</time>
      </trkpt>
      <trkpt lat="44.86974" lon="5.52643">
        <ele>2309.2</ele>
        <time>2022-01-19T12:02:49Z</time>
      </trkpt>
      <trkpt lat="44.86974" lon="5.52642">
        <ele>2309.1</ele>
        <time>2022-01-19T12:02:50Z</time>
      </trkpt>
      <trkpt lat="44.86974" lon="5.52641">
        <ele>2309</ele>
        <time>2022-01-19T12:02:51Z</time>
      </trkpt>
      <trkpt lat="44.86975" lon="5.5264">
        <ele>2308.9</ele>
        <time>2022-01-19T12:02:52Z</time>
      </trkpt>
      <trkpt lat="44.86975" lon="5.5264">
        <ele>2308.8</ele>
        <time>2022-01-19T12:02:53Z</time>
      </trkpt>
      <trkpt lat="44.86976" lon="5.52639">
        <ele>2308.7</ele>
        <time>2022-01-19T12:02:54Z</time>
      </trkpt>
      <trkpt lat="44.86976" lon="5.52639">
        <ele>2308.6</ele>
        <time>2022-01-19T12:02:55Z</time>
      </trkpt>
      <trkpt lat="44.86977" lon="5.52639">
        <ele>2308.4</ele>
        <time>2022-01-19T12:02:56Z</time>
      </trkpt>
      <trkpt lat="44.86977" lon="5.52638">
        <ele>2308.3</ele>
        <time>2022-01-19T12:02:57Z</time>
      </trkpt>
      <trkpt lat="44.86977" lon="5.52637">
        <ele>2308.3</ele>
        <time>2022-01-19T12:02:58Z</time>
      </trkpt>
      <trkpt lat="44.86977" lon="5.52637">
        <ele>2308.2</ele>
        <time>2022-01-19T12:02:59Z</time>
      </trkpt>
      <trkpt lat="44.86978" lon="5.52637">
        <ele>2308.1</ele>
        <time>2022-01-19T12:03:00Z</time>
      </trkpt>
      <trkpt lat="44.86979" lon="5.52637">
        <ele>2308</ele>
        <time>2022-01-19T12:03:01Z</time>
      </trkpt>
      <trkpt lat="44.86979" lon="5.52637">
        <ele>2307.9</ele>
        <time>2022-01-19T12:03:02Z</time>
      </trkpt>
      <trkpt lat="44.8698" lon="5.52637">
        <ele>2307.8</ele>
        <time>2022-01-19T12:03:03Z</time>
      </trkpt>
      <trkpt lat="44.8698" lon="5.52637">
        <ele>2307.6</ele>
        <time>2022-01-19T12:03:04Z</time>
      </trkpt>
      <trkpt lat="44.86981" lon="5.52638">
        <ele>2307.5</ele>
        <time>2022-01-19T12:03:05Z</time>
      </trkpt>
      <trkpt lat="44.86982" lon="5.52638">
        <ele>2307.3</ele>
        <time>2022-01-19T12:03:06Z</time>
      </trkpt>
      <trkpt lat="44.86983" lon="5.52638">
        <ele>2307.2</ele>
        <time>2022-01-19T12:03:07Z</time>
      </trkpt>
      <trkpt lat="44.86984" lon="5.52638">
        <ele>2307</ele>
        <time>2022-01-19T12:03:08Z</time>
      </trkpt>
      <trkpt lat="44.86985" lon="5.52639">
        <ele>2306.9</ele>
        <time>2022-01-19T12:03:09Z</time>
      </trkpt>
      <trkpt lat="44.86985" lon="5.52639">
        <ele>2306.8</ele>
        <time>2022-01-19T12:03:10Z</time>
      </trkpt>
      <trkpt lat="44.86986" lon="5.52639">
        <ele>2306.7</ele>
        <time>2022-01-19T12:03:11Z</time>
      </trkpt>
      <trkpt lat="44.86987" lon="5.52639">
        <ele>2306.5</ele>
        <time>2022-01-19T12:03:12Z</time>
      </trkpt>
      <trkpt lat="44.86988" lon="5.52639">
        <ele>2306.4</ele>
        <time>2022-01-19T12:03:13Z</time>
      </trkpt>
      <trkpt lat="44.86989" lon="5.52639">
        <ele>2306.2</ele>
        <time>2022-01-19T12:03:14Z</time>
      </trkpt>
      <trkpt lat="44.8699" lon="5.52639">
        <ele>2306.1</ele>
        <time>2022-01-19T12:03:15Z</time>
      </trkpt>
      <trkpt lat="44.8699" lon="5.52639">
        <ele>2306</ele>
        <time>2022-01-19T12:03:16Z</time>
      </trkpt>
      <trkpt lat="44.86991" lon="5.5264">
        <ele>2305.9</ele>
        <time>2022-01-19T12:03:17Z</time>
      </trkpt>
      <trkpt lat="44.86992" lon="5.5264">
        <ele>2305.8</ele>
        <time>2022-01-19T12:03:18Z</time>
      </trkpt>
      <trkpt lat="44.86993" lon="5.5264">
        <ele>2305.7</ele>
        <time>2022-01-19T12:03:19Z</time>
      </trkpt>
      <trkpt lat="44.86993" lon="5.5264">
        <ele>2305.6</ele>
        <time>2022-01-19T12:03:20Z</time>
      </trkpt>
      <trkpt lat="44.86994" lon="5.5264">
        <ele>2305.5</ele>
        <time>2022-01-19T12:03:21Z</time>
      </trkpt>
      <trkpt lat="44.86995" lon="5.5264">
        <ele>2305.4</ele>
        <time>2022-01-19T12:03:22Z</time>
      </trkpt>
      <trkpt lat="44.86995" lon="5.5264">
        <ele>2305.3</ele>
        <time>2022-01-19T12:03:23Z</time>
      </trkpt>
      <trkpt lat="44.86996" lon="5.5264">
        <ele>2305.2</ele>
        <time>2022-01-19T12:03:24Z</time>
      </trkpt>
      <trkpt lat="44.86996" lon="5.5264">
        <ele>2305.2</ele>
        <time>2022-01-19T12:03:25Z</time>
      </trkpt>
      <trkpt lat="44.86997" lon="5.5264">
        <ele>2305</ele>
        <time>2022-01-19T12:03:26Z</time>
      </trkpt>
      <trkpt lat="44.86998" lon="5.5264">
        <ele>2305</ele>
        <time>2022-01-19T12:03:27Z</time>
      </trkpt>
      <trkpt lat="44.86999" lon="5.5264">
        <ele>2304.8</ele>
        <time>2022-01-19T12:03:28Z</time>
      </trkpt>
      <trkpt lat="44.87" lon="5.5264">
        <ele>2304.7</ele>
        <time>2022-01-19T12:03:29Z</time>
      </trkpt>
      <trkpt lat="44.87001" lon="5.5264">
        <ele>2304.6</ele>
        <time>2022-01-19T12:03:30Z</time>
      </trkpt>
      <trkpt lat="44.87002" lon="5.5264">
        <ele>2304.4</ele>
        <time>2022-01-19T12:03:31Z</time>
      </trkpt>
      <trkpt lat="44.87002" lon="5.5264">
        <ele>2304.4</ele>
        <time>2022-01-19T12:03:32Z</time>
      </trkpt>
      <trkpt lat="44.87003" lon="5.52641">
        <ele>2304.3</ele>
        <time>2022-01-19T12:03:33Z</time>
      </trkpt>
      <trkpt lat="44.87004" lon="5.52641">
        <ele>2304.2</ele>
        <time>2022-01-19T12:03:34Z</time>
      </trkpt>
      <trkpt lat="44.87005" lon="5.5264">
        <ele>2304</ele>
        <time>2022-01-19T12:03:35Z</time>
      </trkpt>
      <trkpt lat="44.87006" lon="5.52641">
        <ele>2303.9</ele>
        <time>2022-01-19T12:03:36Z</time>
      </trkpt>
      <trkpt lat="44.87006" lon="5.52641">
        <ele>2303.9</ele>
        <time>2022-01-19T12:03:37Z</time>
      </trkpt>
      <trkpt lat="44.87007" lon="5.52641">
        <ele>2303.7</ele>
        <time>2022-01-19T12:03:38Z</time>
      </trkpt>
      <trkpt lat="44.87008" lon="5.52641">
        <ele>2303.6</ele>
        <time>2022-01-19T12:03:39Z</time>
      </trkpt>
      <trkpt lat="44.87009" lon="5.52641">
        <ele>2303.5</ele>
        <time>2022-01-19T12:03:40Z</time>
      </trkpt>
      <trkpt lat="44.8701" lon="5.52641">
        <ele>2303.4</ele>
        <time>2022-01-19T12:03:41Z</time>
      </trkpt>
      <trkpt lat="44.87011" lon="5.52641">
        <ele>2303.3</ele>
        <time>2022-01-19T12:03:42Z</time>
      </trkpt>
      <trkpt lat="44.87011" lon="5.52641">
        <ele>2303.2</ele>
        <time>2022-01-19T12:03:43Z</time>
      </trkpt>
      <trkpt lat="44.87012" lon="5.5264">
        <ele>2303.1</ele>
        <time>2022-01-19T12:03:44Z</time>
      </trkpt>
      <trkpt lat="44.87013" lon="5.5264">
        <ele>2302.9</ele>
        <time>2022-01-19T12:03:45Z</time>
      </trkpt>
      <trkpt lat="44.87014" lon="5.5264">
        <ele>2302.8</ele>
        <time>2022-01-19T12:03:46Z</time>
      </trkpt>
      <trkpt lat="44.87015" lon="5.5264">
        <ele>2302.7</ele>
        <time>2022-01-19T12:03:47Z</time>
      </trkpt>
      <trkpt lat="44.87016" lon="5.5264">
        <ele>2302.6</ele>
        <time>2022-01-19T12:03:48Z</time>
      </trkpt>
      <trkpt lat="44.87017" lon="5.5264">
        <ele>2302.4</ele>
        <time>2022-01-19T12:03:49Z</time>
      </trkpt>
      <trkpt lat="44.87017" lon="5.52639">
        <ele>2302.3</ele>
        <time>2022-01-19T12:03:50Z</time>
      </trkpt>
      <trkpt lat="44.87018" lon="5.52639">
        <ele>2302.2</ele>
        <time>2022-01-19T12:03:51Z</time>
      </trkpt>
      <trkpt lat="44.87019" lon="5.52639">
        <ele>2302.1</ele>
        <time>2022-01-19T12:03:52Z</time>
      </trkpt>
      <trkpt lat="44.8702" lon="5.52639">
        <ele>2301.9</ele>
        <time>2022-01-19T12:03:53Z</time>
      </trkpt>
      <trkpt lat="44.8702" lon="5.52639">
        <ele>2301.8</ele>
        <time>2022-01-19T12:03:54Z</time>
      </trkpt>
      <trkpt lat="44.87022" lon="5.52639">
        <ele>2301.6</ele>
        <time>2022-01-19T12:03:55Z</time>
      </trkpt>
      <trkpt lat="44.87023" lon="5.52639">
        <ele>2301.5</ele>
        <time>2022-01-19T12:03:56Z</time>
      </trkpt>
      <trkpt lat="44.87023" lon="5.52639">
        <ele>2301.4</ele>
        <time>2022-01-19T12:03:57Z</time>
      </trkpt>
      <trkpt lat="44.87024" lon="5.52639">
        <ele>2301.2</ele>
        <time>2022-01-19T12:03:58Z</time>
      </trkpt>
      <trkpt lat="44.87025" lon="5.52639">
        <ele>2301.1</ele>
        <time>2022-01-19T12:03:59Z</time>
      </trkpt>
      <trkpt lat="44.87026" lon="5.52639">
        <ele>2301</ele>
        <time>2022-01-19T12:04:00Z</time>
      </trkpt>
      <trkpt lat="44.87027" lon="5.52639">
        <ele>2300.8</ele>
        <time>2022-01-19T12:04:01Z</time>
      </trkpt>
      <trkpt lat="44.87027" lon="5.52639">
        <ele>2300.8</ele>
        <time>2022-01-19T12:04:02Z</time>
      </trkpt>
      <trkpt lat="44.87028" lon="5.52638">
        <ele>2300.6</ele>
        <time>2022-01-19T12:04:03Z</time>
      </trkpt>
      <trkpt lat="44.87028" lon="5.52638">
        <ele>2300.5</ele>
        <time>2022-01-19T12:04:04Z</time>
      </trkpt>
      <trkpt lat="44.8703" lon="5.52637">
        <ele>2300.2</ele>
        <time>2022-01-19T12:04:05Z</time>
      </trkpt>
      <trkpt lat="44.87031" lon="5.52637">
        <ele>2300.1</ele>
        <time>2022-01-19T12:04:06Z</time>
      </trkpt>
      <trkpt lat="44.87032" lon="5.52637">
        <ele>2300</ele>
        <time>2022-01-19T12:04:07Z</time>
      </trkpt>
      <trkpt lat="44.87033" lon="5.52637">
        <ele>2299.8</ele>
        <time>2022-01-19T12:04:08Z</time>
      </trkpt>
      <trkpt lat="44.87034" lon="5.52635">
        <ele>2299.6</ele>
        <time>2022-01-19T12:04:09Z</time>
      </trkpt>
      <trkpt lat="44.87035" lon="5.52636">
        <ele>2299.4</ele>
        <time>2022-01-19T12:04:10Z</time>
      </trkpt>
      <trkpt lat="44.87036" lon="5.52637">
        <ele>2299.2</ele>
        <time>2022-01-19T12:04:11Z</time>
      </trkpt>
      <trkpt lat="44.87037" lon="5.52637">
        <ele>2299</ele>
        <time>2022-01-19T12:04:12Z</time>
      </trkpt>
      <trkpt lat="44.87037" lon="5.52638">
        <ele>2298.9</ele>
        <time>2022-01-19T12:04:13Z</time>
      </trkpt>
      <trkpt lat="44.87038" lon="5.52638">
        <ele>2298.7</ele>
        <time>2022-01-19T12:04:14Z</time>
      </trkpt>
      <trkpt lat="44.87039" lon="5.52638">
        <ele>2298.6</ele>
        <time>2022-01-19T12:04:15Z</time>
      </trkpt>
      <trkpt lat="44.8704" lon="5.52638">
        <ele>2298.5</ele>
        <time>2022-01-19T12:04:16Z</time>
      </trkpt>
      <trkpt lat="44.8704" lon="5.52638">
        <ele>2298.3</ele>
        <time>2022-01-19T12:04:17Z</time>
      </trkpt>
      <trkpt lat="44.87041" lon="5.52638">
        <ele>2298.2</ele>
        <time>2022-01-19T12:04:18Z</time>
      </trkpt>
      <trkpt lat="44.87043" lon="5.52637">
        <ele>2297.9</ele>
        <time>2022-01-19T12:04:19Z</time>
      </trkpt>
      <trkpt lat="44.87043" lon="5.52637">
        <ele>2297.9</ele>
        <time>2022-01-19T12:04:20Z</time>
      </trkpt>
      <trkpt lat="44.87044" lon="5.52637">
        <ele>2297.7</ele>
        <time>2022-01-19T12:04:21Z</time>
      </trkpt>
      <trkpt lat="44.87045" lon="5.52636">
        <ele>2297.5</ele>
        <time>2022-01-19T12:04:22Z</time>
      </trkpt>
      <trkpt lat="44.87046" lon="5.52636">
        <ele>2297.3</ele>
        <time>2022-01-19T12:04:23Z</time>
      </trkpt>
      <trkpt lat="44.87046" lon="5.52635">
        <ele>2297.2</ele>
        <time>2022-01-19T12:04:24Z</time>
      </trkpt>
      <trkpt lat="44.87048" lon="5.52635">
        <ele>2297</ele>
        <time>2022-01-19T12:04:25Z</time>
      </trkpt>
      <trkpt lat="44.87048" lon="5.52635">
        <ele>2296.8</ele>
        <time>2022-01-19T12:04:26Z</time>
      </trkpt>
      <trkpt lat="44.87049" lon="5.52635">
        <ele>2296.7</ele>
        <time>2022-01-19T12:04:27Z</time>
      </trkpt>
      <trkpt lat="44.8705" lon="5.52635">
        <ele>2296.5</ele>
        <time>2022-01-19T12:04:28Z</time>
      </trkpt>
      <trkpt lat="44.87051" lon="5.52635">
        <ele>2296.3</ele>
        <time>2022-01-19T12:04:29Z</time>
      </trkpt>
      <trkpt lat="44.87052" lon="5.52635">
        <ele>2296.1</ele>
        <time>2022-01-19T12:04:30Z</time>
      </trkpt>
      <trkpt lat="44.87053" lon="5.52635">
        <ele>2295.9</ele>
        <time>2022-01-19T12:04:31Z</time>
      </trkpt>
      <trkpt lat="44.87055" lon="5.52635">
        <ele>2295.6</ele>
        <time>2022-01-19T12:04:32Z</time>
      </trkpt>
      <trkpt lat="44.87056" lon="5.52635">
        <ele>2295.5</ele>
        <time>2022-01-19T12:04:33Z</time>
      </trkpt>
      <trkpt lat="44.87057" lon="5.52635">
        <ele>2295.3</ele>
        <time>2022-01-19T12:04:34Z</time>
      </trkpt>
      <trkpt lat="44.87058" lon="5.52635">
        <ele>2295</ele>
        <time>2022-01-19T12:04:35Z</time>
      </trkpt>
      <trkpt lat="44.87059" lon="5.52635">
        <ele>2294.8</ele>
        <time>2022-01-19T12:04:36Z</time>
      </trkpt>
      <trkpt lat="44.8706" lon="5.52635">
        <ele>2294.6</ele>
        <time>2022-01-19T12:04:37Z</time>
      </trkpt>
      <trkpt lat="44.87061" lon="5.52635">
        <ele>2294.4</ele>
        <time>2022-01-19T12:04:38Z</time>
      </trkpt>
      <trkpt lat="44.87062" lon="5.52636">
        <ele>2294.2</ele>
        <time>2022-01-19T12:04:39Z</time>
      </trkpt>
      <trkpt lat="44.87063" lon="5.52636">
        <ele>2294.1</ele>
        <time>2022-01-19T12:04:40Z</time>
      </trkpt>
      <trkpt lat="44.87064" lon="5.52636">
        <ele>2293.9</ele>
        <time>2022-01-19T12:04:41Z</time>
      </trkpt>
      <trkpt lat="44.87065" lon="5.52636">
        <ele>2293.7</ele>
        <time>2022-01-19T12:04:42Z</time>
      </trkpt>
      <trkpt lat="44.87065" lon="5.52635">
        <ele>2293.6</ele>
        <time>2022-01-19T12:04:43Z</time>
      </trkpt>
      <trkpt lat="44.87066" lon="5.52635">
        <ele>2293.4</ele>
        <time>2022-01-19T12:04:44Z</time>
      </trkpt>
      <trkpt lat="44.87067" lon="5.52636">
        <ele>2293.3</ele>
        <time>2022-01-19T12:04:45Z</time>
      </trkpt>
      <trkpt lat="44.87068" lon="5.52636">
        <ele>2293.1</ele>
        <time>2022-01-19T12:04:46Z</time>
      </trkpt>
      <trkpt lat="44.87069" lon="5.52635">
        <ele>2293</ele>
        <time>2022-01-19T12:04:47Z</time>
      </trkpt>
      <trkpt lat="44.8707" lon="5.52635">
        <ele>2292.8</ele>
        <time>2022-01-19T12:04:48Z</time>
      </trkpt>
      <trkpt lat="44.8707" lon="5.52635">
        <ele>2292.6</ele>
        <time>2022-01-19T12:04:49Z</time>
      </trkpt>
      <trkpt lat="44.87072" lon="5.52634">
        <ele>2292.4</ele>
        <time>2022-01-19T12:04:50Z</time>
      </trkpt>
      <trkpt lat="44.87073" lon="5.52634">
        <ele>2292.2</ele>
        <time>2022-01-19T12:04:51Z</time>
      </trkpt>
      <trkpt lat="44.87074" lon="5.52634">
        <ele>2291.9</ele>
        <time>2022-01-19T12:04:52Z</time>
      </trkpt>
      <trkpt lat="44.87075" lon="5.52633">
        <ele>2291.6</ele>
        <time>2022-01-19T12:04:53Z</time>
      </trkpt>
      <trkpt lat="44.87076" lon="5.52632">
        <ele>2291.4</ele>
        <time>2022-01-19T12:04:54Z</time>
      </trkpt>
      <trkpt lat="44.87078" lon="5.52632">
        <ele>2291.1</ele>
        <time>2022-01-19T12:04:55Z</time>
      </trkpt>
      <trkpt lat="44.87078" lon="5.52631">
        <ele>2291</ele>
        <time>2022-01-19T12:04:56Z</time>
      </trkpt>
      <trkpt lat="44.87079" lon="5.5263">
        <ele>2290.8</ele>
        <time>2022-01-19T12:04:57Z</time>
      </trkpt>
      <trkpt lat="44.8708" lon="5.5263">
        <ele>2290.7</ele>
        <time>2022-01-19T12:04:58Z</time>
      </trkpt>
      <trkpt lat="44.8708" lon="5.52629">
        <ele>2290.6</ele>
        <time>2022-01-19T12:04:59Z</time>
      </trkpt>
      <trkpt lat="44.87081" lon="5.52629">
        <ele>2290.3</ele>
        <time>2022-01-19T12:05:00Z</time>
      </trkpt>
      <trkpt lat="44.87082" lon="5.52628">
        <ele>2290.2</ele>
        <time>2022-01-19T12:05:01Z</time>
      </trkpt>
      <trkpt lat="44.87083" lon="5.52628">
        <ele>2290.1</ele>
        <time>2022-01-19T12:05:02Z</time>
      </trkpt>
      <trkpt lat="44.87083" lon="5.52627">
        <ele>2289.9</ele>
        <time>2022-01-19T12:05:03Z</time>
      </trkpt>
      <trkpt lat="44.87084" lon="5.52627">
        <ele>2289.8</ele>
        <time>2022-01-19T12:05:04Z</time>
      </trkpt>
      <trkpt lat="44.87085" lon="5.52627">
        <ele>2289.6</ele>
        <time>2022-01-19T12:05:05Z</time>
      </trkpt>
      <trkpt lat="44.87086" lon="5.52626">
        <ele>2289.4</ele>
        <time>2022-01-19T12:05:06Z</time>
      </trkpt>
      <trkpt lat="44.87086" lon="5.52626">
        <ele>2289.3</ele>
        <time>2022-01-19T12:05:07Z</time>
      </trkpt>
      <trkpt lat="44.87088" lon="5.52626">
        <ele>2289.1</ele>
        <time>2022-01-19T12:05:08Z</time>
      </trkpt>
      <trkpt lat="44.87088" lon="5.52626">
        <ele>2289</ele>
        <time>2022-01-19T12:05:09Z</time>
      </trkpt>
      <trkpt lat="44.87089" lon="5.52625">
        <ele>2288.9</ele>
        <time>2022-01-19T12:05:10Z</time>
      </trkpt>
      <trkpt lat="44.87089" lon="5.52625">
        <ele>2288.8</ele>
        <time>2022-01-19T12:05:11Z</time>
      </trkpt>
      <trkpt lat="44.8709" lon="5.52624">
        <ele>2288.7</ele>
        <time>2022-01-19T12:05:12Z</time>
      </trkpt>
      <trkpt lat="44.87091" lon="5.52624">
        <ele>2288.6</ele>
        <time>2022-01-19T12:05:13Z</time>
      </trkpt>
      <trkpt lat="44.87091" lon="5.52624">
        <ele>2288.4</ele>
        <time>2022-01-19T12:05:14Z</time>
      </trkpt>
      <trkpt lat="44.87092" lon="5.52624">
        <ele>2288.3</ele>
        <time>2022-01-19T12:05:15Z</time>
      </trkpt>
      <trkpt lat="44.87093" lon="5.52624">
        <ele>2288.1</ele>
        <time>2022-01-19T12:05:16Z</time>
      </trkpt>
      <trkpt lat="44.87094" lon="5.52623">
        <ele>2288.1</ele>
        <time>2022-01-19T12:05:17Z</time>
      </trkpt>
      <trkpt lat="44.87095" lon="5.52623">
        <ele>2287.9</ele>
        <time>2022-01-19T12:05:18Z</time>
      </trkpt>
      <trkpt lat="44.87095" lon="5.52623">
        <ele>2287.8</ele>
        <time>2022-01-19T12:05:19Z</time>
      </trkpt>
      <trkpt lat="44.87096" lon="5.52622">
        <ele>2287.7</ele>
        <time>2022-01-19T12:05:20Z</time>
      </trkpt>
      <trkpt lat="44.87097" lon="5.52622">
        <ele>2287.6</ele>
        <time>2022-01-19T12:05:21Z</time>
      </trkpt>
      <trkpt lat="44.87097" lon="5.52622">
        <ele>2287.5</ele>
        <time>2022-01-19T12:05:22Z</time>
      </trkpt>
      <trkpt lat="44.87098" lon="5.52622">
        <ele>2287.4</ele>
        <time>2022-01-19T12:05:23Z</time>
      </trkpt>
      <trkpt lat="44.87099" lon="5.52622">
        <ele>2287.3</ele>
        <time>2022-01-19T12:05:24Z</time>
      </trkpt>
      <trkpt lat="44.87099" lon="5.52622">
        <ele>2287.2</ele>
        <time>2022-01-19T12:05:25Z</time>
      </trkpt>
      <trkpt lat="44.871" lon="5.52622">
        <ele>2287.2</ele>
        <time>2022-01-19T12:05:26Z</time>
      </trkpt>
      <trkpt lat="44.87101" lon="5.52622">
        <ele>2287.1</ele>
        <time>2022-01-19T12:05:27Z</time>
      </trkpt>
      <trkpt lat="44.87101" lon="5.52621">
        <ele>2287</ele>
        <time>2022-01-19T12:05:28Z</time>
      </trkpt>
      <trkpt lat="44.87102" lon="5.52621">
        <ele>2286.9</ele>
        <time>2022-01-19T12:05:29Z</time>
      </trkpt>
      <trkpt lat="44.87103" lon="5.52621">
        <ele>2286.8</ele>
        <time>2022-01-19T12:05:30Z</time>
      </trkpt>
      <trkpt lat="44.87103" lon="5.52621">
        <ele>2286.8</ele>
        <time>2022-01-19T12:05:31Z</time>
      </trkpt>
      <trkpt lat="44.87104" lon="5.52621">
        <ele>2286.7</ele>
        <time>2022-01-19T12:05:32Z</time>
      </trkpt>
      <trkpt lat="44.87104" lon="5.5262">
        <ele>2286.6</ele>
        <time>2022-01-19T12:05:33Z</time>
      </trkpt>
      <trkpt lat="44.87105" lon="5.5262">
        <ele>2286.5</ele>
        <time>2022-01-19T12:05:34Z</time>
      </trkpt>
      <trkpt lat="44.87107" lon="5.5262">
        <ele>2286.3</ele>
        <time>2022-01-19T12:05:35Z</time>
      </trkpt>
      <trkpt lat="44.87107" lon="5.5262">
        <ele>2286.2</ele>
        <time>2022-01-19T12:05:36Z</time>
      </trkpt>
      <trkpt lat="44.87108" lon="5.52619">
        <ele>2286.2</ele>
        <time>2022-01-19T12:05:37Z</time>
      </trkpt>
      <trkpt lat="44.87109" lon="5.52618">
        <ele>2286</ele>
        <time>2022-01-19T12:05:38Z</time>
      </trkpt>
      <trkpt lat="44.8711" lon="5.52617">
        <ele>2285.9</ele>
        <time>2022-01-19T12:05:39Z</time>
      </trkpt>
      <trkpt lat="44.87111" lon="5.52616">
        <ele>2285.8</ele>
        <time>2022-01-19T12:05:40Z</time>
      </trkpt>
      <trkpt lat="44.87111" lon="5.52616">
        <ele>2285.7</ele>
        <time>2022-01-19T12:05:41Z</time>
      </trkpt>
      <trkpt lat="44.87112" lon="5.52616">
        <ele>2285.6</ele>
        <time>2022-01-19T12:05:42Z</time>
      </trkpt>
      <trkpt lat="44.87112" lon="5.52616">
        <ele>2285.6</ele>
        <time>2022-01-19T12:05:43Z</time>
      </trkpt>
      <trkpt lat="44.87112" lon="5.52616">
        <ele>2285.6</ele>
        <time>2022-01-19T12:05:44Z</time>
      </trkpt>
      <trkpt lat="44.87113" lon="5.52616">
        <ele>2285.5</ele>
        <time>2022-01-19T12:05:45Z</time>
      </trkpt>
      <trkpt lat="44.87114" lon="5.52616">
        <ele>2285.4</ele>
        <time>2022-01-19T12:05:46Z</time>
      </trkpt>
      <trkpt lat="44.87114" lon="5.52616">
        <ele>2285.3</ele>
        <time>2022-01-19T12:05:47Z</time>
      </trkpt>
      <trkpt lat="44.87115" lon="5.52617">
        <ele>2285.3</ele>
        <time>2022-01-19T12:05:48Z</time>
      </trkpt>
      <trkpt lat="44.87115" lon="5.52617">
        <ele>2285.2</ele>
        <time>2022-01-19T12:05:49Z</time>
      </trkpt>
      <trkpt lat="44.87116" lon="5.52618">
        <ele>2285.1</ele>
        <time>2022-01-19T12:05:50Z</time>
      </trkpt>
      <trkpt lat="44.87118" lon="5.52618">
        <ele>2284.9</ele>
        <time>2022-01-19T12:05:51Z</time>
      </trkpt>
      <trkpt lat="44.87118" lon="5.52619">
        <ele>2284.8</ele>
        <time>2022-01-19T12:05:52Z</time>
      </trkpt>
      <trkpt lat="44.87119" lon="5.52619">
        <ele>2284.7</ele>
        <time>2022-01-19T12:05:53Z</time>
      </trkpt>
      <trkpt lat="44.8712" lon="5.52619">
        <ele>2284.7</ele>
        <time>2022-01-19T12:05:54Z</time>
      </trkpt>
      <trkpt lat="44.87121" lon="5.52619">
        <ele>2284.5</ele>
        <time>2022-01-19T12:05:55Z</time>
      </trkpt>
      <trkpt lat="44.87122" lon="5.52619">
        <ele>2284.4</ele>
        <time>2022-01-19T12:05:56Z</time>
      </trkpt>
      <trkpt lat="44.87123" lon="5.5262">
        <ele>2284.2</ele>
        <time>2022-01-19T12:05:57Z</time>
      </trkpt>
      <trkpt lat="44.87124" lon="5.5262">
        <ele>2284.1</ele>
        <time>2022-01-19T12:05:58Z</time>
      </trkpt>
      <trkpt lat="44.87125" lon="5.5262">
        <ele>2284</ele>
        <time>2022-01-19T12:05:59Z</time>
      </trkpt>
      <trkpt lat="44.87125" lon="5.5262">
        <ele>2283.9</ele>
        <time>2022-01-19T12:06:00Z</time>
      </trkpt>
      <trkpt lat="44.87126" lon="5.5262">
        <ele>2283.7</ele>
        <time>2022-01-19T12:06:01Z</time>
      </trkpt>
      <trkpt lat="44.87128" lon="5.52621">
        <ele>2283.6</ele>
        <time>2022-01-19T12:06:02Z</time>
      </trkpt>
      <trkpt lat="44.87129" lon="5.52621">
        <ele>2283.4</ele>
        <time>2022-01-19T12:06:03Z</time>
      </trkpt>
      <trkpt lat="44.8713" lon="5.52622">
        <ele>2283.2</ele>
        <time>2022-01-19T12:06:04Z</time>
      </trkpt>
      <trkpt lat="44.8713" lon="5.52622">
        <ele>2283.1</ele>
        <time>2022-01-19T12:06:05Z</time>
      </trkpt>
      <trkpt lat="44.87131" lon="5.52621">
        <ele>2283.1</ele>
        <time>2022-01-19T12:06:06Z</time>
      </trkpt>
      <trkpt lat="44.87131" lon="5.52621">
        <ele>2283</ele>
        <time>2022-01-19T12:06:07Z</time>
      </trkpt>
      <trkpt lat="44.87132" lon="5.5262">
        <ele>2282.9</ele>
        <time>2022-01-19T12:06:08Z</time>
      </trkpt>
      <trkpt lat="44.87132" lon="5.5262">
        <ele>2282.8</ele>
        <time>2022-01-19T12:06:09Z</time>
      </trkpt>
      <trkpt lat="44.87132" lon="5.52619">
        <ele>2282.7</ele>
        <time>2022-01-19T12:06:10Z</time>
      </trkpt>
      <trkpt lat="44.87132" lon="5.52618">
        <ele>2282.6</ele>
        <time>2022-01-19T12:06:11Z</time>
      </trkpt>
      <trkpt lat="44.87132" lon="5.52618">
        <ele>2282.6</ele>
        <time>2022-01-19T12:06:12Z</time>
      </trkpt>
      <trkpt lat="44.87133" lon="5.52617">
        <ele>2282.5</ele>
        <time>2022-01-19T12:06:13Z</time>
      </trkpt>
      <trkpt lat="44.87133" lon="5.52618">
        <ele>2282.5</ele>
        <time>2022-01-19T12:06:14Z</time>
      </trkpt>
      <trkpt lat="44.87133" lon="5.52617">
        <ele>2282.5</ele>
        <time>2022-01-19T12:06:15Z</time>
      </trkpt>
      <trkpt lat="44.87133" lon="5.52617">
        <ele>2282.3</ele>
        <time>2022-01-19T12:06:16Z</time>
      </trkpt>
      <trkpt lat="44.87134" lon="5.52617">
        <ele>2282.2</ele>
        <time>2022-01-19T12:06:17Z</time>
      </trkpt>
      <trkpt lat="44.87135" lon="5.52617">
        <ele>2282.1</ele>
        <time>2022-01-19T12:06:18Z</time>
      </trkpt>
      <trkpt lat="44.87135" lon="5.52616">
        <ele>2282</ele>
        <time>2022-01-19T12:06:19Z</time>
      </trkpt>
      <trkpt lat="44.87136" lon="5.52616">
        <ele>2281.9</ele>
        <time>2022-01-19T12:06:20Z</time>
      </trkpt>
      <trkpt lat="44.87136" lon="5.52616">
        <ele>2281.8</ele>
        <time>2022-01-19T12:06:21Z</time>
      </trkpt>
      <trkpt lat="44.87137" lon="5.52617">
        <ele>2281.7</ele>
        <time>2022-01-19T12:06:22Z</time>
      </trkpt>
      <trkpt lat="44.87137" lon="5.52617">
        <ele>2281.7</ele>
        <time>2022-01-19T12:06:23Z</time>
      </trkpt>
      <trkpt lat="44.87138" lon="5.52617">
        <ele>2281.6</ele>
        <time>2022-01-19T12:06:24Z</time>
      </trkpt>
      <trkpt lat="44.87138" lon="5.52617">
        <ele>2281.5</ele>
        <time>2022-01-19T12:06:25Z</time>
      </trkpt>
      <trkpt lat="44.87139" lon="5.52617">
        <ele>2281.3</ele>
        <time>2022-01-19T12:06:26Z</time>
      </trkpt>
      <trkpt lat="44.8714" lon="5.52617">
        <ele>2281.2</ele>
        <time>2022-01-19T12:06:27Z</time>
      </trkpt>
      <trkpt lat="44.87141" lon="5.52617">
        <ele>2281.1</ele>
        <time>2022-01-19T12:06:28Z</time>
      </trkpt>
      <trkpt lat="44.87142" lon="5.52617">
        <ele>2280.9</ele>
        <time>2022-01-19T12:06:29Z</time>
      </trkpt>
      <trkpt lat="44.87143" lon="5.52617">
        <ele>2280.8</ele>
        <time>2022-01-19T12:06:30Z</time>
      </trkpt>
      <trkpt lat="44.87144" lon="5.52617">
        <ele>2280.6</ele>
        <time>2022-01-19T12:06:31Z</time>
      </trkpt>
      <trkpt lat="44.87144" lon="5.52617">
        <ele>2280.5</ele>
        <time>2022-01-19T12:06:32Z</time>
      </trkpt>
      <trkpt lat="44.87145" lon="5.52617">
        <ele>2280.4</ele>
        <time>2022-01-19T12:06:33Z</time>
      </trkpt>
      <trkpt lat="44.87146" lon="5.52616">
        <ele>2280.3</ele>
        <time>2022-01-19T12:06:34Z</time>
      </trkpt>
      <trkpt lat="44.87147" lon="5.52616">
        <ele>2280.1</ele>
        <time>2022-01-19T12:06:35Z</time>
      </trkpt>
      <trkpt lat="44.87148" lon="5.52616">
        <ele>2280</ele>
        <time>2022-01-19T12:06:36Z</time>
      </trkpt>
      <trkpt lat="44.87148" lon="5.52616">
        <ele>2280</ele>
        <time>2022-01-19T12:06:37Z</time>
      </trkpt>
      <trkpt lat="44.87149" lon="5.52616">
        <ele>2279.7</ele>
        <time>2022-01-19T12:06:38Z</time>
      </trkpt>
      <trkpt lat="44.8715" lon="5.52616">
        <ele>2279.6</ele>
        <time>2022-01-19T12:06:39Z</time>
      </trkpt>
      <trkpt lat="44.87151" lon="5.52616">
        <ele>2279.3</ele>
        <time>2022-01-19T12:06:40Z</time>
      </trkpt>
      <trkpt lat="44.87152" lon="5.52616">
        <ele>2279.2</ele>
        <time>2022-01-19T12:06:41Z</time>
      </trkpt>
      <trkpt lat="44.87153" lon="5.52616">
        <ele>2279</ele>
        <time>2022-01-19T12:06:42Z</time>
      </trkpt>
      <trkpt lat="44.87154" lon="5.52616">
        <ele>2278.8</ele>
        <time>2022-01-19T12:06:43Z</time>
      </trkpt>
      <trkpt lat="44.87155" lon="5.52615">
        <ele>2278.7</ele>
        <time>2022-01-19T12:06:44Z</time>
      </trkpt>
      <trkpt lat="44.87156" lon="5.52615">
        <ele>2278.6</ele>
        <time>2022-01-19T12:06:45Z</time>
      </trkpt>
      <trkpt lat="44.87156" lon="5.52615">
        <ele>2278.5</ele>
        <time>2022-01-19T12:06:46Z</time>
      </trkpt>
      <trkpt lat="44.87157" lon="5.52615">
        <ele>2278.4</ele>
        <time>2022-01-19T12:06:47Z</time>
      </trkpt>
      <trkpt lat="44.87158" lon="5.52616">
        <ele>2278.2</ele>
        <time>2022-01-19T12:06:48Z</time>
      </trkpt>
      <trkpt lat="44.87158" lon="5.52616">
        <ele>2278.2</ele>
        <time>2022-01-19T12:06:49Z</time>
      </trkpt>
      <trkpt lat="44.87159" lon="5.52615">
        <ele>2278</ele>
        <time>2022-01-19T12:06:50Z</time>
      </trkpt>
      <trkpt lat="44.87159" lon="5.52615">
        <ele>2278</ele>
        <time>2022-01-19T12:06:51Z</time>
      </trkpt>
      <trkpt lat="44.8716" lon="5.52614">
        <ele>2277.7</ele>
        <time>2022-01-19T12:06:52Z</time>
      </trkpt>
      <trkpt lat="44.87162" lon="5.52614">
        <ele>2277.5</ele>
        <time>2022-01-19T12:06:53Z</time>
      </trkpt>
      <trkpt lat="44.87162" lon="5.52613">
        <ele>2277.4</ele>
        <time>2022-01-19T12:06:54Z</time>
      </trkpt>
      <trkpt lat="44.87162" lon="5.52612">
        <ele>2277.2</ele>
        <time>2022-01-19T12:06:55Z</time>
      </trkpt>
      <trkpt lat="44.87163" lon="5.52611">
        <ele>2277.1</ele>
        <time>2022-01-19T12:06:56Z</time>
      </trkpt>
      <trkpt lat="44.87163" lon="5.52611">
        <ele>2277</ele>
        <time>2022-01-19T12:06:57Z</time>
      </trkpt>
      <trkpt lat="44.87163" lon="5.52611">
        <ele>2276.9</ele>
        <time>2022-01-19T12:06:58Z</time>
      </trkpt>
      <trkpt lat="44.87164" lon="5.5261">
        <ele>2276.8</ele>
        <time>2022-01-19T12:06:59Z</time>
      </trkpt>
      <trkpt lat="44.87164" lon="5.52609">
        <ele>2276.6</ele>
        <time>2022-01-19T12:07:00Z</time>
      </trkpt>
      <trkpt lat="44.87164" lon="5.52609">
        <ele>2276.6</ele>
        <time>2022-01-19T12:07:01Z</time>
      </trkpt>
      <trkpt lat="44.87164" lon="5.52609">
        <ele>2276.6</ele>
        <time>2022-01-19T12:07:02Z</time>
      </trkpt>
      <trkpt lat="44.87164" lon="5.52609">
        <ele>2276.6</ele>
        <time>2022-01-19T12:07:03Z</time>
      </trkpt>
      <trkpt lat="44.87164" lon="5.52609">
        <ele>2276.6</ele>
        <time>2022-01-19T12:07:04Z</time>
      </trkpt>
      <trkpt lat="44.87164" lon="5.52609">
        <ele>2276.6</ele>
        <time>2022-01-19T12:07:05Z</time>
      </trkpt>
      <trkpt lat="44.87164" lon="5.52609">
        <ele>2276.6</ele>
        <time>2022-01-19T12:07:06Z</time>
      </trkpt>
      <trkpt lat="44.87164" lon="5.52609">
        <ele>2276.6</ele>
        <time>2022-01-19T12:07:07Z</time>
      </trkpt>
      <trkpt lat="44.87164" lon="5.52609">
        <ele>2276.6</ele>
        <time>2022-01-19T12:07:08Z</time>
      </trkpt>
      <trkpt lat="44.87164" lon="5.52609">
        <ele>2276.6</ele>
        <time>2022-01-19T12:07:09Z</time>
      </trkpt>
      <trkpt lat="44.87164" lon="5.52609">
        <ele>2276.6</ele>
        <time>2022-01-19T12:07:10Z</time>
      </trkpt>
      <trkpt lat="44.87164" lon="5.52609">
        <ele>2276.6</ele>
        <time>2022-01-19T12:07:11Z</time>
      </trkpt>
      <trkpt lat="44.87164" lon="5.52609">
        <ele>2276.6</ele>
        <time>2022-01-19T12:07:12Z</time>
      </trkpt>
      <trkpt lat="44.87164" lon="5.52609">
        <ele>2276.6</ele>
        <time>2022-01-19T12:07:13Z</time>
      </trkpt>
      <trkpt lat="44.87164" lon="5.52609">
        <ele>2276.6</ele>
        <time>2022-01-19T12:07:14Z</time>
      </trkpt>
      <trkpt lat="44.87164" lon="5.52609">
        <ele>2276.6</ele>
        <time>2022-01-19T12:07:15Z</time>
      </trkpt>
      <trkpt lat="44.87164" lon="5.52609">
        <ele>2276.6</ele>
        <time>2022-01-19T12:07:16Z</time>
      </trkpt>
      <trkpt lat="44.87164" lon="5.52609">
        <ele>2276.6</ele>
        <time>2022-01-19T12:07:17Z</time>
      </trkpt>
      <trkpt lat="44.87164" lon="5.52609">
        <ele>2276.6</ele>
        <time>2022-01-19T12:07:18Z</time>
      </trkpt>
      <trkpt lat="44.87164" lon="5.52609">
        <ele>2276.6</ele>
        <time>2022-01-19T12:07:19Z</time>
      </trkpt>
      <trkpt lat="44.87164" lon="5.52609">
        <ele>2276.6</ele>
        <time>2022-01-19T12:07:20Z</time>
      </trkpt>
      <trkpt lat="44.87164" lon="5.52609">
        <ele>2276.6</ele>
        <time>2022-01-19T12:07:21Z</time>
      </trkpt>
      <trkpt lat="44.87164" lon="5.52609">
        <ele>2276.6</ele>
        <time>2022-01-19T12:07:22Z</time>
      </trkpt>
      <trkpt lat="44.87164" lon="5.52609">
        <ele>2276.6</ele>
        <time>2022-01-19T12:07:23Z</time>
      </trkpt>
      <trkpt lat="44.87164" lon="5.52609">
        <ele>2276.6</ele>
        <time>2022-01-19T12:07:24Z</time>
      </trkpt>
      <trkpt lat="44.87164" lon="5.52609">
        <ele>2276.6</ele>
        <time>2022-01-19T12:07:25Z</time>
      </trkpt>
      <trkpt lat="44.87164" lon="5.52609">
        <ele>2276.6</ele>
        <time>2022-01-19T12:07:26Z</time>
      </trkpt>
      <trkpt lat="44.87164" lon="5.52609">
        <ele>2276.6</ele>
        <time>2022-01-19T12:07:27Z</time>
      </trkpt>
      <trkpt lat="44.87164" lon="5.52609">
        <ele>2276.6</ele>
        <time>2022-01-19T12:07:28Z</time>
      </trkpt>
      <trkpt lat="44.87164" lon="5.52609">
        <ele>2276.6</ele>
        <time>2022-01-19T12:07:29Z</time>
      </trkpt>
      <trkpt lat="44.87164" lon="5.52609">
        <ele>2276.6</ele>
        <time>2022-01-19T12:07:30Z</time>
      </trkpt>
      <trkpt lat="44.87164" lon="5.52609">
        <ele>2276.6</ele>
        <time>2022-01-19T12:07:31Z</time>
      </trkpt>
      <trkpt lat="44.87164" lon="5.52609">
        <ele>2276.6</ele>
        <time>2022-01-19T12:07:32Z</time>
      </trkpt>
      <trkpt lat="44.87164" lon="5.52609">
        <ele>2276.6</ele>
        <time>2022-01-19T12:07:33Z</time>
      </trkpt>
      <trkpt lat="44.87164" lon="5.52609">
        <ele>2276.6</ele>
        <time>2022-01-19T12:07:34Z</time>
      </trkpt>
      <trkpt lat="44.87164" lon="5.52609">
        <ele>2276.6</ele>
        <time>2022-01-19T12:07:35Z</time>
      </trkpt>
      <trkpt lat="44.87164" lon="5.52609">
        <ele>2276.6</ele>
        <time>2022-01-19T12:07:36Z</time>
      </trkpt>
      <trkpt lat="44.87164" lon="5.52609">
        <ele>2276.6</ele>
        <time>2022-01-19T12:07:37Z</time>
      </trkpt>
      <trkpt lat="44.87164" lon="5.52609">
        <ele>2276.6</ele>
        <time>2022-01-19T12:07:38Z</time>
      </trkpt>
      <trkpt lat="44.87164" lon="5.52609">
        <ele>2276.6</ele>
        <time>2022-01-19T12:07:39Z</time>
      </trkpt>
      <trkpt lat="44.87164" lon="5.52609">
        <ele>2276.6</ele>
        <time>2022-01-19T12:07:40Z</time>
      </trkpt>
      <trkpt lat="44.87164" lon="5.52609">
        <ele>2276.6</ele>
        <time>2022-01-19T12:07:41Z</time>
      </trkpt>
      <trkpt lat="44.87164" lon="5.52609">
        <ele>2276.6</ele>
        <time>2022-01-19T12:07:42Z</time>
      </trkpt>
      <trkpt lat="44.87164" lon="5.52609">
        <ele>2276.6</ele>
        <time>2022-01-19T12:07:43Z</time>
      </trkpt>
      <trkpt lat="44.87164" lon="5.52609">
        <ele>2276.6</ele>
        <time>2022-01-19T12:07:44Z</time>
      </trkpt>
      <trkpt lat="44.87164" lon="5.52609">
        <ele>2276.6</ele>
        <time>2022-01-19T12:07:45Z</time>
      </trkpt>
      <trkpt lat="44.87164" lon="5.52609">
        <ele>2276.6</ele>
        <time>2022-01-19T12:07:46Z</time>
      </trkpt>
      <trkpt lat="44.87164" lon="5.52609">
        <ele>2276.6</ele>
        <time>2022-01-19T12:07:47Z</time>
      </trkpt>
      <trkpt lat="44.87164" lon="5.52609">
        <ele>2276.6</ele>
        <time>2022-01-19T12:07:48Z</time>
      </trkpt>
      <trkpt lat="44.87164" lon="5.52609">
        <ele>2276.6</ele>
        <time>2022-01-19T12:07:49Z</time>
      </trkpt>
      <trkpt lat="44.87164" lon="5.52609">
        <ele>2276.6</ele>
        <time>2022-01-19T12:07:50Z</time>
      </trkpt>
      <trkpt lat="44.87164" lon="5.52609">
        <ele>2276.6</ele>
        <time>2022-01-19T12:07:51Z</time>
      </trkpt>
      <trkpt lat="44.87164" lon="5.52609">
        <ele>2276.6</ele>
        <time>2022-01-19T12:07:52Z</time>
      </trkpt>
      <trkpt lat="44.87164" lon="5.52609">
        <ele>2276.6</ele>
        <time>2022-01-19T12:07:53Z</time>
      </trkpt>
      <trkpt lat="44.87164" lon="5.52609">
        <ele>2276.7</ele>
        <time>2022-01-19T12:07:54Z</time>
      </trkpt>
      <trkpt lat="44.87164" lon="5.52609">
        <ele>2276.7</ele>
        <time>2022-01-19T12:07:55Z</time>
      </trkpt>
      <trkpt lat="44.87165" lon="5.52611">
        <ele>2276.3</ele>
        <time>2022-01-19T12:07:56Z</time>
      </trkpt>
      <trkpt lat="44.87165" lon="5.52611">
        <ele>2276.2</ele>
        <time>2022-01-19T12:07:57Z</time>
      </trkpt>
      <trkpt lat="44.87164" lon="5.52612">
        <ele>2276.2</ele>
        <time>2022-01-19T12:07:58Z</time>
      </trkpt>
      <trkpt lat="44.87164" lon="5.52612">
        <ele>2276.1</ele>
        <time>2022-01-19T12:07:59Z</time>
      </trkpt>
      <trkpt lat="44.87163" lon="5.52612">
        <ele>2275.9</ele>
        <time>2022-01-19T12:08:00Z</time>
      </trkpt>
      <trkpt lat="44.87162" lon="5.52612">
        <ele>2275.7</ele>
        <time>2022-01-19T12:08:01Z</time>
      </trkpt>
      <trkpt lat="44.87162" lon="5.52612">
        <ele>2275.6</ele>
        <time>2022-01-19T12:08:02Z</time>
      </trkpt>
      <trkpt lat="44.87161" lon="5.52612">
        <ele>2275.6</ele>
        <time>2022-01-19T12:08:03Z</time>
      </trkpt>
      <trkpt lat="44.87161" lon="5.52612">
        <ele>2275.5</ele>
        <time>2022-01-19T12:08:04Z</time>
      </trkpt>
      <trkpt lat="44.87165" lon="5.52611">
        <ele>2274.5</ele>
        <time>2022-01-19T12:08:05Z</time>
      </trkpt>
      <trkpt lat="44.87165" lon="5.5261">
        <ele>2274.3</ele>
        <time>2022-01-19T12:08:06Z</time>
      </trkpt>
      <trkpt lat="44.87165" lon="5.5261">
        <ele>2274.4</ele>
        <time>2022-01-19T12:08:07Z</time>
      </trkpt>
      <trkpt lat="44.87165" lon="5.5261">
        <ele>2274.4</ele>
        <time>2022-01-19T12:08:08Z</time>
      </trkpt>
      <trkpt lat="44.87165" lon="5.5261">
        <ele>2274.4</ele>
        <time>2022-01-19T12:08:09Z</time>
      </trkpt>
      <trkpt lat="44.87165" lon="5.5261">
        <ele>2274.4</ele>
        <time>2022-01-19T12:08:10Z</time>
      </trkpt>
      <trkpt lat="44.87165" lon="5.5261">
        <ele>2274.4</ele>
        <time>2022-01-19T12:08:11Z</time>
      </trkpt>
      <trkpt lat="44.87165" lon="5.5261">
        <ele>2274.5</ele>
        <time>2022-01-19T12:08:12Z</time>
      </trkpt>
      <trkpt lat="44.87165" lon="5.5261">
        <ele>2274.5</ele>
        <time>2022-01-19T12:08:13Z</time>
      </trkpt>
      <trkpt lat="44.87165" lon="5.5261">
        <ele>2274.5</ele>
        <time>2022-01-19T12:08:14Z</time>
      </trkpt>
      <trkpt lat="44.87165" lon="5.5261">
        <ele>2274.5</ele>
        <time>2022-01-19T12:08:15Z</time>
      </trkpt>
      <trkpt lat="44.87165" lon="5.5261">
        <ele>2274.6</ele>
        <time>2022-01-19T12:08:16Z</time>
      </trkpt>
      <trkpt lat="44.87165" lon="5.5261">
        <ele>2274.6</ele>
        <time>2022-01-19T12:08:17Z</time>
      </trkpt>
      <trkpt lat="44.87165" lon="5.5261">
        <ele>2274.6</ele>
        <time>2022-01-19T12:08:18Z</time>
      </trkpt>
      <trkpt lat="44.87165" lon="5.5261">
        <ele>2274.6</ele>
        <time>2022-01-19T12:08:19Z</time>
      </trkpt>
      <trkpt lat="44.87165" lon="5.5261">
        <ele>2274.6</ele>
        <time>2022-01-19T12:08:20Z</time>
      </trkpt>
      <trkpt lat="44.87165" lon="5.5261">
        <ele>2274.7</ele>
        <time>2022-01-19T12:08:21Z</time>
      </trkpt>
      <trkpt lat="44.87165" lon="5.5261">
        <ele>2274.7</ele>
        <time>2022-01-19T12:08:22Z</time>
      </trkpt>
      <trkpt lat="44.87165" lon="5.5261">
        <ele>2274.7</ele>
        <time>2022-01-19T12:08:23Z</time>
      </trkpt>
      <trkpt lat="44.87165" lon="5.5261">
        <ele>2274.7</ele>
        <time>2022-01-19T12:08:24Z</time>
      </trkpt>
      <trkpt lat="44.87165" lon="5.5261">
        <ele>2274.7</ele>
        <time>2022-01-19T12:08:25Z</time>
      </trkpt>
      <trkpt lat="44.87165" lon="5.5261">
        <ele>2274.8</ele>
        <time>2022-01-19T12:08:26Z</time>
      </trkpt>
      <trkpt lat="44.87165" lon="5.5261">
        <ele>2274.8</ele>
        <time>2022-01-19T12:08:27Z</time>
      </trkpt>
      <trkpt lat="44.87165" lon="5.5261">
        <ele>2274.8</ele>
        <time>2022-01-19T12:08:28Z</time>
      </trkpt>
      <trkpt lat="44.87165" lon="5.5261">
        <ele>2274.8</ele>
        <time>2022-01-19T12:08:29Z</time>
      </trkpt>
      <trkpt lat="44.87165" lon="5.5261">
        <ele>2274.9</ele>
        <time>2022-01-19T12:08:30Z</time>
      </trkpt>
      <trkpt lat="44.87165" lon="5.5261">
        <ele>2274.9</ele>
        <time>2022-01-19T12:08:31Z</time>
      </trkpt>
      <trkpt lat="44.87165" lon="5.5261">
        <ele>2274.9</ele>
        <time>2022-01-19T12:08:32Z</time>
      </trkpt>
      <trkpt lat="44.87165" lon="5.5261">
        <ele>2274.9</ele>
        <time>2022-01-19T12:08:33Z</time>
      </trkpt>
      <trkpt lat="44.87165" lon="5.5261">
        <ele>2274.9</ele>
        <time>2022-01-19T12:08:34Z</time>
      </trkpt>
      <trkpt lat="44.87165" lon="5.5261">
        <ele>2275</ele>
        <time>2022-01-19T12:08:35Z</time>
      </trkpt>
      <trkpt lat="44.87165" lon="5.5261">
        <ele>2275</ele>
        <time>2022-01-19T12:08:36Z</time>
      </trkpt>
      <trkpt lat="44.87165" lon="5.5261">
        <ele>2275</ele>
        <time>2022-01-19T12:08:37Z</time>
      </trkpt>
      <trkpt lat="44.87165" lon="5.5261">
        <ele>2275</ele>
        <time>2022-01-19T12:08:38Z</time>
      </trkpt>
      <trkpt lat="44.87165" lon="5.5261">
        <ele>2275.1</ele>
        <time>2022-01-19T12:08:39Z</time>
      </trkpt>
      <trkpt lat="44.87165" lon="5.5261">
        <ele>2275.1</ele>
        <time>2022-01-19T12:08:40Z</time>
      </trkpt>
      <trkpt lat="44.87165" lon="5.5261">
        <ele>2275.1</ele>
        <time>2022-01-19T12:08:41Z</time>
      </trkpt>
      <trkpt lat="44.87165" lon="5.5261">
        <ele>2275.1</ele>
        <time>2022-01-19T12:08:42Z</time>
      </trkpt>
      <trkpt lat="44.87165" lon="5.5261">
        <ele>2275.1</ele>
        <time>2022-01-19T12:08:43Z</time>
      </trkpt>
      <trkpt lat="44.87165" lon="5.5261">
        <ele>2275.2</ele>
        <time>2022-01-19T12:08:44Z</time>
      </trkpt>
      <trkpt lat="44.87165" lon="5.5261">
        <ele>2275.2</ele>
        <time>2022-01-19T12:08:45Z</time>
      </trkpt>
      <trkpt lat="44.87165" lon="5.5261">
        <ele>2275.2</ele>
        <time>2022-01-19T12:08:46Z</time>
      </trkpt>
      <trkpt lat="44.87165" lon="5.5261">
        <ele>2275.2</ele>
        <time>2022-01-19T12:08:47Z</time>
      </trkpt>
      <trkpt lat="44.87165" lon="5.5261">
        <ele>2275.3</ele>
        <time>2022-01-19T12:08:48Z</time>
      </trkpt>
      <trkpt lat="44.87165" lon="5.5261">
        <ele>2275.3</ele>
        <time>2022-01-19T12:08:49Z</time>
      </trkpt>
      <trkpt lat="44.87165" lon="5.5261">
        <ele>2275.3</ele>
        <time>2022-01-19T12:08:50Z</time>
      </trkpt>
      <trkpt lat="44.87165" lon="5.5261">
        <ele>2275.3</ele>
        <time>2022-01-19T12:08:51Z</time>
      </trkpt>
      <trkpt lat="44.87165" lon="5.5261">
        <ele>2275.3</ele>
        <time>2022-01-19T12:08:52Z</time>
      </trkpt>
      <trkpt lat="44.87165" lon="5.5261">
        <ele>2275.4</ele>
        <time>2022-01-19T12:08:53Z</time>
      </trkpt>
      <trkpt lat="44.87165" lon="5.5261">
        <ele>2275.4</ele>
        <time>2022-01-19T12:08:54Z</time>
      </trkpt>
      <trkpt lat="44.87165" lon="5.5261">
        <ele>2275.4</ele>
        <time>2022-01-19T12:08:55Z</time>
      </trkpt>
      <trkpt lat="44.87165" lon="5.5261">
        <ele>2275.4</ele>
        <time>2022-01-19T12:08:56Z</time>
      </trkpt>
      <trkpt lat="44.87164" lon="5.52608">
        <ele>2275</ele>
        <time>2022-01-19T12:08:57Z</time>
      </trkpt>
      <trkpt lat="44.87164" lon="5.52608">
        <ele>2274.9</ele>
        <time>2022-01-19T12:08:58Z</time>
      </trkpt>
      <trkpt lat="44.87165" lon="5.52608">
        <ele>2274.8</ele>
        <time>2022-01-19T12:08:59Z</time>
      </trkpt>
      <trkpt lat="44.87166" lon="5.52608">
        <ele>2274.6</ele>
        <time>2022-01-19T12:09:00Z</time>
      </trkpt>
      <trkpt lat="44.87167" lon="5.52607">
        <ele>2274.4</ele>
        <time>2022-01-19T12:09:01Z</time>
      </trkpt>
      <trkpt lat="44.87167" lon="5.52607">
        <ele>2274.3</ele>
        <time>2022-01-19T12:09:02Z</time>
      </trkpt>
      <trkpt lat="44.87168" lon="5.52607">
        <ele>2274</ele>
        <time>2022-01-19T12:09:03Z</time>
      </trkpt>
      <trkpt lat="44.87169" lon="5.52607">
        <ele>2273.8</ele>
        <time>2022-01-19T12:09:04Z</time>
      </trkpt>
      <trkpt lat="44.8717" lon="5.52607">
        <ele>2273.6</ele>
        <time>2022-01-19T12:09:05Z</time>
      </trkpt>
      <trkpt lat="44.87171" lon="5.52607">
        <ele>2273.4</ele>
        <time>2022-01-19T12:09:06Z</time>
      </trkpt>
      <trkpt lat="44.87172" lon="5.52607">
        <ele>2273.2</ele>
        <time>2022-01-19T12:09:07Z</time>
      </trkpt>
      <trkpt lat="44.87172" lon="5.52607">
        <ele>2273.1</ele>
        <time>2022-01-19T12:09:08Z</time>
      </trkpt>
      <trkpt lat="44.87173" lon="5.52606">
        <ele>2273.1</ele>
        <time>2022-01-19T12:09:09Z</time>
      </trkpt>
      <trkpt lat="44.87173" lon="5.52606">
        <ele>2272.9</ele>
        <time>2022-01-19T12:09:10Z</time>
      </trkpt>
      <trkpt lat="44.87174" lon="5.52606">
        <ele>2272.8</ele>
        <time>2022-01-19T12:09:11Z</time>
      </trkpt>
      <trkpt lat="44.87174" lon="5.52605">
        <ele>2272.7</ele>
        <time>2022-01-19T12:09:12Z</time>
      </trkpt>
      <trkpt lat="44.87175" lon="5.52605">
        <ele>2272.5</ele>
        <time>2022-01-19T12:09:13Z</time>
      </trkpt>
      <trkpt lat="44.87176" lon="5.52605">
        <ele>2272.4</ele>
        <time>2022-01-19T12:09:14Z</time>
      </trkpt>
      <trkpt lat="44.87177" lon="5.52604">
        <ele>2272.2</ele>
        <time>2022-01-19T12:09:15Z</time>
      </trkpt>
      <trkpt lat="44.87177" lon="5.52604">
        <ele>2272</ele>
        <time>2022-01-19T12:09:16Z</time>
      </trkpt>
      <trkpt lat="44.87178" lon="5.52603">
        <ele>2271.8</ele>
        <time>2022-01-19T12:09:17Z</time>
      </trkpt>
      <trkpt lat="44.87178" lon="5.52603">
        <ele>2271.8</ele>
        <time>2022-01-19T12:09:18Z</time>
      </trkpt>
      <trkpt lat="44.87178" lon="5.52603">
        <ele>2271.7</ele>
        <time>2022-01-19T12:09:19Z</time>
      </trkpt>
      <trkpt lat="44.87179" lon="5.52603">
        <ele>2271.5</ele>
        <time>2022-01-19T12:09:20Z</time>
      </trkpt>
      <trkpt lat="44.8718" lon="5.52603">
        <ele>2271.3</ele>
        <time>2022-01-19T12:09:21Z</time>
      </trkpt>
      <trkpt lat="44.8718" lon="5.52602">
        <ele>2271.2</ele>
        <time>2022-01-19T12:09:22Z</time>
      </trkpt>
      <trkpt lat="44.8718" lon="5.52602">
        <ele>2271.2</ele>
        <time>2022-01-19T12:09:23Z</time>
      </trkpt>
      <trkpt lat="44.8718" lon="5.52601">
        <ele>2271.1</ele>
        <time>2022-01-19T12:09:24Z</time>
      </trkpt>
      <trkpt lat="44.87181" lon="5.52601">
        <ele>2270.9</ele>
        <time>2022-01-19T12:09:25Z</time>
      </trkpt>
      <trkpt lat="44.87181" lon="5.526">
        <ele>2270.8</ele>
        <time>2022-01-19T12:09:26Z</time>
      </trkpt>
      <trkpt lat="44.87181" lon="5.52599">
        <ele>2270.7</ele>
        <time>2022-01-19T12:09:27Z</time>
      </trkpt>
      <trkpt lat="44.87181" lon="5.52599">
        <ele>2270.5</ele>
        <time>2022-01-19T12:09:28Z</time>
      </trkpt>
      <trkpt lat="44.87182" lon="5.52598">
        <ele>2270.5</ele>
        <time>2022-01-19T12:09:29Z</time>
      </trkpt>
      <trkpt lat="44.87182" lon="5.52598">
        <ele>2270.4</ele>
        <time>2022-01-19T12:09:30Z</time>
      </trkpt>
      <trkpt lat="44.87183" lon="5.52597">
        <ele>2270.2</ele>
        <time>2022-01-19T12:09:31Z</time>
      </trkpt>
      <trkpt lat="44.87183" lon="5.52597">
        <ele>2270.1</ele>
        <time>2022-01-19T12:09:32Z</time>
      </trkpt>
      <trkpt lat="44.87184" lon="5.52597">
        <ele>2269.9</ele>
        <time>2022-01-19T12:09:33Z</time>
      </trkpt>
      <trkpt lat="44.87185" lon="5.52597">
        <ele>2269.8</ele>
        <time>2022-01-19T12:09:34Z</time>
      </trkpt>
      <trkpt lat="44.87185" lon="5.52597">
        <ele>2269.6</ele>
        <time>2022-01-19T12:09:35Z</time>
      </trkpt>
      <trkpt lat="44.87186" lon="5.52597">
        <ele>2269.5</ele>
        <time>2022-01-19T12:09:36Z</time>
      </trkpt>
      <trkpt lat="44.87186" lon="5.52597">
        <ele>2269.3</ele>
        <time>2022-01-19T12:09:37Z</time>
      </trkpt>
      <trkpt lat="44.87187" lon="5.52597">
        <ele>2269.2</ele>
        <time>2022-01-19T12:09:38Z</time>
      </trkpt>
      <trkpt lat="44.87188" lon="5.52597">
        <ele>2269</ele>
        <time>2022-01-19T12:09:39Z</time>
      </trkpt>
      <trkpt lat="44.87188" lon="5.52597">
        <ele>2268.9</ele>
        <time>2022-01-19T12:09:40Z</time>
      </trkpt>
      <trkpt lat="44.87189" lon="5.52597">
        <ele>2268.6</ele>
        <time>2022-01-19T12:09:41Z</time>
      </trkpt>
      <trkpt lat="44.8719" lon="5.52597">
        <ele>2268.5</ele>
        <time>2022-01-19T12:09:42Z</time>
      </trkpt>
      <trkpt lat="44.87191" lon="5.52597">
        <ele>2268.3</ele>
        <time>2022-01-19T12:09:43Z</time>
      </trkpt>
      <trkpt lat="44.87191" lon="5.52597">
        <ele>2268.3</ele>
        <time>2022-01-19T12:09:44Z</time>
      </trkpt>
      <trkpt lat="44.87191" lon="5.52597">
        <ele>2268.2</ele>
        <time>2022-01-19T12:09:45Z</time>
      </trkpt>
      <trkpt lat="44.87191" lon="5.52596">
        <ele>2268.2</ele>
        <time>2022-01-19T12:09:46Z</time>
      </trkpt>
      <trkpt lat="44.87191" lon="5.52596">
        <ele>2268.2</ele>
        <time>2022-01-19T12:09:47Z</time>
      </trkpt>
      <trkpt lat="44.87191" lon="5.52596">
        <ele>2268.2</ele>
        <time>2022-01-19T12:09:48Z</time>
      </trkpt>
      <trkpt lat="44.87191" lon="5.52596">
        <ele>2268.2</ele>
        <time>2022-01-19T12:09:49Z</time>
      </trkpt>
      <trkpt lat="44.87191" lon="5.52596">
        <ele>2268.2</ele>
        <time>2022-01-19T12:09:50Z</time>
      </trkpt>
      <trkpt lat="44.87191" lon="5.52596">
        <ele>2268.2</ele>
        <time>2022-01-19T12:09:51Z</time>
      </trkpt>
      <trkpt lat="44.87191" lon="5.52596">
        <ele>2268.2</ele>
        <time>2022-01-19T12:09:52Z</time>
      </trkpt>
      <trkpt lat="44.87191" lon="5.52596">
        <ele>2268.2</ele>
        <time>2022-01-19T12:09:53Z</time>
      </trkpt>
      <trkpt lat="44.87191" lon="5.52596">
        <ele>2268.2</ele>
        <time>2022-01-19T12:09:54Z</time>
      </trkpt>
      <trkpt lat="44.87191" lon="5.52596">
        <ele>2268.2</ele>
        <time>2022-01-19T12:09:55Z</time>
      </trkpt>
      <trkpt lat="44.87191" lon="5.52596">
        <ele>2268.2</ele>
        <time>2022-01-19T12:09:56Z</time>
      </trkpt>
      <trkpt lat="44.87191" lon="5.52596">
        <ele>2268.2</ele>
        <time>2022-01-19T12:09:57Z</time>
      </trkpt>
      <trkpt lat="44.87191" lon="5.52596">
        <ele>2268.2</ele>
        <time>2022-01-19T12:09:58Z</time>
      </trkpt>
      <trkpt lat="44.87191" lon="5.52596">
        <ele>2268.2</ele>
        <time>2022-01-19T12:09:59Z</time>
      </trkpt>
      <trkpt lat="44.87191" lon="5.52596">
        <ele>2268.2</ele>
        <time>2022-01-19T12:10:00Z</time>
      </trkpt>
      <trkpt lat="44.87191" lon="5.52596">
        <ele>2268.2</ele>
        <time>2022-01-19T12:10:01Z</time>
      </trkpt>
      <trkpt lat="44.87191" lon="5.52596">
        <ele>2268.2</ele>
        <time>2022-01-19T12:10:02Z</time>
      </trkpt>
      <trkpt lat="44.87191" lon="5.52596">
        <ele>2268.2</ele>
        <time>2022-01-19T12:10:03Z</time>
      </trkpt>
      <trkpt lat="44.87191" lon="5.52596">
        <ele>2268.2</ele>
        <time>2022-01-19T12:10:04Z</time>
      </trkpt>
      <trkpt lat="44.87191" lon="5.52596">
        <ele>2268.2</ele>
        <time>2022-01-19T12:10:05Z</time>
      </trkpt>
      <trkpt lat="44.87191" lon="5.52596">
        <ele>2268.2</ele>
        <time>2022-01-19T12:10:06Z</time>
      </trkpt>
      <trkpt lat="44.87191" lon="5.52596">
        <ele>2268.2</ele>
        <time>2022-01-19T12:10:07Z</time>
      </trkpt>
      <trkpt lat="44.87191" lon="5.52596">
        <ele>2268.2</ele>
        <time>2022-01-19T12:10:08Z</time>
      </trkpt>
      <trkpt lat="44.87191" lon="5.52596">
        <ele>2268.2</ele>
        <time>2022-01-19T12:10:09Z</time>
      </trkpt>
      <trkpt lat="44.87191" lon="5.52596">
        <ele>2268.2</ele>
        <time>2022-01-19T12:10:10Z</time>
      </trkpt>
      <trkpt lat="44.87191" lon="5.52596">
        <ele>2268.2</ele>
        <time>2022-01-19T12:10:11Z</time>
      </trkpt>
      <trkpt lat="44.87191" lon="5.52596">
        <ele>2268.2</ele>
        <time>2022-01-19T12:10:12Z</time>
      </trkpt>
      <trkpt lat="44.87191" lon="5.52596">
        <ele>2268.2</ele>
        <time>2022-01-19T12:10:13Z</time>
      </trkpt>
      <trkpt lat="44.87191" lon="5.52596">
        <ele>2268.2</ele>
        <time>2022-01-19T12:10:14Z</time>
      </trkpt>
      <trkpt lat="44.87191" lon="5.52596">
        <ele>2268.2</ele>
        <time>2022-01-19T12:10:15Z</time>
      </trkpt>
      <trkpt lat="44.87191" lon="5.52596">
        <ele>2268.2</ele>
        <time>2022-01-19T12:10:16Z</time>
      </trkpt>
      <trkpt lat="44.87191" lon="5.52596">
        <ele>2268.2</ele>
        <time>2022-01-19T12:10:17Z</time>
      </trkpt>
      <trkpt lat="44.87191" lon="5.52596">
        <ele>2268.2</ele>
        <time>2022-01-19T12:10:18Z</time>
      </trkpt>
      <trkpt lat="44.87195" lon="5.52597">
        <ele>2267.3</ele>
        <time>2022-01-19T12:10:19Z</time>
      </trkpt>
      <trkpt lat="44.87196" lon="5.52596">
        <ele>2267</ele>
        <time>2022-01-19T12:10:20Z</time>
      </trkpt>
      <trkpt lat="44.87197" lon="5.52596">
        <ele>2266.7</ele>
        <time>2022-01-19T12:10:21Z</time>
      </trkpt>
      <trkpt lat="44.87198" lon="5.52597">
        <ele>2266.6</ele>
        <time>2022-01-19T12:10:22Z</time>
      </trkpt>
      <trkpt lat="44.87199" lon="5.52596">
        <ele>2266.3</ele>
        <time>2022-01-19T12:10:23Z</time>
      </trkpt>
      <trkpt lat="44.872" lon="5.52596">
        <ele>2266.1</ele>
        <time>2022-01-19T12:10:24Z</time>
      </trkpt>
      <trkpt lat="44.87201" lon="5.52597">
        <ele>2265.9</ele>
        <time>2022-01-19T12:10:25Z</time>
      </trkpt>
      <trkpt lat="44.87201" lon="5.52598">
        <ele>2265.6</ele>
        <time>2022-01-19T12:10:26Z</time>
      </trkpt>
      <trkpt lat="44.87201" lon="5.52599">
        <ele>2265.5</ele>
        <time>2022-01-19T12:10:27Z</time>
      </trkpt>
      <trkpt lat="44.87202" lon="5.52599">
        <ele>2265.4</ele>
        <time>2022-01-19T12:10:28Z</time>
      </trkpt>
      <trkpt lat="44.87202" lon="5.52598">
        <ele>2265.3</ele>
        <time>2022-01-19T12:10:29Z</time>
      </trkpt>
      <trkpt lat="44.87203" lon="5.52598">
        <ele>2265.1</ele>
        <time>2022-01-19T12:10:30Z</time>
      </trkpt>
      <trkpt lat="44.87204" lon="5.52597">
        <ele>2264.8</ele>
        <time>2022-01-19T12:10:31Z</time>
      </trkpt>
      <trkpt lat="44.87204" lon="5.52596">
        <ele>2264.6</ele>
        <time>2022-01-19T12:10:32Z</time>
      </trkpt>
      <trkpt lat="44.87205" lon="5.52596">
        <ele>2264.4</ele>
        <time>2022-01-19T12:10:33Z</time>
      </trkpt>
      <trkpt lat="44.87206" lon="5.52595">
        <ele>2264.2</ele>
        <time>2022-01-19T12:10:34Z</time>
      </trkpt>
      <trkpt lat="44.87207" lon="5.52594">
        <ele>2263.9</ele>
        <time>2022-01-19T12:10:35Z</time>
      </trkpt>
      <trkpt lat="44.87207" lon="5.52594">
        <ele>2263.7</ele>
        <time>2022-01-19T12:10:36Z</time>
      </trkpt>
      <trkpt lat="44.87208" lon="5.52594">
        <ele>2263.5</ele>
        <time>2022-01-19T12:10:37Z</time>
      </trkpt>
      <trkpt lat="44.87209" lon="5.52594">
        <ele>2263.3</ele>
        <time>2022-01-19T12:10:38Z</time>
      </trkpt>
      <trkpt lat="44.8721" lon="5.52594">
        <ele>2263.1</ele>
        <time>2022-01-19T12:10:39Z</time>
      </trkpt>
      <trkpt lat="44.87211" lon="5.52594">
        <ele>2262.9</ele>
        <time>2022-01-19T12:10:40Z</time>
      </trkpt>
      <trkpt lat="44.87212" lon="5.52594">
        <ele>2262.6</ele>
        <time>2022-01-19T12:10:41Z</time>
      </trkpt>
      <trkpt lat="44.87213" lon="5.52594">
        <ele>2262.4</ele>
        <time>2022-01-19T12:10:42Z</time>
      </trkpt>
      <trkpt lat="44.87214" lon="5.52594">
        <ele>2262.1</ele>
        <time>2022-01-19T12:10:43Z</time>
      </trkpt>
      <trkpt lat="44.87215" lon="5.52594">
        <ele>2261.9</ele>
        <time>2022-01-19T12:10:44Z</time>
      </trkpt>
      <trkpt lat="44.87215" lon="5.52593">
        <ele>2261.7</ele>
        <time>2022-01-19T12:10:45Z</time>
      </trkpt>
      <trkpt lat="44.87217" lon="5.52593">
        <ele>2261.4</ele>
        <time>2022-01-19T12:10:46Z</time>
      </trkpt>
      <trkpt lat="44.87218" lon="5.52593">
        <ele>2261</ele>
        <time>2022-01-19T12:10:47Z</time>
      </trkpt>
      <trkpt lat="44.87219" lon="5.52593">
        <ele>2260.8</ele>
        <time>2022-01-19T12:10:48Z</time>
      </trkpt>
      <trkpt lat="44.8722" lon="5.52593">
        <ele>2260.5</ele>
        <time>2022-01-19T12:10:49Z</time>
      </trkpt>
      <trkpt lat="44.87221" lon="5.52592">
        <ele>2260.3</ele>
        <time>2022-01-19T12:10:50Z</time>
      </trkpt>
      <trkpt lat="44.87222" lon="5.52592">
        <ele>2260.1</ele>
        <time>2022-01-19T12:10:51Z</time>
      </trkpt>
      <trkpt lat="44.87223" lon="5.52591">
        <ele>2259.8</ele>
        <time>2022-01-19T12:10:52Z</time>
      </trkpt>
      <trkpt lat="44.87223" lon="5.5259">
        <ele>2259.7</ele>
        <time>2022-01-19T12:10:53Z</time>
      </trkpt>
      <trkpt lat="44.87224" lon="5.52589">
        <ele>2259.4</ele>
        <time>2022-01-19T12:10:54Z</time>
      </trkpt>
      <trkpt lat="44.87224" lon="5.52589">
        <ele>2259.3</ele>
        <time>2022-01-19T12:10:55Z</time>
      </trkpt>
      <trkpt lat="44.87225" lon="5.52589">
        <ele>2259.1</ele>
        <time>2022-01-19T12:10:56Z</time>
      </trkpt>
      <trkpt lat="44.87226" lon="5.52589">
        <ele>2258.9</ele>
        <time>2022-01-19T12:10:57Z</time>
      </trkpt>
      <trkpt lat="44.87227" lon="5.52588">
        <ele>2258.6</ele>
        <time>2022-01-19T12:10:58Z</time>
      </trkpt>
      <trkpt lat="44.87228" lon="5.52588">
        <ele>2258.4</ele>
        <time>2022-01-19T12:10:59Z</time>
      </trkpt>
      <trkpt lat="44.87229" lon="5.52588">
        <ele>2258.2</ele>
        <time>2022-01-19T12:11:00Z</time>
      </trkpt>
      <trkpt lat="44.8723" lon="5.52588">
        <ele>2258</ele>
        <time>2022-01-19T12:11:01Z</time>
      </trkpt>
      <trkpt lat="44.8723" lon="5.52588">
        <ele>2257.8</ele>
        <time>2022-01-19T12:11:02Z</time>
      </trkpt>
      <trkpt lat="44.87231" lon="5.52587">
        <ele>2257.6</ele>
        <time>2022-01-19T12:11:03Z</time>
      </trkpt>
      <trkpt lat="44.87232" lon="5.52587">
        <ele>2257.4</ele>
        <time>2022-01-19T12:11:04Z</time>
      </trkpt>
      <trkpt lat="44.87233" lon="5.52587">
        <ele>2257.2</ele>
        <time>2022-01-19T12:11:05Z</time>
      </trkpt>
      <trkpt lat="44.87233" lon="5.52586">
        <ele>2257</ele>
        <time>2022-01-19T12:11:06Z</time>
      </trkpt>
      <trkpt lat="44.87234" lon="5.52586">
        <ele>2256.7</ele>
        <time>2022-01-19T12:11:07Z</time>
      </trkpt>
      <trkpt lat="44.87235" lon="5.52586">
        <ele>2256.5</ele>
        <time>2022-01-19T12:11:08Z</time>
      </trkpt>
      <trkpt lat="44.87236" lon="5.52587">
        <ele>2256.4</ele>
        <time>2022-01-19T12:11:09Z</time>
      </trkpt>
      <trkpt lat="44.87236" lon="5.52587">
        <ele>2256.2</ele>
        <time>2022-01-19T12:11:10Z</time>
      </trkpt>
      <trkpt lat="44.87238" lon="5.52587">
        <ele>2255.9</ele>
        <time>2022-01-19T12:11:11Z</time>
      </trkpt>
      <trkpt lat="44.87239" lon="5.52587">
        <ele>2255.7</ele>
        <time>2022-01-19T12:11:12Z</time>
      </trkpt>
      <trkpt lat="44.87239" lon="5.52587">
        <ele>2255.5</ele>
        <time>2022-01-19T12:11:13Z</time>
      </trkpt>
      <trkpt lat="44.87241" lon="5.52587">
        <ele>2255.2</ele>
        <time>2022-01-19T12:11:14Z</time>
      </trkpt>
      <trkpt lat="44.87241" lon="5.52587">
        <ele>2255</ele>
        <time>2022-01-19T12:11:15Z</time>
      </trkpt>
      <trkpt lat="44.87242" lon="5.52587">
        <ele>2254.8</ele>
        <time>2022-01-19T12:11:16Z</time>
      </trkpt>
      <trkpt lat="44.87243" lon="5.52588">
        <ele>2254.6</ele>
        <time>2022-01-19T12:11:17Z</time>
      </trkpt>
      <trkpt lat="44.87244" lon="5.52587">
        <ele>2254.5</ele>
        <time>2022-01-19T12:11:18Z</time>
      </trkpt>
      <trkpt lat="44.87245" lon="5.52587">
        <ele>2254.2</ele>
        <time>2022-01-19T12:11:19Z</time>
      </trkpt>
      <trkpt lat="44.87245" lon="5.52587">
        <ele>2254.1</ele>
        <time>2022-01-19T12:11:20Z</time>
      </trkpt>
      <trkpt lat="44.87246" lon="5.52587">
        <ele>2253.9</ele>
        <time>2022-01-19T12:11:21Z</time>
      </trkpt>
      <trkpt lat="44.87247" lon="5.52587">
        <ele>2253.7</ele>
        <time>2022-01-19T12:11:22Z</time>
      </trkpt>
      <trkpt lat="44.87248" lon="5.52586">
        <ele>2253.5</ele>
        <time>2022-01-19T12:11:23Z</time>
      </trkpt>
      <trkpt lat="44.87249" lon="5.52586">
        <ele>2253.2</ele>
        <time>2022-01-19T12:11:24Z</time>
      </trkpt>
      <trkpt lat="44.8725" lon="5.52586">
        <ele>2253</ele>
        <time>2022-01-19T12:11:25Z</time>
      </trkpt>
      <trkpt lat="44.87251" lon="5.52585">
        <ele>2252.8</ele>
        <time>2022-01-19T12:11:26Z</time>
      </trkpt>
      <trkpt lat="44.87251" lon="5.52585">
        <ele>2252.6</ele>
        <time>2022-01-19T12:11:27Z</time>
      </trkpt>
      <trkpt lat="44.87252" lon="5.52585">
        <ele>2252.4</ele>
        <time>2022-01-19T12:11:28Z</time>
      </trkpt>
      <trkpt lat="44.87252" lon="5.52584">
        <ele>2252.3</ele>
        <time>2022-01-19T12:11:29Z</time>
      </trkpt>
      <trkpt lat="44.87253" lon="5.52583">
        <ele>2252.1</ele>
        <time>2022-01-19T12:11:30Z</time>
      </trkpt>
      <trkpt lat="44.87254" lon="5.52583">
        <ele>2252</ele>
        <time>2022-01-19T12:11:31Z</time>
      </trkpt>
      <trkpt lat="44.87254" lon="5.52583">
        <ele>2251.8</ele>
        <time>2022-01-19T12:11:32Z</time>
      </trkpt>
      <trkpt lat="44.87255" lon="5.52583">
        <ele>2251.6</ele>
        <time>2022-01-19T12:11:33Z</time>
      </trkpt>
      <trkpt lat="44.87255" lon="5.52583">
        <ele>2251.5</ele>
        <time>2022-01-19T12:11:34Z</time>
      </trkpt>
      <trkpt lat="44.87256" lon="5.52584">
        <ele>2251.3</ele>
        <time>2022-01-19T12:11:35Z</time>
      </trkpt>
      <trkpt lat="44.87257" lon="5.52584">
        <ele>2251.2</ele>
        <time>2022-01-19T12:11:36Z</time>
      </trkpt>
      <trkpt lat="44.87257" lon="5.52584">
        <ele>2251</ele>
        <time>2022-01-19T12:11:37Z</time>
      </trkpt>
      <trkpt lat="44.87258" lon="5.52585">
        <ele>2250.9</ele>
        <time>2022-01-19T12:11:38Z</time>
      </trkpt>
      <trkpt lat="44.87258" lon="5.52585">
        <ele>2250.7</ele>
        <time>2022-01-19T12:11:39Z</time>
      </trkpt>
      <trkpt lat="44.87259" lon="5.52585">
        <ele>2250.5</ele>
        <time>2022-01-19T12:11:40Z</time>
      </trkpt>
      <trkpt lat="44.8726" lon="5.52585">
        <ele>2250.4</ele>
        <time>2022-01-19T12:11:41Z</time>
      </trkpt>
      <trkpt lat="44.8726" lon="5.52585">
        <ele>2250.3</ele>
        <time>2022-01-19T12:11:42Z</time>
      </trkpt>
      <trkpt lat="44.87261" lon="5.52585">
        <ele>2250.1</ele>
        <time>2022-01-19T12:11:43Z</time>
      </trkpt>
      <trkpt lat="44.87262" lon="5.52584">
        <ele>2249.7</ele>
        <time>2022-01-19T12:11:44Z</time>
      </trkpt>
      <trkpt lat="44.87262" lon="5.52584">
        <ele>2249.6</ele>
        <time>2022-01-19T12:11:45Z</time>
      </trkpt>
      <trkpt lat="44.87263" lon="5.52583">
        <ele>2249.4</ele>
        <time>2022-01-19T12:11:46Z</time>
      </trkpt>
      <trkpt lat="44.87264" lon="5.52583">
        <ele>2249.1</ele>
        <time>2022-01-19T12:11:47Z</time>
      </trkpt>
      <trkpt lat="44.87265" lon="5.52583">
        <ele>2249</ele>
        <time>2022-01-19T12:11:48Z</time>
      </trkpt>
      <trkpt lat="44.87265" lon="5.52583">
        <ele>2248.9</ele>
        <time>2022-01-19T12:11:49Z</time>
      </trkpt>
      <trkpt lat="44.87266" lon="5.52583">
        <ele>2248.6</ele>
        <time>2022-01-19T12:11:50Z</time>
      </trkpt>
      <trkpt lat="44.87267" lon="5.52583">
        <ele>2248.5</ele>
        <time>2022-01-19T12:11:51Z</time>
      </trkpt>
      <trkpt lat="44.87268" lon="5.52582">
        <ele>2248.2</ele>
        <time>2022-01-19T12:11:52Z</time>
      </trkpt>
      <trkpt lat="44.87268" lon="5.52581">
        <ele>2248.1</ele>
        <time>2022-01-19T12:11:53Z</time>
      </trkpt>
      <trkpt lat="44.87269" lon="5.52581">
        <ele>2247.8</ele>
        <time>2022-01-19T12:11:54Z</time>
      </trkpt>
      <trkpt lat="44.87269" lon="5.5258">
        <ele>2247.7</ele>
        <time>2022-01-19T12:11:55Z</time>
      </trkpt>
      <trkpt lat="44.8727" lon="5.5258">
        <ele>2247.4</ele>
        <time>2022-01-19T12:11:56Z</time>
      </trkpt>
      <trkpt lat="44.8727" lon="5.52578">
        <ele>2247.2</ele>
        <time>2022-01-19T12:11:57Z</time>
      </trkpt>
      <trkpt lat="44.87271" lon="5.52577">
        <ele>2246.9</ele>
        <time>2022-01-19T12:11:58Z</time>
      </trkpt>
      <trkpt lat="44.87272" lon="5.52577">
        <ele>2246.8</ele>
        <time>2022-01-19T12:11:59Z</time>
      </trkpt>
      <trkpt lat="44.87272" lon="5.52576">
        <ele>2246.6</ele>
        <time>2022-01-19T12:12:00Z</time>
      </trkpt>
      <trkpt lat="44.87273" lon="5.52576">
        <ele>2246.4</ele>
        <time>2022-01-19T12:12:01Z</time>
      </trkpt>
      <trkpt lat="44.87273" lon="5.52576">
        <ele>2246.2</ele>
        <time>2022-01-19T12:12:02Z</time>
      </trkpt>
      <trkpt lat="44.87274" lon="5.52575">
        <ele>2246</ele>
        <time>2022-01-19T12:12:03Z</time>
      </trkpt>
      <trkpt lat="44.87275" lon="5.52575">
        <ele>2245.9</ele>
        <time>2022-01-19T12:12:04Z</time>
      </trkpt>
      <trkpt lat="44.87275" lon="5.52574">
        <ele>2245.6</ele>
        <time>2022-01-19T12:12:05Z</time>
      </trkpt>
      <trkpt lat="44.87276" lon="5.52574">
        <ele>2245.5</ele>
        <time>2022-01-19T12:12:06Z</time>
      </trkpt>
      <trkpt lat="44.87276" lon="5.52573">
        <ele>2245.3</ele>
        <time>2022-01-19T12:12:07Z</time>
      </trkpt>
      <trkpt lat="44.87277" lon="5.52572">
        <ele>2245</ele>
        <time>2022-01-19T12:12:08Z</time>
      </trkpt>
      <trkpt lat="44.87278" lon="5.52572">
        <ele>2244.8</ele>
        <time>2022-01-19T12:12:09Z</time>
      </trkpt>
      <trkpt lat="44.87279" lon="5.52572">
        <ele>2244.6</ele>
        <time>2022-01-19T12:12:10Z</time>
      </trkpt>
      <trkpt lat="44.8728" lon="5.52571">
        <ele>2244.4</ele>
        <time>2022-01-19T12:12:11Z</time>
      </trkpt>
      <trkpt lat="44.8728" lon="5.52571">
        <ele>2244.2</ele>
        <time>2022-01-19T12:12:12Z</time>
      </trkpt>
      <trkpt lat="44.87281" lon="5.52571">
        <ele>2243.9</ele>
        <time>2022-01-19T12:12:13Z</time>
      </trkpt>
      <trkpt lat="44.87282" lon="5.52571">
        <ele>2243.7</ele>
        <time>2022-01-19T12:12:14Z</time>
      </trkpt>
      <trkpt lat="44.87283" lon="5.52571">
        <ele>2243.5</ele>
        <time>2022-01-19T12:12:15Z</time>
      </trkpt>
      <trkpt lat="44.87283" lon="5.5257">
        <ele>2243.3</ele>
        <time>2022-01-19T12:12:16Z</time>
      </trkpt>
      <trkpt lat="44.87284" lon="5.5257">
        <ele>2243.1</ele>
        <time>2022-01-19T12:12:17Z</time>
      </trkpt>
      <trkpt lat="44.87284" lon="5.5257">
        <ele>2242.9</ele>
        <time>2022-01-19T12:12:18Z</time>
      </trkpt>
      <trkpt lat="44.87285" lon="5.52569">
        <ele>2242.7</ele>
        <time>2022-01-19T12:12:19Z</time>
      </trkpt>
      <trkpt lat="44.87286" lon="5.52569">
        <ele>2242.5</ele>
        <time>2022-01-19T12:12:20Z</time>
      </trkpt>
      <trkpt lat="44.87286" lon="5.52569">
        <ele>2242.5</ele>
        <time>2022-01-19T12:12:21Z</time>
      </trkpt>
      <trkpt lat="44.87287" lon="5.52569">
        <ele>2242.3</ele>
        <time>2022-01-19T12:12:22Z</time>
      </trkpt>
      <trkpt lat="44.87288" lon="5.52569">
        <ele>2242.1</ele>
        <time>2022-01-19T12:12:23Z</time>
      </trkpt>
      <trkpt lat="44.87288" lon="5.52569">
        <ele>2242</ele>
        <time>2022-01-19T12:12:24Z</time>
      </trkpt>
      <trkpt lat="44.87288" lon="5.52568">
        <ele>2241.8</ele>
        <time>2022-01-19T12:12:25Z</time>
      </trkpt>
      <trkpt lat="44.87289" lon="5.52568">
        <ele>2241.7</ele>
        <time>2022-01-19T12:12:26Z</time>
      </trkpt>
      <trkpt lat="44.87289" lon="5.52567">
        <ele>2241.6</ele>
        <time>2022-01-19T12:12:27Z</time>
      </trkpt>
      <trkpt lat="44.8729" lon="5.52567">
        <ele>2241.4</ele>
        <time>2022-01-19T12:12:28Z</time>
      </trkpt>
      <trkpt lat="44.8729" lon="5.52566">
        <ele>2241.2</ele>
        <time>2022-01-19T12:12:29Z</time>
      </trkpt>
      <trkpt lat="44.87291" lon="5.52566">
        <ele>2241.1</ele>
        <time>2022-01-19T12:12:30Z</time>
      </trkpt>
      <trkpt lat="44.87292" lon="5.52566">
        <ele>2240.8</ele>
        <time>2022-01-19T12:12:31Z</time>
      </trkpt>
      <trkpt lat="44.87292" lon="5.52566">
        <ele>2240.7</ele>
        <time>2022-01-19T12:12:32Z</time>
      </trkpt>
      <trkpt lat="44.87293" lon="5.52566">
        <ele>2240.6</ele>
        <time>2022-01-19T12:12:33Z</time>
      </trkpt>
      <trkpt lat="44.87293" lon="5.52566">
        <ele>2240.6</ele>
        <time>2022-01-19T12:12:34Z</time>
      </trkpt>
      <trkpt lat="44.87293" lon="5.52566">
        <ele>2240.5</ele>
        <time>2022-01-19T12:12:35Z</time>
      </trkpt>
      <trkpt lat="44.87293" lon="5.52565">
        <ele>2240.4</ele>
        <time>2022-01-19T12:12:36Z</time>
      </trkpt>
      <trkpt lat="44.87293" lon="5.52565">
        <ele>2240.4</ele>
        <time>2022-01-19T12:12:37Z</time>
      </trkpt>
      <trkpt lat="44.87293" lon="5.52565">
        <ele>2240.4</ele>
        <time>2022-01-19T12:12:38Z</time>
      </trkpt>
      <trkpt lat="44.87293" lon="5.52565">
        <ele>2240.4</ele>
        <time>2022-01-19T12:12:39Z</time>
      </trkpt>
      <trkpt lat="44.87293" lon="5.52563">
        <ele>2240</ele>
        <time>2022-01-19T12:12:40Z</time>
      </trkpt>
      <trkpt lat="44.87294" lon="5.52563">
        <ele>2239.9</ele>
        <time>2022-01-19T12:12:41Z</time>
      </trkpt>
      <trkpt lat="44.87294" lon="5.52563">
        <ele>2239.9</ele>
        <time>2022-01-19T12:12:42Z</time>
      </trkpt>
      <trkpt lat="44.87294" lon="5.52562">
        <ele>2239.8</ele>
        <time>2022-01-19T12:12:43Z</time>
      </trkpt>
      <trkpt lat="44.87294" lon="5.52562">
        <ele>2239.6</ele>
        <time>2022-01-19T12:12:44Z</time>
      </trkpt>
      <trkpt lat="44.87295" lon="5.52562">
        <ele>2239.4</ele>
        <time>2022-01-19T12:12:45Z</time>
      </trkpt>
      <trkpt lat="44.87296" lon="5.52561">
        <ele>2239.3</ele>
        <time>2022-01-19T12:12:46Z</time>
      </trkpt>
      <trkpt lat="44.87297" lon="5.52561">
        <ele>2239</ele>
        <time>2022-01-19T12:12:47Z</time>
      </trkpt>
      <trkpt lat="44.87297" lon="5.52561">
        <ele>2238.9</ele>
        <time>2022-01-19T12:12:48Z</time>
      </trkpt>
      <trkpt lat="44.87298" lon="5.5256">
        <ele>2238.7</ele>
        <time>2022-01-19T12:12:49Z</time>
      </trkpt>
      <trkpt lat="44.87299" lon="5.5256">
        <ele>2238.5</ele>
        <time>2022-01-19T12:12:50Z</time>
      </trkpt>
      <trkpt lat="44.87299" lon="5.5256">
        <ele>2238.3</ele>
        <time>2022-01-19T12:12:51Z</time>
      </trkpt>
      <trkpt lat="44.873" lon="5.52559">
        <ele>2238</ele>
        <time>2022-01-19T12:12:52Z</time>
      </trkpt>
      <trkpt lat="44.87301" lon="5.52558">
        <ele>2237.8</ele>
        <time>2022-01-19T12:12:53Z</time>
      </trkpt>
      <trkpt lat="44.87302" lon="5.52558">
        <ele>2237.6</ele>
        <time>2022-01-19T12:12:54Z</time>
      </trkpt>
      <trkpt lat="44.87303" lon="5.52558">
        <ele>2237.4</ele>
        <time>2022-01-19T12:12:55Z</time>
      </trkpt>
      <trkpt lat="44.87304" lon="5.52558">
        <ele>2237.2</ele>
        <time>2022-01-19T12:12:56Z</time>
      </trkpt>
      <trkpt lat="44.87305" lon="5.52558">
        <ele>2237.1</ele>
        <time>2022-01-19T12:12:57Z</time>
      </trkpt>
      <trkpt lat="44.87305" lon="5.52558">
        <ele>2236.9</ele>
        <time>2022-01-19T12:12:58Z</time>
      </trkpt>
      <trkpt lat="44.87305" lon="5.52558">
        <ele>2236.9</ele>
        <time>2022-01-19T12:12:59Z</time>
      </trkpt>
      <trkpt lat="44.87305" lon="5.52558">
        <ele>2236.9</ele>
        <time>2022-01-19T12:13:00Z</time>
      </trkpt>
      <trkpt lat="44.87305" lon="5.52558">
        <ele>2236.8</ele>
        <time>2022-01-19T12:13:01Z</time>
      </trkpt>
      <trkpt lat="44.87305" lon="5.52558">
        <ele>2236.8</ele>
        <time>2022-01-19T12:13:02Z</time>
      </trkpt>
      <trkpt lat="44.87305" lon="5.52558">
        <ele>2236.8</ele>
        <time>2022-01-19T12:13:03Z</time>
      </trkpt>
      <trkpt lat="44.87305" lon="5.52558">
        <ele>2236.8</ele>
        <time>2022-01-19T12:13:04Z</time>
      </trkpt>
      <trkpt lat="44.87305" lon="5.52558">
        <ele>2236.8</ele>
        <time>2022-01-19T12:13:05Z</time>
      </trkpt>
      <trkpt lat="44.87307" lon="5.52557">
        <ele>2236.5</ele>
        <time>2022-01-19T12:13:06Z</time>
      </trkpt>
      <trkpt lat="44.87308" lon="5.52556">
        <ele>2236.3</ele>
        <time>2022-01-19T12:13:07Z</time>
      </trkpt>
      <trkpt lat="44.87309" lon="5.52556">
        <ele>2236.1</ele>
        <time>2022-01-19T12:13:08Z</time>
      </trkpt>
      <trkpt lat="44.8731" lon="5.52557">
        <ele>2235.9</ele>
        <time>2022-01-19T12:13:09Z</time>
      </trkpt>
      <trkpt lat="44.87311" lon="5.52557">
        <ele>2235.7</ele>
        <time>2022-01-19T12:13:10Z</time>
      </trkpt>
      <trkpt lat="44.87311" lon="5.52558">
        <ele>2235.6</ele>
        <time>2022-01-19T12:13:11Z</time>
      </trkpt>
      <trkpt lat="44.87311" lon="5.52558">
        <ele>2235.6</ele>
        <time>2022-01-19T12:13:12Z</time>
      </trkpt>
      <trkpt lat="44.8731" lon="5.52558">
        <ele>2235.5</ele>
        <time>2022-01-19T12:13:13Z</time>
      </trkpt>
      <trkpt lat="44.8731" lon="5.52558">
        <ele>2235.5</ele>
        <time>2022-01-19T12:13:14Z</time>
      </trkpt>
      <trkpt lat="44.8731" lon="5.52558">
        <ele>2235.5</ele>
        <time>2022-01-19T12:13:15Z</time>
      </trkpt>
      <trkpt lat="44.8731" lon="5.52558">
        <ele>2235.5</ele>
        <time>2022-01-19T12:13:16Z</time>
      </trkpt>
      <trkpt lat="44.8731" lon="5.52558">
        <ele>2235.5</ele>
        <time>2022-01-19T12:13:17Z</time>
      </trkpt>
      <trkpt lat="44.8731" lon="5.52558">
        <ele>2235.5</ele>
        <time>2022-01-19T12:13:18Z</time>
      </trkpt>
      <trkpt lat="44.8731" lon="5.52558">
        <ele>2235.5</ele>
        <time>2022-01-19T12:13:19Z</time>
      </trkpt>
      <trkpt lat="44.8731" lon="5.52558">
        <ele>2235.5</ele>
        <time>2022-01-19T12:13:20Z</time>
      </trkpt>
      <trkpt lat="44.8731" lon="5.52558">
        <ele>2235.5</ele>
        <time>2022-01-19T12:13:21Z</time>
      </trkpt>
      <trkpt lat="44.8731" lon="5.52558">
        <ele>2235.5</ele>
        <time>2022-01-19T12:13:22Z</time>
      </trkpt>
      <trkpt lat="44.8731" lon="5.52558">
        <ele>2235.5</ele>
        <time>2022-01-19T12:13:23Z</time>
      </trkpt>
      <trkpt lat="44.8731" lon="5.52558">
        <ele>2235.5</ele>
        <time>2022-01-19T12:13:24Z</time>
      </trkpt>
      <trkpt lat="44.8731" lon="5.52558">
        <ele>2235.5</ele>
        <time>2022-01-19T12:13:25Z</time>
      </trkpt>
      <trkpt lat="44.8731" lon="5.52558">
        <ele>2235.5</ele>
        <time>2022-01-19T12:13:26Z</time>
      </trkpt>
      <trkpt lat="44.8731" lon="5.52558">
        <ele>2235.5</ele>
        <time>2022-01-19T12:13:27Z</time>
      </trkpt>
      <trkpt lat="44.8731" lon="5.52558">
        <ele>2235.5</ele>
        <time>2022-01-19T12:13:28Z</time>
      </trkpt>
      <trkpt lat="44.8731" lon="5.52558">
        <ele>2235.5</ele>
        <time>2022-01-19T12:13:29Z</time>
      </trkpt>
      <trkpt lat="44.8731" lon="5.52558">
        <ele>2235.5</ele>
        <time>2022-01-19T12:13:30Z</time>
      </trkpt>
      <trkpt lat="44.8731" lon="5.52558">
        <ele>2235.5</ele>
        <time>2022-01-19T12:13:31Z</time>
      </trkpt>
      <trkpt lat="44.8731" lon="5.52558">
        <ele>2235.5</ele>
        <time>2022-01-19T12:13:32Z</time>
      </trkpt>
      <trkpt lat="44.8731" lon="5.52558">
        <ele>2235.5</ele>
        <time>2022-01-19T12:13:33Z</time>
      </trkpt>
      <trkpt lat="44.8731" lon="5.52558">
        <ele>2235.5</ele>
        <time>2022-01-19T12:13:34Z</time>
      </trkpt>
      <trkpt lat="44.8731" lon="5.52558">
        <ele>2235.5</ele>
        <time>2022-01-19T12:13:35Z</time>
      </trkpt>
      <trkpt lat="44.8731" lon="5.52558">
        <ele>2235.5</ele>
        <time>2022-01-19T12:13:36Z</time>
      </trkpt>
      <trkpt lat="44.8731" lon="5.52558">
        <ele>2235.5</ele>
        <time>2022-01-19T12:13:37Z</time>
      </trkpt>
      <trkpt lat="44.8731" lon="5.52558">
        <ele>2235.5</ele>
        <time>2022-01-19T12:13:38Z</time>
      </trkpt>
      <trkpt lat="44.8731" lon="5.52558">
        <ele>2235.5</ele>
        <time>2022-01-19T12:13:39Z</time>
      </trkpt>
      <trkpt lat="44.8731" lon="5.52558">
        <ele>2235.5</ele>
        <time>2022-01-19T12:13:40Z</time>
      </trkpt>
      <trkpt lat="44.8731" lon="5.52558">
        <ele>2235.5</ele>
        <time>2022-01-19T12:13:41Z</time>
      </trkpt>
      <trkpt lat="44.8731" lon="5.52558">
        <ele>2235.5</ele>
        <time>2022-01-19T12:13:42Z</time>
      </trkpt>
      <trkpt lat="44.8731" lon="5.52558">
        <ele>2235.5</ele>
        <time>2022-01-19T12:13:43Z</time>
      </trkpt>
      <trkpt lat="44.8731" lon="5.52558">
        <ele>2235.5</ele>
        <time>2022-01-19T12:13:44Z</time>
      </trkpt>
      <trkpt lat="44.8731" lon="5.52558">
        <ele>2235.5</ele>
        <time>2022-01-19T12:13:45Z</time>
      </trkpt>
      <trkpt lat="44.8731" lon="5.52558">
        <ele>2235.5</ele>
        <time>2022-01-19T12:13:46Z</time>
      </trkpt>
      <trkpt lat="44.8731" lon="5.52558">
        <ele>2235.5</ele>
        <time>2022-01-19T12:13:47Z</time>
      </trkpt>
      <trkpt lat="44.8731" lon="5.52558">
        <ele>2235.5</ele>
        <time>2022-01-19T12:13:48Z</time>
      </trkpt>
      <trkpt lat="44.8731" lon="5.52558">
        <ele>2235.5</ele>
        <time>2022-01-19T12:13:49Z</time>
      </trkpt>
      <trkpt lat="44.8731" lon="5.52558">
        <ele>2235.5</ele>
        <time>2022-01-19T12:13:50Z</time>
      </trkpt>
      <trkpt lat="44.8731" lon="5.52558">
        <ele>2235.5</ele>
        <time>2022-01-19T12:13:51Z</time>
      </trkpt>
      <trkpt lat="44.8731" lon="5.52558">
        <ele>2235.5</ele>
        <time>2022-01-19T12:13:52Z</time>
      </trkpt>
      <trkpt lat="44.8731" lon="5.52558">
        <ele>2235.5</ele>
        <time>2022-01-19T12:13:53Z</time>
      </trkpt>
      <trkpt lat="44.8731" lon="5.52558">
        <ele>2235.5</ele>
        <time>2022-01-19T12:13:54Z</time>
      </trkpt>
      <trkpt lat="44.8731" lon="5.52558">
        <ele>2235.5</ele>
        <time>2022-01-19T12:13:55Z</time>
      </trkpt>
      <trkpt lat="44.8731" lon="5.52558">
        <ele>2235.5</ele>
        <time>2022-01-19T12:13:56Z</time>
      </trkpt>
      <trkpt lat="44.8731" lon="5.52558">
        <ele>2235.5</ele>
        <time>2022-01-19T12:13:57Z</time>
      </trkpt>
      <trkpt lat="44.8731" lon="5.52558">
        <ele>2235.5</ele>
        <time>2022-01-19T12:13:58Z</time>
      </trkpt>
      <trkpt lat="44.8731" lon="5.52558">
        <ele>2235.5</ele>
        <time>2022-01-19T12:13:59Z</time>
      </trkpt>
      <trkpt lat="44.8731" lon="5.52558">
        <ele>2235.5</ele>
        <time>2022-01-19T12:14:00Z</time>
      </trkpt>
      <trkpt lat="44.8731" lon="5.52558">
        <ele>2235.5</ele>
        <time>2022-01-19T12:14:01Z</time>
      </trkpt>
      <trkpt lat="44.8731" lon="5.52558">
        <ele>2235.5</ele>
        <time>2022-01-19T12:14:02Z</time>
      </trkpt>
      <trkpt lat="44.8731" lon="5.52558">
        <ele>2235.5</ele>
        <time>2022-01-19T12:14:03Z</time>
      </trkpt>
      <trkpt lat="44.8731" lon="5.52558">
        <ele>2235.5</ele>
        <time>2022-01-19T12:14:04Z</time>
      </trkpt>
      <trkpt lat="44.8731" lon="5.52558">
        <ele>2235.5</ele>
        <time>2022-01-19T12:14:05Z</time>
      </trkpt>
      <trkpt lat="44.8731" lon="5.52558">
        <ele>2235.5</ele>
        <time>2022-01-19T12:14:06Z</time>
      </trkpt>
      <trkpt lat="44.8731" lon="5.52558">
        <ele>2235.5</ele>
        <time>2022-01-19T12:14:07Z</time>
      </trkpt>
      <trkpt lat="44.8731" lon="5.52558">
        <ele>2235.5</ele>
        <time>2022-01-19T12:14:08Z</time>
      </trkpt>
      <trkpt lat="44.8731" lon="5.52558">
        <ele>2235.5</ele>
        <time>2022-01-19T12:14:09Z</time>
      </trkpt>
      <trkpt lat="44.8731" lon="5.52558">
        <ele>2235.5</ele>
        <time>2022-01-19T12:14:10Z</time>
      </trkpt>
      <trkpt lat="44.8731" lon="5.52558">
        <ele>2235.5</ele>
        <time>2022-01-19T12:14:11Z</time>
      </trkpt>
      <trkpt lat="44.8731" lon="5.52558">
        <ele>2235.5</ele>
        <time>2022-01-19T12:14:12Z</time>
      </trkpt>
      <trkpt lat="44.8731" lon="5.52558">
        <ele>2235.5</ele>
        <time>2022-01-19T12:14:13Z</time>
      </trkpt>
      <trkpt lat="44.8731" lon="5.52558">
        <ele>2235.5</ele>
        <time>2022-01-19T12:14:14Z</time>
      </trkpt>
      <trkpt lat="44.8731" lon="5.52558">
        <ele>2235.5</ele>
        <time>2022-01-19T12:14:15Z</time>
      </trkpt>
      <trkpt lat="44.8731" lon="5.52559">
        <ele>2235.4</ele>
        <time>2022-01-19T12:14:16Z</time>
      </trkpt>
      <trkpt lat="44.8731" lon="5.52559">
        <ele>2235.3</ele>
        <time>2022-01-19T12:14:17Z</time>
      </trkpt>
      <trkpt lat="44.8731" lon="5.52559">
        <ele>2235.3</ele>
        <time>2022-01-19T12:14:18Z</time>
      </trkpt>
      <trkpt lat="44.8731" lon="5.52559">
        <ele>2235.3</ele>
        <time>2022-01-19T12:14:19Z</time>
      </trkpt>
      <trkpt lat="44.8731" lon="5.52559">
        <ele>2235.3</ele>
        <time>2022-01-19T12:14:20Z</time>
      </trkpt>
      <trkpt lat="44.8731" lon="5.52559">
        <ele>2235.3</ele>
        <time>2022-01-19T12:14:21Z</time>
      </trkpt>
      <trkpt lat="44.8731" lon="5.52559">
        <ele>2235.3</ele>
        <time>2022-01-19T12:14:22Z</time>
      </trkpt>
      <trkpt lat="44.8731" lon="5.52559">
        <ele>2235.3</ele>
        <time>2022-01-19T12:14:23Z</time>
      </trkpt>
      <trkpt lat="44.8731" lon="5.52559">
        <ele>2235.3</ele>
        <time>2022-01-19T12:14:24Z</time>
      </trkpt>
      <trkpt lat="44.8731" lon="5.52559">
        <ele>2235.3</ele>
        <time>2022-01-19T12:14:25Z</time>
      </trkpt>
      <trkpt lat="44.8731" lon="5.52559">
        <ele>2235.3</ele>
        <time>2022-01-19T12:14:26Z</time>
      </trkpt>
      <trkpt lat="44.8731" lon="5.52559">
        <ele>2235.3</ele>
        <time>2022-01-19T12:14:27Z</time>
      </trkpt>
      <trkpt lat="44.8731" lon="5.52559">
        <ele>2235.3</ele>
        <time>2022-01-19T12:14:28Z</time>
      </trkpt>
      <trkpt lat="44.8731" lon="5.52559">
        <ele>2235.3</ele>
        <time>2022-01-19T12:14:29Z</time>
      </trkpt>
      <trkpt lat="44.8731" lon="5.52559">
        <ele>2235.3</ele>
        <time>2022-01-19T12:14:30Z</time>
      </trkpt>
      <trkpt lat="44.87311" lon="5.52556">
        <ele>2234.8</ele>
        <time>2022-01-19T12:14:31Z</time>
      </trkpt>
      <trkpt lat="44.87312" lon="5.52555">
        <ele>2234.6</ele>
        <time>2022-01-19T12:14:32Z</time>
      </trkpt>
      <trkpt lat="44.87312" lon="5.52554">
        <ele>2234.4</ele>
        <time>2022-01-19T12:14:33Z</time>
      </trkpt>
      <trkpt lat="44.87313" lon="5.52553">
        <ele>2234.3</ele>
        <time>2022-01-19T12:14:34Z</time>
      </trkpt>
      <trkpt lat="44.87313" lon="5.52553">
        <ele>2234.1</ele>
        <time>2022-01-19T12:14:35Z</time>
      </trkpt>
      <trkpt lat="44.87314" lon="5.52553">
        <ele>2234.1</ele>
        <time>2022-01-19T12:14:36Z</time>
      </trkpt>
      <trkpt lat="44.87315" lon="5.52553">
        <ele>2233.9</ele>
        <time>2022-01-19T12:14:37Z</time>
      </trkpt>
      <trkpt lat="44.87315" lon="5.52552">
        <ele>2233.7</ele>
        <time>2022-01-19T12:14:38Z</time>
      </trkpt>
      <trkpt lat="44.87316" lon="5.52552">
        <ele>2233.5</ele>
        <time>2022-01-19T12:14:39Z</time>
      </trkpt>
      <trkpt lat="44.87317" lon="5.52552">
        <ele>2233.4</ele>
        <time>2022-01-19T12:14:40Z</time>
      </trkpt>
      <trkpt lat="44.87318" lon="5.52552">
        <ele>2233.2</ele>
        <time>2022-01-19T12:14:41Z</time>
      </trkpt>
      <trkpt lat="44.87319" lon="5.52551">
        <ele>2233</ele>
        <time>2022-01-19T12:14:42Z</time>
      </trkpt>
      <trkpt lat="44.8732" lon="5.52551">
        <ele>2232.8</ele>
        <time>2022-01-19T12:14:43Z</time>
      </trkpt>
      <trkpt lat="44.87321" lon="5.52551">
        <ele>2232.7</ele>
        <time>2022-01-19T12:14:44Z</time>
      </trkpt>
      <trkpt lat="44.87321" lon="5.52551">
        <ele>2232.6</ele>
        <time>2022-01-19T12:14:45Z</time>
      </trkpt>
      <trkpt lat="44.87322" lon="5.5255">
        <ele>2232.4</ele>
        <time>2022-01-19T12:14:46Z</time>
      </trkpt>
      <trkpt lat="44.87323" lon="5.5255">
        <ele>2232.3</ele>
        <time>2022-01-19T12:14:47Z</time>
      </trkpt>
      <trkpt lat="44.87324" lon="5.52549">
        <ele>2232.1</ele>
        <time>2022-01-19T12:14:48Z</time>
      </trkpt>
      <trkpt lat="44.87325" lon="5.52549">
        <ele>2232</ele>
        <time>2022-01-19T12:14:49Z</time>
      </trkpt>
      <trkpt lat="44.87325" lon="5.52549">
        <ele>2231.8</ele>
        <time>2022-01-19T12:14:50Z</time>
      </trkpt>
      <trkpt lat="44.87326" lon="5.52548">
        <ele>2231.7</ele>
        <time>2022-01-19T12:14:51Z</time>
      </trkpt>
      <trkpt lat="44.87327" lon="5.52548">
        <ele>2231.5</ele>
        <time>2022-01-19T12:14:52Z</time>
      </trkpt>
      <trkpt lat="44.87328" lon="5.52547">
        <ele>2231.4</ele>
        <time>2022-01-19T12:14:53Z</time>
      </trkpt>
      <trkpt lat="44.87328" lon="5.52546">
        <ele>2231.2</ele>
        <time>2022-01-19T12:14:54Z</time>
      </trkpt>
      <trkpt lat="44.87329" lon="5.52546">
        <ele>2231</ele>
        <time>2022-01-19T12:14:55Z</time>
      </trkpt>
      <trkpt lat="44.8733" lon="5.52545">
        <ele>2230.9</ele>
        <time>2022-01-19T12:14:56Z</time>
      </trkpt>
      <trkpt lat="44.87331" lon="5.52545">
        <ele>2230.8</ele>
        <time>2022-01-19T12:14:57Z</time>
      </trkpt>
      <trkpt lat="44.87332" lon="5.52544">
        <ele>2230.6</ele>
        <time>2022-01-19T12:14:58Z</time>
      </trkpt>
      <trkpt lat="44.87333" lon="5.52544">
        <ele>2230.4</ele>
        <time>2022-01-19T12:14:59Z</time>
      </trkpt>
      <trkpt lat="44.87334" lon="5.52543">
        <ele>2230.3</ele>
        <time>2022-01-19T12:15:00Z</time>
      </trkpt>
      <trkpt lat="44.87334" lon="5.52543">
        <ele>2230.1</ele>
        <time>2022-01-19T12:15:01Z</time>
      </trkpt>
      <trkpt lat="44.87335" lon="5.52542">
        <ele>2230</ele>
        <time>2022-01-19T12:15:02Z</time>
      </trkpt>
      <trkpt lat="44.87336" lon="5.52542">
        <ele>2229.8</ele>
        <time>2022-01-19T12:15:03Z</time>
      </trkpt>
      <trkpt lat="44.87337" lon="5.52542">
        <ele>2229.6</ele>
        <time>2022-01-19T12:15:04Z</time>
      </trkpt>
      <trkpt lat="44.87338" lon="5.52542">
        <ele>2229.5</ele>
        <time>2022-01-19T12:15:05Z</time>
      </trkpt>
      <trkpt lat="44.87339" lon="5.52542">
        <ele>2229.4</ele>
        <time>2022-01-19T12:15:06Z</time>
      </trkpt>
      <trkpt lat="44.8734" lon="5.52541">
        <ele>2229.3</ele>
        <time>2022-01-19T12:15:07Z</time>
      </trkpt>
      <trkpt lat="44.8734" lon="5.52541">
        <ele>2229.2</ele>
        <time>2022-01-19T12:15:08Z</time>
      </trkpt>
      <trkpt lat="44.87341" lon="5.5254">
        <ele>2229</ele>
        <time>2022-01-19T12:15:09Z</time>
      </trkpt>
      <trkpt lat="44.87342" lon="5.52539">
        <ele>2228.9</ele>
        <time>2022-01-19T12:15:10Z</time>
      </trkpt>
      <trkpt lat="44.87343" lon="5.52539">
        <ele>2228.7</ele>
        <time>2022-01-19T12:15:11Z</time>
      </trkpt>
      <trkpt lat="44.87344" lon="5.52538">
        <ele>2228.6</ele>
        <time>2022-01-19T12:15:12Z</time>
      </trkpt>
      <trkpt lat="44.87344" lon="5.52538">
        <ele>2228.4</ele>
        <time>2022-01-19T12:15:13Z</time>
      </trkpt>
      <trkpt lat="44.87345" lon="5.52537">
        <ele>2228.3</ele>
        <time>2022-01-19T12:15:14Z</time>
      </trkpt>
      <trkpt lat="44.87346" lon="5.52537">
        <ele>2228.1</ele>
        <time>2022-01-19T12:15:15Z</time>
      </trkpt>
      <trkpt lat="44.87347" lon="5.52537">
        <ele>2228</ele>
        <time>2022-01-19T12:15:16Z</time>
      </trkpt>
      <trkpt lat="44.87348" lon="5.52537">
        <ele>2227.9</ele>
        <time>2022-01-19T12:15:17Z</time>
      </trkpt>
      <trkpt lat="44.87349" lon="5.52537">
        <ele>2227.8</ele>
        <time>2022-01-19T12:15:18Z</time>
      </trkpt>
      <trkpt lat="44.87349" lon="5.52536">
        <ele>2227.7</ele>
        <time>2022-01-19T12:15:19Z</time>
      </trkpt>
      <trkpt lat="44.87349" lon="5.52536">
        <ele>2227.6</ele>
        <time>2022-01-19T12:15:20Z</time>
      </trkpt>
      <trkpt lat="44.8735" lon="5.52536">
        <ele>2227.5</ele>
        <time>2022-01-19T12:15:21Z</time>
      </trkpt>
      <trkpt lat="44.8735" lon="5.52536">
        <ele>2227.5</ele>
        <time>2022-01-19T12:15:22Z</time>
      </trkpt>
      <trkpt lat="44.8735" lon="5.52536">
        <ele>2227.5</ele>
        <time>2022-01-19T12:15:23Z</time>
      </trkpt>
      <trkpt lat="44.8735" lon="5.52536">
        <ele>2227.5</ele>
        <time>2022-01-19T12:15:24Z</time>
      </trkpt>
      <trkpt lat="44.8735" lon="5.52536">
        <ele>2227.5</ele>
        <time>2022-01-19T12:15:25Z</time>
      </trkpt>
      <trkpt lat="44.8735" lon="5.52536">
        <ele>2227.5</ele>
        <time>2022-01-19T12:15:26Z</time>
      </trkpt>
      <trkpt lat="44.8735" lon="5.52536">
        <ele>2227.5</ele>
        <time>2022-01-19T12:15:27Z</time>
      </trkpt>
      <trkpt lat="44.8735" lon="5.52536">
        <ele>2227.5</ele>
        <time>2022-01-19T12:15:28Z</time>
      </trkpt>
      <trkpt lat="44.8735" lon="5.52536">
        <ele>2227.5</ele>
        <time>2022-01-19T12:15:29Z</time>
      </trkpt>
      <trkpt lat="44.8735" lon="5.52536">
        <ele>2227.5</ele>
        <time>2022-01-19T12:15:30Z</time>
      </trkpt>
      <trkpt lat="44.8735" lon="5.52536">
        <ele>2227.5</ele>
        <time>2022-01-19T12:15:31Z</time>
      </trkpt>
      <trkpt lat="44.8735" lon="5.52536">
        <ele>2227.5</ele>
        <time>2022-01-19T12:15:32Z</time>
      </trkpt>
      <trkpt lat="44.8735" lon="5.52536">
        <ele>2227.5</ele>
        <time>2022-01-19T12:15:33Z</time>
      </trkpt>
      <trkpt lat="44.8735" lon="5.52536">
        <ele>2227.5</ele>
        <time>2022-01-19T12:15:34Z</time>
      </trkpt>
      <trkpt lat="44.8735" lon="5.52536">
        <ele>2227.5</ele>
        <time>2022-01-19T12:15:35Z</time>
      </trkpt>
      <trkpt lat="44.8735" lon="5.52536">
        <ele>2227.5</ele>
        <time>2022-01-19T12:15:36Z</time>
      </trkpt>
      <trkpt lat="44.8735" lon="5.52536">
        <ele>2227.5</ele>
        <time>2022-01-19T12:15:37Z</time>
      </trkpt>
      <trkpt lat="44.8735" lon="5.52536">
        <ele>2227.5</ele>
        <time>2022-01-19T12:15:38Z</time>
      </trkpt>
      <trkpt lat="44.8735" lon="5.52536">
        <ele>2227.5</ele>
        <time>2022-01-19T12:15:39Z</time>
      </trkpt>
      <trkpt lat="44.8735" lon="5.52536">
        <ele>2227.5</ele>
        <time>2022-01-19T12:15:40Z</time>
      </trkpt>
      <trkpt lat="44.8735" lon="5.52536">
        <ele>2227.5</ele>
        <time>2022-01-19T12:15:41Z</time>
      </trkpt>
      <trkpt lat="44.8735" lon="5.52536">
        <ele>2227.5</ele>
        <time>2022-01-19T12:15:42Z</time>
      </trkpt>
      <trkpt lat="44.8735" lon="5.52536">
        <ele>2227.5</ele>
        <time>2022-01-19T12:15:43Z</time>
      </trkpt>
      <trkpt lat="44.8735" lon="5.52536">
        <ele>2227.5</ele>
        <time>2022-01-19T12:15:44Z</time>
      </trkpt>
      <trkpt lat="44.8735" lon="5.52536">
        <ele>2227.5</ele>
        <time>2022-01-19T12:15:45Z</time>
      </trkpt>
      <trkpt lat="44.8735" lon="5.52536">
        <ele>2227.5</ele>
        <time>2022-01-19T12:15:46Z</time>
      </trkpt>
      <trkpt lat="44.8735" lon="5.52536">
        <ele>2227.5</ele>
        <time>2022-01-19T12:15:47Z</time>
      </trkpt>
      <trkpt lat="44.8735" lon="5.52536">
        <ele>2227.5</ele>
        <time>2022-01-19T12:15:48Z</time>
      </trkpt>
      <trkpt lat="44.8735" lon="5.52536">
        <ele>2227.5</ele>
        <time>2022-01-19T12:15:49Z</time>
      </trkpt>
      <trkpt lat="44.8735" lon="5.52536">
        <ele>2227.5</ele>
        <time>2022-01-19T12:15:50Z</time>
      </trkpt>
      <trkpt lat="44.8735" lon="5.52536">
        <ele>2227.5</ele>
        <time>2022-01-19T12:15:51Z</time>
      </trkpt>
      <trkpt lat="44.8735" lon="5.52536">
        <ele>2227.5</ele>
        <time>2022-01-19T12:15:52Z</time>
      </trkpt>
      <trkpt lat="44.8735" lon="5.52536">
        <ele>2227.5</ele>
        <time>2022-01-19T12:15:53Z</time>
      </trkpt>
      <trkpt lat="44.8735" lon="5.52536">
        <ele>2227.5</ele>
        <time>2022-01-19T12:15:54Z</time>
      </trkpt>
      <trkpt lat="44.8735" lon="5.52536">
        <ele>2227.5</ele>
        <time>2022-01-19T12:15:55Z</time>
      </trkpt>
      <trkpt lat="44.8735" lon="5.52536">
        <ele>2227.5</ele>
        <time>2022-01-19T12:15:56Z</time>
      </trkpt>
      <trkpt lat="44.8735" lon="5.52536">
        <ele>2227.5</ele>
        <time>2022-01-19T12:15:57Z</time>
      </trkpt>
      <trkpt lat="44.8735" lon="5.52536">
        <ele>2227.5</ele>
        <time>2022-01-19T12:15:58Z</time>
      </trkpt>
      <trkpt lat="44.8735" lon="5.52536">
        <ele>2227.5</ele>
        <time>2022-01-19T12:15:59Z</time>
      </trkpt>
      <trkpt lat="44.8735" lon="5.52536">
        <ele>2227.5</ele>
        <time>2022-01-19T12:16:00Z</time>
      </trkpt>
      <trkpt lat="44.8735" lon="5.52536">
        <ele>2227.5</ele>
        <time>2022-01-19T12:16:01Z</time>
      </trkpt>
      <trkpt lat="44.8735" lon="5.52536">
        <ele>2227.5</ele>
        <time>2022-01-19T12:16:02Z</time>
      </trkpt>
      <trkpt lat="44.8735" lon="5.52536">
        <ele>2227.5</ele>
        <time>2022-01-19T12:16:03Z</time>
      </trkpt>
      <trkpt lat="44.8735" lon="5.52536">
        <ele>2227.5</ele>
        <time>2022-01-19T12:16:04Z</time>
      </trkpt>
      <trkpt lat="44.8735" lon="5.52536">
        <ele>2227.5</ele>
        <time>2022-01-19T12:16:05Z</time>
      </trkpt>
      <trkpt lat="44.8735" lon="5.52536">
        <ele>2227.5</ele>
        <time>2022-01-19T12:16:06Z</time>
      </trkpt>
      <trkpt lat="44.8735" lon="5.52536">
        <ele>2227.5</ele>
        <time>2022-01-19T12:16:07Z</time>
      </trkpt>
      <trkpt lat="44.8735" lon="5.52536">
        <ele>2227.5</ele>
        <time>2022-01-19T12:16:08Z</time>
      </trkpt>
      <trkpt lat="44.8735" lon="5.52536">
        <ele>2227.5</ele>
        <time>2022-01-19T12:16:09Z</time>
      </trkpt>
      <trkpt lat="44.8735" lon="5.52536">
        <ele>2227.5</ele>
        <time>2022-01-19T12:16:10Z</time>
      </trkpt>
      <trkpt lat="44.8735" lon="5.52536">
        <ele>2227.5</ele>
        <time>2022-01-19T12:16:11Z</time>
      </trkpt>
      <trkpt lat="44.8735" lon="5.52536">
        <ele>2227.5</ele>
        <time>2022-01-19T12:16:12Z</time>
      </trkpt>
      <trkpt lat="44.8735" lon="5.52536">
        <ele>2227.5</ele>
        <time>2022-01-19T12:16:13Z</time>
      </trkpt>
      <trkpt lat="44.8735" lon="5.52536">
        <ele>2227.5</ele>
        <time>2022-01-19T12:16:14Z</time>
      </trkpt>
      <trkpt lat="44.8735" lon="5.52536">
        <ele>2227.5</ele>
        <time>2022-01-19T12:16:15Z</time>
      </trkpt>
      <trkpt lat="44.8735" lon="5.52536">
        <ele>2227.5</ele>
        <time>2022-01-19T12:16:16Z</time>
      </trkpt>
      <trkpt lat="44.8735" lon="5.52536">
        <ele>2227.5</ele>
        <time>2022-01-19T12:16:17Z</time>
      </trkpt>
      <trkpt lat="44.8735" lon="5.52536">
        <ele>2227.5</ele>
        <time>2022-01-19T12:16:18Z</time>
      </trkpt>
      <trkpt lat="44.8735" lon="5.52536">
        <ele>2227.5</ele>
        <time>2022-01-19T12:16:19Z</time>
      </trkpt>
      <trkpt lat="44.8735" lon="5.52536">
        <ele>2227.5</ele>
        <time>2022-01-19T12:16:20Z</time>
      </trkpt>
      <trkpt lat="44.8735" lon="5.52536">
        <ele>2227.5</ele>
        <time>2022-01-19T12:16:21Z</time>
      </trkpt>
      <trkpt lat="44.8735" lon="5.52536">
        <ele>2227.5</ele>
        <time>2022-01-19T12:16:22Z</time>
      </trkpt>
      <trkpt lat="44.8735" lon="5.52536">
        <ele>2227.5</ele>
        <time>2022-01-19T12:16:23Z</time>
      </trkpt>
      <trkpt lat="44.8735" lon="5.52536">
        <ele>2227.5</ele>
        <time>2022-01-19T12:16:24Z</time>
      </trkpt>
      <trkpt lat="44.8735" lon="5.52536">
        <ele>2227.5</ele>
        <time>2022-01-19T12:16:25Z</time>
      </trkpt>
      <trkpt lat="44.8735" lon="5.52536">
        <ele>2227.5</ele>
        <time>2022-01-19T12:16:26Z</time>
      </trkpt>
      <trkpt lat="44.8735" lon="5.52536">
        <ele>2227.5</ele>
        <time>2022-01-19T12:16:27Z</time>
      </trkpt>
      <trkpt lat="44.8735" lon="5.52536">
        <ele>2227.5</ele>
        <time>2022-01-19T12:16:28Z</time>
      </trkpt>
      <trkpt lat="44.8735" lon="5.52536">
        <ele>2227.5</ele>
        <time>2022-01-19T12:16:29Z</time>
      </trkpt>
      <trkpt lat="44.8735" lon="5.52536">
        <ele>2227.5</ele>
        <time>2022-01-19T12:16:30Z</time>
      </trkpt>
      <trkpt lat="44.8735" lon="5.52536">
        <ele>2227.5</ele>
        <time>2022-01-19T12:16:31Z</time>
      </trkpt>
      <trkpt lat="44.8735" lon="5.52536">
        <ele>2227.5</ele>
        <time>2022-01-19T12:16:32Z</time>
      </trkpt>
      <trkpt lat="44.8735" lon="5.52536">
        <ele>2227.5</ele>
        <time>2022-01-19T12:16:33Z</time>
      </trkpt>
      <trkpt lat="44.8735" lon="5.52536">
        <ele>2227.5</ele>
        <time>2022-01-19T12:16:34Z</time>
      </trkpt>
      <trkpt lat="44.8735" lon="5.52536">
        <ele>2227.5</ele>
        <time>2022-01-19T12:16:35Z</time>
      </trkpt>
      <trkpt lat="44.8735" lon="5.52536">
        <ele>2227.5</ele>
        <time>2022-01-19T12:16:36Z</time>
      </trkpt>
      <trkpt lat="44.8735" lon="5.52536">
        <ele>2227.5</ele>
        <time>2022-01-19T12:16:37Z</time>
      </trkpt>
      <trkpt lat="44.8735" lon="5.52536">
        <ele>2227.5</ele>
        <time>2022-01-19T12:16:38Z</time>
      </trkpt>
      <trkpt lat="44.8735" lon="5.52536">
        <ele>2227.5</ele>
        <time>2022-01-19T12:16:39Z</time>
      </trkpt>
      <trkpt lat="44.8735" lon="5.52536">
        <ele>2227.5</ele>
        <time>2022-01-19T12:16:40Z</time>
      </trkpt>
      <trkpt lat="44.8735" lon="5.52536">
        <ele>2227.5</ele>
        <time>2022-01-19T12:16:41Z</time>
      </trkpt>
      <trkpt lat="44.8735" lon="5.52536">
        <ele>2227.5</ele>
        <time>2022-01-19T12:16:42Z</time>
      </trkpt>
      <trkpt lat="44.8735" lon="5.52536">
        <ele>2227.5</ele>
        <time>2022-01-19T12:16:43Z</time>
      </trkpt>
      <trkpt lat="44.8735" lon="5.52536">
        <ele>2227.5</ele>
        <time>2022-01-19T12:16:44Z</time>
      </trkpt>
      <trkpt lat="44.8735" lon="5.52536">
        <ele>2227.5</ele>
        <time>2022-01-19T12:16:45Z</time>
      </trkpt>
      <trkpt lat="44.8735" lon="5.52536">
        <ele>2227.5</ele>
        <time>2022-01-19T12:16:46Z</time>
      </trkpt>
      <trkpt lat="44.8735" lon="5.52536">
        <ele>2227.5</ele>
        <time>2022-01-19T12:16:47Z</time>
      </trkpt>
      <trkpt lat="44.8735" lon="5.52536">
        <ele>2227.5</ele>
        <time>2022-01-19T12:16:48Z</time>
      </trkpt>
      <trkpt lat="44.8735" lon="5.52536">
        <ele>2227.5</ele>
        <time>2022-01-19T12:16:49Z</time>
      </trkpt>
      <trkpt lat="44.8735" lon="5.52536">
        <ele>2227.5</ele>
        <time>2022-01-19T12:16:50Z</time>
      </trkpt>
      <trkpt lat="44.8735" lon="5.52536">
        <ele>2227.5</ele>
        <time>2022-01-19T12:16:51Z</time>
      </trkpt>
      <trkpt lat="44.8735" lon="5.52536">
        <ele>2227.5</ele>
        <time>2022-01-19T12:16:52Z</time>
      </trkpt>
      <trkpt lat="44.8735" lon="5.52536">
        <ele>2227.5</ele>
        <time>2022-01-19T12:16:53Z</time>
      </trkpt>
      <trkpt lat="44.8735" lon="5.52536">
        <ele>2227.5</ele>
        <time>2022-01-19T12:16:54Z</time>
      </trkpt>
      <trkpt lat="44.8735" lon="5.52536">
        <ele>2227.5</ele>
        <time>2022-01-19T12:16:55Z</time>
      </trkpt>
      <trkpt lat="44.8735" lon="5.52536">
        <ele>2227.5</ele>
        <time>2022-01-19T12:16:56Z</time>
      </trkpt>
      <trkpt lat="44.8735" lon="5.52536">
        <ele>2227.5</ele>
        <time>2022-01-19T12:16:57Z</time>
      </trkpt>
      <trkpt lat="44.8735" lon="5.52536">
        <ele>2227.5</ele>
        <time>2022-01-19T12:16:58Z</time>
      </trkpt>
      <trkpt lat="44.8735" lon="5.52536">
        <ele>2227.5</ele>
        <time>2022-01-19T12:16:59Z</time>
      </trkpt>
      <trkpt lat="44.8735" lon="5.52536">
        <ele>2227.5</ele>
        <time>2022-01-19T12:17:00Z</time>
      </trkpt>
      <trkpt lat="44.8735" lon="5.52536">
        <ele>2227.5</ele>
        <time>2022-01-19T12:17:01Z</time>
      </trkpt>
      <trkpt lat="44.8735" lon="5.52536">
        <ele>2227.5</ele>
        <time>2022-01-19T12:17:02Z</time>
      </trkpt>
      <trkpt lat="44.8735" lon="5.52536">
        <ele>2227.5</ele>
        <time>2022-01-19T12:17:03Z</time>
      </trkpt>
      <trkpt lat="44.8735" lon="5.52536">
        <ele>2227.5</ele>
        <time>2022-01-19T12:17:04Z</time>
      </trkpt>
      <trkpt lat="44.8735" lon="5.52536">
        <ele>2227.5</ele>
        <time>2022-01-19T12:17:05Z</time>
      </trkpt>
      <trkpt lat="44.8735" lon="5.52536">
        <ele>2227.5</ele>
        <time>2022-01-19T12:17:06Z</time>
      </trkpt>
      <trkpt lat="44.8735" lon="5.52536">
        <ele>2227.5</ele>
        <time>2022-01-19T12:17:07Z</time>
      </trkpt>
      <trkpt lat="44.8735" lon="5.52536">
        <ele>2227.5</ele>
        <time>2022-01-19T12:17:08Z</time>
      </trkpt>
      <trkpt lat="44.8735" lon="5.52536">
        <ele>2227.5</ele>
        <time>2022-01-19T12:17:09Z</time>
      </trkpt>
      <trkpt lat="44.8735" lon="5.52536">
        <ele>2227.5</ele>
        <time>2022-01-19T12:17:10Z</time>
      </trkpt>
      <trkpt lat="44.8735" lon="5.52536">
        <ele>2227.5</ele>
        <time>2022-01-19T12:17:11Z</time>
      </trkpt>
      <trkpt lat="44.8735" lon="5.52536">
        <ele>2227.5</ele>
        <time>2022-01-19T12:17:12Z</time>
      </trkpt>
      <trkpt lat="44.8735" lon="5.52536">
        <ele>2227.5</ele>
        <time>2022-01-19T12:17:13Z</time>
      </trkpt>
      <trkpt lat="44.8735" lon="5.52536">
        <ele>2227.5</ele>
        <time>2022-01-19T12:17:14Z</time>
      </trkpt>
      <trkpt lat="44.8735" lon="5.52536">
        <ele>2227.5</ele>
        <time>2022-01-19T12:17:15Z</time>
      </trkpt>
      <trkpt lat="44.8735" lon="5.52536">
        <ele>2227.5</ele>
        <time>2022-01-19T12:17:16Z</time>
      </trkpt>
      <trkpt lat="44.8735" lon="5.52536">
        <ele>2227.5</ele>
        <time>2022-01-19T12:17:17Z</time>
      </trkpt>
      <trkpt lat="44.8735" lon="5.52536">
        <ele>2227.5</ele>
        <time>2022-01-19T12:17:18Z</time>
      </trkpt>
      <trkpt lat="44.8735" lon="5.52536">
        <ele>2227.5</ele>
        <time>2022-01-19T12:17:19Z</time>
      </trkpt>
      <trkpt lat="44.8735" lon="5.52536">
        <ele>2227.5</ele>
        <time>2022-01-19T12:17:20Z</time>
      </trkpt>
      <trkpt lat="44.8735" lon="5.52536">
        <ele>2227.5</ele>
        <time>2022-01-19T12:17:21Z</time>
      </trkpt>
      <trkpt lat="44.8735" lon="5.52536">
        <ele>2227.5</ele>
        <time>2022-01-19T12:17:22Z</time>
      </trkpt>
      <trkpt lat="44.8735" lon="5.52536">
        <ele>2227.5</ele>
        <time>2022-01-19T12:17:23Z</time>
      </trkpt>
      <trkpt lat="44.8735" lon="5.52536">
        <ele>2227.5</ele>
        <time>2022-01-19T12:17:24Z</time>
      </trkpt>
      <trkpt lat="44.8735" lon="5.52536">
        <ele>2227.5</ele>
        <time>2022-01-19T12:17:25Z</time>
      </trkpt>
      <trkpt lat="44.8735" lon="5.52536">
        <ele>2227.5</ele>
        <time>2022-01-19T12:17:26Z</time>
      </trkpt>
      <trkpt lat="44.8735" lon="5.52536">
        <ele>2227.5</ele>
        <time>2022-01-19T12:17:27Z</time>
      </trkpt>
      <trkpt lat="44.8735" lon="5.52536">
        <ele>2227.5</ele>
        <time>2022-01-19T12:17:28Z</time>
      </trkpt>
      <trkpt lat="44.8735" lon="5.52536">
        <ele>2227.5</ele>
        <time>2022-01-19T12:17:29Z</time>
      </trkpt>
      <trkpt lat="44.8735" lon="5.52536">
        <ele>2227.5</ele>
        <time>2022-01-19T12:17:30Z</time>
      </trkpt>
      <trkpt lat="44.8735" lon="5.52536">
        <ele>2227.5</ele>
        <time>2022-01-19T12:17:31Z</time>
      </trkpt>
      <trkpt lat="44.8735" lon="5.52536">
        <ele>2227.5</ele>
        <time>2022-01-19T12:17:32Z</time>
      </trkpt>
      <trkpt lat="44.8735" lon="5.52536">
        <ele>2227.5</ele>
        <time>2022-01-19T12:17:33Z</time>
      </trkpt>
      <trkpt lat="44.8735" lon="5.52536">
        <ele>2227.5</ele>
        <time>2022-01-19T12:17:34Z</time>
      </trkpt>
      <trkpt lat="44.8735" lon="5.52536">
        <ele>2227.5</ele>
        <time>2022-01-19T12:17:35Z</time>
      </trkpt>
      <trkpt lat="44.8735" lon="5.52536">
        <ele>2227.5</ele>
        <time>2022-01-19T12:17:36Z</time>
      </trkpt>
      <trkpt lat="44.8735" lon="5.52536">
        <ele>2227.5</ele>
        <time>2022-01-19T12:17:37Z</time>
      </trkpt>
      <trkpt lat="44.8735" lon="5.52536">
        <ele>2227.5</ele>
        <time>2022-01-19T12:17:38Z</time>
      </trkpt>
      <trkpt lat="44.8735" lon="5.52536">
        <ele>2227.5</ele>
        <time>2022-01-19T12:17:39Z</time>
      </trkpt>
      <trkpt lat="44.8735" lon="5.52536">
        <ele>2227.5</ele>
        <time>2022-01-19T12:17:40Z</time>
      </trkpt>
      <trkpt lat="44.8735" lon="5.52536">
        <ele>2227.5</ele>
        <time>2022-01-19T12:17:41Z</time>
      </trkpt>
      <trkpt lat="44.8735" lon="5.52536">
        <ele>2227.5</ele>
        <time>2022-01-19T12:17:42Z</time>
      </trkpt>
      <trkpt lat="44.8735" lon="5.52536">
        <ele>2227.5</ele>
        <time>2022-01-19T12:17:43Z</time>
      </trkpt>
      <trkpt lat="44.8735" lon="5.52536">
        <ele>2227.5</ele>
        <time>2022-01-19T12:17:44Z</time>
      </trkpt>
      <trkpt lat="44.8735" lon="5.52536">
        <ele>2227.5</ele>
        <time>2022-01-19T12:17:45Z</time>
      </trkpt>
      <trkpt lat="44.8735" lon="5.52536">
        <ele>2227.5</ele>
        <time>2022-01-19T12:17:46Z</time>
      </trkpt>
      <trkpt lat="44.8735" lon="5.52536">
        <ele>2227.5</ele>
        <time>2022-01-19T12:17:47Z</time>
      </trkpt>
      <trkpt lat="44.8735" lon="5.52536">
        <ele>2227.5</ele>
        <time>2022-01-19T12:17:48Z</time>
      </trkpt>
      <trkpt lat="44.8735" lon="5.52536">
        <ele>2227.5</ele>
        <time>2022-01-19T12:17:49Z</time>
      </trkpt>
      <trkpt lat="44.8735" lon="5.52536">
        <ele>2227.5</ele>
        <time>2022-01-19T12:17:50Z</time>
      </trkpt>
      <trkpt lat="44.8735" lon="5.52536">
        <ele>2227.5</ele>
        <time>2022-01-19T12:17:51Z</time>
      </trkpt>
      <trkpt lat="44.8735" lon="5.52536">
        <ele>2227.5</ele>
        <time>2022-01-19T12:17:52Z</time>
      </trkpt>
      <trkpt lat="44.8735" lon="5.52536">
        <ele>2227.5</ele>
        <time>2022-01-19T12:17:53Z</time>
      </trkpt>
      <trkpt lat="44.8735" lon="5.52536">
        <ele>2227.5</ele>
        <time>2022-01-19T12:17:54Z</time>
      </trkpt>
      <trkpt lat="44.8735" lon="5.52536">
        <ele>2227.5</ele>
        <time>2022-01-19T12:17:55Z</time>
      </trkpt>
      <trkpt lat="44.8735" lon="5.52536">
        <ele>2227.5</ele>
        <time>2022-01-19T12:17:56Z</time>
      </trkpt>
      <trkpt lat="44.8735" lon="5.52536">
        <ele>2227.5</ele>
        <time>2022-01-19T12:17:57Z</time>
      </trkpt>
      <trkpt lat="44.8735" lon="5.52536">
        <ele>2227.5</ele>
        <time>2022-01-19T12:17:58Z</time>
      </trkpt>
      <trkpt lat="44.8735" lon="5.52536">
        <ele>2227.5</ele>
        <time>2022-01-19T12:17:59Z</time>
      </trkpt>
      <trkpt lat="44.8735" lon="5.52536">
        <ele>2227.5</ele>
        <time>2022-01-19T12:18:00Z</time>
      </trkpt>
      <trkpt lat="44.8735" lon="5.52536">
        <ele>2227.5</ele>
        <time>2022-01-19T12:18:01Z</time>
      </trkpt>
      <trkpt lat="44.8735" lon="5.52536">
        <ele>2227.5</ele>
        <time>2022-01-19T12:18:02Z</time>
      </trkpt>
      <trkpt lat="44.8735" lon="5.52536">
        <ele>2227.5</ele>
        <time>2022-01-19T12:18:03Z</time>
      </trkpt>
      <trkpt lat="44.8735" lon="5.52536">
        <ele>2227.5</ele>
        <time>2022-01-19T12:18:04Z</time>
      </trkpt>
      <trkpt lat="44.8735" lon="5.52536">
        <ele>2227.5</ele>
        <time>2022-01-19T12:18:05Z</time>
      </trkpt>
      <trkpt lat="44.8735" lon="5.52536">
        <ele>2227.5</ele>
        <time>2022-01-19T12:18:06Z</time>
      </trkpt>
      <trkpt lat="44.8735" lon="5.52536">
        <ele>2227.5</ele>
        <time>2022-01-19T12:18:07Z</time>
      </trkpt>
      <trkpt lat="44.8735" lon="5.52536">
        <ele>2227.5</ele>
        <time>2022-01-19T12:18:08Z</time>
      </trkpt>
      <trkpt lat="44.8735" lon="5.52536">
        <ele>2227.5</ele>
        <time>2022-01-19T12:18:09Z</time>
      </trkpt>
      <trkpt lat="44.8735" lon="5.52536">
        <ele>2227.5</ele>
        <time>2022-01-19T12:18:10Z</time>
      </trkpt>
      <trkpt lat="44.8735" lon="5.52536">
        <ele>2227.5</ele>
        <time>2022-01-19T12:18:11Z</time>
      </trkpt>
      <trkpt lat="44.8735" lon="5.52536">
        <ele>2227.5</ele>
        <time>2022-01-19T12:18:12Z</time>
      </trkpt>
      <trkpt lat="44.8735" lon="5.52536">
        <ele>2227.5</ele>
        <time>2022-01-19T12:18:13Z</time>
      </trkpt>
      <trkpt lat="44.8735" lon="5.52536">
        <ele>2227.5</ele>
        <time>2022-01-19T12:18:14Z</time>
      </trkpt>
      <trkpt lat="44.8735" lon="5.52536">
        <ele>2227.5</ele>
        <time>2022-01-19T12:18:15Z</time>
      </trkpt>
      <trkpt lat="44.8735" lon="5.52536">
        <ele>2227.5</ele>
        <time>2022-01-19T12:18:16Z</time>
      </trkpt>
      <trkpt lat="44.8735" lon="5.52536">
        <ele>2227.5</ele>
        <time>2022-01-19T12:18:17Z</time>
      </trkpt>
      <trkpt lat="44.8735" lon="5.52536">
        <ele>2227.5</ele>
        <time>2022-01-19T12:18:18Z</time>
      </trkpt>
      <trkpt lat="44.8735" lon="5.52536">
        <ele>2227.5</ele>
        <time>2022-01-19T12:18:19Z</time>
      </trkpt>
      <trkpt lat="44.8735" lon="5.52536">
        <ele>2227.5</ele>
        <time>2022-01-19T12:18:20Z</time>
      </trkpt>
      <trkpt lat="44.8735" lon="5.52536">
        <ele>2227.5</ele>
        <time>2022-01-19T12:18:21Z</time>
      </trkpt>
      <trkpt lat="44.8735" lon="5.52536">
        <ele>2227.5</ele>
        <time>2022-01-19T12:18:22Z</time>
      </trkpt>
      <trkpt lat="44.8735" lon="5.52536">
        <ele>2227.5</ele>
        <time>2022-01-19T12:18:23Z</time>
      </trkpt>
      <trkpt lat="44.8735" lon="5.52536">
        <ele>2227.5</ele>
        <time>2022-01-19T12:18:24Z</time>
      </trkpt>
      <trkpt lat="44.8735" lon="5.52536">
        <ele>2227.5</ele>
        <time>2022-01-19T12:18:25Z</time>
      </trkpt>
      <trkpt lat="44.8735" lon="5.52536">
        <ele>2227.5</ele>
        <time>2022-01-19T12:18:26Z</time>
      </trkpt>
      <trkpt lat="44.8735" lon="5.52536">
        <ele>2227.5</ele>
        <time>2022-01-19T12:18:27Z</time>
      </trkpt>
      <trkpt lat="44.8735" lon="5.52535">
        <ele>2227.4</ele>
        <time>2022-01-19T12:18:28Z</time>
      </trkpt>
      <trkpt lat="44.8735" lon="5.52535">
        <ele>2227.3</ele>
        <time>2022-01-19T12:18:29Z</time>
      </trkpt>
      <trkpt lat="44.87351" lon="5.52535">
        <ele>2227.2</ele>
        <time>2022-01-19T12:18:30Z</time>
      </trkpt>
      <trkpt lat="44.87351" lon="5.52535">
        <ele>2227.1</ele>
        <time>2022-01-19T12:18:31Z</time>
      </trkpt>
      <trkpt lat="44.87351" lon="5.52535">
        <ele>2227.1</ele>
        <time>2022-01-19T12:18:32Z</time>
      </trkpt>
      <trkpt lat="44.87352" lon="5.52535">
        <ele>2227.1</ele>
        <time>2022-01-19T12:18:33Z</time>
      </trkpt>
      <trkpt lat="44.87352" lon="5.52535">
        <ele>2227</ele>
        <time>2022-01-19T12:18:34Z</time>
      </trkpt>
      <trkpt lat="44.87352" lon="5.52535">
        <ele>2227</ele>
        <time>2022-01-19T12:18:35Z</time>
      </trkpt>
      <trkpt lat="44.87352" lon="5.52535">
        <ele>2227</ele>
        <time>2022-01-19T12:18:36Z</time>
      </trkpt>
      <trkpt lat="44.87352" lon="5.52535">
        <ele>2227</ele>
        <time>2022-01-19T12:18:37Z</time>
      </trkpt>
      <trkpt lat="44.87352" lon="5.52535">
        <ele>2227</ele>
        <time>2022-01-19T12:18:38Z</time>
      </trkpt>
      <trkpt lat="44.87352" lon="5.52535">
        <ele>2227</ele>
        <time>2022-01-19T12:18:39Z</time>
      </trkpt>
      <trkpt lat="44.87352" lon="5.52535">
        <ele>2227</ele>
        <time>2022-01-19T12:18:40Z</time>
      </trkpt>
      <trkpt lat="44.87352" lon="5.52535">
        <ele>2227</ele>
        <time>2022-01-19T12:18:41Z</time>
      </trkpt>
      <trkpt lat="44.87352" lon="5.52535">
        <ele>2227</ele>
        <time>2022-01-19T12:18:42Z</time>
      </trkpt>
      <trkpt lat="44.87352" lon="5.52535">
        <ele>2227</ele>
        <time>2022-01-19T12:18:43Z</time>
      </trkpt>
      <trkpt lat="44.87352" lon="5.52535">
        <ele>2227</ele>
        <time>2022-01-19T12:18:44Z</time>
      </trkpt>
      <trkpt lat="44.87352" lon="5.52535">
        <ele>2227</ele>
        <time>2022-01-19T12:18:45Z</time>
      </trkpt>
      <trkpt lat="44.87352" lon="5.52535">
        <ele>2227</ele>
        <time>2022-01-19T12:18:46Z</time>
      </trkpt>
      <trkpt lat="44.87352" lon="5.52535">
        <ele>2227</ele>
        <time>2022-01-19T12:18:47Z</time>
      </trkpt>
      <trkpt lat="44.87352" lon="5.52535">
        <ele>2227</ele>
        <time>2022-01-19T12:18:48Z</time>
      </trkpt>
      <trkpt lat="44.87352" lon="5.52535">
        <ele>2227</ele>
        <time>2022-01-19T12:18:49Z</time>
      </trkpt>
      <trkpt lat="44.87352" lon="5.52535">
        <ele>2227</ele>
        <time>2022-01-19T12:18:50Z</time>
      </trkpt>
      <trkpt lat="44.87352" lon="5.52535">
        <ele>2227</ele>
        <time>2022-01-19T12:18:51Z</time>
      </trkpt>
      <trkpt lat="44.87352" lon="5.52535">
        <ele>2227</ele>
        <time>2022-01-19T12:18:52Z</time>
      </trkpt>
      <trkpt lat="44.87352" lon="5.52535">
        <ele>2227</ele>
        <time>2022-01-19T12:18:53Z</time>
      </trkpt>
      <trkpt lat="44.87351" lon="5.52535">
        <ele>2226.8</ele>
        <time>2022-01-19T12:18:54Z</time>
      </trkpt>
      <trkpt lat="44.8735" lon="5.52536">
        <ele>2226.7</ele>
        <time>2022-01-19T12:18:55Z</time>
      </trkpt>
      <trkpt lat="44.8735" lon="5.52535">
        <ele>2226.6</ele>
        <time>2022-01-19T12:18:56Z</time>
      </trkpt>
      <trkpt lat="44.8735" lon="5.52535">
        <ele>2226.6</ele>
        <time>2022-01-19T12:18:57Z</time>
      </trkpt>
      <trkpt lat="44.8735" lon="5.52535">
        <ele>2226.6</ele>
        <time>2022-01-19T12:18:58Z</time>
      </trkpt>
      <trkpt lat="44.8735" lon="5.52535">
        <ele>2226.6</ele>
        <time>2022-01-19T12:18:59Z</time>
      </trkpt>
      <trkpt lat="44.8735" lon="5.52535">
        <ele>2226.6</ele>
        <time>2022-01-19T12:19:00Z</time>
      </trkpt>
      <trkpt lat="44.8735" lon="5.52535">
        <ele>2226.6</ele>
        <time>2022-01-19T12:19:01Z</time>
      </trkpt>
      <trkpt lat="44.8735" lon="5.52535">
        <ele>2226.6</ele>
        <time>2022-01-19T12:19:02Z</time>
      </trkpt>
      <trkpt lat="44.8735" lon="5.52535">
        <ele>2226.6</ele>
        <time>2022-01-19T12:19:03Z</time>
      </trkpt>
      <trkpt lat="44.8735" lon="5.52535">
        <ele>2226.6</ele>
        <time>2022-01-19T12:19:04Z</time>
      </trkpt>
      <trkpt lat="44.8735" lon="5.52535">
        <ele>2226.6</ele>
        <time>2022-01-19T12:19:05Z</time>
      </trkpt>
      <trkpt lat="44.8735" lon="5.52535">
        <ele>2226.6</ele>
        <time>2022-01-19T12:19:06Z</time>
      </trkpt>
      <trkpt lat="44.8735" lon="5.52535">
        <ele>2226.6</ele>
        <time>2022-01-19T12:19:07Z</time>
      </trkpt>
      <trkpt lat="44.8735" lon="5.52535">
        <ele>2226.6</ele>
        <time>2022-01-19T12:19:08Z</time>
      </trkpt>
      <trkpt lat="44.8735" lon="5.52535">
        <ele>2226.6</ele>
        <time>2022-01-19T12:19:09Z</time>
      </trkpt>
      <trkpt lat="44.8735" lon="5.52535">
        <ele>2226.6</ele>
        <time>2022-01-19T12:19:10Z</time>
      </trkpt>
      <trkpt lat="44.8735" lon="5.52535">
        <ele>2226.6</ele>
        <time>2022-01-19T12:19:11Z</time>
      </trkpt>
      <trkpt lat="44.8735" lon="5.52535">
        <ele>2226.6</ele>
        <time>2022-01-19T12:19:12Z</time>
      </trkpt>
      <trkpt lat="44.8735" lon="5.52535">
        <ele>2226.6</ele>
        <time>2022-01-19T12:19:13Z</time>
      </trkpt>
      <trkpt lat="44.8735" lon="5.52535">
        <ele>2226.6</ele>
        <time>2022-01-19T12:19:14Z</time>
      </trkpt>
      <trkpt lat="44.8735" lon="5.52535">
        <ele>2226.6</ele>
        <time>2022-01-19T12:19:15Z</time>
      </trkpt>
      <trkpt lat="44.8735" lon="5.52535">
        <ele>2226.6</ele>
        <time>2022-01-19T12:19:16Z</time>
      </trkpt>
      <trkpt lat="44.8735" lon="5.52535">
        <ele>2226.6</ele>
        <time>2022-01-19T12:19:17Z</time>
      </trkpt>
      <trkpt lat="44.8735" lon="5.52535">
        <ele>2226.6</ele>
        <time>2022-01-19T12:19:18Z</time>
      </trkpt>
      <trkpt lat="44.8735" lon="5.52535">
        <ele>2226.6</ele>
        <time>2022-01-19T12:19:19Z</time>
      </trkpt>
      <trkpt lat="44.8735" lon="5.52535">
        <ele>2226.6</ele>
        <time>2022-01-19T12:19:20Z</time>
      </trkpt>
      <trkpt lat="44.8735" lon="5.52535">
        <ele>2226.6</ele>
        <time>2022-01-19T12:19:21Z</time>
      </trkpt>
      <trkpt lat="44.8735" lon="5.52535">
        <ele>2226.6</ele>
        <time>2022-01-19T12:19:22Z</time>
      </trkpt>
      <trkpt lat="44.8735" lon="5.52535">
        <ele>2226.6</ele>
        <time>2022-01-19T12:19:23Z</time>
      </trkpt>
      <trkpt lat="44.8735" lon="5.52535">
        <ele>2226.6</ele>
        <time>2022-01-19T12:19:24Z</time>
      </trkpt>
      <trkpt lat="44.8735" lon="5.52535">
        <ele>2226.6</ele>
        <time>2022-01-19T12:19:25Z</time>
      </trkpt>
      <trkpt lat="44.8735" lon="5.52535">
        <ele>2226.6</ele>
        <time>2022-01-19T12:19:26Z</time>
      </trkpt>
      <trkpt lat="44.8735" lon="5.52535">
        <ele>2226.6</ele>
        <time>2022-01-19T12:19:27Z</time>
      </trkpt>
      <trkpt lat="44.8735" lon="5.52535">
        <ele>2226.6</ele>
        <time>2022-01-19T12:19:28Z</time>
      </trkpt>
      <trkpt lat="44.8735" lon="5.52535">
        <ele>2226.6</ele>
        <time>2022-01-19T12:19:29Z</time>
      </trkpt>
      <trkpt lat="44.8735" lon="5.52535">
        <ele>2226.6</ele>
        <time>2022-01-19T12:19:30Z</time>
      </trkpt>
      <trkpt lat="44.8735" lon="5.52535">
        <ele>2226.6</ele>
        <time>2022-01-19T12:19:31Z</time>
      </trkpt>
      <trkpt lat="44.8735" lon="5.52535">
        <ele>2226.6</ele>
        <time>2022-01-19T12:19:32Z</time>
      </trkpt>
      <trkpt lat="44.8735" lon="5.52535">
        <ele>2226.6</ele>
        <time>2022-01-19T12:19:33Z</time>
      </trkpt>
      <trkpt lat="44.8735" lon="5.52535">
        <ele>2226.6</ele>
        <time>2022-01-19T12:19:34Z</time>
      </trkpt>
      <trkpt lat="44.8735" lon="5.52535">
        <ele>2226.6</ele>
        <time>2022-01-19T12:19:35Z</time>
      </trkpt>
      <trkpt lat="44.8735" lon="5.52535">
        <ele>2226.6</ele>
        <time>2022-01-19T12:19:36Z</time>
      </trkpt>
      <trkpt lat="44.8735" lon="5.52535">
        <ele>2226.6</ele>
        <time>2022-01-19T12:19:37Z</time>
      </trkpt>
      <trkpt lat="44.8735" lon="5.52535">
        <ele>2226.6</ele>
        <time>2022-01-19T12:19:38Z</time>
      </trkpt>
      <trkpt lat="44.8735" lon="5.52535">
        <ele>2226.6</ele>
        <time>2022-01-19T12:19:39Z</time>
      </trkpt>
      <trkpt lat="44.8735" lon="5.52535">
        <ele>2226.6</ele>
        <time>2022-01-19T12:19:40Z</time>
      </trkpt>
      <trkpt lat="44.8735" lon="5.52535">
        <ele>2226.6</ele>
        <time>2022-01-19T12:19:41Z</time>
      </trkpt>
      <trkpt lat="44.8735" lon="5.52535">
        <ele>2226.6</ele>
        <time>2022-01-19T12:19:42Z</time>
      </trkpt>
      <trkpt lat="44.8735" lon="5.52535">
        <ele>2226.6</ele>
        <time>2022-01-19T12:19:43Z</time>
      </trkpt>
      <trkpt lat="44.8735" lon="5.52535">
        <ele>2226.6</ele>
        <time>2022-01-19T12:19:44Z</time>
      </trkpt>
      <trkpt lat="44.8735" lon="5.52535">
        <ele>2226.6</ele>
        <time>2022-01-19T12:19:45Z</time>
      </trkpt>
      <trkpt lat="44.8735" lon="5.52535">
        <ele>2226.6</ele>
        <time>2022-01-19T12:19:46Z</time>
      </trkpt>
      <trkpt lat="44.8735" lon="5.52535">
        <ele>2226.6</ele>
        <time>2022-01-19T12:19:47Z</time>
      </trkpt>
      <trkpt lat="44.8735" lon="5.52535">
        <ele>2226.6</ele>
        <time>2022-01-19T12:19:48Z</time>
      </trkpt>
      <trkpt lat="44.8735" lon="5.52535">
        <ele>2226.6</ele>
        <time>2022-01-19T12:19:49Z</time>
      </trkpt>
      <trkpt lat="44.8735" lon="5.52535">
        <ele>2226.6</ele>
        <time>2022-01-19T12:19:50Z</time>
      </trkpt>
      <trkpt lat="44.8735" lon="5.52535">
        <ele>2226.6</ele>
        <time>2022-01-19T12:19:51Z</time>
      </trkpt>
      <trkpt lat="44.8735" lon="5.52535">
        <ele>2226.6</ele>
        <time>2022-01-19T12:19:52Z</time>
      </trkpt>
      <trkpt lat="44.8735" lon="5.52535">
        <ele>2226.6</ele>
        <time>2022-01-19T12:19:53Z</time>
      </trkpt>
      <trkpt lat="44.8735" lon="5.52535">
        <ele>2226.6</ele>
        <time>2022-01-19T12:19:54Z</time>
      </trkpt>
      <trkpt lat="44.8735" lon="5.52535">
        <ele>2226.6</ele>
        <time>2022-01-19T12:19:55Z</time>
      </trkpt>
      <trkpt lat="44.8735" lon="5.52535">
        <ele>2226.6</ele>
        <time>2022-01-19T12:19:56Z</time>
      </trkpt>
      <trkpt lat="44.8735" lon="5.52535">
        <ele>2226.6</ele>
        <time>2022-01-19T12:19:57Z</time>
      </trkpt>
      <trkpt lat="44.8735" lon="5.52535">
        <ele>2226.6</ele>
        <time>2022-01-19T12:19:58Z</time>
      </trkpt>
      <trkpt lat="44.8735" lon="5.52535">
        <ele>2226.6</ele>
        <time>2022-01-19T12:19:59Z</time>
      </trkpt>
      <trkpt lat="44.8735" lon="5.52535">
        <ele>2226.6</ele>
        <time>2022-01-19T12:20:00Z</time>
      </trkpt>
      <trkpt lat="44.8735" lon="5.52535">
        <ele>2226.6</ele>
        <time>2022-01-19T12:20:01Z</time>
      </trkpt>
      <trkpt lat="44.8735" lon="5.52535">
        <ele>2226.6</ele>
        <time>2022-01-19T12:20:02Z</time>
      </trkpt>
      <trkpt lat="44.8735" lon="5.52535">
        <ele>2226.6</ele>
        <time>2022-01-19T12:20:03Z</time>
      </trkpt>
      <trkpt lat="44.8735" lon="5.52535">
        <ele>2226.6</ele>
        <time>2022-01-19T12:20:04Z</time>
      </trkpt>
      <trkpt lat="44.8735" lon="5.52535">
        <ele>2226.6</ele>
        <time>2022-01-19T12:20:05Z</time>
      </trkpt>
      <trkpt lat="44.8735" lon="5.52535">
        <ele>2226.6</ele>
        <time>2022-01-19T12:20:06Z</time>
      </trkpt>
      <trkpt lat="44.8735" lon="5.52535">
        <ele>2226.6</ele>
        <time>2022-01-19T12:20:07Z</time>
      </trkpt>
      <trkpt lat="44.8735" lon="5.52535">
        <ele>2226.6</ele>
        <time>2022-01-19T12:20:08Z</time>
      </trkpt>
      <trkpt lat="44.8735" lon="5.52535">
        <ele>2226.6</ele>
        <time>2022-01-19T12:20:09Z</time>
      </trkpt>
      <trkpt lat="44.8735" lon="5.52535">
        <ele>2226.6</ele>
        <time>2022-01-19T12:20:10Z</time>
      </trkpt>
      <trkpt lat="44.8735" lon="5.52535">
        <ele>2226.6</ele>
        <time>2022-01-19T12:20:11Z</time>
      </trkpt>
      <trkpt lat="44.8735" lon="5.52535">
        <ele>2226.6</ele>
        <time>2022-01-19T12:20:12Z</time>
      </trkpt>
      <trkpt lat="44.8735" lon="5.52535">
        <ele>2226.6</ele>
        <time>2022-01-19T12:20:13Z</time>
      </trkpt>
      <trkpt lat="44.8735" lon="5.52535">
        <ele>2226.6</ele>
        <time>2022-01-19T12:20:14Z</time>
      </trkpt>
      <trkpt lat="44.8735" lon="5.52535">
        <ele>2226.6</ele>
        <time>2022-01-19T12:20:15Z</time>
      </trkpt>
      <trkpt lat="44.8735" lon="5.52535">
        <ele>2226.6</ele>
        <time>2022-01-19T12:20:16Z</time>
      </trkpt>
      <trkpt lat="44.8735" lon="5.52535">
        <ele>2226.6</ele>
        <time>2022-01-19T12:20:17Z</time>
      </trkpt>
      <trkpt lat="44.8735" lon="5.52535">
        <ele>2226.6</ele>
        <time>2022-01-19T12:20:18Z</time>
      </trkpt>
      <trkpt lat="44.8735" lon="5.52535">
        <ele>2226.6</ele>
        <time>2022-01-19T12:20:19Z</time>
      </trkpt>
      <trkpt lat="44.8735" lon="5.52535">
        <ele>2226.6</ele>
        <time>2022-01-19T12:20:20Z</time>
      </trkpt>
      <trkpt lat="44.8735" lon="5.52535">
        <ele>2226.6</ele>
        <time>2022-01-19T12:20:21Z</time>
      </trkpt>
      <trkpt lat="44.8735" lon="5.52535">
        <ele>2226.6</ele>
        <time>2022-01-19T12:20:22Z</time>
      </trkpt>
      <trkpt lat="44.8735" lon="5.52535">
        <ele>2226.6</ele>
        <time>2022-01-19T12:20:23Z</time>
      </trkpt>
      <trkpt lat="44.8735" lon="5.52535">
        <ele>2226.6</ele>
        <time>2022-01-19T12:20:24Z</time>
      </trkpt>
      <trkpt lat="44.8735" lon="5.52535">
        <ele>2226.6</ele>
        <time>2022-01-19T12:20:25Z</time>
      </trkpt>
      <trkpt lat="44.8735" lon="5.52535">
        <ele>2226.6</ele>
        <time>2022-01-19T12:20:26Z</time>
      </trkpt>
      <trkpt lat="44.8735" lon="5.52535">
        <ele>2226.6</ele>
        <time>2022-01-19T12:20:27Z</time>
      </trkpt>
      <trkpt lat="44.8735" lon="5.52535">
        <ele>2226.6</ele>
        <time>2022-01-19T12:20:28Z</time>
      </trkpt>
      <trkpt lat="44.8735" lon="5.52535">
        <ele>2226.6</ele>
        <time>2022-01-19T12:20:29Z</time>
      </trkpt>
      <trkpt lat="44.8735" lon="5.52535">
        <ele>2226.6</ele>
        <time>2022-01-19T12:20:30Z</time>
      </trkpt>
      <trkpt lat="44.8735" lon="5.52535">
        <ele>2226.6</ele>
        <time>2022-01-19T12:20:31Z</time>
      </trkpt>
      <trkpt lat="44.8735" lon="5.52535">
        <ele>2226.6</ele>
        <time>2022-01-19T12:20:32Z</time>
      </trkpt>
      <trkpt lat="44.8735" lon="5.52535">
        <ele>2226.6</ele>
        <time>2022-01-19T12:20:33Z</time>
      </trkpt>
      <trkpt lat="44.8735" lon="5.52535">
        <ele>2226.6</ele>
        <time>2022-01-19T12:20:34Z</time>
      </trkpt>
      <trkpt lat="44.8735" lon="5.52535">
        <ele>2226.6</ele>
        <time>2022-01-19T12:20:35Z</time>
      </trkpt>
      <trkpt lat="44.8735" lon="5.52535">
        <ele>2226.6</ele>
        <time>2022-01-19T12:20:36Z</time>
      </trkpt>
      <trkpt lat="44.8735" lon="5.52535">
        <ele>2226.6</ele>
        <time>2022-01-19T12:20:37Z</time>
      </trkpt>
      <trkpt lat="44.8735" lon="5.52535">
        <ele>2226.6</ele>
        <time>2022-01-19T12:20:38Z</time>
      </trkpt>
      <trkpt lat="44.8735" lon="5.52535">
        <ele>2226.6</ele>
        <time>2022-01-19T12:20:39Z</time>
      </trkpt>
      <trkpt lat="44.8735" lon="5.52535">
        <ele>2226.6</ele>
        <time>2022-01-19T12:20:40Z</time>
      </trkpt>
      <trkpt lat="44.8735" lon="5.52535">
        <ele>2226.6</ele>
        <time>2022-01-19T12:20:41Z</time>
      </trkpt>
      <trkpt lat="44.8735" lon="5.52535">
        <ele>2226.6</ele>
        <time>2022-01-19T12:20:42Z</time>
      </trkpt>
      <trkpt lat="44.8735" lon="5.52535">
        <ele>2226.6</ele>
        <time>2022-01-19T12:20:43Z</time>
      </trkpt>
      <trkpt lat="44.8735" lon="5.52535">
        <ele>2226.6</ele>
        <time>2022-01-19T12:20:44Z</time>
      </trkpt>
      <trkpt lat="44.8735" lon="5.52535">
        <ele>2226.6</ele>
        <time>2022-01-19T12:20:45Z</time>
      </trkpt>
      <trkpt lat="44.8735" lon="5.52535">
        <ele>2226.6</ele>
        <time>2022-01-19T12:20:46Z</time>
      </trkpt>
      <trkpt lat="44.8735" lon="5.52535">
        <ele>2226.6</ele>
        <time>2022-01-19T12:20:47Z</time>
      </trkpt>
      <trkpt lat="44.8735" lon="5.52535">
        <ele>2226.6</ele>
        <time>2022-01-19T12:20:48Z</time>
      </trkpt>
      <trkpt lat="44.8735" lon="5.52535">
        <ele>2226.6</ele>
        <time>2022-01-19T12:20:49Z</time>
      </trkpt>
      <trkpt lat="44.8735" lon="5.52535">
        <ele>2226.6</ele>
        <time>2022-01-19T12:20:50Z</time>
      </trkpt>
      <trkpt lat="44.8735" lon="5.52535">
        <ele>2226.6</ele>
        <time>2022-01-19T12:20:51Z</time>
      </trkpt>
      <trkpt lat="44.8735" lon="5.52535">
        <ele>2226.6</ele>
        <time>2022-01-19T12:20:52Z</time>
      </trkpt>
      <trkpt lat="44.8735" lon="5.52535">
        <ele>2226.6</ele>
        <time>2022-01-19T12:20:53Z</time>
      </trkpt>
      <trkpt lat="44.8735" lon="5.52535">
        <ele>2226.6</ele>
        <time>2022-01-19T12:20:54Z</time>
      </trkpt>
      <trkpt lat="44.8735" lon="5.52535">
        <ele>2226.6</ele>
        <time>2022-01-19T12:20:55Z</time>
      </trkpt>
      <trkpt lat="44.8735" lon="5.52535">
        <ele>2226.6</ele>
        <time>2022-01-19T12:20:56Z</time>
      </trkpt>
      <trkpt lat="44.8735" lon="5.52535">
        <ele>2226.6</ele>
        <time>2022-01-19T12:20:57Z</time>
      </trkpt>
      <trkpt lat="44.8735" lon="5.52535">
        <ele>2226.6</ele>
        <time>2022-01-19T12:20:58Z</time>
      </trkpt>
      <trkpt lat="44.8735" lon="5.52535">
        <ele>2226.6</ele>
        <time>2022-01-19T12:20:59Z</time>
      </trkpt>
      <trkpt lat="44.8735" lon="5.52535">
        <ele>2226.6</ele>
        <time>2022-01-19T12:21:00Z</time>
      </trkpt>
      <trkpt lat="44.8735" lon="5.52535">
        <ele>2226.6</ele>
        <time>2022-01-19T12:21:01Z</time>
      </trkpt>
      <trkpt lat="44.8735" lon="5.52535">
        <ele>2226.6</ele>
        <time>2022-01-19T12:21:02Z</time>
      </trkpt>
      <trkpt lat="44.8735" lon="5.52535">
        <ele>2226.6</ele>
        <time>2022-01-19T12:21:03Z</time>
      </trkpt>
      <trkpt lat="44.8735" lon="5.52535">
        <ele>2226.6</ele>
        <time>2022-01-19T12:21:04Z</time>
      </trkpt>
      <trkpt lat="44.8735" lon="5.52535">
        <ele>2226.6</ele>
        <time>2022-01-19T12:21:05Z</time>
      </trkpt>
      <trkpt lat="44.8735" lon="5.52535">
        <ele>2226.6</ele>
        <time>2022-01-19T12:21:06Z</time>
      </trkpt>
      <trkpt lat="44.8735" lon="5.52535">
        <ele>2226.6</ele>
        <time>2022-01-19T12:21:07Z</time>
      </trkpt>
      <trkpt lat="44.8735" lon="5.52535">
        <ele>2226.6</ele>
        <time>2022-01-19T12:21:08Z</time>
      </trkpt>
      <trkpt lat="44.8735" lon="5.52535">
        <ele>2226.6</ele>
        <time>2022-01-19T12:21:09Z</time>
      </trkpt>
      <trkpt lat="44.8735" lon="5.52535">
        <ele>2226.6</ele>
        <time>2022-01-19T12:21:10Z</time>
      </trkpt>
      <trkpt lat="44.8735" lon="5.52535">
        <ele>2226.6</ele>
        <time>2022-01-19T12:21:11Z</time>
      </trkpt>
      <trkpt lat="44.8735" lon="5.52535">
        <ele>2226.6</ele>
        <time>2022-01-19T12:21:12Z</time>
      </trkpt>
      <trkpt lat="44.8735" lon="5.52535">
        <ele>2226.6</ele>
        <time>2022-01-19T12:21:13Z</time>
      </trkpt>
      <trkpt lat="44.8735" lon="5.52535">
        <ele>2226.6</ele>
        <time>2022-01-19T12:21:14Z</time>
      </trkpt>
      <trkpt lat="44.8735" lon="5.52535">
        <ele>2226.6</ele>
        <time>2022-01-19T12:21:15Z</time>
      </trkpt>
      <trkpt lat="44.8735" lon="5.52535">
        <ele>2226.6</ele>
        <time>2022-01-19T12:21:16Z</time>
      </trkpt>
      <trkpt lat="44.8735" lon="5.52535">
        <ele>2226.6</ele>
        <time>2022-01-19T12:21:17Z</time>
      </trkpt>
      <trkpt lat="44.8735" lon="5.52535">
        <ele>2226.6</ele>
        <time>2022-01-19T12:21:18Z</time>
      </trkpt>
      <trkpt lat="44.8735" lon="5.52535">
        <ele>2226.6</ele>
        <time>2022-01-19T12:21:19Z</time>
      </trkpt>
      <trkpt lat="44.8735" lon="5.52535">
        <ele>2226.6</ele>
        <time>2022-01-19T12:21:20Z</time>
      </trkpt>
      <trkpt lat="44.8735" lon="5.52535">
        <ele>2226.6</ele>
        <time>2022-01-19T12:21:21Z</time>
      </trkpt>
      <trkpt lat="44.8735" lon="5.52535">
        <ele>2226.6</ele>
        <time>2022-01-19T12:21:22Z</time>
      </trkpt>
      <trkpt lat="44.8735" lon="5.52535">
        <ele>2226.6</ele>
        <time>2022-01-19T12:21:23Z</time>
      </trkpt>
      <trkpt lat="44.8735" lon="5.52535">
        <ele>2226.6</ele>
        <time>2022-01-19T12:21:24Z</time>
      </trkpt>
      <trkpt lat="44.8735" lon="5.52535">
        <ele>2226.6</ele>
        <time>2022-01-19T12:21:25Z</time>
      </trkpt>
      <trkpt lat="44.8735" lon="5.52535">
        <ele>2226.6</ele>
        <time>2022-01-19T12:21:26Z</time>
      </trkpt>
      <trkpt lat="44.8735" lon="5.52535">
        <ele>2226.6</ele>
        <time>2022-01-19T12:21:27Z</time>
      </trkpt>
      <trkpt lat="44.8735" lon="5.52535">
        <ele>2226.6</ele>
        <time>2022-01-19T12:21:28Z</time>
      </trkpt>
      <trkpt lat="44.8735" lon="5.52535">
        <ele>2226.6</ele>
        <time>2022-01-19T12:21:29Z</time>
      </trkpt>
      <trkpt lat="44.8735" lon="5.52535">
        <ele>2226.6</ele>
        <time>2022-01-19T12:21:30Z</time>
      </trkpt>
      <trkpt lat="44.8735" lon="5.52535">
        <ele>2226.6</ele>
        <time>2022-01-19T12:21:31Z</time>
      </trkpt>
      <trkpt lat="44.8735" lon="5.52535">
        <ele>2226.6</ele>
        <time>2022-01-19T12:21:32Z</time>
      </trkpt>
      <trkpt lat="44.8735" lon="5.52535">
        <ele>2226.6</ele>
        <time>2022-01-19T12:21:33Z</time>
      </trkpt>
      <trkpt lat="44.8735" lon="5.52535">
        <ele>2226.6</ele>
        <time>2022-01-19T12:21:34Z</time>
      </trkpt>
      <trkpt lat="44.8735" lon="5.52535">
        <ele>2226.6</ele>
        <time>2022-01-19T12:21:35Z</time>
      </trkpt>
      <trkpt lat="44.8735" lon="5.52535">
        <ele>2226.6</ele>
        <time>2022-01-19T12:21:36Z</time>
      </trkpt>
      <trkpt lat="44.8735" lon="5.52535">
        <ele>2226.6</ele>
        <time>2022-01-19T12:21:37Z</time>
      </trkpt>
      <trkpt lat="44.8735" lon="5.52535">
        <ele>2226.6</ele>
        <time>2022-01-19T12:21:38Z</time>
      </trkpt>
      <trkpt lat="44.8735" lon="5.52535">
        <ele>2226.6</ele>
        <time>2022-01-19T12:21:39Z</time>
      </trkpt>
      <trkpt lat="44.8735" lon="5.52535">
        <ele>2226.6</ele>
        <time>2022-01-19T12:21:40Z</time>
      </trkpt>
      <trkpt lat="44.8735" lon="5.52535">
        <ele>2226.6</ele>
        <time>2022-01-19T12:21:41Z</time>
      </trkpt>
      <trkpt lat="44.8735" lon="5.52535">
        <ele>2226.6</ele>
        <time>2022-01-19T12:21:42Z</time>
      </trkpt>
      <trkpt lat="44.8735" lon="5.52535">
        <ele>2226.6</ele>
        <time>2022-01-19T12:21:43Z</time>
      </trkpt>
      <trkpt lat="44.8735" lon="5.52535">
        <ele>2226.6</ele>
        <time>2022-01-19T12:21:44Z</time>
      </trkpt>
      <trkpt lat="44.8735" lon="5.52535">
        <ele>2226.6</ele>
        <time>2022-01-19T12:21:45Z</time>
      </trkpt>
      <trkpt lat="44.8735" lon="5.52535">
        <ele>2226.6</ele>
        <time>2022-01-19T12:21:46Z</time>
      </trkpt>
      <trkpt lat="44.8735" lon="5.52535">
        <ele>2226.6</ele>
        <time>2022-01-19T12:21:47Z</time>
      </trkpt>
      <trkpt lat="44.8735" lon="5.52535">
        <ele>2226.6</ele>
        <time>2022-01-19T12:21:48Z</time>
      </trkpt>
      <trkpt lat="44.8735" lon="5.52535">
        <ele>2226.6</ele>
        <time>2022-01-19T12:21:49Z</time>
      </trkpt>
      <trkpt lat="44.8735" lon="5.52535">
        <ele>2226.6</ele>
        <time>2022-01-19T12:21:50Z</time>
      </trkpt>
      <trkpt lat="44.8735" lon="5.52535">
        <ele>2226.6</ele>
        <time>2022-01-19T12:21:51Z</time>
      </trkpt>
      <trkpt lat="44.8735" lon="5.52535">
        <ele>2226.6</ele>
        <time>2022-01-19T12:21:52Z</time>
      </trkpt>
      <trkpt lat="44.8735" lon="5.52535">
        <ele>2226.6</ele>
        <time>2022-01-19T12:21:53Z</time>
      </trkpt>
      <trkpt lat="44.8735" lon="5.52535">
        <ele>2226.6</ele>
        <time>2022-01-19T12:21:54Z</time>
      </trkpt>
      <trkpt lat="44.8735" lon="5.52535">
        <ele>2226.6</ele>
        <time>2022-01-19T12:21:55Z</time>
      </trkpt>
      <trkpt lat="44.8735" lon="5.52535">
        <ele>2226.6</ele>
        <time>2022-01-19T12:21:56Z</time>
      </trkpt>
      <trkpt lat="44.8735" lon="5.52535">
        <ele>2226.6</ele>
        <time>2022-01-19T12:21:57Z</time>
      </trkpt>
      <trkpt lat="44.8735" lon="5.52535">
        <ele>2226.6</ele>
        <time>2022-01-19T12:21:58Z</time>
      </trkpt>
      <trkpt lat="44.8735" lon="5.52535">
        <ele>2226.6</ele>
        <time>2022-01-19T12:21:59Z</time>
      </trkpt>
      <trkpt lat="44.8735" lon="5.52535">
        <ele>2226.6</ele>
        <time>2022-01-19T12:22:00Z</time>
      </trkpt>
      <trkpt lat="44.8735" lon="5.52535">
        <ele>2226.6</ele>
        <time>2022-01-19T12:22:01Z</time>
      </trkpt>
      <trkpt lat="44.8735" lon="5.52535">
        <ele>2226.6</ele>
        <time>2022-01-19T12:22:02Z</time>
      </trkpt>
      <trkpt lat="44.8735" lon="5.52535">
        <ele>2226.6</ele>
        <time>2022-01-19T12:22:03Z</time>
      </trkpt>
      <trkpt lat="44.8735" lon="5.52535">
        <ele>2226.6</ele>
        <time>2022-01-19T12:22:04Z</time>
      </trkpt>
      <trkpt lat="44.87349" lon="5.52535">
        <ele>2226.4</ele>
        <time>2022-01-19T12:22:05Z</time>
      </trkpt>
      <trkpt lat="44.87349" lon="5.52535">
        <ele>2226.4</ele>
        <time>2022-01-19T12:22:06Z</time>
      </trkpt>
      <trkpt lat="44.87349" lon="5.52535">
        <ele>2226.4</ele>
        <time>2022-01-19T12:22:07Z</time>
      </trkpt>
      <trkpt lat="44.87349" lon="5.52535">
        <ele>2226.3</ele>
        <time>2022-01-19T12:22:08Z</time>
      </trkpt>
      <trkpt lat="44.87349" lon="5.52535">
        <ele>2226.3</ele>
        <time>2022-01-19T12:22:09Z</time>
      </trkpt>
      <trkpt lat="44.87349" lon="5.52535">
        <ele>2226.3</ele>
        <time>2022-01-19T12:22:10Z</time>
      </trkpt>
      <trkpt lat="44.87349" lon="5.52535">
        <ele>2226.3</ele>
        <time>2022-01-19T12:22:11Z</time>
      </trkpt>
      <trkpt lat="44.87349" lon="5.52535">
        <ele>2226.3</ele>
        <time>2022-01-19T12:22:12Z</time>
      </trkpt>
      <trkpt lat="44.87349" lon="5.52535">
        <ele>2226.3</ele>
        <time>2022-01-19T12:22:13Z</time>
      </trkpt>
      <trkpt lat="44.87349" lon="5.52535">
        <ele>2226.3</ele>
        <time>2022-01-19T12:22:14Z</time>
      </trkpt>
      <trkpt lat="44.87349" lon="5.52535">
        <ele>2226.3</ele>
        <time>2022-01-19T12:22:15Z</time>
      </trkpt>
      <trkpt lat="44.87349" lon="5.52535">
        <ele>2226.3</ele>
        <time>2022-01-19T12:22:16Z</time>
      </trkpt>
      <trkpt lat="44.87349" lon="5.52535">
        <ele>2226.3</ele>
        <time>2022-01-19T12:22:17Z</time>
      </trkpt>
      <trkpt lat="44.87349" lon="5.52535">
        <ele>2226.3</ele>
        <time>2022-01-19T12:22:18Z</time>
      </trkpt>
      <trkpt lat="44.87349" lon="5.52535">
        <ele>2226.3</ele>
        <time>2022-01-19T12:22:19Z</time>
      </trkpt>
      <trkpt lat="44.87349" lon="5.52535">
        <ele>2226.3</ele>
        <time>2022-01-19T12:22:20Z</time>
      </trkpt>
      <trkpt lat="44.87349" lon="5.52535">
        <ele>2226.3</ele>
        <time>2022-01-19T12:22:21Z</time>
      </trkpt>
      <trkpt lat="44.87349" lon="5.52535">
        <ele>2226.3</ele>
        <time>2022-01-19T12:22:22Z</time>
      </trkpt>
      <trkpt lat="44.87349" lon="5.52535">
        <ele>2226.3</ele>
        <time>2022-01-19T12:22:23Z</time>
      </trkpt>
      <trkpt lat="44.87349" lon="5.52535">
        <ele>2226.3</ele>
        <time>2022-01-19T12:22:24Z</time>
      </trkpt>
      <trkpt lat="44.87349" lon="5.52535">
        <ele>2226.3</ele>
        <time>2022-01-19T12:22:25Z</time>
      </trkpt>
      <trkpt lat="44.87349" lon="5.52535">
        <ele>2226.3</ele>
        <time>2022-01-19T12:22:26Z</time>
      </trkpt>
      <trkpt lat="44.87349" lon="5.52535">
        <ele>2226.3</ele>
        <time>2022-01-19T12:22:27Z</time>
      </trkpt>
      <trkpt lat="44.87349" lon="5.52535">
        <ele>2226.3</ele>
        <time>2022-01-19T12:22:28Z</time>
      </trkpt>
      <trkpt lat="44.87349" lon="5.52535">
        <ele>2226.3</ele>
        <time>2022-01-19T12:22:29Z</time>
      </trkpt>
      <trkpt lat="44.87349" lon="5.52535">
        <ele>2226.3</ele>
        <time>2022-01-19T12:22:30Z</time>
      </trkpt>
      <trkpt lat="44.87349" lon="5.52535">
        <ele>2226.3</ele>
        <time>2022-01-19T12:22:31Z</time>
      </trkpt>
      <trkpt lat="44.87349" lon="5.52535">
        <ele>2226.3</ele>
        <time>2022-01-19T12:22:32Z</time>
      </trkpt>
      <trkpt lat="44.87349" lon="5.52535">
        <ele>2226.3</ele>
        <time>2022-01-19T12:22:33Z</time>
      </trkpt>
      <trkpt lat="44.87349" lon="5.52535">
        <ele>2226.3</ele>
        <time>2022-01-19T12:22:34Z</time>
      </trkpt>
      <trkpt lat="44.87349" lon="5.52535">
        <ele>2226.3</ele>
        <time>2022-01-19T12:22:35Z</time>
      </trkpt>
      <trkpt lat="44.87349" lon="5.52535">
        <ele>2226.3</ele>
        <time>2022-01-19T12:22:36Z</time>
      </trkpt>
      <trkpt lat="44.87349" lon="5.52535">
        <ele>2226.3</ele>
        <time>2022-01-19T12:22:37Z</time>
      </trkpt>
      <trkpt lat="44.87349" lon="5.52535">
        <ele>2226.3</ele>
        <time>2022-01-19T12:22:38Z</time>
      </trkpt>
      <trkpt lat="44.87349" lon="5.52535">
        <ele>2226.3</ele>
        <time>2022-01-19T12:22:39Z</time>
      </trkpt>
      <trkpt lat="44.87349" lon="5.52535">
        <ele>2226.3</ele>
        <time>2022-01-19T12:22:40Z</time>
      </trkpt>
      <trkpt lat="44.87349" lon="5.52535">
        <ele>2226.3</ele>
        <time>2022-01-19T12:22:41Z</time>
      </trkpt>
      <trkpt lat="44.87349" lon="5.52535">
        <ele>2226.3</ele>
        <time>2022-01-19T12:22:42Z</time>
      </trkpt>
      <trkpt lat="44.87349" lon="5.52535">
        <ele>2226.3</ele>
        <time>2022-01-19T12:22:43Z</time>
      </trkpt>
      <trkpt lat="44.87349" lon="5.52535">
        <ele>2226.3</ele>
        <time>2022-01-19T12:22:44Z</time>
      </trkpt>
      <trkpt lat="44.87349" lon="5.52535">
        <ele>2226.3</ele>
        <time>2022-01-19T12:22:45Z</time>
      </trkpt>
      <trkpt lat="44.87349" lon="5.52535">
        <ele>2226.3</ele>
        <time>2022-01-19T12:22:46Z</time>
      </trkpt>
      <trkpt lat="44.87349" lon="5.52535">
        <ele>2226.3</ele>
        <time>2022-01-19T12:22:47Z</time>
      </trkpt>
      <trkpt lat="44.87349" lon="5.52535">
        <ele>2226.3</ele>
        <time>2022-01-19T12:22:48Z</time>
      </trkpt>
      <trkpt lat="44.87349" lon="5.52535">
        <ele>2226.3</ele>
        <time>2022-01-19T12:22:49Z</time>
      </trkpt>
      <trkpt lat="44.87349" lon="5.52535">
        <ele>2226.3</ele>
        <time>2022-01-19T12:22:50Z</time>
      </trkpt>
      <trkpt lat="44.87349" lon="5.52535">
        <ele>2226.3</ele>
        <time>2022-01-19T12:22:51Z</time>
      </trkpt>
      <trkpt lat="44.87349" lon="5.52535">
        <ele>2226.3</ele>
        <time>2022-01-19T12:22:52Z</time>
      </trkpt>
      <trkpt lat="44.87349" lon="5.52535">
        <ele>2226.3</ele>
        <time>2022-01-19T12:22:53Z</time>
      </trkpt>
      <trkpt lat="44.87349" lon="5.52535">
        <ele>2226.3</ele>
        <time>2022-01-19T12:22:54Z</time>
      </trkpt>
      <trkpt lat="44.87349" lon="5.52535">
        <ele>2226.3</ele>
        <time>2022-01-19T12:22:55Z</time>
      </trkpt>
      <trkpt lat="44.87349" lon="5.52535">
        <ele>2226.3</ele>
        <time>2022-01-19T12:22:56Z</time>
      </trkpt>
      <trkpt lat="44.87349" lon="5.52535">
        <ele>2226.3</ele>
        <time>2022-01-19T12:22:57Z</time>
      </trkpt>
      <trkpt lat="44.87349" lon="5.52535">
        <ele>2226.3</ele>
        <time>2022-01-19T12:22:58Z</time>
      </trkpt>
      <trkpt lat="44.87349" lon="5.52535">
        <ele>2226.3</ele>
        <time>2022-01-19T12:22:59Z</time>
      </trkpt>
      <trkpt lat="44.87349" lon="5.52535">
        <ele>2226.3</ele>
        <time>2022-01-19T12:23:00Z</time>
      </trkpt>
      <trkpt lat="44.87349" lon="5.52535">
        <ele>2226.3</ele>
        <time>2022-01-19T12:23:01Z</time>
      </trkpt>
      <trkpt lat="44.87349" lon="5.52535">
        <ele>2226.3</ele>
        <time>2022-01-19T12:23:02Z</time>
      </trkpt>
      <trkpt lat="44.87349" lon="5.52535">
        <ele>2226.3</ele>
        <time>2022-01-19T12:23:03Z</time>
      </trkpt>
      <trkpt lat="44.87349" lon="5.52535">
        <ele>2226.3</ele>
        <time>2022-01-19T12:23:04Z</time>
      </trkpt>
      <trkpt lat="44.87349" lon="5.52535">
        <ele>2226.3</ele>
        <time>2022-01-19T12:23:05Z</time>
      </trkpt>
      <trkpt lat="44.87349" lon="5.52535">
        <ele>2226.3</ele>
        <time>2022-01-19T12:23:06Z</time>
      </trkpt>
      <trkpt lat="44.87349" lon="5.52535">
        <ele>2226.3</ele>
        <time>2022-01-19T12:23:07Z</time>
      </trkpt>
      <trkpt lat="44.87349" lon="5.52535">
        <ele>2226.3</ele>
        <time>2022-01-19T12:23:08Z</time>
      </trkpt>
      <trkpt lat="44.87349" lon="5.52535">
        <ele>2226.3</ele>
        <time>2022-01-19T12:23:09Z</time>
      </trkpt>
      <trkpt lat="44.87349" lon="5.52535">
        <ele>2226.3</ele>
        <time>2022-01-19T12:23:10Z</time>
      </trkpt>
      <trkpt lat="44.87349" lon="5.52535">
        <ele>2226.3</ele>
        <time>2022-01-19T12:23:11Z</time>
      </trkpt>
      <trkpt lat="44.87349" lon="5.52535">
        <ele>2226.3</ele>
        <time>2022-01-19T12:23:12Z</time>
      </trkpt>
      <trkpt lat="44.87349" lon="5.52535">
        <ele>2226.3</ele>
        <time>2022-01-19T12:23:13Z</time>
      </trkpt>
      <trkpt lat="44.87349" lon="5.52535">
        <ele>2226.3</ele>
        <time>2022-01-19T12:23:14Z</time>
      </trkpt>
      <trkpt lat="44.87349" lon="5.52535">
        <ele>2226.3</ele>
        <time>2022-01-19T12:23:15Z</time>
      </trkpt>
      <trkpt lat="44.87349" lon="5.52535">
        <ele>2226.3</ele>
        <time>2022-01-19T12:23:16Z</time>
      </trkpt>
      <trkpt lat="44.87349" lon="5.52535">
        <ele>2226.3</ele>
        <time>2022-01-19T12:23:17Z</time>
      </trkpt>
      <trkpt lat="44.87349" lon="5.52535">
        <ele>2226.3</ele>
        <time>2022-01-19T12:23:18Z</time>
      </trkpt>
      <trkpt lat="44.87349" lon="5.52535">
        <ele>2226.3</ele>
        <time>2022-01-19T12:23:19Z</time>
      </trkpt>
      <trkpt lat="44.87349" lon="5.52535">
        <ele>2226.3</ele>
        <time>2022-01-19T12:23:20Z</time>
      </trkpt>
      <trkpt lat="44.87349" lon="5.52535">
        <ele>2226.3</ele>
        <time>2022-01-19T12:23:21Z</time>
      </trkpt>
      <trkpt lat="44.87349" lon="5.52535">
        <ele>2226.3</ele>
        <time>2022-01-19T12:23:22Z</time>
      </trkpt>
      <trkpt lat="44.87349" lon="5.52535">
        <ele>2226.3</ele>
        <time>2022-01-19T12:23:23Z</time>
      </trkpt>
      <trkpt lat="44.87349" lon="5.52535">
        <ele>2226.3</ele>
        <time>2022-01-19T12:23:24Z</time>
      </trkpt>
      <trkpt lat="44.87349" lon="5.52535">
        <ele>2226.3</ele>
        <time>2022-01-19T12:23:25Z</time>
      </trkpt>
      <trkpt lat="44.87349" lon="5.52535">
        <ele>2226.3</ele>
        <time>2022-01-19T12:23:26Z</time>
      </trkpt>
      <trkpt lat="44.87349" lon="5.52535">
        <ele>2226.3</ele>
        <time>2022-01-19T12:23:27Z</time>
      </trkpt>
      <trkpt lat="44.87349" lon="5.52535">
        <ele>2226.3</ele>
        <time>2022-01-19T12:23:28Z</time>
      </trkpt>
      <trkpt lat="44.87349" lon="5.52535">
        <ele>2226.3</ele>
        <time>2022-01-19T12:23:29Z</time>
      </trkpt>
      <trkpt lat="44.87349" lon="5.52535">
        <ele>2226.3</ele>
        <time>2022-01-19T12:23:30Z</time>
      </trkpt>
      <trkpt lat="44.87349" lon="5.52535">
        <ele>2226.3</ele>
        <time>2022-01-19T12:23:31Z</time>
      </trkpt>
      <trkpt lat="44.87349" lon="5.52535">
        <ele>2226.3</ele>
        <time>2022-01-19T12:23:32Z</time>
      </trkpt>
      <trkpt lat="44.87349" lon="5.52535">
        <ele>2226.3</ele>
        <time>2022-01-19T12:23:33Z</time>
      </trkpt>
      <trkpt lat="44.87349" lon="5.52535">
        <ele>2226.3</ele>
        <time>2022-01-19T12:23:34Z</time>
      </trkpt>
      <trkpt lat="44.87349" lon="5.52535">
        <ele>2226.3</ele>
        <time>2022-01-19T12:23:35Z</time>
      </trkpt>
      <trkpt lat="44.87349" lon="5.52535">
        <ele>2226.3</ele>
        <time>2022-01-19T12:23:36Z</time>
      </trkpt>
      <trkpt lat="44.87349" lon="5.52535">
        <ele>2226.3</ele>
        <time>2022-01-19T12:23:37Z</time>
      </trkpt>
      <trkpt lat="44.87349" lon="5.52535">
        <ele>2226.3</ele>
        <time>2022-01-19T12:23:38Z</time>
      </trkpt>
      <trkpt lat="44.87349" lon="5.52535">
        <ele>2226.3</ele>
        <time>2022-01-19T12:23:39Z</time>
      </trkpt>
      <trkpt lat="44.87349" lon="5.52535">
        <ele>2226.3</ele>
        <time>2022-01-19T12:23:40Z</time>
      </trkpt>
      <trkpt lat="44.87349" lon="5.52535">
        <ele>2226.3</ele>
        <time>2022-01-19T12:23:41Z</time>
      </trkpt>
      <trkpt lat="44.87349" lon="5.52535">
        <ele>2226.3</ele>
        <time>2022-01-19T12:23:42Z</time>
      </trkpt>
      <trkpt lat="44.87349" lon="5.52535">
        <ele>2226.3</ele>
        <time>2022-01-19T12:23:43Z</time>
      </trkpt>
      <trkpt lat="44.87349" lon="5.52535">
        <ele>2226.3</ele>
        <time>2022-01-19T12:23:44Z</time>
      </trkpt>
      <trkpt lat="44.87349" lon="5.52535">
        <ele>2226.3</ele>
        <time>2022-01-19T12:23:45Z</time>
      </trkpt>
      <trkpt lat="44.87349" lon="5.52535">
        <ele>2226.3</ele>
        <time>2022-01-19T12:23:46Z</time>
      </trkpt>
      <trkpt lat="44.87349" lon="5.52535">
        <ele>2226.3</ele>
        <time>2022-01-19T12:23:47Z</time>
      </trkpt>
      <trkpt lat="44.87349" lon="5.52535">
        <ele>2226.3</ele>
        <time>2022-01-19T12:23:48Z</time>
      </trkpt>
      <trkpt lat="44.87349" lon="5.52535">
        <ele>2226.3</ele>
        <time>2022-01-19T12:23:49Z</time>
      </trkpt>
      <trkpt lat="44.87349" lon="5.52535">
        <ele>2226.3</ele>
        <time>2022-01-19T12:23:50Z</time>
      </trkpt>
      <trkpt lat="44.87349" lon="5.52535">
        <ele>2226.3</ele>
        <time>2022-01-19T12:23:51Z</time>
      </trkpt>
      <trkpt lat="44.87349" lon="5.52535">
        <ele>2226.3</ele>
        <time>2022-01-19T12:23:52Z</time>
      </trkpt>
      <trkpt lat="44.87349" lon="5.52535">
        <ele>2226.3</ele>
        <time>2022-01-19T12:23:53Z</time>
      </trkpt>
      <trkpt lat="44.87349" lon="5.52535">
        <ele>2226.3</ele>
        <time>2022-01-19T12:23:54Z</time>
      </trkpt>
      <trkpt lat="44.87349" lon="5.52535">
        <ele>2226.3</ele>
        <time>2022-01-19T12:23:55Z</time>
      </trkpt>
      <trkpt lat="44.87349" lon="5.52535">
        <ele>2226.3</ele>
        <time>2022-01-19T12:23:56Z</time>
      </trkpt>
      <trkpt lat="44.87349" lon="5.52535">
        <ele>2226.3</ele>
        <time>2022-01-19T12:23:57Z</time>
      </trkpt>
      <trkpt lat="44.87349" lon="5.52535">
        <ele>2226.3</ele>
        <time>2022-01-19T12:23:58Z</time>
      </trkpt>
      <trkpt lat="44.87349" lon="5.52535">
        <ele>2226.3</ele>
        <time>2022-01-19T12:23:59Z</time>
      </trkpt>
      <trkpt lat="44.87349" lon="5.52535">
        <ele>2226.3</ele>
        <time>2022-01-19T12:24:00Z</time>
      </trkpt>
      <trkpt lat="44.87349" lon="5.52535">
        <ele>2226.3</ele>
        <time>2022-01-19T12:24:01Z</time>
      </trkpt>
      <trkpt lat="44.87349" lon="5.52535">
        <ele>2226.3</ele>
        <time>2022-01-19T12:24:02Z</time>
      </trkpt>
      <trkpt lat="44.87349" lon="5.52535">
        <ele>2226.3</ele>
        <time>2022-01-19T12:24:03Z</time>
      </trkpt>
      <trkpt lat="44.87349" lon="5.52535">
        <ele>2226.3</ele>
        <time>2022-01-19T12:24:04Z</time>
      </trkpt>
      <trkpt lat="44.87349" lon="5.52534">
        <ele>2226.2</ele>
        <time>2022-01-19T12:24:05Z</time>
      </trkpt>
      <trkpt lat="44.87349" lon="5.52534">
        <ele>2226.1</ele>
        <time>2022-01-19T12:24:06Z</time>
      </trkpt>
      <trkpt lat="44.87349" lon="5.52533">
        <ele>2226.1</ele>
        <time>2022-01-19T12:24:07Z</time>
      </trkpt>
      <trkpt lat="44.87351" lon="5.52533">
        <ele>2225.8</ele>
        <time>2022-01-19T12:24:08Z</time>
      </trkpt>
      <trkpt lat="44.8735" lon="5.52532">
        <ele>2225.6</ele>
        <time>2022-01-19T12:24:09Z</time>
      </trkpt>
      <trkpt lat="44.87349" lon="5.52532">
        <ele>2225.5</ele>
        <time>2022-01-19T12:24:10Z</time>
      </trkpt>
      <trkpt lat="44.87349" lon="5.52533">
        <ele>2225.4</ele>
        <time>2022-01-19T12:24:11Z</time>
      </trkpt>
      <trkpt lat="44.87349" lon="5.52533">
        <ele>2225.3</ele>
        <time>2022-01-19T12:24:12Z</time>
      </trkpt>
      <trkpt lat="44.87349" lon="5.52534">
        <ele>2225.3</ele>
        <time>2022-01-19T12:24:13Z</time>
      </trkpt>
      <trkpt lat="44.87349" lon="5.52534">
        <ele>2225.3</ele>
        <time>2022-01-19T12:24:14Z</time>
      </trkpt>
      <trkpt lat="44.87349" lon="5.52534">
        <ele>2225.2</ele>
        <time>2022-01-19T12:24:15Z</time>
      </trkpt>
      <trkpt lat="44.8735" lon="5.52534">
        <ele>2225.1</ele>
        <time>2022-01-19T12:24:16Z</time>
      </trkpt>
      <trkpt lat="44.8735" lon="5.52535">
        <ele>2225.1</ele>
        <time>2022-01-19T12:24:17Z</time>
      </trkpt>
      <trkpt lat="44.8735" lon="5.52535">
        <ele>2225</ele>
        <time>2022-01-19T12:24:18Z</time>
      </trkpt>
      <trkpt lat="44.87351" lon="5.52535">
        <ele>2225</ele>
        <time>2022-01-19T12:24:19Z</time>
      </trkpt>
      <trkpt lat="44.8735" lon="5.52535">
        <ele>2224.9</ele>
        <time>2022-01-19T12:24:20Z</time>
      </trkpt>
      <trkpt lat="44.8735" lon="5.52536">
        <ele>2224.9</ele>
        <time>2022-01-19T12:24:21Z</time>
      </trkpt>
      <trkpt lat="44.8735" lon="5.52536">
        <ele>2224.9</ele>
        <time>2022-01-19T12:24:22Z</time>
      </trkpt>
      <trkpt lat="44.8735" lon="5.52536">
        <ele>2224.9</ele>
        <time>2022-01-19T12:24:23Z</time>
      </trkpt>
      <trkpt lat="44.87351" lon="5.52536">
        <ele>2224.8</ele>
        <time>2022-01-19T12:24:24Z</time>
      </trkpt>
      <trkpt lat="44.87351" lon="5.52536">
        <ele>2224.8</ele>
        <time>2022-01-19T12:24:25Z</time>
      </trkpt>
      <trkpt lat="44.87351" lon="5.52536">
        <ele>2224.8</ele>
        <time>2022-01-19T12:24:26Z</time>
      </trkpt>
      <trkpt lat="44.87351" lon="5.52536">
        <ele>2224.8</ele>
        <time>2022-01-19T12:24:27Z</time>
      </trkpt>
      <trkpt lat="44.87351" lon="5.52536">
        <ele>2224.7</ele>
        <time>2022-01-19T12:24:28Z</time>
      </trkpt>
      <trkpt lat="44.87351" lon="5.52536">
        <ele>2224.7</ele>
        <time>2022-01-19T12:24:29Z</time>
      </trkpt>
      <trkpt lat="44.87351" lon="5.52536">
        <ele>2224.7</ele>
        <time>2022-01-19T12:24:30Z</time>
      </trkpt>
      <trkpt lat="44.87352" lon="5.52536">
        <ele>2224.6</ele>
        <time>2022-01-19T12:24:31Z</time>
      </trkpt>
      <trkpt lat="44.87351" lon="5.52536">
        <ele>2224.6</ele>
        <time>2022-01-19T12:24:32Z</time>
      </trkpt>
      <trkpt lat="44.87351" lon="5.52536">
        <ele>2224.5</ele>
        <time>2022-01-19T12:24:33Z</time>
      </trkpt>
      <trkpt lat="44.87351" lon="5.52536">
        <ele>2224.5</ele>
        <time>2022-01-19T12:24:34Z</time>
      </trkpt>
      <trkpt lat="44.87351" lon="5.52536">
        <ele>2224.5</ele>
        <time>2022-01-19T12:24:35Z</time>
      </trkpt>
      <trkpt lat="44.87351" lon="5.52536">
        <ele>2224.5</ele>
        <time>2022-01-19T12:24:36Z</time>
      </trkpt>
      <trkpt lat="44.87351" lon="5.52536">
        <ele>2224.4</ele>
        <time>2022-01-19T12:24:37Z</time>
      </trkpt>
      <trkpt lat="44.87351" lon="5.52536">
        <ele>2224.4</ele>
        <time>2022-01-19T12:24:38Z</time>
      </trkpt>
      <trkpt lat="44.87351" lon="5.52536">
        <ele>2224.4</ele>
        <time>2022-01-19T12:24:39Z</time>
      </trkpt>
      <trkpt lat="44.87351" lon="5.52536">
        <ele>2224.4</ele>
        <time>2022-01-19T12:24:40Z</time>
      </trkpt>
      <trkpt lat="44.87351" lon="5.52536">
        <ele>2224.4</ele>
        <time>2022-01-19T12:24:41Z</time>
      </trkpt>
      <trkpt lat="44.87351" lon="5.52536">
        <ele>2224.4</ele>
        <time>2022-01-19T12:24:42Z</time>
      </trkpt>
      <trkpt lat="44.87351" lon="5.52536">
        <ele>2224.4</ele>
        <time>2022-01-19T12:24:43Z</time>
      </trkpt>
      <trkpt lat="44.87351" lon="5.52536">
        <ele>2224.4</ele>
        <time>2022-01-19T12:24:44Z</time>
      </trkpt>
      <trkpt lat="44.87351" lon="5.52536">
        <ele>2224.4</ele>
        <time>2022-01-19T12:24:45Z</time>
      </trkpt>
      <trkpt lat="44.87351" lon="5.52536">
        <ele>2224.4</ele>
        <time>2022-01-19T12:24:46Z</time>
      </trkpt>
      <trkpt lat="44.87351" lon="5.52536">
        <ele>2224.4</ele>
        <time>2022-01-19T12:24:47Z</time>
      </trkpt>
      <trkpt lat="44.87351" lon="5.52536">
        <ele>2224.4</ele>
        <time>2022-01-19T12:24:48Z</time>
      </trkpt>
      <trkpt lat="44.87351" lon="5.52536">
        <ele>2224.4</ele>
        <time>2022-01-19T12:24:49Z</time>
      </trkpt>
      <trkpt lat="44.87351" lon="5.52536">
        <ele>2224.4</ele>
        <time>2022-01-19T12:24:50Z</time>
      </trkpt>
      <trkpt lat="44.87351" lon="5.52536">
        <ele>2224.4</ele>
        <time>2022-01-19T12:24:51Z</time>
      </trkpt>
      <trkpt lat="44.87351" lon="5.52536">
        <ele>2224.4</ele>
        <time>2022-01-19T12:24:52Z</time>
      </trkpt>
      <trkpt lat="44.87351" lon="5.52536">
        <ele>2224.4</ele>
        <time>2022-01-19T12:24:53Z</time>
      </trkpt>
      <trkpt lat="44.87351" lon="5.52536">
        <ele>2224.4</ele>
        <time>2022-01-19T12:24:54Z</time>
      </trkpt>
      <trkpt lat="44.87351" lon="5.52536">
        <ele>2224.4</ele>
        <time>2022-01-19T12:24:55Z</time>
      </trkpt>
      <trkpt lat="44.87351" lon="5.52536">
        <ele>2224.4</ele>
        <time>2022-01-19T12:24:56Z</time>
      </trkpt>
      <trkpt lat="44.87351" lon="5.52536">
        <ele>2224.4</ele>
        <time>2022-01-19T12:24:57Z</time>
      </trkpt>
      <trkpt lat="44.87351" lon="5.52536">
        <ele>2224.4</ele>
        <time>2022-01-19T12:24:58Z</time>
      </trkpt>
      <trkpt lat="44.87351" lon="5.52536">
        <ele>2224.4</ele>
        <time>2022-01-19T12:24:59Z</time>
      </trkpt>
      <trkpt lat="44.87351" lon="5.52536">
        <ele>2224.4</ele>
        <time>2022-01-19T12:25:00Z</time>
      </trkpt>
      <trkpt lat="44.87351" lon="5.52536">
        <ele>2224.4</ele>
        <time>2022-01-19T12:25:01Z</time>
      </trkpt>
      <trkpt lat="44.87351" lon="5.52536">
        <ele>2224.4</ele>
        <time>2022-01-19T12:25:02Z</time>
      </trkpt>
      <trkpt lat="44.87351" lon="5.52536">
        <ele>2224.4</ele>
        <time>2022-01-19T12:25:03Z</time>
      </trkpt>
      <trkpt lat="44.87351" lon="5.52536">
        <ele>2224.4</ele>
        <time>2022-01-19T12:25:04Z</time>
      </trkpt>
      <trkpt lat="44.87351" lon="5.52536">
        <ele>2224.4</ele>
        <time>2022-01-19T12:25:05Z</time>
      </trkpt>
      <trkpt lat="44.87351" lon="5.52536">
        <ele>2224.4</ele>
        <time>2022-01-19T12:25:06Z</time>
      </trkpt>
      <trkpt lat="44.87351" lon="5.52536">
        <ele>2224.4</ele>
        <time>2022-01-19T12:25:07Z</time>
      </trkpt>
      <trkpt lat="44.87351" lon="5.52536">
        <ele>2224.4</ele>
        <time>2022-01-19T12:25:08Z</time>
      </trkpt>
      <trkpt lat="44.87351" lon="5.52536">
        <ele>2224.4</ele>
        <time>2022-01-19T12:25:09Z</time>
      </trkpt>
      <trkpt lat="44.87351" lon="5.52536">
        <ele>2224.4</ele>
        <time>2022-01-19T12:25:10Z</time>
      </trkpt>
      <trkpt lat="44.87351" lon="5.52536">
        <ele>2224.4</ele>
        <time>2022-01-19T12:25:11Z</time>
      </trkpt>
      <trkpt lat="44.87351" lon="5.52536">
        <ele>2224.4</ele>
        <time>2022-01-19T12:25:12Z</time>
      </trkpt>
      <trkpt lat="44.87351" lon="5.52536">
        <ele>2224.4</ele>
        <time>2022-01-19T12:25:13Z</time>
      </trkpt>
      <trkpt lat="44.87351" lon="5.52536">
        <ele>2224.4</ele>
        <time>2022-01-19T12:25:14Z</time>
      </trkpt>
      <trkpt lat="44.87351" lon="5.52536">
        <ele>2224.4</ele>
        <time>2022-01-19T12:25:15Z</time>
      </trkpt>
      <trkpt lat="44.87351" lon="5.52536">
        <ele>2224.4</ele>
        <time>2022-01-19T12:25:16Z</time>
      </trkpt>
      <trkpt lat="44.87351" lon="5.52536">
        <ele>2224.4</ele>
        <time>2022-01-19T12:25:17Z</time>
      </trkpt>
      <trkpt lat="44.87351" lon="5.52536">
        <ele>2224.4</ele>
        <time>2022-01-19T12:25:18Z</time>
      </trkpt>
      <trkpt lat="44.87351" lon="5.52536">
        <ele>2224.4</ele>
        <time>2022-01-19T12:25:19Z</time>
      </trkpt>
      <trkpt lat="44.87351" lon="5.52536">
        <ele>2224.4</ele>
        <time>2022-01-19T12:25:20Z</time>
      </trkpt>
      <trkpt lat="44.87351" lon="5.52536">
        <ele>2224.4</ele>
        <time>2022-01-19T12:25:21Z</time>
      </trkpt>
      <trkpt lat="44.87351" lon="5.52536">
        <ele>2224.4</ele>
        <time>2022-01-19T12:25:22Z</time>
      </trkpt>
      <trkpt lat="44.87351" lon="5.52536">
        <ele>2224.4</ele>
        <time>2022-01-19T12:25:23Z</time>
      </trkpt>
      <trkpt lat="44.87351" lon="5.52536">
        <ele>2224.4</ele>
        <time>2022-01-19T12:25:24Z</time>
      </trkpt>
      <trkpt lat="44.87351" lon="5.52536">
        <ele>2224.4</ele>
        <time>2022-01-19T12:25:25Z</time>
      </trkpt>
      <trkpt lat="44.87351" lon="5.52536">
        <ele>2224.4</ele>
        <time>2022-01-19T12:25:26Z</time>
      </trkpt>
      <trkpt lat="44.87351" lon="5.52536">
        <ele>2224.4</ele>
        <time>2022-01-19T12:25:27Z</time>
      </trkpt>
      <trkpt lat="44.87351" lon="5.52536">
        <ele>2224.4</ele>
        <time>2022-01-19T12:25:28Z</time>
      </trkpt>
      <trkpt lat="44.87351" lon="5.52536">
        <ele>2224.4</ele>
        <time>2022-01-19T12:25:29Z</time>
      </trkpt>
      <trkpt lat="44.87351" lon="5.52536">
        <ele>2224.4</ele>
        <time>2022-01-19T12:25:30Z</time>
      </trkpt>
      <trkpt lat="44.87351" lon="5.52536">
        <ele>2224.4</ele>
        <time>2022-01-19T12:25:31Z</time>
      </trkpt>
      <trkpt lat="44.87351" lon="5.52536">
        <ele>2224.4</ele>
        <time>2022-01-19T12:25:32Z</time>
      </trkpt>
      <trkpt lat="44.87351" lon="5.52536">
        <ele>2224.4</ele>
        <time>2022-01-19T12:25:33Z</time>
      </trkpt>
      <trkpt lat="44.87351" lon="5.52536">
        <ele>2224.4</ele>
        <time>2022-01-19T12:25:34Z</time>
      </trkpt>
      <trkpt lat="44.87351" lon="5.52536">
        <ele>2224.4</ele>
        <time>2022-01-19T12:25:35Z</time>
      </trkpt>
      <trkpt lat="44.87351" lon="5.52536">
        <ele>2224.4</ele>
        <time>2022-01-19T12:25:36Z</time>
      </trkpt>
      <trkpt lat="44.87351" lon="5.52536">
        <ele>2224.4</ele>
        <time>2022-01-19T12:25:37Z</time>
      </trkpt>
      <trkpt lat="44.87351" lon="5.52536">
        <ele>2224.4</ele>
        <time>2022-01-19T12:25:38Z</time>
      </trkpt>
      <trkpt lat="44.87351" lon="5.52536">
        <ele>2224.4</ele>
        <time>2022-01-19T12:25:39Z</time>
      </trkpt>
      <trkpt lat="44.87351" lon="5.52536">
        <ele>2224.4</ele>
        <time>2022-01-19T12:25:40Z</time>
      </trkpt>
      <trkpt lat="44.87351" lon="5.52536">
        <ele>2224.4</ele>
        <time>2022-01-19T12:25:41Z</time>
      </trkpt>
      <trkpt lat="44.87351" lon="5.52536">
        <ele>2224.4</ele>
        <time>2022-01-19T12:25:42Z</time>
      </trkpt>
      <trkpt lat="44.87351" lon="5.52536">
        <ele>2224.4</ele>
        <time>2022-01-19T12:25:43Z</time>
      </trkpt>
      <trkpt lat="44.87351" lon="5.52536">
        <ele>2224.4</ele>
        <time>2022-01-19T12:25:44Z</time>
      </trkpt>
      <trkpt lat="44.87351" lon="5.52536">
        <ele>2224.4</ele>
        <time>2022-01-19T12:25:45Z</time>
      </trkpt>
      <trkpt lat="44.87351" lon="5.52536">
        <ele>2224.4</ele>
        <time>2022-01-19T12:25:46Z</time>
      </trkpt>
      <trkpt lat="44.87351" lon="5.52536">
        <ele>2224.4</ele>
        <time>2022-01-19T12:25:47Z</time>
      </trkpt>
      <trkpt lat="44.87351" lon="5.52536">
        <ele>2224.4</ele>
        <time>2022-01-19T12:25:48Z</time>
      </trkpt>
      <trkpt lat="44.87351" lon="5.52536">
        <ele>2224.4</ele>
        <time>2022-01-19T12:25:49Z</time>
      </trkpt>
      <trkpt lat="44.87351" lon="5.52536">
        <ele>2224.4</ele>
        <time>2022-01-19T12:25:50Z</time>
      </trkpt>
      <trkpt lat="44.87351" lon="5.52536">
        <ele>2224.4</ele>
        <time>2022-01-19T12:25:51Z</time>
      </trkpt>
      <trkpt lat="44.87351" lon="5.52536">
        <ele>2224.4</ele>
        <time>2022-01-19T12:25:52Z</time>
      </trkpt>
      <trkpt lat="44.87351" lon="5.52536">
        <ele>2224.4</ele>
        <time>2022-01-19T12:25:53Z</time>
      </trkpt>
      <trkpt lat="44.87351" lon="5.52536">
        <ele>2224.4</ele>
        <time>2022-01-19T12:25:54Z</time>
      </trkpt>
      <trkpt lat="44.87351" lon="5.52536">
        <ele>2224.4</ele>
        <time>2022-01-19T12:25:55Z</time>
      </trkpt>
      <trkpt lat="44.87351" lon="5.52536">
        <ele>2224.4</ele>
        <time>2022-01-19T12:25:56Z</time>
      </trkpt>
      <trkpt lat="44.87351" lon="5.52536">
        <ele>2224.4</ele>
        <time>2022-01-19T12:25:57Z</time>
      </trkpt>
      <trkpt lat="44.87351" lon="5.52536">
        <ele>2224.4</ele>
        <time>2022-01-19T12:25:58Z</time>
      </trkpt>
      <trkpt lat="44.87351" lon="5.52536">
        <ele>2224.4</ele>
        <time>2022-01-19T12:25:59Z</time>
      </trkpt>
      <trkpt lat="44.87351" lon="5.52536">
        <ele>2224.4</ele>
        <time>2022-01-19T12:26:00Z</time>
      </trkpt>
      <trkpt lat="44.87351" lon="5.52536">
        <ele>2224.4</ele>
        <time>2022-01-19T12:26:01Z</time>
      </trkpt>
      <trkpt lat="44.87351" lon="5.52536">
        <ele>2224.4</ele>
        <time>2022-01-19T12:26:02Z</time>
      </trkpt>
      <trkpt lat="44.87351" lon="5.52536">
        <ele>2224.4</ele>
        <time>2022-01-19T12:26:03Z</time>
      </trkpt>
      <trkpt lat="44.87351" lon="5.52536">
        <ele>2224.4</ele>
        <time>2022-01-19T12:26:04Z</time>
      </trkpt>
      <trkpt lat="44.87351" lon="5.52536">
        <ele>2224.4</ele>
        <time>2022-01-19T12:26:05Z</time>
      </trkpt>
      <trkpt lat="44.87351" lon="5.52536">
        <ele>2224.4</ele>
        <time>2022-01-19T12:26:06Z</time>
      </trkpt>
      <trkpt lat="44.87351" lon="5.52536">
        <ele>2224.4</ele>
        <time>2022-01-19T12:26:07Z</time>
      </trkpt>
      <trkpt lat="44.87351" lon="5.52536">
        <ele>2224.4</ele>
        <time>2022-01-19T12:26:08Z</time>
      </trkpt>
      <trkpt lat="44.87351" lon="5.52536">
        <ele>2224.4</ele>
        <time>2022-01-19T12:26:09Z</time>
      </trkpt>
      <trkpt lat="44.87351" lon="5.52536">
        <ele>2224.4</ele>
        <time>2022-01-19T12:26:10Z</time>
      </trkpt>
      <trkpt lat="44.87351" lon="5.52536">
        <ele>2224.4</ele>
        <time>2022-01-19T12:26:11Z</time>
      </trkpt>
      <trkpt lat="44.87351" lon="5.52536">
        <ele>2224.4</ele>
        <time>2022-01-19T12:26:12Z</time>
      </trkpt>
      <trkpt lat="44.87351" lon="5.52536">
        <ele>2224.4</ele>
        <time>2022-01-19T12:26:13Z</time>
      </trkpt>
      <trkpt lat="44.87351" lon="5.52536">
        <ele>2224.4</ele>
        <time>2022-01-19T12:26:14Z</time>
      </trkpt>
      <trkpt lat="44.87351" lon="5.52536">
        <ele>2224.4</ele>
        <time>2022-01-19T12:26:15Z</time>
      </trkpt>
      <trkpt lat="44.87351" lon="5.52536">
        <ele>2224.4</ele>
        <time>2022-01-19T12:26:16Z</time>
      </trkpt>
      <trkpt lat="44.87351" lon="5.52536">
        <ele>2224.4</ele>
        <time>2022-01-19T12:26:17Z</time>
      </trkpt>
      <trkpt lat="44.87351" lon="5.52536">
        <ele>2224.4</ele>
        <time>2022-01-19T12:26:18Z</time>
      </trkpt>
      <trkpt lat="44.87351" lon="5.52536">
        <ele>2224.4</ele>
        <time>2022-01-19T12:26:19Z</time>
      </trkpt>
      <trkpt lat="44.87351" lon="5.52536">
        <ele>2224.4</ele>
        <time>2022-01-19T12:26:20Z</time>
      </trkpt>
      <trkpt lat="44.87351" lon="5.52536">
        <ele>2224.4</ele>
        <time>2022-01-19T12:26:21Z</time>
      </trkpt>
      <trkpt lat="44.87351" lon="5.52536">
        <ele>2224.4</ele>
        <time>2022-01-19T12:26:22Z</time>
      </trkpt>
      <trkpt lat="44.87351" lon="5.52536">
        <ele>2224.4</ele>
        <time>2022-01-19T12:26:23Z</time>
      </trkpt>
      <trkpt lat="44.87351" lon="5.52536">
        <ele>2224.4</ele>
        <time>2022-01-19T12:26:24Z</time>
      </trkpt>
      <trkpt lat="44.87351" lon="5.52536">
        <ele>2224.4</ele>
        <time>2022-01-19T12:26:25Z</time>
      </trkpt>
      <trkpt lat="44.87351" lon="5.52536">
        <ele>2224.4</ele>
        <time>2022-01-19T12:26:26Z</time>
      </trkpt>
      <trkpt lat="44.87351" lon="5.52536">
        <ele>2224.4</ele>
        <time>2022-01-19T12:26:27Z</time>
      </trkpt>
      <trkpt lat="44.87351" lon="5.52536">
        <ele>2224.4</ele>
        <time>2022-01-19T12:26:28Z</time>
      </trkpt>
      <trkpt lat="44.87351" lon="5.52536">
        <ele>2224.4</ele>
        <time>2022-01-19T12:26:29Z</time>
      </trkpt>
      <trkpt lat="44.87351" lon="5.52536">
        <ele>2224.4</ele>
        <time>2022-01-19T12:26:30Z</time>
      </trkpt>
      <trkpt lat="44.87351" lon="5.52536">
        <ele>2224.4</ele>
        <time>2022-01-19T12:26:31Z</time>
      </trkpt>
      <trkpt lat="44.87351" lon="5.52536">
        <ele>2224.4</ele>
        <time>2022-01-19T12:26:32Z</time>
      </trkpt>
      <trkpt lat="44.87351" lon="5.52536">
        <ele>2224.4</ele>
        <time>2022-01-19T12:26:33Z</time>
      </trkpt>
      <trkpt lat="44.87351" lon="5.52536">
        <ele>2224.4</ele>
        <time>2022-01-19T12:26:34Z</time>
      </trkpt>
      <trkpt lat="44.87351" lon="5.52536">
        <ele>2224.4</ele>
        <time>2022-01-19T12:26:35Z</time>
      </trkpt>
      <trkpt lat="44.87351" lon="5.52536">
        <ele>2224.4</ele>
        <time>2022-01-19T12:26:36Z</time>
      </trkpt>
      <trkpt lat="44.87351" lon="5.52536">
        <ele>2224.4</ele>
        <time>2022-01-19T12:26:37Z</time>
      </trkpt>
      <trkpt lat="44.87351" lon="5.52536">
        <ele>2224.4</ele>
        <time>2022-01-19T12:26:38Z</time>
      </trkpt>
      <trkpt lat="44.87351" lon="5.52536">
        <ele>2224.4</ele>
        <time>2022-01-19T12:26:39Z</time>
      </trkpt>
      <trkpt lat="44.87351" lon="5.52536">
        <ele>2224.4</ele>
        <time>2022-01-19T12:26:40Z</time>
      </trkpt>
      <trkpt lat="44.87351" lon="5.52536">
        <ele>2224.4</ele>
        <time>2022-01-19T12:26:41Z</time>
      </trkpt>
      <trkpt lat="44.87351" lon="5.52536">
        <ele>2224.4</ele>
        <time>2022-01-19T12:26:42Z</time>
      </trkpt>
      <trkpt lat="44.87351" lon="5.52536">
        <ele>2224.4</ele>
        <time>2022-01-19T12:26:43Z</time>
      </trkpt>
      <trkpt lat="44.87351" lon="5.52536">
        <ele>2224.4</ele>
        <time>2022-01-19T12:26:44Z</time>
      </trkpt>
      <trkpt lat="44.87351" lon="5.52536">
        <ele>2224.4</ele>
        <time>2022-01-19T12:26:45Z</time>
      </trkpt>
      <trkpt lat="44.87351" lon="5.52536">
        <ele>2224.4</ele>
        <time>2022-01-19T12:26:46Z</time>
      </trkpt>
      <trkpt lat="44.87351" lon="5.52536">
        <ele>2224.4</ele>
        <time>2022-01-19T12:26:47Z</time>
      </trkpt>
      <trkpt lat="44.87351" lon="5.52536">
        <ele>2224.4</ele>
        <time>2022-01-19T12:26:48Z</time>
      </trkpt>
      <trkpt lat="44.87351" lon="5.52536">
        <ele>2224.4</ele>
        <time>2022-01-19T12:26:49Z</time>
      </trkpt>
      <trkpt lat="44.87351" lon="5.52536">
        <ele>2224.4</ele>
        <time>2022-01-19T12:26:50Z</time>
      </trkpt>
      <trkpt lat="44.87351" lon="5.52536">
        <ele>2224.4</ele>
        <time>2022-01-19T12:26:51Z</time>
      </trkpt>
      <trkpt lat="44.87351" lon="5.52536">
        <ele>2224.4</ele>
        <time>2022-01-19T12:26:52Z</time>
      </trkpt>
      <trkpt lat="44.87351" lon="5.52536">
        <ele>2224.4</ele>
        <time>2022-01-19T12:26:53Z</time>
      </trkpt>
      <trkpt lat="44.87351" lon="5.52536">
        <ele>2224.4</ele>
        <time>2022-01-19T12:26:54Z</time>
      </trkpt>
      <trkpt lat="44.87351" lon="5.52536">
        <ele>2224.4</ele>
        <time>2022-01-19T12:26:55Z</time>
      </trkpt>
      <trkpt lat="44.87351" lon="5.52536">
        <ele>2224.4</ele>
        <time>2022-01-19T12:26:56Z</time>
      </trkpt>
      <trkpt lat="44.87351" lon="5.52536">
        <ele>2224.4</ele>
        <time>2022-01-19T12:26:57Z</time>
      </trkpt>
      <trkpt lat="44.87351" lon="5.52536">
        <ele>2224.4</ele>
        <time>2022-01-19T12:26:58Z</time>
      </trkpt>
      <trkpt lat="44.87351" lon="5.52536">
        <ele>2224.4</ele>
        <time>2022-01-19T12:26:59Z</time>
      </trkpt>
      <trkpt lat="44.87351" lon="5.52536">
        <ele>2224.4</ele>
        <time>2022-01-19T12:27:00Z</time>
      </trkpt>
      <trkpt lat="44.87351" lon="5.52536">
        <ele>2224.4</ele>
        <time>2022-01-19T12:27:01Z</time>
      </trkpt>
      <trkpt lat="44.87351" lon="5.52536">
        <ele>2224.4</ele>
        <time>2022-01-19T12:27:02Z</time>
      </trkpt>
      <trkpt lat="44.87351" lon="5.52536">
        <ele>2224.4</ele>
        <time>2022-01-19T12:27:03Z</time>
      </trkpt>
      <trkpt lat="44.87351" lon="5.52536">
        <ele>2224.4</ele>
        <time>2022-01-19T12:27:04Z</time>
      </trkpt>
      <trkpt lat="44.87351" lon="5.52536">
        <ele>2224.4</ele>
        <time>2022-01-19T12:27:05Z</time>
      </trkpt>
      <trkpt lat="44.87351" lon="5.52536">
        <ele>2224.4</ele>
        <time>2022-01-19T12:27:06Z</time>
      </trkpt>
      <trkpt lat="44.87351" lon="5.52536">
        <ele>2224.4</ele>
        <time>2022-01-19T12:27:07Z</time>
      </trkpt>
      <trkpt lat="44.87351" lon="5.52536">
        <ele>2224.4</ele>
        <time>2022-01-19T12:27:08Z</time>
      </trkpt>
      <trkpt lat="44.87351" lon="5.52536">
        <ele>2224.4</ele>
        <time>2022-01-19T12:27:09Z</time>
      </trkpt>
      <trkpt lat="44.87351" lon="5.52536">
        <ele>2224.4</ele>
        <time>2022-01-19T12:27:10Z</time>
      </trkpt>
      <trkpt lat="44.87351" lon="5.52536">
        <ele>2224.4</ele>
        <time>2022-01-19T12:27:11Z</time>
      </trkpt>
      <trkpt lat="44.87351" lon="5.52536">
        <ele>2224.4</ele>
        <time>2022-01-19T12:27:12Z</time>
      </trkpt>
      <trkpt lat="44.87351" lon="5.52536">
        <ele>2224.4</ele>
        <time>2022-01-19T12:27:13Z</time>
      </trkpt>
      <trkpt lat="44.87351" lon="5.52536">
        <ele>2224.4</ele>
        <time>2022-01-19T12:27:14Z</time>
      </trkpt>
      <trkpt lat="44.87351" lon="5.52536">
        <ele>2224.4</ele>
        <time>2022-01-19T12:27:15Z</time>
      </trkpt>
      <trkpt lat="44.87351" lon="5.52536">
        <ele>2224.4</ele>
        <time>2022-01-19T12:27:16Z</time>
      </trkpt>
      <trkpt lat="44.87351" lon="5.52536">
        <ele>2224.4</ele>
        <time>2022-01-19T12:27:17Z</time>
      </trkpt>
      <trkpt lat="44.87351" lon="5.52536">
        <ele>2224.4</ele>
        <time>2022-01-19T12:27:18Z</time>
      </trkpt>
      <trkpt lat="44.87351" lon="5.52536">
        <ele>2224.4</ele>
        <time>2022-01-19T12:27:19Z</time>
      </trkpt>
      <trkpt lat="44.87351" lon="5.52536">
        <ele>2224.4</ele>
        <time>2022-01-19T12:27:20Z</time>
      </trkpt>
      <trkpt lat="44.87351" lon="5.52536">
        <ele>2224.4</ele>
        <time>2022-01-19T12:27:21Z</time>
      </trkpt>
      <trkpt lat="44.87351" lon="5.52536">
        <ele>2224.4</ele>
        <time>2022-01-19T12:27:22Z</time>
      </trkpt>
      <trkpt lat="44.87351" lon="5.52536">
        <ele>2224.4</ele>
        <time>2022-01-19T12:27:23Z</time>
      </trkpt>
      <trkpt lat="44.87351" lon="5.52536">
        <ele>2224.4</ele>
        <time>2022-01-19T12:27:24Z</time>
      </trkpt>
      <trkpt lat="44.87351" lon="5.52536">
        <ele>2224.4</ele>
        <time>2022-01-19T12:27:25Z</time>
      </trkpt>
      <trkpt lat="44.87351" lon="5.52536">
        <ele>2224.4</ele>
        <time>2022-01-19T12:27:26Z</time>
      </trkpt>
      <trkpt lat="44.87351" lon="5.52536">
        <ele>2224.4</ele>
        <time>2022-01-19T12:27:27Z</time>
      </trkpt>
      <trkpt lat="44.87351" lon="5.52536">
        <ele>2224.4</ele>
        <time>2022-01-19T12:27:28Z</time>
      </trkpt>
      <trkpt lat="44.87351" lon="5.52536">
        <ele>2224.4</ele>
        <time>2022-01-19T12:27:29Z</time>
      </trkpt>
      <trkpt lat="44.87351" lon="5.52536">
        <ele>2224.4</ele>
        <time>2022-01-19T12:27:30Z</time>
      </trkpt>
      <trkpt lat="44.87351" lon="5.52536">
        <ele>2224.4</ele>
        <time>2022-01-19T12:27:31Z</time>
      </trkpt>
      <trkpt lat="44.87351" lon="5.52536">
        <ele>2224.4</ele>
        <time>2022-01-19T12:27:32Z</time>
      </trkpt>
      <trkpt lat="44.87351" lon="5.52536">
        <ele>2224.4</ele>
        <time>2022-01-19T12:27:33Z</time>
      </trkpt>
      <trkpt lat="44.87351" lon="5.52536">
        <ele>2224.4</ele>
        <time>2022-01-19T12:27:34Z</time>
      </trkpt>
      <trkpt lat="44.87351" lon="5.52536">
        <ele>2224.4</ele>
        <time>2022-01-19T12:27:35Z</time>
      </trkpt>
      <trkpt lat="44.87351" lon="5.52536">
        <ele>2224.4</ele>
        <time>2022-01-19T12:27:36Z</time>
      </trkpt>
      <trkpt lat="44.87351" lon="5.52536">
        <ele>2224.4</ele>
        <time>2022-01-19T12:27:37Z</time>
      </trkpt>
      <trkpt lat="44.87351" lon="5.52536">
        <ele>2224.4</ele>
        <time>2022-01-19T12:27:38Z</time>
      </trkpt>
      <trkpt lat="44.87351" lon="5.52536">
        <ele>2224.4</ele>
        <time>2022-01-19T12:27:39Z</time>
      </trkpt>
      <trkpt lat="44.87351" lon="5.52536">
        <ele>2224.4</ele>
        <time>2022-01-19T12:27:40Z</time>
      </trkpt>
      <trkpt lat="44.87351" lon="5.52536">
        <ele>2224.4</ele>
        <time>2022-01-19T12:27:41Z</time>
      </trkpt>
      <trkpt lat="44.87351" lon="5.52536">
        <ele>2224.4</ele>
        <time>2022-01-19T12:27:42Z</time>
      </trkpt>
      <trkpt lat="44.87351" lon="5.52536">
        <ele>2224.4</ele>
        <time>2022-01-19T12:27:43Z</time>
      </trkpt>
      <trkpt lat="44.87351" lon="5.52536">
        <ele>2224.4</ele>
        <time>2022-01-19T12:27:44Z</time>
      </trkpt>
      <trkpt lat="44.87351" lon="5.52536">
        <ele>2224.4</ele>
        <time>2022-01-19T12:27:45Z</time>
      </trkpt>
      <trkpt lat="44.87351" lon="5.52536">
        <ele>2224.4</ele>
        <time>2022-01-19T12:27:46Z</time>
      </trkpt>
      <trkpt lat="44.87351" lon="5.52536">
        <ele>2224.4</ele>
        <time>2022-01-19T12:27:47Z</time>
      </trkpt>
      <trkpt lat="44.87351" lon="5.52536">
        <ele>2224.4</ele>
        <time>2022-01-19T12:27:48Z</time>
      </trkpt>
      <trkpt lat="44.87351" lon="5.52536">
        <ele>2224.4</ele>
        <time>2022-01-19T12:27:49Z</time>
      </trkpt>
      <trkpt lat="44.87351" lon="5.52536">
        <ele>2224.4</ele>
        <time>2022-01-19T12:27:50Z</time>
      </trkpt>
      <trkpt lat="44.87351" lon="5.52536">
        <ele>2224.4</ele>
        <time>2022-01-19T12:27:51Z</time>
      </trkpt>
      <trkpt lat="44.87351" lon="5.52536">
        <ele>2224.4</ele>
        <time>2022-01-19T12:27:52Z</time>
      </trkpt>
      <trkpt lat="44.87351" lon="5.52536">
        <ele>2224.4</ele>
        <time>2022-01-19T12:27:53Z</time>
      </trkpt>
      <trkpt lat="44.87351" lon="5.52536">
        <ele>2224.4</ele>
        <time>2022-01-19T12:27:54Z</time>
      </trkpt>
      <trkpt lat="44.87351" lon="5.52536">
        <ele>2224.4</ele>
        <time>2022-01-19T12:27:55Z</time>
      </trkpt>
      <trkpt lat="44.87351" lon="5.52536">
        <ele>2224.4</ele>
        <time>2022-01-19T12:27:56Z</time>
      </trkpt>
      <trkpt lat="44.87351" lon="5.52536">
        <ele>2224.4</ele>
        <time>2022-01-19T12:27:57Z</time>
      </trkpt>
      <trkpt lat="44.87351" lon="5.52536">
        <ele>2224.4</ele>
        <time>2022-01-19T12:27:58Z</time>
      </trkpt>
      <trkpt lat="44.87351" lon="5.52536">
        <ele>2224.4</ele>
        <time>2022-01-19T12:27:59Z</time>
      </trkpt>
      <trkpt lat="44.87351" lon="5.52536">
        <ele>2224.4</ele>
        <time>2022-01-19T12:28:00Z</time>
      </trkpt>
      <trkpt lat="44.87351" lon="5.52536">
        <ele>2224.4</ele>
        <time>2022-01-19T12:28:01Z</time>
      </trkpt>
      <trkpt lat="44.87351" lon="5.52536">
        <ele>2224.4</ele>
        <time>2022-01-19T12:28:02Z</time>
      </trkpt>
      <trkpt lat="44.87351" lon="5.52536">
        <ele>2224.4</ele>
        <time>2022-01-19T12:28:03Z</time>
      </trkpt>
      <trkpt lat="44.87351" lon="5.52536">
        <ele>2224.4</ele>
        <time>2022-01-19T12:28:04Z</time>
      </trkpt>
      <trkpt lat="44.87351" lon="5.52536">
        <ele>2224.4</ele>
        <time>2022-01-19T12:28:05Z</time>
      </trkpt>
      <trkpt lat="44.87351" lon="5.52536">
        <ele>2224.4</ele>
        <time>2022-01-19T12:28:06Z</time>
      </trkpt>
      <trkpt lat="44.87349" lon="5.52536">
        <ele>2224.1</ele>
        <time>2022-01-19T12:28:07Z</time>
      </trkpt>
      <trkpt lat="44.87349" lon="5.52536">
        <ele>2224.1</ele>
        <time>2022-01-19T12:28:08Z</time>
      </trkpt>
      <trkpt lat="44.8735" lon="5.52536">
        <ele>2224.1</ele>
        <time>2022-01-19T12:28:09Z</time>
      </trkpt>
      <trkpt lat="44.8735" lon="5.52536">
        <ele>2224</ele>
        <time>2022-01-19T12:28:10Z</time>
      </trkpt>
      <trkpt lat="44.8735" lon="5.52536">
        <ele>2224</ele>
        <time>2022-01-19T12:28:11Z</time>
      </trkpt>
      <trkpt lat="44.8735" lon="5.52536">
        <ele>2224</ele>
        <time>2022-01-19T12:28:12Z</time>
      </trkpt>
      <trkpt lat="44.8735" lon="5.52536">
        <ele>2224</ele>
        <time>2022-01-19T12:28:13Z</time>
      </trkpt>
      <trkpt lat="44.8735" lon="5.52536">
        <ele>2224</ele>
        <time>2022-01-19T12:28:14Z</time>
      </trkpt>
      <trkpt lat="44.8735" lon="5.52536">
        <ele>2224</ele>
        <time>2022-01-19T12:28:15Z</time>
      </trkpt>
      <trkpt lat="44.8735" lon="5.52536">
        <ele>2224</ele>
        <time>2022-01-19T12:28:16Z</time>
      </trkpt>
      <trkpt lat="44.8735" lon="5.52536">
        <ele>2224</ele>
        <time>2022-01-19T12:28:17Z</time>
      </trkpt>
      <trkpt lat="44.8735" lon="5.52536">
        <ele>2224</ele>
        <time>2022-01-19T12:28:18Z</time>
      </trkpt>
      <trkpt lat="44.8735" lon="5.52536">
        <ele>2224.1</ele>
        <time>2022-01-19T12:28:19Z</time>
      </trkpt>
      <trkpt lat="44.8735" lon="5.52536">
        <ele>2224.1</ele>
        <time>2022-01-19T12:28:20Z</time>
      </trkpt>
      <trkpt lat="44.8735" lon="5.52536">
        <ele>2224.1</ele>
        <time>2022-01-19T12:28:21Z</time>
      </trkpt>
      <trkpt lat="44.8735" lon="5.52536">
        <ele>2224.1</ele>
        <time>2022-01-19T12:28:22Z</time>
      </trkpt>
      <trkpt lat="44.8735" lon="5.52536">
        <ele>2224.1</ele>
        <time>2022-01-19T12:28:23Z</time>
      </trkpt>
      <trkpt lat="44.8735" lon="5.52536">
        <ele>2224.1</ele>
        <time>2022-01-19T12:28:24Z</time>
      </trkpt>
      <trkpt lat="44.8735" lon="5.52536">
        <ele>2224.1</ele>
        <time>2022-01-19T12:28:25Z</time>
      </trkpt>
      <trkpt lat="44.8735" lon="5.52536">
        <ele>2224.1</ele>
        <time>2022-01-19T12:28:26Z</time>
      </trkpt>
      <trkpt lat="44.8735" lon="5.52536">
        <ele>2224.1</ele>
        <time>2022-01-19T12:28:27Z</time>
      </trkpt>
      <trkpt lat="44.8735" lon="5.52536">
        <ele>2224.1</ele>
        <time>2022-01-19T12:28:28Z</time>
      </trkpt>
      <trkpt lat="44.8735" lon="5.52536">
        <ele>2224.1</ele>
        <time>2022-01-19T12:28:29Z</time>
      </trkpt>
      <trkpt lat="44.8735" lon="5.52536">
        <ele>2224.1</ele>
        <time>2022-01-19T12:28:30Z</time>
      </trkpt>
      <trkpt lat="44.8735" lon="5.52536">
        <ele>2224.1</ele>
        <time>2022-01-19T12:28:31Z</time>
      </trkpt>
      <trkpt lat="44.8735" lon="5.52536">
        <ele>2224.1</ele>
        <time>2022-01-19T12:28:32Z</time>
      </trkpt>
      <trkpt lat="44.8735" lon="5.52536">
        <ele>2224.1</ele>
        <time>2022-01-19T12:28:33Z</time>
      </trkpt>
      <trkpt lat="44.8735" lon="5.52536">
        <ele>2224.1</ele>
        <time>2022-01-19T12:28:34Z</time>
      </trkpt>
      <trkpt lat="44.8735" lon="5.52536">
        <ele>2224.2</ele>
        <time>2022-01-19T12:28:35Z</time>
      </trkpt>
      <trkpt lat="44.8735" lon="5.52536">
        <ele>2224.2</ele>
        <time>2022-01-19T12:28:36Z</time>
      </trkpt>
      <trkpt lat="44.8735" lon="5.52536">
        <ele>2224.2</ele>
        <time>2022-01-19T12:28:37Z</time>
      </trkpt>
      <trkpt lat="44.8735" lon="5.52536">
        <ele>2224.2</ele>
        <time>2022-01-19T12:28:38Z</time>
      </trkpt>
      <trkpt lat="44.8735" lon="5.52536">
        <ele>2224.2</ele>
        <time>2022-01-19T12:28:39Z</time>
      </trkpt>
      <trkpt lat="44.8735" lon="5.52536">
        <ele>2224.2</ele>
        <time>2022-01-19T12:28:40Z</time>
      </trkpt>
      <trkpt lat="44.8735" lon="5.52536">
        <ele>2224.2</ele>
        <time>2022-01-19T12:28:41Z</time>
      </trkpt>
      <trkpt lat="44.8735" lon="5.52536">
        <ele>2224.2</ele>
        <time>2022-01-19T12:28:42Z</time>
      </trkpt>
      <trkpt lat="44.8735" lon="5.52536">
        <ele>2224.2</ele>
        <time>2022-01-19T12:28:43Z</time>
      </trkpt>
      <trkpt lat="44.8735" lon="5.52536">
        <ele>2224.2</ele>
        <time>2022-01-19T12:28:44Z</time>
      </trkpt>
      <trkpt lat="44.8735" lon="5.52536">
        <ele>2224.2</ele>
        <time>2022-01-19T12:28:45Z</time>
      </trkpt>
      <trkpt lat="44.8735" lon="5.52536">
        <ele>2224.2</ele>
        <time>2022-01-19T12:28:46Z</time>
      </trkpt>
      <trkpt lat="44.8735" lon="5.52536">
        <ele>2224.2</ele>
        <time>2022-01-19T12:28:47Z</time>
      </trkpt>
      <trkpt lat="44.8735" lon="5.52536">
        <ele>2224.2</ele>
        <time>2022-01-19T12:28:48Z</time>
      </trkpt>
      <trkpt lat="44.8735" lon="5.52536">
        <ele>2224.2</ele>
        <time>2022-01-19T12:28:49Z</time>
      </trkpt>
      <trkpt lat="44.8735" lon="5.52536">
        <ele>2224.2</ele>
        <time>2022-01-19T12:28:50Z</time>
      </trkpt>
      <trkpt lat="44.8735" lon="5.52536">
        <ele>2224.2</ele>
        <time>2022-01-19T12:28:51Z</time>
      </trkpt>
      <trkpt lat="44.8735" lon="5.52536">
        <ele>2224.3</ele>
        <time>2022-01-19T12:28:52Z</time>
      </trkpt>
      <trkpt lat="44.8735" lon="5.52536">
        <ele>2224.3</ele>
        <time>2022-01-19T12:28:53Z</time>
      </trkpt>
      <trkpt lat="44.8735" lon="5.52536">
        <ele>2224.3</ele>
        <time>2022-01-19T12:28:54Z</time>
      </trkpt>
      <trkpt lat="44.8735" lon="5.52536">
        <ele>2224.3</ele>
        <time>2022-01-19T12:28:55Z</time>
      </trkpt>
      <trkpt lat="44.8735" lon="5.52536">
        <ele>2224.3</ele>
        <time>2022-01-19T12:28:56Z</time>
      </trkpt>
      <trkpt lat="44.8735" lon="5.52536">
        <ele>2224.3</ele>
        <time>2022-01-19T12:28:57Z</time>
      </trkpt>
      <trkpt lat="44.8735" lon="5.52536">
        <ele>2224.3</ele>
        <time>2022-01-19T12:28:58Z</time>
      </trkpt>
      <trkpt lat="44.8735" lon="5.52536">
        <ele>2224.3</ele>
        <time>2022-01-19T12:28:59Z</time>
      </trkpt>
      <trkpt lat="44.8735" lon="5.52536">
        <ele>2224.3</ele>
        <time>2022-01-19T12:29:00Z</time>
      </trkpt>
      <trkpt lat="44.8735" lon="5.52536">
        <ele>2224.3</ele>
        <time>2022-01-19T12:29:01Z</time>
      </trkpt>
      <trkpt lat="44.8735" lon="5.52536">
        <ele>2224.3</ele>
        <time>2022-01-19T12:29:02Z</time>
      </trkpt>
      <trkpt lat="44.8735" lon="5.52536">
        <ele>2224.3</ele>
        <time>2022-01-19T12:29:03Z</time>
      </trkpt>
      <trkpt lat="44.8735" lon="5.52536">
        <ele>2224.3</ele>
        <time>2022-01-19T12:29:04Z</time>
      </trkpt>
      <trkpt lat="44.8735" lon="5.52536">
        <ele>2224.3</ele>
        <time>2022-01-19T12:29:05Z</time>
      </trkpt>
      <trkpt lat="44.8735" lon="5.52536">
        <ele>2224.3</ele>
        <time>2022-01-19T12:29:06Z</time>
      </trkpt>
      <trkpt lat="44.8735" lon="5.52536">
        <ele>2224.3</ele>
        <time>2022-01-19T12:29:07Z</time>
      </trkpt>
      <trkpt lat="44.8735" lon="5.52536">
        <ele>2224.3</ele>
        <time>2022-01-19T12:29:08Z</time>
      </trkpt>
      <trkpt lat="44.8735" lon="5.52536">
        <ele>2224.4</ele>
        <time>2022-01-19T12:29:09Z</time>
      </trkpt>
      <trkpt lat="44.8735" lon="5.52536">
        <ele>2224.4</ele>
        <time>2022-01-19T12:29:10Z</time>
      </trkpt>
      <trkpt lat="44.8735" lon="5.52536">
        <ele>2224.4</ele>
        <time>2022-01-19T12:29:11Z</time>
      </trkpt>
      <trkpt lat="44.8735" lon="5.52536">
        <ele>2224.4</ele>
        <time>2022-01-19T12:29:12Z</time>
      </trkpt>
      <trkpt lat="44.8735" lon="5.52536">
        <ele>2224.4</ele>
        <time>2022-01-19T12:29:13Z</time>
      </trkpt>
      <trkpt lat="44.8735" lon="5.52536">
        <ele>2224.4</ele>
        <time>2022-01-19T12:29:14Z</time>
      </trkpt>
      <trkpt lat="44.8735" lon="5.52536">
        <ele>2224.4</ele>
        <time>2022-01-19T12:29:15Z</time>
      </trkpt>
      <trkpt lat="44.8735" lon="5.52536">
        <ele>2224.4</ele>
        <time>2022-01-19T12:29:16Z</time>
      </trkpt>
      <trkpt lat="44.8735" lon="5.52536">
        <ele>2224.4</ele>
        <time>2022-01-19T12:29:17Z</time>
      </trkpt>
      <trkpt lat="44.8735" lon="5.52536">
        <ele>2224.4</ele>
        <time>2022-01-19T12:29:18Z</time>
      </trkpt>
      <trkpt lat="44.8735" lon="5.52536">
        <ele>2224.4</ele>
        <time>2022-01-19T12:29:19Z</time>
      </trkpt>
      <trkpt lat="44.8735" lon="5.52536">
        <ele>2224.4</ele>
        <time>2022-01-19T12:29:20Z</time>
      </trkpt>
      <trkpt lat="44.8735" lon="5.52536">
        <ele>2224.4</ele>
        <time>2022-01-19T12:29:21Z</time>
      </trkpt>
      <trkpt lat="44.8735" lon="5.52536">
        <ele>2224.4</ele>
        <time>2022-01-19T12:29:22Z</time>
      </trkpt>
      <trkpt lat="44.8735" lon="5.52536">
        <ele>2224.4</ele>
        <time>2022-01-19T12:29:23Z</time>
      </trkpt>
      <trkpt lat="44.8735" lon="5.52536">
        <ele>2224.4</ele>
        <time>2022-01-19T12:29:24Z</time>
      </trkpt>
      <trkpt lat="44.8735" lon="5.52536">
        <ele>2224.5</ele>
        <time>2022-01-19T12:29:25Z</time>
      </trkpt>
      <trkpt lat="44.8735" lon="5.52536">
        <ele>2224.5</ele>
        <time>2022-01-19T12:29:26Z</time>
      </trkpt>
      <trkpt lat="44.8735" lon="5.52536">
        <ele>2224.5</ele>
        <time>2022-01-19T12:29:27Z</time>
      </trkpt>
      <trkpt lat="44.8735" lon="5.52536">
        <ele>2224.5</ele>
        <time>2022-01-19T12:29:28Z</time>
      </trkpt>
      <trkpt lat="44.8735" lon="5.52536">
        <ele>2224.5</ele>
        <time>2022-01-19T12:29:29Z</time>
      </trkpt>
      <trkpt lat="44.8735" lon="5.52536">
        <ele>2224.5</ele>
        <time>2022-01-19T12:29:30Z</time>
      </trkpt>
      <trkpt lat="44.8735" lon="5.52536">
        <ele>2224.5</ele>
        <time>2022-01-19T12:29:31Z</time>
      </trkpt>
      <trkpt lat="44.8735" lon="5.52536">
        <ele>2224.5</ele>
        <time>2022-01-19T12:29:32Z</time>
      </trkpt>
      <trkpt lat="44.8735" lon="5.52536">
        <ele>2224.5</ele>
        <time>2022-01-19T12:29:33Z</time>
      </trkpt>
      <trkpt lat="44.8735" lon="5.52536">
        <ele>2224.5</ele>
        <time>2022-01-19T12:29:34Z</time>
      </trkpt>
      <trkpt lat="44.8735" lon="5.52536">
        <ele>2224.5</ele>
        <time>2022-01-19T12:29:35Z</time>
      </trkpt>
      <trkpt lat="44.8735" lon="5.52536">
        <ele>2224.5</ele>
        <time>2022-01-19T12:29:36Z</time>
      </trkpt>
      <trkpt lat="44.8735" lon="5.52536">
        <ele>2224.5</ele>
        <time>2022-01-19T12:29:37Z</time>
      </trkpt>
      <trkpt lat="44.8735" lon="5.52536">
        <ele>2224.5</ele>
        <time>2022-01-19T12:29:38Z</time>
      </trkpt>
      <trkpt lat="44.8735" lon="5.52536">
        <ele>2224.5</ele>
        <time>2022-01-19T12:29:39Z</time>
      </trkpt>
      <trkpt lat="44.8735" lon="5.52536">
        <ele>2224.5</ele>
        <time>2022-01-19T12:29:40Z</time>
      </trkpt>
      <trkpt lat="44.8735" lon="5.52536">
        <ele>2224.5</ele>
        <time>2022-01-19T12:29:41Z</time>
      </trkpt>
      <trkpt lat="44.8735" lon="5.52536">
        <ele>2224.6</ele>
        <time>2022-01-19T12:29:42Z</time>
      </trkpt>
      <trkpt lat="44.8735" lon="5.52536">
        <ele>2224.6</ele>
        <time>2022-01-19T12:29:43Z</time>
      </trkpt>
      <trkpt lat="44.8735" lon="5.52536">
        <ele>2224.6</ele>
        <time>2022-01-19T12:29:44Z</time>
      </trkpt>
      <trkpt lat="44.8735" lon="5.52536">
        <ele>2224.6</ele>
        <time>2022-01-19T12:29:45Z</time>
      </trkpt>
      <trkpt lat="44.8735" lon="5.52536">
        <ele>2224.6</ele>
        <time>2022-01-19T12:29:46Z</time>
      </trkpt>
      <trkpt lat="44.8735" lon="5.52536">
        <ele>2224.6</ele>
        <time>2022-01-19T12:29:47Z</time>
      </trkpt>
      <trkpt lat="44.8735" lon="5.52536">
        <ele>2224.6</ele>
        <time>2022-01-19T12:29:48Z</time>
      </trkpt>
      <trkpt lat="44.8735" lon="5.52536">
        <ele>2224.6</ele>
        <time>2022-01-19T12:29:49Z</time>
      </trkpt>
      <trkpt lat="44.8735" lon="5.52536">
        <ele>2224.6</ele>
        <time>2022-01-19T12:29:50Z</time>
      </trkpt>
      <trkpt lat="44.8735" lon="5.52536">
        <ele>2224.6</ele>
        <time>2022-01-19T12:29:51Z</time>
      </trkpt>
      <trkpt lat="44.8735" lon="5.52536">
        <ele>2224.6</ele>
        <time>2022-01-19T12:29:52Z</time>
      </trkpt>
      <trkpt lat="44.8735" lon="5.52536">
        <ele>2224.6</ele>
        <time>2022-01-19T12:29:53Z</time>
      </trkpt>
      <trkpt lat="44.8735" lon="5.52536">
        <ele>2224.6</ele>
        <time>2022-01-19T12:29:54Z</time>
      </trkpt>
      <trkpt lat="44.8735" lon="5.52536">
        <ele>2224.6</ele>
        <time>2022-01-19T12:29:55Z</time>
      </trkpt>
      <trkpt lat="44.8735" lon="5.52536">
        <ele>2224.6</ele>
        <time>2022-01-19T12:29:56Z</time>
      </trkpt>
      <trkpt lat="44.8735" lon="5.52536">
        <ele>2224.6</ele>
        <time>2022-01-19T12:29:57Z</time>
      </trkpt>
      <trkpt lat="44.8735" lon="5.52536">
        <ele>2224.6</ele>
        <time>2022-01-19T12:29:58Z</time>
      </trkpt>
      <trkpt lat="44.8735" lon="5.52536">
        <ele>2224.6</ele>
        <time>2022-01-19T12:29:59Z</time>
      </trkpt>
      <trkpt lat="44.8735" lon="5.52536">
        <ele>2224.6</ele>
        <time>2022-01-19T12:30:00Z</time>
      </trkpt>
      <trkpt lat="44.8735" lon="5.52536">
        <ele>2224.6</ele>
        <time>2022-01-19T12:30:01Z</time>
      </trkpt>
      <trkpt lat="44.8735" lon="5.52536">
        <ele>2224.6</ele>
        <time>2022-01-19T12:30:02Z</time>
      </trkpt>
      <trkpt lat="44.8735" lon="5.52536">
        <ele>2224.6</ele>
        <time>2022-01-19T12:30:03Z</time>
      </trkpt>
      <trkpt lat="44.8735" lon="5.52536">
        <ele>2224.6</ele>
        <time>2022-01-19T12:30:04Z</time>
      </trkpt>
      <trkpt lat="44.8735" lon="5.52536">
        <ele>2224.6</ele>
        <time>2022-01-19T12:30:05Z</time>
      </trkpt>
      <trkpt lat="44.8735" lon="5.52536">
        <ele>2224.6</ele>
        <time>2022-01-19T12:30:06Z</time>
      </trkpt>
      <trkpt lat="44.8735" lon="5.52536">
        <ele>2224.6</ele>
        <time>2022-01-19T12:30:07Z</time>
      </trkpt>
      <trkpt lat="44.8735" lon="5.52536">
        <ele>2224.6</ele>
        <time>2022-01-19T12:30:08Z</time>
      </trkpt>
      <trkpt lat="44.8735" lon="5.52536">
        <ele>2224.6</ele>
        <time>2022-01-19T12:30:09Z</time>
      </trkpt>
      <trkpt lat="44.8735" lon="5.52536">
        <ele>2224.6</ele>
        <time>2022-01-19T12:30:10Z</time>
      </trkpt>
      <trkpt lat="44.8735" lon="5.52536">
        <ele>2224.6</ele>
        <time>2022-01-19T12:30:11Z</time>
      </trkpt>
      <trkpt lat="44.8735" lon="5.52536">
        <ele>2224.6</ele>
        <time>2022-01-19T12:30:12Z</time>
      </trkpt>
      <trkpt lat="44.8735" lon="5.52536">
        <ele>2224.6</ele>
        <time>2022-01-19T12:30:13Z</time>
      </trkpt>
      <trkpt lat="44.8735" lon="5.52536">
        <ele>2224.6</ele>
        <time>2022-01-19T12:30:14Z</time>
      </trkpt>
      <trkpt lat="44.8735" lon="5.52536">
        <ele>2224.6</ele>
        <time>2022-01-19T12:30:15Z</time>
      </trkpt>
      <trkpt lat="44.8735" lon="5.52536">
        <ele>2224.6</ele>
        <time>2022-01-19T12:30:16Z</time>
      </trkpt>
      <trkpt lat="44.8735" lon="5.52536">
        <ele>2224.6</ele>
        <time>2022-01-19T12:30:17Z</time>
      </trkpt>
      <trkpt lat="44.8735" lon="5.52536">
        <ele>2224.6</ele>
        <time>2022-01-19T12:30:18Z</time>
      </trkpt>
      <trkpt lat="44.8735" lon="5.52536">
        <ele>2224.6</ele>
        <time>2022-01-19T12:30:19Z</time>
      </trkpt>
      <trkpt lat="44.8735" lon="5.52536">
        <ele>2224.6</ele>
        <time>2022-01-19T12:30:20Z</time>
      </trkpt>
      <trkpt lat="44.8735" lon="5.52536">
        <ele>2224.6</ele>
        <time>2022-01-19T12:30:21Z</time>
      </trkpt>
      <trkpt lat="44.8735" lon="5.52536">
        <ele>2224.6</ele>
        <time>2022-01-19T12:30:22Z</time>
      </trkpt>
      <trkpt lat="44.8735" lon="5.52536">
        <ele>2224.6</ele>
        <time>2022-01-19T12:30:23Z</time>
      </trkpt>
      <trkpt lat="44.8735" lon="5.52536">
        <ele>2224.6</ele>
        <time>2022-01-19T12:30:24Z</time>
      </trkpt>
      <trkpt lat="44.8735" lon="5.52536">
        <ele>2224.6</ele>
        <time>2022-01-19T12:30:25Z</time>
      </trkpt>
      <trkpt lat="44.8735" lon="5.52536">
        <ele>2224.6</ele>
        <time>2022-01-19T12:30:26Z</time>
      </trkpt>
      <trkpt lat="44.8735" lon="5.52536">
        <ele>2224.6</ele>
        <time>2022-01-19T12:30:27Z</time>
      </trkpt>
      <trkpt lat="44.8735" lon="5.52536">
        <ele>2224.6</ele>
        <time>2022-01-19T12:30:28Z</time>
      </trkpt>
      <trkpt lat="44.8735" lon="5.52536">
        <ele>2224.6</ele>
        <time>2022-01-19T12:30:29Z</time>
      </trkpt>
      <trkpt lat="44.8735" lon="5.52536">
        <ele>2224.6</ele>
        <time>2022-01-19T12:30:30Z</time>
      </trkpt>
      <trkpt lat="44.8735" lon="5.52536">
        <ele>2224.6</ele>
        <time>2022-01-19T12:30:31Z</time>
      </trkpt>
      <trkpt lat="44.8735" lon="5.52536">
        <ele>2224.6</ele>
        <time>2022-01-19T12:30:32Z</time>
      </trkpt>
      <trkpt lat="44.8735" lon="5.52536">
        <ele>2224.6</ele>
        <time>2022-01-19T12:30:33Z</time>
      </trkpt>
      <trkpt lat="44.8735" lon="5.52536">
        <ele>2224.6</ele>
        <time>2022-01-19T12:30:34Z</time>
      </trkpt>
      <trkpt lat="44.8735" lon="5.52536">
        <ele>2224.6</ele>
        <time>2022-01-19T12:30:35Z</time>
      </trkpt>
      <trkpt lat="44.8735" lon="5.52536">
        <ele>2224.6</ele>
        <time>2022-01-19T12:30:36Z</time>
      </trkpt>
      <trkpt lat="44.8735" lon="5.52536">
        <ele>2224.6</ele>
        <time>2022-01-19T12:30:37Z</time>
      </trkpt>
      <trkpt lat="44.8735" lon="5.52536">
        <ele>2224.6</ele>
        <time>2022-01-19T12:30:38Z</time>
      </trkpt>
      <trkpt lat="44.8735" lon="5.52536">
        <ele>2224.6</ele>
        <time>2022-01-19T12:30:39Z</time>
      </trkpt>
      <trkpt lat="44.8735" lon="5.52536">
        <ele>2224.6</ele>
        <time>2022-01-19T12:30:40Z</time>
      </trkpt>
      <trkpt lat="44.8735" lon="5.52536">
        <ele>2224.6</ele>
        <time>2022-01-19T12:30:41Z</time>
      </trkpt>
      <trkpt lat="44.8735" lon="5.52536">
        <ele>2224.6</ele>
        <time>2022-01-19T12:30:42Z</time>
      </trkpt>
      <trkpt lat="44.8735" lon="5.52536">
        <ele>2224.6</ele>
        <time>2022-01-19T12:30:43Z</time>
      </trkpt>
      <trkpt lat="44.8735" lon="5.52536">
        <ele>2224.6</ele>
        <time>2022-01-19T12:30:44Z</time>
      </trkpt>
      <trkpt lat="44.8735" lon="5.52536">
        <ele>2224.6</ele>
        <time>2022-01-19T12:30:45Z</time>
      </trkpt>
      <trkpt lat="44.8735" lon="5.52536">
        <ele>2224.6</ele>
        <time>2022-01-19T12:30:46Z</time>
      </trkpt>
      <trkpt lat="44.8735" lon="5.52536">
        <ele>2224.6</ele>
        <time>2022-01-19T12:30:47Z</time>
      </trkpt>
      <trkpt lat="44.8735" lon="5.52536">
        <ele>2224.6</ele>
        <time>2022-01-19T12:30:48Z</time>
      </trkpt>
      <trkpt lat="44.8735" lon="5.52536">
        <ele>2224.6</ele>
        <time>2022-01-19T12:30:49Z</time>
      </trkpt>
      <trkpt lat="44.8735" lon="5.52536">
        <ele>2224.6</ele>
        <time>2022-01-19T12:30:50Z</time>
      </trkpt>
      <trkpt lat="44.8735" lon="5.52536">
        <ele>2224.6</ele>
        <time>2022-01-19T12:30:51Z</time>
      </trkpt>
      <trkpt lat="44.8735" lon="5.52536">
        <ele>2224.6</ele>
        <time>2022-01-19T12:30:52Z</time>
      </trkpt>
      <trkpt lat="44.8735" lon="5.52536">
        <ele>2224.6</ele>
        <time>2022-01-19T12:30:53Z</time>
      </trkpt>
      <trkpt lat="44.8735" lon="5.52536">
        <ele>2224.6</ele>
        <time>2022-01-19T12:30:54Z</time>
      </trkpt>
      <trkpt lat="44.8735" lon="5.52536">
        <ele>2224.6</ele>
        <time>2022-01-19T12:30:55Z</time>
      </trkpt>
      <trkpt lat="44.8735" lon="5.52536">
        <ele>2224.6</ele>
        <time>2022-01-19T12:30:56Z</time>
      </trkpt>
      <trkpt lat="44.8735" lon="5.52536">
        <ele>2224.6</ele>
        <time>2022-01-19T12:30:57Z</time>
      </trkpt>
      <trkpt lat="44.8735" lon="5.52536">
        <ele>2224.6</ele>
        <time>2022-01-19T12:30:58Z</time>
      </trkpt>
      <trkpt lat="44.8735" lon="5.52536">
        <ele>2224.6</ele>
        <time>2022-01-19T12:30:59Z</time>
      </trkpt>
      <trkpt lat="44.8735" lon="5.52536">
        <ele>2224.6</ele>
        <time>2022-01-19T12:31:00Z</time>
      </trkpt>
      <trkpt lat="44.87351" lon="5.52534">
        <ele>2224.3</ele>
        <time>2022-01-19T12:31:01Z</time>
      </trkpt>
      <trkpt lat="44.87352" lon="5.52534">
        <ele>2224.2</ele>
        <time>2022-01-19T12:31:02Z</time>
      </trkpt>
      <trkpt lat="44.87352" lon="5.52534">
        <ele>2224.1</ele>
        <time>2022-01-19T12:31:03Z</time>
      </trkpt>
      <trkpt lat="44.87352" lon="5.52534">
        <ele>2224.1</ele>
        <time>2022-01-19T12:31:04Z</time>
      </trkpt>
      <trkpt lat="44.87353" lon="5.52534">
        <ele>2224</ele>
        <time>2022-01-19T12:31:05Z</time>
      </trkpt>
      <trkpt lat="44.87354" lon="5.52533">
        <ele>2223.7</ele>
        <time>2022-01-19T12:31:06Z</time>
      </trkpt>
      <trkpt lat="44.87356" lon="5.52533">
        <ele>2223.4</ele>
        <time>2022-01-19T12:31:07Z</time>
      </trkpt>
      <trkpt lat="44.87358" lon="5.52532">
        <ele>2223</ele>
        <time>2022-01-19T12:31:08Z</time>
      </trkpt>
      <trkpt lat="44.87361" lon="5.52531">
        <ele>2222.4</ele>
        <time>2022-01-19T12:31:09Z</time>
      </trkpt>
      <trkpt lat="44.87365" lon="5.5253">
        <ele>2221.7</ele>
        <time>2022-01-19T12:31:10Z</time>
      </trkpt>
      <trkpt lat="44.87368" lon="5.5253">
        <ele>2221.2</ele>
        <time>2022-01-19T12:31:11Z</time>
      </trkpt>
      <trkpt lat="44.87372" lon="5.52529">
        <ele>2220.6</ele>
        <time>2022-01-19T12:31:12Z</time>
      </trkpt>
      <trkpt lat="44.87375" lon="5.52529">
        <ele>2220</ele>
        <time>2022-01-19T12:31:13Z</time>
      </trkpt>
      <trkpt lat="44.87378" lon="5.52528">
        <ele>2219.5</ele>
        <time>2022-01-19T12:31:14Z</time>
      </trkpt>
      <trkpt lat="44.87381" lon="5.52527">
        <ele>2219</ele>
        <time>2022-01-19T12:31:15Z</time>
      </trkpt>
      <trkpt lat="44.87384" lon="5.52526">
        <ele>2218.5</ele>
        <time>2022-01-19T12:31:16Z</time>
      </trkpt>
      <trkpt lat="44.87387" lon="5.52524">
        <ele>2217.9</ele>
        <time>2022-01-19T12:31:17Z</time>
      </trkpt>
      <trkpt lat="44.8739" lon="5.52522">
        <ele>2217.3</ele>
        <time>2022-01-19T12:31:18Z</time>
      </trkpt>
      <trkpt lat="44.87394" lon="5.5252">
        <ele>2216.5</ele>
        <time>2022-01-19T12:31:19Z</time>
      </trkpt>
      <trkpt lat="44.87398" lon="5.52518">
        <ele>2215.9</ele>
        <time>2022-01-19T12:31:20Z</time>
      </trkpt>
      <trkpt lat="44.874" lon="5.52517">
        <ele>2215.4</ele>
        <time>2022-01-19T12:31:21Z</time>
      </trkpt>
      <trkpt lat="44.87402" lon="5.52514">
        <ele>2214.8</ele>
        <time>2022-01-19T12:31:22Z</time>
      </trkpt>
      <trkpt lat="44.87405" lon="5.52509">
        <ele>2214</ele>
        <time>2022-01-19T12:31:23Z</time>
      </trkpt>
      <trkpt lat="44.87409" lon="5.52505">
        <ele>2213.1</ele>
        <time>2022-01-19T12:31:24Z</time>
      </trkpt>
      <trkpt lat="44.87412" lon="5.52502">
        <ele>2212.4</ele>
        <time>2022-01-19T12:31:25Z</time>
      </trkpt>
      <trkpt lat="44.87415" lon="5.525">
        <ele>2211.9</ele>
        <time>2022-01-19T12:31:26Z</time>
      </trkpt>
      <trkpt lat="44.87416" lon="5.52499">
        <ele>2211.5</ele>
        <time>2022-01-19T12:31:27Z</time>
      </trkpt>
      <trkpt lat="44.87418" lon="5.52495">
        <ele>2211</ele>
        <time>2022-01-19T12:31:28Z</time>
      </trkpt>
      <trkpt lat="44.8742" lon="5.5249">
        <ele>2210.2</ele>
        <time>2022-01-19T12:31:29Z</time>
      </trkpt>
      <trkpt lat="44.87423" lon="5.52484">
        <ele>2209.1</ele>
        <time>2022-01-19T12:31:30Z</time>
      </trkpt>
      <trkpt lat="44.87427" lon="5.52478">
        <ele>2207.9</ele>
        <time>2022-01-19T12:31:31Z</time>
      </trkpt>
      <trkpt lat="44.87432" lon="5.52473">
        <ele>2206.6</ele>
        <time>2022-01-19T12:31:32Z</time>
      </trkpt>
      <trkpt lat="44.87437" lon="5.52468">
        <ele>2205.4</ele>
        <time>2022-01-19T12:31:33Z</time>
      </trkpt>
      <trkpt lat="44.87441" lon="5.52464">
        <ele>2204.6</ele>
        <time>2022-01-19T12:31:34Z</time>
      </trkpt>
      <trkpt lat="44.87443" lon="5.52461">
        <ele>2204</ele>
        <time>2022-01-19T12:31:35Z</time>
      </trkpt>
      <trkpt lat="44.87446" lon="5.52458">
        <ele>2203.6</ele>
        <time>2022-01-19T12:31:36Z</time>
      </trkpt>
      <trkpt lat="44.87448" lon="5.52454">
        <ele>2203.1</ele>
        <time>2022-01-19T12:31:37Z</time>
      </trkpt>
      <trkpt lat="44.8745" lon="5.52451">
        <ele>2202.2</ele>
        <time>2022-01-19T12:31:38Z</time>
      </trkpt>
      <trkpt lat="44.87449" lon="5.5245">
        <ele>2202.2</ele>
        <time>2022-01-19T12:31:39Z</time>
      </trkpt>
      <trkpt lat="44.87447" lon="5.52448">
        <ele>2201.1</ele>
        <time>2022-01-19T12:31:40Z</time>
      </trkpt>
      <trkpt lat="44.87444" lon="5.52446">
        <ele>2200.9</ele>
        <time>2022-01-19T12:31:41Z</time>
      </trkpt>
      <trkpt lat="44.87439" lon="5.52444">
        <ele>2199.7</ele>
        <time>2022-01-19T12:31:42Z</time>
      </trkpt>
      <trkpt lat="44.87436" lon="5.52442">
        <ele>2199.4</ele>
        <time>2022-01-19T12:31:43Z</time>
      </trkpt>
      <trkpt lat="44.87435" lon="5.52438">
        <ele>2198.3</ele>
        <time>2022-01-19T12:31:44Z</time>
      </trkpt>
      <trkpt lat="44.87436" lon="5.52435">
        <ele>2197.2</ele>
        <time>2022-01-19T12:31:45Z</time>
      </trkpt>
      <trkpt lat="44.87438" lon="5.52433">
        <ele>2197.4</ele>
        <time>2022-01-19T12:31:46Z</time>
      </trkpt>
      <trkpt lat="44.87441" lon="5.5243">
        <ele>2196.5</ele>
        <time>2022-01-19T12:31:47Z</time>
      </trkpt>
      <trkpt lat="44.87443" lon="5.52427">
        <ele>2195.5</ele>
        <time>2022-01-19T12:31:48Z</time>
      </trkpt>
      <trkpt lat="44.87446" lon="5.52425">
        <ele>2195.7</ele>
        <time>2022-01-19T12:31:49Z</time>
      </trkpt>
      <trkpt lat="44.87447" lon="5.52422">
        <ele>2194.6</ele>
        <time>2022-01-19T12:31:50Z</time>
      </trkpt>
      <trkpt lat="44.87445" lon="5.52421">
        <ele>2194.4</ele>
        <time>2022-01-19T12:31:51Z</time>
      </trkpt>
      <trkpt lat="44.87443" lon="5.5242">
        <ele>2194.4</ele>
        <time>2022-01-19T12:31:52Z</time>
      </trkpt>
      <trkpt lat="44.8744" lon="5.52419">
        <ele>2193</ele>
        <time>2022-01-19T12:31:53Z</time>
      </trkpt>
      <trkpt lat="44.87436" lon="5.52418">
        <ele>2192.6</ele>
        <time>2022-01-19T12:31:54Z</time>
      </trkpt>
      <trkpt lat="44.87433" lon="5.52417">
        <ele>2192.4</ele>
        <time>2022-01-19T12:31:55Z</time>
      </trkpt>
      <trkpt lat="44.8743" lon="5.52415">
        <ele>2192.4</ele>
        <time>2022-01-19T12:31:56Z</time>
      </trkpt>
      <trkpt lat="44.87428" lon="5.52412">
        <ele>2191</ele>
        <time>2022-01-19T12:31:57Z</time>
      </trkpt>
      <trkpt lat="44.87428" lon="5.52408">
        <ele>2189.8</ele>
        <time>2022-01-19T12:31:58Z</time>
      </trkpt>
      <trkpt lat="44.87431" lon="5.52404">
        <ele>2188.9</ele>
        <time>2022-01-19T12:31:59Z</time>
      </trkpt>
      <trkpt lat="44.87432" lon="5.52401">
        <ele>2187.7</ele>
        <time>2022-01-19T12:32:00Z</time>
      </trkpt>
      <trkpt lat="44.87431" lon="5.52398">
        <ele>2186.5</ele>
        <time>2022-01-19T12:32:01Z</time>
      </trkpt>
      <trkpt lat="44.87429" lon="5.52395">
        <ele>2186.2</ele>
        <time>2022-01-19T12:32:02Z</time>
      </trkpt>
      <trkpt lat="44.87427" lon="5.52392">
        <ele>2184.7</ele>
        <time>2022-01-19T12:32:03Z</time>
      </trkpt>
      <trkpt lat="44.87428" lon="5.52389">
        <ele>2183.7</ele>
        <time>2022-01-19T12:32:04Z</time>
      </trkpt>
      <trkpt lat="44.87429" lon="5.52385">
        <ele>2183.7</ele>
        <time>2022-01-19T12:32:05Z</time>
      </trkpt>
      <trkpt lat="44.87431" lon="5.52382">
        <ele>2182.6</ele>
        <time>2022-01-19T12:32:06Z</time>
      </trkpt>
      <trkpt lat="44.87432" lon="5.5238">
        <ele>2181.4</ele>
        <time>2022-01-19T12:32:07Z</time>
      </trkpt>
      <trkpt lat="44.87434" lon="5.52379">
        <ele>2181.6</ele>
        <time>2022-01-19T12:32:08Z</time>
      </trkpt>
      <trkpt lat="44.87434" lon="5.52376">
        <ele>2180.5</ele>
        <time>2022-01-19T12:32:09Z</time>
      </trkpt>
      <trkpt lat="44.87436" lon="5.52373">
        <ele>2180.5</ele>
        <time>2022-01-19T12:32:10Z</time>
      </trkpt>
      <trkpt lat="44.87436" lon="5.5237">
        <ele>2179.5</ele>
        <time>2022-01-19T12:32:11Z</time>
      </trkpt>
      <trkpt lat="44.87434" lon="5.52368">
        <ele>2179.4</ele>
        <time>2022-01-19T12:32:12Z</time>
      </trkpt>
      <trkpt lat="44.87432" lon="5.52368">
        <ele>2179.2</ele>
        <time>2022-01-19T12:32:13Z</time>
      </trkpt>
      <trkpt lat="44.87429" lon="5.52368">
        <ele>2179</ele>
        <time>2022-01-19T12:32:14Z</time>
      </trkpt>
      <trkpt lat="44.87427" lon="5.52368">
        <ele>2178.8</ele>
        <time>2022-01-19T12:32:15Z</time>
      </trkpt>
      <trkpt lat="44.87424" lon="5.52367">
        <ele>2177.5</ele>
        <time>2022-01-19T12:32:16Z</time>
      </trkpt>
      <trkpt lat="44.87421" lon="5.52366">
        <ele>2177.5</ele>
        <time>2022-01-19T12:32:17Z</time>
      </trkpt>
      <trkpt lat="44.87419" lon="5.52363">
        <ele>2176.3</ele>
        <time>2022-01-19T12:32:18Z</time>
      </trkpt>
      <trkpt lat="44.87418" lon="5.5236">
        <ele>2176</ele>
        <time>2022-01-19T12:32:19Z</time>
      </trkpt>
      <trkpt lat="44.87419" lon="5.52357">
        <ele>2175.3</ele>
        <time>2022-01-19T12:32:20Z</time>
      </trkpt>
      <trkpt lat="44.87421" lon="5.52353">
        <ele>2174.2</ele>
        <time>2022-01-19T12:32:21Z</time>
      </trkpt>
      <trkpt lat="44.87422" lon="5.52347">
        <ele>2173.4</ele>
        <time>2022-01-19T12:32:22Z</time>
      </trkpt>
      <trkpt lat="44.87425" lon="5.52341">
        <ele>2171.3</ele>
        <time>2022-01-19T12:32:23Z</time>
      </trkpt>
      <trkpt lat="44.87427" lon="5.52336">
        <ele>2170.3</ele>
        <time>2022-01-19T12:32:24Z</time>
      </trkpt>
      <trkpt lat="44.87429" lon="5.52331">
        <ele>2169.4</ele>
        <time>2022-01-19T12:32:25Z</time>
      </trkpt>
      <trkpt lat="44.8743" lon="5.52328">
        <ele>2168.7</ele>
        <time>2022-01-19T12:32:26Z</time>
      </trkpt>
      <trkpt lat="44.87431" lon="5.52326">
        <ele>2168.8</ele>
        <time>2022-01-19T12:32:27Z</time>
      </trkpt>
      <trkpt lat="44.87432" lon="5.52324">
        <ele>2168.3</ele>
        <time>2022-01-19T12:32:28Z</time>
      </trkpt>
      <trkpt lat="44.87433" lon="5.52323">
        <ele>2168.3</ele>
        <time>2022-01-19T12:32:29Z</time>
      </trkpt>
      <trkpt lat="44.87433" lon="5.52321">
        <ele>2168.3</ele>
        <time>2022-01-19T12:32:30Z</time>
      </trkpt>
      <trkpt lat="44.87432" lon="5.52319">
        <ele>2167.9</ele>
        <time>2022-01-19T12:32:31Z</time>
      </trkpt>
      <trkpt lat="44.8743" lon="5.52318">
        <ele>2168</ele>
        <time>2022-01-19T12:32:32Z</time>
      </trkpt>
      <trkpt lat="44.87427" lon="5.52317">
        <ele>2168</ele>
        <time>2022-01-19T12:32:33Z</time>
      </trkpt>
      <trkpt lat="44.87425" lon="5.52317">
        <ele>2167.9</ele>
        <time>2022-01-19T12:32:34Z</time>
      </trkpt>
      <trkpt lat="44.87422" lon="5.52317">
        <ele>2167.8</ele>
        <time>2022-01-19T12:32:35Z</time>
      </trkpt>
      <trkpt lat="44.8742" lon="5.52315">
        <ele>2167.3</ele>
        <time>2022-01-19T12:32:36Z</time>
      </trkpt>
      <trkpt lat="44.8742" lon="5.52312">
        <ele>2167.3</ele>
        <time>2022-01-19T12:32:37Z</time>
      </trkpt>
      <trkpt lat="44.8742" lon="5.52309">
        <ele>2167</ele>
        <time>2022-01-19T12:32:38Z</time>
      </trkpt>
      <trkpt lat="44.87421" lon="5.52305">
        <ele>2167</ele>
        <time>2022-01-19T12:32:39Z</time>
      </trkpt>
      <trkpt lat="44.87423" lon="5.52301">
        <ele>2166.4</ele>
        <time>2022-01-19T12:32:40Z</time>
      </trkpt>
      <trkpt lat="44.87424" lon="5.52298">
        <ele>2165.6</ele>
        <time>2022-01-19T12:32:41Z</time>
      </trkpt>
      <trkpt lat="44.87426" lon="5.52295">
        <ele>2165.6</ele>
        <time>2022-01-19T12:32:42Z</time>
      </trkpt>
      <trkpt lat="44.87427" lon="5.52294">
        <ele>2164.2</ele>
        <time>2022-01-19T12:32:43Z</time>
      </trkpt>
      <trkpt lat="44.87428" lon="5.52292">
        <ele>2164.2</ele>
        <time>2022-01-19T12:32:44Z</time>
      </trkpt>
      <trkpt lat="44.87429" lon="5.52291">
        <ele>2164.2</ele>
        <time>2022-01-19T12:32:45Z</time>
      </trkpt>
      <trkpt lat="44.87429" lon="5.52289">
        <ele>2162.4</ele>
        <time>2022-01-19T12:32:46Z</time>
      </trkpt>
      <trkpt lat="44.8743" lon="5.52287">
        <ele>2162.4</ele>
        <time>2022-01-19T12:32:47Z</time>
      </trkpt>
      <trkpt lat="44.87431" lon="5.52286">
        <ele>2160.2</ele>
        <time>2022-01-19T12:32:48Z</time>
      </trkpt>
      <trkpt lat="44.87432" lon="5.52284">
        <ele>2160.2</ele>
        <time>2022-01-19T12:32:49Z</time>
      </trkpt>
      <trkpt lat="44.87433" lon="5.52283">
        <ele>2160.2</ele>
        <time>2022-01-19T12:32:50Z</time>
      </trkpt>
      <trkpt lat="44.87434" lon="5.52282">
        <ele>2157.8</ele>
        <time>2022-01-19T12:32:51Z</time>
      </trkpt>
      <trkpt lat="44.87435" lon="5.5228">
        <ele>2157.8</ele>
        <time>2022-01-19T12:32:52Z</time>
      </trkpt>
      <trkpt lat="44.87436" lon="5.52278">
        <ele>2157.8</ele>
        <time>2022-01-19T12:32:53Z</time>
      </trkpt>
      <trkpt lat="44.87437" lon="5.52277">
        <ele>2155.5</ele>
        <time>2022-01-19T12:32:54Z</time>
      </trkpt>
      <trkpt lat="44.87438" lon="5.52275">
        <ele>2155.5</ele>
        <time>2022-01-19T12:32:55Z</time>
      </trkpt>
      <trkpt lat="44.87439" lon="5.52272">
        <ele>2153.3</ele>
        <time>2022-01-19T12:32:56Z</time>
      </trkpt>
      <trkpt lat="44.8744" lon="5.52271">
        <ele>2153.6</ele>
        <time>2022-01-19T12:32:57Z</time>
      </trkpt>
      <trkpt lat="44.87441" lon="5.52269">
        <ele>2151.5</ele>
        <time>2022-01-19T12:32:58Z</time>
      </trkpt>
      <trkpt lat="44.87443" lon="5.52266">
        <ele>2152</ele>
        <time>2022-01-19T12:32:59Z</time>
      </trkpt>
      <trkpt lat="44.87445" lon="5.52264">
        <ele>2150</ele>
        <time>2022-01-19T12:33:00Z</time>
      </trkpt>
      <trkpt lat="44.87446" lon="5.52262">
        <ele>2150.7</ele>
        <time>2022-01-19T12:33:01Z</time>
      </trkpt>
      <trkpt lat="44.87448" lon="5.5226">
        <ele>2148.5</ele>
        <time>2022-01-19T12:33:02Z</time>
      </trkpt>
      <trkpt lat="44.8745" lon="5.52259">
        <ele>2149.3</ele>
        <time>2022-01-19T12:33:03Z</time>
      </trkpt>
      <trkpt lat="44.87452" lon="5.52257">
        <ele>2150</ele>
        <time>2022-01-19T12:33:04Z</time>
      </trkpt>
      <trkpt lat="44.87454" lon="5.52255">
        <ele>2147.5</ele>
        <time>2022-01-19T12:33:05Z</time>
      </trkpt>
      <trkpt lat="44.87456" lon="5.52253">
        <ele>2148.2</ele>
        <time>2022-01-19T12:33:06Z</time>
      </trkpt>
      <trkpt lat="44.87458" lon="5.52251">
        <ele>2145.8</ele>
        <time>2022-01-19T12:33:07Z</time>
      </trkpt>
      <trkpt lat="44.87459" lon="5.52249">
        <ele>2145.8</ele>
        <time>2022-01-19T12:33:08Z</time>
      </trkpt>
      <trkpt lat="44.87459" lon="5.52246">
        <ele>2142.7</ele>
        <time>2022-01-19T12:33:09Z</time>
      </trkpt>
      <trkpt lat="44.87458" lon="5.52244">
        <ele>2142.7</ele>
        <time>2022-01-19T12:33:10Z</time>
      </trkpt>
      <trkpt lat="44.87456" lon="5.52242">
        <ele>2139.2</ele>
        <time>2022-01-19T12:33:11Z</time>
      </trkpt>
      <trkpt lat="44.87454" lon="5.5224">
        <ele>2138.7</ele>
        <time>2022-01-19T12:33:12Z</time>
      </trkpt>
      <trkpt lat="44.87452" lon="5.52238">
        <ele>2135.9</ele>
        <time>2022-01-19T12:33:13Z</time>
      </trkpt>
      <trkpt lat="44.87451" lon="5.52235">
        <ele>2135.4</ele>
        <time>2022-01-19T12:33:14Z</time>
      </trkpt>
      <trkpt lat="44.8745" lon="5.52232">
        <ele>2132.7</ele>
        <time>2022-01-19T12:33:15Z</time>
      </trkpt>
      <trkpt lat="44.87451" lon="5.52229">
        <ele>2130.2</ele>
        <time>2022-01-19T12:33:16Z</time>
      </trkpt>
      <trkpt lat="44.87453" lon="5.52226">
        <ele>2128</ele>
        <time>2022-01-19T12:33:17Z</time>
      </trkpt>
      <trkpt lat="44.87453" lon="5.52223">
        <ele>2128</ele>
        <time>2022-01-19T12:33:18Z</time>
      </trkpt>
      <trkpt lat="44.87452" lon="5.52219">
        <ele>2125.5</ele>
        <time>2022-01-19T12:33:19Z</time>
      </trkpt>
      <trkpt lat="44.8745" lon="5.52216">
        <ele>2122.8</ele>
        <time>2022-01-19T12:33:20Z</time>
      </trkpt>
      <trkpt lat="44.87448" lon="5.52214">
        <ele>2122.4</ele>
        <time>2022-01-19T12:33:21Z</time>
      </trkpt>
      <trkpt lat="44.87446" lon="5.52212">
        <ele>2120.1</ele>
        <time>2022-01-19T12:33:22Z</time>
      </trkpt>
      <trkpt lat="44.87444" lon="5.5221">
        <ele>2119.8</ele>
        <time>2022-01-19T12:33:23Z</time>
      </trkpt>
      <trkpt lat="44.87442" lon="5.52208">
        <ele>2117.2</ele>
        <time>2022-01-19T12:33:24Z</time>
      </trkpt>
      <trkpt lat="44.8744" lon="5.52205">
        <ele>2117.2</ele>
        <time>2022-01-19T12:33:25Z</time>
      </trkpt>
      <trkpt lat="44.87439" lon="5.52202">
        <ele>2115</ele>
        <time>2022-01-19T12:33:26Z</time>
      </trkpt>
      <trkpt lat="44.8744" lon="5.52199">
        <ele>2113</ele>
        <time>2022-01-19T12:33:27Z</time>
      </trkpt>
      <trkpt lat="44.87442" lon="5.52196">
        <ele>2113</ele>
        <time>2022-01-19T12:33:28Z</time>
      </trkpt>
      <trkpt lat="44.87444" lon="5.52194">
        <ele>2111.3</ele>
        <time>2022-01-19T12:33:29Z</time>
      </trkpt>
      <trkpt lat="44.87446" lon="5.52193">
        <ele>2111.7</ele>
        <time>2022-01-19T12:33:30Z</time>
      </trkpt>
      <trkpt lat="44.87448" lon="5.52191">
        <ele>2109.8</ele>
        <time>2022-01-19T12:33:31Z</time>
      </trkpt>
      <trkpt lat="44.8745" lon="5.5219">
        <ele>2110.1</ele>
        <time>2022-01-19T12:33:32Z</time>
      </trkpt>
      <trkpt lat="44.87452" lon="5.52188">
        <ele>2110.4</ele>
        <time>2022-01-19T12:33:33Z</time>
      </trkpt>
      <trkpt lat="44.87454" lon="5.52187">
        <ele>2108.6</ele>
        <time>2022-01-19T12:33:34Z</time>
      </trkpt>
      <trkpt lat="44.87457" lon="5.52185">
        <ele>2108.9</ele>
        <time>2022-01-19T12:33:35Z</time>
      </trkpt>
      <trkpt lat="44.87459" lon="5.52184">
        <ele>2109.1</ele>
        <time>2022-01-19T12:33:36Z</time>
      </trkpt>
      <trkpt lat="44.87461" lon="5.52182">
        <ele>2107.5</ele>
        <time>2022-01-19T12:33:37Z</time>
      </trkpt>
      <trkpt lat="44.87464" lon="5.5218">
        <ele>2107.5</ele>
        <time>2022-01-19T12:33:38Z</time>
      </trkpt>
      <trkpt lat="44.87465" lon="5.52178">
        <ele>2105.9</ele>
        <time>2022-01-19T12:33:39Z</time>
      </trkpt>
      <trkpt lat="44.87464" lon="5.52174">
        <ele>2103.9</ele>
        <time>2022-01-19T12:33:40Z</time>
      </trkpt>
      <trkpt lat="44.87462" lon="5.52172">
        <ele>2103.7</ele>
        <time>2022-01-19T12:33:41Z</time>
      </trkpt>
      <trkpt lat="44.8746" lon="5.5217">
        <ele>2101.4</ele>
        <time>2022-01-19T12:33:42Z</time>
      </trkpt>
      <trkpt lat="44.87458" lon="5.52168">
        <ele>2101.4</ele>
        <time>2022-01-19T12:33:43Z</time>
      </trkpt>
      <trkpt lat="44.87456" lon="5.52167">
        <ele>2101.2</ele>
        <time>2022-01-19T12:33:44Z</time>
      </trkpt>
      <trkpt lat="44.87454" lon="5.52164">
        <ele>2099</ele>
        <time>2022-01-19T12:33:45Z</time>
      </trkpt>
      <trkpt lat="44.87454" lon="5.52161">
        <ele>2096.9</ele>
        <time>2022-01-19T12:33:46Z</time>
      </trkpt>
      <trkpt lat="44.87456" lon="5.52158">
        <ele>2097.1</ele>
        <time>2022-01-19T12:33:47Z</time>
      </trkpt>
      <trkpt lat="44.87459" lon="5.52156">
        <ele>2095.5</ele>
        <time>2022-01-19T12:33:48Z</time>
      </trkpt>
      <trkpt lat="44.87462" lon="5.52155">
        <ele>2095.6</ele>
        <time>2022-01-19T12:33:49Z</time>
      </trkpt>
      <trkpt lat="44.87465" lon="5.52154">
        <ele>2095.8</ele>
        <time>2022-01-19T12:33:50Z</time>
      </trkpt>
      <trkpt lat="44.87467" lon="5.52153">
        <ele>2096</ele>
        <time>2022-01-19T12:33:51Z</time>
      </trkpt>
      <trkpt lat="44.87469" lon="5.52152">
        <ele>2094.3</ele>
        <time>2022-01-19T12:33:52Z</time>
      </trkpt>
      <trkpt lat="44.87471" lon="5.52151">
        <ele>2094.5</ele>
        <time>2022-01-19T12:33:53Z</time>
      </trkpt>
      <trkpt lat="44.87474" lon="5.5215">
        <ele>2094.7</ele>
        <time>2022-01-19T12:33:54Z</time>
      </trkpt>
      <trkpt lat="44.87476" lon="5.5215">
        <ele>2094.8</ele>
        <time>2022-01-19T12:33:55Z</time>
      </trkpt>
      <trkpt lat="44.87479" lon="5.52149">
        <ele>2094.8</ele>
        <time>2022-01-19T12:33:56Z</time>
      </trkpt>
      <trkpt lat="44.87481" lon="5.52149">
        <ele>2093.3</ele>
        <time>2022-01-19T12:33:57Z</time>
      </trkpt>
      <trkpt lat="44.87483" lon="5.52148">
        <ele>2093.5</ele>
        <time>2022-01-19T12:33:58Z</time>
      </trkpt>
      <trkpt lat="44.87485" lon="5.52148">
        <ele>2093.6</ele>
        <time>2022-01-19T12:33:59Z</time>
      </trkpt>
      <trkpt lat="44.87488" lon="5.52148">
        <ele>2093.6</ele>
        <time>2022-01-19T12:34:00Z</time>
      </trkpt>
      <trkpt lat="44.8749" lon="5.52148">
        <ele>2093.7</ele>
        <time>2022-01-19T12:34:01Z</time>
      </trkpt>
      <trkpt lat="44.87491" lon="5.52148">
        <ele>2093.9</ele>
        <time>2022-01-19T12:34:02Z</time>
      </trkpt>
      <trkpt lat="44.87493" lon="5.52148">
        <ele>2093.9</ele>
        <time>2022-01-19T12:34:03Z</time>
      </trkpt>
      <trkpt lat="44.87495" lon="5.52147">
        <ele>2094</ele>
        <time>2022-01-19T12:34:04Z</time>
      </trkpt>
      <trkpt lat="44.87497" lon="5.52147">
        <ele>2094</ele>
        <time>2022-01-19T12:34:05Z</time>
      </trkpt>
      <trkpt lat="44.875" lon="5.52146">
        <ele>2094</ele>
        <time>2022-01-19T12:34:06Z</time>
      </trkpt>
      <trkpt lat="44.87503" lon="5.52145">
        <ele>2094.1</ele>
        <time>2022-01-19T12:34:07Z</time>
      </trkpt>
      <trkpt lat="44.87505" lon="5.52144">
        <ele>2092.5</ele>
        <time>2022-01-19T12:34:08Z</time>
      </trkpt>
      <trkpt lat="44.87508" lon="5.52143">
        <ele>2092.6</ele>
        <time>2022-01-19T12:34:09Z</time>
      </trkpt>
      <trkpt lat="44.87511" lon="5.52142">
        <ele>2092.6</ele>
        <time>2022-01-19T12:34:10Z</time>
      </trkpt>
      <trkpt lat="44.87514" lon="5.52141">
        <ele>2092.5</ele>
        <time>2022-01-19T12:34:11Z</time>
      </trkpt>
      <trkpt lat="44.87517" lon="5.52139">
        <ele>2090.9</ele>
        <time>2022-01-19T12:34:12Z</time>
      </trkpt>
      <trkpt lat="44.87521" lon="5.52139">
        <ele>2090.8</ele>
        <time>2022-01-19T12:34:13Z</time>
      </trkpt>
      <trkpt lat="44.87524" lon="5.52138">
        <ele>2090.6</ele>
        <time>2022-01-19T12:34:14Z</time>
      </trkpt>
      <trkpt lat="44.87527" lon="5.52137">
        <ele>2090.5</ele>
        <time>2022-01-19T12:34:15Z</time>
      </trkpt>
      <trkpt lat="44.87531" lon="5.52135">
        <ele>2088.2</ele>
        <time>2022-01-19T12:34:16Z</time>
      </trkpt>
      <trkpt lat="44.87535" lon="5.52134">
        <ele>2087.9</ele>
        <time>2022-01-19T12:34:17Z</time>
      </trkpt>
      <trkpt lat="44.87538" lon="5.52134">
        <ele>2087.6</ele>
        <time>2022-01-19T12:34:18Z</time>
      </trkpt>
      <trkpt lat="44.87538" lon="5.52134">
        <ele>2087.6</ele>
        <time>2022-01-19T12:34:19Z</time>
      </trkpt>
      <trkpt lat="44.87538" lon="5.52134">
        <ele>2087.6</ele>
        <time>2022-01-19T12:34:20Z</time>
      </trkpt>
      <trkpt lat="44.87537" lon="5.52134">
        <ele>2087.6</ele>
        <time>2022-01-19T12:34:21Z</time>
      </trkpt>
      <trkpt lat="44.87537" lon="5.52134">
        <ele>2087.6</ele>
        <time>2022-01-19T12:34:22Z</time>
      </trkpt>
      <trkpt lat="44.87537" lon="5.52134">
        <ele>2087.6</ele>
        <time>2022-01-19T12:34:23Z</time>
      </trkpt>
      <trkpt lat="44.87537" lon="5.52134">
        <ele>2087.6</ele>
        <time>2022-01-19T12:34:24Z</time>
      </trkpt>
      <trkpt lat="44.87537" lon="5.52134">
        <ele>2087.6</ele>
        <time>2022-01-19T12:34:25Z</time>
      </trkpt>
      <trkpt lat="44.87537" lon="5.52134">
        <ele>2087.6</ele>
        <time>2022-01-19T12:34:26Z</time>
      </trkpt>
      <trkpt lat="44.87537" lon="5.52134">
        <ele>2087.6</ele>
        <time>2022-01-19T12:34:27Z</time>
      </trkpt>
      <trkpt lat="44.87537" lon="5.52134">
        <ele>2087.6</ele>
        <time>2022-01-19T12:34:28Z</time>
      </trkpt>
      <trkpt lat="44.87537" lon="5.52134">
        <ele>2087.6</ele>
        <time>2022-01-19T12:34:29Z</time>
      </trkpt>
      <trkpt lat="44.87537" lon="5.52134">
        <ele>2087.6</ele>
        <time>2022-01-19T12:34:30Z</time>
      </trkpt>
      <trkpt lat="44.87537" lon="5.52134">
        <ele>2087.6</ele>
        <time>2022-01-19T12:34:31Z</time>
      </trkpt>
      <trkpt lat="44.87537" lon="5.52134">
        <ele>2087.6</ele>
        <time>2022-01-19T12:34:32Z</time>
      </trkpt>
      <trkpt lat="44.87537" lon="5.52134">
        <ele>2087.6</ele>
        <time>2022-01-19T12:34:33Z</time>
      </trkpt>
      <trkpt lat="44.87537" lon="5.52134">
        <ele>2087.6</ele>
        <time>2022-01-19T12:34:34Z</time>
      </trkpt>
      <trkpt lat="44.87537" lon="5.52134">
        <ele>2087.6</ele>
        <time>2022-01-19T12:34:35Z</time>
      </trkpt>
      <trkpt lat="44.87537" lon="5.52134">
        <ele>2087.6</ele>
        <time>2022-01-19T12:34:36Z</time>
      </trkpt>
      <trkpt lat="44.87537" lon="5.52134">
        <ele>2087.6</ele>
        <time>2022-01-19T12:34:37Z</time>
      </trkpt>
      <trkpt lat="44.87537" lon="5.52134">
        <ele>2087.6</ele>
        <time>2022-01-19T12:34:38Z</time>
      </trkpt>
      <trkpt lat="44.87537" lon="5.52134">
        <ele>2087.6</ele>
        <time>2022-01-19T12:34:39Z</time>
      </trkpt>
      <trkpt lat="44.87537" lon="5.52134">
        <ele>2087.6</ele>
        <time>2022-01-19T12:34:40Z</time>
      </trkpt>
      <trkpt lat="44.87537" lon="5.52134">
        <ele>2087.6</ele>
        <time>2022-01-19T12:34:41Z</time>
      </trkpt>
      <trkpt lat="44.87537" lon="5.52134">
        <ele>2087.6</ele>
        <time>2022-01-19T12:34:42Z</time>
      </trkpt>
      <trkpt lat="44.8754" lon="5.52132">
        <ele>2087.3</ele>
        <time>2022-01-19T12:34:43Z</time>
      </trkpt>
      <trkpt lat="44.87543" lon="5.52131">
        <ele>2085.2</ele>
        <time>2022-01-19T12:34:44Z</time>
      </trkpt>
      <trkpt lat="44.87547" lon="5.5213">
        <ele>2084.9</ele>
        <time>2022-01-19T12:34:45Z</time>
      </trkpt>
      <trkpt lat="44.87549" lon="5.52128">
        <ele>2084.5</ele>
        <time>2022-01-19T12:34:46Z</time>
      </trkpt>
      <trkpt lat="44.87549" lon="5.52125">
        <ele>2082.7</ele>
        <time>2022-01-19T12:34:47Z</time>
      </trkpt>
      <trkpt lat="44.87548" lon="5.52123">
        <ele>2081.3</ele>
        <time>2022-01-19T12:34:48Z</time>
      </trkpt>
      <trkpt lat="44.87545" lon="5.5212">
        <ele>2081.6</ele>
        <time>2022-01-19T12:34:49Z</time>
      </trkpt>
      <trkpt lat="44.87542" lon="5.52117">
        <ele>2080.1</ele>
        <time>2022-01-19T12:34:50Z</time>
      </trkpt>
      <trkpt lat="44.87539" lon="5.52114">
        <ele>2078.6</ele>
        <time>2022-01-19T12:34:51Z</time>
      </trkpt>
      <trkpt lat="44.87536" lon="5.52112">
        <ele>2078.8</ele>
        <time>2022-01-19T12:34:52Z</time>
      </trkpt>
      <trkpt lat="44.87532" lon="5.52109">
        <ele>2077.4</ele>
        <time>2022-01-19T12:34:53Z</time>
      </trkpt>
      <trkpt lat="44.87529" lon="5.52107">
        <ele>2077.6</ele>
        <time>2022-01-19T12:34:54Z</time>
      </trkpt>
      <trkpt lat="44.87526" lon="5.52104">
        <ele>2076.2</ele>
        <time>2022-01-19T12:34:55Z</time>
      </trkpt>
      <trkpt lat="44.87522" lon="5.52101">
        <ele>2074.7</ele>
        <time>2022-01-19T12:34:56Z</time>
      </trkpt>
      <trkpt lat="44.8752" lon="5.52098">
        <ele>2074.9</ele>
        <time>2022-01-19T12:34:57Z</time>
      </trkpt>
      <trkpt lat="44.87518" lon="5.52095">
        <ele>2073.5</ele>
        <time>2022-01-19T12:34:58Z</time>
      </trkpt>
      <trkpt lat="44.8752" lon="5.52094">
        <ele>2073.3</ele>
        <time>2022-01-19T12:34:59Z</time>
      </trkpt>
      <trkpt lat="44.87523" lon="5.52092">
        <ele>2071.5</ele>
        <time>2022-01-19T12:35:00Z</time>
      </trkpt>
      <trkpt lat="44.87528" lon="5.5209">
        <ele>2071.1</ele>
        <time>2022-01-19T12:35:01Z</time>
      </trkpt>
      <trkpt lat="44.87531" lon="5.52089">
        <ele>2070.9</ele>
        <time>2022-01-19T12:35:02Z</time>
      </trkpt>
      <trkpt lat="44.87534" lon="5.52088">
        <ele>2069</ele>
        <time>2022-01-19T12:35:03Z</time>
      </trkpt>
      <trkpt lat="44.87537" lon="5.52087">
        <ele>2068.8</ele>
        <time>2022-01-19T12:35:04Z</time>
      </trkpt>
      <trkpt lat="44.8754" lon="5.52086">
        <ele>2068.6</ele>
        <time>2022-01-19T12:35:05Z</time>
      </trkpt>
      <trkpt lat="44.87544" lon="5.52085">
        <ele>2068.4</ele>
        <time>2022-01-19T12:35:06Z</time>
      </trkpt>
      <trkpt lat="44.87548" lon="5.52083">
        <ele>2066.5</ele>
        <time>2022-01-19T12:35:07Z</time>
      </trkpt>
      <trkpt lat="44.87552" lon="5.52082">
        <ele>2066</ele>
        <time>2022-01-19T12:35:08Z</time>
      </trkpt>
      <trkpt lat="44.87556" lon="5.52081">
        <ele>2065.7</ele>
        <time>2022-01-19T12:35:09Z</time>
      </trkpt>
      <trkpt lat="44.87558" lon="5.52079">
        <ele>2063.7</ele>
        <time>2022-01-19T12:35:10Z</time>
      </trkpt>
      <trkpt lat="44.87557" lon="5.52077">
        <ele>2064</ele>
        <time>2022-01-19T12:35:11Z</time>
      </trkpt>
      <trkpt lat="44.87555" lon="5.52075">
        <ele>2062.4</ele>
        <time>2022-01-19T12:35:12Z</time>
      </trkpt>
      <trkpt lat="44.87553" lon="5.52073">
        <ele>2062.6</ele>
        <time>2022-01-19T12:35:13Z</time>
      </trkpt>
      <trkpt lat="44.87551" lon="5.52071">
        <ele>2061.2</ele>
        <time>2022-01-19T12:35:14Z</time>
      </trkpt>
      <trkpt lat="44.87549" lon="5.52069">
        <ele>2061.2</ele>
        <time>2022-01-19T12:35:15Z</time>
      </trkpt>
      <trkpt lat="44.87546" lon="5.52068">
        <ele>2061.4</ele>
        <time>2022-01-19T12:35:16Z</time>
      </trkpt>
      <trkpt lat="44.87544" lon="5.52066">
        <ele>2059.9</ele>
        <time>2022-01-19T12:35:17Z</time>
      </trkpt>
      <trkpt lat="44.87542" lon="5.52064">
        <ele>2060.1</ele>
        <time>2022-01-19T12:35:18Z</time>
      </trkpt>
      <trkpt lat="44.87539" lon="5.52063">
        <ele>2058.7</ele>
        <time>2022-01-19T12:35:19Z</time>
      </trkpt>
      <trkpt lat="44.87536" lon="5.52061">
        <ele>2059</ele>
        <time>2022-01-19T12:35:20Z</time>
      </trkpt>
      <trkpt lat="44.87534" lon="5.52059">
        <ele>2059</ele>
        <time>2022-01-19T12:35:21Z</time>
      </trkpt>
      <trkpt lat="44.87533" lon="5.52056">
        <ele>2057.7</ele>
        <time>2022-01-19T12:35:22Z</time>
      </trkpt>
      <trkpt lat="44.87534" lon="5.52054">
        <ele>2056.3</ele>
        <time>2022-01-19T12:35:23Z</time>
      </trkpt>
      <trkpt lat="44.87535" lon="5.52053">
        <ele>2056</ele>
        <time>2022-01-19T12:35:24Z</time>
      </trkpt>
      <trkpt lat="44.87538" lon="5.52052">
        <ele>2055.8</ele>
        <time>2022-01-19T12:35:25Z</time>
      </trkpt>
      <trkpt lat="44.8754" lon="5.52052">
        <ele>2055.6</ele>
        <time>2022-01-19T12:35:26Z</time>
      </trkpt>
      <trkpt lat="44.87542" lon="5.52052">
        <ele>2055.6</ele>
        <time>2022-01-19T12:35:27Z</time>
      </trkpt>
      <trkpt lat="44.87544" lon="5.52052">
        <ele>2055.4</ele>
        <time>2022-01-19T12:35:28Z</time>
      </trkpt>
      <trkpt lat="44.87546" lon="5.52052">
        <ele>2055.2</ele>
        <time>2022-01-19T12:35:29Z</time>
      </trkpt>
      <trkpt lat="44.87548" lon="5.52052">
        <ele>2055.2</ele>
        <time>2022-01-19T12:35:30Z</time>
      </trkpt>
      <trkpt lat="44.8755" lon="5.52051">
        <ele>2055.1</ele>
        <time>2022-01-19T12:35:31Z</time>
      </trkpt>
      <trkpt lat="44.87553" lon="5.5205">
        <ele>2053.5</ele>
        <time>2022-01-19T12:35:32Z</time>
      </trkpt>
      <trkpt lat="44.87556" lon="5.52049">
        <ele>2053.3</ele>
        <time>2022-01-19T12:35:33Z</time>
      </trkpt>
      <trkpt lat="44.87559" lon="5.52049">
        <ele>2053.1</ele>
        <time>2022-01-19T12:35:34Z</time>
      </trkpt>
      <trkpt lat="44.87562" lon="5.52049">
        <ele>2052.9</ele>
        <time>2022-01-19T12:35:35Z</time>
      </trkpt>
      <trkpt lat="44.87564" lon="5.52049">
        <ele>2052.7</ele>
        <time>2022-01-19T12:35:36Z</time>
      </trkpt>
      <trkpt lat="44.87567" lon="5.52048">
        <ele>2052.7</ele>
        <time>2022-01-19T12:35:37Z</time>
      </trkpt>
      <trkpt lat="44.8757" lon="5.52048">
        <ele>2052.5</ele>
        <time>2022-01-19T12:35:38Z</time>
      </trkpt>
      <trkpt lat="44.87573" lon="5.52047">
        <ele>2052.2</ele>
        <time>2022-01-19T12:35:39Z</time>
      </trkpt>
      <trkpt lat="44.87576" lon="5.52046">
        <ele>2052</ele>
        <time>2022-01-19T12:35:40Z</time>
      </trkpt>
      <trkpt lat="44.87579" lon="5.52046">
        <ele>2051.6</ele>
        <time>2022-01-19T12:35:41Z</time>
      </trkpt>
      <trkpt lat="44.87583" lon="5.52046">
        <ele>2049.5</ele>
        <time>2022-01-19T12:35:42Z</time>
      </trkpt>
      <trkpt lat="44.87586" lon="5.52045">
        <ele>2049</ele>
        <time>2022-01-19T12:35:43Z</time>
      </trkpt>
      <trkpt lat="44.87589" lon="5.52045">
        <ele>2048.5</ele>
        <time>2022-01-19T12:35:44Z</time>
      </trkpt>
      <trkpt lat="44.87592" lon="5.52045">
        <ele>2048.1</ele>
        <time>2022-01-19T12:35:45Z</time>
      </trkpt>
      <trkpt lat="44.87596" lon="5.52045">
        <ele>2047.6</ele>
        <time>2022-01-19T12:35:46Z</time>
      </trkpt>
      <trkpt lat="44.87599" lon="5.52044">
        <ele>2047.1</ele>
        <time>2022-01-19T12:35:47Z</time>
      </trkpt>
      <trkpt lat="44.87602" lon="5.52044">
        <ele>2046.6</ele>
        <time>2022-01-19T12:35:48Z</time>
      </trkpt>
      <trkpt lat="44.87605" lon="5.52044">
        <ele>2046</ele>
        <time>2022-01-19T12:35:49Z</time>
      </trkpt>
      <trkpt lat="44.87609" lon="5.52044">
        <ele>2045.4</ele>
        <time>2022-01-19T12:35:50Z</time>
      </trkpt>
      <trkpt lat="44.87611" lon="5.52044">
        <ele>2044.8</ele>
        <time>2022-01-19T12:35:51Z</time>
      </trkpt>
      <trkpt lat="44.87614" lon="5.52044">
        <ele>2044.3</ele>
        <time>2022-01-19T12:35:52Z</time>
      </trkpt>
      <trkpt lat="44.87615" lon="5.52044">
        <ele>2044.3</ele>
        <time>2022-01-19T12:35:53Z</time>
      </trkpt>
      <trkpt lat="44.87618" lon="5.52044">
        <ele>2043.7</ele>
        <time>2022-01-19T12:35:54Z</time>
      </trkpt>
      <trkpt lat="44.8762" lon="5.52044">
        <ele>2043.1</ele>
        <time>2022-01-19T12:35:55Z</time>
      </trkpt>
      <trkpt lat="44.87622" lon="5.52043">
        <ele>2042.6</ele>
        <time>2022-01-19T12:35:56Z</time>
      </trkpt>
      <trkpt lat="44.87625" lon="5.52043">
        <ele>2042.1</ele>
        <time>2022-01-19T12:35:57Z</time>
      </trkpt>
      <trkpt lat="44.87627" lon="5.52044">
        <ele>2042.1</ele>
        <time>2022-01-19T12:35:58Z</time>
      </trkpt>
      <trkpt lat="44.87629" lon="5.52044">
        <ele>2041.6</ele>
        <time>2022-01-19T12:35:59Z</time>
      </trkpt>
      <trkpt lat="44.87631" lon="5.52044">
        <ele>2041.1</ele>
        <time>2022-01-19T12:36:00Z</time>
      </trkpt>
      <trkpt lat="44.87633" lon="5.52045">
        <ele>2041.1</ele>
        <time>2022-01-19T12:36:01Z</time>
      </trkpt>
      <trkpt lat="44.87633" lon="5.52045">
        <ele>2041.1</ele>
        <time>2022-01-19T12:36:02Z</time>
      </trkpt>
      <trkpt lat="44.87633" lon="5.52045">
        <ele>2041.1</ele>
        <time>2022-01-19T12:36:03Z</time>
      </trkpt>
      <trkpt lat="44.87633" lon="5.52044">
        <ele>2041.1</ele>
        <time>2022-01-19T12:36:04Z</time>
      </trkpt>
      <trkpt lat="44.87633" lon="5.52044">
        <ele>2041.1</ele>
        <time>2022-01-19T12:36:05Z</time>
      </trkpt>
      <trkpt lat="44.87633" lon="5.52044">
        <ele>2041.1</ele>
        <time>2022-01-19T12:36:06Z</time>
      </trkpt>
      <trkpt lat="44.87633" lon="5.52044">
        <ele>2041.1</ele>
        <time>2022-01-19T12:36:07Z</time>
      </trkpt>
      <trkpt lat="44.87633" lon="5.52044">
        <ele>2041.1</ele>
        <time>2022-01-19T12:36:08Z</time>
      </trkpt>
      <trkpt lat="44.87633" lon="5.52044">
        <ele>2041.1</ele>
        <time>2022-01-19T12:36:09Z</time>
      </trkpt>
      <trkpt lat="44.87633" lon="5.52044">
        <ele>2041.1</ele>
        <time>2022-01-19T12:36:10Z</time>
      </trkpt>
      <trkpt lat="44.87633" lon="5.52044">
        <ele>2041.1</ele>
        <time>2022-01-19T12:36:11Z</time>
      </trkpt>
      <trkpt lat="44.87633" lon="5.52044">
        <ele>2041.1</ele>
        <time>2022-01-19T12:36:12Z</time>
      </trkpt>
      <trkpt lat="44.87633" lon="5.52044">
        <ele>2041.1</ele>
        <time>2022-01-19T12:36:13Z</time>
      </trkpt>
      <trkpt lat="44.87633" lon="5.52044">
        <ele>2041.1</ele>
        <time>2022-01-19T12:36:14Z</time>
      </trkpt>
      <trkpt lat="44.87633" lon="5.52044">
        <ele>2041.1</ele>
        <time>2022-01-19T12:36:15Z</time>
      </trkpt>
      <trkpt lat="44.87633" lon="5.52044">
        <ele>2041.1</ele>
        <time>2022-01-19T12:36:16Z</time>
      </trkpt>
      <trkpt lat="44.87633" lon="5.52044">
        <ele>2041.1</ele>
        <time>2022-01-19T12:36:17Z</time>
      </trkpt>
      <trkpt lat="44.87633" lon="5.52044">
        <ele>2041.1</ele>
        <time>2022-01-19T12:36:18Z</time>
      </trkpt>
      <trkpt lat="44.87633" lon="5.52044">
        <ele>2041.1</ele>
        <time>2022-01-19T12:36:19Z</time>
      </trkpt>
      <trkpt lat="44.87633" lon="5.52043">
        <ele>2041.1</ele>
        <time>2022-01-19T12:36:20Z</time>
      </trkpt>
      <trkpt lat="44.87633" lon="5.52043">
        <ele>2041.1</ele>
        <time>2022-01-19T12:36:21Z</time>
      </trkpt>
      <trkpt lat="44.87633" lon="5.52043">
        <ele>2041.1</ele>
        <time>2022-01-19T12:36:22Z</time>
      </trkpt>
      <trkpt lat="44.87633" lon="5.52043">
        <ele>2041.1</ele>
        <time>2022-01-19T12:36:23Z</time>
      </trkpt>
      <trkpt lat="44.87633" lon="5.52043">
        <ele>2041.1</ele>
        <time>2022-01-19T12:36:24Z</time>
      </trkpt>
      <trkpt lat="44.87633" lon="5.52043">
        <ele>2041.1</ele>
        <time>2022-01-19T12:36:25Z</time>
      </trkpt>
      <trkpt lat="44.87633" lon="5.52043">
        <ele>2041.1</ele>
        <time>2022-01-19T12:36:26Z</time>
      </trkpt>
      <trkpt lat="44.87633" lon="5.52043">
        <ele>2041.1</ele>
        <time>2022-01-19T12:36:27Z</time>
      </trkpt>
      <trkpt lat="44.87633" lon="5.52043">
        <ele>2041.1</ele>
        <time>2022-01-19T12:36:28Z</time>
      </trkpt>
      <trkpt lat="44.87633" lon="5.52043">
        <ele>2041.1</ele>
        <time>2022-01-19T12:36:29Z</time>
      </trkpt>
      <trkpt lat="44.87633" lon="5.52043">
        <ele>2041.1</ele>
        <time>2022-01-19T12:36:30Z</time>
      </trkpt>
      <trkpt lat="44.87633" lon="5.52043">
        <ele>2041.1</ele>
        <time>2022-01-19T12:36:31Z</time>
      </trkpt>
      <trkpt lat="44.87633" lon="5.52043">
        <ele>2041.1</ele>
        <time>2022-01-19T12:36:32Z</time>
      </trkpt>
      <trkpt lat="44.87633" lon="5.52043">
        <ele>2041.1</ele>
        <time>2022-01-19T12:36:33Z</time>
      </trkpt>
      <trkpt lat="44.87633" lon="5.52043">
        <ele>2041.1</ele>
        <time>2022-01-19T12:36:34Z</time>
      </trkpt>
      <trkpt lat="44.87633" lon="5.52043">
        <ele>2041.1</ele>
        <time>2022-01-19T12:36:35Z</time>
      </trkpt>
      <trkpt lat="44.87633" lon="5.52043">
        <ele>2041.1</ele>
        <time>2022-01-19T12:36:36Z</time>
      </trkpt>
      <trkpt lat="44.87633" lon="5.52042">
        <ele>2041.1</ele>
        <time>2022-01-19T12:36:37Z</time>
      </trkpt>
      <trkpt lat="44.87633" lon="5.52042">
        <ele>2041.1</ele>
        <time>2022-01-19T12:36:38Z</time>
      </trkpt>
      <trkpt lat="44.87633" lon="5.52042">
        <ele>2041.1</ele>
        <time>2022-01-19T12:36:39Z</time>
      </trkpt>
      <trkpt lat="44.87633" lon="5.52042">
        <ele>2041.1</ele>
        <time>2022-01-19T12:36:40Z</time>
      </trkpt>
      <trkpt lat="44.87633" lon="5.52042">
        <ele>2041.1</ele>
        <time>2022-01-19T12:36:41Z</time>
      </trkpt>
      <trkpt lat="44.87633" lon="5.52042">
        <ele>2041.1</ele>
        <time>2022-01-19T12:36:42Z</time>
      </trkpt>
      <trkpt lat="44.87633" lon="5.52042">
        <ele>2041.1</ele>
        <time>2022-01-19T12:36:43Z</time>
      </trkpt>
      <trkpt lat="44.87633" lon="5.52042">
        <ele>2041.1</ele>
        <time>2022-01-19T12:36:44Z</time>
      </trkpt>
      <trkpt lat="44.87633" lon="5.52042">
        <ele>2041.1</ele>
        <time>2022-01-19T12:36:45Z</time>
      </trkpt>
      <trkpt lat="44.87633" lon="5.52042">
        <ele>2041.1</ele>
        <time>2022-01-19T12:36:46Z</time>
      </trkpt>
      <trkpt lat="44.87633" lon="5.52042">
        <ele>2041.1</ele>
        <time>2022-01-19T12:36:47Z</time>
      </trkpt>
      <trkpt lat="44.87633" lon="5.52042">
        <ele>2041.1</ele>
        <time>2022-01-19T12:36:48Z</time>
      </trkpt>
      <trkpt lat="44.87633" lon="5.52042">
        <ele>2041.1</ele>
        <time>2022-01-19T12:36:49Z</time>
      </trkpt>
      <trkpt lat="44.87633" lon="5.52042">
        <ele>2041.1</ele>
        <time>2022-01-19T12:36:50Z</time>
      </trkpt>
      <trkpt lat="44.87633" lon="5.52042">
        <ele>2039.7</ele>
        <time>2022-01-19T12:36:51Z</time>
      </trkpt>
      <trkpt lat="44.87633" lon="5.52042">
        <ele>2039.7</ele>
        <time>2022-01-19T12:36:52Z</time>
      </trkpt>
      <trkpt lat="44.87633" lon="5.52041">
        <ele>2039.7</ele>
        <time>2022-01-19T12:36:53Z</time>
      </trkpt>
      <trkpt lat="44.87633" lon="5.52041">
        <ele>2039.7</ele>
        <time>2022-01-19T12:36:54Z</time>
      </trkpt>
      <trkpt lat="44.87633" lon="5.52041">
        <ele>2039.7</ele>
        <time>2022-01-19T12:36:55Z</time>
      </trkpt>
      <trkpt lat="44.87633" lon="5.52041">
        <ele>2039.7</ele>
        <time>2022-01-19T12:36:56Z</time>
      </trkpt>
      <trkpt lat="44.87633" lon="5.52041">
        <ele>2039.7</ele>
        <time>2022-01-19T12:36:57Z</time>
      </trkpt>
      <trkpt lat="44.87633" lon="5.52041">
        <ele>2039.7</ele>
        <time>2022-01-19T12:36:58Z</time>
      </trkpt>
      <trkpt lat="44.87633" lon="5.52041">
        <ele>2039.7</ele>
        <time>2022-01-19T12:36:59Z</time>
      </trkpt>
      <trkpt lat="44.87633" lon="5.52041">
        <ele>2039.7</ele>
        <time>2022-01-19T12:37:00Z</time>
      </trkpt>
      <trkpt lat="44.87633" lon="5.52041">
        <ele>2039.7</ele>
        <time>2022-01-19T12:37:01Z</time>
      </trkpt>
      <trkpt lat="44.87633" lon="5.52041">
        <ele>2039.7</ele>
        <time>2022-01-19T12:37:02Z</time>
      </trkpt>
      <trkpt lat="44.87633" lon="5.52041">
        <ele>2039.7</ele>
        <time>2022-01-19T12:37:03Z</time>
      </trkpt>
      <trkpt lat="44.87633" lon="5.52041">
        <ele>2039.7</ele>
        <time>2022-01-19T12:37:04Z</time>
      </trkpt>
      <trkpt lat="44.87633" lon="5.52041">
        <ele>2039.7</ele>
        <time>2022-01-19T12:37:05Z</time>
      </trkpt>
      <trkpt lat="44.87633" lon="5.52041">
        <ele>2039.7</ele>
        <time>2022-01-19T12:37:06Z</time>
      </trkpt>
      <trkpt lat="44.87633" lon="5.52041">
        <ele>2039.7</ele>
        <time>2022-01-19T12:37:07Z</time>
      </trkpt>
      <trkpt lat="44.87633" lon="5.52041">
        <ele>2039.7</ele>
        <time>2022-01-19T12:37:08Z</time>
      </trkpt>
      <trkpt lat="44.87633" lon="5.5204">
        <ele>2039.7</ele>
        <time>2022-01-19T12:37:09Z</time>
      </trkpt>
      <trkpt lat="44.87633" lon="5.5204">
        <ele>2039.7</ele>
        <time>2022-01-19T12:37:10Z</time>
      </trkpt>
      <trkpt lat="44.8763" lon="5.52038">
        <ele>2040.2</ele>
        <time>2022-01-19T12:37:11Z</time>
      </trkpt>
      <trkpt lat="44.87628" lon="5.52036">
        <ele>2038.7</ele>
        <time>2022-01-19T12:37:12Z</time>
      </trkpt>
      <trkpt lat="44.87626" lon="5.52034">
        <ele>2039.2</ele>
        <time>2022-01-19T12:37:13Z</time>
      </trkpt>
      <trkpt lat="44.87624" lon="5.52032">
        <ele>2038.2</ele>
        <time>2022-01-19T12:37:14Z</time>
      </trkpt>
      <trkpt lat="44.87623" lon="5.5203">
        <ele>2038.2</ele>
        <time>2022-01-19T12:37:15Z</time>
      </trkpt>
      <trkpt lat="44.87622" lon="5.52028">
        <ele>2037.3</ele>
        <time>2022-01-19T12:37:16Z</time>
      </trkpt>
      <trkpt lat="44.87621" lon="5.52027">
        <ele>2037.3</ele>
        <time>2022-01-19T12:37:17Z</time>
      </trkpt>
      <trkpt lat="44.87621" lon="5.52025">
        <ele>2037.3</ele>
        <time>2022-01-19T12:37:18Z</time>
      </trkpt>
      <trkpt lat="44.8762" lon="5.52023">
        <ele>2035.8</ele>
        <time>2022-01-19T12:37:19Z</time>
      </trkpt>
      <trkpt lat="44.8762" lon="5.52022">
        <ele>2035.8</ele>
        <time>2022-01-19T12:37:20Z</time>
      </trkpt>
      <trkpt lat="44.8762" lon="5.5202">
        <ele>2035.8</ele>
        <time>2022-01-19T12:37:21Z</time>
      </trkpt>
      <trkpt lat="44.8762" lon="5.52019">
        <ele>2034.4</ele>
        <time>2022-01-19T12:37:22Z</time>
      </trkpt>
      <trkpt lat="44.87619" lon="5.52017">
        <ele>2035</ele>
        <time>2022-01-19T12:37:23Z</time>
      </trkpt>
      <trkpt lat="44.87618" lon="5.52015">
        <ele>2033.7</ele>
        <time>2022-01-19T12:37:24Z</time>
      </trkpt>
      <trkpt lat="44.87616" lon="5.52014">
        <ele>2033.7</ele>
        <time>2022-01-19T12:37:25Z</time>
      </trkpt>
      <trkpt lat="44.87615" lon="5.52012">
        <ele>2034.4</ele>
        <time>2022-01-19T12:37:26Z</time>
      </trkpt>
      <trkpt lat="44.87615" lon="5.5201">
        <ele>2033.2</ele>
        <time>2022-01-19T12:37:27Z</time>
      </trkpt>
      <trkpt lat="44.87614" lon="5.52008">
        <ele>2033.2</ele>
        <time>2022-01-19T12:37:28Z</time>
      </trkpt>
      <trkpt lat="44.87612" lon="5.52006">
        <ele>2032.6</ele>
        <time>2022-01-19T12:37:29Z</time>
      </trkpt>
      <trkpt lat="44.87611" lon="5.52004">
        <ele>2032.6</ele>
        <time>2022-01-19T12:37:30Z</time>
      </trkpt>
      <trkpt lat="44.8761" lon="5.52003">
        <ele>2031.2</ele>
        <time>2022-01-19T12:37:31Z</time>
      </trkpt>
      <trkpt lat="44.87609" lon="5.52001">
        <ele>2031.9</ele>
        <time>2022-01-19T12:37:32Z</time>
      </trkpt>
      <trkpt lat="44.87608" lon="5.52">
        <ele>2031.9</ele>
        <time>2022-01-19T12:37:33Z</time>
      </trkpt>
      <trkpt lat="44.87607" lon="5.51998">
        <ele>2030.4</ele>
        <time>2022-01-19T12:37:34Z</time>
      </trkpt>
      <trkpt lat="44.87607" lon="5.51996">
        <ele>2031.1</ele>
        <time>2022-01-19T12:37:35Z</time>
      </trkpt>
      <trkpt lat="44.87605" lon="5.51995">
        <ele>2031.1</ele>
        <time>2022-01-19T12:37:36Z</time>
      </trkpt>
      <trkpt lat="44.87605" lon="5.51993">
        <ele>2029.5</ele>
        <time>2022-01-19T12:37:37Z</time>
      </trkpt>
      <trkpt lat="44.87604" lon="5.51992">
        <ele>2030.1</ele>
        <time>2022-01-19T12:37:38Z</time>
      </trkpt>
      <trkpt lat="44.87602" lon="5.5199">
        <ele>2030.1</ele>
        <time>2022-01-19T12:37:39Z</time>
      </trkpt>
      <trkpt lat="44.87601" lon="5.51989">
        <ele>2028.3</ele>
        <time>2022-01-19T12:37:40Z</time>
      </trkpt>
      <trkpt lat="44.87599" lon="5.51988">
        <ele>2028.9</ele>
        <time>2022-01-19T12:37:41Z</time>
      </trkpt>
      <trkpt lat="44.87597" lon="5.51987">
        <ele>2029.5</ele>
        <time>2022-01-19T12:37:42Z</time>
      </trkpt>
      <trkpt lat="44.87594" lon="5.51986">
        <ele>2030.1</ele>
        <time>2022-01-19T12:37:43Z</time>
      </trkpt>
      <trkpt lat="44.87592" lon="5.51985">
        <ele>2028.2</ele>
        <time>2022-01-19T12:37:44Z</time>
      </trkpt>
      <trkpt lat="44.8759" lon="5.51984">
        <ele>2028.8</ele>
        <time>2022-01-19T12:37:45Z</time>
      </trkpt>
      <trkpt lat="44.87588" lon="5.51983">
        <ele>2029.4</ele>
        <time>2022-01-19T12:37:46Z</time>
      </trkpt>
      <trkpt lat="44.87586" lon="5.51982">
        <ele>2029.4</ele>
        <time>2022-01-19T12:37:47Z</time>
      </trkpt>
      <trkpt lat="44.87584" lon="5.51982">
        <ele>2030</ele>
        <time>2022-01-19T12:37:48Z</time>
      </trkpt>
      <trkpt lat="44.87583" lon="5.51981">
        <ele>2027.9</ele>
        <time>2022-01-19T12:37:49Z</time>
      </trkpt>
      <trkpt lat="44.87581" lon="5.5198">
        <ele>2028.5</ele>
        <time>2022-01-19T12:37:50Z</time>
      </trkpt>
      <trkpt lat="44.87579" lon="5.51978">
        <ele>2028.5</ele>
        <time>2022-01-19T12:37:51Z</time>
      </trkpt>
      <trkpt lat="44.87577" lon="5.51977">
        <ele>2026.9</ele>
        <time>2022-01-19T12:37:52Z</time>
      </trkpt>
      <trkpt lat="44.87574" lon="5.51975">
        <ele>2027.4</ele>
        <time>2022-01-19T12:37:53Z</time>
      </trkpt>
      <trkpt lat="44.87572" lon="5.51974">
        <ele>2027.8</ele>
        <time>2022-01-19T12:37:54Z</time>
      </trkpt>
      <trkpt lat="44.8757" lon="5.51972">
        <ele>2025.9</ele>
        <time>2022-01-19T12:37:55Z</time>
      </trkpt>
      <trkpt lat="44.87568" lon="5.51971">
        <ele>2025.9</ele>
        <time>2022-01-19T12:37:56Z</time>
      </trkpt>
      <trkpt lat="44.87568" lon="5.51971">
        <ele>2025.9</ele>
        <time>2022-01-19T12:37:57Z</time>
      </trkpt>
      <trkpt lat="44.87568" lon="5.51971">
        <ele>2025.9</ele>
        <time>2022-01-19T12:37:58Z</time>
      </trkpt>
      <trkpt lat="44.87568" lon="5.51971">
        <ele>2025.9</ele>
        <time>2022-01-19T12:37:59Z</time>
      </trkpt>
      <trkpt lat="44.87568" lon="5.51971">
        <ele>2025.9</ele>
        <time>2022-01-19T12:38:00Z</time>
      </trkpt>
      <trkpt lat="44.87568" lon="5.51971">
        <ele>2025.9</ele>
        <time>2022-01-19T12:38:01Z</time>
      </trkpt>
      <trkpt lat="44.87568" lon="5.51971">
        <ele>2025.9</ele>
        <time>2022-01-19T12:38:02Z</time>
      </trkpt>
      <trkpt lat="44.87568" lon="5.51971">
        <ele>2025.9</ele>
        <time>2022-01-19T12:38:03Z</time>
      </trkpt>
      <trkpt lat="44.87568" lon="5.51971">
        <ele>2025.9</ele>
        <time>2022-01-19T12:38:04Z</time>
      </trkpt>
      <trkpt lat="44.87568" lon="5.51971">
        <ele>2025.9</ele>
        <time>2022-01-19T12:38:05Z</time>
      </trkpt>
      <trkpt lat="44.87568" lon="5.51971">
        <ele>2025.9</ele>
        <time>2022-01-19T12:38:06Z</time>
      </trkpt>
      <trkpt lat="44.87568" lon="5.51971">
        <ele>2025.9</ele>
        <time>2022-01-19T12:38:07Z</time>
      </trkpt>
      <trkpt lat="44.87568" lon="5.51971">
        <ele>2025.9</ele>
        <time>2022-01-19T12:38:08Z</time>
      </trkpt>
      <trkpt lat="44.87568" lon="5.51971">
        <ele>2025.9</ele>
        <time>2022-01-19T12:38:09Z</time>
      </trkpt>
      <trkpt lat="44.87568" lon="5.51971">
        <ele>2025.9</ele>
        <time>2022-01-19T12:38:10Z</time>
      </trkpt>
      <trkpt lat="44.87568" lon="5.51971">
        <ele>2025.9</ele>
        <time>2022-01-19T12:38:11Z</time>
      </trkpt>
      <trkpt lat="44.87568" lon="5.51971">
        <ele>2025.9</ele>
        <time>2022-01-19T12:38:12Z</time>
      </trkpt>
      <trkpt lat="44.87568" lon="5.51971">
        <ele>2025.9</ele>
        <time>2022-01-19T12:38:13Z</time>
      </trkpt>
      <trkpt lat="44.87568" lon="5.51971">
        <ele>2025.9</ele>
        <time>2022-01-19T12:38:14Z</time>
      </trkpt>
      <trkpt lat="44.87568" lon="5.51971">
        <ele>2025.9</ele>
        <time>2022-01-19T12:38:15Z</time>
      </trkpt>
      <trkpt lat="44.87568" lon="5.51971">
        <ele>2025.9</ele>
        <time>2022-01-19T12:38:16Z</time>
      </trkpt>
      <trkpt lat="44.87568" lon="5.51971">
        <ele>2025.9</ele>
        <time>2022-01-19T12:38:17Z</time>
      </trkpt>
      <trkpt lat="44.87568" lon="5.51971">
        <ele>2025.9</ele>
        <time>2022-01-19T12:38:18Z</time>
      </trkpt>
      <trkpt lat="44.87568" lon="5.51971">
        <ele>2025.9</ele>
        <time>2022-01-19T12:38:19Z</time>
      </trkpt>
      <trkpt lat="44.87568" lon="5.51971">
        <ele>2025.9</ele>
        <time>2022-01-19T12:38:20Z</time>
      </trkpt>
      <trkpt lat="44.87565" lon="5.51971">
        <ele>2026.2</ele>
        <time>2022-01-19T12:38:21Z</time>
      </trkpt>
      <trkpt lat="44.87564" lon="5.51969">
        <ele>2026.6</ele>
        <time>2022-01-19T12:38:22Z</time>
      </trkpt>
      <trkpt lat="44.87562" lon="5.51968">
        <ele>2024.3</ele>
        <time>2022-01-19T12:38:23Z</time>
      </trkpt>
      <trkpt lat="44.8756" lon="5.51967">
        <ele>2024.6</ele>
        <time>2022-01-19T12:38:24Z</time>
      </trkpt>
      <trkpt lat="44.87558" lon="5.51966">
        <ele>2024.9</ele>
        <time>2022-01-19T12:38:25Z</time>
      </trkpt>
      <trkpt lat="44.87556" lon="5.51964">
        <ele>2024.9</ele>
        <time>2022-01-19T12:38:26Z</time>
      </trkpt>
      <trkpt lat="44.87554" lon="5.51963">
        <ele>2023</ele>
        <time>2022-01-19T12:38:27Z</time>
      </trkpt>
      <trkpt lat="44.87551" lon="5.51962">
        <ele>2023.3</ele>
        <time>2022-01-19T12:38:28Z</time>
      </trkpt>
      <trkpt lat="44.87549" lon="5.51961">
        <ele>2023.3</ele>
        <time>2022-01-19T12:38:29Z</time>
      </trkpt>
      <trkpt lat="44.87547" lon="5.5196">
        <ele>2021.2</ele>
        <time>2022-01-19T12:38:30Z</time>
      </trkpt>
      <trkpt lat="44.87545" lon="5.51959">
        <ele>2021.5</ele>
        <time>2022-01-19T12:38:31Z</time>
      </trkpt>
      <trkpt lat="44.87543" lon="5.51958">
        <ele>2021.5</ele>
        <time>2022-01-19T12:38:32Z</time>
      </trkpt>
      <trkpt lat="44.87541" lon="5.51957">
        <ele>2021.8</ele>
        <time>2022-01-19T12:38:33Z</time>
      </trkpt>
      <trkpt lat="44.87541" lon="5.51957">
        <ele>2021.8</ele>
        <time>2022-01-19T12:38:34Z</time>
      </trkpt>
      <trkpt lat="44.87541" lon="5.51957">
        <ele>2021.8</ele>
        <time>2022-01-19T12:38:35Z</time>
      </trkpt>
      <trkpt lat="44.87541" lon="5.51957">
        <ele>2021.8</ele>
        <time>2022-01-19T12:38:36Z</time>
      </trkpt>
      <trkpt lat="44.87541" lon="5.51956">
        <ele>2021.8</ele>
        <time>2022-01-19T12:38:37Z</time>
      </trkpt>
      <trkpt lat="44.87541" lon="5.51956">
        <ele>2021.8</ele>
        <time>2022-01-19T12:38:38Z</time>
      </trkpt>
      <trkpt lat="44.87541" lon="5.51956">
        <ele>2021.8</ele>
        <time>2022-01-19T12:38:39Z</time>
      </trkpt>
      <trkpt lat="44.87541" lon="5.51956">
        <ele>2021.8</ele>
        <time>2022-01-19T12:38:40Z</time>
      </trkpt>
      <trkpt lat="44.8754" lon="5.51956">
        <ele>2021.8</ele>
        <time>2022-01-19T12:38:41Z</time>
      </trkpt>
      <trkpt lat="44.8754" lon="5.51956">
        <ele>2021.8</ele>
        <time>2022-01-19T12:38:42Z</time>
      </trkpt>
      <trkpt lat="44.8754" lon="5.51956">
        <ele>2021.8</ele>
        <time>2022-01-19T12:38:43Z</time>
      </trkpt>
      <trkpt lat="44.8754" lon="5.51956">
        <ele>2021.8</ele>
        <time>2022-01-19T12:38:44Z</time>
      </trkpt>
      <trkpt lat="44.8754" lon="5.51956">
        <ele>2021.8</ele>
        <time>2022-01-19T12:38:45Z</time>
      </trkpt>
      <trkpt lat="44.8754" lon="5.51956">
        <ele>2021.8</ele>
        <time>2022-01-19T12:38:46Z</time>
      </trkpt>
      <trkpt lat="44.8754" lon="5.51956">
        <ele>2021.8</ele>
        <time>2022-01-19T12:38:47Z</time>
      </trkpt>
      <trkpt lat="44.8754" lon="5.51956">
        <ele>2021.8</ele>
        <time>2022-01-19T12:38:48Z</time>
      </trkpt>
      <trkpt lat="44.8754" lon="5.51956">
        <ele>2022.1</ele>
        <time>2022-01-19T12:38:49Z</time>
      </trkpt>
      <trkpt lat="44.8754" lon="5.51956">
        <ele>2019.7</ele>
        <time>2022-01-19T12:38:50Z</time>
      </trkpt>
      <trkpt lat="44.87539" lon="5.51956">
        <ele>2019.7</ele>
        <time>2022-01-19T12:38:51Z</time>
      </trkpt>
      <trkpt lat="44.87539" lon="5.51956">
        <ele>2019.7</ele>
        <time>2022-01-19T12:38:52Z</time>
      </trkpt>
      <trkpt lat="44.87539" lon="5.51955">
        <ele>2019.7</ele>
        <time>2022-01-19T12:38:53Z</time>
      </trkpt>
      <trkpt lat="44.87539" lon="5.51955">
        <ele>2019.7</ele>
        <time>2022-01-19T12:38:54Z</time>
      </trkpt>
      <trkpt lat="44.87539" lon="5.51955">
        <ele>2019.7</ele>
        <time>2022-01-19T12:38:55Z</time>
      </trkpt>
      <trkpt lat="44.87539" lon="5.51955">
        <ele>2019.7</ele>
        <time>2022-01-19T12:38:56Z</time>
      </trkpt>
      <trkpt lat="44.87539" lon="5.51955">
        <ele>2019.7</ele>
        <time>2022-01-19T12:38:57Z</time>
      </trkpt>
      <trkpt lat="44.87539" lon="5.51955">
        <ele>2019.7</ele>
        <time>2022-01-19T12:38:58Z</time>
      </trkpt>
      <trkpt lat="44.87539" lon="5.51955">
        <ele>2019.7</ele>
        <time>2022-01-19T12:38:59Z</time>
      </trkpt>
      <trkpt lat="44.87538" lon="5.51955">
        <ele>2019.7</ele>
        <time>2022-01-19T12:39:00Z</time>
      </trkpt>
      <trkpt lat="44.87538" lon="5.51955">
        <ele>2019.7</ele>
        <time>2022-01-19T12:39:01Z</time>
      </trkpt>
      <trkpt lat="44.87538" lon="5.51955">
        <ele>2019.7</ele>
        <time>2022-01-19T12:39:02Z</time>
      </trkpt>
      <trkpt lat="44.87538" lon="5.51955">
        <ele>2019.7</ele>
        <time>2022-01-19T12:39:03Z</time>
      </trkpt>
      <trkpt lat="44.87538" lon="5.51955">
        <ele>2019.7</ele>
        <time>2022-01-19T12:39:04Z</time>
      </trkpt>
      <trkpt lat="44.87538" lon="5.51955">
        <ele>2019.7</ele>
        <time>2022-01-19T12:39:05Z</time>
      </trkpt>
      <trkpt lat="44.87538" lon="5.51955">
        <ele>2019.7</ele>
        <time>2022-01-19T12:39:06Z</time>
      </trkpt>
      <trkpt lat="44.87538" lon="5.51955">
        <ele>2019.7</ele>
        <time>2022-01-19T12:39:07Z</time>
      </trkpt>
      <trkpt lat="44.87538" lon="5.51955">
        <ele>2019.7</ele>
        <time>2022-01-19T12:39:08Z</time>
      </trkpt>
      <trkpt lat="44.87538" lon="5.51954">
        <ele>2019.7</ele>
        <time>2022-01-19T12:39:09Z</time>
      </trkpt>
      <trkpt lat="44.87537" lon="5.51954">
        <ele>2019.7</ele>
        <time>2022-01-19T12:39:10Z</time>
      </trkpt>
      <trkpt lat="44.87537" lon="5.51954">
        <ele>2019.7</ele>
        <time>2022-01-19T12:39:11Z</time>
      </trkpt>
      <trkpt lat="44.87537" lon="5.51954">
        <ele>2019.7</ele>
        <time>2022-01-19T12:39:12Z</time>
      </trkpt>
      <trkpt lat="44.87537" lon="5.51954">
        <ele>2019.7</ele>
        <time>2022-01-19T12:39:13Z</time>
      </trkpt>
      <trkpt lat="44.87537" lon="5.51954">
        <ele>2019.7</ele>
        <time>2022-01-19T12:39:14Z</time>
      </trkpt>
      <trkpt lat="44.87537" lon="5.51954">
        <ele>2019.7</ele>
        <time>2022-01-19T12:39:15Z</time>
      </trkpt>
      <trkpt lat="44.87537" lon="5.51954">
        <ele>2019.7</ele>
        <time>2022-01-19T12:39:16Z</time>
      </trkpt>
      <trkpt lat="44.87537" lon="5.51954">
        <ele>2019.7</ele>
        <time>2022-01-19T12:39:17Z</time>
      </trkpt>
      <trkpt lat="44.87537" lon="5.51954">
        <ele>2020.1</ele>
        <time>2022-01-19T12:39:18Z</time>
      </trkpt>
      <trkpt lat="44.87536" lon="5.51954">
        <ele>2020.1</ele>
        <time>2022-01-19T12:39:19Z</time>
      </trkpt>
      <trkpt lat="44.87536" lon="5.51954">
        <ele>2020.1</ele>
        <time>2022-01-19T12:39:20Z</time>
      </trkpt>
      <trkpt lat="44.87536" lon="5.51954">
        <ele>2020.1</ele>
        <time>2022-01-19T12:39:21Z</time>
      </trkpt>
      <trkpt lat="44.87536" lon="5.51954">
        <ele>2020.1</ele>
        <time>2022-01-19T12:39:22Z</time>
      </trkpt>
      <trkpt lat="44.87536" lon="5.51954">
        <ele>2020.1</ele>
        <time>2022-01-19T12:39:23Z</time>
      </trkpt>
      <trkpt lat="44.87536" lon="5.51954">
        <ele>2020.1</ele>
        <time>2022-01-19T12:39:24Z</time>
      </trkpt>
      <trkpt lat="44.87536" lon="5.51954">
        <ele>2020.1</ele>
        <time>2022-01-19T12:39:25Z</time>
      </trkpt>
      <trkpt lat="44.87536" lon="5.51953">
        <ele>2020.1</ele>
        <time>2022-01-19T12:39:26Z</time>
      </trkpt>
      <trkpt lat="44.87536" lon="5.51953">
        <ele>2020.1</ele>
        <time>2022-01-19T12:39:27Z</time>
      </trkpt>
      <trkpt lat="44.87536" lon="5.51953">
        <ele>2020.1</ele>
        <time>2022-01-19T12:39:28Z</time>
      </trkpt>
      <trkpt lat="44.87535" lon="5.51953">
        <ele>2020.1</ele>
        <time>2022-01-19T12:39:29Z</time>
      </trkpt>
      <trkpt lat="44.87535" lon="5.51953">
        <ele>2020.1</ele>
        <time>2022-01-19T12:39:30Z</time>
      </trkpt>
      <trkpt lat="44.87535" lon="5.51953">
        <ele>2020.1</ele>
        <time>2022-01-19T12:39:31Z</time>
      </trkpt>
      <trkpt lat="44.87535" lon="5.51953">
        <ele>2020.1</ele>
        <time>2022-01-19T12:39:32Z</time>
      </trkpt>
      <trkpt lat="44.87535" lon="5.51953">
        <ele>2020.1</ele>
        <time>2022-01-19T12:39:33Z</time>
      </trkpt>
      <trkpt lat="44.87535" lon="5.51953">
        <ele>2020.1</ele>
        <time>2022-01-19T12:39:34Z</time>
      </trkpt>
      <trkpt lat="44.87535" lon="5.51953">
        <ele>2020.1</ele>
        <time>2022-01-19T12:39:35Z</time>
      </trkpt>
      <trkpt lat="44.87535" lon="5.51953">
        <ele>2020.1</ele>
        <time>2022-01-19T12:39:36Z</time>
      </trkpt>
      <trkpt lat="44.87535" lon="5.51953">
        <ele>2020.1</ele>
        <time>2022-01-19T12:39:37Z</time>
      </trkpt>
      <trkpt lat="44.87535" lon="5.51953">
        <ele>2020.1</ele>
        <time>2022-01-19T12:39:38Z</time>
      </trkpt>
      <trkpt lat="44.87534" lon="5.51953">
        <ele>2020.1</ele>
        <time>2022-01-19T12:39:39Z</time>
      </trkpt>
      <trkpt lat="44.87534" lon="5.51953">
        <ele>2020.1</ele>
        <time>2022-01-19T12:39:40Z</time>
      </trkpt>
      <trkpt lat="44.87534" lon="5.51953">
        <ele>2020.1</ele>
        <time>2022-01-19T12:39:41Z</time>
      </trkpt>
      <trkpt lat="44.87534" lon="5.51952">
        <ele>2020.1</ele>
        <time>2022-01-19T12:39:42Z</time>
      </trkpt>
      <trkpt lat="44.87534" lon="5.51952">
        <ele>2020.1</ele>
        <time>2022-01-19T12:39:43Z</time>
      </trkpt>
      <trkpt lat="44.87534" lon="5.51952">
        <ele>2020.1</ele>
        <time>2022-01-19T12:39:44Z</time>
      </trkpt>
      <trkpt lat="44.87534" lon="5.51952">
        <ele>2020.1</ele>
        <time>2022-01-19T12:39:45Z</time>
      </trkpt>
      <trkpt lat="44.87534" lon="5.51952">
        <ele>2020.1</ele>
        <time>2022-01-19T12:39:46Z</time>
      </trkpt>
      <trkpt lat="44.87534" lon="5.51952">
        <ele>2020.4</ele>
        <time>2022-01-19T12:39:47Z</time>
      </trkpt>
      <trkpt lat="44.87533" lon="5.51952">
        <ele>2020.4</ele>
        <time>2022-01-19T12:39:48Z</time>
      </trkpt>
      <trkpt lat="44.87533" lon="5.51952">
        <ele>2020.4</ele>
        <time>2022-01-19T12:39:49Z</time>
      </trkpt>
      <trkpt lat="44.87533" lon="5.51952">
        <ele>2020.4</ele>
        <time>2022-01-19T12:39:50Z</time>
      </trkpt>
      <trkpt lat="44.87533" lon="5.51952">
        <ele>2020.4</ele>
        <time>2022-01-19T12:39:51Z</time>
      </trkpt>
      <trkpt lat="44.87533" lon="5.51952">
        <ele>2020.4</ele>
        <time>2022-01-19T12:39:52Z</time>
      </trkpt>
      <trkpt lat="44.87533" lon="5.51952">
        <ele>2020.4</ele>
        <time>2022-01-19T12:39:53Z</time>
      </trkpt>
      <trkpt lat="44.87533" lon="5.51952">
        <ele>2020.4</ele>
        <time>2022-01-19T12:39:54Z</time>
      </trkpt>
      <trkpt lat="44.87533" lon="5.51952">
        <ele>2020.4</ele>
        <time>2022-01-19T12:39:55Z</time>
      </trkpt>
      <trkpt lat="44.87533" lon="5.51952">
        <ele>2020.4</ele>
        <time>2022-01-19T12:39:56Z</time>
      </trkpt>
      <trkpt lat="44.87533" lon="5.51952">
        <ele>2020.4</ele>
        <time>2022-01-19T12:39:57Z</time>
      </trkpt>
      <trkpt lat="44.87532" lon="5.51951">
        <ele>2017.9</ele>
        <time>2022-01-19T12:39:58Z</time>
      </trkpt>
      <trkpt lat="44.87532" lon="5.51951">
        <ele>2017.9</ele>
        <time>2022-01-19T12:39:59Z</time>
      </trkpt>
      <trkpt lat="44.87532" lon="5.51951">
        <ele>2017.9</ele>
        <time>2022-01-19T12:40:00Z</time>
      </trkpt>
      <trkpt lat="44.87532" lon="5.51951">
        <ele>2017.9</ele>
        <time>2022-01-19T12:40:01Z</time>
      </trkpt>
      <trkpt lat="44.87532" lon="5.51951">
        <ele>2017.9</ele>
        <time>2022-01-19T12:40:02Z</time>
      </trkpt>
      <trkpt lat="44.87532" lon="5.51951">
        <ele>2017.9</ele>
        <time>2022-01-19T12:40:03Z</time>
      </trkpt>
      <trkpt lat="44.87532" lon="5.51951">
        <ele>2017.9</ele>
        <time>2022-01-19T12:40:04Z</time>
      </trkpt>
      <trkpt lat="44.87532" lon="5.51951">
        <ele>2017.9</ele>
        <time>2022-01-19T12:40:05Z</time>
      </trkpt>
      <trkpt lat="44.87532" lon="5.51951">
        <ele>2017.9</ele>
        <time>2022-01-19T12:40:06Z</time>
      </trkpt>
      <trkpt lat="44.87531" lon="5.51951">
        <ele>2017.9</ele>
        <time>2022-01-19T12:40:07Z</time>
      </trkpt>
      <trkpt lat="44.87531" lon="5.51951">
        <ele>2017.9</ele>
        <time>2022-01-19T12:40:08Z</time>
      </trkpt>
      <trkpt lat="44.87531" lon="5.51951">
        <ele>2017.9</ele>
        <time>2022-01-19T12:40:09Z</time>
      </trkpt>
      <trkpt lat="44.87531" lon="5.51951">
        <ele>2017.9</ele>
        <time>2022-01-19T12:40:10Z</time>
      </trkpt>
      <trkpt lat="44.87531" lon="5.51951">
        <ele>2017.9</ele>
        <time>2022-01-19T12:40:11Z</time>
      </trkpt>
      <trkpt lat="44.87531" lon="5.51951">
        <ele>2017.9</ele>
        <time>2022-01-19T12:40:12Z</time>
      </trkpt>
      <trkpt lat="44.87531" lon="5.51951">
        <ele>2017.9</ele>
        <time>2022-01-19T12:40:13Z</time>
      </trkpt>
      <trkpt lat="44.87531" lon="5.5195">
        <ele>2017.9</ele>
        <time>2022-01-19T12:40:14Z</time>
      </trkpt>
      <trkpt lat="44.87531" lon="5.5195">
        <ele>2017.9</ele>
        <time>2022-01-19T12:40:15Z</time>
      </trkpt>
      <trkpt lat="44.87529" lon="5.51949">
        <ele>2018.3</ele>
        <time>2022-01-19T12:40:16Z</time>
      </trkpt>
      <trkpt lat="44.87527" lon="5.51948">
        <ele>2018.7</ele>
        <time>2022-01-19T12:40:17Z</time>
      </trkpt>
      <trkpt lat="44.87525" lon="5.51947">
        <ele>2018.7</ele>
        <time>2022-01-19T12:40:18Z</time>
      </trkpt>
      <trkpt lat="44.87525" lon="5.51947">
        <ele>2015.9</ele>
        <time>2022-01-19T12:40:19Z</time>
      </trkpt>
      <trkpt lat="44.87524" lon="5.51947">
        <ele>2016.3</ele>
        <time>2022-01-19T12:40:20Z</time>
      </trkpt>
      <trkpt lat="44.87524" lon="5.51947">
        <ele>2016.3</ele>
        <time>2022-01-19T12:40:21Z</time>
      </trkpt>
      <trkpt lat="44.87524" lon="5.51947">
        <ele>2016.3</ele>
        <time>2022-01-19T12:40:22Z</time>
      </trkpt>
      <trkpt lat="44.87524" lon="5.51947">
        <ele>2016.3</ele>
        <time>2022-01-19T12:40:23Z</time>
      </trkpt>
      <trkpt lat="44.87524" lon="5.51947">
        <ele>2016.3</ele>
        <time>2022-01-19T12:40:24Z</time>
      </trkpt>
      <trkpt lat="44.87522" lon="5.51944">
        <ele>2016.3</ele>
        <time>2022-01-19T12:40:25Z</time>
      </trkpt>
      <trkpt lat="44.8752" lon="5.51942">
        <ele>2013.7</ele>
        <time>2022-01-19T12:40:26Z</time>
      </trkpt>
      <trkpt lat="44.87518" lon="5.51941">
        <ele>2014</ele>
        <time>2022-01-19T12:40:27Z</time>
      </trkpt>
      <trkpt lat="44.87515" lon="5.51939">
        <ele>2014.3</ele>
        <time>2022-01-19T12:40:28Z</time>
      </trkpt>
      <trkpt lat="44.87512" lon="5.51938">
        <ele>2011.5</ele>
        <time>2022-01-19T12:40:29Z</time>
      </trkpt>
      <trkpt lat="44.87509" lon="5.51936">
        <ele>2011.5</ele>
        <time>2022-01-19T12:40:30Z</time>
      </trkpt>
      <trkpt lat="44.87507" lon="5.51936">
        <ele>2011.8</ele>
        <time>2022-01-19T12:40:31Z</time>
      </trkpt>
      <trkpt lat="44.87505" lon="5.51935">
        <ele>2012</ele>
        <time>2022-01-19T12:40:32Z</time>
      </trkpt>
      <trkpt lat="44.87504" lon="5.51934">
        <ele>2008.9</ele>
        <time>2022-01-19T12:40:33Z</time>
      </trkpt>
      <trkpt lat="44.87502" lon="5.51933">
        <ele>2009.1</ele>
        <time>2022-01-19T12:40:34Z</time>
      </trkpt>
      <trkpt lat="44.87502" lon="5.51932">
        <ele>2009.1</ele>
        <time>2022-01-19T12:40:35Z</time>
      </trkpt>
      <trkpt lat="44.87501" lon="5.5193">
        <ele>2005.9</ele>
        <time>2022-01-19T12:40:36Z</time>
      </trkpt>
      <trkpt lat="44.87503" lon="5.51928">
        <ele>2005.9</ele>
        <time>2022-01-19T12:40:37Z</time>
      </trkpt>
      <trkpt lat="44.87505" lon="5.51926">
        <ele>2005.7</ele>
        <time>2022-01-19T12:40:38Z</time>
      </trkpt>
      <trkpt lat="44.87507" lon="5.51925">
        <ele>2002.3</ele>
        <time>2022-01-19T12:40:39Z</time>
      </trkpt>
      <trkpt lat="44.87509" lon="5.51925">
        <ele>2002.3</ele>
        <time>2022-01-19T12:40:40Z</time>
      </trkpt>
      <trkpt lat="44.87511" lon="5.51924">
        <ele>2002</ele>
        <time>2022-01-19T12:40:41Z</time>
      </trkpt>
      <trkpt lat="44.87513" lon="5.51923">
        <ele>2001.7</ele>
        <time>2022-01-19T12:40:42Z</time>
      </trkpt>
      <trkpt lat="44.87515" lon="5.51921">
        <ele>2001.4</ele>
        <time>2022-01-19T12:40:43Z</time>
      </trkpt>
      <trkpt lat="44.87518" lon="5.51921">
        <ele>1998</ele>
        <time>2022-01-19T12:40:44Z</time>
      </trkpt>
      <trkpt lat="44.87521" lon="5.5192">
        <ele>1997.7</ele>
        <time>2022-01-19T12:40:45Z</time>
      </trkpt>
      <trkpt lat="44.87523" lon="5.51919">
        <ele>1997.3</ele>
        <time>2022-01-19T12:40:46Z</time>
      </trkpt>
      <trkpt lat="44.87525" lon="5.51919">
        <ele>1996.9</ele>
        <time>2022-01-19T12:40:47Z</time>
      </trkpt>
      <trkpt lat="44.87527" lon="5.51918">
        <ele>1996.9</ele>
        <time>2022-01-19T12:40:48Z</time>
      </trkpt>
      <trkpt lat="44.87529" lon="5.51917">
        <ele>1992.9</ele>
        <time>2022-01-19T12:40:49Z</time>
      </trkpt>
      <trkpt lat="44.87532" lon="5.51916">
        <ele>1992.5</ele>
        <time>2022-01-19T12:40:50Z</time>
      </trkpt>
      <trkpt lat="44.87533" lon="5.51915">
        <ele>1992.5</ele>
        <time>2022-01-19T12:40:51Z</time>
      </trkpt>
      <trkpt lat="44.87536" lon="5.51914">
        <ele>1992</ele>
        <time>2022-01-19T12:40:52Z</time>
      </trkpt>
      <trkpt lat="44.87538" lon="5.51913">
        <ele>1991.5</ele>
        <time>2022-01-19T12:40:53Z</time>
      </trkpt>
      <trkpt lat="44.87538" lon="5.51913">
        <ele>1991.5</ele>
        <time>2022-01-19T12:40:54Z</time>
      </trkpt>
      <trkpt lat="44.87539" lon="5.51913">
        <ele>1991.5</ele>
        <time>2022-01-19T12:40:55Z</time>
      </trkpt>
      <trkpt lat="44.87539" lon="5.51913">
        <ele>1991.5</ele>
        <time>2022-01-19T12:40:56Z</time>
      </trkpt>
      <trkpt lat="44.87539" lon="5.51913">
        <ele>1987.8</ele>
        <time>2022-01-19T12:40:57Z</time>
      </trkpt>
      <trkpt lat="44.8754" lon="5.51912">
        <ele>1987.2</ele>
        <time>2022-01-19T12:40:58Z</time>
      </trkpt>
      <trkpt lat="44.8754" lon="5.51912">
        <ele>1987.2</ele>
        <time>2022-01-19T12:40:59Z</time>
      </trkpt>
      <trkpt lat="44.8754" lon="5.51912">
        <ele>1987.2</ele>
        <time>2022-01-19T12:41:00Z</time>
      </trkpt>
      <trkpt lat="44.87541" lon="5.51912">
        <ele>1987.2</ele>
        <time>2022-01-19T12:41:01Z</time>
      </trkpt>
      <trkpt lat="44.87541" lon="5.51912">
        <ele>1987.2</ele>
        <time>2022-01-19T12:41:02Z</time>
      </trkpt>
      <trkpt lat="44.87542" lon="5.51911">
        <ele>1987.2</ele>
        <time>2022-01-19T12:41:03Z</time>
      </trkpt>
      <trkpt lat="44.87542" lon="5.51911">
        <ele>1987.2</ele>
        <time>2022-01-19T12:41:04Z</time>
      </trkpt>
      <trkpt lat="44.87542" lon="5.51911">
        <ele>1987.2</ele>
        <time>2022-01-19T12:41:05Z</time>
      </trkpt>
      <trkpt lat="44.87543" lon="5.51911">
        <ele>1987.2</ele>
        <time>2022-01-19T12:41:06Z</time>
      </trkpt>
      <trkpt lat="44.87543" lon="5.51911">
        <ele>1986.7</ele>
        <time>2022-01-19T12:41:07Z</time>
      </trkpt>
      <trkpt lat="44.87545" lon="5.5191">
        <ele>1986.7</ele>
        <time>2022-01-19T12:41:08Z</time>
      </trkpt>
      <trkpt lat="44.87547" lon="5.51909">
        <ele>1986.2</ele>
        <time>2022-01-19T12:41:09Z</time>
      </trkpt>
      <trkpt lat="44.87549" lon="5.51908">
        <ele>1982.3</ele>
        <time>2022-01-19T12:41:10Z</time>
      </trkpt>
      <trkpt lat="44.87551" lon="5.51907">
        <ele>1981.7</ele>
        <time>2022-01-19T12:41:11Z</time>
      </trkpt>
      <trkpt lat="44.87553" lon="5.51906">
        <ele>1981.1</ele>
        <time>2022-01-19T12:41:12Z</time>
      </trkpt>
      <trkpt lat="44.87555" lon="5.51905">
        <ele>1980.6</ele>
        <time>2022-01-19T12:41:13Z</time>
      </trkpt>
      <trkpt lat="44.87557" lon="5.51904">
        <ele>1976.5</ele>
        <time>2022-01-19T12:41:14Z</time>
      </trkpt>
      <trkpt lat="44.87559" lon="5.51903">
        <ele>1976</ele>
        <time>2022-01-19T12:41:15Z</time>
      </trkpt>
      <trkpt lat="44.87562" lon="5.51902">
        <ele>1975.4</ele>
        <time>2022-01-19T12:41:16Z</time>
      </trkpt>
      <trkpt lat="44.87565" lon="5.51901">
        <ele>1975</ele>
        <time>2022-01-19T12:41:17Z</time>
      </trkpt>
      <trkpt lat="44.87567" lon="5.519">
        <ele>1974.6</ele>
        <time>2022-01-19T12:41:18Z</time>
      </trkpt>
      <trkpt lat="44.8757" lon="5.519">
        <ele>1974.6</ele>
        <time>2022-01-19T12:41:19Z</time>
      </trkpt>
      <trkpt lat="44.87572" lon="5.519">
        <ele>1970.1</ele>
        <time>2022-01-19T12:41:20Z</time>
      </trkpt>
      <trkpt lat="44.87574" lon="5.519">
        <ele>1969.8</ele>
        <time>2022-01-19T12:41:21Z</time>
      </trkpt>
      <trkpt lat="44.87575" lon="5.51899">
        <ele>1969.8</ele>
        <time>2022-01-19T12:41:22Z</time>
      </trkpt>
      <trkpt lat="44.87577" lon="5.51899">
        <ele>1969.5</ele>
        <time>2022-01-19T12:41:23Z</time>
      </trkpt>
      <trkpt lat="44.87579" lon="5.51897">
        <ele>1969.5</ele>
        <time>2022-01-19T12:41:24Z</time>
      </trkpt>
      <trkpt lat="44.8758" lon="5.51896">
        <ele>1969.2</ele>
        <time>2022-01-19T12:41:25Z</time>
      </trkpt>
      <trkpt lat="44.87583" lon="5.51894">
        <ele>1964.9</ele>
        <time>2022-01-19T12:41:26Z</time>
      </trkpt>
      <trkpt lat="44.87586" lon="5.51893">
        <ele>1964.8</ele>
        <time>2022-01-19T12:41:27Z</time>
      </trkpt>
      <trkpt lat="44.87589" lon="5.51892">
        <ele>1964.7</ele>
        <time>2022-01-19T12:41:28Z</time>
      </trkpt>
      <trkpt lat="44.87593" lon="5.51891">
        <ele>1960.8</ele>
        <time>2022-01-19T12:41:29Z</time>
      </trkpt>
      <trkpt lat="44.87595" lon="5.5189">
        <ele>1960.8</ele>
        <time>2022-01-19T12:41:30Z</time>
      </trkpt>
      <trkpt lat="44.87598" lon="5.5189">
        <ele>1960.9</ele>
        <time>2022-01-19T12:41:31Z</time>
      </trkpt>
      <trkpt lat="44.87601" lon="5.51889">
        <ele>1961</ele>
        <time>2022-01-19T12:41:32Z</time>
      </trkpt>
      <trkpt lat="44.87604" lon="5.51887">
        <ele>1961</ele>
        <time>2022-01-19T12:41:33Z</time>
      </trkpt>
      <trkpt lat="44.87606" lon="5.51886">
        <ele>1957.3</ele>
        <time>2022-01-19T12:41:34Z</time>
      </trkpt>
      <trkpt lat="44.87609" lon="5.51885">
        <ele>1957.4</ele>
        <time>2022-01-19T12:41:35Z</time>
      </trkpt>
      <trkpt lat="44.87612" lon="5.51884">
        <ele>1957.5</ele>
        <time>2022-01-19T12:41:36Z</time>
      </trkpt>
      <trkpt lat="44.87615" lon="5.51883">
        <ele>1957.5</ele>
        <time>2022-01-19T12:41:37Z</time>
      </trkpt>
      <trkpt lat="44.87617" lon="5.51882">
        <ele>1954.2</ele>
        <time>2022-01-19T12:41:38Z</time>
      </trkpt>
      <trkpt lat="44.87619" lon="5.51881">
        <ele>1954.2</ele>
        <time>2022-01-19T12:41:39Z</time>
      </trkpt>
      <trkpt lat="44.87621" lon="5.5188">
        <ele>1954.2</ele>
        <time>2022-01-19T12:41:40Z</time>
      </trkpt>
      <trkpt lat="44.87623" lon="5.51878">
        <ele>1951.1</ele>
        <time>2022-01-19T12:41:41Z</time>
      </trkpt>
      <trkpt lat="44.87626" lon="5.51877">
        <ele>1951.1</ele>
        <time>2022-01-19T12:41:42Z</time>
      </trkpt>
      <trkpt lat="44.87628" lon="5.51877">
        <ele>1951.1</ele>
        <time>2022-01-19T12:41:43Z</time>
      </trkpt>
      <trkpt lat="44.87631" lon="5.51876">
        <ele>1951.1</ele>
        <time>2022-01-19T12:41:44Z</time>
      </trkpt>
      <trkpt lat="44.87632" lon="5.51875">
        <ele>1951.1</ele>
        <time>2022-01-19T12:41:45Z</time>
      </trkpt>
      <trkpt lat="44.87632" lon="5.51875">
        <ele>1951.1</ele>
        <time>2022-01-19T12:41:46Z</time>
      </trkpt>
      <trkpt lat="44.87632" lon="5.51874">
        <ele>1951.1</ele>
        <time>2022-01-19T12:41:47Z</time>
      </trkpt>
      <trkpt lat="44.87632" lon="5.51874">
        <ele>1947.9</ele>
        <time>2022-01-19T12:41:48Z</time>
      </trkpt>
      <trkpt lat="44.87632" lon="5.51874">
        <ele>1947.9</ele>
        <time>2022-01-19T12:41:49Z</time>
      </trkpt>
      <trkpt lat="44.87632" lon="5.51874">
        <ele>1947.9</ele>
        <time>2022-01-19T12:41:50Z</time>
      </trkpt>
      <trkpt lat="44.87632" lon="5.51873">
        <ele>1947.9</ele>
        <time>2022-01-19T12:41:51Z</time>
      </trkpt>
      <trkpt lat="44.87632" lon="5.51873">
        <ele>1947.9</ele>
        <time>2022-01-19T12:41:52Z</time>
      </trkpt>
      <trkpt lat="44.87632" lon="5.51873">
        <ele>1947.9</ele>
        <time>2022-01-19T12:41:53Z</time>
      </trkpt>
      <trkpt lat="44.87632" lon="5.51872">
        <ele>1947.9</ele>
        <time>2022-01-19T12:41:54Z</time>
      </trkpt>
      <trkpt lat="44.87632" lon="5.51872">
        <ele>1947.9</ele>
        <time>2022-01-19T12:41:55Z</time>
      </trkpt>
      <trkpt lat="44.87632" lon="5.51872">
        <ele>1947.9</ele>
        <time>2022-01-19T12:41:56Z</time>
      </trkpt>
      <trkpt lat="44.87631" lon="5.51871">
        <ele>1947.9</ele>
        <time>2022-01-19T12:41:57Z</time>
      </trkpt>
      <trkpt lat="44.87631" lon="5.51871">
        <ele>1947.9</ele>
        <time>2022-01-19T12:41:58Z</time>
      </trkpt>
      <trkpt lat="44.87631" lon="5.51871">
        <ele>1947.9</ele>
        <time>2022-01-19T12:41:59Z</time>
      </trkpt>
      <trkpt lat="44.87631" lon="5.5187">
        <ele>1947.9</ele>
        <time>2022-01-19T12:42:00Z</time>
      </trkpt>
      <trkpt lat="44.87631" lon="5.5187">
        <ele>1947.9</ele>
        <time>2022-01-19T12:42:01Z</time>
      </trkpt>
      <trkpt lat="44.87631" lon="5.5187">
        <ele>1944.7</ele>
        <time>2022-01-19T12:42:02Z</time>
      </trkpt>
      <trkpt lat="44.87628" lon="5.51868">
        <ele>1944.7</ele>
        <time>2022-01-19T12:42:03Z</time>
      </trkpt>
      <trkpt lat="44.87626" lon="5.51866">
        <ele>1944.8</ele>
        <time>2022-01-19T12:42:04Z</time>
      </trkpt>
      <trkpt lat="44.87625" lon="5.51866">
        <ele>1944.8</ele>
        <time>2022-01-19T12:42:05Z</time>
      </trkpt>
      <trkpt lat="44.87623" lon="5.51865">
        <ele>1941.4</ele>
        <time>2022-01-19T12:42:06Z</time>
      </trkpt>
      <trkpt lat="44.87621" lon="5.51863">
        <ele>1941.3</ele>
        <time>2022-01-19T12:42:07Z</time>
      </trkpt>
      <trkpt lat="44.87619" lon="5.51863">
        <ele>1941.3</ele>
        <time>2022-01-19T12:42:08Z</time>
      </trkpt>
      <trkpt lat="44.87618" lon="5.51862">
        <ele>1941.3</ele>
        <time>2022-01-19T12:42:09Z</time>
      </trkpt>
      <trkpt lat="44.87617" lon="5.51861">
        <ele>1937.7</ele>
        <time>2022-01-19T12:42:10Z</time>
      </trkpt>
      <trkpt lat="44.87617" lon="5.51859">
        <ele>1937.7</ele>
        <time>2022-01-19T12:42:11Z</time>
      </trkpt>
      <trkpt lat="44.87619" lon="5.51858">
        <ele>1937.7</ele>
        <time>2022-01-19T12:42:12Z</time>
      </trkpt>
      <trkpt lat="44.87622" lon="5.51857">
        <ele>1934</ele>
        <time>2022-01-19T12:42:13Z</time>
      </trkpt>
      <trkpt lat="44.87624" lon="5.51856">
        <ele>1934.1</ele>
        <time>2022-01-19T12:42:14Z</time>
      </trkpt>
      <trkpt lat="44.87626" lon="5.51855">
        <ele>1934.1</ele>
        <time>2022-01-19T12:42:15Z</time>
      </trkpt>
      <trkpt lat="44.87629" lon="5.51854">
        <ele>1934</ele>
        <time>2022-01-19T12:42:16Z</time>
      </trkpt>
      <trkpt lat="44.87632" lon="5.51853">
        <ele>1930.1</ele>
        <time>2022-01-19T12:42:17Z</time>
      </trkpt>
      <trkpt lat="44.87635" lon="5.51852">
        <ele>1930</ele>
        <time>2022-01-19T12:42:18Z</time>
      </trkpt>
      <trkpt lat="44.87636" lon="5.51851">
        <ele>1930</ele>
        <time>2022-01-19T12:42:19Z</time>
      </trkpt>
      <trkpt lat="44.87638" lon="5.5185">
        <ele>1929.9</ele>
        <time>2022-01-19T12:42:20Z</time>
      </trkpt>
      <trkpt lat="44.8764" lon="5.51849">
        <ele>1929.7</ele>
        <time>2022-01-19T12:42:21Z</time>
      </trkpt>
      <trkpt lat="44.87643" lon="5.51848">
        <ele>1925.7</ele>
        <time>2022-01-19T12:42:22Z</time>
      </trkpt>
      <trkpt lat="44.87645" lon="5.51846">
        <ele>1925.4</ele>
        <time>2022-01-19T12:42:23Z</time>
      </trkpt>
      <trkpt lat="44.87647" lon="5.51845">
        <ele>1925.1</ele>
        <time>2022-01-19T12:42:24Z</time>
      </trkpt>
      <trkpt lat="44.8765" lon="5.51845">
        <ele>1924.9</ele>
        <time>2022-01-19T12:42:25Z</time>
      </trkpt>
      <trkpt lat="44.87652" lon="5.51844">
        <ele>1924.9</ele>
        <time>2022-01-19T12:42:26Z</time>
      </trkpt>
      <trkpt lat="44.87655" lon="5.51844">
        <ele>1920.4</ele>
        <time>2022-01-19T12:42:27Z</time>
      </trkpt>
      <trkpt lat="44.87657" lon="5.51843">
        <ele>1920.1</ele>
        <time>2022-01-19T12:42:28Z</time>
      </trkpt>
      <trkpt lat="44.8766" lon="5.51843">
        <ele>1919.8</ele>
        <time>2022-01-19T12:42:29Z</time>
      </trkpt>
      <trkpt lat="44.87662" lon="5.51842">
        <ele>1919.6</ele>
        <time>2022-01-19T12:42:30Z</time>
      </trkpt>
      <trkpt lat="44.87665" lon="5.51842">
        <ele>1919.3</ele>
        <time>2022-01-19T12:42:31Z</time>
      </trkpt>
      <trkpt lat="44.87668" lon="5.51841">
        <ele>1919</ele>
        <time>2022-01-19T12:42:32Z</time>
      </trkpt>
      <trkpt lat="44.8767" lon="5.51841">
        <ele>1919</ele>
        <time>2022-01-19T12:42:33Z</time>
      </trkpt>
      <trkpt lat="44.87673" lon="5.51841">
        <ele>1918.7</ele>
        <time>2022-01-19T12:42:34Z</time>
      </trkpt>
      <trkpt lat="44.87676" lon="5.51841">
        <ele>1918.4</ele>
        <time>2022-01-19T12:42:35Z</time>
      </trkpt>
      <trkpt lat="44.87678" lon="5.5184">
        <ele>1918.2</ele>
        <time>2022-01-19T12:42:36Z</time>
      </trkpt>
      <trkpt lat="44.8768" lon="5.5184">
        <ele>1917.9</ele>
        <time>2022-01-19T12:42:37Z</time>
      </trkpt>
      <trkpt lat="44.87683" lon="5.5184">
        <ele>1914.1</ele>
        <time>2022-01-19T12:42:38Z</time>
      </trkpt>
      <trkpt lat="44.87685" lon="5.5184">
        <ele>1914.1</ele>
        <time>2022-01-19T12:42:39Z</time>
      </trkpt>
      <trkpt lat="44.87687" lon="5.5184">
        <ele>1917.4</ele>
        <time>2022-01-19T12:42:40Z</time>
      </trkpt>
      <trkpt lat="44.87689" lon="5.51841">
        <ele>1917.1</ele>
        <time>2022-01-19T12:42:41Z</time>
      </trkpt>
      <trkpt lat="44.8769" lon="5.51841">
        <ele>1917.1</ele>
        <time>2022-01-19T12:42:42Z</time>
      </trkpt>
      <trkpt lat="44.87692" lon="5.51841">
        <ele>1916.8</ele>
        <time>2022-01-19T12:42:43Z</time>
      </trkpt>
      <trkpt lat="44.87694" lon="5.51841">
        <ele>1916.8</ele>
        <time>2022-01-19T12:42:44Z</time>
      </trkpt>
      <trkpt lat="44.87696" lon="5.51841">
        <ele>1916.5</ele>
        <time>2022-01-19T12:42:45Z</time>
      </trkpt>
      <trkpt lat="44.87699" lon="5.51841">
        <ele>1916.2</ele>
        <time>2022-01-19T12:42:46Z</time>
      </trkpt>
      <trkpt lat="44.87702" lon="5.51841">
        <ele>1916</ele>
        <time>2022-01-19T12:42:47Z</time>
      </trkpt>
      <trkpt lat="44.87705" lon="5.51841">
        <ele>1915.7</ele>
        <time>2022-01-19T12:42:48Z</time>
      </trkpt>
      <trkpt lat="44.87707" lon="5.51841">
        <ele>1915.4</ele>
        <time>2022-01-19T12:42:49Z</time>
      </trkpt>
      <trkpt lat="44.87709" lon="5.51841">
        <ele>1915.4</ele>
        <time>2022-01-19T12:42:50Z</time>
      </trkpt>
      <trkpt lat="44.87712" lon="5.5184">
        <ele>1915.1</ele>
        <time>2022-01-19T12:42:51Z</time>
      </trkpt>
      <trkpt lat="44.87715" lon="5.5184">
        <ele>1911.2</ele>
        <time>2022-01-19T12:42:52Z</time>
      </trkpt>
      <trkpt lat="44.87718" lon="5.5184">
        <ele>1910.9</ele>
        <time>2022-01-19T12:42:53Z</time>
      </trkpt>
      <trkpt lat="44.8772" lon="5.51839">
        <ele>1910.6</ele>
        <time>2022-01-19T12:42:54Z</time>
      </trkpt>
      <trkpt lat="44.87723" lon="5.51839">
        <ele>1910.3</ele>
        <time>2022-01-19T12:42:55Z</time>
      </trkpt>
      <trkpt lat="44.87725" lon="5.51839">
        <ele>1910.1</ele>
        <time>2022-01-19T12:42:56Z</time>
      </trkpt>
      <trkpt lat="44.87728" lon="5.51839">
        <ele>1910.1</ele>
        <time>2022-01-19T12:42:57Z</time>
      </trkpt>
      <trkpt lat="44.87731" lon="5.51839">
        <ele>1909.9</ele>
        <time>2022-01-19T12:42:58Z</time>
      </trkpt>
      <trkpt lat="44.87733" lon="5.51839">
        <ele>1909.7</ele>
        <time>2022-01-19T12:42:59Z</time>
      </trkpt>
      <trkpt lat="44.87734" lon="5.51839">
        <ele>1909.7</ele>
        <time>2022-01-19T12:43:00Z</time>
      </trkpt>
      <trkpt lat="44.87734" lon="5.51839">
        <ele>1909.7</ele>
        <time>2022-01-19T12:43:01Z</time>
      </trkpt>
      <trkpt lat="44.87734" lon="5.51838">
        <ele>1909.7</ele>
        <time>2022-01-19T12:43:02Z</time>
      </trkpt>
      <trkpt lat="44.87734" lon="5.51838">
        <ele>1909.7</ele>
        <time>2022-01-19T12:43:03Z</time>
      </trkpt>
      <trkpt lat="44.87734" lon="5.51838">
        <ele>1909.7</ele>
        <time>2022-01-19T12:43:04Z</time>
      </trkpt>
      <trkpt lat="44.87734" lon="5.51838">
        <ele>1909.7</ele>
        <time>2022-01-19T12:43:05Z</time>
      </trkpt>
      <trkpt lat="44.87734" lon="5.51838">
        <ele>1909.7</ele>
        <time>2022-01-19T12:43:06Z</time>
      </trkpt>
      <trkpt lat="44.87734" lon="5.51838">
        <ele>1909.7</ele>
        <time>2022-01-19T12:43:07Z</time>
      </trkpt>
      <trkpt lat="44.87734" lon="5.51838">
        <ele>1909.7</ele>
        <time>2022-01-19T12:43:08Z</time>
      </trkpt>
      <trkpt lat="44.87734" lon="5.51837">
        <ele>1909.7</ele>
        <time>2022-01-19T12:43:09Z</time>
      </trkpt>
      <trkpt lat="44.87734" lon="5.51837">
        <ele>1909.7</ele>
        <time>2022-01-19T12:43:10Z</time>
      </trkpt>
      <trkpt lat="44.87734" lon="5.51837">
        <ele>1909.7</ele>
        <time>2022-01-19T12:43:11Z</time>
      </trkpt>
      <trkpt lat="44.87734" lon="5.51837">
        <ele>1909.7</ele>
        <time>2022-01-19T12:43:12Z</time>
      </trkpt>
      <trkpt lat="44.87734" lon="5.51837">
        <ele>1909.7</ele>
        <time>2022-01-19T12:43:13Z</time>
      </trkpt>
      <trkpt lat="44.87734" lon="5.51837">
        <ele>1909.7</ele>
        <time>2022-01-19T12:43:14Z</time>
      </trkpt>
      <trkpt lat="44.87734" lon="5.51836">
        <ele>1909.7</ele>
        <time>2022-01-19T12:43:15Z</time>
      </trkpt>
      <trkpt lat="44.87734" lon="5.51836">
        <ele>1909.6</ele>
        <time>2022-01-19T12:43:16Z</time>
      </trkpt>
      <trkpt lat="44.87734" lon="5.51836">
        <ele>1909.6</ele>
        <time>2022-01-19T12:43:17Z</time>
      </trkpt>
      <trkpt lat="44.87734" lon="5.51836">
        <ele>1909.6</ele>
        <time>2022-01-19T12:43:18Z</time>
      </trkpt>
      <trkpt lat="44.87734" lon="5.51836">
        <ele>1909.6</ele>
        <time>2022-01-19T12:43:19Z</time>
      </trkpt>
      <trkpt lat="44.87734" lon="5.51836">
        <ele>1909.6</ele>
        <time>2022-01-19T12:43:20Z</time>
      </trkpt>
      <trkpt lat="44.87734" lon="5.51836">
        <ele>1906.1</ele>
        <time>2022-01-19T12:43:21Z</time>
      </trkpt>
      <trkpt lat="44.87734" lon="5.51835">
        <ele>1906.1</ele>
        <time>2022-01-19T12:43:22Z</time>
      </trkpt>
      <trkpt lat="44.87735" lon="5.51835">
        <ele>1906.1</ele>
        <time>2022-01-19T12:43:23Z</time>
      </trkpt>
      <trkpt lat="44.87735" lon="5.51835">
        <ele>1906.1</ele>
        <time>2022-01-19T12:43:24Z</time>
      </trkpt>
      <trkpt lat="44.87735" lon="5.51835">
        <ele>1906.1</ele>
        <time>2022-01-19T12:43:25Z</time>
      </trkpt>
      <trkpt lat="44.87735" lon="5.51835">
        <ele>1906.1</ele>
        <time>2022-01-19T12:43:26Z</time>
      </trkpt>
      <trkpt lat="44.87735" lon="5.51835">
        <ele>1906.1</ele>
        <time>2022-01-19T12:43:27Z</time>
      </trkpt>
      <trkpt lat="44.87735" lon="5.51834">
        <ele>1906.1</ele>
        <time>2022-01-19T12:43:28Z</time>
      </trkpt>
      <trkpt lat="44.87735" lon="5.51834">
        <ele>1906.1</ele>
        <time>2022-01-19T12:43:29Z</time>
      </trkpt>
      <trkpt lat="44.87735" lon="5.51834">
        <ele>1906.1</ele>
        <time>2022-01-19T12:43:30Z</time>
      </trkpt>
      <trkpt lat="44.87735" lon="5.51834">
        <ele>1906.1</ele>
        <time>2022-01-19T12:43:31Z</time>
      </trkpt>
      <trkpt lat="44.87735" lon="5.51834">
        <ele>1906.1</ele>
        <time>2022-01-19T12:43:32Z</time>
      </trkpt>
      <trkpt lat="44.87735" lon="5.51834">
        <ele>1906.1</ele>
        <time>2022-01-19T12:43:33Z</time>
      </trkpt>
      <trkpt lat="44.87735" lon="5.51834">
        <ele>1906.1</ele>
        <time>2022-01-19T12:43:34Z</time>
      </trkpt>
      <trkpt lat="44.87735" lon="5.51833">
        <ele>1906.1</ele>
        <time>2022-01-19T12:43:35Z</time>
      </trkpt>
      <trkpt lat="44.87735" lon="5.51833">
        <ele>1906.1</ele>
        <time>2022-01-19T12:43:36Z</time>
      </trkpt>
      <trkpt lat="44.87735" lon="5.51833">
        <ele>1906.1</ele>
        <time>2022-01-19T12:43:37Z</time>
      </trkpt>
      <trkpt lat="44.87735" lon="5.51833">
        <ele>1906.1</ele>
        <time>2022-01-19T12:43:38Z</time>
      </trkpt>
      <trkpt lat="44.87735" lon="5.51833">
        <ele>1906.1</ele>
        <time>2022-01-19T12:43:39Z</time>
      </trkpt>
      <trkpt lat="44.87735" lon="5.51833">
        <ele>1906.1</ele>
        <time>2022-01-19T12:43:40Z</time>
      </trkpt>
      <trkpt lat="44.87735" lon="5.51832">
        <ele>1906.1</ele>
        <time>2022-01-19T12:43:41Z</time>
      </trkpt>
      <trkpt lat="44.87735" lon="5.51832">
        <ele>1906.1</ele>
        <time>2022-01-19T12:43:42Z</time>
      </trkpt>
      <trkpt lat="44.87735" lon="5.51832">
        <ele>1906.1</ele>
        <time>2022-01-19T12:43:43Z</time>
      </trkpt>
      <trkpt lat="44.87735" lon="5.51832">
        <ele>1906.1</ele>
        <time>2022-01-19T12:43:44Z</time>
      </trkpt>
      <trkpt lat="44.87735" lon="5.51832">
        <ele>1906.1</ele>
        <time>2022-01-19T12:43:45Z</time>
      </trkpt>
      <trkpt lat="44.87735" lon="5.51832">
        <ele>1906.1</ele>
        <time>2022-01-19T12:43:46Z</time>
      </trkpt>
      <trkpt lat="44.87735" lon="5.51832">
        <ele>1906.1</ele>
        <time>2022-01-19T12:43:47Z</time>
      </trkpt>
      <trkpt lat="44.87735" lon="5.51831">
        <ele>1906.1</ele>
        <time>2022-01-19T12:43:48Z</time>
      </trkpt>
      <trkpt lat="44.87735" lon="5.51831">
        <ele>1902.8</ele>
        <time>2022-01-19T12:43:49Z</time>
      </trkpt>
      <trkpt lat="44.87735" lon="5.51831">
        <ele>1902.8</ele>
        <time>2022-01-19T12:43:50Z</time>
      </trkpt>
      <trkpt lat="44.87737" lon="5.5183">
        <ele>1902.8</ele>
        <time>2022-01-19T12:43:51Z</time>
      </trkpt>
      <trkpt lat="44.87739" lon="5.51829">
        <ele>1902.7</ele>
        <time>2022-01-19T12:43:52Z</time>
      </trkpt>
      <trkpt lat="44.87742" lon="5.51829">
        <ele>1902.6</ele>
        <time>2022-01-19T12:43:53Z</time>
      </trkpt>
      <trkpt lat="44.87743" lon="5.51829">
        <ele>1902.6</ele>
        <time>2022-01-19T12:43:54Z</time>
      </trkpt>
      <trkpt lat="44.87745" lon="5.51828">
        <ele>1902.7</ele>
        <time>2022-01-19T12:43:55Z</time>
      </trkpt>
      <trkpt lat="44.87746" lon="5.51828">
        <ele>1902.7</ele>
        <time>2022-01-19T12:43:56Z</time>
      </trkpt>
      <trkpt lat="44.87748" lon="5.51828">
        <ele>1902.7</ele>
        <time>2022-01-19T12:43:57Z</time>
      </trkpt>
      <trkpt lat="44.87749" lon="5.51827">
        <ele>1902.7</ele>
        <time>2022-01-19T12:43:58Z</time>
      </trkpt>
      <trkpt lat="44.87751" lon="5.51827">
        <ele>1899.6</ele>
        <time>2022-01-19T12:43:59Z</time>
      </trkpt>
      <trkpt lat="44.87754" lon="5.51827">
        <ele>1899.9</ele>
        <time>2022-01-19T12:44:00Z</time>
      </trkpt>
      <trkpt lat="44.87756" lon="5.51827">
        <ele>1900.1</ele>
        <time>2022-01-19T12:44:01Z</time>
      </trkpt>
      <trkpt lat="44.87759" lon="5.51827">
        <ele>1900.4</ele>
        <time>2022-01-19T12:44:02Z</time>
      </trkpt>
      <trkpt lat="44.87762" lon="5.51827">
        <ele>1900.7</ele>
        <time>2022-01-19T12:44:03Z</time>
      </trkpt>
      <trkpt lat="44.87764" lon="5.51827">
        <ele>1900.7</ele>
        <time>2022-01-19T12:44:04Z</time>
      </trkpt>
      <trkpt lat="44.87766" lon="5.51826">
        <ele>1901.1</ele>
        <time>2022-01-19T12:44:05Z</time>
      </trkpt>
      <trkpt lat="44.87769" lon="5.51826">
        <ele>1901.4</ele>
        <time>2022-01-19T12:44:06Z</time>
      </trkpt>
      <trkpt lat="44.87771" lon="5.51826">
        <ele>1901.8</ele>
        <time>2022-01-19T12:44:07Z</time>
      </trkpt>
      <trkpt lat="44.87773" lon="5.51826">
        <ele>1901.8</ele>
        <time>2022-01-19T12:44:08Z</time>
      </trkpt>
      <trkpt lat="44.87776" lon="5.51826">
        <ele>1902.2</ele>
        <time>2022-01-19T12:44:09Z</time>
      </trkpt>
      <trkpt lat="44.87779" lon="5.51826">
        <ele>1902.7</ele>
        <time>2022-01-19T12:44:10Z</time>
      </trkpt>
      <trkpt lat="44.87781" lon="5.51826">
        <ele>1903.1</ele>
        <time>2022-01-19T12:44:11Z</time>
      </trkpt>
      <trkpt lat="44.87783" lon="5.51825">
        <ele>1903.1</ele>
        <time>2022-01-19T12:44:12Z</time>
      </trkpt>
      <trkpt lat="44.87785" lon="5.51825">
        <ele>1903.6</ele>
        <time>2022-01-19T12:44:13Z</time>
      </trkpt>
      <trkpt lat="44.87786" lon="5.51826">
        <ele>1904.1</ele>
        <time>2022-01-19T12:44:14Z</time>
      </trkpt>
      <trkpt lat="44.87787" lon="5.51826">
        <ele>1904.1</ele>
        <time>2022-01-19T12:44:15Z</time>
      </trkpt>
      <trkpt lat="44.87789" lon="5.51827">
        <ele>1904.1</ele>
        <time>2022-01-19T12:44:16Z</time>
      </trkpt>
      <trkpt lat="44.87791" lon="5.51827">
        <ele>1907.3</ele>
        <time>2022-01-19T12:44:17Z</time>
      </trkpt>
      <trkpt lat="44.87793" lon="5.51827">
        <ele>1907.8</ele>
        <time>2022-01-19T12:44:18Z</time>
      </trkpt>
      <trkpt lat="44.87795" lon="5.51827">
        <ele>1908.2</ele>
        <time>2022-01-19T12:44:19Z</time>
      </trkpt>
      <trkpt lat="44.87797" lon="5.51828">
        <ele>1908.2</ele>
        <time>2022-01-19T12:44:20Z</time>
      </trkpt>
      <trkpt lat="44.878" lon="5.51827">
        <ele>1908.7</ele>
        <time>2022-01-19T12:44:21Z</time>
      </trkpt>
      <trkpt lat="44.87803" lon="5.51828">
        <ele>1909.2</ele>
        <time>2022-01-19T12:44:22Z</time>
      </trkpt>
      <trkpt lat="44.87806" lon="5.51828">
        <ele>1909.6</ele>
        <time>2022-01-19T12:44:23Z</time>
      </trkpt>
      <trkpt lat="44.87809" lon="5.51828">
        <ele>1910</ele>
        <time>2022-01-19T12:44:24Z</time>
      </trkpt>
      <trkpt lat="44.87812" lon="5.51828">
        <ele>1910.4</ele>
        <time>2022-01-19T12:44:25Z</time>
      </trkpt>
      <trkpt lat="44.87813" lon="5.51828">
        <ele>1910.4</ele>
        <time>2022-01-19T12:44:26Z</time>
      </trkpt>
      <trkpt lat="44.87813" lon="5.51828">
        <ele>1910.4</ele>
        <time>2022-01-19T12:44:27Z</time>
      </trkpt>
      <trkpt lat="44.87813" lon="5.51828">
        <ele>1910.4</ele>
        <time>2022-01-19T12:44:28Z</time>
      </trkpt>
      <trkpt lat="44.87813" lon="5.51828">
        <ele>1910.4</ele>
        <time>2022-01-19T12:44:29Z</time>
      </trkpt>
      <trkpt lat="44.87813" lon="5.51828">
        <ele>1910.4</ele>
        <time>2022-01-19T12:44:30Z</time>
      </trkpt>
      <trkpt lat="44.87813" lon="5.51828">
        <ele>1910.4</ele>
        <time>2022-01-19T12:44:31Z</time>
      </trkpt>
      <trkpt lat="44.87813" lon="5.51828">
        <ele>1910.4</ele>
        <time>2022-01-19T12:44:32Z</time>
      </trkpt>
      <trkpt lat="44.87813" lon="5.51828">
        <ele>1910.4</ele>
        <time>2022-01-19T12:44:33Z</time>
      </trkpt>
      <trkpt lat="44.87813" lon="5.51828">
        <ele>1910.4</ele>
        <time>2022-01-19T12:44:34Z</time>
      </trkpt>
      <trkpt lat="44.87813" lon="5.51827">
        <ele>1910.8</ele>
        <time>2022-01-19T12:44:35Z</time>
      </trkpt>
      <trkpt lat="44.87813" lon="5.51827">
        <ele>1910.8</ele>
        <time>2022-01-19T12:44:36Z</time>
      </trkpt>
      <trkpt lat="44.87814" lon="5.51827">
        <ele>1910.8</ele>
        <time>2022-01-19T12:44:37Z</time>
      </trkpt>
      <trkpt lat="44.87814" lon="5.51827">
        <ele>1910.8</ele>
        <time>2022-01-19T12:44:38Z</time>
      </trkpt>
      <trkpt lat="44.87814" lon="5.51827">
        <ele>1910.8</ele>
        <time>2022-01-19T12:44:39Z</time>
      </trkpt>
      <trkpt lat="44.87814" lon="5.51827">
        <ele>1910.8</ele>
        <time>2022-01-19T12:44:40Z</time>
      </trkpt>
      <trkpt lat="44.87814" lon="5.51827">
        <ele>1910.8</ele>
        <time>2022-01-19T12:44:41Z</time>
      </trkpt>
      <trkpt lat="44.87814" lon="5.51827">
        <ele>1910.8</ele>
        <time>2022-01-19T12:44:42Z</time>
      </trkpt>
      <trkpt lat="44.87814" lon="5.51827">
        <ele>1910.8</ele>
        <time>2022-01-19T12:44:43Z</time>
      </trkpt>
      <trkpt lat="44.87814" lon="5.51827">
        <ele>1910.8</ele>
        <time>2022-01-19T12:44:44Z</time>
      </trkpt>
      <trkpt lat="44.87814" lon="5.51827">
        <ele>1910.8</ele>
        <time>2022-01-19T12:44:45Z</time>
      </trkpt>
      <trkpt lat="44.87814" lon="5.51827">
        <ele>1910.8</ele>
        <time>2022-01-19T12:44:46Z</time>
      </trkpt>
      <trkpt lat="44.87814" lon="5.51827">
        <ele>1910.8</ele>
        <time>2022-01-19T12:44:47Z</time>
      </trkpt>
      <trkpt lat="44.87814" lon="5.51827">
        <ele>1908.5</ele>
        <time>2022-01-19T12:44:48Z</time>
      </trkpt>
      <trkpt lat="44.87814" lon="5.51827">
        <ele>1908.5</ele>
        <time>2022-01-19T12:44:49Z</time>
      </trkpt>
      <trkpt lat="44.87814" lon="5.51827">
        <ele>1908.5</ele>
        <time>2022-01-19T12:44:50Z</time>
      </trkpt>
      <trkpt lat="44.87814" lon="5.51827">
        <ele>1908.5</ele>
        <time>2022-01-19T12:44:51Z</time>
      </trkpt>
      <trkpt lat="44.87814" lon="5.51827">
        <ele>1908.5</ele>
        <time>2022-01-19T12:44:52Z</time>
      </trkpt>
      <trkpt lat="44.87815" lon="5.51827">
        <ele>1908.5</ele>
        <time>2022-01-19T12:44:53Z</time>
      </trkpt>
      <trkpt lat="44.87815" lon="5.51827">
        <ele>1908.5</ele>
        <time>2022-01-19T12:44:54Z</time>
      </trkpt>
      <trkpt lat="44.87815" lon="5.51827">
        <ele>1908.5</ele>
        <time>2022-01-19T12:44:55Z</time>
      </trkpt>
      <trkpt lat="44.87815" lon="5.51827">
        <ele>1908.5</ele>
        <time>2022-01-19T12:44:56Z</time>
      </trkpt>
      <trkpt lat="44.87815" lon="5.51827">
        <ele>1908.5</ele>
        <time>2022-01-19T12:44:57Z</time>
      </trkpt>
      <trkpt lat="44.87815" lon="5.51827">
        <ele>1908.5</ele>
        <time>2022-01-19T12:44:58Z</time>
      </trkpt>
      <trkpt lat="44.87815" lon="5.51827">
        <ele>1908.5</ele>
        <time>2022-01-19T12:44:59Z</time>
      </trkpt>
      <trkpt lat="44.87815" lon="5.51827">
        <ele>1908.5</ele>
        <time>2022-01-19T12:45:00Z</time>
      </trkpt>
      <trkpt lat="44.87815" lon="5.51826">
        <ele>1908.5</ele>
        <time>2022-01-19T12:45:01Z</time>
      </trkpt>
      <trkpt lat="44.87815" lon="5.51826">
        <ele>1908.5</ele>
        <time>2022-01-19T12:45:02Z</time>
      </trkpt>
      <trkpt lat="44.87815" lon="5.51826">
        <ele>1908.5</ele>
        <time>2022-01-19T12:45:03Z</time>
      </trkpt>
      <trkpt lat="44.87815" lon="5.51826">
        <ele>1908.5</ele>
        <time>2022-01-19T12:45:04Z</time>
      </trkpt>
      <trkpt lat="44.87815" lon="5.51826">
        <ele>1908.5</ele>
        <time>2022-01-19T12:45:05Z</time>
      </trkpt>
      <trkpt lat="44.87815" lon="5.51826">
        <ele>1908.5</ele>
        <time>2022-01-19T12:45:06Z</time>
      </trkpt>
      <trkpt lat="44.87815" lon="5.51826">
        <ele>1908.5</ele>
        <time>2022-01-19T12:45:07Z</time>
      </trkpt>
      <trkpt lat="44.87815" lon="5.51826">
        <ele>1908.5</ele>
        <time>2022-01-19T12:45:08Z</time>
      </trkpt>
      <trkpt lat="44.87816" lon="5.51826">
        <ele>1908.5</ele>
        <time>2022-01-19T12:45:09Z</time>
      </trkpt>
      <trkpt lat="44.87816" lon="5.51826">
        <ele>1908.5</ele>
        <time>2022-01-19T12:45:10Z</time>
      </trkpt>
      <trkpt lat="44.87816" lon="5.51826">
        <ele>1908.5</ele>
        <time>2022-01-19T12:45:11Z</time>
      </trkpt>
      <trkpt lat="44.87816" lon="5.51826">
        <ele>1908.5</ele>
        <time>2022-01-19T12:45:12Z</time>
      </trkpt>
      <trkpt lat="44.87816" lon="5.51826">
        <ele>1908.5</ele>
        <time>2022-01-19T12:45:13Z</time>
      </trkpt>
      <trkpt lat="44.87816" lon="5.51826">
        <ele>1908.5</ele>
        <time>2022-01-19T12:45:14Z</time>
      </trkpt>
      <trkpt lat="44.87816" lon="5.51826">
        <ele>1908.5</ele>
        <time>2022-01-19T12:45:15Z</time>
      </trkpt>
      <trkpt lat="44.87816" lon="5.51826">
        <ele>1908.5</ele>
        <time>2022-01-19T12:45:16Z</time>
      </trkpt>
      <trkpt lat="44.87816" lon="5.51826">
        <ele>1908.5</ele>
        <time>2022-01-19T12:45:17Z</time>
      </trkpt>
      <trkpt lat="44.87816" lon="5.51826">
        <ele>1908.5</ele>
        <time>2022-01-19T12:45:18Z</time>
      </trkpt>
      <trkpt lat="44.87816" lon="5.51826">
        <ele>1908.5</ele>
        <time>2022-01-19T12:45:19Z</time>
      </trkpt>
      <trkpt lat="44.87816" lon="5.51826">
        <ele>1908.5</ele>
        <time>2022-01-19T12:45:20Z</time>
      </trkpt>
      <trkpt lat="44.87816" lon="5.51826">
        <ele>1908.5</ele>
        <time>2022-01-19T12:45:21Z</time>
      </trkpt>
      <trkpt lat="44.87816" lon="5.51826">
        <ele>1908.5</ele>
        <time>2022-01-19T12:45:22Z</time>
      </trkpt>
      <trkpt lat="44.87816" lon="5.51826">
        <ele>1908.9</ele>
        <time>2022-01-19T12:45:23Z</time>
      </trkpt>
      <trkpt lat="44.87816" lon="5.51826">
        <ele>1908.9</ele>
        <time>2022-01-19T12:45:24Z</time>
      </trkpt>
      <trkpt lat="44.87817" lon="5.51826">
        <ele>1908.9</ele>
        <time>2022-01-19T12:45:25Z</time>
      </trkpt>
      <trkpt lat="44.87817" lon="5.51826">
        <ele>1908.9</ele>
        <time>2022-01-19T12:45:26Z</time>
      </trkpt>
      <trkpt lat="44.87817" lon="5.51825">
        <ele>1908.9</ele>
        <time>2022-01-19T12:45:27Z</time>
      </trkpt>
      <trkpt lat="44.87817" lon="5.51825">
        <ele>1908.9</ele>
        <time>2022-01-19T12:45:28Z</time>
      </trkpt>
      <trkpt lat="44.87817" lon="5.51825">
        <ele>1908.9</ele>
        <time>2022-01-19T12:45:29Z</time>
      </trkpt>
      <trkpt lat="44.87817" lon="5.51825">
        <ele>1908.9</ele>
        <time>2022-01-19T12:45:30Z</time>
      </trkpt>
      <trkpt lat="44.87817" lon="5.51825">
        <ele>1908.9</ele>
        <time>2022-01-19T12:45:31Z</time>
      </trkpt>
      <trkpt lat="44.87817" lon="5.51825">
        <ele>1908.9</ele>
        <time>2022-01-19T12:45:32Z</time>
      </trkpt>
      <trkpt lat="44.87817" lon="5.51825">
        <ele>1908.9</ele>
        <time>2022-01-19T12:45:33Z</time>
      </trkpt>
      <trkpt lat="44.87817" lon="5.51825">
        <ele>1908.9</ele>
        <time>2022-01-19T12:45:34Z</time>
      </trkpt>
      <trkpt lat="44.87821" lon="5.51825">
        <ele>1909.2</ele>
        <time>2022-01-19T12:45:35Z</time>
      </trkpt>
      <trkpt lat="44.87825" lon="5.51824">
        <ele>1909.5</ele>
        <time>2022-01-19T12:45:36Z</time>
      </trkpt>
      <trkpt lat="44.87831" lon="5.51824">
        <ele>1909.9</ele>
        <time>2022-01-19T12:45:37Z</time>
      </trkpt>
      <trkpt lat="44.87837" lon="5.51824">
        <ele>1909.9</ele>
        <time>2022-01-19T12:45:38Z</time>
      </trkpt>
      <trkpt lat="44.87842" lon="5.51824">
        <ele>1909.6</ele>
        <time>2022-01-19T12:45:39Z</time>
      </trkpt>
      <trkpt lat="44.87846" lon="5.51824">
        <ele>1909.3</ele>
        <time>2022-01-19T12:45:40Z</time>
      </trkpt>
      <trkpt lat="44.87851" lon="5.51824">
        <ele>1908.7</ele>
        <time>2022-01-19T12:45:41Z</time>
      </trkpt>
      <trkpt lat="44.87855" lon="5.51824">
        <ele>1908.2</ele>
        <time>2022-01-19T12:45:42Z</time>
      </trkpt>
      <trkpt lat="44.87858" lon="5.51823">
        <ele>1907.6</ele>
        <time>2022-01-19T12:45:43Z</time>
      </trkpt>
      <trkpt lat="44.87862" lon="5.51822">
        <ele>1905</ele>
        <time>2022-01-19T12:45:44Z</time>
      </trkpt>
      <trkpt lat="44.87865" lon="5.51822">
        <ele>1903.4</ele>
        <time>2022-01-19T12:45:45Z</time>
      </trkpt>
      <trkpt lat="44.87868" lon="5.51821">
        <ele>1902.6</ele>
        <time>2022-01-19T12:45:46Z</time>
      </trkpt>
      <trkpt lat="44.87871" lon="5.51821">
        <ele>1902.6</ele>
        <time>2022-01-19T12:45:47Z</time>
      </trkpt>
      <trkpt lat="44.87874" lon="5.51821">
        <ele>1901.8</ele>
        <time>2022-01-19T12:45:48Z</time>
      </trkpt>
      <trkpt lat="44.87876" lon="5.51821">
        <ele>1901</ele>
        <time>2022-01-19T12:45:49Z</time>
      </trkpt>
      <trkpt lat="44.87878" lon="5.51821">
        <ele>1900.2</ele>
        <time>2022-01-19T12:45:50Z</time>
      </trkpt>
      <trkpt lat="44.87878" lon="5.51821">
        <ele>1900.2</ele>
        <time>2022-01-19T12:45:51Z</time>
      </trkpt>
      <trkpt lat="44.87878" lon="5.51819">
        <ele>1900.2</ele>
        <time>2022-01-19T12:45:52Z</time>
      </trkpt>
      <trkpt lat="44.87878" lon="5.51819">
        <ele>1900.2</ele>
        <time>2022-01-19T12:45:53Z</time>
      </trkpt>
      <trkpt lat="44.87878" lon="5.51819">
        <ele>1900.2</ele>
        <time>2022-01-19T12:45:54Z</time>
      </trkpt>
      <trkpt lat="44.87878" lon="5.51819">
        <ele>1900.2</ele>
        <time>2022-01-19T12:45:55Z</time>
      </trkpt>
      <trkpt lat="44.87878" lon="5.51819">
        <ele>1900.2</ele>
        <time>2022-01-19T12:45:56Z</time>
      </trkpt>
      <trkpt lat="44.87878" lon="5.51819">
        <ele>1900.2</ele>
        <time>2022-01-19T12:45:57Z</time>
      </trkpt>
      <trkpt lat="44.87878" lon="5.51819">
        <ele>1900.2</ele>
        <time>2022-01-19T12:45:58Z</time>
      </trkpt>
      <trkpt lat="44.87878" lon="5.51819">
        <ele>1900.2</ele>
        <time>2022-01-19T12:45:59Z</time>
      </trkpt>
      <trkpt lat="44.87878" lon="5.51819">
        <ele>1900.2</ele>
        <time>2022-01-19T12:46:00Z</time>
      </trkpt>
      <trkpt lat="44.87878" lon="5.51819">
        <ele>1900.2</ele>
        <time>2022-01-19T12:46:01Z</time>
      </trkpt>
      <trkpt lat="44.87878" lon="5.51819">
        <ele>1900.2</ele>
        <time>2022-01-19T12:46:02Z</time>
      </trkpt>
      <trkpt lat="44.87878" lon="5.51819">
        <ele>1900.2</ele>
        <time>2022-01-19T12:46:03Z</time>
      </trkpt>
      <trkpt lat="44.87878" lon="5.51819">
        <ele>1900.2</ele>
        <time>2022-01-19T12:46:04Z</time>
      </trkpt>
      <trkpt lat="44.87878" lon="5.51819">
        <ele>1900.2</ele>
        <time>2022-01-19T12:46:05Z</time>
      </trkpt>
      <trkpt lat="44.87878" lon="5.51819">
        <ele>1900.2</ele>
        <time>2022-01-19T12:46:06Z</time>
      </trkpt>
      <trkpt lat="44.87878" lon="5.51819">
        <ele>1900.2</ele>
        <time>2022-01-19T12:46:07Z</time>
      </trkpt>
      <trkpt lat="44.87878" lon="5.51819">
        <ele>1900.2</ele>
        <time>2022-01-19T12:46:08Z</time>
      </trkpt>
      <trkpt lat="44.87878" lon="5.51819">
        <ele>1900.2</ele>
        <time>2022-01-19T12:46:09Z</time>
      </trkpt>
      <trkpt lat="44.87878" lon="5.51819">
        <ele>1900.2</ele>
        <time>2022-01-19T12:46:10Z</time>
      </trkpt>
      <trkpt lat="44.87878" lon="5.51819">
        <ele>1900.2</ele>
        <time>2022-01-19T12:46:11Z</time>
      </trkpt>
      <trkpt lat="44.87878" lon="5.51819">
        <ele>1900.2</ele>
        <time>2022-01-19T12:46:12Z</time>
      </trkpt>
      <trkpt lat="44.87878" lon="5.51819">
        <ele>1900.2</ele>
        <time>2022-01-19T12:46:13Z</time>
      </trkpt>
      <trkpt lat="44.87878" lon="5.51819">
        <ele>1900.2</ele>
        <time>2022-01-19T12:46:14Z</time>
      </trkpt>
      <trkpt lat="44.87878" lon="5.51819">
        <ele>1900.2</ele>
        <time>2022-01-19T12:46:15Z</time>
      </trkpt>
      <trkpt lat="44.87878" lon="5.51819">
        <ele>1900.2</ele>
        <time>2022-01-19T12:46:16Z</time>
      </trkpt>
      <trkpt lat="44.87878" lon="5.51819">
        <ele>1900.2</ele>
        <time>2022-01-19T12:46:17Z</time>
      </trkpt>
      <trkpt lat="44.87878" lon="5.51819">
        <ele>1900.2</ele>
        <time>2022-01-19T12:46:18Z</time>
      </trkpt>
      <trkpt lat="44.87878" lon="5.51819">
        <ele>1900.2</ele>
        <time>2022-01-19T12:46:19Z</time>
      </trkpt>
      <trkpt lat="44.87878" lon="5.51819">
        <ele>1900.2</ele>
        <time>2022-01-19T12:46:20Z</time>
      </trkpt>
      <trkpt lat="44.87878" lon="5.51819">
        <ele>1900.2</ele>
        <time>2022-01-19T12:46:21Z</time>
      </trkpt>
      <trkpt lat="44.87878" lon="5.51819">
        <ele>1900.2</ele>
        <time>2022-01-19T12:46:22Z</time>
      </trkpt>
      <trkpt lat="44.87878" lon="5.51819">
        <ele>1900.2</ele>
        <time>2022-01-19T12:46:23Z</time>
      </trkpt>
      <trkpt lat="44.87878" lon="5.51819">
        <ele>1900.2</ele>
        <time>2022-01-19T12:46:24Z</time>
      </trkpt>
      <trkpt lat="44.87878" lon="5.51819">
        <ele>1900.2</ele>
        <time>2022-01-19T12:46:25Z</time>
      </trkpt>
      <trkpt lat="44.87878" lon="5.51819">
        <ele>1900.2</ele>
        <time>2022-01-19T12:46:26Z</time>
      </trkpt>
      <trkpt lat="44.87878" lon="5.51819">
        <ele>1900.2</ele>
        <time>2022-01-19T12:46:27Z</time>
      </trkpt>
      <trkpt lat="44.87878" lon="5.51819">
        <ele>1900.2</ele>
        <time>2022-01-19T12:46:28Z</time>
      </trkpt>
      <trkpt lat="44.87878" lon="5.51819">
        <ele>1900.2</ele>
        <time>2022-01-19T12:46:29Z</time>
      </trkpt>
      <trkpt lat="44.87878" lon="5.51819">
        <ele>1900.2</ele>
        <time>2022-01-19T12:46:30Z</time>
      </trkpt>
      <trkpt lat="44.87878" lon="5.51819">
        <ele>1900.2</ele>
        <time>2022-01-19T12:46:31Z</time>
      </trkpt>
      <trkpt lat="44.87878" lon="5.51819">
        <ele>1900.2</ele>
        <time>2022-01-19T12:46:32Z</time>
      </trkpt>
      <trkpt lat="44.87878" lon="5.51819">
        <ele>1900.2</ele>
        <time>2022-01-19T12:46:33Z</time>
      </trkpt>
      <trkpt lat="44.87878" lon="5.51819">
        <ele>1900.2</ele>
        <time>2022-01-19T12:46:34Z</time>
      </trkpt>
      <trkpt lat="44.87878" lon="5.51819">
        <ele>1900.2</ele>
        <time>2022-01-19T12:46:35Z</time>
      </trkpt>
      <trkpt lat="44.87878" lon="5.51819">
        <ele>1900.2</ele>
        <time>2022-01-19T12:46:36Z</time>
      </trkpt>
      <trkpt lat="44.87878" lon="5.51819">
        <ele>1900.2</ele>
        <time>2022-01-19T12:46:37Z</time>
      </trkpt>
      <trkpt lat="44.87878" lon="5.51819">
        <ele>1900.2</ele>
        <time>2022-01-19T12:46:38Z</time>
      </trkpt>
      <trkpt lat="44.87878" lon="5.51819">
        <ele>1900.2</ele>
        <time>2022-01-19T12:46:39Z</time>
      </trkpt>
      <trkpt lat="44.87878" lon="5.51819">
        <ele>1900.2</ele>
        <time>2022-01-19T12:46:40Z</time>
      </trkpt>
      <trkpt lat="44.87878" lon="5.51819">
        <ele>1900.2</ele>
        <time>2022-01-19T12:46:41Z</time>
      </trkpt>
      <trkpt lat="44.87878" lon="5.51819">
        <ele>1900.2</ele>
        <time>2022-01-19T12:46:42Z</time>
      </trkpt>
      <trkpt lat="44.87878" lon="5.51819">
        <ele>1900.2</ele>
        <time>2022-01-19T12:46:43Z</time>
      </trkpt>
      <trkpt lat="44.87878" lon="5.51819">
        <ele>1900.2</ele>
        <time>2022-01-19T12:46:44Z</time>
      </trkpt>
      <trkpt lat="44.87878" lon="5.51819">
        <ele>1900.2</ele>
        <time>2022-01-19T12:46:45Z</time>
      </trkpt>
      <trkpt lat="44.87878" lon="5.51819">
        <ele>1900.2</ele>
        <time>2022-01-19T12:46:46Z</time>
      </trkpt>
      <trkpt lat="44.87878" lon="5.51819">
        <ele>1900.2</ele>
        <time>2022-01-19T12:46:47Z</time>
      </trkpt>
      <trkpt lat="44.87878" lon="5.51819">
        <ele>1900.2</ele>
        <time>2022-01-19T12:46:48Z</time>
      </trkpt>
      <trkpt lat="44.87878" lon="5.51819">
        <ele>1900.2</ele>
        <time>2022-01-19T12:46:49Z</time>
      </trkpt>
      <trkpt lat="44.87878" lon="5.51819">
        <ele>1900.2</ele>
        <time>2022-01-19T12:46:50Z</time>
      </trkpt>
      <trkpt lat="44.87878" lon="5.51819">
        <ele>1900.2</ele>
        <time>2022-01-19T12:46:51Z</time>
      </trkpt>
      <trkpt lat="44.87878" lon="5.51819">
        <ele>1900.2</ele>
        <time>2022-01-19T12:46:52Z</time>
      </trkpt>
      <trkpt lat="44.87878" lon="5.51819">
        <ele>1900.2</ele>
        <time>2022-01-19T12:46:53Z</time>
      </trkpt>
      <trkpt lat="44.87878" lon="5.51819">
        <ele>1900.2</ele>
        <time>2022-01-19T12:46:54Z</time>
      </trkpt>
      <trkpt lat="44.87878" lon="5.51819">
        <ele>1900.2</ele>
        <time>2022-01-19T12:46:55Z</time>
      </trkpt>
      <trkpt lat="44.87878" lon="5.51819">
        <ele>1900.2</ele>
        <time>2022-01-19T12:46:56Z</time>
      </trkpt>
      <trkpt lat="44.87878" lon="5.51819">
        <ele>1900.2</ele>
        <time>2022-01-19T12:46:57Z</time>
      </trkpt>
      <trkpt lat="44.87878" lon="5.51819">
        <ele>1900.2</ele>
        <time>2022-01-19T12:46:58Z</time>
      </trkpt>
      <trkpt lat="44.87878" lon="5.51819">
        <ele>1900.2</ele>
        <time>2022-01-19T12:46:59Z</time>
      </trkpt>
      <trkpt lat="44.87878" lon="5.51819">
        <ele>1900.2</ele>
        <time>2022-01-19T12:47:00Z</time>
      </trkpt>
      <trkpt lat="44.87878" lon="5.51819">
        <ele>1900.2</ele>
        <time>2022-01-19T12:47:01Z</time>
      </trkpt>
      <trkpt lat="44.87878" lon="5.51819">
        <ele>1900.2</ele>
        <time>2022-01-19T12:47:02Z</time>
      </trkpt>
      <trkpt lat="44.87878" lon="5.51819">
        <ele>1900.2</ele>
        <time>2022-01-19T12:47:03Z</time>
      </trkpt>
      <trkpt lat="44.87878" lon="5.51819">
        <ele>1900.2</ele>
        <time>2022-01-19T12:47:04Z</time>
      </trkpt>
      <trkpt lat="44.87878" lon="5.51819">
        <ele>1900.2</ele>
        <time>2022-01-19T12:47:05Z</time>
      </trkpt>
      <trkpt lat="44.87878" lon="5.51819">
        <ele>1900.2</ele>
        <time>2022-01-19T12:47:06Z</time>
      </trkpt>
      <trkpt lat="44.87878" lon="5.51819">
        <ele>1900.2</ele>
        <time>2022-01-19T12:47:07Z</time>
      </trkpt>
      <trkpt lat="44.87878" lon="5.51819">
        <ele>1900.2</ele>
        <time>2022-01-19T12:47:08Z</time>
      </trkpt>
      <trkpt lat="44.87878" lon="5.51819">
        <ele>1900.2</ele>
        <time>2022-01-19T12:47:09Z</time>
      </trkpt>
      <trkpt lat="44.87878" lon="5.51819">
        <ele>1900.2</ele>
        <time>2022-01-19T12:47:10Z</time>
      </trkpt>
      <trkpt lat="44.87878" lon="5.51819">
        <ele>1900.2</ele>
        <time>2022-01-19T12:47:11Z</time>
      </trkpt>
      <trkpt lat="44.87878" lon="5.51819">
        <ele>1900.2</ele>
        <time>2022-01-19T12:47:12Z</time>
      </trkpt>
      <trkpt lat="44.87878" lon="5.51819">
        <ele>1900.2</ele>
        <time>2022-01-19T12:47:13Z</time>
      </trkpt>
      <trkpt lat="44.87878" lon="5.51819">
        <ele>1900.2</ele>
        <time>2022-01-19T12:47:14Z</time>
      </trkpt>
      <trkpt lat="44.87878" lon="5.51819">
        <ele>1900.2</ele>
        <time>2022-01-19T12:47:15Z</time>
      </trkpt>
      <trkpt lat="44.87878" lon="5.51819">
        <ele>1900.2</ele>
        <time>2022-01-19T12:47:16Z</time>
      </trkpt>
      <trkpt lat="44.87878" lon="5.51819">
        <ele>1900.2</ele>
        <time>2022-01-19T12:47:17Z</time>
      </trkpt>
      <trkpt lat="44.87878" lon="5.51819">
        <ele>1900.2</ele>
        <time>2022-01-19T12:47:18Z</time>
      </trkpt>
      <trkpt lat="44.87878" lon="5.51819">
        <ele>1900.2</ele>
        <time>2022-01-19T12:47:19Z</time>
      </trkpt>
      <trkpt lat="44.87878" lon="5.51819">
        <ele>1900.2</ele>
        <time>2022-01-19T12:47:20Z</time>
      </trkpt>
      <trkpt lat="44.87878" lon="5.51819">
        <ele>1900.2</ele>
        <time>2022-01-19T12:47:21Z</time>
      </trkpt>
      <trkpt lat="44.87878" lon="5.51819">
        <ele>1900.2</ele>
        <time>2022-01-19T12:47:22Z</time>
      </trkpt>
      <trkpt lat="44.87878" lon="5.51819">
        <ele>1900.2</ele>
        <time>2022-01-19T12:47:23Z</time>
      </trkpt>
      <trkpt lat="44.87878" lon="5.51819">
        <ele>1900.2</ele>
        <time>2022-01-19T12:47:24Z</time>
      </trkpt>
      <trkpt lat="44.87878" lon="5.51819">
        <ele>1900.2</ele>
        <time>2022-01-19T12:47:25Z</time>
      </trkpt>
      <trkpt lat="44.87878" lon="5.51819">
        <ele>1900.2</ele>
        <time>2022-01-19T12:47:26Z</time>
      </trkpt>
      <trkpt lat="44.87878" lon="5.51819">
        <ele>1900.2</ele>
        <time>2022-01-19T12:47:27Z</time>
      </trkpt>
      <trkpt lat="44.87878" lon="5.51819">
        <ele>1900.2</ele>
        <time>2022-01-19T12:47:28Z</time>
      </trkpt>
      <trkpt lat="44.87878" lon="5.51819">
        <ele>1900.2</ele>
        <time>2022-01-19T12:47:29Z</time>
      </trkpt>
      <trkpt lat="44.87878" lon="5.51819">
        <ele>1900.2</ele>
        <time>2022-01-19T12:47:30Z</time>
      </trkpt>
      <trkpt lat="44.87878" lon="5.51819">
        <ele>1900.2</ele>
        <time>2022-01-19T12:47:31Z</time>
      </trkpt>
      <trkpt lat="44.87878" lon="5.51819">
        <ele>1900.2</ele>
        <time>2022-01-19T12:47:32Z</time>
      </trkpt>
      <trkpt lat="44.87878" lon="5.51819">
        <ele>1900.2</ele>
        <time>2022-01-19T12:47:33Z</time>
      </trkpt>
      <trkpt lat="44.87878" lon="5.51819">
        <ele>1900.2</ele>
        <time>2022-01-19T12:47:34Z</time>
      </trkpt>
      <trkpt lat="44.87878" lon="5.51819">
        <ele>1900.2</ele>
        <time>2022-01-19T12:47:35Z</time>
      </trkpt>
      <trkpt lat="44.87878" lon="5.51819">
        <ele>1900.2</ele>
        <time>2022-01-19T12:47:36Z</time>
      </trkpt>
      <trkpt lat="44.87878" lon="5.51819">
        <ele>1900.2</ele>
        <time>2022-01-19T12:47:37Z</time>
      </trkpt>
      <trkpt lat="44.87878" lon="5.51819">
        <ele>1900.2</ele>
        <time>2022-01-19T12:47:38Z</time>
      </trkpt>
      <trkpt lat="44.87878" lon="5.51819">
        <ele>1900.2</ele>
        <time>2022-01-19T12:47:39Z</time>
      </trkpt>
      <trkpt lat="44.87878" lon="5.51819">
        <ele>1900.2</ele>
        <time>2022-01-19T12:47:40Z</time>
      </trkpt>
      <trkpt lat="44.87878" lon="5.51819">
        <ele>1900.2</ele>
        <time>2022-01-19T12:47:41Z</time>
      </trkpt>
      <trkpt lat="44.87878" lon="5.51819">
        <ele>1900.2</ele>
        <time>2022-01-19T12:47:42Z</time>
      </trkpt>
      <trkpt lat="44.87878" lon="5.51819">
        <ele>1900.2</ele>
        <time>2022-01-19T12:47:43Z</time>
      </trkpt>
      <trkpt lat="44.87878" lon="5.51819">
        <ele>1900.2</ele>
        <time>2022-01-19T12:47:44Z</time>
      </trkpt>
      <trkpt lat="44.87878" lon="5.51819">
        <ele>1900.2</ele>
        <time>2022-01-19T12:47:45Z</time>
      </trkpt>
      <trkpt lat="44.87878" lon="5.51819">
        <ele>1900.2</ele>
        <time>2022-01-19T12:47:46Z</time>
      </trkpt>
      <trkpt lat="44.87878" lon="5.51819">
        <ele>1900.2</ele>
        <time>2022-01-19T12:47:47Z</time>
      </trkpt>
      <trkpt lat="44.87878" lon="5.51819">
        <ele>1900.2</ele>
        <time>2022-01-19T12:47:48Z</time>
      </trkpt>
      <trkpt lat="44.87878" lon="5.51819">
        <ele>1900.2</ele>
        <time>2022-01-19T12:47:49Z</time>
      </trkpt>
      <trkpt lat="44.87878" lon="5.51819">
        <ele>1900.2</ele>
        <time>2022-01-19T12:47:50Z</time>
      </trkpt>
      <trkpt lat="44.87878" lon="5.51819">
        <ele>1900.2</ele>
        <time>2022-01-19T12:47:51Z</time>
      </trkpt>
      <trkpt lat="44.87878" lon="5.51819">
        <ele>1900.2</ele>
        <time>2022-01-19T12:47:52Z</time>
      </trkpt>
      <trkpt lat="44.87878" lon="5.51819">
        <ele>1900.2</ele>
        <time>2022-01-19T12:47:53Z</time>
      </trkpt>
      <trkpt lat="44.87878" lon="5.51819">
        <ele>1900.2</ele>
        <time>2022-01-19T12:47:54Z</time>
      </trkpt>
      <trkpt lat="44.87878" lon="5.51819">
        <ele>1900.2</ele>
        <time>2022-01-19T12:47:55Z</time>
      </trkpt>
      <trkpt lat="44.87878" lon="5.51819">
        <ele>1900.2</ele>
        <time>2022-01-19T12:47:56Z</time>
      </trkpt>
      <trkpt lat="44.87878" lon="5.51819">
        <ele>1900.2</ele>
        <time>2022-01-19T12:47:57Z</time>
      </trkpt>
      <trkpt lat="44.87878" lon="5.51819">
        <ele>1900.2</ele>
        <time>2022-01-19T12:47:58Z</time>
      </trkpt>
      <trkpt lat="44.87878" lon="5.51819">
        <ele>1900.2</ele>
        <time>2022-01-19T12:47:59Z</time>
      </trkpt>
      <trkpt lat="44.87878" lon="5.51819">
        <ele>1900.2</ele>
        <time>2022-01-19T12:48:00Z</time>
      </trkpt>
      <trkpt lat="44.87878" lon="5.51819">
        <ele>1900.2</ele>
        <time>2022-01-19T12:48:01Z</time>
      </trkpt>
      <trkpt lat="44.87878" lon="5.51819">
        <ele>1900.2</ele>
        <time>2022-01-19T12:48:02Z</time>
      </trkpt>
      <trkpt lat="44.87878" lon="5.51819">
        <ele>1900.2</ele>
        <time>2022-01-19T12:48:03Z</time>
      </trkpt>
      <trkpt lat="44.87878" lon="5.51819">
        <ele>1900.2</ele>
        <time>2022-01-19T12:48:04Z</time>
      </trkpt>
      <trkpt lat="44.87878" lon="5.51819">
        <ele>1900.2</ele>
        <time>2022-01-19T12:48:05Z</time>
      </trkpt>
      <trkpt lat="44.87878" lon="5.51819">
        <ele>1900.2</ele>
        <time>2022-01-19T12:48:06Z</time>
      </trkpt>
      <trkpt lat="44.87878" lon="5.51819">
        <ele>1900.2</ele>
        <time>2022-01-19T12:48:07Z</time>
      </trkpt>
      <trkpt lat="44.87878" lon="5.51819">
        <ele>1900.2</ele>
        <time>2022-01-19T12:48:08Z</time>
      </trkpt>
      <trkpt lat="44.87878" lon="5.51819">
        <ele>1900.2</ele>
        <time>2022-01-19T12:48:09Z</time>
      </trkpt>
      <trkpt lat="44.87878" lon="5.51819">
        <ele>1900.2</ele>
        <time>2022-01-19T12:48:10Z</time>
      </trkpt>
      <trkpt lat="44.87878" lon="5.51819">
        <ele>1900.2</ele>
        <time>2022-01-19T12:48:11Z</time>
      </trkpt>
      <trkpt lat="44.87878" lon="5.51819">
        <ele>1900.2</ele>
        <time>2022-01-19T12:48:12Z</time>
      </trkpt>
      <trkpt lat="44.87878" lon="5.51819">
        <ele>1900.2</ele>
        <time>2022-01-19T12:48:13Z</time>
      </trkpt>
      <trkpt lat="44.87878" lon="5.51819">
        <ele>1900.2</ele>
        <time>2022-01-19T12:48:14Z</time>
      </trkpt>
      <trkpt lat="44.87878" lon="5.51819">
        <ele>1900.2</ele>
        <time>2022-01-19T12:48:15Z</time>
      </trkpt>
      <trkpt lat="44.87878" lon="5.51819">
        <ele>1900.2</ele>
        <time>2022-01-19T12:48:16Z</time>
      </trkpt>
      <trkpt lat="44.87878" lon="5.51819">
        <ele>1900.2</ele>
        <time>2022-01-19T12:48:17Z</time>
      </trkpt>
      <trkpt lat="44.87878" lon="5.51819">
        <ele>1900.2</ele>
        <time>2022-01-19T12:48:18Z</time>
      </trkpt>
      <trkpt lat="44.87878" lon="5.51819">
        <ele>1900.2</ele>
        <time>2022-01-19T12:48:19Z</time>
      </trkpt>
      <trkpt lat="44.87878" lon="5.51819">
        <ele>1900.2</ele>
        <time>2022-01-19T12:48:20Z</time>
      </trkpt>
      <trkpt lat="44.87878" lon="5.51819">
        <ele>1900.2</ele>
        <time>2022-01-19T12:48:21Z</time>
      </trkpt>
      <trkpt lat="44.87878" lon="5.51819">
        <ele>1900.2</ele>
        <time>2022-01-19T12:48:22Z</time>
      </trkpt>
      <trkpt lat="44.87878" lon="5.51819">
        <ele>1900.2</ele>
        <time>2022-01-19T12:48:23Z</time>
      </trkpt>
      <trkpt lat="44.87878" lon="5.51819">
        <ele>1900.2</ele>
        <time>2022-01-19T12:48:24Z</time>
      </trkpt>
      <trkpt lat="44.87878" lon="5.51819">
        <ele>1900.2</ele>
        <time>2022-01-19T12:48:25Z</time>
      </trkpt>
      <trkpt lat="44.87878" lon="5.51819">
        <ele>1900.2</ele>
        <time>2022-01-19T12:48:26Z</time>
      </trkpt>
      <trkpt lat="44.87878" lon="5.51819">
        <ele>1900.2</ele>
        <time>2022-01-19T12:48:27Z</time>
      </trkpt>
      <trkpt lat="44.87878" lon="5.51819">
        <ele>1900.2</ele>
        <time>2022-01-19T12:48:28Z</time>
      </trkpt>
      <trkpt lat="44.87878" lon="5.51819">
        <ele>1900.2</ele>
        <time>2022-01-19T12:48:29Z</time>
      </trkpt>
      <trkpt lat="44.87878" lon="5.51819">
        <ele>1900.4</ele>
        <time>2022-01-19T12:48:30Z</time>
      </trkpt>
      <trkpt lat="44.87878" lon="5.51819">
        <ele>1900.6</ele>
        <time>2022-01-19T12:48:31Z</time>
      </trkpt>
      <trkpt lat="44.87878" lon="5.51819">
        <ele>1900.9</ele>
        <time>2022-01-19T12:48:32Z</time>
      </trkpt>
      <trkpt lat="44.87878" lon="5.51819">
        <ele>1901.1</ele>
        <time>2022-01-19T12:48:33Z</time>
      </trkpt>
      <trkpt lat="44.87878" lon="5.51819">
        <ele>1901.3</ele>
        <time>2022-01-19T12:48:34Z</time>
      </trkpt>
      <trkpt lat="44.87878" lon="5.51819">
        <ele>1901.5</ele>
        <time>2022-01-19T12:48:35Z</time>
      </trkpt>
      <trkpt lat="44.87878" lon="5.51819">
        <ele>1901.7</ele>
        <time>2022-01-19T12:48:36Z</time>
      </trkpt>
      <trkpt lat="44.87878" lon="5.51819">
        <ele>1901.9</ele>
        <time>2022-01-19T12:48:37Z</time>
      </trkpt>
      <trkpt lat="44.87878" lon="5.51819">
        <ele>1902.2</ele>
        <time>2022-01-19T12:48:38Z</time>
      </trkpt>
      <trkpt lat="44.87878" lon="5.51819">
        <ele>1902.4</ele>
        <time>2022-01-19T12:48:39Z</time>
      </trkpt>
      <trkpt lat="44.87878" lon="5.51819">
        <ele>1902.6</ele>
        <time>2022-01-19T12:48:40Z</time>
      </trkpt>
      <trkpt lat="44.87878" lon="5.51819">
        <ele>1902.8</ele>
        <time>2022-01-19T12:48:41Z</time>
      </trkpt>
      <trkpt lat="44.87878" lon="5.51819">
        <ele>1903</ele>
        <time>2022-01-19T12:48:42Z</time>
      </trkpt>
      <trkpt lat="44.87878" lon="5.51819">
        <ele>1903.3</ele>
        <time>2022-01-19T12:48:43Z</time>
      </trkpt>
      <trkpt lat="44.87878" lon="5.51819">
        <ele>1903.5</ele>
        <time>2022-01-19T12:48:44Z</time>
      </trkpt>
      <trkpt lat="44.87878" lon="5.51819">
        <ele>1903.7</ele>
        <time>2022-01-19T12:48:45Z</time>
      </trkpt>
      <trkpt lat="44.87878" lon="5.51819">
        <ele>1903.9</ele>
        <time>2022-01-19T12:48:46Z</time>
      </trkpt>
      <trkpt lat="44.87878" lon="5.51819">
        <ele>1904.1</ele>
        <time>2022-01-19T12:48:47Z</time>
      </trkpt>
      <trkpt lat="44.87878" lon="5.51819">
        <ele>1904.3</ele>
        <time>2022-01-19T12:48:48Z</time>
      </trkpt>
      <trkpt lat="44.87878" lon="5.51819">
        <ele>1904.6</ele>
        <time>2022-01-19T12:48:49Z</time>
      </trkpt>
      <trkpt lat="44.87878" lon="5.51819">
        <ele>1904.8</ele>
        <time>2022-01-19T12:48:50Z</time>
      </trkpt>
      <trkpt lat="44.87878" lon="5.51819">
        <ele>1905</ele>
        <time>2022-01-19T12:48:51Z</time>
      </trkpt>
      <trkpt lat="44.87878" lon="5.51819">
        <ele>1905.2</ele>
        <time>2022-01-19T12:48:52Z</time>
      </trkpt>
      <trkpt lat="44.87878" lon="5.51819">
        <ele>1905.4</ele>
        <time>2022-01-19T12:48:53Z</time>
      </trkpt>
      <trkpt lat="44.87878" lon="5.51819">
        <ele>1905.7</ele>
        <time>2022-01-19T12:48:54Z</time>
      </trkpt>
      <trkpt lat="44.87878" lon="5.51819">
        <ele>1905.9</ele>
        <time>2022-01-19T12:48:55Z</time>
      </trkpt>
      <trkpt lat="44.87878" lon="5.51819">
        <ele>1906.1</ele>
        <time>2022-01-19T12:48:56Z</time>
      </trkpt>
      <trkpt lat="44.87878" lon="5.51819">
        <ele>1906.3</ele>
        <time>2022-01-19T12:48:57Z</time>
      </trkpt>
      <trkpt lat="44.87878" lon="5.51819">
        <ele>1906.5</ele>
        <time>2022-01-19T12:48:58Z</time>
      </trkpt>
      <trkpt lat="44.87878" lon="5.51819">
        <ele>1906.7</ele>
        <time>2022-01-19T12:48:59Z</time>
      </trkpt>
      <trkpt lat="44.87878" lon="5.51819">
        <ele>1907</ele>
        <time>2022-01-19T12:49:00Z</time>
      </trkpt>
      <trkpt lat="44.87878" lon="5.51819">
        <ele>1907.2</ele>
        <time>2022-01-19T12:49:01Z</time>
      </trkpt>
      <trkpt lat="44.87878" lon="5.51819">
        <ele>1907.4</ele>
        <time>2022-01-19T12:49:02Z</time>
      </trkpt>
      <trkpt lat="44.87878" lon="5.51819">
        <ele>1907.6</ele>
        <time>2022-01-19T12:49:03Z</time>
      </trkpt>
      <trkpt lat="44.87878" lon="5.51819">
        <ele>1907.8</ele>
        <time>2022-01-19T12:49:04Z</time>
      </trkpt>
      <trkpt lat="44.87878" lon="5.51819">
        <ele>1908</ele>
        <time>2022-01-19T12:49:05Z</time>
      </trkpt>
      <trkpt lat="44.87878" lon="5.51819">
        <ele>1908.3</ele>
        <time>2022-01-19T12:49:06Z</time>
      </trkpt>
      <trkpt lat="44.87878" lon="5.51819">
        <ele>1908.5</ele>
        <time>2022-01-19T12:49:07Z</time>
      </trkpt>
      <trkpt lat="44.87878" lon="5.51819">
        <ele>1908.7</ele>
        <time>2022-01-19T12:49:08Z</time>
      </trkpt>
      <trkpt lat="44.87878" lon="5.51819">
        <ele>1908.9</ele>
        <time>2022-01-19T12:49:09Z</time>
      </trkpt>
      <trkpt lat="44.87878" lon="5.51819">
        <ele>1909.1</ele>
        <time>2022-01-19T12:49:10Z</time>
      </trkpt>
      <trkpt lat="44.87878" lon="5.51819">
        <ele>1909.4</ele>
        <time>2022-01-19T12:49:11Z</time>
      </trkpt>
      <trkpt lat="44.87878" lon="5.51819">
        <ele>1909.6</ele>
        <time>2022-01-19T12:49:12Z</time>
      </trkpt>
      <trkpt lat="44.87878" lon="5.51819">
        <ele>1909.8</ele>
        <time>2022-01-19T12:49:13Z</time>
      </trkpt>
      <trkpt lat="44.87878" lon="5.51819">
        <ele>1910</ele>
        <time>2022-01-19T12:49:14Z</time>
      </trkpt>
      <trkpt lat="44.87878" lon="5.51819">
        <ele>1910.2</ele>
        <time>2022-01-19T12:49:15Z</time>
      </trkpt>
      <trkpt lat="44.87878" lon="5.51819">
        <ele>1910.4</ele>
        <time>2022-01-19T12:49:16Z</time>
      </trkpt>
      <trkpt lat="44.87878" lon="5.51819">
        <ele>1910.7</ele>
        <time>2022-01-19T12:49:17Z</time>
      </trkpt>
      <trkpt lat="44.87878" lon="5.51819">
        <ele>1910.9</ele>
        <time>2022-01-19T12:49:18Z</time>
      </trkpt>
      <trkpt lat="44.87878" lon="5.51819">
        <ele>1911.1</ele>
        <time>2022-01-19T12:49:19Z</time>
      </trkpt>
      <trkpt lat="44.87878" lon="5.51819">
        <ele>1911.3</ele>
        <time>2022-01-19T12:49:20Z</time>
      </trkpt>
      <trkpt lat="44.87878" lon="5.51819">
        <ele>1911.5</ele>
        <time>2022-01-19T12:49:21Z</time>
      </trkpt>
      <trkpt lat="44.87878" lon="5.51819">
        <ele>1911.8</ele>
        <time>2022-01-19T12:49:22Z</time>
      </trkpt>
      <trkpt lat="44.87878" lon="5.51819">
        <ele>1912</ele>
        <time>2022-01-19T12:49:23Z</time>
      </trkpt>
      <trkpt lat="44.87878" lon="5.51819">
        <ele>1912.2</ele>
        <time>2022-01-19T12:49:24Z</time>
      </trkpt>
      <trkpt lat="44.87878" lon="5.51819">
        <ele>1912.4</ele>
        <time>2022-01-19T12:49:25Z</time>
      </trkpt>
      <trkpt lat="44.87878" lon="5.51819">
        <ele>1912.6</ele>
        <time>2022-01-19T12:49:26Z</time>
      </trkpt>
      <trkpt lat="44.87883" lon="5.51812">
        <ele>1908.1</ele>
        <time>2022-01-19T12:49:27Z</time>
      </trkpt>
      <trkpt lat="44.87887" lon="5.5181">
        <ele>1904.2</ele>
        <time>2022-01-19T12:49:28Z</time>
      </trkpt>
      <trkpt lat="44.8789" lon="5.51809">
        <ele>1903.4</ele>
        <time>2022-01-19T12:49:29Z</time>
      </trkpt>
      <trkpt lat="44.87893" lon="5.51808">
        <ele>1902.5</ele>
        <time>2022-01-19T12:49:30Z</time>
      </trkpt>
      <trkpt lat="44.87895" lon="5.51807">
        <ele>1902.7</ele>
        <time>2022-01-19T12:49:31Z</time>
      </trkpt>
      <trkpt lat="44.87897" lon="5.51806">
        <ele>1901.9</ele>
        <time>2022-01-19T12:49:32Z</time>
      </trkpt>
      <trkpt lat="44.87899" lon="5.51805">
        <ele>1899.2</ele>
        <time>2022-01-19T12:49:33Z</time>
      </trkpt>
      <trkpt lat="44.879" lon="5.51804">
        <ele>1899.4</ele>
        <time>2022-01-19T12:49:34Z</time>
      </trkpt>
      <trkpt lat="44.87903" lon="5.51803">
        <ele>1898.6</ele>
        <time>2022-01-19T12:49:35Z</time>
      </trkpt>
      <trkpt lat="44.87904" lon="5.51802">
        <ele>1898.8</ele>
        <time>2022-01-19T12:49:36Z</time>
      </trkpt>
      <trkpt lat="44.87905" lon="5.51801">
        <ele>1896</ele>
        <time>2022-01-19T12:49:37Z</time>
      </trkpt>
      <trkpt lat="44.87907" lon="5.51799">
        <ele>1896.2</ele>
        <time>2022-01-19T12:49:38Z</time>
      </trkpt>
      <trkpt lat="44.87907" lon="5.51798">
        <ele>1896.5</ele>
        <time>2022-01-19T12:49:39Z</time>
      </trkpt>
      <trkpt lat="44.87905" lon="5.51794">
        <ele>1895</ele>
        <time>2022-01-19T12:49:40Z</time>
      </trkpt>
      <trkpt lat="44.87902" lon="5.5179">
        <ele>1894.7</ele>
        <time>2022-01-19T12:49:41Z</time>
      </trkpt>
      <trkpt lat="44.87899" lon="5.51786">
        <ele>1894.4</ele>
        <time>2022-01-19T12:49:42Z</time>
      </trkpt>
      <trkpt lat="44.87894" lon="5.51784">
        <ele>1896.7</ele>
        <time>2022-01-19T12:49:43Z</time>
      </trkpt>
      <trkpt lat="44.87891" lon="5.51783">
        <ele>1896.6</ele>
        <time>2022-01-19T12:49:44Z</time>
      </trkpt>
      <trkpt lat="44.8789" lon="5.51781">
        <ele>1896.8</ele>
        <time>2022-01-19T12:49:45Z</time>
      </trkpt>
      <trkpt lat="44.87888" lon="5.5178">
        <ele>1898.2</ele>
        <time>2022-01-19T12:49:46Z</time>
      </trkpt>
      <trkpt lat="44.87887" lon="5.51779">
        <ele>1897.1</ele>
        <time>2022-01-19T12:49:47Z</time>
      </trkpt>
      <trkpt lat="44.87886" lon="5.51777">
        <ele>1898.3</ele>
        <time>2022-01-19T12:49:48Z</time>
      </trkpt>
      <trkpt lat="44.87885" lon="5.51774">
        <ele>1897.2</ele>
        <time>2022-01-19T12:49:49Z</time>
      </trkpt>
      <trkpt lat="44.87887" lon="5.51772">
        <ele>1896.4</ele>
        <time>2022-01-19T12:49:50Z</time>
      </trkpt>
      <trkpt lat="44.87889" lon="5.51769">
        <ele>1895.4</ele>
        <time>2022-01-19T12:49:51Z</time>
      </trkpt>
      <trkpt lat="44.87892" lon="5.51768">
        <ele>1894.5</ele>
        <time>2022-01-19T12:49:52Z</time>
      </trkpt>
      <trkpt lat="44.87894" lon="5.51767">
        <ele>1892.3</ele>
        <time>2022-01-19T12:49:53Z</time>
      </trkpt>
      <trkpt lat="44.87894" lon="5.51764">
        <ele>1892.5</ele>
        <time>2022-01-19T12:49:54Z</time>
      </trkpt>
      <trkpt lat="44.87893" lon="5.51759">
        <ele>1891.3</ele>
        <time>2022-01-19T12:49:55Z</time>
      </trkpt>
      <trkpt lat="44.87891" lon="5.51757">
        <ele>1891.4</ele>
        <time>2022-01-19T12:49:56Z</time>
      </trkpt>
      <trkpt lat="44.87889" lon="5.51755">
        <ele>1892.7</ele>
        <time>2022-01-19T12:49:57Z</time>
      </trkpt>
      <trkpt lat="44.87887" lon="5.51753">
        <ele>1891.5</ele>
        <time>2022-01-19T12:49:58Z</time>
      </trkpt>
      <trkpt lat="44.87884" lon="5.51751">
        <ele>1892.8</ele>
        <time>2022-01-19T12:49:59Z</time>
      </trkpt>
      <trkpt lat="44.87881" lon="5.51749">
        <ele>1892.8</ele>
        <time>2022-01-19T12:50:00Z</time>
      </trkpt>
      <trkpt lat="44.87878" lon="5.51747">
        <ele>1893.9</ele>
        <time>2022-01-19T12:50:01Z</time>
      </trkpt>
      <trkpt lat="44.87875" lon="5.51746">
        <ele>1895</ele>
        <time>2022-01-19T12:50:02Z</time>
      </trkpt>
      <trkpt lat="44.87873" lon="5.51743">
        <ele>1894.8</ele>
        <time>2022-01-19T12:50:03Z</time>
      </trkpt>
      <trkpt lat="44.87869" lon="5.5174">
        <ele>1894.6</ele>
        <time>2022-01-19T12:50:04Z</time>
      </trkpt>
      <trkpt lat="44.87866" lon="5.51738">
        <ele>1895.5</ele>
        <time>2022-01-19T12:50:05Z</time>
      </trkpt>
      <trkpt lat="44.87867" lon="5.51735">
        <ele>1894.7</ele>
        <time>2022-01-19T12:50:06Z</time>
      </trkpt>
      <trkpt lat="44.87869" lon="5.51733">
        <ele>1894.3</ele>
        <time>2022-01-19T12:50:07Z</time>
      </trkpt>
      <trkpt lat="44.87872" lon="5.51732">
        <ele>1892.6</ele>
        <time>2022-01-19T12:50:08Z</time>
      </trkpt>
      <trkpt lat="44.87875" lon="5.51731">
        <ele>1892</ele>
        <time>2022-01-19T12:50:09Z</time>
      </trkpt>
      <trkpt lat="44.87878" lon="5.51732">
        <ele>1891.1</ele>
        <time>2022-01-19T12:50:10Z</time>
      </trkpt>
      <trkpt lat="44.8788" lon="5.51732">
        <ele>1891.1</ele>
        <time>2022-01-19T12:50:11Z</time>
      </trkpt>
      <trkpt lat="44.87883" lon="5.51732">
        <ele>1890.1</ele>
        <time>2022-01-19T12:50:12Z</time>
      </trkpt>
      <trkpt lat="44.87886" lon="5.51732">
        <ele>1889.1</ele>
        <time>2022-01-19T12:50:13Z</time>
      </trkpt>
      <trkpt lat="44.87889" lon="5.51731">
        <ele>1887.9</ele>
        <time>2022-01-19T12:50:14Z</time>
      </trkpt>
      <trkpt lat="44.87892" lon="5.5173">
        <ele>1886.8</ele>
        <time>2022-01-19T12:50:15Z</time>
      </trkpt>
      <trkpt lat="44.87893" lon="5.51726">
        <ele>1884.4</ele>
        <time>2022-01-19T12:50:16Z</time>
      </trkpt>
      <trkpt lat="44.87893" lon="5.51722">
        <ele>1883</ele>
        <time>2022-01-19T12:50:17Z</time>
      </trkpt>
      <trkpt lat="44.87895" lon="5.5172">
        <ele>1883</ele>
        <time>2022-01-19T12:50:18Z</time>
      </trkpt>
      <trkpt lat="44.87896" lon="5.51718">
        <ele>1880.4</ele>
        <time>2022-01-19T12:50:19Z</time>
      </trkpt>
      <trkpt lat="44.87896" lon="5.51713">
        <ele>1879</ele>
        <time>2022-01-19T12:50:20Z</time>
      </trkpt>
      <trkpt lat="44.87895" lon="5.51709">
        <ele>1878.8</ele>
        <time>2022-01-19T12:50:21Z</time>
      </trkpt>
      <trkpt lat="44.87894" lon="5.51708">
        <ele>1878.8</ele>
        <time>2022-01-19T12:50:22Z</time>
      </trkpt>
      <trkpt lat="44.87895" lon="5.51708">
        <ele>1878.8</ele>
        <time>2022-01-19T12:50:23Z</time>
      </trkpt>
      <trkpt lat="44.87895" lon="5.51708">
        <ele>1878.8</ele>
        <time>2022-01-19T12:50:24Z</time>
      </trkpt>
      <trkpt lat="44.87896" lon="5.51707">
        <ele>1877.7</ele>
        <time>2022-01-19T12:50:25Z</time>
      </trkpt>
      <trkpt lat="44.87896" lon="5.51707">
        <ele>1877.7</ele>
        <time>2022-01-19T12:50:26Z</time>
      </trkpt>
      <trkpt lat="44.87897" lon="5.51707">
        <ele>1877.7</ele>
        <time>2022-01-19T12:50:27Z</time>
      </trkpt>
      <trkpt lat="44.87898" lon="5.51707">
        <ele>1877.7</ele>
        <time>2022-01-19T12:50:28Z</time>
      </trkpt>
      <trkpt lat="44.87898" lon="5.51707">
        <ele>1877.7</ele>
        <time>2022-01-19T12:50:29Z</time>
      </trkpt>
      <trkpt lat="44.87899" lon="5.51707">
        <ele>1875.2</ele>
        <time>2022-01-19T12:50:30Z</time>
      </trkpt>
      <trkpt lat="44.87899" lon="5.51707">
        <ele>1875.2</ele>
        <time>2022-01-19T12:50:31Z</time>
      </trkpt>
      <trkpt lat="44.879" lon="5.51706">
        <ele>1875.2</ele>
        <time>2022-01-19T12:50:32Z</time>
      </trkpt>
      <trkpt lat="44.879" lon="5.51706">
        <ele>1875.2</ele>
        <time>2022-01-19T12:50:33Z</time>
      </trkpt>
      <trkpt lat="44.87901" lon="5.51706">
        <ele>1875.2</ele>
        <time>2022-01-19T12:50:34Z</time>
      </trkpt>
      <trkpt lat="44.87901" lon="5.51706">
        <ele>1875.2</ele>
        <time>2022-01-19T12:50:35Z</time>
      </trkpt>
      <trkpt lat="44.87902" lon="5.51706">
        <ele>1874.1</ele>
        <time>2022-01-19T12:50:36Z</time>
      </trkpt>
      <trkpt lat="44.87902" lon="5.51706">
        <ele>1874.1</ele>
        <time>2022-01-19T12:50:37Z</time>
      </trkpt>
      <trkpt lat="44.87903" lon="5.51706">
        <ele>1874.1</ele>
        <time>2022-01-19T12:50:38Z</time>
      </trkpt>
      <trkpt lat="44.87905" lon="5.51705">
        <ele>1874.1</ele>
        <time>2022-01-19T12:50:39Z</time>
      </trkpt>
      <trkpt lat="44.87905" lon="5.51705">
        <ele>1872.9</ele>
        <time>2022-01-19T12:50:40Z</time>
      </trkpt>
      <trkpt lat="44.87906" lon="5.51704">
        <ele>1872.9</ele>
        <time>2022-01-19T12:50:41Z</time>
      </trkpt>
      <trkpt lat="44.87906" lon="5.51704">
        <ele>1872.9</ele>
        <time>2022-01-19T12:50:42Z</time>
      </trkpt>
      <trkpt lat="44.87907" lon="5.51703">
        <ele>1872.9</ele>
        <time>2022-01-19T12:50:43Z</time>
      </trkpt>
      <trkpt lat="44.87907" lon="5.51703">
        <ele>1872.9</ele>
        <time>2022-01-19T12:50:44Z</time>
      </trkpt>
      <trkpt lat="44.87908" lon="5.51702">
        <ele>1870.3</ele>
        <time>2022-01-19T12:50:45Z</time>
      </trkpt>
      <trkpt lat="44.87908" lon="5.51702">
        <ele>1870.3</ele>
        <time>2022-01-19T12:50:46Z</time>
      </trkpt>
      <trkpt lat="44.87909" lon="5.51702">
        <ele>1870.3</ele>
        <time>2022-01-19T12:50:47Z</time>
      </trkpt>
      <trkpt lat="44.87909" lon="5.51701">
        <ele>1870.3</ele>
        <time>2022-01-19T12:50:48Z</time>
      </trkpt>
      <trkpt lat="44.8791" lon="5.51701">
        <ele>1870.3</ele>
        <time>2022-01-19T12:50:49Z</time>
      </trkpt>
      <trkpt lat="44.8791" lon="5.517">
        <ele>1870.3</ele>
        <time>2022-01-19T12:50:50Z</time>
      </trkpt>
      <trkpt lat="44.87916" lon="5.51699">
        <ele>1867.7</ele>
        <time>2022-01-19T12:50:51Z</time>
      </trkpt>
      <trkpt lat="44.87921" lon="5.51701">
        <ele>1864.8</ele>
        <time>2022-01-19T12:50:52Z</time>
      </trkpt>
      <trkpt lat="44.87926" lon="5.51704">
        <ele>1862.6</ele>
        <time>2022-01-19T12:50:53Z</time>
      </trkpt>
      <trkpt lat="44.8793" lon="5.51706">
        <ele>1861.3</ele>
        <time>2022-01-19T12:50:54Z</time>
      </trkpt>
      <trkpt lat="44.87934" lon="5.51707">
        <ele>1861.5</ele>
        <time>2022-01-19T12:50:55Z</time>
      </trkpt>
      <trkpt lat="44.87937" lon="5.51708">
        <ele>1860.1</ele>
        <time>2022-01-19T12:50:56Z</time>
      </trkpt>
      <trkpt lat="44.87939" lon="5.51709">
        <ele>1858.7</ele>
        <time>2022-01-19T12:50:57Z</time>
      </trkpt>
      <trkpt lat="44.87941" lon="5.51709">
        <ele>1858.7</ele>
        <time>2022-01-19T12:50:58Z</time>
      </trkpt>
      <trkpt lat="44.87943" lon="5.51709">
        <ele>1857.1</ele>
        <time>2022-01-19T12:50:59Z</time>
      </trkpt>
      <trkpt lat="44.87943" lon="5.51709">
        <ele>1857.1</ele>
        <time>2022-01-19T12:51:00Z</time>
      </trkpt>
      <trkpt lat="44.87944" lon="5.51709">
        <ele>1857.1</ele>
        <time>2022-01-19T12:51:01Z</time>
      </trkpt>
      <trkpt lat="44.87944" lon="5.51708">
        <ele>1855.4</ele>
        <time>2022-01-19T12:51:02Z</time>
      </trkpt>
      <trkpt lat="44.87945" lon="5.51708">
        <ele>1855.4</ele>
        <time>2022-01-19T12:51:03Z</time>
      </trkpt>
      <trkpt lat="44.87945" lon="5.51708">
        <ele>1855.4</ele>
        <time>2022-01-19T12:51:04Z</time>
      </trkpt>
      <trkpt lat="44.87946" lon="5.51707">
        <ele>1855.4</ele>
        <time>2022-01-19T12:51:05Z</time>
      </trkpt>
      <trkpt lat="44.87947" lon="5.51707">
        <ele>1855.4</ele>
        <time>2022-01-19T12:51:06Z</time>
      </trkpt>
      <trkpt lat="44.87947" lon="5.51707">
        <ele>1853.9</ele>
        <time>2022-01-19T12:51:07Z</time>
      </trkpt>
      <trkpt lat="44.87948" lon="5.51706">
        <ele>1852.2</ele>
        <time>2022-01-19T12:51:08Z</time>
      </trkpt>
      <trkpt lat="44.87948" lon="5.51706">
        <ele>1852.2</ele>
        <time>2022-01-19T12:51:09Z</time>
      </trkpt>
      <trkpt lat="44.87948" lon="5.51703">
        <ele>1852.2</ele>
        <time>2022-01-19T12:51:10Z</time>
      </trkpt>
      <trkpt lat="44.87948" lon="5.51702">
        <ele>1850.6</ele>
        <time>2022-01-19T12:51:11Z</time>
      </trkpt>
      <trkpt lat="44.87948" lon="5.51702">
        <ele>1850.6</ele>
        <time>2022-01-19T12:51:12Z</time>
      </trkpt>
      <trkpt lat="44.87948" lon="5.51702">
        <ele>1850.6</ele>
        <time>2022-01-19T12:51:13Z</time>
      </trkpt>
      <trkpt lat="44.87948" lon="5.51702">
        <ele>1850.6</ele>
        <time>2022-01-19T12:51:14Z</time>
      </trkpt>
      <trkpt lat="44.87948" lon="5.51702">
        <ele>1850.6</ele>
        <time>2022-01-19T12:51:15Z</time>
      </trkpt>
      <trkpt lat="44.87948" lon="5.51702">
        <ele>1850.6</ele>
        <time>2022-01-19T12:51:16Z</time>
      </trkpt>
      <trkpt lat="44.87948" lon="5.51702">
        <ele>1850.6</ele>
        <time>2022-01-19T12:51:17Z</time>
      </trkpt>
      <trkpt lat="44.87948" lon="5.51702">
        <ele>1850.6</ele>
        <time>2022-01-19T12:51:18Z</time>
      </trkpt>
      <trkpt lat="44.87948" lon="5.51702">
        <ele>1850.6</ele>
        <time>2022-01-19T12:51:19Z</time>
      </trkpt>
      <trkpt lat="44.87948" lon="5.51701">
        <ele>1850.6</ele>
        <time>2022-01-19T12:51:20Z</time>
      </trkpt>
      <trkpt lat="44.87948" lon="5.51701">
        <ele>1850.6</ele>
        <time>2022-01-19T12:51:21Z</time>
      </trkpt>
      <trkpt lat="44.87948" lon="5.51701">
        <ele>1850.6</ele>
        <time>2022-01-19T12:51:22Z</time>
      </trkpt>
      <trkpt lat="44.87948" lon="5.51701">
        <ele>1850.6</ele>
        <time>2022-01-19T12:51:23Z</time>
      </trkpt>
      <trkpt lat="44.87948" lon="5.51701">
        <ele>1850.6</ele>
        <time>2022-01-19T12:51:24Z</time>
      </trkpt>
      <trkpt lat="44.87948" lon="5.51701">
        <ele>1850.6</ele>
        <time>2022-01-19T12:51:25Z</time>
      </trkpt>
      <trkpt lat="44.87947" lon="5.51701">
        <ele>1850.6</ele>
        <time>2022-01-19T12:51:26Z</time>
      </trkpt>
      <trkpt lat="44.87947" lon="5.51701">
        <ele>1850.6</ele>
        <time>2022-01-19T12:51:27Z</time>
      </trkpt>
      <trkpt lat="44.87947" lon="5.51701">
        <ele>1850.6</ele>
        <time>2022-01-19T12:51:28Z</time>
      </trkpt>
      <trkpt lat="44.87947" lon="5.51701">
        <ele>1850.6</ele>
        <time>2022-01-19T12:51:29Z</time>
      </trkpt>
      <trkpt lat="44.87947" lon="5.51701">
        <ele>1850.6</ele>
        <time>2022-01-19T12:51:30Z</time>
      </trkpt>
      <trkpt lat="44.87947" lon="5.51701">
        <ele>1850.6</ele>
        <time>2022-01-19T12:51:31Z</time>
      </trkpt>
      <trkpt lat="44.87947" lon="5.51701">
        <ele>1850.6</ele>
        <time>2022-01-19T12:51:32Z</time>
      </trkpt>
      <trkpt lat="44.87947" lon="5.51701">
        <ele>1850.6</ele>
        <time>2022-01-19T12:51:33Z</time>
      </trkpt>
      <trkpt lat="44.87947" lon="5.51701">
        <ele>1850.6</ele>
        <time>2022-01-19T12:51:34Z</time>
      </trkpt>
      <trkpt lat="44.87947" lon="5.517">
        <ele>1850.6</ele>
        <time>2022-01-19T12:51:35Z</time>
      </trkpt>
      <trkpt lat="44.87947" lon="5.517">
        <ele>1850.6</ele>
        <time>2022-01-19T12:51:36Z</time>
      </trkpt>
      <trkpt lat="44.87947" lon="5.517">
        <ele>1852.3</ele>
        <time>2022-01-19T12:51:37Z</time>
      </trkpt>
      <trkpt lat="44.87947" lon="5.517">
        <ele>1852.3</ele>
        <time>2022-01-19T12:51:38Z</time>
      </trkpt>
      <trkpt lat="44.87947" lon="5.517">
        <ele>1852.3</ele>
        <time>2022-01-19T12:51:39Z</time>
      </trkpt>
      <trkpt lat="44.87947" lon="5.517">
        <ele>1852.3</ele>
        <time>2022-01-19T12:51:40Z</time>
      </trkpt>
      <trkpt lat="44.87947" lon="5.517">
        <ele>1852.3</ele>
        <time>2022-01-19T12:51:41Z</time>
      </trkpt>
      <trkpt lat="44.87947" lon="5.517">
        <ele>1852.3</ele>
        <time>2022-01-19T12:51:42Z</time>
      </trkpt>
      <trkpt lat="44.87947" lon="5.517">
        <ele>1852.3</ele>
        <time>2022-01-19T12:51:43Z</time>
      </trkpt>
      <trkpt lat="44.87947" lon="5.517">
        <ele>1852.3</ele>
        <time>2022-01-19T12:51:44Z</time>
      </trkpt>
      <trkpt lat="44.87947" lon="5.517">
        <ele>1852.3</ele>
        <time>2022-01-19T12:51:45Z</time>
      </trkpt>
      <trkpt lat="44.87947" lon="5.517">
        <ele>1852.3</ele>
        <time>2022-01-19T12:51:46Z</time>
      </trkpt>
      <trkpt lat="44.87947" lon="5.517">
        <ele>1852.3</ele>
        <time>2022-01-19T12:51:47Z</time>
      </trkpt>
      <trkpt lat="44.87947" lon="5.517">
        <ele>1852.3</ele>
        <time>2022-01-19T12:51:48Z</time>
      </trkpt>
      <trkpt lat="44.87947" lon="5.517">
        <ele>1852.3</ele>
        <time>2022-01-19T12:51:49Z</time>
      </trkpt>
      <trkpt lat="44.87947" lon="5.51699">
        <ele>1852.3</ele>
        <time>2022-01-19T12:51:50Z</time>
      </trkpt>
      <trkpt lat="44.87947" lon="5.51699">
        <ele>1852.3</ele>
        <time>2022-01-19T12:51:51Z</time>
      </trkpt>
      <trkpt lat="44.87947" lon="5.51699">
        <ele>1852.3</ele>
        <time>2022-01-19T12:51:52Z</time>
      </trkpt>
      <trkpt lat="44.87947" lon="5.51699">
        <ele>1852.3</ele>
        <time>2022-01-19T12:51:53Z</time>
      </trkpt>
      <trkpt lat="44.87947" lon="5.51699">
        <ele>1852.3</ele>
        <time>2022-01-19T12:51:54Z</time>
      </trkpt>
      <trkpt lat="44.87947" lon="5.51699">
        <ele>1852.3</ele>
        <time>2022-01-19T12:51:55Z</time>
      </trkpt>
      <trkpt lat="44.87947" lon="5.51699">
        <ele>1852.3</ele>
        <time>2022-01-19T12:51:56Z</time>
      </trkpt>
      <trkpt lat="44.87947" lon="5.51699">
        <ele>1852.3</ele>
        <time>2022-01-19T12:51:57Z</time>
      </trkpt>
      <trkpt lat="44.87947" lon="5.51699">
        <ele>1852.3</ele>
        <time>2022-01-19T12:51:58Z</time>
      </trkpt>
      <trkpt lat="44.87947" lon="5.51699">
        <ele>1852.3</ele>
        <time>2022-01-19T12:51:59Z</time>
      </trkpt>
      <trkpt lat="44.87947" lon="5.51699">
        <ele>1852.3</ele>
        <time>2022-01-19T12:52:00Z</time>
      </trkpt>
      <trkpt lat="44.87947" lon="5.51699">
        <ele>1852.3</ele>
        <time>2022-01-19T12:52:01Z</time>
      </trkpt>
      <trkpt lat="44.87947" lon="5.51699">
        <ele>1852.3</ele>
        <time>2022-01-19T12:52:02Z</time>
      </trkpt>
      <trkpt lat="44.87947" lon="5.51699">
        <ele>1852.3</ele>
        <time>2022-01-19T12:52:03Z</time>
      </trkpt>
      <trkpt lat="44.87946" lon="5.51699">
        <ele>1852.3</ele>
        <time>2022-01-19T12:52:04Z</time>
      </trkpt>
      <trkpt lat="44.87946" lon="5.51698">
        <ele>1852.3</ele>
        <time>2022-01-19T12:52:05Z</time>
      </trkpt>
      <trkpt lat="44.87946" lon="5.51698">
        <ele>1852.3</ele>
        <time>2022-01-19T12:52:06Z</time>
      </trkpt>
      <trkpt lat="44.87946" lon="5.51698">
        <ele>1852.3</ele>
        <time>2022-01-19T12:52:07Z</time>
      </trkpt>
      <trkpt lat="44.87946" lon="5.51698">
        <ele>1850.9</ele>
        <time>2022-01-19T12:52:08Z</time>
      </trkpt>
      <trkpt lat="44.87946" lon="5.51698">
        <ele>1850.9</ele>
        <time>2022-01-19T12:52:09Z</time>
      </trkpt>
      <trkpt lat="44.87946" lon="5.51698">
        <ele>1850.9</ele>
        <time>2022-01-19T12:52:10Z</time>
      </trkpt>
      <trkpt lat="44.87946" lon="5.51698">
        <ele>1850.9</ele>
        <time>2022-01-19T12:52:11Z</time>
      </trkpt>
      <trkpt lat="44.87946" lon="5.51698">
        <ele>1850.9</ele>
        <time>2022-01-19T12:52:12Z</time>
      </trkpt>
      <trkpt lat="44.87946" lon="5.51698">
        <ele>1850.9</ele>
        <time>2022-01-19T12:52:13Z</time>
      </trkpt>
      <trkpt lat="44.87946" lon="5.51698">
        <ele>1850.9</ele>
        <time>2022-01-19T12:52:14Z</time>
      </trkpt>
      <trkpt lat="44.87946" lon="5.51698">
        <ele>1850.9</ele>
        <time>2022-01-19T12:52:15Z</time>
      </trkpt>
      <trkpt lat="44.87946" lon="5.51698">
        <ele>1850.9</ele>
        <time>2022-01-19T12:52:16Z</time>
      </trkpt>
      <trkpt lat="44.87946" lon="5.51698">
        <ele>1850.9</ele>
        <time>2022-01-19T12:52:17Z</time>
      </trkpt>
      <trkpt lat="44.87946" lon="5.51698">
        <ele>1850.9</ele>
        <time>2022-01-19T12:52:18Z</time>
      </trkpt>
      <trkpt lat="44.87945" lon="5.51695">
        <ele>1850.9</ele>
        <time>2022-01-19T12:52:19Z</time>
      </trkpt>
      <trkpt lat="44.87943" lon="5.51693">
        <ele>1851.1</ele>
        <time>2022-01-19T12:52:20Z</time>
      </trkpt>
      <trkpt lat="44.87942" lon="5.51691">
        <ele>1851.1</ele>
        <time>2022-01-19T12:52:21Z</time>
      </trkpt>
      <trkpt lat="44.8794" lon="5.51688">
        <ele>1851.3</ele>
        <time>2022-01-19T12:52:22Z</time>
      </trkpt>
      <trkpt lat="44.87942" lon="5.51686">
        <ele>1849.7</ele>
        <time>2022-01-19T12:52:23Z</time>
      </trkpt>
      <trkpt lat="44.87945" lon="5.51685">
        <ele>1846.5</ele>
        <time>2022-01-19T12:52:24Z</time>
      </trkpt>
      <trkpt lat="44.87948" lon="5.51683">
        <ele>1844.8</ele>
        <time>2022-01-19T12:52:25Z</time>
      </trkpt>
      <trkpt lat="44.8795" lon="5.51681">
        <ele>1841.7</ele>
        <time>2022-01-19T12:52:26Z</time>
      </trkpt>
      <trkpt lat="44.87952" lon="5.51676">
        <ele>1840.2</ele>
        <time>2022-01-19T12:52:27Z</time>
      </trkpt>
      <trkpt lat="44.87953" lon="5.51671">
        <ele>1838.6</ele>
        <time>2022-01-19T12:52:28Z</time>
      </trkpt>
      <trkpt lat="44.87954" lon="5.51666">
        <ele>1835.5</ele>
        <time>2022-01-19T12:52:29Z</time>
      </trkpt>
      <trkpt lat="44.87956" lon="5.51661">
        <ele>1834</ele>
        <time>2022-01-19T12:52:30Z</time>
      </trkpt>
      <trkpt lat="44.87957" lon="5.51656">
        <ele>1831.2</ele>
        <time>2022-01-19T12:52:31Z</time>
      </trkpt>
      <trkpt lat="44.87956" lon="5.5165">
        <ele>1830.1</ele>
        <time>2022-01-19T12:52:32Z</time>
      </trkpt>
      <trkpt lat="44.87955" lon="5.51643">
        <ele>1828.9</ele>
        <time>2022-01-19T12:52:33Z</time>
      </trkpt>
      <trkpt lat="44.87955" lon="5.51637">
        <ele>1826.3</ele>
        <time>2022-01-19T12:52:34Z</time>
      </trkpt>
      <trkpt lat="44.87956" lon="5.51632">
        <ele>1825</ele>
        <time>2022-01-19T12:52:35Z</time>
      </trkpt>
      <trkpt lat="44.87957" lon="5.51627">
        <ele>1822.3</ele>
        <time>2022-01-19T12:52:36Z</time>
      </trkpt>
      <trkpt lat="44.87959" lon="5.51623">
        <ele>1821</ele>
        <time>2022-01-19T12:52:37Z</time>
      </trkpt>
      <trkpt lat="44.87961" lon="5.5162">
        <ele>1818.4</ele>
        <time>2022-01-19T12:52:38Z</time>
      </trkpt>
      <trkpt lat="44.87962" lon="5.51619">
        <ele>1818.4</ele>
        <time>2022-01-19T12:52:39Z</time>
      </trkpt>
      <trkpt lat="44.87962" lon="5.51619">
        <ele>1818.4</ele>
        <time>2022-01-19T12:52:40Z</time>
      </trkpt>
      <trkpt lat="44.87962" lon="5.51619">
        <ele>1818.4</ele>
        <time>2022-01-19T12:52:41Z</time>
      </trkpt>
      <trkpt lat="44.87962" lon="5.51619">
        <ele>1818.4</ele>
        <time>2022-01-19T12:52:42Z</time>
      </trkpt>
      <trkpt lat="44.87962" lon="5.51619">
        <ele>1818.4</ele>
        <time>2022-01-19T12:52:43Z</time>
      </trkpt>
      <trkpt lat="44.87962" lon="5.51619">
        <ele>1818.4</ele>
        <time>2022-01-19T12:52:44Z</time>
      </trkpt>
      <trkpt lat="44.87962" lon="5.51618">
        <ele>1818.4</ele>
        <time>2022-01-19T12:52:45Z</time>
      </trkpt>
      <trkpt lat="44.87962" lon="5.51618">
        <ele>1818.4</ele>
        <time>2022-01-19T12:52:46Z</time>
      </trkpt>
      <trkpt lat="44.87962" lon="5.51618">
        <ele>1818.4</ele>
        <time>2022-01-19T12:52:47Z</time>
      </trkpt>
      <trkpt lat="44.87962" lon="5.51618">
        <ele>1818.4</ele>
        <time>2022-01-19T12:52:48Z</time>
      </trkpt>
      <trkpt lat="44.87962" lon="5.51618">
        <ele>1818.4</ele>
        <time>2022-01-19T12:52:49Z</time>
      </trkpt>
      <trkpt lat="44.87962" lon="5.51618">
        <ele>1818.4</ele>
        <time>2022-01-19T12:52:50Z</time>
      </trkpt>
      <trkpt lat="44.87962" lon="5.51618">
        <ele>1817.1</ele>
        <time>2022-01-19T12:52:51Z</time>
      </trkpt>
      <trkpt lat="44.87962" lon="5.51618">
        <ele>1817.1</ele>
        <time>2022-01-19T12:52:52Z</time>
      </trkpt>
      <trkpt lat="44.87962" lon="5.51618">
        <ele>1817.1</ele>
        <time>2022-01-19T12:52:53Z</time>
      </trkpt>
      <trkpt lat="44.87962" lon="5.51618">
        <ele>1817.1</ele>
        <time>2022-01-19T12:52:54Z</time>
      </trkpt>
      <trkpt lat="44.87962" lon="5.51618">
        <ele>1817.1</ele>
        <time>2022-01-19T12:52:55Z</time>
      </trkpt>
      <trkpt lat="44.87962" lon="5.51617">
        <ele>1817.1</ele>
        <time>2022-01-19T12:52:56Z</time>
      </trkpt>
      <trkpt lat="44.87962" lon="5.51617">
        <ele>1817.1</ele>
        <time>2022-01-19T12:52:57Z</time>
      </trkpt>
      <trkpt lat="44.87962" lon="5.51617">
        <ele>1817.1</ele>
        <time>2022-01-19T12:52:58Z</time>
      </trkpt>
      <trkpt lat="44.87962" lon="5.51617">
        <ele>1817.1</ele>
        <time>2022-01-19T12:52:59Z</time>
      </trkpt>
      <trkpt lat="44.87962" lon="5.51617">
        <ele>1817.1</ele>
        <time>2022-01-19T12:53:00Z</time>
      </trkpt>
      <trkpt lat="44.87963" lon="5.51617">
        <ele>1817.1</ele>
        <time>2022-01-19T12:53:01Z</time>
      </trkpt>
      <trkpt lat="44.87963" lon="5.51617">
        <ele>1817.1</ele>
        <time>2022-01-19T12:53:02Z</time>
      </trkpt>
      <trkpt lat="44.87963" lon="5.51617">
        <ele>1817.1</ele>
        <time>2022-01-19T12:53:03Z</time>
      </trkpt>
      <trkpt lat="44.87963" lon="5.51617">
        <ele>1815.8</ele>
        <time>2022-01-19T12:53:04Z</time>
      </trkpt>
      <trkpt lat="44.87963" lon="5.51617">
        <ele>1815.8</ele>
        <time>2022-01-19T12:53:05Z</time>
      </trkpt>
      <trkpt lat="44.87963" lon="5.51616">
        <ele>1815.8</ele>
        <time>2022-01-19T12:53:06Z</time>
      </trkpt>
      <trkpt lat="44.87963" lon="5.51616">
        <ele>1815.8</ele>
        <time>2022-01-19T12:53:07Z</time>
      </trkpt>
      <trkpt lat="44.87963" lon="5.51616">
        <ele>1815.8</ele>
        <time>2022-01-19T12:53:08Z</time>
      </trkpt>
      <trkpt lat="44.87963" lon="5.51616">
        <ele>1815.8</ele>
        <time>2022-01-19T12:53:09Z</time>
      </trkpt>
      <trkpt lat="44.87963" lon="5.51616">
        <ele>1815.8</ele>
        <time>2022-01-19T12:53:10Z</time>
      </trkpt>
      <trkpt lat="44.87963" lon="5.51616">
        <ele>1815.8</ele>
        <time>2022-01-19T12:53:11Z</time>
      </trkpt>
      <trkpt lat="44.87963" lon="5.51616">
        <ele>1815.8</ele>
        <time>2022-01-19T12:53:12Z</time>
      </trkpt>
      <trkpt lat="44.87963" lon="5.51616">
        <ele>1815.8</ele>
        <time>2022-01-19T12:53:13Z</time>
      </trkpt>
      <trkpt lat="44.87963" lon="5.51616">
        <ele>1815.8</ele>
        <time>2022-01-19T12:53:14Z</time>
      </trkpt>
      <trkpt lat="44.87963" lon="5.51616">
        <ele>1815.8</ele>
        <time>2022-01-19T12:53:15Z</time>
      </trkpt>
      <trkpt lat="44.87963" lon="5.51615">
        <ele>1815.8</ele>
        <time>2022-01-19T12:53:16Z</time>
      </trkpt>
      <trkpt lat="44.87963" lon="5.51615">
        <ele>1815.8</ele>
        <time>2022-01-19T12:53:17Z</time>
      </trkpt>
      <trkpt lat="44.87963" lon="5.51615">
        <ele>1815.8</ele>
        <time>2022-01-19T12:53:18Z</time>
      </trkpt>
      <trkpt lat="44.87963" lon="5.51615">
        <ele>1815.8</ele>
        <time>2022-01-19T12:53:19Z</time>
      </trkpt>
      <trkpt lat="44.87963" lon="5.51615">
        <ele>1815.8</ele>
        <time>2022-01-19T12:53:20Z</time>
      </trkpt>
      <trkpt lat="44.87963" lon="5.51615">
        <ele>1815.8</ele>
        <time>2022-01-19T12:53:21Z</time>
      </trkpt>
      <trkpt lat="44.87963" lon="5.51615">
        <ele>1815.8</ele>
        <time>2022-01-19T12:53:22Z</time>
      </trkpt>
      <trkpt lat="44.87963" lon="5.51615">
        <ele>1815.8</ele>
        <time>2022-01-19T12:53:23Z</time>
      </trkpt>
      <trkpt lat="44.87963" lon="5.51615">
        <ele>1815.8</ele>
        <time>2022-01-19T12:53:24Z</time>
      </trkpt>
      <trkpt lat="44.87963" lon="5.51615">
        <ele>1815.8</ele>
        <time>2022-01-19T12:53:25Z</time>
      </trkpt>
      <trkpt lat="44.87963" lon="5.51615">
        <ele>1815.8</ele>
        <time>2022-01-19T12:53:26Z</time>
      </trkpt>
      <trkpt lat="44.87963" lon="5.51614">
        <ele>1815.8</ele>
        <time>2022-01-19T12:53:27Z</time>
      </trkpt>
      <trkpt lat="44.87963" lon="5.51614">
        <ele>1815.8</ele>
        <time>2022-01-19T12:53:28Z</time>
      </trkpt>
      <trkpt lat="44.87963" lon="5.51614">
        <ele>1815.8</ele>
        <time>2022-01-19T12:53:29Z</time>
      </trkpt>
      <trkpt lat="44.87963" lon="5.51614">
        <ele>1815.8</ele>
        <time>2022-01-19T12:53:30Z</time>
      </trkpt>
      <trkpt lat="44.87963" lon="5.51614">
        <ele>1815.8</ele>
        <time>2022-01-19T12:53:31Z</time>
      </trkpt>
      <trkpt lat="44.87963" lon="5.51614">
        <ele>1815.8</ele>
        <time>2022-01-19T12:53:32Z</time>
      </trkpt>
      <trkpt lat="44.87963" lon="5.51614">
        <ele>1815.8</ele>
        <time>2022-01-19T12:53:33Z</time>
      </trkpt>
      <trkpt lat="44.87963" lon="5.51614">
        <ele>1815.8</ele>
        <time>2022-01-19T12:53:34Z</time>
      </trkpt>
      <trkpt lat="44.87963" lon="5.51614">
        <ele>1815.8</ele>
        <time>2022-01-19T12:53:35Z</time>
      </trkpt>
      <trkpt lat="44.87963" lon="5.51614">
        <ele>1815.8</ele>
        <time>2022-01-19T12:53:36Z</time>
      </trkpt>
      <trkpt lat="44.87963" lon="5.51613">
        <ele>1815.8</ele>
        <time>2022-01-19T12:53:37Z</time>
      </trkpt>
      <trkpt lat="44.87963" lon="5.51613">
        <ele>1815.8</ele>
        <time>2022-01-19T12:53:38Z</time>
      </trkpt>
      <trkpt lat="44.87963" lon="5.51613">
        <ele>1815.8</ele>
        <time>2022-01-19T12:53:39Z</time>
      </trkpt>
      <trkpt lat="44.87963" lon="5.51613">
        <ele>1815.8</ele>
        <time>2022-01-19T12:53:40Z</time>
      </trkpt>
      <trkpt lat="44.87963" lon="5.51613">
        <ele>1815.8</ele>
        <time>2022-01-19T12:53:41Z</time>
      </trkpt>
      <trkpt lat="44.87963" lon="5.51613">
        <ele>1815.8</ele>
        <time>2022-01-19T12:53:42Z</time>
      </trkpt>
      <trkpt lat="44.87963" lon="5.51613">
        <ele>1815.8</ele>
        <time>2022-01-19T12:53:43Z</time>
      </trkpt>
      <trkpt lat="44.87963" lon="5.51613">
        <ele>1815.8</ele>
        <time>2022-01-19T12:53:44Z</time>
      </trkpt>
      <trkpt lat="44.87963" lon="5.51613">
        <ele>1815.8</ele>
        <time>2022-01-19T12:53:45Z</time>
      </trkpt>
      <trkpt lat="44.87963" lon="5.51613">
        <ele>1815.8</ele>
        <time>2022-01-19T12:53:46Z</time>
      </trkpt>
      <trkpt lat="44.87963" lon="5.51613">
        <ele>1815.8</ele>
        <time>2022-01-19T12:53:47Z</time>
      </trkpt>
      <trkpt lat="44.87963" lon="5.51612">
        <ele>1815.8</ele>
        <time>2022-01-19T12:53:48Z</time>
      </trkpt>
      <trkpt lat="44.87963" lon="5.51612">
        <ele>1814.5</ele>
        <time>2022-01-19T12:53:49Z</time>
      </trkpt>
      <trkpt lat="44.87963" lon="5.51612">
        <ele>1814.5</ele>
        <time>2022-01-19T12:53:50Z</time>
      </trkpt>
      <trkpt lat="44.87963" lon="5.51612">
        <ele>1814.5</ele>
        <time>2022-01-19T12:53:51Z</time>
      </trkpt>
      <trkpt lat="44.87963" lon="5.51612">
        <ele>1814.5</ele>
        <time>2022-01-19T12:53:52Z</time>
      </trkpt>
      <trkpt lat="44.87963" lon="5.51612">
        <ele>1814.5</ele>
        <time>2022-01-19T12:53:53Z</time>
      </trkpt>
      <trkpt lat="44.87963" lon="5.51612">
        <ele>1814.5</ele>
        <time>2022-01-19T12:53:54Z</time>
      </trkpt>
      <trkpt lat="44.87963" lon="5.51612">
        <ele>1814.5</ele>
        <time>2022-01-19T12:53:55Z</time>
      </trkpt>
      <trkpt lat="44.87963" lon="5.51612">
        <ele>1814.5</ele>
        <time>2022-01-19T12:53:56Z</time>
      </trkpt>
      <trkpt lat="44.87963" lon="5.51612">
        <ele>1814.5</ele>
        <time>2022-01-19T12:53:57Z</time>
      </trkpt>
      <trkpt lat="44.87963" lon="5.51611">
        <ele>1814.5</ele>
        <time>2022-01-19T12:53:58Z</time>
      </trkpt>
      <trkpt lat="44.87963" lon="5.51611">
        <ele>1814.5</ele>
        <time>2022-01-19T12:53:59Z</time>
      </trkpt>
      <trkpt lat="44.87963" lon="5.51611">
        <ele>1814.5</ele>
        <time>2022-01-19T12:54:00Z</time>
      </trkpt>
      <trkpt lat="44.87963" lon="5.51611">
        <ele>1814.5</ele>
        <time>2022-01-19T12:54:01Z</time>
      </trkpt>
      <trkpt lat="44.87963" lon="5.51611">
        <ele>1814.5</ele>
        <time>2022-01-19T12:54:02Z</time>
      </trkpt>
      <trkpt lat="44.87963" lon="5.51611">
        <ele>1814.5</ele>
        <time>2022-01-19T12:54:03Z</time>
      </trkpt>
      <trkpt lat="44.87963" lon="5.51611">
        <ele>1814.5</ele>
        <time>2022-01-19T12:54:04Z</time>
      </trkpt>
      <trkpt lat="44.87963" lon="5.51611">
        <ele>1814.5</ele>
        <time>2022-01-19T12:54:05Z</time>
      </trkpt>
      <trkpt lat="44.87963" lon="5.51611">
        <ele>1814.5</ele>
        <time>2022-01-19T12:54:06Z</time>
      </trkpt>
      <trkpt lat="44.87963" lon="5.51611">
        <ele>1814.5</ele>
        <time>2022-01-19T12:54:07Z</time>
      </trkpt>
      <trkpt lat="44.87963" lon="5.51611">
        <ele>1814.5</ele>
        <time>2022-01-19T12:54:08Z</time>
      </trkpt>
      <trkpt lat="44.87964" lon="5.51608">
        <ele>1814.5</ele>
        <time>2022-01-19T12:54:09Z</time>
      </trkpt>
      <trkpt lat="44.87964" lon="5.51607">
        <ele>1813.3</ele>
        <time>2022-01-19T12:54:10Z</time>
      </trkpt>
      <trkpt lat="44.87965" lon="5.51604">
        <ele>1813.3</ele>
        <time>2022-01-19T12:54:11Z</time>
      </trkpt>
      <trkpt lat="44.87966" lon="5.51602">
        <ele>1810.8</ele>
        <time>2022-01-19T12:54:12Z</time>
      </trkpt>
      <trkpt lat="44.87967" lon="5.51601">
        <ele>1810.8</ele>
        <time>2022-01-19T12:54:13Z</time>
      </trkpt>
      <trkpt lat="44.87968" lon="5.516">
        <ele>1810.8</ele>
        <time>2022-01-19T12:54:14Z</time>
      </trkpt>
      <trkpt lat="44.87968" lon="5.51598">
        <ele>1809.7</ele>
        <time>2022-01-19T12:54:15Z</time>
      </trkpt>
      <trkpt lat="44.87968" lon="5.51596">
        <ele>1809.7</ele>
        <time>2022-01-19T12:54:16Z</time>
      </trkpt>
      <trkpt lat="44.87968" lon="5.51593">
        <ele>1808.6</ele>
        <time>2022-01-19T12:54:17Z</time>
      </trkpt>
      <trkpt lat="44.87969" lon="5.51591">
        <ele>1806.1</ele>
        <time>2022-01-19T12:54:18Z</time>
      </trkpt>
      <trkpt lat="44.87972" lon="5.5159">
        <ele>1804.8</ele>
        <time>2022-01-19T12:54:19Z</time>
      </trkpt>
      <trkpt lat="44.87976" lon="5.51587">
        <ele>1803.6</ele>
        <time>2022-01-19T12:54:20Z</time>
      </trkpt>
      <trkpt lat="44.8798" lon="5.51587">
        <ele>1802.5</ele>
        <time>2022-01-19T12:54:21Z</time>
      </trkpt>
      <trkpt lat="44.87982" lon="5.51587">
        <ele>1801.4</ele>
        <time>2022-01-19T12:54:22Z</time>
      </trkpt>
      <trkpt lat="44.87985" lon="5.51587">
        <ele>1800.4</ele>
        <time>2022-01-19T12:54:23Z</time>
      </trkpt>
      <trkpt lat="44.87988" lon="5.51587">
        <ele>1799.4</ele>
        <time>2022-01-19T12:54:24Z</time>
      </trkpt>
      <trkpt lat="44.87991" lon="5.51586">
        <ele>1797.3</ele>
        <time>2022-01-19T12:54:25Z</time>
      </trkpt>
      <trkpt lat="44.87993" lon="5.51582">
        <ele>1795.1</ele>
        <time>2022-01-19T12:54:26Z</time>
      </trkpt>
      <trkpt lat="44.87993" lon="5.51579">
        <ele>1795.1</ele>
        <time>2022-01-19T12:54:27Z</time>
      </trkpt>
      <trkpt lat="44.87992" lon="5.51576">
        <ele>1795.1</ele>
        <time>2022-01-19T12:54:28Z</time>
      </trkpt>
      <trkpt lat="44.87992" lon="5.51573">
        <ele>1794.1</ele>
        <time>2022-01-19T12:54:29Z</time>
      </trkpt>
      <trkpt lat="44.87993" lon="5.5157">
        <ele>1793.1</ele>
        <time>2022-01-19T12:54:30Z</time>
      </trkpt>
      <trkpt lat="44.87994" lon="5.51568">
        <ele>1792.1</ele>
        <time>2022-01-19T12:54:31Z</time>
      </trkpt>
      <trkpt lat="44.87997" lon="5.51567">
        <ele>1791.1</ele>
        <time>2022-01-19T12:54:32Z</time>
      </trkpt>
      <trkpt lat="44.87999" lon="5.51567">
        <ele>1790.1</ele>
        <time>2022-01-19T12:54:33Z</time>
      </trkpt>
      <trkpt lat="44.88001" lon="5.51566">
        <ele>1790.1</ele>
        <time>2022-01-19T12:54:34Z</time>
      </trkpt>
      <trkpt lat="44.88002" lon="5.51563">
        <ele>1788.3</ele>
        <time>2022-01-19T12:54:35Z</time>
      </trkpt>
      <trkpt lat="44.88002" lon="5.51559">
        <ele>1787.4</ele>
        <time>2022-01-19T12:54:36Z</time>
      </trkpt>
      <trkpt lat="44.88001" lon="5.51554">
        <ele>1787.4</ele>
        <time>2022-01-19T12:54:37Z</time>
      </trkpt>
      <trkpt lat="44.87998" lon="5.51546">
        <ele>1786.5</ele>
        <time>2022-01-19T12:54:38Z</time>
      </trkpt>
      <trkpt lat="44.87995" lon="5.51541">
        <ele>1786.5</ele>
        <time>2022-01-19T12:54:39Z</time>
      </trkpt>
      <trkpt lat="44.87993" lon="5.51536">
        <ele>1785.5</ele>
        <time>2022-01-19T12:54:40Z</time>
      </trkpt>
      <trkpt lat="44.87994" lon="5.51531">
        <ele>1784.4</ele>
        <time>2022-01-19T12:54:41Z</time>
      </trkpt>
      <trkpt lat="44.87994" lon="5.51527">
        <ele>1783.4</ele>
        <time>2022-01-19T12:54:42Z</time>
      </trkpt>
      <trkpt lat="44.87995" lon="5.51521">
        <ele>1781.4</ele>
        <time>2022-01-19T12:54:43Z</time>
      </trkpt>
      <trkpt lat="44.87994" lon="5.51517">
        <ele>1780.4</ele>
        <time>2022-01-19T12:54:44Z</time>
      </trkpt>
      <trkpt lat="44.87994" lon="5.51514">
        <ele>1780.4</ele>
        <time>2022-01-19T12:54:45Z</time>
      </trkpt>
      <trkpt lat="44.87994" lon="5.51513">
        <ele>1778.9</ele>
        <time>2022-01-19T12:54:46Z</time>
      </trkpt>
      <trkpt lat="44.87994" lon="5.51511">
        <ele>1778.9</ele>
        <time>2022-01-19T12:54:47Z</time>
      </trkpt>
      <trkpt lat="44.87994" lon="5.5151">
        <ele>1778.9</ele>
        <time>2022-01-19T12:54:48Z</time>
      </trkpt>
      <trkpt lat="44.87994" lon="5.5151">
        <ele>1778.9</ele>
        <time>2022-01-19T12:54:49Z</time>
      </trkpt>
      <trkpt lat="44.87994" lon="5.5151">
        <ele>1778.9</ele>
        <time>2022-01-19T12:54:50Z</time>
      </trkpt>
      <trkpt lat="44.87994" lon="5.5151">
        <ele>1778.9</ele>
        <time>2022-01-19T12:54:51Z</time>
      </trkpt>
      <trkpt lat="44.87994" lon="5.5151">
        <ele>1778.9</ele>
        <time>2022-01-19T12:54:52Z</time>
      </trkpt>
      <trkpt lat="44.87994" lon="5.5151">
        <ele>1778.9</ele>
        <time>2022-01-19T12:54:53Z</time>
      </trkpt>
      <trkpt lat="44.87994" lon="5.5151">
        <ele>1778.9</ele>
        <time>2022-01-19T12:54:54Z</time>
      </trkpt>
      <trkpt lat="44.87994" lon="5.5151">
        <ele>1778.9</ele>
        <time>2022-01-19T12:54:55Z</time>
      </trkpt>
      <trkpt lat="44.87994" lon="5.5151">
        <ele>1778.9</ele>
        <time>2022-01-19T12:54:56Z</time>
      </trkpt>
      <trkpt lat="44.87994" lon="5.5151">
        <ele>1778.9</ele>
        <time>2022-01-19T12:54:57Z</time>
      </trkpt>
      <trkpt lat="44.87994" lon="5.5151">
        <ele>1778.9</ele>
        <time>2022-01-19T12:54:58Z</time>
      </trkpt>
      <trkpt lat="44.87994" lon="5.5151">
        <ele>1778.9</ele>
        <time>2022-01-19T12:54:59Z</time>
      </trkpt>
      <trkpt lat="44.87994" lon="5.5151">
        <ele>1778.9</ele>
        <time>2022-01-19T12:55:00Z</time>
      </trkpt>
      <trkpt lat="44.87994" lon="5.5151">
        <ele>1778.9</ele>
        <time>2022-01-19T12:55:01Z</time>
      </trkpt>
      <trkpt lat="44.87994" lon="5.5151">
        <ele>1778.9</ele>
        <time>2022-01-19T12:55:02Z</time>
      </trkpt>
      <trkpt lat="44.87994" lon="5.5151">
        <ele>1778.9</ele>
        <time>2022-01-19T12:55:03Z</time>
      </trkpt>
      <trkpt lat="44.87994" lon="5.5151">
        <ele>1778.9</ele>
        <time>2022-01-19T12:55:04Z</time>
      </trkpt>
      <trkpt lat="44.87994" lon="5.5151">
        <ele>1778.9</ele>
        <time>2022-01-19T12:55:05Z</time>
      </trkpt>
      <trkpt lat="44.87994" lon="5.5151">
        <ele>1778.9</ele>
        <time>2022-01-19T12:55:06Z</time>
      </trkpt>
      <trkpt lat="44.87994" lon="5.5151">
        <ele>1778.9</ele>
        <time>2022-01-19T12:55:07Z</time>
      </trkpt>
      <trkpt lat="44.87994" lon="5.5151">
        <ele>1778.9</ele>
        <time>2022-01-19T12:55:08Z</time>
      </trkpt>
      <trkpt lat="44.87993" lon="5.51508">
        <ele>1778</ele>
        <time>2022-01-19T12:55:09Z</time>
      </trkpt>
      <trkpt lat="44.87993" lon="5.51504">
        <ele>1776.9</ele>
        <time>2022-01-19T12:55:10Z</time>
      </trkpt>
      <trkpt lat="44.87995" lon="5.51501">
        <ele>1775.9</ele>
        <time>2022-01-19T12:55:11Z</time>
      </trkpt>
      <trkpt lat="44.87998" lon="5.51501">
        <ele>1776</ele>
        <time>2022-01-19T12:55:12Z</time>
      </trkpt>
      <trkpt lat="44.88" lon="5.51502">
        <ele>1775.1</ele>
        <time>2022-01-19T12:55:13Z</time>
      </trkpt>
      <trkpt lat="44.88" lon="5.51503">
        <ele>1775.1</ele>
        <time>2022-01-19T12:55:14Z</time>
      </trkpt>
      <trkpt lat="44.88" lon="5.51503">
        <ele>1775.1</ele>
        <time>2022-01-19T12:55:15Z</time>
      </trkpt>
      <trkpt lat="44.88" lon="5.51503">
        <ele>1775.1</ele>
        <time>2022-01-19T12:55:16Z</time>
      </trkpt>
      <trkpt lat="44.88" lon="5.51503">
        <ele>1775.1</ele>
        <time>2022-01-19T12:55:17Z</time>
      </trkpt>
      <trkpt lat="44.88" lon="5.51503">
        <ele>1775.1</ele>
        <time>2022-01-19T12:55:18Z</time>
      </trkpt>
      <trkpt lat="44.88" lon="5.51503">
        <ele>1775.1</ele>
        <time>2022-01-19T12:55:19Z</time>
      </trkpt>
      <trkpt lat="44.88" lon="5.51503">
        <ele>1775.1</ele>
        <time>2022-01-19T12:55:20Z</time>
      </trkpt>
      <trkpt lat="44.88" lon="5.51503">
        <ele>1775.1</ele>
        <time>2022-01-19T12:55:21Z</time>
      </trkpt>
      <trkpt lat="44.88003" lon="5.51504">
        <ele>1774.2</ele>
        <time>2022-01-19T12:55:22Z</time>
      </trkpt>
      <trkpt lat="44.88004" lon="5.51505">
        <ele>1774.2</ele>
        <time>2022-01-19T12:55:23Z</time>
      </trkpt>
      <trkpt lat="44.88005" lon="5.51505">
        <ele>1774.4</ele>
        <time>2022-01-19T12:55:24Z</time>
      </trkpt>
      <trkpt lat="44.88007" lon="5.51506">
        <ele>1774.4</ele>
        <time>2022-01-19T12:55:25Z</time>
      </trkpt>
      <trkpt lat="44.8801" lon="5.51507">
        <ele>1773.5</ele>
        <time>2022-01-19T12:55:26Z</time>
      </trkpt>
      <trkpt lat="44.88012" lon="5.51508">
        <ele>1772.7</ele>
        <time>2022-01-19T12:55:27Z</time>
      </trkpt>
      <trkpt lat="44.88014" lon="5.51509">
        <ele>1771.9</ele>
        <time>2022-01-19T12:55:28Z</time>
      </trkpt>
      <trkpt lat="44.88017" lon="5.5151">
        <ele>1772.8</ele>
        <time>2022-01-19T12:55:29Z</time>
      </trkpt>
      <trkpt lat="44.88019" lon="5.51511">
        <ele>1772</ele>
        <time>2022-01-19T12:55:30Z</time>
      </trkpt>
      <trkpt lat="44.8802" lon="5.51512">
        <ele>1771.1</ele>
        <time>2022-01-19T12:55:31Z</time>
      </trkpt>
      <trkpt lat="44.88022" lon="5.51514">
        <ele>1771.1</ele>
        <time>2022-01-19T12:55:32Z</time>
      </trkpt>
      <trkpt lat="44.88025" lon="5.51515">
        <ele>1771.8</ele>
        <time>2022-01-19T12:55:33Z</time>
      </trkpt>
      <trkpt lat="44.88027" lon="5.51516">
        <ele>1770.9</ele>
        <time>2022-01-19T12:55:34Z</time>
      </trkpt>
      <trkpt lat="44.88031" lon="5.51518">
        <ele>1771</ele>
        <time>2022-01-19T12:55:35Z</time>
      </trkpt>
      <trkpt lat="44.88035" lon="5.5152">
        <ele>1770.1</ele>
        <time>2022-01-19T12:55:36Z</time>
      </trkpt>
      <trkpt lat="44.88038" lon="5.51522">
        <ele>1769.2</ele>
        <time>2022-01-19T12:55:37Z</time>
      </trkpt>
      <trkpt lat="44.88041" lon="5.51523">
        <ele>1769.5</ele>
        <time>2022-01-19T12:55:38Z</time>
      </trkpt>
      <trkpt lat="44.88045" lon="5.51524">
        <ele>1768</ele>
        <time>2022-01-19T12:55:39Z</time>
      </trkpt>
      <trkpt lat="44.88049" lon="5.51526">
        <ele>1767.2</ele>
        <time>2022-01-19T12:55:40Z</time>
      </trkpt>
      <trkpt lat="44.88054" lon="5.51528">
        <ele>1766.4</ele>
        <time>2022-01-19T12:55:41Z</time>
      </trkpt>
      <trkpt lat="44.88058" lon="5.51531">
        <ele>1766.5</ele>
        <time>2022-01-19T12:55:42Z</time>
      </trkpt>
      <trkpt lat="44.88062" lon="5.51534">
        <ele>1765.6</ele>
        <time>2022-01-19T12:55:43Z</time>
      </trkpt>
      <trkpt lat="44.88065" lon="5.51537">
        <ele>1765.8</ele>
        <time>2022-01-19T12:55:44Z</time>
      </trkpt>
      <trkpt lat="44.88067" lon="5.51539">
        <ele>1765.1</ele>
        <time>2022-01-19T12:55:45Z</time>
      </trkpt>
      <trkpt lat="44.8807" lon="5.51541">
        <ele>1765.4</ele>
        <time>2022-01-19T12:55:46Z</time>
      </trkpt>
      <trkpt lat="44.88073" lon="5.51541">
        <ele>1764.6</ele>
        <time>2022-01-19T12:55:47Z</time>
      </trkpt>
      <trkpt lat="44.88076" lon="5.51542">
        <ele>1763.9</ele>
        <time>2022-01-19T12:55:48Z</time>
      </trkpt>
      <trkpt lat="44.88077" lon="5.51543">
        <ele>1763.9</ele>
        <time>2022-01-19T12:55:49Z</time>
      </trkpt>
      <trkpt lat="44.88079" lon="5.51545">
        <ele>1763.9</ele>
        <time>2022-01-19T12:55:50Z</time>
      </trkpt>
      <trkpt lat="44.88082" lon="5.51546">
        <ele>1763.1</ele>
        <time>2022-01-19T12:55:51Z</time>
      </trkpt>
      <trkpt lat="44.88084" lon="5.51547">
        <ele>1763.1</ele>
        <time>2022-01-19T12:55:52Z</time>
      </trkpt>
      <trkpt lat="44.88086" lon="5.51549">
        <ele>1763.1</ele>
        <time>2022-01-19T12:55:53Z</time>
      </trkpt>
      <trkpt lat="44.88089" lon="5.51551">
        <ele>1762.2</ele>
        <time>2022-01-19T12:55:54Z</time>
      </trkpt>
      <trkpt lat="44.88091" lon="5.51552">
        <ele>1762.3</ele>
        <time>2022-01-19T12:55:55Z</time>
      </trkpt>
      <trkpt lat="44.88094" lon="5.51554">
        <ele>1761.5</ele>
        <time>2022-01-19T12:55:56Z</time>
      </trkpt>
      <trkpt lat="44.88097" lon="5.51555">
        <ele>1760.8</ele>
        <time>2022-01-19T12:55:57Z</time>
      </trkpt>
      <trkpt lat="44.881" lon="5.51556">
        <ele>1760</ele>
        <time>2022-01-19T12:55:58Z</time>
      </trkpt>
      <trkpt lat="44.88103" lon="5.51558">
        <ele>1760</ele>
        <time>2022-01-19T12:55:59Z</time>
      </trkpt>
      <trkpt lat="44.88107" lon="5.51557">
        <ele>1759.2</ele>
        <time>2022-01-19T12:56:00Z</time>
      </trkpt>
      <trkpt lat="44.88111" lon="5.51553">
        <ele>1757.5</ele>
        <time>2022-01-19T12:56:01Z</time>
      </trkpt>
      <trkpt lat="44.88112" lon="5.5155">
        <ele>1755.7</ele>
        <time>2022-01-19T12:56:02Z</time>
      </trkpt>
      <trkpt lat="44.88114" lon="5.51546">
        <ele>1754.7</ele>
        <time>2022-01-19T12:56:03Z</time>
      </trkpt>
      <trkpt lat="44.88115" lon="5.51544">
        <ele>1753.9</ele>
        <time>2022-01-19T12:56:04Z</time>
      </trkpt>
      <trkpt lat="44.88117" lon="5.51541">
        <ele>1752.8</ele>
        <time>2022-01-19T12:56:05Z</time>
      </trkpt>
      <trkpt lat="44.88119" lon="5.5154">
        <ele>1752</ele>
        <time>2022-01-19T12:56:06Z</time>
      </trkpt>
      <trkpt lat="44.88121" lon="5.51537">
        <ele>1750.1</ele>
        <time>2022-01-19T12:56:07Z</time>
      </trkpt>
      <trkpt lat="44.88123" lon="5.51535">
        <ele>1748.9</ele>
        <time>2022-01-19T12:56:08Z</time>
      </trkpt>
      <trkpt lat="44.88124" lon="5.51532">
        <ele>1748.2</ele>
        <time>2022-01-19T12:56:09Z</time>
      </trkpt>
      <trkpt lat="44.88126" lon="5.5153">
        <ele>1747</ele>
        <time>2022-01-19T12:56:10Z</time>
      </trkpt>
      <trkpt lat="44.88129" lon="5.51529">
        <ele>1746.4</ele>
        <time>2022-01-19T12:56:11Z</time>
      </trkpt>
      <trkpt lat="44.8813" lon="5.51527">
        <ele>1744.7</ele>
        <time>2022-01-19T12:56:12Z</time>
      </trkpt>
      <trkpt lat="44.88133" lon="5.51525">
        <ele>1744.1</ele>
        <time>2022-01-19T12:56:13Z</time>
      </trkpt>
      <trkpt lat="44.88136" lon="5.51523">
        <ele>1743.6</ele>
        <time>2022-01-19T12:56:14Z</time>
      </trkpt>
      <trkpt lat="44.88139" lon="5.51519">
        <ele>1742</ele>
        <time>2022-01-19T12:56:15Z</time>
      </trkpt>
      <trkpt lat="44.88142" lon="5.51516">
        <ele>1740.6</ele>
        <time>2022-01-19T12:56:16Z</time>
      </trkpt>
      <trkpt lat="44.88143" lon="5.51512">
        <ele>1739</ele>
        <time>2022-01-19T12:56:17Z</time>
      </trkpt>
      <trkpt lat="44.88144" lon="5.51506">
        <ele>1738</ele>
        <time>2022-01-19T12:56:18Z</time>
      </trkpt>
      <trkpt lat="44.88144" lon="5.51501">
        <ele>1737</ele>
        <time>2022-01-19T12:56:19Z</time>
      </trkpt>
      <trkpt lat="44.88144" lon="5.51499">
        <ele>1735.9</ele>
        <time>2022-01-19T12:56:20Z</time>
      </trkpt>
      <trkpt lat="44.88145" lon="5.51499">
        <ele>1735.9</ele>
        <time>2022-01-19T12:56:21Z</time>
      </trkpt>
      <trkpt lat="44.88145" lon="5.51497">
        <ele>1735.4</ele>
        <time>2022-01-19T12:56:22Z</time>
      </trkpt>
      <trkpt lat="44.88145" lon="5.51497">
        <ele>1735.4</ele>
        <time>2022-01-19T12:56:23Z</time>
      </trkpt>
      <trkpt lat="44.88145" lon="5.51497">
        <ele>1735.4</ele>
        <time>2022-01-19T12:56:24Z</time>
      </trkpt>
      <trkpt lat="44.88145" lon="5.51497">
        <ele>1735.4</ele>
        <time>2022-01-19T12:56:25Z</time>
      </trkpt>
      <trkpt lat="44.88145" lon="5.51497">
        <ele>1735.4</ele>
        <time>2022-01-19T12:56:26Z</time>
      </trkpt>
      <trkpt lat="44.88145" lon="5.51497">
        <ele>1735.4</ele>
        <time>2022-01-19T12:56:27Z</time>
      </trkpt>
      <trkpt lat="44.88145" lon="5.51497">
        <ele>1735.4</ele>
        <time>2022-01-19T12:56:28Z</time>
      </trkpt>
      <trkpt lat="44.88145" lon="5.51497">
        <ele>1735.4</ele>
        <time>2022-01-19T12:56:29Z</time>
      </trkpt>
      <trkpt lat="44.88145" lon="5.51497">
        <ele>1735.4</ele>
        <time>2022-01-19T12:56:30Z</time>
      </trkpt>
      <trkpt lat="44.88145" lon="5.51497">
        <ele>1735.4</ele>
        <time>2022-01-19T12:56:31Z</time>
      </trkpt>
      <trkpt lat="44.88145" lon="5.51497">
        <ele>1735.4</ele>
        <time>2022-01-19T12:56:32Z</time>
      </trkpt>
      <trkpt lat="44.88145" lon="5.51497">
        <ele>1735.4</ele>
        <time>2022-01-19T12:56:33Z</time>
      </trkpt>
      <trkpt lat="44.88145" lon="5.51497">
        <ele>1735.4</ele>
        <time>2022-01-19T12:56:34Z</time>
      </trkpt>
      <trkpt lat="44.88145" lon="5.51497">
        <ele>1735.4</ele>
        <time>2022-01-19T12:56:35Z</time>
      </trkpt>
      <trkpt lat="44.88145" lon="5.51497">
        <ele>1735.4</ele>
        <time>2022-01-19T12:56:36Z</time>
      </trkpt>
      <trkpt lat="44.88145" lon="5.51497">
        <ele>1735.4</ele>
        <time>2022-01-19T12:56:37Z</time>
      </trkpt>
      <trkpt lat="44.88145" lon="5.51497">
        <ele>1735.4</ele>
        <time>2022-01-19T12:56:38Z</time>
      </trkpt>
      <trkpt lat="44.88145" lon="5.51497">
        <ele>1735.4</ele>
        <time>2022-01-19T12:56:39Z</time>
      </trkpt>
      <trkpt lat="44.88145" lon="5.51497">
        <ele>1735.4</ele>
        <time>2022-01-19T12:56:40Z</time>
      </trkpt>
      <trkpt lat="44.88145" lon="5.51497">
        <ele>1735.4</ele>
        <time>2022-01-19T12:56:41Z</time>
      </trkpt>
      <trkpt lat="44.88145" lon="5.51497">
        <ele>1735.4</ele>
        <time>2022-01-19T12:56:42Z</time>
      </trkpt>
      <trkpt lat="44.88145" lon="5.51497">
        <ele>1735.4</ele>
        <time>2022-01-19T12:56:43Z</time>
      </trkpt>
      <trkpt lat="44.88145" lon="5.51497">
        <ele>1735.4</ele>
        <time>2022-01-19T12:56:44Z</time>
      </trkpt>
      <trkpt lat="44.88145" lon="5.51497">
        <ele>1735.4</ele>
        <time>2022-01-19T12:56:45Z</time>
      </trkpt>
      <trkpt lat="44.88145" lon="5.51497">
        <ele>1735.4</ele>
        <time>2022-01-19T12:56:46Z</time>
      </trkpt>
      <trkpt lat="44.88145" lon="5.51497">
        <ele>1735.4</ele>
        <time>2022-01-19T12:56:47Z</time>
      </trkpt>
      <trkpt lat="44.88145" lon="5.51497">
        <ele>1735.4</ele>
        <time>2022-01-19T12:56:48Z</time>
      </trkpt>
      <trkpt lat="44.88145" lon="5.51497">
        <ele>1735.4</ele>
        <time>2022-01-19T12:56:49Z</time>
      </trkpt>
      <trkpt lat="44.88145" lon="5.51497">
        <ele>1735.4</ele>
        <time>2022-01-19T12:56:50Z</time>
      </trkpt>
      <trkpt lat="44.88145" lon="5.51497">
        <ele>1735.4</ele>
        <time>2022-01-19T12:56:51Z</time>
      </trkpt>
      <trkpt lat="44.88145" lon="5.51497">
        <ele>1735.4</ele>
        <time>2022-01-19T12:56:52Z</time>
      </trkpt>
      <trkpt lat="44.88145" lon="5.51497">
        <ele>1735.4</ele>
        <time>2022-01-19T12:56:53Z</time>
      </trkpt>
      <trkpt lat="44.88145" lon="5.51497">
        <ele>1735.4</ele>
        <time>2022-01-19T12:56:54Z</time>
      </trkpt>
      <trkpt lat="44.88145" lon="5.51497">
        <ele>1735.4</ele>
        <time>2022-01-19T12:56:55Z</time>
      </trkpt>
      <trkpt lat="44.88145" lon="5.51497">
        <ele>1735.4</ele>
        <time>2022-01-19T12:56:56Z</time>
      </trkpt>
      <trkpt lat="44.88145" lon="5.51497">
        <ele>1735.4</ele>
        <time>2022-01-19T12:56:57Z</time>
      </trkpt>
      <trkpt lat="44.88145" lon="5.51497">
        <ele>1735.4</ele>
        <time>2022-01-19T12:56:58Z</time>
      </trkpt>
      <trkpt lat="44.88145" lon="5.51497">
        <ele>1735.4</ele>
        <time>2022-01-19T12:56:59Z</time>
      </trkpt>
      <trkpt lat="44.88149" lon="5.51494">
        <ele>1733.9</ele>
        <time>2022-01-19T12:57:00Z</time>
      </trkpt>
      <trkpt lat="44.88152" lon="5.51493">
        <ele>1733.5</ele>
        <time>2022-01-19T12:57:01Z</time>
      </trkpt>
      <trkpt lat="44.88156" lon="5.5149">
        <ele>1732</ele>
        <time>2022-01-19T12:57:02Z</time>
      </trkpt>
      <trkpt lat="44.8816" lon="5.51486">
        <ele>1730.7</ele>
        <time>2022-01-19T12:57:03Z</time>
      </trkpt>
      <trkpt lat="44.88164" lon="5.51482">
        <ele>1729</ele>
        <time>2022-01-19T12:57:04Z</time>
      </trkpt>
      <trkpt lat="44.88169" lon="5.51477">
        <ele>1727.7</ele>
        <time>2022-01-19T12:57:05Z</time>
      </trkpt>
      <trkpt lat="44.88174" lon="5.51472">
        <ele>1726.1</ele>
        <time>2022-01-19T12:57:06Z</time>
      </trkpt>
      <trkpt lat="44.88178" lon="5.51469">
        <ele>1725</ele>
        <time>2022-01-19T12:57:07Z</time>
      </trkpt>
      <trkpt lat="44.88183" lon="5.51465">
        <ele>1723.7</ele>
        <time>2022-01-19T12:57:08Z</time>
      </trkpt>
      <trkpt lat="44.88187" lon="5.5146">
        <ele>1722.6</ele>
        <time>2022-01-19T12:57:09Z</time>
      </trkpt>
      <trkpt lat="44.88191" lon="5.51454">
        <ele>1721.4</ele>
        <time>2022-01-19T12:57:10Z</time>
      </trkpt>
      <trkpt lat="44.88196" lon="5.51446">
        <ele>1719.6</ele>
        <time>2022-01-19T12:57:11Z</time>
      </trkpt>
      <trkpt lat="44.88201" lon="5.51439">
        <ele>1718</ele>
        <time>2022-01-19T12:57:12Z</time>
      </trkpt>
      <trkpt lat="44.88206" lon="5.51434">
        <ele>1717.3</ele>
        <time>2022-01-19T12:57:13Z</time>
      </trkpt>
      <trkpt lat="44.8821" lon="5.51433">
        <ele>1717.3</ele>
        <time>2022-01-19T12:57:14Z</time>
      </trkpt>
      <trkpt lat="44.88213" lon="5.51432">
        <ele>1716.8</ele>
        <time>2022-01-19T12:57:15Z</time>
      </trkpt>
      <trkpt lat="44.88217" lon="5.51431">
        <ele>1716.9</ele>
        <time>2022-01-19T12:57:16Z</time>
      </trkpt>
      <trkpt lat="44.88219" lon="5.51429">
        <ele>1716.9</ele>
        <time>2022-01-19T12:57:17Z</time>
      </trkpt>
      <trkpt lat="44.88221" lon="5.51427">
        <ele>1716.5</ele>
        <time>2022-01-19T12:57:18Z</time>
      </trkpt>
      <trkpt lat="44.88224" lon="5.51426">
        <ele>1716.5</ele>
        <time>2022-01-19T12:57:19Z</time>
      </trkpt>
      <trkpt lat="44.88225" lon="5.51425">
        <ele>1716.6</ele>
        <time>2022-01-19T12:57:20Z</time>
      </trkpt>
      <trkpt lat="44.88225" lon="5.51425">
        <ele>1716.6</ele>
        <time>2022-01-19T12:57:21Z</time>
      </trkpt>
      <trkpt lat="44.88225" lon="5.51425">
        <ele>1716.6</ele>
        <time>2022-01-19T12:57:22Z</time>
      </trkpt>
      <trkpt lat="44.88225" lon="5.51425">
        <ele>1716.6</ele>
        <time>2022-01-19T12:57:23Z</time>
      </trkpt>
      <trkpt lat="44.88225" lon="5.51425">
        <ele>1716.6</ele>
        <time>2022-01-19T12:57:24Z</time>
      </trkpt>
      <trkpt lat="44.88225" lon="5.51425">
        <ele>1716.6</ele>
        <time>2022-01-19T12:57:25Z</time>
      </trkpt>
      <trkpt lat="44.88225" lon="5.51425">
        <ele>1716.6</ele>
        <time>2022-01-19T12:57:26Z</time>
      </trkpt>
      <trkpt lat="44.88225" lon="5.51425">
        <ele>1716.6</ele>
        <time>2022-01-19T12:57:27Z</time>
      </trkpt>
      <trkpt lat="44.88225" lon="5.51425">
        <ele>1716.6</ele>
        <time>2022-01-19T12:57:28Z</time>
      </trkpt>
      <trkpt lat="44.88225" lon="5.51425">
        <ele>1716.6</ele>
        <time>2022-01-19T12:57:29Z</time>
      </trkpt>
      <trkpt lat="44.88225" lon="5.51425">
        <ele>1716.6</ele>
        <time>2022-01-19T12:57:30Z</time>
      </trkpt>
      <trkpt lat="44.88225" lon="5.51425">
        <ele>1716.6</ele>
        <time>2022-01-19T12:57:31Z</time>
      </trkpt>
      <trkpt lat="44.88225" lon="5.51425">
        <ele>1716.6</ele>
        <time>2022-01-19T12:57:32Z</time>
      </trkpt>
      <trkpt lat="44.88225" lon="5.51425">
        <ele>1716.6</ele>
        <time>2022-01-19T12:57:33Z</time>
      </trkpt>
      <trkpt lat="44.88225" lon="5.51425">
        <ele>1716.6</ele>
        <time>2022-01-19T12:57:34Z</time>
      </trkpt>
      <trkpt lat="44.88225" lon="5.51426">
        <ele>1716.6</ele>
        <time>2022-01-19T12:57:35Z</time>
      </trkpt>
      <trkpt lat="44.88225" lon="5.51426">
        <ele>1716.6</ele>
        <time>2022-01-19T12:57:36Z</time>
      </trkpt>
      <trkpt lat="44.88225" lon="5.51426">
        <ele>1716.6</ele>
        <time>2022-01-19T12:57:37Z</time>
      </trkpt>
      <trkpt lat="44.88225" lon="5.51426">
        <ele>1716.6</ele>
        <time>2022-01-19T12:57:38Z</time>
      </trkpt>
      <trkpt lat="44.88225" lon="5.51426">
        <ele>1716.6</ele>
        <time>2022-01-19T12:57:39Z</time>
      </trkpt>
      <trkpt lat="44.88225" lon="5.51426">
        <ele>1716.6</ele>
        <time>2022-01-19T12:57:40Z</time>
      </trkpt>
      <trkpt lat="44.88225" lon="5.51426">
        <ele>1716.6</ele>
        <time>2022-01-19T12:57:41Z</time>
      </trkpt>
      <trkpt lat="44.88225" lon="5.51426">
        <ele>1716.6</ele>
        <time>2022-01-19T12:57:42Z</time>
      </trkpt>
      <trkpt lat="44.88225" lon="5.51426">
        <ele>1716.6</ele>
        <time>2022-01-19T12:57:43Z</time>
      </trkpt>
      <trkpt lat="44.88225" lon="5.51426">
        <ele>1716.6</ele>
        <time>2022-01-19T12:57:44Z</time>
      </trkpt>
      <trkpt lat="44.88225" lon="5.51426">
        <ele>1716.6</ele>
        <time>2022-01-19T12:57:45Z</time>
      </trkpt>
      <trkpt lat="44.88225" lon="5.51426">
        <ele>1716.6</ele>
        <time>2022-01-19T12:57:46Z</time>
      </trkpt>
      <trkpt lat="44.88225" lon="5.51426">
        <ele>1716.6</ele>
        <time>2022-01-19T12:57:47Z</time>
      </trkpt>
      <trkpt lat="44.88225" lon="5.51426">
        <ele>1716.6</ele>
        <time>2022-01-19T12:57:48Z</time>
      </trkpt>
      <trkpt lat="44.88225" lon="5.51426">
        <ele>1716.6</ele>
        <time>2022-01-19T12:57:49Z</time>
      </trkpt>
      <trkpt lat="44.88225" lon="5.51426">
        <ele>1716.6</ele>
        <time>2022-01-19T12:57:50Z</time>
      </trkpt>
      <trkpt lat="44.88226" lon="5.51426">
        <ele>1716.6</ele>
        <time>2022-01-19T12:57:51Z</time>
      </trkpt>
      <trkpt lat="44.88226" lon="5.51426">
        <ele>1716.6</ele>
        <time>2022-01-19T12:57:52Z</time>
      </trkpt>
      <trkpt lat="44.88226" lon="5.51426">
        <ele>1716.6</ele>
        <time>2022-01-19T12:57:53Z</time>
      </trkpt>
      <trkpt lat="44.88226" lon="5.51426">
        <ele>1716.6</ele>
        <time>2022-01-19T12:57:54Z</time>
      </trkpt>
      <trkpt lat="44.88226" lon="5.51426">
        <ele>1716.6</ele>
        <time>2022-01-19T12:57:55Z</time>
      </trkpt>
      <trkpt lat="44.88226" lon="5.51426">
        <ele>1716.6</ele>
        <time>2022-01-19T12:57:56Z</time>
      </trkpt>
      <trkpt lat="44.88226" lon="5.51426">
        <ele>1716.6</ele>
        <time>2022-01-19T12:57:57Z</time>
      </trkpt>
      <trkpt lat="44.88226" lon="5.51426">
        <ele>1716.6</ele>
        <time>2022-01-19T12:57:58Z</time>
      </trkpt>
      <trkpt lat="44.88226" lon="5.51426">
        <ele>1716.6</ele>
        <time>2022-01-19T12:57:59Z</time>
      </trkpt>
      <trkpt lat="44.88226" lon="5.51426">
        <ele>1716.6</ele>
        <time>2022-01-19T12:58:00Z</time>
      </trkpt>
      <trkpt lat="44.88226" lon="5.51426">
        <ele>1716.6</ele>
        <time>2022-01-19T12:58:01Z</time>
      </trkpt>
      <trkpt lat="44.88226" lon="5.51426">
        <ele>1716.6</ele>
        <time>2022-01-19T12:58:02Z</time>
      </trkpt>
      <trkpt lat="44.88226" lon="5.51426">
        <ele>1716.6</ele>
        <time>2022-01-19T12:58:03Z</time>
      </trkpt>
      <trkpt lat="44.88226" lon="5.51426">
        <ele>1716.6</ele>
        <time>2022-01-19T12:58:04Z</time>
      </trkpt>
      <trkpt lat="44.88226" lon="5.51426">
        <ele>1716.6</ele>
        <time>2022-01-19T12:58:05Z</time>
      </trkpt>
      <trkpt lat="44.88226" lon="5.51426">
        <ele>1716.6</ele>
        <time>2022-01-19T12:58:06Z</time>
      </trkpt>
      <trkpt lat="44.88226" lon="5.51426">
        <ele>1716.6</ele>
        <time>2022-01-19T12:58:07Z</time>
      </trkpt>
      <trkpt lat="44.88226" lon="5.51426">
        <ele>1716.6</ele>
        <time>2022-01-19T12:58:08Z</time>
      </trkpt>
      <trkpt lat="44.88226" lon="5.51426">
        <ele>1716.6</ele>
        <time>2022-01-19T12:58:09Z</time>
      </trkpt>
      <trkpt lat="44.88226" lon="5.51426">
        <ele>1716.6</ele>
        <time>2022-01-19T12:58:10Z</time>
      </trkpt>
      <trkpt lat="44.88226" lon="5.51426">
        <ele>1716.6</ele>
        <time>2022-01-19T12:58:11Z</time>
      </trkpt>
      <trkpt lat="44.88226" lon="5.51426">
        <ele>1716.6</ele>
        <time>2022-01-19T12:58:12Z</time>
      </trkpt>
      <trkpt lat="44.88226" lon="5.51426">
        <ele>1716.6</ele>
        <time>2022-01-19T12:58:13Z</time>
      </trkpt>
      <trkpt lat="44.88226" lon="5.51426">
        <ele>1716.6</ele>
        <time>2022-01-19T12:58:14Z</time>
      </trkpt>
      <trkpt lat="44.88226" lon="5.51426">
        <ele>1716.6</ele>
        <time>2022-01-19T12:58:15Z</time>
      </trkpt>
      <trkpt lat="44.88226" lon="5.51427">
        <ele>1716.6</ele>
        <time>2022-01-19T12:58:16Z</time>
      </trkpt>
      <trkpt lat="44.88226" lon="5.51427">
        <ele>1716.6</ele>
        <time>2022-01-19T12:58:17Z</time>
      </trkpt>
      <trkpt lat="44.88226" lon="5.51427">
        <ele>1716.6</ele>
        <time>2022-01-19T12:58:18Z</time>
      </trkpt>
      <trkpt lat="44.88226" lon="5.51427">
        <ele>1716.6</ele>
        <time>2022-01-19T12:58:19Z</time>
      </trkpt>
      <trkpt lat="44.88226" lon="5.51427">
        <ele>1716.6</ele>
        <time>2022-01-19T12:58:20Z</time>
      </trkpt>
      <trkpt lat="44.88226" lon="5.51427">
        <ele>1716.6</ele>
        <time>2022-01-19T12:58:21Z</time>
      </trkpt>
      <trkpt lat="44.88226" lon="5.51427">
        <ele>1716.6</ele>
        <time>2022-01-19T12:58:22Z</time>
      </trkpt>
      <trkpt lat="44.88226" lon="5.51427">
        <ele>1716.6</ele>
        <time>2022-01-19T12:58:23Z</time>
      </trkpt>
      <trkpt lat="44.88226" lon="5.51427">
        <ele>1716.6</ele>
        <time>2022-01-19T12:58:24Z</time>
      </trkpt>
      <trkpt lat="44.88226" lon="5.51427">
        <ele>1716.6</ele>
        <time>2022-01-19T12:58:25Z</time>
      </trkpt>
      <trkpt lat="44.88226" lon="5.51427">
        <ele>1716.6</ele>
        <time>2022-01-19T12:58:26Z</time>
      </trkpt>
      <trkpt lat="44.88226" lon="5.51427">
        <ele>1716.6</ele>
        <time>2022-01-19T12:58:27Z</time>
      </trkpt>
      <trkpt lat="44.88226" lon="5.51427">
        <ele>1716.6</ele>
        <time>2022-01-19T12:58:28Z</time>
      </trkpt>
      <trkpt lat="44.88226" lon="5.51427">
        <ele>1716.6</ele>
        <time>2022-01-19T12:58:29Z</time>
      </trkpt>
      <trkpt lat="44.88226" lon="5.51427">
        <ele>1716.6</ele>
        <time>2022-01-19T12:58:30Z</time>
      </trkpt>
      <trkpt lat="44.88226" lon="5.51427">
        <ele>1716.6</ele>
        <time>2022-01-19T12:58:31Z</time>
      </trkpt>
      <trkpt lat="44.88226" lon="5.51427">
        <ele>1716.6</ele>
        <time>2022-01-19T12:58:32Z</time>
      </trkpt>
      <trkpt lat="44.88226" lon="5.51427">
        <ele>1716.6</ele>
        <time>2022-01-19T12:58:33Z</time>
      </trkpt>
      <trkpt lat="44.88226" lon="5.51427">
        <ele>1716.6</ele>
        <time>2022-01-19T12:58:34Z</time>
      </trkpt>
      <trkpt lat="44.88226" lon="5.51427">
        <ele>1716.6</ele>
        <time>2022-01-19T12:58:35Z</time>
      </trkpt>
      <trkpt lat="44.88226" lon="5.51427">
        <ele>1716.6</ele>
        <time>2022-01-19T12:58:36Z</time>
      </trkpt>
      <trkpt lat="44.88226" lon="5.51427">
        <ele>1716.6</ele>
        <time>2022-01-19T12:58:37Z</time>
      </trkpt>
      <trkpt lat="44.88226" lon="5.51427">
        <ele>1716.6</ele>
        <time>2022-01-19T12:58:38Z</time>
      </trkpt>
      <trkpt lat="44.88226" lon="5.51427">
        <ele>1716.6</ele>
        <time>2022-01-19T12:58:39Z</time>
      </trkpt>
      <trkpt lat="44.88226" lon="5.51427">
        <ele>1716.6</ele>
        <time>2022-01-19T12:58:40Z</time>
      </trkpt>
      <trkpt lat="44.88226" lon="5.51427">
        <ele>1716.6</ele>
        <time>2022-01-19T12:58:41Z</time>
      </trkpt>
      <trkpt lat="44.88226" lon="5.51427">
        <ele>1716.6</ele>
        <time>2022-01-19T12:58:42Z</time>
      </trkpt>
      <trkpt lat="44.88226" lon="5.51427">
        <ele>1716.6</ele>
        <time>2022-01-19T12:58:43Z</time>
      </trkpt>
      <trkpt lat="44.88226" lon="5.51427">
        <ele>1716.6</ele>
        <time>2022-01-19T12:58:44Z</time>
      </trkpt>
      <trkpt lat="44.88226" lon="5.51427">
        <ele>1716.6</ele>
        <time>2022-01-19T12:58:45Z</time>
      </trkpt>
      <trkpt lat="44.88226" lon="5.51427">
        <ele>1716.6</ele>
        <time>2022-01-19T12:58:46Z</time>
      </trkpt>
      <trkpt lat="44.88226" lon="5.51427">
        <ele>1716.6</ele>
        <time>2022-01-19T12:58:47Z</time>
      </trkpt>
      <trkpt lat="44.88226" lon="5.51427">
        <ele>1716.6</ele>
        <time>2022-01-19T12:58:48Z</time>
      </trkpt>
      <trkpt lat="44.88226" lon="5.51427">
        <ele>1716.6</ele>
        <time>2022-01-19T12:58:49Z</time>
      </trkpt>
      <trkpt lat="44.88226" lon="5.51427">
        <ele>1716.6</ele>
        <time>2022-01-19T12:58:50Z</time>
      </trkpt>
      <trkpt lat="44.88226" lon="5.51427">
        <ele>1716.6</ele>
        <time>2022-01-19T12:58:51Z</time>
      </trkpt>
      <trkpt lat="44.88226" lon="5.51427">
        <ele>1716.6</ele>
        <time>2022-01-19T12:58:52Z</time>
      </trkpt>
      <trkpt lat="44.88226" lon="5.51427">
        <ele>1716.6</ele>
        <time>2022-01-19T12:58:53Z</time>
      </trkpt>
      <trkpt lat="44.88226" lon="5.51427">
        <ele>1716.6</ele>
        <time>2022-01-19T12:58:54Z</time>
      </trkpt>
      <trkpt lat="44.88226" lon="5.51427">
        <ele>1716.6</ele>
        <time>2022-01-19T12:58:55Z</time>
      </trkpt>
      <trkpt lat="44.88226" lon="5.51428">
        <ele>1716.6</ele>
        <time>2022-01-19T12:58:56Z</time>
      </trkpt>
      <trkpt lat="44.88226" lon="5.51428">
        <ele>1716.6</ele>
        <time>2022-01-19T12:58:57Z</time>
      </trkpt>
      <trkpt lat="44.88226" lon="5.51428">
        <ele>1716.6</ele>
        <time>2022-01-19T12:58:58Z</time>
      </trkpt>
      <trkpt lat="44.88226" lon="5.51428">
        <ele>1716.6</ele>
        <time>2022-01-19T12:58:59Z</time>
      </trkpt>
      <trkpt lat="44.88226" lon="5.51428">
        <ele>1716.6</ele>
        <time>2022-01-19T12:59:00Z</time>
      </trkpt>
      <trkpt lat="44.88226" lon="5.51428">
        <ele>1716.6</ele>
        <time>2022-01-19T12:59:01Z</time>
      </trkpt>
      <trkpt lat="44.88226" lon="5.51428">
        <ele>1716.6</ele>
        <time>2022-01-19T12:59:02Z</time>
      </trkpt>
      <trkpt lat="44.88226" lon="5.51428">
        <ele>1716.6</ele>
        <time>2022-01-19T12:59:03Z</time>
      </trkpt>
      <trkpt lat="44.88226" lon="5.51428">
        <ele>1716.6</ele>
        <time>2022-01-19T12:59:04Z</time>
      </trkpt>
      <trkpt lat="44.88226" lon="5.51428">
        <ele>1716.6</ele>
        <time>2022-01-19T12:59:05Z</time>
      </trkpt>
      <trkpt lat="44.88226" lon="5.51428">
        <ele>1716.6</ele>
        <time>2022-01-19T12:59:06Z</time>
      </trkpt>
      <trkpt lat="44.88227" lon="5.51428">
        <ele>1716.6</ele>
        <time>2022-01-19T12:59:07Z</time>
      </trkpt>
      <trkpt lat="44.88227" lon="5.51428">
        <ele>1716.6</ele>
        <time>2022-01-19T12:59:08Z</time>
      </trkpt>
      <trkpt lat="44.88227" lon="5.51428">
        <ele>1716.6</ele>
        <time>2022-01-19T12:59:09Z</time>
      </trkpt>
      <trkpt lat="44.88227" lon="5.51428">
        <ele>1716.6</ele>
        <time>2022-01-19T12:59:10Z</time>
      </trkpt>
      <trkpt lat="44.88227" lon="5.51428">
        <ele>1716.6</ele>
        <time>2022-01-19T12:59:11Z</time>
      </trkpt>
      <trkpt lat="44.88227" lon="5.51428">
        <ele>1717.2</ele>
        <time>2022-01-19T12:59:12Z</time>
      </trkpt>
      <trkpt lat="44.88227" lon="5.51428">
        <ele>1717.2</ele>
        <time>2022-01-19T12:59:13Z</time>
      </trkpt>
      <trkpt lat="44.88227" lon="5.51428">
        <ele>1717.2</ele>
        <time>2022-01-19T12:59:14Z</time>
      </trkpt>
      <trkpt lat="44.88227" lon="5.51428">
        <ele>1717.2</ele>
        <time>2022-01-19T12:59:15Z</time>
      </trkpt>
      <trkpt lat="44.88227" lon="5.51428">
        <ele>1717.2</ele>
        <time>2022-01-19T12:59:16Z</time>
      </trkpt>
      <trkpt lat="44.88227" lon="5.51428">
        <ele>1717.2</ele>
        <time>2022-01-19T12:59:17Z</time>
      </trkpt>
      <trkpt lat="44.88227" lon="5.51428">
        <ele>1717.2</ele>
        <time>2022-01-19T12:59:18Z</time>
      </trkpt>
      <trkpt lat="44.88227" lon="5.51428">
        <ele>1717.2</ele>
        <time>2022-01-19T12:59:19Z</time>
      </trkpt>
      <trkpt lat="44.88227" lon="5.51428">
        <ele>1717.2</ele>
        <time>2022-01-19T12:59:20Z</time>
      </trkpt>
      <trkpt lat="44.88227" lon="5.51428">
        <ele>1717.2</ele>
        <time>2022-01-19T12:59:21Z</time>
      </trkpt>
      <trkpt lat="44.88227" lon="5.51428">
        <ele>1717.2</ele>
        <time>2022-01-19T12:59:22Z</time>
      </trkpt>
      <trkpt lat="44.88227" lon="5.51428">
        <ele>1717.2</ele>
        <time>2022-01-19T12:59:23Z</time>
      </trkpt>
      <trkpt lat="44.88227" lon="5.51428">
        <ele>1717.2</ele>
        <time>2022-01-19T12:59:24Z</time>
      </trkpt>
      <trkpt lat="44.88227" lon="5.51428">
        <ele>1717.2</ele>
        <time>2022-01-19T12:59:25Z</time>
      </trkpt>
      <trkpt lat="44.88227" lon="5.51428">
        <ele>1717.2</ele>
        <time>2022-01-19T12:59:26Z</time>
      </trkpt>
      <trkpt lat="44.88227" lon="5.51428">
        <ele>1717.2</ele>
        <time>2022-01-19T12:59:27Z</time>
      </trkpt>
      <trkpt lat="44.88227" lon="5.51428">
        <ele>1717.2</ele>
        <time>2022-01-19T12:59:28Z</time>
      </trkpt>
      <trkpt lat="44.88227" lon="5.51428">
        <ele>1717.2</ele>
        <time>2022-01-19T12:59:29Z</time>
      </trkpt>
      <trkpt lat="44.88227" lon="5.51428">
        <ele>1717.2</ele>
        <time>2022-01-19T12:59:30Z</time>
      </trkpt>
      <trkpt lat="44.88227" lon="5.51428">
        <ele>1717.2</ele>
        <time>2022-01-19T12:59:31Z</time>
      </trkpt>
      <trkpt lat="44.88227" lon="5.51428">
        <ele>1717.2</ele>
        <time>2022-01-19T12:59:32Z</time>
      </trkpt>
      <trkpt lat="44.88227" lon="5.51428">
        <ele>1717.2</ele>
        <time>2022-01-19T12:59:33Z</time>
      </trkpt>
      <trkpt lat="44.88227" lon="5.51428">
        <ele>1717.2</ele>
        <time>2022-01-19T12:59:34Z</time>
      </trkpt>
      <trkpt lat="44.88227" lon="5.51428">
        <ele>1717.2</ele>
        <time>2022-01-19T12:59:35Z</time>
      </trkpt>
      <trkpt lat="44.88227" lon="5.51429">
        <ele>1717.2</ele>
        <time>2022-01-19T12:59:36Z</time>
      </trkpt>
      <trkpt lat="44.88227" lon="5.51429">
        <ele>1717.2</ele>
        <time>2022-01-19T12:59:37Z</time>
      </trkpt>
      <trkpt lat="44.88227" lon="5.51429">
        <ele>1717.2</ele>
        <time>2022-01-19T12:59:38Z</time>
      </trkpt>
      <trkpt lat="44.88227" lon="5.51429">
        <ele>1717.2</ele>
        <time>2022-01-19T12:59:39Z</time>
      </trkpt>
      <trkpt lat="44.88227" lon="5.51429">
        <ele>1717.2</ele>
        <time>2022-01-19T12:59:40Z</time>
      </trkpt>
      <trkpt lat="44.88227" lon="5.51429">
        <ele>1717.2</ele>
        <time>2022-01-19T12:59:41Z</time>
      </trkpt>
      <trkpt lat="44.88227" lon="5.51429">
        <ele>1717.2</ele>
        <time>2022-01-19T12:59:42Z</time>
      </trkpt>
      <trkpt lat="44.88227" lon="5.51429">
        <ele>1717.2</ele>
        <time>2022-01-19T12:59:43Z</time>
      </trkpt>
      <trkpt lat="44.88227" lon="5.51429">
        <ele>1717.2</ele>
        <time>2022-01-19T12:59:44Z</time>
      </trkpt>
      <trkpt lat="44.88227" lon="5.51429">
        <ele>1717.3</ele>
        <time>2022-01-19T12:59:45Z</time>
      </trkpt>
      <trkpt lat="44.88227" lon="5.51429">
        <ele>1717.3</ele>
        <time>2022-01-19T12:59:46Z</time>
      </trkpt>
      <trkpt lat="44.88227" lon="5.51429">
        <ele>1717.3</ele>
        <time>2022-01-19T12:59:47Z</time>
      </trkpt>
      <trkpt lat="44.88227" lon="5.51429">
        <ele>1717.3</ele>
        <time>2022-01-19T12:59:48Z</time>
      </trkpt>
      <trkpt lat="44.88227" lon="5.51429">
        <ele>1717.3</ele>
        <time>2022-01-19T12:59:49Z</time>
      </trkpt>
      <trkpt lat="44.88227" lon="5.51429">
        <ele>1717.3</ele>
        <time>2022-01-19T12:59:50Z</time>
      </trkpt>
      <trkpt lat="44.88227" lon="5.51429">
        <ele>1717.3</ele>
        <time>2022-01-19T12:59:51Z</time>
      </trkpt>
      <trkpt lat="44.88227" lon="5.51429">
        <ele>1717.3</ele>
        <time>2022-01-19T12:59:52Z</time>
      </trkpt>
      <trkpt lat="44.88227" lon="5.51429">
        <ele>1717.3</ele>
        <time>2022-01-19T12:59:53Z</time>
      </trkpt>
      <trkpt lat="44.88227" lon="5.51429">
        <ele>1717.3</ele>
        <time>2022-01-19T12:59:54Z</time>
      </trkpt>
      <trkpt lat="44.88227" lon="5.51429">
        <ele>1717.3</ele>
        <time>2022-01-19T12:59:55Z</time>
      </trkpt>
      <trkpt lat="44.88227" lon="5.51429">
        <ele>1717.3</ele>
        <time>2022-01-19T12:59:56Z</time>
      </trkpt>
      <trkpt lat="44.88227" lon="5.51429">
        <ele>1717.3</ele>
        <time>2022-01-19T12:59:57Z</time>
      </trkpt>
      <trkpt lat="44.88227" lon="5.51429">
        <ele>1717.3</ele>
        <time>2022-01-19T12:59:58Z</time>
      </trkpt>
      <trkpt lat="44.88227" lon="5.51429">
        <ele>1717.3</ele>
        <time>2022-01-19T12:59:59Z</time>
      </trkpt>
      <trkpt lat="44.88227" lon="5.51429">
        <ele>1717.3</ele>
        <time>2022-01-19T13:00:00Z</time>
      </trkpt>
      <trkpt lat="44.88227" lon="5.51429">
        <ele>1717.3</ele>
        <time>2022-01-19T13:00:01Z</time>
      </trkpt>
      <trkpt lat="44.88227" lon="5.51429">
        <ele>1717.3</ele>
        <time>2022-01-19T13:00:02Z</time>
      </trkpt>
      <trkpt lat="44.88227" lon="5.51429">
        <ele>1717.3</ele>
        <time>2022-01-19T13:00:03Z</time>
      </trkpt>
      <trkpt lat="44.88227" lon="5.51429">
        <ele>1717.3</ele>
        <time>2022-01-19T13:00:04Z</time>
      </trkpt>
      <trkpt lat="44.88227" lon="5.51429">
        <ele>1717.3</ele>
        <time>2022-01-19T13:00:05Z</time>
      </trkpt>
      <trkpt lat="44.88227" lon="5.51429">
        <ele>1717.3</ele>
        <time>2022-01-19T13:00:06Z</time>
      </trkpt>
      <trkpt lat="44.88227" lon="5.51429">
        <ele>1717.3</ele>
        <time>2022-01-19T13:00:07Z</time>
      </trkpt>
      <trkpt lat="44.88227" lon="5.51429">
        <ele>1717.3</ele>
        <time>2022-01-19T13:00:08Z</time>
      </trkpt>
      <trkpt lat="44.88227" lon="5.51429">
        <ele>1717.3</ele>
        <time>2022-01-19T13:00:09Z</time>
      </trkpt>
      <trkpt lat="44.88227" lon="5.51429">
        <ele>1717.3</ele>
        <time>2022-01-19T13:00:10Z</time>
      </trkpt>
      <trkpt lat="44.88227" lon="5.51429">
        <ele>1717.3</ele>
        <time>2022-01-19T13:00:11Z</time>
      </trkpt>
      <trkpt lat="44.88227" lon="5.51429">
        <ele>1717.3</ele>
        <time>2022-01-19T13:00:12Z</time>
      </trkpt>
      <trkpt lat="44.88227" lon="5.51429">
        <ele>1717.3</ele>
        <time>2022-01-19T13:00:13Z</time>
      </trkpt>
      <trkpt lat="44.88227" lon="5.51429">
        <ele>1717.3</ele>
        <time>2022-01-19T13:00:14Z</time>
      </trkpt>
      <trkpt lat="44.88227" lon="5.51429">
        <ele>1717.3</ele>
        <time>2022-01-19T13:00:15Z</time>
      </trkpt>
      <trkpt lat="44.88227" lon="5.51429">
        <ele>1717.3</ele>
        <time>2022-01-19T13:00:16Z</time>
      </trkpt>
      <trkpt lat="44.88227" lon="5.5143">
        <ele>1717.3</ele>
        <time>2022-01-19T13:00:17Z</time>
      </trkpt>
      <trkpt lat="44.88227" lon="5.5143">
        <ele>1717.3</ele>
        <time>2022-01-19T13:00:18Z</time>
      </trkpt>
      <trkpt lat="44.88227" lon="5.5143">
        <ele>1717.3</ele>
        <time>2022-01-19T13:00:19Z</time>
      </trkpt>
      <trkpt lat="44.88227" lon="5.5143">
        <ele>1717.3</ele>
        <time>2022-01-19T13:00:20Z</time>
      </trkpt>
      <trkpt lat="44.88227" lon="5.5143">
        <ele>1717.3</ele>
        <time>2022-01-19T13:00:21Z</time>
      </trkpt>
      <trkpt lat="44.88227" lon="5.5143">
        <ele>1717.3</ele>
        <time>2022-01-19T13:00:22Z</time>
      </trkpt>
      <trkpt lat="44.88228" lon="5.5143">
        <ele>1717.3</ele>
        <time>2022-01-19T13:00:23Z</time>
      </trkpt>
      <trkpt lat="44.88228" lon="5.5143">
        <ele>1717.3</ele>
        <time>2022-01-19T13:00:24Z</time>
      </trkpt>
      <trkpt lat="44.88228" lon="5.5143">
        <ele>1717.3</ele>
        <time>2022-01-19T13:00:25Z</time>
      </trkpt>
      <trkpt lat="44.88228" lon="5.5143">
        <ele>1717.3</ele>
        <time>2022-01-19T13:00:26Z</time>
      </trkpt>
      <trkpt lat="44.88228" lon="5.5143">
        <ele>1717.3</ele>
        <time>2022-01-19T13:00:27Z</time>
      </trkpt>
      <trkpt lat="44.88228" lon="5.5143">
        <ele>1717.3</ele>
        <time>2022-01-19T13:00:28Z</time>
      </trkpt>
      <trkpt lat="44.88228" lon="5.5143">
        <ele>1717.3</ele>
        <time>2022-01-19T13:00:29Z</time>
      </trkpt>
      <trkpt lat="44.88228" lon="5.5143">
        <ele>1717.3</ele>
        <time>2022-01-19T13:00:30Z</time>
      </trkpt>
      <trkpt lat="44.88228" lon="5.5143">
        <ele>1717.3</ele>
        <time>2022-01-19T13:00:31Z</time>
      </trkpt>
      <trkpt lat="44.88228" lon="5.5143">
        <ele>1717.3</ele>
        <time>2022-01-19T13:00:32Z</time>
      </trkpt>
      <trkpt lat="44.88228" lon="5.5143">
        <ele>1717.3</ele>
        <time>2022-01-19T13:00:33Z</time>
      </trkpt>
      <trkpt lat="44.88228" lon="5.5143">
        <ele>1717.3</ele>
        <time>2022-01-19T13:00:34Z</time>
      </trkpt>
      <trkpt lat="44.88228" lon="5.5143">
        <ele>1717.3</ele>
        <time>2022-01-19T13:00:35Z</time>
      </trkpt>
      <trkpt lat="44.88228" lon="5.5143">
        <ele>1717.3</ele>
        <time>2022-01-19T13:00:36Z</time>
      </trkpt>
      <trkpt lat="44.88228" lon="5.5143">
        <ele>1717.3</ele>
        <time>2022-01-19T13:00:37Z</time>
      </trkpt>
      <trkpt lat="44.88228" lon="5.5143">
        <ele>1717.3</ele>
        <time>2022-01-19T13:00:38Z</time>
      </trkpt>
      <trkpt lat="44.88228" lon="5.5143">
        <ele>1717.3</ele>
        <time>2022-01-19T13:00:39Z</time>
      </trkpt>
      <trkpt lat="44.88228" lon="5.5143">
        <ele>1717.3</ele>
        <time>2022-01-19T13:00:40Z</time>
      </trkpt>
      <trkpt lat="44.88228" lon="5.5143">
        <ele>1717.3</ele>
        <time>2022-01-19T13:00:41Z</time>
      </trkpt>
      <trkpt lat="44.88228" lon="5.5143">
        <ele>1717.3</ele>
        <time>2022-01-19T13:00:42Z</time>
      </trkpt>
      <trkpt lat="44.88228" lon="5.5143">
        <ele>1717.3</ele>
        <time>2022-01-19T13:00:43Z</time>
      </trkpt>
      <trkpt lat="44.88228" lon="5.5143">
        <ele>1717.3</ele>
        <time>2022-01-19T13:00:44Z</time>
      </trkpt>
      <trkpt lat="44.88228" lon="5.5143">
        <ele>1717.3</ele>
        <time>2022-01-19T13:00:45Z</time>
      </trkpt>
      <trkpt lat="44.88228" lon="5.5143">
        <ele>1717.3</ele>
        <time>2022-01-19T13:00:46Z</time>
      </trkpt>
      <trkpt lat="44.88228" lon="5.5143">
        <ele>1717.3</ele>
        <time>2022-01-19T13:00:47Z</time>
      </trkpt>
      <trkpt lat="44.88228" lon="5.5143">
        <ele>1717.3</ele>
        <time>2022-01-19T13:00:48Z</time>
      </trkpt>
      <trkpt lat="44.88228" lon="5.5143">
        <ele>1717.3</ele>
        <time>2022-01-19T13:00:49Z</time>
      </trkpt>
      <trkpt lat="44.88228" lon="5.5143">
        <ele>1717.3</ele>
        <time>2022-01-19T13:00:50Z</time>
      </trkpt>
      <trkpt lat="44.88228" lon="5.5143">
        <ele>1717.3</ele>
        <time>2022-01-19T13:00:51Z</time>
      </trkpt>
      <trkpt lat="44.88228" lon="5.5143">
        <ele>1717.3</ele>
        <time>2022-01-19T13:00:52Z</time>
      </trkpt>
      <trkpt lat="44.88228" lon="5.5143">
        <ele>1717.3</ele>
        <time>2022-01-19T13:00:53Z</time>
      </trkpt>
      <trkpt lat="44.88228" lon="5.5143">
        <ele>1717.3</ele>
        <time>2022-01-19T13:00:54Z</time>
      </trkpt>
      <trkpt lat="44.88228" lon="5.5143">
        <ele>1717.3</ele>
        <time>2022-01-19T13:00:55Z</time>
      </trkpt>
      <trkpt lat="44.88228" lon="5.5143">
        <ele>1717.3</ele>
        <time>2022-01-19T13:00:56Z</time>
      </trkpt>
      <trkpt lat="44.88228" lon="5.51431">
        <ele>1717.3</ele>
        <time>2022-01-19T13:00:57Z</time>
      </trkpt>
      <trkpt lat="44.88228" lon="5.51431">
        <ele>1717.3</ele>
        <time>2022-01-19T13:00:58Z</time>
      </trkpt>
      <trkpt lat="44.88228" lon="5.51431">
        <ele>1717.3</ele>
        <time>2022-01-19T13:00:59Z</time>
      </trkpt>
      <trkpt lat="44.88228" lon="5.51431">
        <ele>1717.3</ele>
        <time>2022-01-19T13:01:00Z</time>
      </trkpt>
      <trkpt lat="44.88228" lon="5.51431">
        <ele>1717.3</ele>
        <time>2022-01-19T13:01:01Z</time>
      </trkpt>
      <trkpt lat="44.88228" lon="5.51431">
        <ele>1717.3</ele>
        <time>2022-01-19T13:01:02Z</time>
      </trkpt>
      <trkpt lat="44.88228" lon="5.51431">
        <ele>1717.3</ele>
        <time>2022-01-19T13:01:03Z</time>
      </trkpt>
      <trkpt lat="44.88228" lon="5.51431">
        <ele>1717.3</ele>
        <time>2022-01-19T13:01:04Z</time>
      </trkpt>
      <trkpt lat="44.88228" lon="5.51431">
        <ele>1717.3</ele>
        <time>2022-01-19T13:01:05Z</time>
      </trkpt>
      <trkpt lat="44.88228" lon="5.51431">
        <ele>1717.3</ele>
        <time>2022-01-19T13:01:06Z</time>
      </trkpt>
      <trkpt lat="44.88228" lon="5.51431">
        <ele>1717.3</ele>
        <time>2022-01-19T13:01:07Z</time>
      </trkpt>
      <trkpt lat="44.88228" lon="5.51431">
        <ele>1717.3</ele>
        <time>2022-01-19T13:01:08Z</time>
      </trkpt>
      <trkpt lat="44.88228" lon="5.51431">
        <ele>1717.3</ele>
        <time>2022-01-19T13:01:09Z</time>
      </trkpt>
      <trkpt lat="44.88228" lon="5.51431">
        <ele>1717.3</ele>
        <time>2022-01-19T13:01:10Z</time>
      </trkpt>
      <trkpt lat="44.88228" lon="5.51431">
        <ele>1717.3</ele>
        <time>2022-01-19T13:01:11Z</time>
      </trkpt>
      <trkpt lat="44.88228" lon="5.51431">
        <ele>1717.3</ele>
        <time>2022-01-19T13:01:12Z</time>
      </trkpt>
      <trkpt lat="44.88228" lon="5.51431">
        <ele>1717.3</ele>
        <time>2022-01-19T13:01:13Z</time>
      </trkpt>
      <trkpt lat="44.88228" lon="5.51431">
        <ele>1717.3</ele>
        <time>2022-01-19T13:01:14Z</time>
      </trkpt>
      <trkpt lat="44.88228" lon="5.51431">
        <ele>1717.3</ele>
        <time>2022-01-19T13:01:15Z</time>
      </trkpt>
      <trkpt lat="44.88228" lon="5.51431">
        <ele>1717.3</ele>
        <time>2022-01-19T13:01:16Z</time>
      </trkpt>
      <trkpt lat="44.88228" lon="5.51431">
        <ele>1717.3</ele>
        <time>2022-01-19T13:01:17Z</time>
      </trkpt>
      <trkpt lat="44.88228" lon="5.51431">
        <ele>1717.3</ele>
        <time>2022-01-19T13:01:18Z</time>
      </trkpt>
      <trkpt lat="44.88228" lon="5.51431">
        <ele>1717.3</ele>
        <time>2022-01-19T13:01:19Z</time>
      </trkpt>
      <trkpt lat="44.88228" lon="5.51431">
        <ele>1717.3</ele>
        <time>2022-01-19T13:01:20Z</time>
      </trkpt>
      <trkpt lat="44.88228" lon="5.51431">
        <ele>1717.3</ele>
        <time>2022-01-19T13:01:21Z</time>
      </trkpt>
      <trkpt lat="44.88228" lon="5.51431">
        <ele>1717.3</ele>
        <time>2022-01-19T13:01:22Z</time>
      </trkpt>
      <trkpt lat="44.88228" lon="5.51431">
        <ele>1717.3</ele>
        <time>2022-01-19T13:01:23Z</time>
      </trkpt>
      <trkpt lat="44.88228" lon="5.51431">
        <ele>1717.3</ele>
        <time>2022-01-19T13:01:24Z</time>
      </trkpt>
      <trkpt lat="44.88228" lon="5.51431">
        <ele>1717.3</ele>
        <time>2022-01-19T13:01:25Z</time>
      </trkpt>
      <trkpt lat="44.88228" lon="5.51431">
        <ele>1717.3</ele>
        <time>2022-01-19T13:01:26Z</time>
      </trkpt>
      <trkpt lat="44.88228" lon="5.51431">
        <ele>1717.3</ele>
        <time>2022-01-19T13:01:27Z</time>
      </trkpt>
      <trkpt lat="44.88228" lon="5.51431">
        <ele>1717.3</ele>
        <time>2022-01-19T13:01:28Z</time>
      </trkpt>
      <trkpt lat="44.88228" lon="5.51431">
        <ele>1717.3</ele>
        <time>2022-01-19T13:01:29Z</time>
      </trkpt>
      <trkpt lat="44.88228" lon="5.51431">
        <ele>1717.3</ele>
        <time>2022-01-19T13:01:30Z</time>
      </trkpt>
      <trkpt lat="44.88228" lon="5.51431">
        <ele>1717.3</ele>
        <time>2022-01-19T13:01:31Z</time>
      </trkpt>
      <trkpt lat="44.88228" lon="5.51431">
        <ele>1717.3</ele>
        <time>2022-01-19T13:01:32Z</time>
      </trkpt>
      <trkpt lat="44.88228" lon="5.51431">
        <ele>1717.3</ele>
        <time>2022-01-19T13:01:33Z</time>
      </trkpt>
      <trkpt lat="44.88228" lon="5.51431">
        <ele>1717.3</ele>
        <time>2022-01-19T13:01:34Z</time>
      </trkpt>
      <trkpt lat="44.88228" lon="5.51431">
        <ele>1717.3</ele>
        <time>2022-01-19T13:01:35Z</time>
      </trkpt>
      <trkpt lat="44.88228" lon="5.51431">
        <ele>1717.3</ele>
        <time>2022-01-19T13:01:36Z</time>
      </trkpt>
      <trkpt lat="44.88228" lon="5.51431">
        <ele>1717.3</ele>
        <time>2022-01-19T13:01:37Z</time>
      </trkpt>
      <trkpt lat="44.88228" lon="5.51432">
        <ele>1717.3</ele>
        <time>2022-01-19T13:01:38Z</time>
      </trkpt>
      <trkpt lat="44.88229" lon="5.51432">
        <ele>1717.3</ele>
        <time>2022-01-19T13:01:39Z</time>
      </trkpt>
      <trkpt lat="44.88229" lon="5.51432">
        <ele>1717.3</ele>
        <time>2022-01-19T13:01:40Z</time>
      </trkpt>
      <trkpt lat="44.88229" lon="5.51432">
        <ele>1717.3</ele>
        <time>2022-01-19T13:01:41Z</time>
      </trkpt>
      <trkpt lat="44.88229" lon="5.51432">
        <ele>1717.3</ele>
        <time>2022-01-19T13:01:42Z</time>
      </trkpt>
      <trkpt lat="44.88229" lon="5.51432">
        <ele>1717.3</ele>
        <time>2022-01-19T13:01:43Z</time>
      </trkpt>
      <trkpt lat="44.88229" lon="5.51432">
        <ele>1717.3</ele>
        <time>2022-01-19T13:01:44Z</time>
      </trkpt>
      <trkpt lat="44.88229" lon="5.51432">
        <ele>1717.3</ele>
        <time>2022-01-19T13:01:45Z</time>
      </trkpt>
      <trkpt lat="44.88229" lon="5.51432">
        <ele>1717.3</ele>
        <time>2022-01-19T13:01:46Z</time>
      </trkpt>
      <trkpt lat="44.88229" lon="5.51432">
        <ele>1717.3</ele>
        <time>2022-01-19T13:01:47Z</time>
      </trkpt>
      <trkpt lat="44.88229" lon="5.51432">
        <ele>1717.3</ele>
        <time>2022-01-19T13:01:48Z</time>
      </trkpt>
      <trkpt lat="44.88229" lon="5.51432">
        <ele>1717.3</ele>
        <time>2022-01-19T13:01:49Z</time>
      </trkpt>
      <trkpt lat="44.88229" lon="5.51432">
        <ele>1717.3</ele>
        <time>2022-01-19T13:01:50Z</time>
      </trkpt>
      <trkpt lat="44.88229" lon="5.51432">
        <ele>1717.3</ele>
        <time>2022-01-19T13:01:51Z</time>
      </trkpt>
      <trkpt lat="44.88229" lon="5.51432">
        <ele>1717.3</ele>
        <time>2022-01-19T13:01:52Z</time>
      </trkpt>
      <trkpt lat="44.88229" lon="5.51432">
        <ele>1717.3</ele>
        <time>2022-01-19T13:01:53Z</time>
      </trkpt>
      <trkpt lat="44.88229" lon="5.51432">
        <ele>1717.3</ele>
        <time>2022-01-19T13:01:54Z</time>
      </trkpt>
      <trkpt lat="44.88229" lon="5.51432">
        <ele>1717.3</ele>
        <time>2022-01-19T13:01:55Z</time>
      </trkpt>
      <trkpt lat="44.88229" lon="5.51432">
        <ele>1717.3</ele>
        <time>2022-01-19T13:01:56Z</time>
      </trkpt>
      <trkpt lat="44.88229" lon="5.51432">
        <ele>1717.3</ele>
        <time>2022-01-19T13:01:57Z</time>
      </trkpt>
      <trkpt lat="44.88229" lon="5.51432">
        <ele>1717.3</ele>
        <time>2022-01-19T13:01:58Z</time>
      </trkpt>
      <trkpt lat="44.88229" lon="5.51432">
        <ele>1717.3</ele>
        <time>2022-01-19T13:01:59Z</time>
      </trkpt>
      <trkpt lat="44.88229" lon="5.51432">
        <ele>1717.3</ele>
        <time>2022-01-19T13:02:00Z</time>
      </trkpt>
      <trkpt lat="44.88229" lon="5.51432">
        <ele>1717.3</ele>
        <time>2022-01-19T13:02:01Z</time>
      </trkpt>
      <trkpt lat="44.88229" lon="5.51432">
        <ele>1717.3</ele>
        <time>2022-01-19T13:02:02Z</time>
      </trkpt>
      <trkpt lat="44.88229" lon="5.51432">
        <ele>1717.3</ele>
        <time>2022-01-19T13:02:03Z</time>
      </trkpt>
      <trkpt lat="44.88229" lon="5.51432">
        <ele>1717.3</ele>
        <time>2022-01-19T13:02:04Z</time>
      </trkpt>
      <trkpt lat="44.88229" lon="5.51432">
        <ele>1717.3</ele>
        <time>2022-01-19T13:02:05Z</time>
      </trkpt>
      <trkpt lat="44.88229" lon="5.51432">
        <ele>1717.9</ele>
        <time>2022-01-19T13:02:06Z</time>
      </trkpt>
      <trkpt lat="44.88229" lon="5.51432">
        <ele>1717.9</ele>
        <time>2022-01-19T13:02:07Z</time>
      </trkpt>
      <trkpt lat="44.88229" lon="5.51432">
        <ele>1717.9</ele>
        <time>2022-01-19T13:02:08Z</time>
      </trkpt>
      <trkpt lat="44.88229" lon="5.51432">
        <ele>1717.9</ele>
        <time>2022-01-19T13:02:09Z</time>
      </trkpt>
      <trkpt lat="44.88229" lon="5.51432">
        <ele>1717.9</ele>
        <time>2022-01-19T13:02:10Z</time>
      </trkpt>
      <trkpt lat="44.88229" lon="5.51432">
        <ele>1717.9</ele>
        <time>2022-01-19T13:02:11Z</time>
      </trkpt>
      <trkpt lat="44.88229" lon="5.51432">
        <ele>1717.9</ele>
        <time>2022-01-19T13:02:12Z</time>
      </trkpt>
      <trkpt lat="44.88229" lon="5.51432">
        <ele>1717.9</ele>
        <time>2022-01-19T13:02:13Z</time>
      </trkpt>
      <trkpt lat="44.88229" lon="5.51432">
        <ele>1717.9</ele>
        <time>2022-01-19T13:02:14Z</time>
      </trkpt>
      <trkpt lat="44.88229" lon="5.51432">
        <ele>1717.9</ele>
        <time>2022-01-19T13:02:15Z</time>
      </trkpt>
      <trkpt lat="44.88229" lon="5.51432">
        <ele>1717.9</ele>
        <time>2022-01-19T13:02:16Z</time>
      </trkpt>
      <trkpt lat="44.88229" lon="5.51432">
        <ele>1717.9</ele>
        <time>2022-01-19T13:02:17Z</time>
      </trkpt>
      <trkpt lat="44.88229" lon="5.51433">
        <ele>1717.9</ele>
        <time>2022-01-19T13:02:18Z</time>
      </trkpt>
      <trkpt lat="44.88229" lon="5.51433">
        <ele>1717.9</ele>
        <time>2022-01-19T13:02:19Z</time>
      </trkpt>
      <trkpt lat="44.88229" lon="5.51433">
        <ele>1717.9</ele>
        <time>2022-01-19T13:02:20Z</time>
      </trkpt>
      <trkpt lat="44.88229" lon="5.51433">
        <ele>1717.9</ele>
        <time>2022-01-19T13:02:21Z</time>
      </trkpt>
      <trkpt lat="44.88229" lon="5.51433">
        <ele>1717.9</ele>
        <time>2022-01-19T13:02:22Z</time>
      </trkpt>
      <trkpt lat="44.88229" lon="5.51433">
        <ele>1717.9</ele>
        <time>2022-01-19T13:02:23Z</time>
      </trkpt>
      <trkpt lat="44.88229" lon="5.51433">
        <ele>1717.9</ele>
        <time>2022-01-19T13:02:24Z</time>
      </trkpt>
      <trkpt lat="44.88229" lon="5.51433">
        <ele>1717.9</ele>
        <time>2022-01-19T13:02:25Z</time>
      </trkpt>
      <trkpt lat="44.88229" lon="5.51433">
        <ele>1717.9</ele>
        <time>2022-01-19T13:02:26Z</time>
      </trkpt>
      <trkpt lat="44.88229" lon="5.51433">
        <ele>1717.9</ele>
        <time>2022-01-19T13:02:27Z</time>
      </trkpt>
      <trkpt lat="44.88229" lon="5.51433">
        <ele>1717.9</ele>
        <time>2022-01-19T13:02:28Z</time>
      </trkpt>
      <trkpt lat="44.88229" lon="5.51433">
        <ele>1717.9</ele>
        <time>2022-01-19T13:02:29Z</time>
      </trkpt>
      <trkpt lat="44.88229" lon="5.51433">
        <ele>1717.9</ele>
        <time>2022-01-19T13:02:30Z</time>
      </trkpt>
      <trkpt lat="44.88229" lon="5.51433">
        <ele>1717.9</ele>
        <time>2022-01-19T13:02:31Z</time>
      </trkpt>
      <trkpt lat="44.88229" lon="5.51433">
        <ele>1717.9</ele>
        <time>2022-01-19T13:02:32Z</time>
      </trkpt>
      <trkpt lat="44.88229" lon="5.51433">
        <ele>1717.9</ele>
        <time>2022-01-19T13:02:33Z</time>
      </trkpt>
      <trkpt lat="44.88229" lon="5.51433">
        <ele>1717.9</ele>
        <time>2022-01-19T13:02:34Z</time>
      </trkpt>
      <trkpt lat="44.88229" lon="5.51433">
        <ele>1717.9</ele>
        <time>2022-01-19T13:02:35Z</time>
      </trkpt>
      <trkpt lat="44.88229" lon="5.51433">
        <ele>1717.9</ele>
        <time>2022-01-19T13:02:36Z</time>
      </trkpt>
      <trkpt lat="44.88229" lon="5.51433">
        <ele>1717.9</ele>
        <time>2022-01-19T13:02:37Z</time>
      </trkpt>
      <trkpt lat="44.88229" lon="5.51433">
        <ele>1717.9</ele>
        <time>2022-01-19T13:02:38Z</time>
      </trkpt>
      <trkpt lat="44.88229" lon="5.51433">
        <ele>1717.9</ele>
        <time>2022-01-19T13:02:39Z</time>
      </trkpt>
      <trkpt lat="44.88229" lon="5.51433">
        <ele>1717.9</ele>
        <time>2022-01-19T13:02:40Z</time>
      </trkpt>
      <trkpt lat="44.88229" lon="5.51433">
        <ele>1717.9</ele>
        <time>2022-01-19T13:02:41Z</time>
      </trkpt>
      <trkpt lat="44.88229" lon="5.51433">
        <ele>1717.9</ele>
        <time>2022-01-19T13:02:42Z</time>
      </trkpt>
      <trkpt lat="44.88229" lon="5.51433">
        <ele>1717.9</ele>
        <time>2022-01-19T13:02:43Z</time>
      </trkpt>
      <trkpt lat="44.88229" lon="5.51433">
        <ele>1717.9</ele>
        <time>2022-01-19T13:02:44Z</time>
      </trkpt>
      <trkpt lat="44.88229" lon="5.51433">
        <ele>1717.9</ele>
        <time>2022-01-19T13:02:45Z</time>
      </trkpt>
      <trkpt lat="44.88229" lon="5.51433">
        <ele>1717.9</ele>
        <time>2022-01-19T13:02:46Z</time>
      </trkpt>
      <trkpt lat="44.88229" lon="5.51433">
        <ele>1717.9</ele>
        <time>2022-01-19T13:02:47Z</time>
      </trkpt>
      <trkpt lat="44.88229" lon="5.51433">
        <ele>1717.9</ele>
        <time>2022-01-19T13:02:48Z</time>
      </trkpt>
      <trkpt lat="44.88229" lon="5.51433">
        <ele>1717.9</ele>
        <time>2022-01-19T13:02:49Z</time>
      </trkpt>
      <trkpt lat="44.88229" lon="5.51433">
        <ele>1717.9</ele>
        <time>2022-01-19T13:02:50Z</time>
      </trkpt>
      <trkpt lat="44.88229" lon="5.51433">
        <ele>1717.9</ele>
        <time>2022-01-19T13:02:51Z</time>
      </trkpt>
      <trkpt lat="44.88229" lon="5.51433">
        <ele>1717.9</ele>
        <time>2022-01-19T13:02:52Z</time>
      </trkpt>
      <trkpt lat="44.88229" lon="5.51433">
        <ele>1717.9</ele>
        <time>2022-01-19T13:02:53Z</time>
      </trkpt>
      <trkpt lat="44.88229" lon="5.51433">
        <ele>1717.9</ele>
        <time>2022-01-19T13:02:54Z</time>
      </trkpt>
      <trkpt lat="44.8823" lon="5.51433">
        <ele>1717.9</ele>
        <time>2022-01-19T13:02:55Z</time>
      </trkpt>
      <trkpt lat="44.8823" lon="5.51433">
        <ele>1717.9</ele>
        <time>2022-01-19T13:02:56Z</time>
      </trkpt>
      <trkpt lat="44.8823" lon="5.51433">
        <ele>1717.9</ele>
        <time>2022-01-19T13:02:57Z</time>
      </trkpt>
      <trkpt lat="44.8823" lon="5.51434">
        <ele>1717.9</ele>
        <time>2022-01-19T13:02:58Z</time>
      </trkpt>
      <trkpt lat="44.8823" lon="5.51434">
        <ele>1717.9</ele>
        <time>2022-01-19T13:02:59Z</time>
      </trkpt>
      <trkpt lat="44.8823" lon="5.51434">
        <ele>1717.9</ele>
        <time>2022-01-19T13:03:00Z</time>
      </trkpt>
      <trkpt lat="44.8823" lon="5.51434">
        <ele>1717.9</ele>
        <time>2022-01-19T13:03:01Z</time>
      </trkpt>
      <trkpt lat="44.8823" lon="5.51434">
        <ele>1717.9</ele>
        <time>2022-01-19T13:03:02Z</time>
      </trkpt>
      <trkpt lat="44.8823" lon="5.51434">
        <ele>1717.9</ele>
        <time>2022-01-19T13:03:03Z</time>
      </trkpt>
      <trkpt lat="44.8823" lon="5.51434">
        <ele>1717.9</ele>
        <time>2022-01-19T13:03:04Z</time>
      </trkpt>
      <trkpt lat="44.8823" lon="5.51434">
        <ele>1717.9</ele>
        <time>2022-01-19T13:03:05Z</time>
      </trkpt>
      <trkpt lat="44.8823" lon="5.51434">
        <ele>1717.9</ele>
        <time>2022-01-19T13:03:06Z</time>
      </trkpt>
      <trkpt lat="44.8823" lon="5.51434">
        <ele>1717.9</ele>
        <time>2022-01-19T13:03:07Z</time>
      </trkpt>
      <trkpt lat="44.8823" lon="5.51434">
        <ele>1717.9</ele>
        <time>2022-01-19T13:03:08Z</time>
      </trkpt>
      <trkpt lat="44.8823" lon="5.51434">
        <ele>1717.9</ele>
        <time>2022-01-19T13:03:09Z</time>
      </trkpt>
      <trkpt lat="44.8823" lon="5.51434">
        <ele>1717.9</ele>
        <time>2022-01-19T13:03:10Z</time>
      </trkpt>
      <trkpt lat="44.8823" lon="5.51434">
        <ele>1717.9</ele>
        <time>2022-01-19T13:03:11Z</time>
      </trkpt>
      <trkpt lat="44.8823" lon="5.51434">
        <ele>1717.9</ele>
        <time>2022-01-19T13:03:12Z</time>
      </trkpt>
      <trkpt lat="44.8823" lon="5.51434">
        <ele>1717.9</ele>
        <time>2022-01-19T13:03:13Z</time>
      </trkpt>
      <trkpt lat="44.8823" lon="5.51434">
        <ele>1717.9</ele>
        <time>2022-01-19T13:03:14Z</time>
      </trkpt>
      <trkpt lat="44.8823" lon="5.51434">
        <ele>1717.9</ele>
        <time>2022-01-19T13:03:15Z</time>
      </trkpt>
      <trkpt lat="44.8823" lon="5.51434">
        <ele>1717.9</ele>
        <time>2022-01-19T13:03:16Z</time>
      </trkpt>
      <trkpt lat="44.8823" lon="5.51434">
        <ele>1717.9</ele>
        <time>2022-01-19T13:03:17Z</time>
      </trkpt>
      <trkpt lat="44.8823" lon="5.51434">
        <ele>1717.9</ele>
        <time>2022-01-19T13:03:18Z</time>
      </trkpt>
      <trkpt lat="44.8823" lon="5.51434">
        <ele>1717.9</ele>
        <time>2022-01-19T13:03:19Z</time>
      </trkpt>
      <trkpt lat="44.8823" lon="5.51434">
        <ele>1717.9</ele>
        <time>2022-01-19T13:03:20Z</time>
      </trkpt>
      <trkpt lat="44.8823" lon="5.51434">
        <ele>1717.9</ele>
        <time>2022-01-19T13:03:21Z</time>
      </trkpt>
      <trkpt lat="44.8823" lon="5.51434">
        <ele>1717.9</ele>
        <time>2022-01-19T13:03:22Z</time>
      </trkpt>
      <trkpt lat="44.8823" lon="5.51434">
        <ele>1717.9</ele>
        <time>2022-01-19T13:03:23Z</time>
      </trkpt>
      <trkpt lat="44.8823" lon="5.51434">
        <ele>1717.9</ele>
        <time>2022-01-19T13:03:24Z</time>
      </trkpt>
      <trkpt lat="44.8823" lon="5.51434">
        <ele>1717.9</ele>
        <time>2022-01-19T13:03:25Z</time>
      </trkpt>
      <trkpt lat="44.8823" lon="5.51434">
        <ele>1717.9</ele>
        <time>2022-01-19T13:03:26Z</time>
      </trkpt>
      <trkpt lat="44.8823" lon="5.51434">
        <ele>1717.9</ele>
        <time>2022-01-19T13:03:27Z</time>
      </trkpt>
      <trkpt lat="44.8823" lon="5.51434">
        <ele>1717.9</ele>
        <time>2022-01-19T13:03:28Z</time>
      </trkpt>
      <trkpt lat="44.8823" lon="5.51434">
        <ele>1717.9</ele>
        <time>2022-01-19T13:03:29Z</time>
      </trkpt>
      <trkpt lat="44.8823" lon="5.51434">
        <ele>1717.9</ele>
        <time>2022-01-19T13:03:30Z</time>
      </trkpt>
      <trkpt lat="44.8823" lon="5.51434">
        <ele>1717.9</ele>
        <time>2022-01-19T13:03:31Z</time>
      </trkpt>
      <trkpt lat="44.8823" lon="5.51434">
        <ele>1717.9</ele>
        <time>2022-01-19T13:03:32Z</time>
      </trkpt>
      <trkpt lat="44.8823" lon="5.51434">
        <ele>1718</ele>
        <time>2022-01-19T13:03:33Z</time>
      </trkpt>
      <trkpt lat="44.8823" lon="5.51434">
        <ele>1718</ele>
        <time>2022-01-19T13:03:34Z</time>
      </trkpt>
      <trkpt lat="44.8823" lon="5.51434">
        <ele>1718</ele>
        <time>2022-01-19T13:03:35Z</time>
      </trkpt>
      <trkpt lat="44.8823" lon="5.51434">
        <ele>1718</ele>
        <time>2022-01-19T13:03:36Z</time>
      </trkpt>
      <trkpt lat="44.8823" lon="5.51434">
        <ele>1718</ele>
        <time>2022-01-19T13:03:37Z</time>
      </trkpt>
      <trkpt lat="44.8823" lon="5.51434">
        <ele>1718</ele>
        <time>2022-01-19T13:03:38Z</time>
      </trkpt>
      <trkpt lat="44.8823" lon="5.51435">
        <ele>1718</ele>
        <time>2022-01-19T13:03:39Z</time>
      </trkpt>
      <trkpt lat="44.8823" lon="5.51435">
        <ele>1718</ele>
        <time>2022-01-19T13:03:40Z</time>
      </trkpt>
      <trkpt lat="44.8823" lon="5.51435">
        <ele>1718</ele>
        <time>2022-01-19T13:03:41Z</time>
      </trkpt>
      <trkpt lat="44.8823" lon="5.51435">
        <ele>1718</ele>
        <time>2022-01-19T13:03:42Z</time>
      </trkpt>
      <trkpt lat="44.8823" lon="5.51435">
        <ele>1718</ele>
        <time>2022-01-19T13:03:43Z</time>
      </trkpt>
      <trkpt lat="44.8823" lon="5.51435">
        <ele>1718</ele>
        <time>2022-01-19T13:03:44Z</time>
      </trkpt>
      <trkpt lat="44.8823" lon="5.51435">
        <ele>1718</ele>
        <time>2022-01-19T13:03:45Z</time>
      </trkpt>
      <trkpt lat="44.8823" lon="5.51435">
        <ele>1718</ele>
        <time>2022-01-19T13:03:46Z</time>
      </trkpt>
      <trkpt lat="44.8823" lon="5.51435">
        <ele>1718</ele>
        <time>2022-01-19T13:03:47Z</time>
      </trkpt>
      <trkpt lat="44.8823" lon="5.51435">
        <ele>1718</ele>
        <time>2022-01-19T13:03:48Z</time>
      </trkpt>
      <trkpt lat="44.8823" lon="5.51435">
        <ele>1718</ele>
        <time>2022-01-19T13:03:49Z</time>
      </trkpt>
      <trkpt lat="44.8823" lon="5.51435">
        <ele>1718</ele>
        <time>2022-01-19T13:03:50Z</time>
      </trkpt>
      <trkpt lat="44.8823" lon="5.51435">
        <ele>1718</ele>
        <time>2022-01-19T13:03:51Z</time>
      </trkpt>
      <trkpt lat="44.8823" lon="5.51435">
        <ele>1718</ele>
        <time>2022-01-19T13:03:52Z</time>
      </trkpt>
      <trkpt lat="44.8823" lon="5.51435">
        <ele>1718</ele>
        <time>2022-01-19T13:03:53Z</time>
      </trkpt>
      <trkpt lat="44.8823" lon="5.51435">
        <ele>1718</ele>
        <time>2022-01-19T13:03:54Z</time>
      </trkpt>
      <trkpt lat="44.8823" lon="5.51435">
        <ele>1718</ele>
        <time>2022-01-19T13:03:55Z</time>
      </trkpt>
      <trkpt lat="44.8823" lon="5.51435">
        <ele>1718</ele>
        <time>2022-01-19T13:03:56Z</time>
      </trkpt>
      <trkpt lat="44.8823" lon="5.51435">
        <ele>1718</ele>
        <time>2022-01-19T13:03:57Z</time>
      </trkpt>
      <trkpt lat="44.8823" lon="5.51435">
        <ele>1718</ele>
        <time>2022-01-19T13:03:58Z</time>
      </trkpt>
      <trkpt lat="44.8823" lon="5.51435">
        <ele>1718</ele>
        <time>2022-01-19T13:03:59Z</time>
      </trkpt>
      <trkpt lat="44.8823" lon="5.51435">
        <ele>1718</ele>
        <time>2022-01-19T13:04:00Z</time>
      </trkpt>
      <trkpt lat="44.8823" lon="5.51435">
        <ele>1718</ele>
        <time>2022-01-19T13:04:01Z</time>
      </trkpt>
      <trkpt lat="44.8823" lon="5.51435">
        <ele>1718</ele>
        <time>2022-01-19T13:04:02Z</time>
      </trkpt>
      <trkpt lat="44.8823" lon="5.51435">
        <ele>1718</ele>
        <time>2022-01-19T13:04:03Z</time>
      </trkpt>
      <trkpt lat="44.8823" lon="5.51435">
        <ele>1718</ele>
        <time>2022-01-19T13:04:04Z</time>
      </trkpt>
      <trkpt lat="44.8823" lon="5.51435">
        <ele>1718</ele>
        <time>2022-01-19T13:04:05Z</time>
      </trkpt>
      <trkpt lat="44.8823" lon="5.51435">
        <ele>1718</ele>
        <time>2022-01-19T13:04:06Z</time>
      </trkpt>
      <trkpt lat="44.8823" lon="5.51435">
        <ele>1718</ele>
        <time>2022-01-19T13:04:07Z</time>
      </trkpt>
      <trkpt lat="44.8823" lon="5.51435">
        <ele>1718</ele>
        <time>2022-01-19T13:04:08Z</time>
      </trkpt>
      <trkpt lat="44.8823" lon="5.51435">
        <ele>1718</ele>
        <time>2022-01-19T13:04:09Z</time>
      </trkpt>
      <trkpt lat="44.8823" lon="5.51435">
        <ele>1718</ele>
        <time>2022-01-19T13:04:10Z</time>
      </trkpt>
      <trkpt lat="44.88231" lon="5.51435">
        <ele>1718</ele>
        <time>2022-01-19T13:04:11Z</time>
      </trkpt>
      <trkpt lat="44.88231" lon="5.51435">
        <ele>1718</ele>
        <time>2022-01-19T13:04:12Z</time>
      </trkpt>
      <trkpt lat="44.88231" lon="5.51435">
        <ele>1718</ele>
        <time>2022-01-19T13:04:13Z</time>
      </trkpt>
      <trkpt lat="44.88231" lon="5.51435">
        <ele>1718</ele>
        <time>2022-01-19T13:04:14Z</time>
      </trkpt>
      <trkpt lat="44.88231" lon="5.51435">
        <ele>1718</ele>
        <time>2022-01-19T13:04:15Z</time>
      </trkpt>
      <trkpt lat="44.88231" lon="5.51435">
        <ele>1718</ele>
        <time>2022-01-19T13:04:16Z</time>
      </trkpt>
      <trkpt lat="44.88231" lon="5.51435">
        <ele>1718</ele>
        <time>2022-01-19T13:04:17Z</time>
      </trkpt>
      <trkpt lat="44.88231" lon="5.51435">
        <ele>1718</ele>
        <time>2022-01-19T13:04:18Z</time>
      </trkpt>
      <trkpt lat="44.88231" lon="5.51436">
        <ele>1718</ele>
        <time>2022-01-19T13:04:19Z</time>
      </trkpt>
      <trkpt lat="44.88231" lon="5.51436">
        <ele>1718</ele>
        <time>2022-01-19T13:04:20Z</time>
      </trkpt>
      <trkpt lat="44.88231" lon="5.51436">
        <ele>1718</ele>
        <time>2022-01-19T13:04:21Z</time>
      </trkpt>
      <trkpt lat="44.88231" lon="5.51436">
        <ele>1718</ele>
        <time>2022-01-19T13:04:22Z</time>
      </trkpt>
      <trkpt lat="44.88231" lon="5.51436">
        <ele>1718</ele>
        <time>2022-01-19T13:04:23Z</time>
      </trkpt>
      <trkpt lat="44.88231" lon="5.51436">
        <ele>1718</ele>
        <time>2022-01-19T13:04:24Z</time>
      </trkpt>
      <trkpt lat="44.88231" lon="5.51436">
        <ele>1718</ele>
        <time>2022-01-19T13:04:25Z</time>
      </trkpt>
      <trkpt lat="44.88231" lon="5.51436">
        <ele>1718</ele>
        <time>2022-01-19T13:04:26Z</time>
      </trkpt>
      <trkpt lat="44.88231" lon="5.51436">
        <ele>1718</ele>
        <time>2022-01-19T13:04:27Z</time>
      </trkpt>
      <trkpt lat="44.88231" lon="5.51436">
        <ele>1718</ele>
        <time>2022-01-19T13:04:28Z</time>
      </trkpt>
      <trkpt lat="44.88231" lon="5.51436">
        <ele>1718</ele>
        <time>2022-01-19T13:04:29Z</time>
      </trkpt>
      <trkpt lat="44.88231" lon="5.51436">
        <ele>1718</ele>
        <time>2022-01-19T13:04:30Z</time>
      </trkpt>
      <trkpt lat="44.88231" lon="5.51436">
        <ele>1718</ele>
        <time>2022-01-19T13:04:31Z</time>
      </trkpt>
      <trkpt lat="44.88231" lon="5.51436">
        <ele>1718</ele>
        <time>2022-01-19T13:04:32Z</time>
      </trkpt>
      <trkpt lat="44.88231" lon="5.51436">
        <ele>1718</ele>
        <time>2022-01-19T13:04:33Z</time>
      </trkpt>
      <trkpt lat="44.88231" lon="5.51436">
        <ele>1718</ele>
        <time>2022-01-19T13:04:34Z</time>
      </trkpt>
      <trkpt lat="44.88231" lon="5.51436">
        <ele>1718</ele>
        <time>2022-01-19T13:04:35Z</time>
      </trkpt>
      <trkpt lat="44.88231" lon="5.51436">
        <ele>1718</ele>
        <time>2022-01-19T13:04:36Z</time>
      </trkpt>
      <trkpt lat="44.88231" lon="5.51436">
        <ele>1718</ele>
        <time>2022-01-19T13:04:37Z</time>
      </trkpt>
      <trkpt lat="44.88231" lon="5.51436">
        <ele>1718</ele>
        <time>2022-01-19T13:04:38Z</time>
      </trkpt>
      <trkpt lat="44.88231" lon="5.51436">
        <ele>1718</ele>
        <time>2022-01-19T13:04:39Z</time>
      </trkpt>
      <trkpt lat="44.88231" lon="5.51436">
        <ele>1718</ele>
        <time>2022-01-19T13:04:40Z</time>
      </trkpt>
      <trkpt lat="44.88231" lon="5.51436">
        <ele>1718</ele>
        <time>2022-01-19T13:04:41Z</time>
      </trkpt>
      <trkpt lat="44.88231" lon="5.51436">
        <ele>1718</ele>
        <time>2022-01-19T13:04:42Z</time>
      </trkpt>
      <trkpt lat="44.88231" lon="5.51436">
        <ele>1718</ele>
        <time>2022-01-19T13:04:43Z</time>
      </trkpt>
      <trkpt lat="44.88231" lon="5.51436">
        <ele>1718</ele>
        <time>2022-01-19T13:04:44Z</time>
      </trkpt>
      <trkpt lat="44.88231" lon="5.51436">
        <ele>1718</ele>
        <time>2022-01-19T13:04:45Z</time>
      </trkpt>
      <trkpt lat="44.88231" lon="5.51436">
        <ele>1718</ele>
        <time>2022-01-19T13:04:46Z</time>
      </trkpt>
      <trkpt lat="44.88231" lon="5.51436">
        <ele>1718</ele>
        <time>2022-01-19T13:04:47Z</time>
      </trkpt>
      <trkpt lat="44.88231" lon="5.51436">
        <ele>1718</ele>
        <time>2022-01-19T13:04:48Z</time>
      </trkpt>
      <trkpt lat="44.88231" lon="5.51436">
        <ele>1718</ele>
        <time>2022-01-19T13:04:49Z</time>
      </trkpt>
      <trkpt lat="44.88231" lon="5.51436">
        <ele>1718</ele>
        <time>2022-01-19T13:04:50Z</time>
      </trkpt>
      <trkpt lat="44.88231" lon="5.51436">
        <ele>1718</ele>
        <time>2022-01-19T13:04:51Z</time>
      </trkpt>
      <trkpt lat="44.88231" lon="5.51436">
        <ele>1718</ele>
        <time>2022-01-19T13:04:52Z</time>
      </trkpt>
      <trkpt lat="44.88231" lon="5.51436">
        <ele>1718</ele>
        <time>2022-01-19T13:04:53Z</time>
      </trkpt>
      <trkpt lat="44.88231" lon="5.51436">
        <ele>1718</ele>
        <time>2022-01-19T13:04:54Z</time>
      </trkpt>
      <trkpt lat="44.88231" lon="5.51436">
        <ele>1718</ele>
        <time>2022-01-19T13:04:55Z</time>
      </trkpt>
      <trkpt lat="44.88231" lon="5.51436">
        <ele>1718</ele>
        <time>2022-01-19T13:04:56Z</time>
      </trkpt>
      <trkpt lat="44.88231" lon="5.51436">
        <ele>1718</ele>
        <time>2022-01-19T13:04:57Z</time>
      </trkpt>
      <trkpt lat="44.88231" lon="5.51436">
        <ele>1718</ele>
        <time>2022-01-19T13:04:58Z</time>
      </trkpt>
      <trkpt lat="44.88231" lon="5.51437">
        <ele>1718.7</ele>
        <time>2022-01-19T13:04:59Z</time>
      </trkpt>
      <trkpt lat="44.88231" lon="5.51437">
        <ele>1718.7</ele>
        <time>2022-01-19T13:05:00Z</time>
      </trkpt>
      <trkpt lat="44.88231" lon="5.51437">
        <ele>1718.7</ele>
        <time>2022-01-19T13:05:01Z</time>
      </trkpt>
      <trkpt lat="44.88231" lon="5.51437">
        <ele>1718.7</ele>
        <time>2022-01-19T13:05:02Z</time>
      </trkpt>
      <trkpt lat="44.88231" lon="5.51437">
        <ele>1718.7</ele>
        <time>2022-01-19T13:05:03Z</time>
      </trkpt>
      <trkpt lat="44.88231" lon="5.51437">
        <ele>1718.7</ele>
        <time>2022-01-19T13:05:04Z</time>
      </trkpt>
      <trkpt lat="44.88231" lon="5.51437">
        <ele>1718.7</ele>
        <time>2022-01-19T13:05:05Z</time>
      </trkpt>
      <trkpt lat="44.88231" lon="5.51437">
        <ele>1718.7</ele>
        <time>2022-01-19T13:05:06Z</time>
      </trkpt>
      <trkpt lat="44.88231" lon="5.51437">
        <ele>1718.7</ele>
        <time>2022-01-19T13:05:07Z</time>
      </trkpt>
      <trkpt lat="44.88231" lon="5.51437">
        <ele>1718.7</ele>
        <time>2022-01-19T13:05:08Z</time>
      </trkpt>
      <trkpt lat="44.88231" lon="5.51437">
        <ele>1718.7</ele>
        <time>2022-01-19T13:05:09Z</time>
      </trkpt>
      <trkpt lat="44.88231" lon="5.51437">
        <ele>1718.7</ele>
        <time>2022-01-19T13:05:10Z</time>
      </trkpt>
      <trkpt lat="44.88231" lon="5.51437">
        <ele>1718.7</ele>
        <time>2022-01-19T13:05:11Z</time>
      </trkpt>
      <trkpt lat="44.88231" lon="5.51437">
        <ele>1718.7</ele>
        <time>2022-01-19T13:05:12Z</time>
      </trkpt>
      <trkpt lat="44.88231" lon="5.51437">
        <ele>1718.7</ele>
        <time>2022-01-19T13:05:13Z</time>
      </trkpt>
      <trkpt lat="44.88231" lon="5.51437">
        <ele>1718.7</ele>
        <time>2022-01-19T13:05:14Z</time>
      </trkpt>
      <trkpt lat="44.88231" lon="5.51437">
        <ele>1718.7</ele>
        <time>2022-01-19T13:05:15Z</time>
      </trkpt>
      <trkpt lat="44.88231" lon="5.51437">
        <ele>1718.7</ele>
        <time>2022-01-19T13:05:16Z</time>
      </trkpt>
      <trkpt lat="44.88231" lon="5.51437">
        <ele>1718.7</ele>
        <time>2022-01-19T13:05:17Z</time>
      </trkpt>
      <trkpt lat="44.88231" lon="5.51437">
        <ele>1718.7</ele>
        <time>2022-01-19T13:05:18Z</time>
      </trkpt>
      <trkpt lat="44.88231" lon="5.51437">
        <ele>1718.7</ele>
        <time>2022-01-19T13:05:19Z</time>
      </trkpt>
      <trkpt lat="44.88231" lon="5.51437">
        <ele>1718.7</ele>
        <time>2022-01-19T13:05:20Z</time>
      </trkpt>
      <trkpt lat="44.88231" lon="5.51437">
        <ele>1718.7</ele>
        <time>2022-01-19T13:05:21Z</time>
      </trkpt>
      <trkpt lat="44.88231" lon="5.51437">
        <ele>1718.7</ele>
        <time>2022-01-19T13:05:22Z</time>
      </trkpt>
      <trkpt lat="44.88231" lon="5.51437">
        <ele>1718.7</ele>
        <time>2022-01-19T13:05:23Z</time>
      </trkpt>
      <trkpt lat="44.88231" lon="5.51437">
        <ele>1718.7</ele>
        <time>2022-01-19T13:05:24Z</time>
      </trkpt>
      <trkpt lat="44.88231" lon="5.51437">
        <ele>1718.7</ele>
        <time>2022-01-19T13:05:25Z</time>
      </trkpt>
      <trkpt lat="44.88231" lon="5.51437">
        <ele>1718.7</ele>
        <time>2022-01-19T13:05:26Z</time>
      </trkpt>
      <trkpt lat="44.88231" lon="5.51437">
        <ele>1718.7</ele>
        <time>2022-01-19T13:05:27Z</time>
      </trkpt>
      <trkpt lat="44.88232" lon="5.51437">
        <ele>1718.7</ele>
        <time>2022-01-19T13:05:28Z</time>
      </trkpt>
      <trkpt lat="44.88232" lon="5.51437">
        <ele>1718.7</ele>
        <time>2022-01-19T13:05:29Z</time>
      </trkpt>
      <trkpt lat="44.88232" lon="5.51437">
        <ele>1718.7</ele>
        <time>2022-01-19T13:05:30Z</time>
      </trkpt>
      <trkpt lat="44.88232" lon="5.51437">
        <ele>1718.7</ele>
        <time>2022-01-19T13:05:31Z</time>
      </trkpt>
      <trkpt lat="44.88232" lon="5.51437">
        <ele>1718.7</ele>
        <time>2022-01-19T13:05:32Z</time>
      </trkpt>
      <trkpt lat="44.88232" lon="5.51437">
        <ele>1718.7</ele>
        <time>2022-01-19T13:05:33Z</time>
      </trkpt>
      <trkpt lat="44.88232" lon="5.51437">
        <ele>1718.7</ele>
        <time>2022-01-19T13:05:34Z</time>
      </trkpt>
      <trkpt lat="44.88232" lon="5.51437">
        <ele>1718.7</ele>
        <time>2022-01-19T13:05:35Z</time>
      </trkpt>
      <trkpt lat="44.88232" lon="5.51437">
        <ele>1718.7</ele>
        <time>2022-01-19T13:05:36Z</time>
      </trkpt>
      <trkpt lat="44.88232" lon="5.51437">
        <ele>1718.7</ele>
        <time>2022-01-19T13:05:37Z</time>
      </trkpt>
      <trkpt lat="44.88232" lon="5.51437">
        <ele>1718.7</ele>
        <time>2022-01-19T13:05:38Z</time>
      </trkpt>
      <trkpt lat="44.88232" lon="5.51437">
        <ele>1718.7</ele>
        <time>2022-01-19T13:05:39Z</time>
      </trkpt>
      <trkpt lat="44.88232" lon="5.51438">
        <ele>1718.7</ele>
        <time>2022-01-19T13:05:40Z</time>
      </trkpt>
      <trkpt lat="44.88232" lon="5.51438">
        <ele>1718.7</ele>
        <time>2022-01-19T13:05:41Z</time>
      </trkpt>
      <trkpt lat="44.88232" lon="5.51438">
        <ele>1718.7</ele>
        <time>2022-01-19T13:05:42Z</time>
      </trkpt>
      <trkpt lat="44.88232" lon="5.51438">
        <ele>1718.7</ele>
        <time>2022-01-19T13:05:43Z</time>
      </trkpt>
      <trkpt lat="44.88232" lon="5.51438">
        <ele>1718.7</ele>
        <time>2022-01-19T13:05:44Z</time>
      </trkpt>
      <trkpt lat="44.88232" lon="5.51438">
        <ele>1718.7</ele>
        <time>2022-01-19T13:05:45Z</time>
      </trkpt>
      <trkpt lat="44.88232" lon="5.51438">
        <ele>1718.7</ele>
        <time>2022-01-19T13:05:46Z</time>
      </trkpt>
      <trkpt lat="44.88232" lon="5.51438">
        <ele>1718.7</ele>
        <time>2022-01-19T13:05:47Z</time>
      </trkpt>
      <trkpt lat="44.88232" lon="5.51438">
        <ele>1718.7</ele>
        <time>2022-01-19T13:05:48Z</time>
      </trkpt>
      <trkpt lat="44.88232" lon="5.51438">
        <ele>1718.7</ele>
        <time>2022-01-19T13:05:49Z</time>
      </trkpt>
      <trkpt lat="44.88232" lon="5.51438">
        <ele>1718.7</ele>
        <time>2022-01-19T13:05:50Z</time>
      </trkpt>
      <trkpt lat="44.88232" lon="5.51438">
        <ele>1718.7</ele>
        <time>2022-01-19T13:05:51Z</time>
      </trkpt>
      <trkpt lat="44.88232" lon="5.51438">
        <ele>1718.7</ele>
        <time>2022-01-19T13:05:52Z</time>
      </trkpt>
      <trkpt lat="44.88232" lon="5.51438">
        <ele>1718.7</ele>
        <time>2022-01-19T13:05:53Z</time>
      </trkpt>
      <trkpt lat="44.88232" lon="5.51438">
        <ele>1718.7</ele>
        <time>2022-01-19T13:05:54Z</time>
      </trkpt>
      <trkpt lat="44.88232" lon="5.51438">
        <ele>1718.7</ele>
        <time>2022-01-19T13:05:55Z</time>
      </trkpt>
      <trkpt lat="44.88232" lon="5.51438">
        <ele>1718.7</ele>
        <time>2022-01-19T13:05:56Z</time>
      </trkpt>
      <trkpt lat="44.88232" lon="5.51438">
        <ele>1718.7</ele>
        <time>2022-01-19T13:05:57Z</time>
      </trkpt>
      <trkpt lat="44.88232" lon="5.51438">
        <ele>1718.7</ele>
        <time>2022-01-19T13:05:58Z</time>
      </trkpt>
      <trkpt lat="44.88232" lon="5.51438">
        <ele>1718.7</ele>
        <time>2022-01-19T13:05:59Z</time>
      </trkpt>
      <trkpt lat="44.88232" lon="5.51438">
        <ele>1718.7</ele>
        <time>2022-01-19T13:06:00Z</time>
      </trkpt>
      <trkpt lat="44.88232" lon="5.51438">
        <ele>1718.7</ele>
        <time>2022-01-19T13:06:01Z</time>
      </trkpt>
      <trkpt lat="44.88232" lon="5.51438">
        <ele>1718.7</ele>
        <time>2022-01-19T13:06:02Z</time>
      </trkpt>
      <trkpt lat="44.88232" lon="5.51438">
        <ele>1718.7</ele>
        <time>2022-01-19T13:06:03Z</time>
      </trkpt>
      <trkpt lat="44.88232" lon="5.51438">
        <ele>1718.7</ele>
        <time>2022-01-19T13:06:04Z</time>
      </trkpt>
      <trkpt lat="44.88232" lon="5.51438">
        <ele>1718.7</ele>
        <time>2022-01-19T13:06:05Z</time>
      </trkpt>
      <trkpt lat="44.88232" lon="5.51438">
        <ele>1718.7</ele>
        <time>2022-01-19T13:06:06Z</time>
      </trkpt>
      <trkpt lat="44.88232" lon="5.51438">
        <ele>1718.7</ele>
        <time>2022-01-19T13:06:07Z</time>
      </trkpt>
      <trkpt lat="44.88232" lon="5.51438">
        <ele>1718.7</ele>
        <time>2022-01-19T13:06:08Z</time>
      </trkpt>
      <trkpt lat="44.88232" lon="5.51438">
        <ele>1718.7</ele>
        <time>2022-01-19T13:06:09Z</time>
      </trkpt>
      <trkpt lat="44.88232" lon="5.51438">
        <ele>1718.7</ele>
        <time>2022-01-19T13:06:10Z</time>
      </trkpt>
      <trkpt lat="44.88232" lon="5.51438">
        <ele>1718.7</ele>
        <time>2022-01-19T13:06:11Z</time>
      </trkpt>
      <trkpt lat="44.88232" lon="5.51438">
        <ele>1718.7</ele>
        <time>2022-01-19T13:06:12Z</time>
      </trkpt>
      <trkpt lat="44.88232" lon="5.51438">
        <ele>1718.7</ele>
        <time>2022-01-19T13:06:13Z</time>
      </trkpt>
      <trkpt lat="44.88232" lon="5.51438">
        <ele>1718.7</ele>
        <time>2022-01-19T13:06:14Z</time>
      </trkpt>
      <trkpt lat="44.88232" lon="5.51438">
        <ele>1718.7</ele>
        <time>2022-01-19T13:06:15Z</time>
      </trkpt>
      <trkpt lat="44.88232" lon="5.51438">
        <ele>1718.7</ele>
        <time>2022-01-19T13:06:16Z</time>
      </trkpt>
      <trkpt lat="44.88232" lon="5.51438">
        <ele>1718.7</ele>
        <time>2022-01-19T13:06:17Z</time>
      </trkpt>
      <trkpt lat="44.88232" lon="5.51438">
        <ele>1718.7</ele>
        <time>2022-01-19T13:06:18Z</time>
      </trkpt>
      <trkpt lat="44.88232" lon="5.51438">
        <ele>1718.7</ele>
        <time>2022-01-19T13:06:19Z</time>
      </trkpt>
      <trkpt lat="44.88232" lon="5.51439">
        <ele>1718.7</ele>
        <time>2022-01-19T13:06:20Z</time>
      </trkpt>
      <trkpt lat="44.88232" lon="5.51439">
        <ele>1718.7</ele>
        <time>2022-01-19T13:06:21Z</time>
      </trkpt>
      <trkpt lat="44.88232" lon="5.51439">
        <ele>1718.7</ele>
        <time>2022-01-19T13:06:22Z</time>
      </trkpt>
      <trkpt lat="44.88232" lon="5.51439">
        <ele>1718.7</ele>
        <time>2022-01-19T13:06:23Z</time>
      </trkpt>
      <trkpt lat="44.88232" lon="5.51439">
        <ele>1718.7</ele>
        <time>2022-01-19T13:06:24Z</time>
      </trkpt>
      <trkpt lat="44.88232" lon="5.51439">
        <ele>1718.7</ele>
        <time>2022-01-19T13:06:25Z</time>
      </trkpt>
      <trkpt lat="44.88232" lon="5.51439">
        <ele>1718.7</ele>
        <time>2022-01-19T13:06:26Z</time>
      </trkpt>
      <trkpt lat="44.88232" lon="5.51439">
        <ele>1718.7</ele>
        <time>2022-01-19T13:06:27Z</time>
      </trkpt>
      <trkpt lat="44.88232" lon="5.51439">
        <ele>1718.7</ele>
        <time>2022-01-19T13:06:28Z</time>
      </trkpt>
      <trkpt lat="44.88232" lon="5.51439">
        <ele>1718.7</ele>
        <time>2022-01-19T13:06:29Z</time>
      </trkpt>
      <trkpt lat="44.88232" lon="5.51439">
        <ele>1718.7</ele>
        <time>2022-01-19T13:06:30Z</time>
      </trkpt>
      <trkpt lat="44.88232" lon="5.51439">
        <ele>1718.7</ele>
        <time>2022-01-19T13:06:31Z</time>
      </trkpt>
      <trkpt lat="44.88232" lon="5.51439">
        <ele>1718.7</ele>
        <time>2022-01-19T13:06:32Z</time>
      </trkpt>
      <trkpt lat="44.88232" lon="5.51439">
        <ele>1718.7</ele>
        <time>2022-01-19T13:06:33Z</time>
      </trkpt>
      <trkpt lat="44.88232" lon="5.51439">
        <ele>1718.7</ele>
        <time>2022-01-19T13:06:34Z</time>
      </trkpt>
      <trkpt lat="44.88232" lon="5.51439">
        <ele>1718.7</ele>
        <time>2022-01-19T13:06:35Z</time>
      </trkpt>
      <trkpt lat="44.88232" lon="5.51439">
        <ele>1718.7</ele>
        <time>2022-01-19T13:06:36Z</time>
      </trkpt>
      <trkpt lat="44.88232" lon="5.51439">
        <ele>1718.7</ele>
        <time>2022-01-19T13:06:37Z</time>
      </trkpt>
      <trkpt lat="44.88232" lon="5.51439">
        <ele>1718.7</ele>
        <time>2022-01-19T13:06:38Z</time>
      </trkpt>
      <trkpt lat="44.88232" lon="5.51439">
        <ele>1718.7</ele>
        <time>2022-01-19T13:06:39Z</time>
      </trkpt>
      <trkpt lat="44.88232" lon="5.51439">
        <ele>1718.7</ele>
        <time>2022-01-19T13:06:40Z</time>
      </trkpt>
      <trkpt lat="44.88232" lon="5.51439">
        <ele>1718.7</ele>
        <time>2022-01-19T13:06:41Z</time>
      </trkpt>
      <trkpt lat="44.88232" lon="5.51439">
        <ele>1718.7</ele>
        <time>2022-01-19T13:06:42Z</time>
      </trkpt>
      <trkpt lat="44.88232" lon="5.51439">
        <ele>1718.7</ele>
        <time>2022-01-19T13:06:43Z</time>
      </trkpt>
      <trkpt lat="44.88233" lon="5.51439">
        <ele>1718.7</ele>
        <time>2022-01-19T13:06:44Z</time>
      </trkpt>
      <trkpt lat="44.88233" lon="5.51439">
        <ele>1718.7</ele>
        <time>2022-01-19T13:06:45Z</time>
      </trkpt>
      <trkpt lat="44.88233" lon="5.51439">
        <ele>1718.7</ele>
        <time>2022-01-19T13:06:46Z</time>
      </trkpt>
      <trkpt lat="44.88233" lon="5.51439">
        <ele>1718.7</ele>
        <time>2022-01-19T13:06:47Z</time>
      </trkpt>
      <trkpt lat="44.88233" lon="5.51439">
        <ele>1718.7</ele>
        <time>2022-01-19T13:06:48Z</time>
      </trkpt>
      <trkpt lat="44.88233" lon="5.51439">
        <ele>1718.7</ele>
        <time>2022-01-19T13:06:49Z</time>
      </trkpt>
      <trkpt lat="44.88233" lon="5.51439">
        <ele>1718.7</ele>
        <time>2022-01-19T13:06:50Z</time>
      </trkpt>
      <trkpt lat="44.88233" lon="5.51439">
        <ele>1718.7</ele>
        <time>2022-01-19T13:06:51Z</time>
      </trkpt>
      <trkpt lat="44.88233" lon="5.51439">
        <ele>1718.7</ele>
        <time>2022-01-19T13:06:52Z</time>
      </trkpt>
      <trkpt lat="44.88233" lon="5.51439">
        <ele>1718.7</ele>
        <time>2022-01-19T13:06:53Z</time>
      </trkpt>
      <trkpt lat="44.88233" lon="5.51439">
        <ele>1718.7</ele>
        <time>2022-01-19T13:06:54Z</time>
      </trkpt>
      <trkpt lat="44.88233" lon="5.51439">
        <ele>1718.7</ele>
        <time>2022-01-19T13:06:55Z</time>
      </trkpt>
      <trkpt lat="44.88233" lon="5.51439">
        <ele>1718.7</ele>
        <time>2022-01-19T13:06:56Z</time>
      </trkpt>
      <trkpt lat="44.88233" lon="5.51439">
        <ele>1718.7</ele>
        <time>2022-01-19T13:06:57Z</time>
      </trkpt>
      <trkpt lat="44.88233" lon="5.51439">
        <ele>1718.7</ele>
        <time>2022-01-19T13:06:58Z</time>
      </trkpt>
      <trkpt lat="44.88233" lon="5.51439">
        <ele>1718.7</ele>
        <time>2022-01-19T13:06:59Z</time>
      </trkpt>
      <trkpt lat="44.88233" lon="5.51439">
        <ele>1718.7</ele>
        <time>2022-01-19T13:07:00Z</time>
      </trkpt>
      <trkpt lat="44.88233" lon="5.5144">
        <ele>1718.7</ele>
        <time>2022-01-19T13:07:01Z</time>
      </trkpt>
      <trkpt lat="44.88233" lon="5.5144">
        <ele>1718.7</ele>
        <time>2022-01-19T13:07:02Z</time>
      </trkpt>
      <trkpt lat="44.88233" lon="5.5144">
        <ele>1718.7</ele>
        <time>2022-01-19T13:07:03Z</time>
      </trkpt>
      <trkpt lat="44.88233" lon="5.5144">
        <ele>1718.7</ele>
        <time>2022-01-19T13:07:04Z</time>
      </trkpt>
      <trkpt lat="44.88233" lon="5.5144">
        <ele>1718.7</ele>
        <time>2022-01-19T13:07:05Z</time>
      </trkpt>
      <trkpt lat="44.88233" lon="5.5144">
        <ele>1718.7</ele>
        <time>2022-01-19T13:07:06Z</time>
      </trkpt>
      <trkpt lat="44.88233" lon="5.5144">
        <ele>1718.7</ele>
        <time>2022-01-19T13:07:07Z</time>
      </trkpt>
      <trkpt lat="44.88233" lon="5.5144">
        <ele>1718.7</ele>
        <time>2022-01-19T13:07:08Z</time>
      </trkpt>
      <trkpt lat="44.88233" lon="5.5144">
        <ele>1718.7</ele>
        <time>2022-01-19T13:07:09Z</time>
      </trkpt>
      <trkpt lat="44.88233" lon="5.5144">
        <ele>1718.7</ele>
        <time>2022-01-19T13:07:10Z</time>
      </trkpt>
      <trkpt lat="44.88233" lon="5.5144">
        <ele>1718.7</ele>
        <time>2022-01-19T13:07:11Z</time>
      </trkpt>
      <trkpt lat="44.88233" lon="5.5144">
        <ele>1718.7</ele>
        <time>2022-01-19T13:07:12Z</time>
      </trkpt>
      <trkpt lat="44.88233" lon="5.5144">
        <ele>1718.7</ele>
        <time>2022-01-19T13:07:13Z</time>
      </trkpt>
      <trkpt lat="44.88233" lon="5.5144">
        <ele>1718.7</ele>
        <time>2022-01-19T13:07:14Z</time>
      </trkpt>
      <trkpt lat="44.88233" lon="5.5144">
        <ele>1718.7</ele>
        <time>2022-01-19T13:07:15Z</time>
      </trkpt>
      <trkpt lat="44.88233" lon="5.5144">
        <ele>1718.7</ele>
        <time>2022-01-19T13:07:16Z</time>
      </trkpt>
      <trkpt lat="44.88233" lon="5.5144">
        <ele>1718.7</ele>
        <time>2022-01-19T13:07:17Z</time>
      </trkpt>
      <trkpt lat="44.88233" lon="5.5144">
        <ele>1718.7</ele>
        <time>2022-01-19T13:07:18Z</time>
      </trkpt>
      <trkpt lat="44.88233" lon="5.5144">
        <ele>1718.7</ele>
        <time>2022-01-19T13:07:19Z</time>
      </trkpt>
      <trkpt lat="44.88233" lon="5.5144">
        <ele>1718.7</ele>
        <time>2022-01-19T13:07:20Z</time>
      </trkpt>
      <trkpt lat="44.88233" lon="5.5144">
        <ele>1718.7</ele>
        <time>2022-01-19T13:07:21Z</time>
      </trkpt>
      <trkpt lat="44.88233" lon="5.5144">
        <ele>1718.8</ele>
        <time>2022-01-19T13:07:22Z</time>
      </trkpt>
      <trkpt lat="44.88233" lon="5.5144">
        <ele>1718.8</ele>
        <time>2022-01-19T13:07:23Z</time>
      </trkpt>
      <trkpt lat="44.88233" lon="5.5144">
        <ele>1718.8</ele>
        <time>2022-01-19T13:07:24Z</time>
      </trkpt>
      <trkpt lat="44.88233" lon="5.5144">
        <ele>1718.8</ele>
        <time>2022-01-19T13:07:25Z</time>
      </trkpt>
      <trkpt lat="44.88233" lon="5.5144">
        <ele>1718.8</ele>
        <time>2022-01-19T13:07:26Z</time>
      </trkpt>
      <trkpt lat="44.88233" lon="5.5144">
        <ele>1718.8</ele>
        <time>2022-01-19T13:07:27Z</time>
      </trkpt>
      <trkpt lat="44.88233" lon="5.5144">
        <ele>1718.8</ele>
        <time>2022-01-19T13:07:28Z</time>
      </trkpt>
      <trkpt lat="44.88233" lon="5.5144">
        <ele>1718.8</ele>
        <time>2022-01-19T13:07:29Z</time>
      </trkpt>
      <trkpt lat="44.88233" lon="5.5144">
        <ele>1718.8</ele>
        <time>2022-01-19T13:07:30Z</time>
      </trkpt>
      <trkpt lat="44.88233" lon="5.5144">
        <ele>1718.8</ele>
        <time>2022-01-19T13:07:31Z</time>
      </trkpt>
      <trkpt lat="44.88233" lon="5.5144">
        <ele>1718.8</ele>
        <time>2022-01-19T13:07:32Z</time>
      </trkpt>
      <trkpt lat="44.88233" lon="5.5144">
        <ele>1718.8</ele>
        <time>2022-01-19T13:07:33Z</time>
      </trkpt>
      <trkpt lat="44.88233" lon="5.5144">
        <ele>1718.8</ele>
        <time>2022-01-19T13:07:34Z</time>
      </trkpt>
      <trkpt lat="44.88233" lon="5.5144">
        <ele>1718.8</ele>
        <time>2022-01-19T13:07:35Z</time>
      </trkpt>
      <trkpt lat="44.88233" lon="5.5144">
        <ele>1718.8</ele>
        <time>2022-01-19T13:07:36Z</time>
      </trkpt>
      <trkpt lat="44.88233" lon="5.5144">
        <ele>1718.8</ele>
        <time>2022-01-19T13:07:37Z</time>
      </trkpt>
      <trkpt lat="44.88233" lon="5.5144">
        <ele>1718.8</ele>
        <time>2022-01-19T13:07:38Z</time>
      </trkpt>
      <trkpt lat="44.88233" lon="5.5144">
        <ele>1718.8</ele>
        <time>2022-01-19T13:07:39Z</time>
      </trkpt>
      <trkpt lat="44.88233" lon="5.5144">
        <ele>1718.8</ele>
        <time>2022-01-19T13:07:40Z</time>
      </trkpt>
      <trkpt lat="44.88233" lon="5.51441">
        <ele>1718.8</ele>
        <time>2022-01-19T13:07:41Z</time>
      </trkpt>
      <trkpt lat="44.88233" lon="5.51441">
        <ele>1718.8</ele>
        <time>2022-01-19T13:07:42Z</time>
      </trkpt>
      <trkpt lat="44.88233" lon="5.51441">
        <ele>1718.8</ele>
        <time>2022-01-19T13:07:43Z</time>
      </trkpt>
      <trkpt lat="44.88233" lon="5.51441">
        <ele>1718.8</ele>
        <time>2022-01-19T13:07:44Z</time>
      </trkpt>
      <trkpt lat="44.88233" lon="5.51441">
        <ele>1718.8</ele>
        <time>2022-01-19T13:07:45Z</time>
      </trkpt>
      <trkpt lat="44.88233" lon="5.51441">
        <ele>1718.8</ele>
        <time>2022-01-19T13:07:46Z</time>
      </trkpt>
      <trkpt lat="44.88233" lon="5.51441">
        <ele>1718.8</ele>
        <time>2022-01-19T13:07:47Z</time>
      </trkpt>
      <trkpt lat="44.88233" lon="5.51441">
        <ele>1718.8</ele>
        <time>2022-01-19T13:07:48Z</time>
      </trkpt>
      <trkpt lat="44.88233" lon="5.51441">
        <ele>1718.8</ele>
        <time>2022-01-19T13:07:49Z</time>
      </trkpt>
      <trkpt lat="44.88233" lon="5.51441">
        <ele>1718.8</ele>
        <time>2022-01-19T13:07:50Z</time>
      </trkpt>
      <trkpt lat="44.88233" lon="5.51441">
        <ele>1718.8</ele>
        <time>2022-01-19T13:07:51Z</time>
      </trkpt>
      <trkpt lat="44.88233" lon="5.51441">
        <ele>1718.8</ele>
        <time>2022-01-19T13:07:52Z</time>
      </trkpt>
      <trkpt lat="44.88233" lon="5.51441">
        <ele>1719.5</ele>
        <time>2022-01-19T13:07:53Z</time>
      </trkpt>
      <trkpt lat="44.88233" lon="5.51441">
        <ele>1719.5</ele>
        <time>2022-01-19T13:07:54Z</time>
      </trkpt>
      <trkpt lat="44.88233" lon="5.51441">
        <ele>1719.5</ele>
        <time>2022-01-19T13:07:55Z</time>
      </trkpt>
      <trkpt lat="44.88233" lon="5.51441">
        <ele>1719.5</ele>
        <time>2022-01-19T13:07:56Z</time>
      </trkpt>
      <trkpt lat="44.88233" lon="5.51441">
        <ele>1719.5</ele>
        <time>2022-01-19T13:07:57Z</time>
      </trkpt>
      <trkpt lat="44.88233" lon="5.51441">
        <ele>1719.5</ele>
        <time>2022-01-19T13:07:58Z</time>
      </trkpt>
      <trkpt lat="44.88233" lon="5.51441">
        <ele>1719.5</ele>
        <time>2022-01-19T13:07:59Z</time>
      </trkpt>
      <trkpt lat="44.88234" lon="5.51441">
        <ele>1719.5</ele>
        <time>2022-01-19T13:08:00Z</time>
      </trkpt>
      <trkpt lat="44.88234" lon="5.51441">
        <ele>1719.5</ele>
        <time>2022-01-19T13:08:01Z</time>
      </trkpt>
      <trkpt lat="44.88234" lon="5.51441">
        <ele>1719.5</ele>
        <time>2022-01-19T13:08:02Z</time>
      </trkpt>
      <trkpt lat="44.88234" lon="5.51441">
        <ele>1719.5</ele>
        <time>2022-01-19T13:08:03Z</time>
      </trkpt>
      <trkpt lat="44.88234" lon="5.51441">
        <ele>1719.5</ele>
        <time>2022-01-19T13:08:04Z</time>
      </trkpt>
      <trkpt lat="44.88234" lon="5.51441">
        <ele>1719.5</ele>
        <time>2022-01-19T13:08:05Z</time>
      </trkpt>
      <trkpt lat="44.88234" lon="5.51441">
        <ele>1719.5</ele>
        <time>2022-01-19T13:08:06Z</time>
      </trkpt>
      <trkpt lat="44.88234" lon="5.51441">
        <ele>1719.5</ele>
        <time>2022-01-19T13:08:07Z</time>
      </trkpt>
      <trkpt lat="44.88234" lon="5.51441">
        <ele>1719.5</ele>
        <time>2022-01-19T13:08:08Z</time>
      </trkpt>
      <trkpt lat="44.88234" lon="5.51441">
        <ele>1719.5</ele>
        <time>2022-01-19T13:08:09Z</time>
      </trkpt>
      <trkpt lat="44.88234" lon="5.51441">
        <ele>1719.5</ele>
        <time>2022-01-19T13:08:10Z</time>
      </trkpt>
      <trkpt lat="44.88234" lon="5.51441">
        <ele>1719.5</ele>
        <time>2022-01-19T13:08:11Z</time>
      </trkpt>
      <trkpt lat="44.88234" lon="5.51441">
        <ele>1719.5</ele>
        <time>2022-01-19T13:08:12Z</time>
      </trkpt>
      <trkpt lat="44.88234" lon="5.51441">
        <ele>1719.5</ele>
        <time>2022-01-19T13:08:13Z</time>
      </trkpt>
      <trkpt lat="44.88234" lon="5.51441">
        <ele>1719.5</ele>
        <time>2022-01-19T13:08:14Z</time>
      </trkpt>
      <trkpt lat="44.88234" lon="5.51441">
        <ele>1719.5</ele>
        <time>2022-01-19T13:08:15Z</time>
      </trkpt>
      <trkpt lat="44.88234" lon="5.51441">
        <ele>1719.5</ele>
        <time>2022-01-19T13:08:16Z</time>
      </trkpt>
      <trkpt lat="44.88234" lon="5.51441">
        <ele>1719.5</ele>
        <time>2022-01-19T13:08:17Z</time>
      </trkpt>
      <trkpt lat="44.88234" lon="5.51441">
        <ele>1719.5</ele>
        <time>2022-01-19T13:08:18Z</time>
      </trkpt>
      <trkpt lat="44.88234" lon="5.51441">
        <ele>1719.5</ele>
        <time>2022-01-19T13:08:19Z</time>
      </trkpt>
      <trkpt lat="44.88234" lon="5.51441">
        <ele>1719.5</ele>
        <time>2022-01-19T13:08:20Z</time>
      </trkpt>
      <trkpt lat="44.88234" lon="5.51442">
        <ele>1719.5</ele>
        <time>2022-01-19T13:08:21Z</time>
      </trkpt>
      <trkpt lat="44.88234" lon="5.51442">
        <ele>1719.5</ele>
        <time>2022-01-19T13:08:22Z</time>
      </trkpt>
      <trkpt lat="44.88234" lon="5.51442">
        <ele>1719.5</ele>
        <time>2022-01-19T13:08:23Z</time>
      </trkpt>
      <trkpt lat="44.88234" lon="5.51442">
        <ele>1719.5</ele>
        <time>2022-01-19T13:08:24Z</time>
      </trkpt>
      <trkpt lat="44.88234" lon="5.51442">
        <ele>1719.5</ele>
        <time>2022-01-19T13:08:25Z</time>
      </trkpt>
      <trkpt lat="44.88234" lon="5.51442">
        <ele>1719.5</ele>
        <time>2022-01-19T13:08:26Z</time>
      </trkpt>
      <trkpt lat="44.88234" lon="5.51442">
        <ele>1719.5</ele>
        <time>2022-01-19T13:08:27Z</time>
      </trkpt>
      <trkpt lat="44.88234" lon="5.51442">
        <ele>1719.5</ele>
        <time>2022-01-19T13:08:28Z</time>
      </trkpt>
      <trkpt lat="44.88234" lon="5.51442">
        <ele>1719.5</ele>
        <time>2022-01-19T13:08:29Z</time>
      </trkpt>
      <trkpt lat="44.88234" lon="5.51442">
        <ele>1719.5</ele>
        <time>2022-01-19T13:08:30Z</time>
      </trkpt>
      <trkpt lat="44.88234" lon="5.51442">
        <ele>1719.5</ele>
        <time>2022-01-19T13:08:31Z</time>
      </trkpt>
      <trkpt lat="44.88234" lon="5.51442">
        <ele>1719.5</ele>
        <time>2022-01-19T13:08:32Z</time>
      </trkpt>
      <trkpt lat="44.88234" lon="5.51442">
        <ele>1719.5</ele>
        <time>2022-01-19T13:08:33Z</time>
      </trkpt>
      <trkpt lat="44.88234" lon="5.51442">
        <ele>1719.5</ele>
        <time>2022-01-19T13:08:34Z</time>
      </trkpt>
      <trkpt lat="44.88234" lon="5.51442">
        <ele>1719.5</ele>
        <time>2022-01-19T13:08:35Z</time>
      </trkpt>
      <trkpt lat="44.88234" lon="5.51442">
        <ele>1719.5</ele>
        <time>2022-01-19T13:08:36Z</time>
      </trkpt>
      <trkpt lat="44.88234" lon="5.51442">
        <ele>1719.5</ele>
        <time>2022-01-19T13:08:37Z</time>
      </trkpt>
      <trkpt lat="44.88234" lon="5.51442">
        <ele>1719.5</ele>
        <time>2022-01-19T13:08:38Z</time>
      </trkpt>
      <trkpt lat="44.88234" lon="5.51442">
        <ele>1719.5</ele>
        <time>2022-01-19T13:08:39Z</time>
      </trkpt>
      <trkpt lat="44.88234" lon="5.51442">
        <ele>1719.5</ele>
        <time>2022-01-19T13:08:40Z</time>
      </trkpt>
      <trkpt lat="44.88234" lon="5.51442">
        <ele>1719.5</ele>
        <time>2022-01-19T13:08:41Z</time>
      </trkpt>
      <trkpt lat="44.88234" lon="5.51442">
        <ele>1719.5</ele>
        <time>2022-01-19T13:08:42Z</time>
      </trkpt>
      <trkpt lat="44.88234" lon="5.51442">
        <ele>1719.5</ele>
        <time>2022-01-19T13:08:43Z</time>
      </trkpt>
      <trkpt lat="44.88234" lon="5.51442">
        <ele>1719.5</ele>
        <time>2022-01-19T13:08:44Z</time>
      </trkpt>
      <trkpt lat="44.88234" lon="5.51442">
        <ele>1719.5</ele>
        <time>2022-01-19T13:08:45Z</time>
      </trkpt>
      <trkpt lat="44.88234" lon="5.51442">
        <ele>1719.5</ele>
        <time>2022-01-19T13:08:46Z</time>
      </trkpt>
      <trkpt lat="44.88234" lon="5.51442">
        <ele>1719.5</ele>
        <time>2022-01-19T13:08:47Z</time>
      </trkpt>
      <trkpt lat="44.88234" lon="5.51442">
        <ele>1719.5</ele>
        <time>2022-01-19T13:08:48Z</time>
      </trkpt>
      <trkpt lat="44.88234" lon="5.51442">
        <ele>1719.5</ele>
        <time>2022-01-19T13:08:49Z</time>
      </trkpt>
      <trkpt lat="44.88234" lon="5.51442">
        <ele>1719.5</ele>
        <time>2022-01-19T13:08:50Z</time>
      </trkpt>
      <trkpt lat="44.88234" lon="5.51442">
        <ele>1719.5</ele>
        <time>2022-01-19T13:08:51Z</time>
      </trkpt>
      <trkpt lat="44.88234" lon="5.51442">
        <ele>1719.5</ele>
        <time>2022-01-19T13:08:52Z</time>
      </trkpt>
      <trkpt lat="44.88234" lon="5.51442">
        <ele>1719.5</ele>
        <time>2022-01-19T13:08:53Z</time>
      </trkpt>
      <trkpt lat="44.88234" lon="5.51442">
        <ele>1719.5</ele>
        <time>2022-01-19T13:08:54Z</time>
      </trkpt>
      <trkpt lat="44.88234" lon="5.51442">
        <ele>1719.5</ele>
        <time>2022-01-19T13:08:55Z</time>
      </trkpt>
      <trkpt lat="44.88234" lon="5.51442">
        <ele>1719.5</ele>
        <time>2022-01-19T13:08:56Z</time>
      </trkpt>
      <trkpt lat="44.88234" lon="5.51442">
        <ele>1719.5</ele>
        <time>2022-01-19T13:08:57Z</time>
      </trkpt>
      <trkpt lat="44.88234" lon="5.51442">
        <ele>1719.5</ele>
        <time>2022-01-19T13:08:58Z</time>
      </trkpt>
      <trkpt lat="44.88234" lon="5.51442">
        <ele>1719.5</ele>
        <time>2022-01-19T13:08:59Z</time>
      </trkpt>
      <trkpt lat="44.88234" lon="5.51442">
        <ele>1719.5</ele>
        <time>2022-01-19T13:09:00Z</time>
      </trkpt>
      <trkpt lat="44.88234" lon="5.51442">
        <ele>1719.5</ele>
        <time>2022-01-19T13:09:01Z</time>
      </trkpt>
      <trkpt lat="44.88234" lon="5.51443">
        <ele>1719.5</ele>
        <time>2022-01-19T13:09:02Z</time>
      </trkpt>
      <trkpt lat="44.88234" lon="5.51443">
        <ele>1719.5</ele>
        <time>2022-01-19T13:09:03Z</time>
      </trkpt>
      <trkpt lat="44.88234" lon="5.51443">
        <ele>1719.5</ele>
        <time>2022-01-19T13:09:04Z</time>
      </trkpt>
      <trkpt lat="44.88234" lon="5.51443">
        <ele>1719.5</ele>
        <time>2022-01-19T13:09:05Z</time>
      </trkpt>
      <trkpt lat="44.88234" lon="5.51443">
        <ele>1719.5</ele>
        <time>2022-01-19T13:09:06Z</time>
      </trkpt>
      <trkpt lat="44.88234" lon="5.51443">
        <ele>1719.5</ele>
        <time>2022-01-19T13:09:07Z</time>
      </trkpt>
      <trkpt lat="44.88234" lon="5.51443">
        <ele>1719.5</ele>
        <time>2022-01-19T13:09:08Z</time>
      </trkpt>
      <trkpt lat="44.88234" lon="5.51443">
        <ele>1719.5</ele>
        <time>2022-01-19T13:09:09Z</time>
      </trkpt>
      <trkpt lat="44.88234" lon="5.51443">
        <ele>1719.5</ele>
        <time>2022-01-19T13:09:10Z</time>
      </trkpt>
      <trkpt lat="44.88234" lon="5.51443">
        <ele>1719.5</ele>
        <time>2022-01-19T13:09:11Z</time>
      </trkpt>
      <trkpt lat="44.88234" lon="5.51443">
        <ele>1719.5</ele>
        <time>2022-01-19T13:09:12Z</time>
      </trkpt>
      <trkpt lat="44.88234" lon="5.51443">
        <ele>1719.5</ele>
        <time>2022-01-19T13:09:13Z</time>
      </trkpt>
      <trkpt lat="44.88234" lon="5.51443">
        <ele>1719.5</ele>
        <time>2022-01-19T13:09:14Z</time>
      </trkpt>
      <trkpt lat="44.88234" lon="5.51443">
        <ele>1719.5</ele>
        <time>2022-01-19T13:09:15Z</time>
      </trkpt>
      <trkpt lat="44.88235" lon="5.51443">
        <ele>1719.5</ele>
        <time>2022-01-19T13:09:16Z</time>
      </trkpt>
      <trkpt lat="44.88235" lon="5.51443">
        <ele>1719.5</ele>
        <time>2022-01-19T13:09:17Z</time>
      </trkpt>
      <trkpt lat="44.88235" lon="5.51443">
        <ele>1719.5</ele>
        <time>2022-01-19T13:09:18Z</time>
      </trkpt>
      <trkpt lat="44.88235" lon="5.51443">
        <ele>1719.5</ele>
        <time>2022-01-19T13:09:19Z</time>
      </trkpt>
      <trkpt lat="44.88235" lon="5.51443">
        <ele>1719.5</ele>
        <time>2022-01-19T13:09:20Z</time>
      </trkpt>
      <trkpt lat="44.88235" lon="5.51443">
        <ele>1719.5</ele>
        <time>2022-01-19T13:09:21Z</time>
      </trkpt>
      <trkpt lat="44.88235" lon="5.51443">
        <ele>1719.5</ele>
        <time>2022-01-19T13:09:22Z</time>
      </trkpt>
      <trkpt lat="44.88235" lon="5.51443">
        <ele>1719.5</ele>
        <time>2022-01-19T13:09:23Z</time>
      </trkpt>
      <trkpt lat="44.88235" lon="5.51443">
        <ele>1719.5</ele>
        <time>2022-01-19T13:09:24Z</time>
      </trkpt>
      <trkpt lat="44.88235" lon="5.51443">
        <ele>1719.5</ele>
        <time>2022-01-19T13:09:25Z</time>
      </trkpt>
      <trkpt lat="44.88235" lon="5.51443">
        <ele>1719.5</ele>
        <time>2022-01-19T13:09:26Z</time>
      </trkpt>
      <trkpt lat="44.88235" lon="5.51443">
        <ele>1719.5</ele>
        <time>2022-01-19T13:09:27Z</time>
      </trkpt>
      <trkpt lat="44.88235" lon="5.51443">
        <ele>1719.5</ele>
        <time>2022-01-19T13:09:28Z</time>
      </trkpt>
      <trkpt lat="44.88235" lon="5.51443">
        <ele>1719.5</ele>
        <time>2022-01-19T13:09:29Z</time>
      </trkpt>
      <trkpt lat="44.88235" lon="5.51443">
        <ele>1719.5</ele>
        <time>2022-01-19T13:09:30Z</time>
      </trkpt>
      <trkpt lat="44.88235" lon="5.51443">
        <ele>1719.5</ele>
        <time>2022-01-19T13:09:31Z</time>
      </trkpt>
      <trkpt lat="44.88235" lon="5.51443">
        <ele>1719.5</ele>
        <time>2022-01-19T13:09:32Z</time>
      </trkpt>
      <trkpt lat="44.88235" lon="5.51443">
        <ele>1719.5</ele>
        <time>2022-01-19T13:09:33Z</time>
      </trkpt>
      <trkpt lat="44.88235" lon="5.51443">
        <ele>1719.5</ele>
        <time>2022-01-19T13:09:34Z</time>
      </trkpt>
      <trkpt lat="44.88235" lon="5.51443">
        <ele>1719.5</ele>
        <time>2022-01-19T13:09:35Z</time>
      </trkpt>
      <trkpt lat="44.88235" lon="5.51443">
        <ele>1719.5</ele>
        <time>2022-01-19T13:09:36Z</time>
      </trkpt>
      <trkpt lat="44.88235" lon="5.51443">
        <ele>1719.5</ele>
        <time>2022-01-19T13:09:37Z</time>
      </trkpt>
      <trkpt lat="44.88235" lon="5.51443">
        <ele>1719.5</ele>
        <time>2022-01-19T13:09:38Z</time>
      </trkpt>
      <trkpt lat="44.88235" lon="5.51443">
        <ele>1719.5</ele>
        <time>2022-01-19T13:09:39Z</time>
      </trkpt>
      <trkpt lat="44.88235" lon="5.51443">
        <ele>1719.5</ele>
        <time>2022-01-19T13:09:40Z</time>
      </trkpt>
      <trkpt lat="44.88235" lon="5.51443">
        <ele>1719.5</ele>
        <time>2022-01-19T13:09:41Z</time>
      </trkpt>
      <trkpt lat="44.88235" lon="5.51444">
        <ele>1719.5</ele>
        <time>2022-01-19T13:09:42Z</time>
      </trkpt>
      <trkpt lat="44.88235" lon="5.51444">
        <ele>1719.5</ele>
        <time>2022-01-19T13:09:43Z</time>
      </trkpt>
      <trkpt lat="44.88235" lon="5.51444">
        <ele>1719.5</ele>
        <time>2022-01-19T13:09:44Z</time>
      </trkpt>
      <trkpt lat="44.88235" lon="5.51444">
        <ele>1719.5</ele>
        <time>2022-01-19T13:09:45Z</time>
      </trkpt>
      <trkpt lat="44.88235" lon="5.51444">
        <ele>1719.5</ele>
        <time>2022-01-19T13:09:46Z</time>
      </trkpt>
      <trkpt lat="44.88235" lon="5.51444">
        <ele>1719.5</ele>
        <time>2022-01-19T13:09:47Z</time>
      </trkpt>
      <trkpt lat="44.88235" lon="5.51444">
        <ele>1719.5</ele>
        <time>2022-01-19T13:09:48Z</time>
      </trkpt>
      <trkpt lat="44.88235" lon="5.51444">
        <ele>1719.5</ele>
        <time>2022-01-19T13:09:49Z</time>
      </trkpt>
      <trkpt lat="44.88235" lon="5.51444">
        <ele>1719.5</ele>
        <time>2022-01-19T13:09:50Z</time>
      </trkpt>
      <trkpt lat="44.88235" lon="5.51444">
        <ele>1719.5</ele>
        <time>2022-01-19T13:09:51Z</time>
      </trkpt>
      <trkpt lat="44.88235" lon="5.51444">
        <ele>1719.5</ele>
        <time>2022-01-19T13:09:52Z</time>
      </trkpt>
      <trkpt lat="44.88235" lon="5.51444">
        <ele>1719.5</ele>
        <time>2022-01-19T13:09:53Z</time>
      </trkpt>
      <trkpt lat="44.88235" lon="5.51444">
        <ele>1719.5</ele>
        <time>2022-01-19T13:09:54Z</time>
      </trkpt>
      <trkpt lat="44.88235" lon="5.51444">
        <ele>1719.5</ele>
        <time>2022-01-19T13:09:55Z</time>
      </trkpt>
      <trkpt lat="44.88235" lon="5.51444">
        <ele>1719.5</ele>
        <time>2022-01-19T13:09:56Z</time>
      </trkpt>
      <trkpt lat="44.88235" lon="5.51444">
        <ele>1719.5</ele>
        <time>2022-01-19T13:09:57Z</time>
      </trkpt>
      <trkpt lat="44.88235" lon="5.51444">
        <ele>1719.5</ele>
        <time>2022-01-19T13:09:58Z</time>
      </trkpt>
      <trkpt lat="44.88235" lon="5.51444">
        <ele>1719.5</ele>
        <time>2022-01-19T13:09:59Z</time>
      </trkpt>
      <trkpt lat="44.88235" lon="5.51444">
        <ele>1719.5</ele>
        <time>2022-01-19T13:10:00Z</time>
      </trkpt>
      <trkpt lat="44.88235" lon="5.51444">
        <ele>1719.5</ele>
        <time>2022-01-19T13:10:01Z</time>
      </trkpt>
      <trkpt lat="44.88235" lon="5.51444">
        <ele>1719.5</ele>
        <time>2022-01-19T13:10:02Z</time>
      </trkpt>
      <trkpt lat="44.88235" lon="5.51444">
        <ele>1719.5</ele>
        <time>2022-01-19T13:10:03Z</time>
      </trkpt>
      <trkpt lat="44.88235" lon="5.51444">
        <ele>1719.5</ele>
        <time>2022-01-19T13:10:04Z</time>
      </trkpt>
      <trkpt lat="44.88235" lon="5.51444">
        <ele>1719.5</ele>
        <time>2022-01-19T13:10:05Z</time>
      </trkpt>
      <trkpt lat="44.88235" lon="5.51444">
        <ele>1719.5</ele>
        <time>2022-01-19T13:10:06Z</time>
      </trkpt>
      <trkpt lat="44.88235" lon="5.51444">
        <ele>1719.5</ele>
        <time>2022-01-19T13:10:07Z</time>
      </trkpt>
      <trkpt lat="44.88235" lon="5.51444">
        <ele>1719.5</ele>
        <time>2022-01-19T13:10:08Z</time>
      </trkpt>
      <trkpt lat="44.88235" lon="5.51444">
        <ele>1719.5</ele>
        <time>2022-01-19T13:10:09Z</time>
      </trkpt>
      <trkpt lat="44.88235" lon="5.51444">
        <ele>1719.5</ele>
        <time>2022-01-19T13:10:10Z</time>
      </trkpt>
      <trkpt lat="44.88235" lon="5.51444">
        <ele>1719.5</ele>
        <time>2022-01-19T13:10:11Z</time>
      </trkpt>
      <trkpt lat="44.88235" lon="5.51444">
        <ele>1719.5</ele>
        <time>2022-01-19T13:10:12Z</time>
      </trkpt>
      <trkpt lat="44.88235" lon="5.51444">
        <ele>1719.5</ele>
        <time>2022-01-19T13:10:13Z</time>
      </trkpt>
      <trkpt lat="44.88235" lon="5.51444">
        <ele>1719.5</ele>
        <time>2022-01-19T13:10:14Z</time>
      </trkpt>
      <trkpt lat="44.88235" lon="5.51444">
        <ele>1719.5</ele>
        <time>2022-01-19T13:10:15Z</time>
      </trkpt>
      <trkpt lat="44.88235" lon="5.51444">
        <ele>1719.5</ele>
        <time>2022-01-19T13:10:16Z</time>
      </trkpt>
      <trkpt lat="44.88235" lon="5.51444">
        <ele>1719.5</ele>
        <time>2022-01-19T13:10:17Z</time>
      </trkpt>
      <trkpt lat="44.88235" lon="5.51444">
        <ele>1719.5</ele>
        <time>2022-01-19T13:10:18Z</time>
      </trkpt>
      <trkpt lat="44.88235" lon="5.51444">
        <ele>1719.5</ele>
        <time>2022-01-19T13:10:19Z</time>
      </trkpt>
      <trkpt lat="44.88235" lon="5.51444">
        <ele>1719.5</ele>
        <time>2022-01-19T13:10:20Z</time>
      </trkpt>
      <trkpt lat="44.88235" lon="5.51444">
        <ele>1719.5</ele>
        <time>2022-01-19T13:10:21Z</time>
      </trkpt>
      <trkpt lat="44.88235" lon="5.51445">
        <ele>1719.5</ele>
        <time>2022-01-19T13:10:22Z</time>
      </trkpt>
      <trkpt lat="44.88235" lon="5.51445">
        <ele>1719.5</ele>
        <time>2022-01-19T13:10:23Z</time>
      </trkpt>
      <trkpt lat="44.88235" lon="5.51445">
        <ele>1719.5</ele>
        <time>2022-01-19T13:10:24Z</time>
      </trkpt>
      <trkpt lat="44.88235" lon="5.51445">
        <ele>1719.5</ele>
        <time>2022-01-19T13:10:25Z</time>
      </trkpt>
      <trkpt lat="44.88235" lon="5.51445">
        <ele>1719.5</ele>
        <time>2022-01-19T13:10:26Z</time>
      </trkpt>
      <trkpt lat="44.88235" lon="5.51445">
        <ele>1719.5</ele>
        <time>2022-01-19T13:10:27Z</time>
      </trkpt>
      <trkpt lat="44.88235" lon="5.51445">
        <ele>1719.5</ele>
        <time>2022-01-19T13:10:28Z</time>
      </trkpt>
      <trkpt lat="44.88235" lon="5.51445">
        <ele>1719.5</ele>
        <time>2022-01-19T13:10:29Z</time>
      </trkpt>
      <trkpt lat="44.88235" lon="5.51445">
        <ele>1719.5</ele>
        <time>2022-01-19T13:10:30Z</time>
      </trkpt>
      <trkpt lat="44.88235" lon="5.51445">
        <ele>1719.5</ele>
        <time>2022-01-19T13:10:31Z</time>
      </trkpt>
      <trkpt lat="44.88236" lon="5.51445">
        <ele>1719.5</ele>
        <time>2022-01-19T13:10:32Z</time>
      </trkpt>
      <trkpt lat="44.88236" lon="5.51445">
        <ele>1719.5</ele>
        <time>2022-01-19T13:10:33Z</time>
      </trkpt>
      <trkpt lat="44.88236" lon="5.51445">
        <ele>1719.5</ele>
        <time>2022-01-19T13:10:34Z</time>
      </trkpt>
      <trkpt lat="44.88236" lon="5.51445">
        <ele>1719.5</ele>
        <time>2022-01-19T13:10:35Z</time>
      </trkpt>
      <trkpt lat="44.88236" lon="5.51445">
        <ele>1719.5</ele>
        <time>2022-01-19T13:10:36Z</time>
      </trkpt>
      <trkpt lat="44.88236" lon="5.51445">
        <ele>1719.5</ele>
        <time>2022-01-19T13:10:37Z</time>
      </trkpt>
      <trkpt lat="44.88236" lon="5.51445">
        <ele>1719.5</ele>
        <time>2022-01-19T13:10:38Z</time>
      </trkpt>
      <trkpt lat="44.88236" lon="5.51445">
        <ele>1719.5</ele>
        <time>2022-01-19T13:10:39Z</time>
      </trkpt>
      <trkpt lat="44.88236" lon="5.51445">
        <ele>1719.5</ele>
        <time>2022-01-19T13:10:40Z</time>
      </trkpt>
      <trkpt lat="44.88236" lon="5.51445">
        <ele>1719.5</ele>
        <time>2022-01-19T13:10:41Z</time>
      </trkpt>
      <trkpt lat="44.88236" lon="5.51445">
        <ele>1719.5</ele>
        <time>2022-01-19T13:10:42Z</time>
      </trkpt>
      <trkpt lat="44.88236" lon="5.51445">
        <ele>1719.5</ele>
        <time>2022-01-19T13:10:43Z</time>
      </trkpt>
      <trkpt lat="44.88236" lon="5.51445">
        <ele>1719.5</ele>
        <time>2022-01-19T13:10:44Z</time>
      </trkpt>
      <trkpt lat="44.88236" lon="5.51445">
        <ele>1719.5</ele>
        <time>2022-01-19T13:10:45Z</time>
      </trkpt>
      <trkpt lat="44.88236" lon="5.51445">
        <ele>1719.5</ele>
        <time>2022-01-19T13:10:46Z</time>
      </trkpt>
      <trkpt lat="44.88236" lon="5.51445">
        <ele>1720.3</ele>
        <time>2022-01-19T13:10:47Z</time>
      </trkpt>
      <trkpt lat="44.88236" lon="5.51445">
        <ele>1720.3</ele>
        <time>2022-01-19T13:10:48Z</time>
      </trkpt>
      <trkpt lat="44.88236" lon="5.51445">
        <ele>1720.3</ele>
        <time>2022-01-19T13:10:49Z</time>
      </trkpt>
      <trkpt lat="44.88236" lon="5.51445">
        <ele>1720.3</ele>
        <time>2022-01-19T13:10:50Z</time>
      </trkpt>
      <trkpt lat="44.88236" lon="5.51445">
        <ele>1720.3</ele>
        <time>2022-01-19T13:10:51Z</time>
      </trkpt>
      <trkpt lat="44.88236" lon="5.51445">
        <ele>1720.3</ele>
        <time>2022-01-19T13:10:52Z</time>
      </trkpt>
      <trkpt lat="44.88236" lon="5.51445">
        <ele>1720.3</ele>
        <time>2022-01-19T13:10:53Z</time>
      </trkpt>
      <trkpt lat="44.88236" lon="5.51445">
        <ele>1720.3</ele>
        <time>2022-01-19T13:10:54Z</time>
      </trkpt>
      <trkpt lat="44.88236" lon="5.51445">
        <ele>1720.3</ele>
        <time>2022-01-19T13:10:55Z</time>
      </trkpt>
      <trkpt lat="44.88236" lon="5.51445">
        <ele>1720.3</ele>
        <time>2022-01-19T13:10:56Z</time>
      </trkpt>
      <trkpt lat="44.88236" lon="5.51445">
        <ele>1720.3</ele>
        <time>2022-01-19T13:10:57Z</time>
      </trkpt>
      <trkpt lat="44.88236" lon="5.51445">
        <ele>1720.3</ele>
        <time>2022-01-19T13:10:58Z</time>
      </trkpt>
      <trkpt lat="44.88236" lon="5.51445">
        <ele>1720.3</ele>
        <time>2022-01-19T13:10:59Z</time>
      </trkpt>
      <trkpt lat="44.88236" lon="5.51445">
        <ele>1720.3</ele>
        <time>2022-01-19T13:11:00Z</time>
      </trkpt>
      <trkpt lat="44.88236" lon="5.51445">
        <ele>1720.3</ele>
        <time>2022-01-19T13:11:01Z</time>
      </trkpt>
      <trkpt lat="44.88236" lon="5.51445">
        <ele>1720.3</ele>
        <time>2022-01-19T13:11:02Z</time>
      </trkpt>
      <trkpt lat="44.88236" lon="5.51446">
        <ele>1720.3</ele>
        <time>2022-01-19T13:11:03Z</time>
      </trkpt>
      <trkpt lat="44.88236" lon="5.51446">
        <ele>1720.3</ele>
        <time>2022-01-19T13:11:04Z</time>
      </trkpt>
      <trkpt lat="44.88236" lon="5.51446">
        <ele>1720.3</ele>
        <time>2022-01-19T13:11:05Z</time>
      </trkpt>
      <trkpt lat="44.88236" lon="5.51446">
        <ele>1720.3</ele>
        <time>2022-01-19T13:11:06Z</time>
      </trkpt>
      <trkpt lat="44.88236" lon="5.51446">
        <ele>1720.3</ele>
        <time>2022-01-19T13:11:07Z</time>
      </trkpt>
      <trkpt lat="44.88236" lon="5.51446">
        <ele>1720.3</ele>
        <time>2022-01-19T13:11:08Z</time>
      </trkpt>
      <trkpt lat="44.88236" lon="5.51446">
        <ele>1720.3</ele>
        <time>2022-01-19T13:11:09Z</time>
      </trkpt>
      <trkpt lat="44.88236" lon="5.51446">
        <ele>1720.3</ele>
        <time>2022-01-19T13:11:10Z</time>
      </trkpt>
      <trkpt lat="44.88236" lon="5.51446">
        <ele>1720.3</ele>
        <time>2022-01-19T13:11:11Z</time>
      </trkpt>
      <trkpt lat="44.88236" lon="5.51446">
        <ele>1720.3</ele>
        <time>2022-01-19T13:11:12Z</time>
      </trkpt>
      <trkpt lat="44.88236" lon="5.51446">
        <ele>1720.3</ele>
        <time>2022-01-19T13:11:13Z</time>
      </trkpt>
      <trkpt lat="44.88236" lon="5.51446">
        <ele>1720.3</ele>
        <time>2022-01-19T13:11:14Z</time>
      </trkpt>
      <trkpt lat="44.88236" lon="5.51446">
        <ele>1720.3</ele>
        <time>2022-01-19T13:11:15Z</time>
      </trkpt>
      <trkpt lat="44.88236" lon="5.51446">
        <ele>1720.3</ele>
        <time>2022-01-19T13:11:16Z</time>
      </trkpt>
      <trkpt lat="44.88236" lon="5.51446">
        <ele>1720.3</ele>
        <time>2022-01-19T13:11:17Z</time>
      </trkpt>
      <trkpt lat="44.88236" lon="5.51446">
        <ele>1720.5</ele>
        <time>2022-01-19T13:11:18Z</time>
      </trkpt>
      <trkpt lat="44.88236" lon="5.51446">
        <ele>1720.5</ele>
        <time>2022-01-19T13:11:19Z</time>
      </trkpt>
      <trkpt lat="44.88236" lon="5.51446">
        <ele>1720.5</ele>
        <time>2022-01-19T13:11:20Z</time>
      </trkpt>
      <trkpt lat="44.88236" lon="5.51446">
        <ele>1720.5</ele>
        <time>2022-01-19T13:11:21Z</time>
      </trkpt>
      <trkpt lat="44.88236" lon="5.51446">
        <ele>1720.5</ele>
        <time>2022-01-19T13:11:22Z</time>
      </trkpt>
      <trkpt lat="44.88236" lon="5.51446">
        <ele>1720.5</ele>
        <time>2022-01-19T13:11:23Z</time>
      </trkpt>
      <trkpt lat="44.88236" lon="5.51446">
        <ele>1720.5</ele>
        <time>2022-01-19T13:11:24Z</time>
      </trkpt>
      <trkpt lat="44.88236" lon="5.51446">
        <ele>1720.5</ele>
        <time>2022-01-19T13:11:25Z</time>
      </trkpt>
      <trkpt lat="44.88236" lon="5.51446">
        <ele>1720.5</ele>
        <time>2022-01-19T13:11:26Z</time>
      </trkpt>
      <trkpt lat="44.88236" lon="5.51446">
        <ele>1720.5</ele>
        <time>2022-01-19T13:11:27Z</time>
      </trkpt>
      <trkpt lat="44.88236" lon="5.51446">
        <ele>1720.5</ele>
        <time>2022-01-19T13:11:28Z</time>
      </trkpt>
      <trkpt lat="44.88236" lon="5.51446">
        <ele>1720.5</ele>
        <time>2022-01-19T13:11:29Z</time>
      </trkpt>
      <trkpt lat="44.88236" lon="5.51446">
        <ele>1720.5</ele>
        <time>2022-01-19T13:11:30Z</time>
      </trkpt>
      <trkpt lat="44.88236" lon="5.51446">
        <ele>1720.5</ele>
        <time>2022-01-19T13:11:31Z</time>
      </trkpt>
      <trkpt lat="44.88236" lon="5.51446">
        <ele>1720.5</ele>
        <time>2022-01-19T13:11:32Z</time>
      </trkpt>
      <trkpt lat="44.88236" lon="5.51446">
        <ele>1720.5</ele>
        <time>2022-01-19T13:11:33Z</time>
      </trkpt>
      <trkpt lat="44.88236" lon="5.51446">
        <ele>1720.5</ele>
        <time>2022-01-19T13:11:34Z</time>
      </trkpt>
      <trkpt lat="44.88236" lon="5.51446">
        <ele>1720.5</ele>
        <time>2022-01-19T13:11:35Z</time>
      </trkpt>
      <trkpt lat="44.88236" lon="5.51446">
        <ele>1720.5</ele>
        <time>2022-01-19T13:11:36Z</time>
      </trkpt>
      <trkpt lat="44.88236" lon="5.51446">
        <ele>1720.5</ele>
        <time>2022-01-19T13:11:37Z</time>
      </trkpt>
      <trkpt lat="44.88236" lon="5.51446">
        <ele>1720.5</ele>
        <time>2022-01-19T13:11:38Z</time>
      </trkpt>
      <trkpt lat="44.88236" lon="5.51446">
        <ele>1720.5</ele>
        <time>2022-01-19T13:11:39Z</time>
      </trkpt>
      <trkpt lat="44.88236" lon="5.51446">
        <ele>1720.5</ele>
        <time>2022-01-19T13:11:40Z</time>
      </trkpt>
      <trkpt lat="44.88236" lon="5.51446">
        <ele>1720.5</ele>
        <time>2022-01-19T13:11:41Z</time>
      </trkpt>
      <trkpt lat="44.88236" lon="5.51446">
        <ele>1720.5</ele>
        <time>2022-01-19T13:11:42Z</time>
      </trkpt>
      <trkpt lat="44.88236" lon="5.51447">
        <ele>1720.5</ele>
        <time>2022-01-19T13:11:43Z</time>
      </trkpt>
      <trkpt lat="44.88236" lon="5.51447">
        <ele>1720.5</ele>
        <time>2022-01-19T13:11:44Z</time>
      </trkpt>
      <trkpt lat="44.88236" lon="5.51447">
        <ele>1720.5</ele>
        <time>2022-01-19T13:11:45Z</time>
      </trkpt>
      <trkpt lat="44.88236" lon="5.51447">
        <ele>1720.5</ele>
        <time>2022-01-19T13:11:46Z</time>
      </trkpt>
      <trkpt lat="44.88236" lon="5.51447">
        <ele>1720.5</ele>
        <time>2022-01-19T13:11:47Z</time>
      </trkpt>
      <trkpt lat="44.88237" lon="5.51447">
        <ele>1720.5</ele>
        <time>2022-01-19T13:11:48Z</time>
      </trkpt>
      <trkpt lat="44.88237" lon="5.51447">
        <ele>1720.5</ele>
        <time>2022-01-19T13:11:49Z</time>
      </trkpt>
      <trkpt lat="44.88237" lon="5.51447">
        <ele>1720.5</ele>
        <time>2022-01-19T13:11:50Z</time>
      </trkpt>
      <trkpt lat="44.88237" lon="5.51447">
        <ele>1720.5</ele>
        <time>2022-01-19T13:11:51Z</time>
      </trkpt>
      <trkpt lat="44.88237" lon="5.51447">
        <ele>1720.5</ele>
        <time>2022-01-19T13:11:52Z</time>
      </trkpt>
      <trkpt lat="44.88237" lon="5.51447">
        <ele>1720.5</ele>
        <time>2022-01-19T13:11:53Z</time>
      </trkpt>
      <trkpt lat="44.88237" lon="5.51447">
        <ele>1720.5</ele>
        <time>2022-01-19T13:11:54Z</time>
      </trkpt>
      <trkpt lat="44.88237" lon="5.51447">
        <ele>1720.5</ele>
        <time>2022-01-19T13:11:55Z</time>
      </trkpt>
      <trkpt lat="44.88237" lon="5.51447">
        <ele>1720.5</ele>
        <time>2022-01-19T13:11:56Z</time>
      </trkpt>
      <trkpt lat="44.88237" lon="5.51447">
        <ele>1720.5</ele>
        <time>2022-01-19T13:11:57Z</time>
      </trkpt>
      <trkpt lat="44.88237" lon="5.51447">
        <ele>1720.5</ele>
        <time>2022-01-19T13:11:58Z</time>
      </trkpt>
      <trkpt lat="44.88237" lon="5.51447">
        <ele>1720.5</ele>
        <time>2022-01-19T13:11:59Z</time>
      </trkpt>
      <trkpt lat="44.88237" lon="5.51447">
        <ele>1720.5</ele>
        <time>2022-01-19T13:12:00Z</time>
      </trkpt>
      <trkpt lat="44.88237" lon="5.51447">
        <ele>1720.5</ele>
        <time>2022-01-19T13:12:01Z</time>
      </trkpt>
      <trkpt lat="44.88237" lon="5.51447">
        <ele>1720.5</ele>
        <time>2022-01-19T13:12:02Z</time>
      </trkpt>
      <trkpt lat="44.88237" lon="5.51447">
        <ele>1720.5</ele>
        <time>2022-01-19T13:12:03Z</time>
      </trkpt>
      <trkpt lat="44.88237" lon="5.51447">
        <ele>1720.5</ele>
        <time>2022-01-19T13:12:04Z</time>
      </trkpt>
      <trkpt lat="44.88237" lon="5.51447">
        <ele>1720.5</ele>
        <time>2022-01-19T13:12:05Z</time>
      </trkpt>
      <trkpt lat="44.88237" lon="5.51447">
        <ele>1720.5</ele>
        <time>2022-01-19T13:12:06Z</time>
      </trkpt>
      <trkpt lat="44.88237" lon="5.51447">
        <ele>1720.5</ele>
        <time>2022-01-19T13:12:07Z</time>
      </trkpt>
      <trkpt lat="44.88237" lon="5.51447">
        <ele>1720.5</ele>
        <time>2022-01-19T13:12:08Z</time>
      </trkpt>
      <trkpt lat="44.88237" lon="5.51447">
        <ele>1720.5</ele>
        <time>2022-01-19T13:12:09Z</time>
      </trkpt>
      <trkpt lat="44.88237" lon="5.51447">
        <ele>1720.5</ele>
        <time>2022-01-19T13:12:10Z</time>
      </trkpt>
      <trkpt lat="44.88237" lon="5.51447">
        <ele>1720.5</ele>
        <time>2022-01-19T13:12:11Z</time>
      </trkpt>
      <trkpt lat="44.88237" lon="5.51447">
        <ele>1720.5</ele>
        <time>2022-01-19T13:12:12Z</time>
      </trkpt>
      <trkpt lat="44.88237" lon="5.51447">
        <ele>1720.5</ele>
        <time>2022-01-19T13:12:13Z</time>
      </trkpt>
      <trkpt lat="44.88237" lon="5.51447">
        <ele>1720.5</ele>
        <time>2022-01-19T13:12:14Z</time>
      </trkpt>
      <trkpt lat="44.88237" lon="5.51447">
        <ele>1720.5</ele>
        <time>2022-01-19T13:12:15Z</time>
      </trkpt>
      <trkpt lat="44.88237" lon="5.51447">
        <ele>1720.5</ele>
        <time>2022-01-19T13:12:16Z</time>
      </trkpt>
      <trkpt lat="44.88237" lon="5.51447">
        <ele>1720.5</ele>
        <time>2022-01-19T13:12:17Z</time>
      </trkpt>
      <trkpt lat="44.88237" lon="5.51447">
        <ele>1720.5</ele>
        <time>2022-01-19T13:12:18Z</time>
      </trkpt>
      <trkpt lat="44.88237" lon="5.51447">
        <ele>1720.5</ele>
        <time>2022-01-19T13:12:19Z</time>
      </trkpt>
      <trkpt lat="44.88237" lon="5.51447">
        <ele>1720.5</ele>
        <time>2022-01-19T13:12:20Z</time>
      </trkpt>
      <trkpt lat="44.88237" lon="5.51447">
        <ele>1720.5</ele>
        <time>2022-01-19T13:12:21Z</time>
      </trkpt>
      <trkpt lat="44.88237" lon="5.51447">
        <ele>1720.5</ele>
        <time>2022-01-19T13:12:22Z</time>
      </trkpt>
      <trkpt lat="44.88237" lon="5.51447">
        <ele>1720.5</ele>
        <time>2022-01-19T13:12:23Z</time>
      </trkpt>
      <trkpt lat="44.88237" lon="5.51448">
        <ele>1720.5</ele>
        <time>2022-01-19T13:12:24Z</time>
      </trkpt>
      <trkpt lat="44.88237" lon="5.51448">
        <ele>1720.5</ele>
        <time>2022-01-19T13:12:25Z</time>
      </trkpt>
      <trkpt lat="44.88237" lon="5.51448">
        <ele>1720.5</ele>
        <time>2022-01-19T13:12:26Z</time>
      </trkpt>
      <trkpt lat="44.88237" lon="5.51448">
        <ele>1720.5</ele>
        <time>2022-01-19T13:12:27Z</time>
      </trkpt>
      <trkpt lat="44.88237" lon="5.51448">
        <ele>1720.5</ele>
        <time>2022-01-19T13:12:28Z</time>
      </trkpt>
      <trkpt lat="44.88237" lon="5.51448">
        <ele>1720.5</ele>
        <time>2022-01-19T13:12:29Z</time>
      </trkpt>
      <trkpt lat="44.88237" lon="5.51448">
        <ele>1720.5</ele>
        <time>2022-01-19T13:12:30Z</time>
      </trkpt>
      <trkpt lat="44.88237" lon="5.51448">
        <ele>1720.5</ele>
        <time>2022-01-19T13:12:31Z</time>
      </trkpt>
      <trkpt lat="44.88237" lon="5.51448">
        <ele>1720.5</ele>
        <time>2022-01-19T13:12:32Z</time>
      </trkpt>
      <trkpt lat="44.88237" lon="5.51448">
        <ele>1720.5</ele>
        <time>2022-01-19T13:12:33Z</time>
      </trkpt>
      <trkpt lat="44.88237" lon="5.51448">
        <ele>1720.5</ele>
        <time>2022-01-19T13:12:34Z</time>
      </trkpt>
      <trkpt lat="44.88237" lon="5.51448">
        <ele>1720.5</ele>
        <time>2022-01-19T13:12:35Z</time>
      </trkpt>
      <trkpt lat="44.88237" lon="5.51448">
        <ele>1720.5</ele>
        <time>2022-01-19T13:12:36Z</time>
      </trkpt>
      <trkpt lat="44.88237" lon="5.51448">
        <ele>1720.5</ele>
        <time>2022-01-19T13:12:37Z</time>
      </trkpt>
      <trkpt lat="44.88237" lon="5.51448">
        <ele>1720.5</ele>
        <time>2022-01-19T13:12:38Z</time>
      </trkpt>
      <trkpt lat="44.88237" lon="5.51448">
        <ele>1720.5</ele>
        <time>2022-01-19T13:12:39Z</time>
      </trkpt>
      <trkpt lat="44.88237" lon="5.51448">
        <ele>1720.5</ele>
        <time>2022-01-19T13:12:40Z</time>
      </trkpt>
      <trkpt lat="44.88237" lon="5.51448">
        <ele>1720.5</ele>
        <time>2022-01-19T13:12:41Z</time>
      </trkpt>
      <trkpt lat="44.88237" lon="5.51448">
        <ele>1720.5</ele>
        <time>2022-01-19T13:12:42Z</time>
      </trkpt>
      <trkpt lat="44.88237" lon="5.51448">
        <ele>1720.5</ele>
        <time>2022-01-19T13:12:43Z</time>
      </trkpt>
      <trkpt lat="44.88237" lon="5.51448">
        <ele>1720.5</ele>
        <time>2022-01-19T13:12:44Z</time>
      </trkpt>
      <trkpt lat="44.88237" lon="5.51448">
        <ele>1720.5</ele>
        <time>2022-01-19T13:12:45Z</time>
      </trkpt>
      <trkpt lat="44.88237" lon="5.51448">
        <ele>1720.5</ele>
        <time>2022-01-19T13:12:46Z</time>
      </trkpt>
      <trkpt lat="44.88237" lon="5.51448">
        <ele>1720.5</ele>
        <time>2022-01-19T13:12:47Z</time>
      </trkpt>
      <trkpt lat="44.88237" lon="5.51448">
        <ele>1720.5</ele>
        <time>2022-01-19T13:12:48Z</time>
      </trkpt>
      <trkpt lat="44.88237" lon="5.51448">
        <ele>1720.5</ele>
        <time>2022-01-19T13:12:49Z</time>
      </trkpt>
      <trkpt lat="44.88237" lon="5.51448">
        <ele>1720.5</ele>
        <time>2022-01-19T13:12:50Z</time>
      </trkpt>
      <trkpt lat="44.88237" lon="5.51448">
        <ele>1720.5</ele>
        <time>2022-01-19T13:12:51Z</time>
      </trkpt>
      <trkpt lat="44.88237" lon="5.51448">
        <ele>1720.5</ele>
        <time>2022-01-19T13:12:52Z</time>
      </trkpt>
      <trkpt lat="44.88237" lon="5.51448">
        <ele>1720.5</ele>
        <time>2022-01-19T13:12:53Z</time>
      </trkpt>
      <trkpt lat="44.88237" lon="5.51448">
        <ele>1720.5</ele>
        <time>2022-01-19T13:12:54Z</time>
      </trkpt>
      <trkpt lat="44.88237" lon="5.51448">
        <ele>1720.5</ele>
        <time>2022-01-19T13:12:55Z</time>
      </trkpt>
      <trkpt lat="44.88237" lon="5.51448">
        <ele>1720.5</ele>
        <time>2022-01-19T13:12:56Z</time>
      </trkpt>
      <trkpt lat="44.88237" lon="5.51448">
        <ele>1720.5</ele>
        <time>2022-01-19T13:12:57Z</time>
      </trkpt>
      <trkpt lat="44.88237" lon="5.51448">
        <ele>1720.5</ele>
        <time>2022-01-19T13:12:58Z</time>
      </trkpt>
      <trkpt lat="44.88237" lon="5.51448">
        <ele>1720.5</ele>
        <time>2022-01-19T13:12:59Z</time>
      </trkpt>
      <trkpt lat="44.88237" lon="5.51448">
        <ele>1720.5</ele>
        <time>2022-01-19T13:13:00Z</time>
      </trkpt>
      <trkpt lat="44.88237" lon="5.51448">
        <ele>1720.5</ele>
        <time>2022-01-19T13:13:01Z</time>
      </trkpt>
      <trkpt lat="44.88237" lon="5.51448">
        <ele>1720.5</ele>
        <time>2022-01-19T13:13:02Z</time>
      </trkpt>
      <trkpt lat="44.88237" lon="5.51448">
        <ele>1720.5</ele>
        <time>2022-01-19T13:13:03Z</time>
      </trkpt>
      <trkpt lat="44.88238" lon="5.51449">
        <ele>1720.5</ele>
        <time>2022-01-19T13:13:04Z</time>
      </trkpt>
      <trkpt lat="44.88238" lon="5.51449">
        <ele>1720.5</ele>
        <time>2022-01-19T13:13:05Z</time>
      </trkpt>
      <trkpt lat="44.88238" lon="5.51449">
        <ele>1720.5</ele>
        <time>2022-01-19T13:13:06Z</time>
      </trkpt>
      <trkpt lat="44.88238" lon="5.51449">
        <ele>1720.5</ele>
        <time>2022-01-19T13:13:07Z</time>
      </trkpt>
      <trkpt lat="44.88238" lon="5.51449">
        <ele>1720.5</ele>
        <time>2022-01-19T13:13:08Z</time>
      </trkpt>
      <trkpt lat="44.88238" lon="5.51449">
        <ele>1720.5</ele>
        <time>2022-01-19T13:13:09Z</time>
      </trkpt>
      <trkpt lat="44.88238" lon="5.51449">
        <ele>1720.5</ele>
        <time>2022-01-19T13:13:10Z</time>
      </trkpt>
      <trkpt lat="44.88238" lon="5.51449">
        <ele>1720.5</ele>
        <time>2022-01-19T13:13:11Z</time>
      </trkpt>
      <trkpt lat="44.88238" lon="5.51449">
        <ele>1720.5</ele>
        <time>2022-01-19T13:13:12Z</time>
      </trkpt>
      <trkpt lat="44.88238" lon="5.51449">
        <ele>1720.5</ele>
        <time>2022-01-19T13:13:13Z</time>
      </trkpt>
      <trkpt lat="44.88238" lon="5.51449">
        <ele>1720.5</ele>
        <time>2022-01-19T13:13:14Z</time>
      </trkpt>
      <trkpt lat="44.88238" lon="5.51449">
        <ele>1720.5</ele>
        <time>2022-01-19T13:13:15Z</time>
      </trkpt>
      <trkpt lat="44.88238" lon="5.51449">
        <ele>1720.5</ele>
        <time>2022-01-19T13:13:16Z</time>
      </trkpt>
      <trkpt lat="44.88238" lon="5.51449">
        <ele>1720.5</ele>
        <time>2022-01-19T13:13:17Z</time>
      </trkpt>
      <trkpt lat="44.88238" lon="5.51449">
        <ele>1720.5</ele>
        <time>2022-01-19T13:13:18Z</time>
      </trkpt>
      <trkpt lat="44.88238" lon="5.51449">
        <ele>1720.5</ele>
        <time>2022-01-19T13:13:19Z</time>
      </trkpt>
      <trkpt lat="44.88238" lon="5.51449">
        <ele>1720.5</ele>
        <time>2022-01-19T13:13:20Z</time>
      </trkpt>
      <trkpt lat="44.88238" lon="5.51449">
        <ele>1720.5</ele>
        <time>2022-01-19T13:13:21Z</time>
      </trkpt>
      <trkpt lat="44.88238" lon="5.51449">
        <ele>1720.5</ele>
        <time>2022-01-19T13:13:22Z</time>
      </trkpt>
      <trkpt lat="44.88238" lon="5.51449">
        <ele>1720.5</ele>
        <time>2022-01-19T13:13:23Z</time>
      </trkpt>
      <trkpt lat="44.88238" lon="5.51449">
        <ele>1720.5</ele>
        <time>2022-01-19T13:13:24Z</time>
      </trkpt>
      <trkpt lat="44.88238" lon="5.51449">
        <ele>1720.5</ele>
        <time>2022-01-19T13:13:25Z</time>
      </trkpt>
      <trkpt lat="44.88238" lon="5.51449">
        <ele>1720.5</ele>
        <time>2022-01-19T13:13:26Z</time>
      </trkpt>
      <trkpt lat="44.88238" lon="5.51449">
        <ele>1720.5</ele>
        <time>2022-01-19T13:13:27Z</time>
      </trkpt>
      <trkpt lat="44.88238" lon="5.51449">
        <ele>1720.5</ele>
        <time>2022-01-19T13:13:28Z</time>
      </trkpt>
      <trkpt lat="44.88238" lon="5.51449">
        <ele>1720.5</ele>
        <time>2022-01-19T13:13:29Z</time>
      </trkpt>
      <trkpt lat="44.88238" lon="5.51449">
        <ele>1720.5</ele>
        <time>2022-01-19T13:13:30Z</time>
      </trkpt>
      <trkpt lat="44.88238" lon="5.51449">
        <ele>1720.5</ele>
        <time>2022-01-19T13:13:31Z</time>
      </trkpt>
      <trkpt lat="44.88238" lon="5.51449">
        <ele>1720.5</ele>
        <time>2022-01-19T13:13:32Z</time>
      </trkpt>
      <trkpt lat="44.88238" lon="5.51449">
        <ele>1720.5</ele>
        <time>2022-01-19T13:13:33Z</time>
      </trkpt>
      <trkpt lat="44.88238" lon="5.51449">
        <ele>1720.5</ele>
        <time>2022-01-19T13:13:34Z</time>
      </trkpt>
      <trkpt lat="44.88238" lon="5.51449">
        <ele>1720.5</ele>
        <time>2022-01-19T13:13:35Z</time>
      </trkpt>
      <trkpt lat="44.88238" lon="5.51449">
        <ele>1721.3</ele>
        <time>2022-01-19T13:13:36Z</time>
      </trkpt>
      <trkpt lat="44.88238" lon="5.51449">
        <ele>1721.3</ele>
        <time>2022-01-19T13:13:37Z</time>
      </trkpt>
      <trkpt lat="44.88238" lon="5.51449">
        <ele>1721.3</ele>
        <time>2022-01-19T13:13:38Z</time>
      </trkpt>
      <trkpt lat="44.88238" lon="5.51449">
        <ele>1721.3</ele>
        <time>2022-01-19T13:13:39Z</time>
      </trkpt>
      <trkpt lat="44.88238" lon="5.51449">
        <ele>1721.3</ele>
        <time>2022-01-19T13:13:40Z</time>
      </trkpt>
      <trkpt lat="44.88238" lon="5.51449">
        <ele>1721.3</ele>
        <time>2022-01-19T13:13:41Z</time>
      </trkpt>
      <trkpt lat="44.88238" lon="5.51449">
        <ele>1721.3</ele>
        <time>2022-01-19T13:13:42Z</time>
      </trkpt>
      <trkpt lat="44.88238" lon="5.51449">
        <ele>1721.3</ele>
        <time>2022-01-19T13:13:43Z</time>
      </trkpt>
      <trkpt lat="44.88238" lon="5.5145">
        <ele>1721.3</ele>
        <time>2022-01-19T13:13:44Z</time>
      </trkpt>
      <trkpt lat="44.88238" lon="5.5145">
        <ele>1721.3</ele>
        <time>2022-01-19T13:13:45Z</time>
      </trkpt>
      <trkpt lat="44.88238" lon="5.5145">
        <ele>1721.3</ele>
        <time>2022-01-19T13:13:46Z</time>
      </trkpt>
      <trkpt lat="44.88238" lon="5.5145">
        <ele>1721.3</ele>
        <time>2022-01-19T13:13:47Z</time>
      </trkpt>
      <trkpt lat="44.88238" lon="5.5145">
        <ele>1721.3</ele>
        <time>2022-01-19T13:13:48Z</time>
      </trkpt>
      <trkpt lat="44.88238" lon="5.5145">
        <ele>1721.3</ele>
        <time>2022-01-19T13:13:49Z</time>
      </trkpt>
      <trkpt lat="44.88238" lon="5.5145">
        <ele>1721.3</ele>
        <time>2022-01-19T13:13:50Z</time>
      </trkpt>
      <trkpt lat="44.88238" lon="5.5145">
        <ele>1721.3</ele>
        <time>2022-01-19T13:13:51Z</time>
      </trkpt>
      <trkpt lat="44.88238" lon="5.5145">
        <ele>1721.3</ele>
        <time>2022-01-19T13:13:52Z</time>
      </trkpt>
      <trkpt lat="44.88238" lon="5.5145">
        <ele>1721.3</ele>
        <time>2022-01-19T13:13:53Z</time>
      </trkpt>
      <trkpt lat="44.88238" lon="5.5145">
        <ele>1721.3</ele>
        <time>2022-01-19T13:13:54Z</time>
      </trkpt>
      <trkpt lat="44.88238" lon="5.5145">
        <ele>1721.3</ele>
        <time>2022-01-19T13:13:55Z</time>
      </trkpt>
      <trkpt lat="44.88238" lon="5.5145">
        <ele>1721.3</ele>
        <time>2022-01-19T13:13:56Z</time>
      </trkpt>
      <trkpt lat="44.88238" lon="5.5145">
        <ele>1721.3</ele>
        <time>2022-01-19T13:13:57Z</time>
      </trkpt>
      <trkpt lat="44.88238" lon="5.5145">
        <ele>1721.3</ele>
        <time>2022-01-19T13:13:58Z</time>
      </trkpt>
      <trkpt lat="44.88238" lon="5.5145">
        <ele>1721.3</ele>
        <time>2022-01-19T13:13:59Z</time>
      </trkpt>
      <trkpt lat="44.88238" lon="5.5145">
        <ele>1721.3</ele>
        <time>2022-01-19T13:14:00Z</time>
      </trkpt>
      <trkpt lat="44.88238" lon="5.5145">
        <ele>1721.3</ele>
        <time>2022-01-19T13:14:01Z</time>
      </trkpt>
      <trkpt lat="44.88238" lon="5.5145">
        <ele>1721.3</ele>
        <time>2022-01-19T13:14:02Z</time>
      </trkpt>
      <trkpt lat="44.88238" lon="5.5145">
        <ele>1721.3</ele>
        <time>2022-01-19T13:14:03Z</time>
      </trkpt>
      <trkpt lat="44.88238" lon="5.5145">
        <ele>1721.3</ele>
        <time>2022-01-19T13:14:04Z</time>
      </trkpt>
      <trkpt lat="44.88238" lon="5.5145">
        <ele>1721.3</ele>
        <time>2022-01-19T13:14:05Z</time>
      </trkpt>
      <trkpt lat="44.88238" lon="5.5145">
        <ele>1721.3</ele>
        <time>2022-01-19T13:14:06Z</time>
      </trkpt>
      <trkpt lat="44.88238" lon="5.5145">
        <ele>1721.3</ele>
        <time>2022-01-19T13:14:07Z</time>
      </trkpt>
      <trkpt lat="44.88238" lon="5.5145">
        <ele>1721.3</ele>
        <time>2022-01-19T13:14:08Z</time>
      </trkpt>
      <trkpt lat="44.88238" lon="5.5145">
        <ele>1721.3</ele>
        <time>2022-01-19T13:14:09Z</time>
      </trkpt>
      <trkpt lat="44.88238" lon="5.5145">
        <ele>1721.3</ele>
        <time>2022-01-19T13:14:10Z</time>
      </trkpt>
      <trkpt lat="44.88238" lon="5.5145">
        <ele>1721.3</ele>
        <time>2022-01-19T13:14:11Z</time>
      </trkpt>
      <trkpt lat="44.88238" lon="5.5145">
        <ele>1721.3</ele>
        <time>2022-01-19T13:14:12Z</time>
      </trkpt>
      <trkpt lat="44.88238" lon="5.5145">
        <ele>1721.3</ele>
        <time>2022-01-19T13:14:13Z</time>
      </trkpt>
      <trkpt lat="44.88238" lon="5.5145">
        <ele>1721.3</ele>
        <time>2022-01-19T13:14:14Z</time>
      </trkpt>
      <trkpt lat="44.88238" lon="5.5145">
        <ele>1721.3</ele>
        <time>2022-01-19T13:14:15Z</time>
      </trkpt>
      <trkpt lat="44.88238" lon="5.5145">
        <ele>1721.3</ele>
        <time>2022-01-19T13:14:16Z</time>
      </trkpt>
      <trkpt lat="44.88238" lon="5.5145">
        <ele>1721.3</ele>
        <time>2022-01-19T13:14:17Z</time>
      </trkpt>
      <trkpt lat="44.88238" lon="5.5145">
        <ele>1721.3</ele>
        <time>2022-01-19T13:14:18Z</time>
      </trkpt>
      <trkpt lat="44.88238" lon="5.5145">
        <ele>1721.3</ele>
        <time>2022-01-19T13:14:19Z</time>
      </trkpt>
      <trkpt lat="44.88239" lon="5.5145">
        <ele>1721.3</ele>
        <time>2022-01-19T13:14:20Z</time>
      </trkpt>
      <trkpt lat="44.88239" lon="5.5145">
        <ele>1721.3</ele>
        <time>2022-01-19T13:14:21Z</time>
      </trkpt>
      <trkpt lat="44.88239" lon="5.5145">
        <ele>1721.3</ele>
        <time>2022-01-19T13:14:22Z</time>
      </trkpt>
      <trkpt lat="44.88239" lon="5.5145">
        <ele>1721.3</ele>
        <time>2022-01-19T13:14:23Z</time>
      </trkpt>
      <trkpt lat="44.88239" lon="5.5145">
        <ele>1721.3</ele>
        <time>2022-01-19T13:14:24Z</time>
      </trkpt>
      <trkpt lat="44.88239" lon="5.51451">
        <ele>1721.3</ele>
        <time>2022-01-19T13:14:25Z</time>
      </trkpt>
      <trkpt lat="44.88239" lon="5.51451">
        <ele>1721.3</ele>
        <time>2022-01-19T13:14:26Z</time>
      </trkpt>
      <trkpt lat="44.88239" lon="5.51451">
        <ele>1721.3</ele>
        <time>2022-01-19T13:14:27Z</time>
      </trkpt>
      <trkpt lat="44.88239" lon="5.51451">
        <ele>1721.3</ele>
        <time>2022-01-19T13:14:28Z</time>
      </trkpt>
      <trkpt lat="44.88239" lon="5.51451">
        <ele>1721.3</ele>
        <time>2022-01-19T13:14:29Z</time>
      </trkpt>
      <trkpt lat="44.88239" lon="5.51451">
        <ele>1721.3</ele>
        <time>2022-01-19T13:14:30Z</time>
      </trkpt>
      <trkpt lat="44.88239" lon="5.51451">
        <ele>1721.3</ele>
        <time>2022-01-19T13:14:31Z</time>
      </trkpt>
      <trkpt lat="44.88239" lon="5.51451">
        <ele>1721.3</ele>
        <time>2022-01-19T13:14:32Z</time>
      </trkpt>
      <trkpt lat="44.88239" lon="5.51451">
        <ele>1721.3</ele>
        <time>2022-01-19T13:14:33Z</time>
      </trkpt>
      <trkpt lat="44.88239" lon="5.51451">
        <ele>1721.3</ele>
        <time>2022-01-19T13:14:34Z</time>
      </trkpt>
      <trkpt lat="44.88239" lon="5.51451">
        <ele>1721.3</ele>
        <time>2022-01-19T13:14:35Z</time>
      </trkpt>
      <trkpt lat="44.88239" lon="5.51451">
        <ele>1721.3</ele>
        <time>2022-01-19T13:14:36Z</time>
      </trkpt>
      <trkpt lat="44.88239" lon="5.51451">
        <ele>1721.3</ele>
        <time>2022-01-19T13:14:37Z</time>
      </trkpt>
      <trkpt lat="44.88239" lon="5.51451">
        <ele>1721.3</ele>
        <time>2022-01-19T13:14:38Z</time>
      </trkpt>
      <trkpt lat="44.88239" lon="5.51451">
        <ele>1721.3</ele>
        <time>2022-01-19T13:14:39Z</time>
      </trkpt>
      <trkpt lat="44.88239" lon="5.51451">
        <ele>1721.3</ele>
        <time>2022-01-19T13:14:40Z</time>
      </trkpt>
      <trkpt lat="44.88239" lon="5.51451">
        <ele>1721.3</ele>
        <time>2022-01-19T13:14:41Z</time>
      </trkpt>
      <trkpt lat="44.88239" lon="5.51451">
        <ele>1721.3</ele>
        <time>2022-01-19T13:14:42Z</time>
      </trkpt>
      <trkpt lat="44.88239" lon="5.51451">
        <ele>1721.3</ele>
        <time>2022-01-19T13:14:43Z</time>
      </trkpt>
      <trkpt lat="44.88239" lon="5.51451">
        <ele>1721.3</ele>
        <time>2022-01-19T13:14:44Z</time>
      </trkpt>
      <trkpt lat="44.88239" lon="5.51451">
        <ele>1721.3</ele>
        <time>2022-01-19T13:14:45Z</time>
      </trkpt>
      <trkpt lat="44.88239" lon="5.51451">
        <ele>1721.3</ele>
        <time>2022-01-19T13:14:46Z</time>
      </trkpt>
      <trkpt lat="44.88239" lon="5.51451">
        <ele>1721.3</ele>
        <time>2022-01-19T13:14:47Z</time>
      </trkpt>
      <trkpt lat="44.88239" lon="5.51451">
        <ele>1721.3</ele>
        <time>2022-01-19T13:14:48Z</time>
      </trkpt>
      <trkpt lat="44.88239" lon="5.51451">
        <ele>1721.3</ele>
        <time>2022-01-19T13:14:49Z</time>
      </trkpt>
      <trkpt lat="44.88239" lon="5.51451">
        <ele>1721.3</ele>
        <time>2022-01-19T13:14:50Z</time>
      </trkpt>
      <trkpt lat="44.88239" lon="5.51451">
        <ele>1721.3</ele>
        <time>2022-01-19T13:14:51Z</time>
      </trkpt>
      <trkpt lat="44.88239" lon="5.51451">
        <ele>1721.3</ele>
        <time>2022-01-19T13:14:52Z</time>
      </trkpt>
      <trkpt lat="44.88239" lon="5.51451">
        <ele>1721.3</ele>
        <time>2022-01-19T13:14:53Z</time>
      </trkpt>
      <trkpt lat="44.88239" lon="5.51451">
        <ele>1721.3</ele>
        <time>2022-01-19T13:14:54Z</time>
      </trkpt>
      <trkpt lat="44.88239" lon="5.51451">
        <ele>1721.3</ele>
        <time>2022-01-19T13:14:55Z</time>
      </trkpt>
      <trkpt lat="44.88239" lon="5.51451">
        <ele>1721.3</ele>
        <time>2022-01-19T13:14:56Z</time>
      </trkpt>
      <trkpt lat="44.88239" lon="5.51451">
        <ele>1721.3</ele>
        <time>2022-01-19T13:14:57Z</time>
      </trkpt>
      <trkpt lat="44.88239" lon="5.51451">
        <ele>1721.3</ele>
        <time>2022-01-19T13:14:58Z</time>
      </trkpt>
      <trkpt lat="44.88239" lon="5.51451">
        <ele>1721.3</ele>
        <time>2022-01-19T13:14:59Z</time>
      </trkpt>
      <trkpt lat="44.88239" lon="5.51451">
        <ele>1721.3</ele>
        <time>2022-01-19T13:15:00Z</time>
      </trkpt>
      <trkpt lat="44.88239" lon="5.51451">
        <ele>1721.3</ele>
        <time>2022-01-19T13:15:01Z</time>
      </trkpt>
      <trkpt lat="44.88239" lon="5.51451">
        <ele>1721.3</ele>
        <time>2022-01-19T13:15:02Z</time>
      </trkpt>
      <trkpt lat="44.88239" lon="5.51451">
        <ele>1721.3</ele>
        <time>2022-01-19T13:15:03Z</time>
      </trkpt>
      <trkpt lat="44.88239" lon="5.51451">
        <ele>1721.3</ele>
        <time>2022-01-19T13:15:04Z</time>
      </trkpt>
      <trkpt lat="44.88239" lon="5.51452">
        <ele>1721.3</ele>
        <time>2022-01-19T13:15:05Z</time>
      </trkpt>
      <trkpt lat="44.88239" lon="5.51452">
        <ele>1721.4</ele>
        <time>2022-01-19T13:15:06Z</time>
      </trkpt>
      <trkpt lat="44.88239" lon="5.51452">
        <ele>1721.4</ele>
        <time>2022-01-19T13:15:07Z</time>
      </trkpt>
      <trkpt lat="44.88239" lon="5.51452">
        <ele>1721.4</ele>
        <time>2022-01-19T13:15:08Z</time>
      </trkpt>
      <trkpt lat="44.88239" lon="5.51452">
        <ele>1721.4</ele>
        <time>2022-01-19T13:15:09Z</time>
      </trkpt>
      <trkpt lat="44.88239" lon="5.51452">
        <ele>1721.4</ele>
        <time>2022-01-19T13:15:10Z</time>
      </trkpt>
      <trkpt lat="44.88239" lon="5.51452">
        <ele>1721.4</ele>
        <time>2022-01-19T13:15:11Z</time>
      </trkpt>
      <trkpt lat="44.88239" lon="5.51452">
        <ele>1721.4</ele>
        <time>2022-01-19T13:15:12Z</time>
      </trkpt>
      <trkpt lat="44.88239" lon="5.51452">
        <ele>1721.4</ele>
        <time>2022-01-19T13:15:13Z</time>
      </trkpt>
      <trkpt lat="44.88239" lon="5.51452">
        <ele>1721.4</ele>
        <time>2022-01-19T13:15:14Z</time>
      </trkpt>
      <trkpt lat="44.88239" lon="5.51452">
        <ele>1721.4</ele>
        <time>2022-01-19T13:15:15Z</time>
      </trkpt>
      <trkpt lat="44.88239" lon="5.51452">
        <ele>1721.4</ele>
        <time>2022-01-19T13:15:16Z</time>
      </trkpt>
      <trkpt lat="44.88239" lon="5.51452">
        <ele>1721.4</ele>
        <time>2022-01-19T13:15:17Z</time>
      </trkpt>
      <trkpt lat="44.88239" lon="5.51452">
        <ele>1721.4</ele>
        <time>2022-01-19T13:15:18Z</time>
      </trkpt>
      <trkpt lat="44.88239" lon="5.51452">
        <ele>1721.4</ele>
        <time>2022-01-19T13:15:19Z</time>
      </trkpt>
      <trkpt lat="44.88239" lon="5.51452">
        <ele>1721.4</ele>
        <time>2022-01-19T13:15:20Z</time>
      </trkpt>
      <trkpt lat="44.88239" lon="5.51452">
        <ele>1721.4</ele>
        <time>2022-01-19T13:15:21Z</time>
      </trkpt>
      <trkpt lat="44.88239" lon="5.51452">
        <ele>1721.4</ele>
        <time>2022-01-19T13:15:22Z</time>
      </trkpt>
      <trkpt lat="44.88239" lon="5.51452">
        <ele>1721.4</ele>
        <time>2022-01-19T13:15:23Z</time>
      </trkpt>
      <trkpt lat="44.88239" lon="5.51452">
        <ele>1721.4</ele>
        <time>2022-01-19T13:15:24Z</time>
      </trkpt>
      <trkpt lat="44.88239" lon="5.51452">
        <ele>1721.4</ele>
        <time>2022-01-19T13:15:25Z</time>
      </trkpt>
      <trkpt lat="44.88239" lon="5.51452">
        <ele>1721.4</ele>
        <time>2022-01-19T13:15:26Z</time>
      </trkpt>
      <trkpt lat="44.88239" lon="5.51452">
        <ele>1721.4</ele>
        <time>2022-01-19T13:15:27Z</time>
      </trkpt>
      <trkpt lat="44.88239" lon="5.51452">
        <ele>1721.4</ele>
        <time>2022-01-19T13:15:28Z</time>
      </trkpt>
      <trkpt lat="44.88239" lon="5.51452">
        <ele>1721.4</ele>
        <time>2022-01-19T13:15:29Z</time>
      </trkpt>
      <trkpt lat="44.88239" lon="5.51452">
        <ele>1721.4</ele>
        <time>2022-01-19T13:15:30Z</time>
      </trkpt>
      <trkpt lat="44.88239" lon="5.51452">
        <ele>1721.4</ele>
        <time>2022-01-19T13:15:31Z</time>
      </trkpt>
      <trkpt lat="44.88239" lon="5.51452">
        <ele>1721.4</ele>
        <time>2022-01-19T13:15:32Z</time>
      </trkpt>
      <trkpt lat="44.88239" lon="5.51452">
        <ele>1721.4</ele>
        <time>2022-01-19T13:15:33Z</time>
      </trkpt>
      <trkpt lat="44.88239" lon="5.51452">
        <ele>1721.4</ele>
        <time>2022-01-19T13:15:34Z</time>
      </trkpt>
      <trkpt lat="44.88239" lon="5.51452">
        <ele>1721.4</ele>
        <time>2022-01-19T13:15:35Z</time>
      </trkpt>
      <trkpt lat="44.8824" lon="5.51452">
        <ele>1721.4</ele>
        <time>2022-01-19T13:15:36Z</time>
      </trkpt>
      <trkpt lat="44.8824" lon="5.51452">
        <ele>1721.4</ele>
        <time>2022-01-19T13:15:37Z</time>
      </trkpt>
      <trkpt lat="44.8824" lon="5.51452">
        <ele>1721.4</ele>
        <time>2022-01-19T13:15:38Z</time>
      </trkpt>
      <trkpt lat="44.8824" lon="5.51452">
        <ele>1721.4</ele>
        <time>2022-01-19T13:15:39Z</time>
      </trkpt>
      <trkpt lat="44.8824" lon="5.51452">
        <ele>1721.4</ele>
        <time>2022-01-19T13:15:40Z</time>
      </trkpt>
      <trkpt lat="44.8824" lon="5.51452">
        <ele>1721.4</ele>
        <time>2022-01-19T13:15:41Z</time>
      </trkpt>
      <trkpt lat="44.8824" lon="5.51452">
        <ele>1721.4</ele>
        <time>2022-01-19T13:15:42Z</time>
      </trkpt>
      <trkpt lat="44.8824" lon="5.51452">
        <ele>1721.4</ele>
        <time>2022-01-19T13:15:43Z</time>
      </trkpt>
      <trkpt lat="44.8824" lon="5.51452">
        <ele>1721.4</ele>
        <time>2022-01-19T13:15:44Z</time>
      </trkpt>
      <trkpt lat="44.8824" lon="5.51453">
        <ele>1721.4</ele>
        <time>2022-01-19T13:15:45Z</time>
      </trkpt>
      <trkpt lat="44.8824" lon="5.51453">
        <ele>1721.4</ele>
        <time>2022-01-19T13:15:46Z</time>
      </trkpt>
      <trkpt lat="44.8824" lon="5.51453">
        <ele>1721.4</ele>
        <time>2022-01-19T13:15:47Z</time>
      </trkpt>
      <trkpt lat="44.8824" lon="5.51453">
        <ele>1721.4</ele>
        <time>2022-01-19T13:15:48Z</time>
      </trkpt>
      <trkpt lat="44.8824" lon="5.51453">
        <ele>1721.4</ele>
        <time>2022-01-19T13:15:49Z</time>
      </trkpt>
      <trkpt lat="44.8824" lon="5.51453">
        <ele>1721.4</ele>
        <time>2022-01-19T13:15:50Z</time>
      </trkpt>
      <trkpt lat="44.8824" lon="5.51453">
        <ele>1721.4</ele>
        <time>2022-01-19T13:15:51Z</time>
      </trkpt>
      <trkpt lat="44.8824" lon="5.51453">
        <ele>1721.4</ele>
        <time>2022-01-19T13:15:52Z</time>
      </trkpt>
      <trkpt lat="44.8824" lon="5.51453">
        <ele>1721.4</ele>
        <time>2022-01-19T13:15:53Z</time>
      </trkpt>
      <trkpt lat="44.8824" lon="5.51453">
        <ele>1721.4</ele>
        <time>2022-01-19T13:15:54Z</time>
      </trkpt>
      <trkpt lat="44.8824" lon="5.51453">
        <ele>1721.4</ele>
        <time>2022-01-19T13:15:55Z</time>
      </trkpt>
      <trkpt lat="44.8824" lon="5.51453">
        <ele>1721.4</ele>
        <time>2022-01-19T13:15:56Z</time>
      </trkpt>
      <trkpt lat="44.8824" lon="5.51453">
        <ele>1721.4</ele>
        <time>2022-01-19T13:15:57Z</time>
      </trkpt>
      <trkpt lat="44.8824" lon="5.51453">
        <ele>1721.4</ele>
        <time>2022-01-19T13:15:58Z</time>
      </trkpt>
      <trkpt lat="44.8824" lon="5.51453">
        <ele>1721.4</ele>
        <time>2022-01-19T13:15:59Z</time>
      </trkpt>
      <trkpt lat="44.8824" lon="5.51453">
        <ele>1721.4</ele>
        <time>2022-01-19T13:16:00Z</time>
      </trkpt>
      <trkpt lat="44.8824" lon="5.51453">
        <ele>1721.4</ele>
        <time>2022-01-19T13:16:01Z</time>
      </trkpt>
      <trkpt lat="44.8824" lon="5.51453">
        <ele>1721.4</ele>
        <time>2022-01-19T13:16:02Z</time>
      </trkpt>
      <trkpt lat="44.8824" lon="5.51453">
        <ele>1721.4</ele>
        <time>2022-01-19T13:16:03Z</time>
      </trkpt>
      <trkpt lat="44.8824" lon="5.51453">
        <ele>1721.4</ele>
        <time>2022-01-19T13:16:04Z</time>
      </trkpt>
      <trkpt lat="44.8824" lon="5.51453">
        <ele>1721.4</ele>
        <time>2022-01-19T13:16:05Z</time>
      </trkpt>
      <trkpt lat="44.8824" lon="5.51453">
        <ele>1721.4</ele>
        <time>2022-01-19T13:16:06Z</time>
      </trkpt>
      <trkpt lat="44.8824" lon="5.51453">
        <ele>1721.4</ele>
        <time>2022-01-19T13:16:07Z</time>
      </trkpt>
      <trkpt lat="44.8824" lon="5.51453">
        <ele>1721.4</ele>
        <time>2022-01-19T13:16:08Z</time>
      </trkpt>
      <trkpt lat="44.8824" lon="5.51453">
        <ele>1721.4</ele>
        <time>2022-01-19T13:16:09Z</time>
      </trkpt>
      <trkpt lat="44.8824" lon="5.51453">
        <ele>1721.4</ele>
        <time>2022-01-19T13:16:10Z</time>
      </trkpt>
      <trkpt lat="44.8824" lon="5.51453">
        <ele>1721.4</ele>
        <time>2022-01-19T13:16:11Z</time>
      </trkpt>
      <trkpt lat="44.8824" lon="5.51453">
        <ele>1721.4</ele>
        <time>2022-01-19T13:16:12Z</time>
      </trkpt>
      <trkpt lat="44.8824" lon="5.51453">
        <ele>1721.4</ele>
        <time>2022-01-19T13:16:13Z</time>
      </trkpt>
      <trkpt lat="44.8824" lon="5.51453">
        <ele>1721.4</ele>
        <time>2022-01-19T13:16:14Z</time>
      </trkpt>
      <trkpt lat="44.8824" lon="5.51453">
        <ele>1721.4</ele>
        <time>2022-01-19T13:16:15Z</time>
      </trkpt>
      <trkpt lat="44.8824" lon="5.51453">
        <ele>1721.4</ele>
        <time>2022-01-19T13:16:16Z</time>
      </trkpt>
      <trkpt lat="44.8824" lon="5.51453">
        <ele>1721.4</ele>
        <time>2022-01-19T13:16:17Z</time>
      </trkpt>
      <trkpt lat="44.8824" lon="5.51453">
        <ele>1721.4</ele>
        <time>2022-01-19T13:16:18Z</time>
      </trkpt>
      <trkpt lat="44.8824" lon="5.51453">
        <ele>1721.4</ele>
        <time>2022-01-19T13:16:19Z</time>
      </trkpt>
      <trkpt lat="44.8824" lon="5.51453">
        <ele>1721.4</ele>
        <time>2022-01-19T13:16:20Z</time>
      </trkpt>
      <trkpt lat="44.8824" lon="5.51453">
        <ele>1721.4</ele>
        <time>2022-01-19T13:16:21Z</time>
      </trkpt>
      <trkpt lat="44.8824" lon="5.51453">
        <ele>1721.4</ele>
        <time>2022-01-19T13:16:22Z</time>
      </trkpt>
      <trkpt lat="44.8824" lon="5.51453">
        <ele>1721.4</ele>
        <time>2022-01-19T13:16:23Z</time>
      </trkpt>
      <trkpt lat="44.8824" lon="5.51453">
        <ele>1721.4</ele>
        <time>2022-01-19T13:16:24Z</time>
      </trkpt>
      <trkpt lat="44.8824" lon="5.51453">
        <ele>1721.4</ele>
        <time>2022-01-19T13:16:25Z</time>
      </trkpt>
      <trkpt lat="44.8824" lon="5.51454">
        <ele>1721.4</ele>
        <time>2022-01-19T13:16:26Z</time>
      </trkpt>
      <trkpt lat="44.8824" lon="5.51454">
        <ele>1721.4</ele>
        <time>2022-01-19T13:16:27Z</time>
      </trkpt>
      <trkpt lat="44.8824" lon="5.51454">
        <ele>1721.4</ele>
        <time>2022-01-19T13:16:28Z</time>
      </trkpt>
      <trkpt lat="44.8824" lon="5.51454">
        <ele>1721.4</ele>
        <time>2022-01-19T13:16:29Z</time>
      </trkpt>
      <trkpt lat="44.8824" lon="5.51454">
        <ele>1722.2</ele>
        <time>2022-01-19T13:16:30Z</time>
      </trkpt>
      <trkpt lat="44.8824" lon="5.51454">
        <ele>1722.2</ele>
        <time>2022-01-19T13:16:31Z</time>
      </trkpt>
      <trkpt lat="44.8824" lon="5.51454">
        <ele>1722.2</ele>
        <time>2022-01-19T13:16:32Z</time>
      </trkpt>
      <trkpt lat="44.8824" lon="5.51454">
        <ele>1722.2</ele>
        <time>2022-01-19T13:16:33Z</time>
      </trkpt>
      <trkpt lat="44.8824" lon="5.51454">
        <ele>1722.2</ele>
        <time>2022-01-19T13:16:34Z</time>
      </trkpt>
      <trkpt lat="44.8824" lon="5.51454">
        <ele>1722.2</ele>
        <time>2022-01-19T13:16:35Z</time>
      </trkpt>
      <trkpt lat="44.8824" lon="5.51454">
        <ele>1722.2</ele>
        <time>2022-01-19T13:16:36Z</time>
      </trkpt>
      <trkpt lat="44.8824" lon="5.51454">
        <ele>1722.2</ele>
        <time>2022-01-19T13:16:37Z</time>
      </trkpt>
      <trkpt lat="44.8824" lon="5.51454">
        <ele>1722.2</ele>
        <time>2022-01-19T13:16:38Z</time>
      </trkpt>
      <trkpt lat="44.8824" lon="5.51454">
        <ele>1722.2</ele>
        <time>2022-01-19T13:16:39Z</time>
      </trkpt>
      <trkpt lat="44.8824" lon="5.51454">
        <ele>1722.2</ele>
        <time>2022-01-19T13:16:40Z</time>
      </trkpt>
      <trkpt lat="44.8824" lon="5.51454">
        <ele>1722.2</ele>
        <time>2022-01-19T13:16:41Z</time>
      </trkpt>
      <trkpt lat="44.8824" lon="5.51454">
        <ele>1722.2</ele>
        <time>2022-01-19T13:16:42Z</time>
      </trkpt>
      <trkpt lat="44.8824" lon="5.51454">
        <ele>1722.2</ele>
        <time>2022-01-19T13:16:43Z</time>
      </trkpt>
      <trkpt lat="44.8824" lon="5.51454">
        <ele>1722.2</ele>
        <time>2022-01-19T13:16:44Z</time>
      </trkpt>
      <trkpt lat="44.8824" lon="5.51454">
        <ele>1722.2</ele>
        <time>2022-01-19T13:16:45Z</time>
      </trkpt>
      <trkpt lat="44.8824" lon="5.51454">
        <ele>1722.2</ele>
        <time>2022-01-19T13:16:46Z</time>
      </trkpt>
      <trkpt lat="44.8824" lon="5.51454">
        <ele>1722.2</ele>
        <time>2022-01-19T13:16:47Z</time>
      </trkpt>
      <trkpt lat="44.8824" lon="5.51454">
        <ele>1722.2</ele>
        <time>2022-01-19T13:16:48Z</time>
      </trkpt>
      <trkpt lat="44.8824" lon="5.51454">
        <ele>1722.2</ele>
        <time>2022-01-19T13:16:49Z</time>
      </trkpt>
      <trkpt lat="44.8824" lon="5.51454">
        <ele>1722.2</ele>
        <time>2022-01-19T13:16:50Z</time>
      </trkpt>
      <trkpt lat="44.8824" lon="5.51454">
        <ele>1722.2</ele>
        <time>2022-01-19T13:16:51Z</time>
      </trkpt>
      <trkpt lat="44.88241" lon="5.51454">
        <ele>1722.2</ele>
        <time>2022-01-19T13:16:52Z</time>
      </trkpt>
      <trkpt lat="44.88241" lon="5.51454">
        <ele>1722.2</ele>
        <time>2022-01-19T13:16:53Z</time>
      </trkpt>
      <trkpt lat="44.88241" lon="5.51454">
        <ele>1722.2</ele>
        <time>2022-01-19T13:16:54Z</time>
      </trkpt>
      <trkpt lat="44.88241" lon="5.51454">
        <ele>1722.2</ele>
        <time>2022-01-19T13:16:55Z</time>
      </trkpt>
      <trkpt lat="44.88241" lon="5.51454">
        <ele>1722.2</ele>
        <time>2022-01-19T13:16:56Z</time>
      </trkpt>
      <trkpt lat="44.88241" lon="5.51454">
        <ele>1722.2</ele>
        <time>2022-01-19T13:16:57Z</time>
      </trkpt>
      <trkpt lat="44.88241" lon="5.51454">
        <ele>1722.2</ele>
        <time>2022-01-19T13:16:58Z</time>
      </trkpt>
      <trkpt lat="44.88241" lon="5.51454">
        <ele>1722.2</ele>
        <time>2022-01-19T13:16:59Z</time>
      </trkpt>
      <trkpt lat="44.88241" lon="5.51454">
        <ele>1722.2</ele>
        <time>2022-01-19T13:17:00Z</time>
      </trkpt>
      <trkpt lat="44.88241" lon="5.51454">
        <ele>1722.2</ele>
        <time>2022-01-19T13:17:01Z</time>
      </trkpt>
      <trkpt lat="44.88241" lon="5.51454">
        <ele>1722.2</ele>
        <time>2022-01-19T13:17:02Z</time>
      </trkpt>
      <trkpt lat="44.88241" lon="5.51454">
        <ele>1722.2</ele>
        <time>2022-01-19T13:17:03Z</time>
      </trkpt>
      <trkpt lat="44.88241" lon="5.51454">
        <ele>1722.2</ele>
        <time>2022-01-19T13:17:04Z</time>
      </trkpt>
      <trkpt lat="44.88241" lon="5.51454">
        <ele>1722.2</ele>
        <time>2022-01-19T13:17:05Z</time>
      </trkpt>
      <trkpt lat="44.88241" lon="5.51455">
        <ele>1722.2</ele>
        <time>2022-01-19T13:17:06Z</time>
      </trkpt>
      <trkpt lat="44.88241" lon="5.51455">
        <ele>1722.2</ele>
        <time>2022-01-19T13:17:07Z</time>
      </trkpt>
      <trkpt lat="44.88241" lon="5.51455">
        <ele>1722.2</ele>
        <time>2022-01-19T13:17:08Z</time>
      </trkpt>
      <trkpt lat="44.88241" lon="5.51455">
        <ele>1722.2</ele>
        <time>2022-01-19T13:17:09Z</time>
      </trkpt>
      <trkpt lat="44.88241" lon="5.51455">
        <ele>1722.2</ele>
        <time>2022-01-19T13:17:10Z</time>
      </trkpt>
      <trkpt lat="44.88241" lon="5.51455">
        <ele>1722.2</ele>
        <time>2022-01-19T13:17:11Z</time>
      </trkpt>
      <trkpt lat="44.88241" lon="5.51455">
        <ele>1722.2</ele>
        <time>2022-01-19T13:17:12Z</time>
      </trkpt>
      <trkpt lat="44.88241" lon="5.51455">
        <ele>1722.2</ele>
        <time>2022-01-19T13:17:13Z</time>
      </trkpt>
      <trkpt lat="44.88241" lon="5.51455">
        <ele>1722.2</ele>
        <time>2022-01-19T13:17:14Z</time>
      </trkpt>
      <trkpt lat="44.88241" lon="5.51455">
        <ele>1722.2</ele>
        <time>2022-01-19T13:17:15Z</time>
      </trkpt>
      <trkpt lat="44.88241" lon="5.51455">
        <ele>1722.2</ele>
        <time>2022-01-19T13:17:16Z</time>
      </trkpt>
      <trkpt lat="44.88241" lon="5.51455">
        <ele>1722.2</ele>
        <time>2022-01-19T13:17:17Z</time>
      </trkpt>
      <trkpt lat="44.88241" lon="5.51455">
        <ele>1722.2</ele>
        <time>2022-01-19T13:17:18Z</time>
      </trkpt>
      <trkpt lat="44.88241" lon="5.51455">
        <ele>1722.2</ele>
        <time>2022-01-19T13:17:19Z</time>
      </trkpt>
      <trkpt lat="44.88241" lon="5.51455">
        <ele>1722.2</ele>
        <time>2022-01-19T13:17:20Z</time>
      </trkpt>
      <trkpt lat="44.88241" lon="5.51455">
        <ele>1722.2</ele>
        <time>2022-01-19T13:17:21Z</time>
      </trkpt>
      <trkpt lat="44.88241" lon="5.51455">
        <ele>1722.2</ele>
        <time>2022-01-19T13:17:22Z</time>
      </trkpt>
      <trkpt lat="44.88241" lon="5.51455">
        <ele>1722.2</ele>
        <time>2022-01-19T13:17:23Z</time>
      </trkpt>
      <trkpt lat="44.88241" lon="5.51455">
        <ele>1722.2</ele>
        <time>2022-01-19T13:17:24Z</time>
      </trkpt>
      <trkpt lat="44.88241" lon="5.51455">
        <ele>1722.2</ele>
        <time>2022-01-19T13:17:25Z</time>
      </trkpt>
      <trkpt lat="44.88241" lon="5.51455">
        <ele>1722.2</ele>
        <time>2022-01-19T13:17:26Z</time>
      </trkpt>
      <trkpt lat="44.88241" lon="5.51455">
        <ele>1722.2</ele>
        <time>2022-01-19T13:17:27Z</time>
      </trkpt>
      <trkpt lat="44.88241" lon="5.51455">
        <ele>1722.2</ele>
        <time>2022-01-19T13:17:28Z</time>
      </trkpt>
      <trkpt lat="44.88241" lon="5.51455">
        <ele>1722.2</ele>
        <time>2022-01-19T13:17:29Z</time>
      </trkpt>
      <trkpt lat="44.88241" lon="5.51455">
        <ele>1722.2</ele>
        <time>2022-01-19T13:17:30Z</time>
      </trkpt>
      <trkpt lat="44.88241" lon="5.51455">
        <ele>1722.2</ele>
        <time>2022-01-19T13:17:31Z</time>
      </trkpt>
      <trkpt lat="44.88241" lon="5.51455">
        <ele>1722.2</ele>
        <time>2022-01-19T13:17:32Z</time>
      </trkpt>
      <trkpt lat="44.88241" lon="5.51455">
        <ele>1722.2</ele>
        <time>2022-01-19T13:17:33Z</time>
      </trkpt>
      <trkpt lat="44.88241" lon="5.51455">
        <ele>1722.2</ele>
        <time>2022-01-19T13:17:34Z</time>
      </trkpt>
      <trkpt lat="44.88241" lon="5.51455">
        <ele>1722.2</ele>
        <time>2022-01-19T13:17:35Z</time>
      </trkpt>
      <trkpt lat="44.88241" lon="5.51455">
        <ele>1722.2</ele>
        <time>2022-01-19T13:17:36Z</time>
      </trkpt>
      <trkpt lat="44.88241" lon="5.51455">
        <ele>1722.2</ele>
        <time>2022-01-19T13:17:37Z</time>
      </trkpt>
      <trkpt lat="44.88241" lon="5.51455">
        <ele>1722.2</ele>
        <time>2022-01-19T13:17:38Z</time>
      </trkpt>
      <trkpt lat="44.88241" lon="5.51455">
        <ele>1722.2</ele>
        <time>2022-01-19T13:17:39Z</time>
      </trkpt>
      <trkpt lat="44.88241" lon="5.51455">
        <ele>1722.2</ele>
        <time>2022-01-19T13:17:40Z</time>
      </trkpt>
      <trkpt lat="44.88241" lon="5.51455">
        <ele>1722.2</ele>
        <time>2022-01-19T13:17:41Z</time>
      </trkpt>
      <trkpt lat="44.88241" lon="5.51455">
        <ele>1722.2</ele>
        <time>2022-01-19T13:17:42Z</time>
      </trkpt>
      <trkpt lat="44.88241" lon="5.51455">
        <ele>1722.2</ele>
        <time>2022-01-19T13:17:43Z</time>
      </trkpt>
      <trkpt lat="44.88241" lon="5.51455">
        <ele>1722.2</ele>
        <time>2022-01-19T13:17:44Z</time>
      </trkpt>
      <trkpt lat="44.88241" lon="5.51455">
        <ele>1722.2</ele>
        <time>2022-01-19T13:17:45Z</time>
      </trkpt>
      <trkpt lat="44.88241" lon="5.51456">
        <ele>1722.2</ele>
        <time>2022-01-19T13:17:46Z</time>
      </trkpt>
      <trkpt lat="44.88241" lon="5.51456">
        <ele>1722.2</ele>
        <time>2022-01-19T13:17:47Z</time>
      </trkpt>
      <trkpt lat="44.88241" lon="5.51456">
        <ele>1722.2</ele>
        <time>2022-01-19T13:17:48Z</time>
      </trkpt>
      <trkpt lat="44.88241" lon="5.51456">
        <ele>1722.2</ele>
        <time>2022-01-19T13:17:49Z</time>
      </trkpt>
      <trkpt lat="44.88241" lon="5.51456">
        <ele>1722.2</ele>
        <time>2022-01-19T13:17:50Z</time>
      </trkpt>
      <trkpt lat="44.88241" lon="5.51456">
        <ele>1722.2</ele>
        <time>2022-01-19T13:17:51Z</time>
      </trkpt>
      <trkpt lat="44.88241" lon="5.51456">
        <ele>1722.2</ele>
        <time>2022-01-19T13:17:52Z</time>
      </trkpt>
      <trkpt lat="44.88241" lon="5.51456">
        <ele>1722.2</ele>
        <time>2022-01-19T13:17:53Z</time>
      </trkpt>
      <trkpt lat="44.88241" lon="5.51456">
        <ele>1722.2</ele>
        <time>2022-01-19T13:17:54Z</time>
      </trkpt>
      <trkpt lat="44.88241" lon="5.51456">
        <ele>1722.2</ele>
        <time>2022-01-19T13:17:55Z</time>
      </trkpt>
      <trkpt lat="44.88241" lon="5.51456">
        <ele>1722.2</ele>
        <time>2022-01-19T13:17:56Z</time>
      </trkpt>
      <trkpt lat="44.88241" lon="5.51456">
        <ele>1722.2</ele>
        <time>2022-01-19T13:17:57Z</time>
      </trkpt>
      <trkpt lat="44.88241" lon="5.51456">
        <ele>1722.2</ele>
        <time>2022-01-19T13:17:58Z</time>
      </trkpt>
      <trkpt lat="44.88241" lon="5.51456">
        <ele>1722.2</ele>
        <time>2022-01-19T13:17:59Z</time>
      </trkpt>
      <trkpt lat="44.88241" lon="5.51456">
        <ele>1722.2</ele>
        <time>2022-01-19T13:18:00Z</time>
      </trkpt>
      <trkpt lat="44.88241" lon="5.51456">
        <ele>1722.2</ele>
        <time>2022-01-19T13:18:01Z</time>
      </trkpt>
      <trkpt lat="44.88241" lon="5.51456">
        <ele>1722.2</ele>
        <time>2022-01-19T13:18:02Z</time>
      </trkpt>
      <trkpt lat="44.88241" lon="5.51456">
        <ele>1722.2</ele>
        <time>2022-01-19T13:18:03Z</time>
      </trkpt>
      <trkpt lat="44.88241" lon="5.51456">
        <ele>1722.2</ele>
        <time>2022-01-19T13:18:04Z</time>
      </trkpt>
      <trkpt lat="44.88241" lon="5.51456">
        <ele>1722.2</ele>
        <time>2022-01-19T13:18:05Z</time>
      </trkpt>
      <trkpt lat="44.88241" lon="5.51456">
        <ele>1722.2</ele>
        <time>2022-01-19T13:18:06Z</time>
      </trkpt>
      <trkpt lat="44.88241" lon="5.51456">
        <ele>1722.2</ele>
        <time>2022-01-19T13:18:07Z</time>
      </trkpt>
      <trkpt lat="44.88242" lon="5.51456">
        <ele>1722.2</ele>
        <time>2022-01-19T13:18:08Z</time>
      </trkpt>
      <trkpt lat="44.88242" lon="5.51456">
        <ele>1722.2</ele>
        <time>2022-01-19T13:18:09Z</time>
      </trkpt>
      <trkpt lat="44.88242" lon="5.51456">
        <ele>1722.2</ele>
        <time>2022-01-19T13:18:10Z</time>
      </trkpt>
      <trkpt lat="44.88242" lon="5.51456">
        <ele>1722.2</ele>
        <time>2022-01-19T13:18:11Z</time>
      </trkpt>
      <trkpt lat="44.88242" lon="5.51456">
        <ele>1722.2</ele>
        <time>2022-01-19T13:18:12Z</time>
      </trkpt>
      <trkpt lat="44.88242" lon="5.51456">
        <ele>1722.2</ele>
        <time>2022-01-19T13:18:13Z</time>
      </trkpt>
      <trkpt lat="44.88242" lon="5.51456">
        <ele>1722.2</ele>
        <time>2022-01-19T13:18:14Z</time>
      </trkpt>
      <trkpt lat="44.88242" lon="5.51456">
        <ele>1722.2</ele>
        <time>2022-01-19T13:18:15Z</time>
      </trkpt>
      <trkpt lat="44.88242" lon="5.51456">
        <ele>1722.2</ele>
        <time>2022-01-19T13:18:16Z</time>
      </trkpt>
      <trkpt lat="44.88242" lon="5.51456">
        <ele>1722.2</ele>
        <time>2022-01-19T13:18:17Z</time>
      </trkpt>
      <trkpt lat="44.88242" lon="5.51456">
        <ele>1722.2</ele>
        <time>2022-01-19T13:18:18Z</time>
      </trkpt>
      <trkpt lat="44.88242" lon="5.51456">
        <ele>1722.2</ele>
        <time>2022-01-19T13:18:19Z</time>
      </trkpt>
      <trkpt lat="44.88242" lon="5.51456">
        <ele>1722.2</ele>
        <time>2022-01-19T13:18:20Z</time>
      </trkpt>
      <trkpt lat="44.88242" lon="5.51456">
        <ele>1722.2</ele>
        <time>2022-01-19T13:18:21Z</time>
      </trkpt>
      <trkpt lat="44.88242" lon="5.51456">
        <ele>1722.2</ele>
        <time>2022-01-19T13:18:22Z</time>
      </trkpt>
      <trkpt lat="44.88242" lon="5.51456">
        <ele>1722.2</ele>
        <time>2022-01-19T13:18:23Z</time>
      </trkpt>
      <trkpt lat="44.88242" lon="5.51456">
        <ele>1722.2</ele>
        <time>2022-01-19T13:18:24Z</time>
      </trkpt>
      <trkpt lat="44.88242" lon="5.51456">
        <ele>1722.2</ele>
        <time>2022-01-19T13:18:25Z</time>
      </trkpt>
      <trkpt lat="44.88242" lon="5.51456">
        <ele>1722.2</ele>
        <time>2022-01-19T13:18:26Z</time>
      </trkpt>
      <trkpt lat="44.88242" lon="5.51457">
        <ele>1722.2</ele>
        <time>2022-01-19T13:18:27Z</time>
      </trkpt>
      <trkpt lat="44.88242" lon="5.51457">
        <ele>1722.2</ele>
        <time>2022-01-19T13:18:28Z</time>
      </trkpt>
      <trkpt lat="44.88242" lon="5.51457">
        <ele>1722.2</ele>
        <time>2022-01-19T13:18:29Z</time>
      </trkpt>
      <trkpt lat="44.88242" lon="5.51457">
        <ele>1722.2</ele>
        <time>2022-01-19T13:18:30Z</time>
      </trkpt>
      <trkpt lat="44.88242" lon="5.51457">
        <ele>1722.2</ele>
        <time>2022-01-19T13:18:31Z</time>
      </trkpt>
      <trkpt lat="44.88242" lon="5.51457">
        <ele>1722.2</ele>
        <time>2022-01-19T13:18:32Z</time>
      </trkpt>
      <trkpt lat="44.88242" lon="5.51457">
        <ele>1722.2</ele>
        <time>2022-01-19T13:18:33Z</time>
      </trkpt>
      <trkpt lat="44.88242" lon="5.51457">
        <ele>1722.2</ele>
        <time>2022-01-19T13:18:34Z</time>
      </trkpt>
      <trkpt lat="44.88242" lon="5.51457">
        <ele>1722.2</ele>
        <time>2022-01-19T13:18:35Z</time>
      </trkpt>
      <trkpt lat="44.88242" lon="5.51457">
        <ele>1722.2</ele>
        <time>2022-01-19T13:18:36Z</time>
      </trkpt>
      <trkpt lat="44.88242" lon="5.51457">
        <ele>1722.2</ele>
        <time>2022-01-19T13:18:37Z</time>
      </trkpt>
      <trkpt lat="44.88242" lon="5.51457">
        <ele>1722.2</ele>
        <time>2022-01-19T13:18:38Z</time>
      </trkpt>
      <trkpt lat="44.88242" lon="5.51457">
        <ele>1722.2</ele>
        <time>2022-01-19T13:18:39Z</time>
      </trkpt>
      <trkpt lat="44.88242" lon="5.51457">
        <ele>1722.2</ele>
        <time>2022-01-19T13:18:40Z</time>
      </trkpt>
      <trkpt lat="44.88242" lon="5.51457">
        <ele>1722.2</ele>
        <time>2022-01-19T13:18:41Z</time>
      </trkpt>
      <trkpt lat="44.88242" lon="5.51457">
        <ele>1722.2</ele>
        <time>2022-01-19T13:18:42Z</time>
      </trkpt>
      <trkpt lat="44.88242" lon="5.51457">
        <ele>1722.2</ele>
        <time>2022-01-19T13:18:43Z</time>
      </trkpt>
      <trkpt lat="44.88242" lon="5.51457">
        <ele>1722.2</ele>
        <time>2022-01-19T13:18:44Z</time>
      </trkpt>
      <trkpt lat="44.88242" lon="5.51457">
        <ele>1722.2</ele>
        <time>2022-01-19T13:18:45Z</time>
      </trkpt>
      <trkpt lat="44.88242" lon="5.51457">
        <ele>1722.2</ele>
        <time>2022-01-19T13:18:46Z</time>
      </trkpt>
      <trkpt lat="44.88242" lon="5.51457">
        <ele>1722.2</ele>
        <time>2022-01-19T13:18:47Z</time>
      </trkpt>
      <trkpt lat="44.88242" lon="5.51457">
        <ele>1722.2</ele>
        <time>2022-01-19T13:18:48Z</time>
      </trkpt>
      <trkpt lat="44.88242" lon="5.51457">
        <ele>1722.2</ele>
        <time>2022-01-19T13:18:49Z</time>
      </trkpt>
      <trkpt lat="44.88242" lon="5.51457">
        <ele>1722.2</ele>
        <time>2022-01-19T13:18:50Z</time>
      </trkpt>
      <trkpt lat="44.88242" lon="5.51457">
        <ele>1722.2</ele>
        <time>2022-01-19T13:18:51Z</time>
      </trkpt>
      <trkpt lat="44.88242" lon="5.51457">
        <ele>1722.2</ele>
        <time>2022-01-19T13:18:52Z</time>
      </trkpt>
      <trkpt lat="44.88242" lon="5.51457">
        <ele>1722.2</ele>
        <time>2022-01-19T13:18:53Z</time>
      </trkpt>
      <trkpt lat="44.88242" lon="5.51457">
        <ele>1722.2</ele>
        <time>2022-01-19T13:18:54Z</time>
      </trkpt>
      <trkpt lat="44.88242" lon="5.51457">
        <ele>1722.2</ele>
        <time>2022-01-19T13:18:55Z</time>
      </trkpt>
      <trkpt lat="44.88242" lon="5.51457">
        <ele>1722.2</ele>
        <time>2022-01-19T13:18:56Z</time>
      </trkpt>
      <trkpt lat="44.88242" lon="5.51457">
        <ele>1722.2</ele>
        <time>2022-01-19T13:18:57Z</time>
      </trkpt>
      <trkpt lat="44.88242" lon="5.51457">
        <ele>1722.2</ele>
        <time>2022-01-19T13:18:58Z</time>
      </trkpt>
      <trkpt lat="44.88242" lon="5.51457">
        <ele>1722.2</ele>
        <time>2022-01-19T13:18:59Z</time>
      </trkpt>
      <trkpt lat="44.88242" lon="5.51457">
        <ele>1722.2</ele>
        <time>2022-01-19T13:19:00Z</time>
      </trkpt>
      <trkpt lat="44.88242" lon="5.51457">
        <ele>1722.2</ele>
        <time>2022-01-19T13:19:01Z</time>
      </trkpt>
      <trkpt lat="44.88242" lon="5.51457">
        <ele>1722.3</ele>
        <time>2022-01-19T13:19:02Z</time>
      </trkpt>
      <trkpt lat="44.88242" lon="5.51457">
        <ele>1722.3</ele>
        <time>2022-01-19T13:19:03Z</time>
      </trkpt>
      <trkpt lat="44.88242" lon="5.51457">
        <ele>1722.3</ele>
        <time>2022-01-19T13:19:04Z</time>
      </trkpt>
      <trkpt lat="44.88242" lon="5.51457">
        <ele>1722.3</ele>
        <time>2022-01-19T13:19:05Z</time>
      </trkpt>
      <trkpt lat="44.88242" lon="5.51457">
        <ele>1722.3</ele>
        <time>2022-01-19T13:19:06Z</time>
      </trkpt>
      <trkpt lat="44.88242" lon="5.51458">
        <ele>1722.3</ele>
        <time>2022-01-19T13:19:07Z</time>
      </trkpt>
      <trkpt lat="44.88242" lon="5.51458">
        <ele>1722.3</ele>
        <time>2022-01-19T13:19:08Z</time>
      </trkpt>
      <trkpt lat="44.88242" lon="5.51458">
        <ele>1722.3</ele>
        <time>2022-01-19T13:19:09Z</time>
      </trkpt>
      <trkpt lat="44.88242" lon="5.51458">
        <ele>1722.3</ele>
        <time>2022-01-19T13:19:10Z</time>
      </trkpt>
      <trkpt lat="44.88242" lon="5.51458">
        <ele>1722.3</ele>
        <time>2022-01-19T13:19:11Z</time>
      </trkpt>
      <trkpt lat="44.88242" lon="5.51458">
        <ele>1722.3</ele>
        <time>2022-01-19T13:19:12Z</time>
      </trkpt>
      <trkpt lat="44.88242" lon="5.51458">
        <ele>1722.3</ele>
        <time>2022-01-19T13:19:13Z</time>
      </trkpt>
      <trkpt lat="44.88242" lon="5.51458">
        <ele>1722.3</ele>
        <time>2022-01-19T13:19:14Z</time>
      </trkpt>
      <trkpt lat="44.88242" lon="5.51458">
        <ele>1722.3</ele>
        <time>2022-01-19T13:19:15Z</time>
      </trkpt>
      <trkpt lat="44.88242" lon="5.51458">
        <ele>1722.3</ele>
        <time>2022-01-19T13:19:16Z</time>
      </trkpt>
      <trkpt lat="44.88242" lon="5.51458">
        <ele>1722.3</ele>
        <time>2022-01-19T13:19:17Z</time>
      </trkpt>
      <trkpt lat="44.88242" lon="5.51458">
        <ele>1722.3</ele>
        <time>2022-01-19T13:19:18Z</time>
      </trkpt>
      <trkpt lat="44.88242" lon="5.51458">
        <ele>1722.3</ele>
        <time>2022-01-19T13:19:19Z</time>
      </trkpt>
      <trkpt lat="44.88242" lon="5.51458">
        <ele>1722.3</ele>
        <time>2022-01-19T13:19:20Z</time>
      </trkpt>
      <trkpt lat="44.88242" lon="5.51458">
        <ele>1722.3</ele>
        <time>2022-01-19T13:19:21Z</time>
      </trkpt>
      <trkpt lat="44.88242" lon="5.51458">
        <ele>1722.3</ele>
        <time>2022-01-19T13:19:22Z</time>
      </trkpt>
      <trkpt lat="44.88242" lon="5.51458">
        <ele>1723.1</ele>
        <time>2022-01-19T13:19:23Z</time>
      </trkpt>
      <trkpt lat="44.88242" lon="5.51458">
        <ele>1723.1</ele>
        <time>2022-01-19T13:19:24Z</time>
      </trkpt>
      <trkpt lat="44.88243" lon="5.51458">
        <ele>1723.1</ele>
        <time>2022-01-19T13:19:25Z</time>
      </trkpt>
      <trkpt lat="44.88243" lon="5.51458">
        <ele>1723.1</ele>
        <time>2022-01-19T13:19:26Z</time>
      </trkpt>
      <trkpt lat="44.88243" lon="5.51458">
        <ele>1723.1</ele>
        <time>2022-01-19T13:19:27Z</time>
      </trkpt>
      <trkpt lat="44.88243" lon="5.51458">
        <ele>1723.1</ele>
        <time>2022-01-19T13:19:28Z</time>
      </trkpt>
      <trkpt lat="44.88243" lon="5.51458">
        <ele>1723.1</ele>
        <time>2022-01-19T13:19:29Z</time>
      </trkpt>
      <trkpt lat="44.88243" lon="5.51458">
        <ele>1723.1</ele>
        <time>2022-01-19T13:19:30Z</time>
      </trkpt>
      <trkpt lat="44.88243" lon="5.51458">
        <ele>1723.1</ele>
        <time>2022-01-19T13:19:31Z</time>
      </trkpt>
      <trkpt lat="44.88243" lon="5.51458">
        <ele>1723.1</ele>
        <time>2022-01-19T13:19:32Z</time>
      </trkpt>
      <trkpt lat="44.88243" lon="5.51458">
        <ele>1723.1</ele>
        <time>2022-01-19T13:19:33Z</time>
      </trkpt>
      <trkpt lat="44.88243" lon="5.51458">
        <ele>1723.1</ele>
        <time>2022-01-19T13:19:34Z</time>
      </trkpt>
      <trkpt lat="44.88243" lon="5.51458">
        <ele>1723.1</ele>
        <time>2022-01-19T13:19:35Z</time>
      </trkpt>
      <trkpt lat="44.88243" lon="5.51458">
        <ele>1723.1</ele>
        <time>2022-01-19T13:19:36Z</time>
      </trkpt>
      <trkpt lat="44.88243" lon="5.51458">
        <ele>1723.1</ele>
        <time>2022-01-19T13:19:37Z</time>
      </trkpt>
      <trkpt lat="44.88243" lon="5.51458">
        <ele>1723.1</ele>
        <time>2022-01-19T13:19:38Z</time>
      </trkpt>
      <trkpt lat="44.88243" lon="5.51458">
        <ele>1723.1</ele>
        <time>2022-01-19T13:19:39Z</time>
      </trkpt>
      <trkpt lat="44.88243" lon="5.51458">
        <ele>1723.1</ele>
        <time>2022-01-19T13:19:40Z</time>
      </trkpt>
      <trkpt lat="44.88243" lon="5.51458">
        <ele>1723.1</ele>
        <time>2022-01-19T13:19:41Z</time>
      </trkpt>
      <trkpt lat="44.88243" lon="5.51458">
        <ele>1723.1</ele>
        <time>2022-01-19T13:19:42Z</time>
      </trkpt>
      <trkpt lat="44.88243" lon="5.51458">
        <ele>1723.1</ele>
        <time>2022-01-19T13:19:43Z</time>
      </trkpt>
      <trkpt lat="44.88243" lon="5.51458">
        <ele>1723.1</ele>
        <time>2022-01-19T13:19:44Z</time>
      </trkpt>
      <trkpt lat="44.88243" lon="5.51458">
        <ele>1723.1</ele>
        <time>2022-01-19T13:19:45Z</time>
      </trkpt>
      <trkpt lat="44.88243" lon="5.51458">
        <ele>1723.1</ele>
        <time>2022-01-19T13:19:46Z</time>
      </trkpt>
      <trkpt lat="44.88243" lon="5.51458">
        <ele>1723.1</ele>
        <time>2022-01-19T13:19:47Z</time>
      </trkpt>
      <trkpt lat="44.88243" lon="5.51459">
        <ele>1723.1</ele>
        <time>2022-01-19T13:19:48Z</time>
      </trkpt>
      <trkpt lat="44.88243" lon="5.51459">
        <ele>1723.1</ele>
        <time>2022-01-19T13:19:49Z</time>
      </trkpt>
      <trkpt lat="44.88243" lon="5.51459">
        <ele>1723.1</ele>
        <time>2022-01-19T13:19:50Z</time>
      </trkpt>
      <trkpt lat="44.88243" lon="5.51459">
        <ele>1723.1</ele>
        <time>2022-01-19T13:19:51Z</time>
      </trkpt>
      <trkpt lat="44.88243" lon="5.51459">
        <ele>1723.1</ele>
        <time>2022-01-19T13:19:52Z</time>
      </trkpt>
      <trkpt lat="44.88243" lon="5.51459">
        <ele>1723.1</ele>
        <time>2022-01-19T13:19:53Z</time>
      </trkpt>
      <trkpt lat="44.88243" lon="5.51459">
        <ele>1723.1</ele>
        <time>2022-01-19T13:19:54Z</time>
      </trkpt>
      <trkpt lat="44.88243" lon="5.51459">
        <ele>1723.1</ele>
        <time>2022-01-19T13:19:55Z</time>
      </trkpt>
      <trkpt lat="44.88243" lon="5.51459">
        <ele>1723.1</ele>
        <time>2022-01-19T13:19:56Z</time>
      </trkpt>
      <trkpt lat="44.88243" lon="5.51459">
        <ele>1723.1</ele>
        <time>2022-01-19T13:19:57Z</time>
      </trkpt>
      <trkpt lat="44.88243" lon="5.51459">
        <ele>1723.1</ele>
        <time>2022-01-19T13:19:58Z</time>
      </trkpt>
      <trkpt lat="44.88243" lon="5.51459">
        <ele>1723.1</ele>
        <time>2022-01-19T13:19:59Z</time>
      </trkpt>
      <trkpt lat="44.88243" lon="5.51459">
        <ele>1723.1</ele>
        <time>2022-01-19T13:20:00Z</time>
      </trkpt>
      <trkpt lat="44.88243" lon="5.51459">
        <ele>1723.1</ele>
        <time>2022-01-19T13:20:01Z</time>
      </trkpt>
      <trkpt lat="44.88243" lon="5.51459">
        <ele>1723.1</ele>
        <time>2022-01-19T13:20:02Z</time>
      </trkpt>
      <trkpt lat="44.88243" lon="5.51459">
        <ele>1723.1</ele>
        <time>2022-01-19T13:20:03Z</time>
      </trkpt>
      <trkpt lat="44.88243" lon="5.51459">
        <ele>1723.1</ele>
        <time>2022-01-19T13:20:04Z</time>
      </trkpt>
      <trkpt lat="44.88243" lon="5.51459">
        <ele>1723.1</ele>
        <time>2022-01-19T13:20:05Z</time>
      </trkpt>
      <trkpt lat="44.88243" lon="5.51459">
        <ele>1723.1</ele>
        <time>2022-01-19T13:20:06Z</time>
      </trkpt>
      <trkpt lat="44.88243" lon="5.51459">
        <ele>1723.1</ele>
        <time>2022-01-19T13:20:07Z</time>
      </trkpt>
      <trkpt lat="44.88243" lon="5.51459">
        <ele>1723.1</ele>
        <time>2022-01-19T13:20:08Z</time>
      </trkpt>
      <trkpt lat="44.88243" lon="5.51459">
        <ele>1723.1</ele>
        <time>2022-01-19T13:20:09Z</time>
      </trkpt>
      <trkpt lat="44.88243" lon="5.51459">
        <ele>1723.1</ele>
        <time>2022-01-19T13:20:10Z</time>
      </trkpt>
      <trkpt lat="44.88243" lon="5.51459">
        <ele>1723.1</ele>
        <time>2022-01-19T13:20:11Z</time>
      </trkpt>
      <trkpt lat="44.88243" lon="5.51459">
        <ele>1723.1</ele>
        <time>2022-01-19T13:20:12Z</time>
      </trkpt>
      <trkpt lat="44.88243" lon="5.51459">
        <ele>1723.1</ele>
        <time>2022-01-19T13:20:13Z</time>
      </trkpt>
      <trkpt lat="44.88243" lon="5.51459">
        <ele>1723.1</ele>
        <time>2022-01-19T13:20:14Z</time>
      </trkpt>
      <trkpt lat="44.88243" lon="5.51459">
        <ele>1723.1</ele>
        <time>2022-01-19T13:20:15Z</time>
      </trkpt>
      <trkpt lat="44.88243" lon="5.51459">
        <ele>1723.1</ele>
        <time>2022-01-19T13:20:16Z</time>
      </trkpt>
      <trkpt lat="44.88243" lon="5.51459">
        <ele>1723.1</ele>
        <time>2022-01-19T13:20:17Z</time>
      </trkpt>
      <trkpt lat="44.88243" lon="5.51459">
        <ele>1723.1</ele>
        <time>2022-01-19T13:20:18Z</time>
      </trkpt>
      <trkpt lat="44.88243" lon="5.51459">
        <ele>1723.1</ele>
        <time>2022-01-19T13:20:19Z</time>
      </trkpt>
      <trkpt lat="44.88243" lon="5.51459">
        <ele>1723.1</ele>
        <time>2022-01-19T13:20:20Z</time>
      </trkpt>
      <trkpt lat="44.88243" lon="5.51459">
        <ele>1723.1</ele>
        <time>2022-01-19T13:20:21Z</time>
      </trkpt>
      <trkpt lat="44.88243" lon="5.51459">
        <ele>1723.1</ele>
        <time>2022-01-19T13:20:22Z</time>
      </trkpt>
      <trkpt lat="44.88243" lon="5.51459">
        <ele>1723.1</ele>
        <time>2022-01-19T13:20:23Z</time>
      </trkpt>
      <trkpt lat="44.88243" lon="5.51459">
        <ele>1723.1</ele>
        <time>2022-01-19T13:20:24Z</time>
      </trkpt>
      <trkpt lat="44.88243" lon="5.51459">
        <ele>1723.1</ele>
        <time>2022-01-19T13:20:25Z</time>
      </trkpt>
      <trkpt lat="44.88243" lon="5.51459">
        <ele>1723.1</ele>
        <time>2022-01-19T13:20:26Z</time>
      </trkpt>
      <trkpt lat="44.88243" lon="5.51459">
        <ele>1723.1</ele>
        <time>2022-01-19T13:20:27Z</time>
      </trkpt>
      <trkpt lat="44.88243" lon="5.5146">
        <ele>1723.1</ele>
        <time>2022-01-19T13:20:28Z</time>
      </trkpt>
      <trkpt lat="44.88243" lon="5.5146">
        <ele>1723.1</ele>
        <time>2022-01-19T13:20:29Z</time>
      </trkpt>
      <trkpt lat="44.88243" lon="5.5146">
        <ele>1723.1</ele>
        <time>2022-01-19T13:20:30Z</time>
      </trkpt>
      <trkpt lat="44.88243" lon="5.5146">
        <ele>1723.1</ele>
        <time>2022-01-19T13:20:31Z</time>
      </trkpt>
      <trkpt lat="44.88243" lon="5.5146">
        <ele>1723.1</ele>
        <time>2022-01-19T13:20:32Z</time>
      </trkpt>
      <trkpt lat="44.88243" lon="5.5146">
        <ele>1723.1</ele>
        <time>2022-01-19T13:20:33Z</time>
      </trkpt>
      <trkpt lat="44.88243" lon="5.5146">
        <ele>1723.1</ele>
        <time>2022-01-19T13:20:34Z</time>
      </trkpt>
      <trkpt lat="44.88243" lon="5.5146">
        <ele>1723.1</ele>
        <time>2022-01-19T13:20:35Z</time>
      </trkpt>
      <trkpt lat="44.88243" lon="5.5146">
        <ele>1723.1</ele>
        <time>2022-01-19T13:20:36Z</time>
      </trkpt>
      <trkpt lat="44.88243" lon="5.5146">
        <ele>1723.1</ele>
        <time>2022-01-19T13:20:37Z</time>
      </trkpt>
      <trkpt lat="44.88243" lon="5.5146">
        <ele>1723.1</ele>
        <time>2022-01-19T13:20:38Z</time>
      </trkpt>
      <trkpt lat="44.88243" lon="5.5146">
        <ele>1723.1</ele>
        <time>2022-01-19T13:20:39Z</time>
      </trkpt>
      <trkpt lat="44.88243" lon="5.5146">
        <ele>1723.1</ele>
        <time>2022-01-19T13:20:40Z</time>
      </trkpt>
      <trkpt lat="44.88244" lon="5.5146">
        <ele>1723.1</ele>
        <time>2022-01-19T13:20:41Z</time>
      </trkpt>
      <trkpt lat="44.88244" lon="5.5146">
        <ele>1723.1</ele>
        <time>2022-01-19T13:20:42Z</time>
      </trkpt>
      <trkpt lat="44.88244" lon="5.5146">
        <ele>1723.1</ele>
        <time>2022-01-19T13:20:43Z</time>
      </trkpt>
      <trkpt lat="44.88244" lon="5.5146">
        <ele>1723.1</ele>
        <time>2022-01-19T13:20:44Z</time>
      </trkpt>
      <trkpt lat="44.88244" lon="5.5146">
        <ele>1723.1</ele>
        <time>2022-01-19T13:20:45Z</time>
      </trkpt>
      <trkpt lat="44.88244" lon="5.5146">
        <ele>1723.1</ele>
        <time>2022-01-19T13:20:46Z</time>
      </trkpt>
      <trkpt lat="44.88244" lon="5.5146">
        <ele>1723.1</ele>
        <time>2022-01-19T13:20:47Z</time>
      </trkpt>
      <trkpt lat="44.88244" lon="5.5146">
        <ele>1723.1</ele>
        <time>2022-01-19T13:20:48Z</time>
      </trkpt>
      <trkpt lat="44.88244" lon="5.5146">
        <ele>1723.1</ele>
        <time>2022-01-19T13:20:49Z</time>
      </trkpt>
      <trkpt lat="44.88244" lon="5.5146">
        <ele>1723.1</ele>
        <time>2022-01-19T13:20:50Z</time>
      </trkpt>
      <trkpt lat="44.88244" lon="5.5146">
        <ele>1723.1</ele>
        <time>2022-01-19T13:20:51Z</time>
      </trkpt>
      <trkpt lat="44.88244" lon="5.5146">
        <ele>1723.1</ele>
        <time>2022-01-19T13:20:52Z</time>
      </trkpt>
      <trkpt lat="44.88244" lon="5.5146">
        <ele>1723.1</ele>
        <time>2022-01-19T13:20:53Z</time>
      </trkpt>
      <trkpt lat="44.88244" lon="5.5146">
        <ele>1723.1</ele>
        <time>2022-01-19T13:20:54Z</time>
      </trkpt>
      <trkpt lat="44.88244" lon="5.5146">
        <ele>1723.1</ele>
        <time>2022-01-19T13:20:55Z</time>
      </trkpt>
      <trkpt lat="44.88244" lon="5.5146">
        <ele>1723.1</ele>
        <time>2022-01-19T13:20:56Z</time>
      </trkpt>
      <trkpt lat="44.88244" lon="5.5146">
        <ele>1723.1</ele>
        <time>2022-01-19T13:20:57Z</time>
      </trkpt>
      <trkpt lat="44.88244" lon="5.5146">
        <ele>1723.1</ele>
        <time>2022-01-19T13:20:58Z</time>
      </trkpt>
      <trkpt lat="44.88244" lon="5.5146">
        <ele>1723.1</ele>
        <time>2022-01-19T13:20:59Z</time>
      </trkpt>
      <trkpt lat="44.88244" lon="5.5146">
        <ele>1723.1</ele>
        <time>2022-01-19T13:21:00Z</time>
      </trkpt>
      <trkpt lat="44.88244" lon="5.5146">
        <ele>1723.1</ele>
        <time>2022-01-19T13:21:01Z</time>
      </trkpt>
      <trkpt lat="44.88244" lon="5.5146">
        <ele>1723.1</ele>
        <time>2022-01-19T13:21:02Z</time>
      </trkpt>
      <trkpt lat="44.88244" lon="5.5146">
        <ele>1723.1</ele>
        <time>2022-01-19T13:21:03Z</time>
      </trkpt>
      <trkpt lat="44.88244" lon="5.5146">
        <ele>1723.1</ele>
        <time>2022-01-19T13:21:04Z</time>
      </trkpt>
      <trkpt lat="44.88244" lon="5.5146">
        <ele>1723.1</ele>
        <time>2022-01-19T13:21:05Z</time>
      </trkpt>
      <trkpt lat="44.88244" lon="5.5146">
        <ele>1723.1</ele>
        <time>2022-01-19T13:21:06Z</time>
      </trkpt>
      <trkpt lat="44.88244" lon="5.5146">
        <ele>1723.1</ele>
        <time>2022-01-19T13:21:07Z</time>
      </trkpt>
      <trkpt lat="44.88244" lon="5.51461">
        <ele>1723.1</ele>
        <time>2022-01-19T13:21:08Z</time>
      </trkpt>
      <trkpt lat="44.88244" lon="5.51461">
        <ele>1723.1</ele>
        <time>2022-01-19T13:21:09Z</time>
      </trkpt>
      <trkpt lat="44.88244" lon="5.51461">
        <ele>1723.1</ele>
        <time>2022-01-19T13:21:10Z</time>
      </trkpt>
      <trkpt lat="44.88244" lon="5.51461">
        <ele>1723.1</ele>
        <time>2022-01-19T13:21:11Z</time>
      </trkpt>
      <trkpt lat="44.88244" lon="5.51461">
        <ele>1723.1</ele>
        <time>2022-01-19T13:21:12Z</time>
      </trkpt>
      <trkpt lat="44.88244" lon="5.51461">
        <ele>1723.1</ele>
        <time>2022-01-19T13:21:13Z</time>
      </trkpt>
      <trkpt lat="44.88244" lon="5.51461">
        <ele>1723.1</ele>
        <time>2022-01-19T13:21:14Z</time>
      </trkpt>
      <trkpt lat="44.88244" lon="5.51461">
        <ele>1723.1</ele>
        <time>2022-01-19T13:21:15Z</time>
      </trkpt>
      <trkpt lat="44.88244" lon="5.51461">
        <ele>1723.1</ele>
        <time>2022-01-19T13:21:16Z</time>
      </trkpt>
      <trkpt lat="44.88244" lon="5.51461">
        <ele>1723.1</ele>
        <time>2022-01-19T13:21:17Z</time>
      </trkpt>
      <trkpt lat="44.88244" lon="5.51461">
        <ele>1723.1</ele>
        <time>2022-01-19T13:21:18Z</time>
      </trkpt>
      <trkpt lat="44.88244" lon="5.51461">
        <ele>1723.1</ele>
        <time>2022-01-19T13:21:19Z</time>
      </trkpt>
      <trkpt lat="44.88244" lon="5.51461">
        <ele>1723.1</ele>
        <time>2022-01-19T13:21:20Z</time>
      </trkpt>
      <trkpt lat="44.88244" lon="5.51461">
        <ele>1723.1</ele>
        <time>2022-01-19T13:21:21Z</time>
      </trkpt>
      <trkpt lat="44.88244" lon="5.51461">
        <ele>1723.1</ele>
        <time>2022-01-19T13:21:22Z</time>
      </trkpt>
      <trkpt lat="44.88244" lon="5.51461">
        <ele>1723.1</ele>
        <time>2022-01-19T13:21:23Z</time>
      </trkpt>
      <trkpt lat="44.88244" lon="5.51461">
        <ele>1723.1</ele>
        <time>2022-01-19T13:21:24Z</time>
      </trkpt>
      <trkpt lat="44.88244" lon="5.51461">
        <ele>1723.1</ele>
        <time>2022-01-19T13:21:25Z</time>
      </trkpt>
      <trkpt lat="44.88244" lon="5.51461">
        <ele>1723.1</ele>
        <time>2022-01-19T13:21:26Z</time>
      </trkpt>
      <trkpt lat="44.88244" lon="5.51461">
        <ele>1723.1</ele>
        <time>2022-01-19T13:21:27Z</time>
      </trkpt>
      <trkpt lat="44.88244" lon="5.51461">
        <ele>1723.1</ele>
        <time>2022-01-19T13:21:28Z</time>
      </trkpt>
      <trkpt lat="44.88244" lon="5.51461">
        <ele>1723.1</ele>
        <time>2022-01-19T13:21:29Z</time>
      </trkpt>
      <trkpt lat="44.88244" lon="5.51461">
        <ele>1723.1</ele>
        <time>2022-01-19T13:21:30Z</time>
      </trkpt>
      <trkpt lat="44.88244" lon="5.51461">
        <ele>1723.1</ele>
        <time>2022-01-19T13:21:31Z</time>
      </trkpt>
      <trkpt lat="44.88244" lon="5.51461">
        <ele>1723.1</ele>
        <time>2022-01-19T13:21:32Z</time>
      </trkpt>
      <trkpt lat="44.88244" lon="5.51461">
        <ele>1723.1</ele>
        <time>2022-01-19T13:21:33Z</time>
      </trkpt>
      <trkpt lat="44.88244" lon="5.51461">
        <ele>1723.1</ele>
        <time>2022-01-19T13:21:34Z</time>
      </trkpt>
      <trkpt lat="44.88244" lon="5.51461">
        <ele>1723.1</ele>
        <time>2022-01-19T13:21:35Z</time>
      </trkpt>
      <trkpt lat="44.88244" lon="5.51461">
        <ele>1723.1</ele>
        <time>2022-01-19T13:21:36Z</time>
      </trkpt>
      <trkpt lat="44.88244" lon="5.51461">
        <ele>1723.1</ele>
        <time>2022-01-19T13:21:37Z</time>
      </trkpt>
      <trkpt lat="44.88244" lon="5.51461">
        <ele>1723.1</ele>
        <time>2022-01-19T13:21:38Z</time>
      </trkpt>
      <trkpt lat="44.88244" lon="5.51461">
        <ele>1723.1</ele>
        <time>2022-01-19T13:21:39Z</time>
      </trkpt>
      <trkpt lat="44.88244" lon="5.51461">
        <ele>1723.1</ele>
        <time>2022-01-19T13:21:40Z</time>
      </trkpt>
      <trkpt lat="44.88244" lon="5.51461">
        <ele>1723.1</ele>
        <time>2022-01-19T13:21:41Z</time>
      </trkpt>
      <trkpt lat="44.88244" lon="5.51461">
        <ele>1723.1</ele>
        <time>2022-01-19T13:21:42Z</time>
      </trkpt>
      <trkpt lat="44.88244" lon="5.51461">
        <ele>1723.1</ele>
        <time>2022-01-19T13:21:43Z</time>
      </trkpt>
      <trkpt lat="44.88244" lon="5.51461">
        <ele>1723.1</ele>
        <time>2022-01-19T13:21:44Z</time>
      </trkpt>
      <trkpt lat="44.88244" lon="5.51461">
        <ele>1723.1</ele>
        <time>2022-01-19T13:21:45Z</time>
      </trkpt>
      <trkpt lat="44.88244" lon="5.51461">
        <ele>1723.1</ele>
        <time>2022-01-19T13:21:46Z</time>
      </trkpt>
      <trkpt lat="44.88244" lon="5.51461">
        <ele>1723.1</ele>
        <time>2022-01-19T13:21:47Z</time>
      </trkpt>
      <trkpt lat="44.88244" lon="5.51461">
        <ele>1723.1</ele>
        <time>2022-01-19T13:21:48Z</time>
      </trkpt>
      <trkpt lat="44.88244" lon="5.51462">
        <ele>1723.1</ele>
        <time>2022-01-19T13:21:49Z</time>
      </trkpt>
      <trkpt lat="44.88244" lon="5.51462">
        <ele>1723.1</ele>
        <time>2022-01-19T13:21:50Z</time>
      </trkpt>
      <trkpt lat="44.88244" lon="5.51462">
        <ele>1723.1</ele>
        <time>2022-01-19T13:21:51Z</time>
      </trkpt>
      <trkpt lat="44.88244" lon="5.51462">
        <ele>1723.1</ele>
        <time>2022-01-19T13:21:52Z</time>
      </trkpt>
      <trkpt lat="44.88244" lon="5.51462">
        <ele>1723.1</ele>
        <time>2022-01-19T13:21:53Z</time>
      </trkpt>
      <trkpt lat="44.88244" lon="5.51462">
        <ele>1723.1</ele>
        <time>2022-01-19T13:21:54Z</time>
      </trkpt>
      <trkpt lat="44.88244" lon="5.51462">
        <ele>1723.1</ele>
        <time>2022-01-19T13:21:55Z</time>
      </trkpt>
      <trkpt lat="44.88244" lon="5.51462">
        <ele>1723.1</ele>
        <time>2022-01-19T13:21:56Z</time>
      </trkpt>
      <trkpt lat="44.88245" lon="5.51462">
        <ele>1723.1</ele>
        <time>2022-01-19T13:21:57Z</time>
      </trkpt>
      <trkpt lat="44.88245" lon="5.51462">
        <ele>1723.1</ele>
        <time>2022-01-19T13:21:58Z</time>
      </trkpt>
      <trkpt lat="44.88245" lon="5.51462">
        <ele>1723.1</ele>
        <time>2022-01-19T13:21:59Z</time>
      </trkpt>
      <trkpt lat="44.88245" lon="5.51462">
        <ele>1723.1</ele>
        <time>2022-01-19T13:22:00Z</time>
      </trkpt>
      <trkpt lat="44.88245" lon="5.51462">
        <ele>1723.1</ele>
        <time>2022-01-19T13:22:01Z</time>
      </trkpt>
      <trkpt lat="44.88245" lon="5.51462">
        <ele>1723.1</ele>
        <time>2022-01-19T13:22:02Z</time>
      </trkpt>
      <trkpt lat="44.88245" lon="5.51462">
        <ele>1723.1</ele>
        <time>2022-01-19T13:22:03Z</time>
      </trkpt>
      <trkpt lat="44.88245" lon="5.51462">
        <ele>1723.1</ele>
        <time>2022-01-19T13:22:04Z</time>
      </trkpt>
      <trkpt lat="44.88245" lon="5.51462">
        <ele>1723.1</ele>
        <time>2022-01-19T13:22:05Z</time>
      </trkpt>
      <trkpt lat="44.88245" lon="5.51462">
        <ele>1723.1</ele>
        <time>2022-01-19T13:22:06Z</time>
      </trkpt>
      <trkpt lat="44.88245" lon="5.51462">
        <ele>1723.1</ele>
        <time>2022-01-19T13:22:07Z</time>
      </trkpt>
      <trkpt lat="44.88245" lon="5.51462">
        <ele>1723.1</ele>
        <time>2022-01-19T13:22:08Z</time>
      </trkpt>
      <trkpt lat="44.88245" lon="5.51462">
        <ele>1723.1</ele>
        <time>2022-01-19T13:22:09Z</time>
      </trkpt>
      <trkpt lat="44.88245" lon="5.51462">
        <ele>1723.1</ele>
        <time>2022-01-19T13:22:10Z</time>
      </trkpt>
      <trkpt lat="44.88245" lon="5.51462">
        <ele>1723.1</ele>
        <time>2022-01-19T13:22:11Z</time>
      </trkpt>
      <trkpt lat="44.88245" lon="5.51462">
        <ele>1723.1</ele>
        <time>2022-01-19T13:22:12Z</time>
      </trkpt>
      <trkpt lat="44.88245" lon="5.51462">
        <ele>1723.1</ele>
        <time>2022-01-19T13:22:13Z</time>
      </trkpt>
      <trkpt lat="44.88245" lon="5.51462">
        <ele>1723.1</ele>
        <time>2022-01-19T13:22:14Z</time>
      </trkpt>
      <trkpt lat="44.88245" lon="5.51462">
        <ele>1723.1</ele>
        <time>2022-01-19T13:22:15Z</time>
      </trkpt>
      <trkpt lat="44.88245" lon="5.51462">
        <ele>1723.1</ele>
        <time>2022-01-19T13:22:16Z</time>
      </trkpt>
      <trkpt lat="44.88245" lon="5.51462">
        <ele>1723.8</ele>
        <time>2022-01-19T13:22:17Z</time>
      </trkpt>
      <trkpt lat="44.88245" lon="5.51462">
        <ele>1723.8</ele>
        <time>2022-01-19T13:22:18Z</time>
      </trkpt>
      <trkpt lat="44.88245" lon="5.51462">
        <ele>1723.8</ele>
        <time>2022-01-19T13:22:19Z</time>
      </trkpt>
      <trkpt lat="44.88245" lon="5.51462">
        <ele>1723.8</ele>
        <time>2022-01-19T13:22:20Z</time>
      </trkpt>
      <trkpt lat="44.88245" lon="5.51462">
        <ele>1723.8</ele>
        <time>2022-01-19T13:22:21Z</time>
      </trkpt>
      <trkpt lat="44.88245" lon="5.51462">
        <ele>1723.8</ele>
        <time>2022-01-19T13:22:22Z</time>
      </trkpt>
      <trkpt lat="44.88245" lon="5.51462">
        <ele>1723.8</ele>
        <time>2022-01-19T13:22:23Z</time>
      </trkpt>
      <trkpt lat="44.88245" lon="5.51462">
        <ele>1723.8</ele>
        <time>2022-01-19T13:22:24Z</time>
      </trkpt>
      <trkpt lat="44.88245" lon="5.51462">
        <ele>1723.8</ele>
        <time>2022-01-19T13:22:25Z</time>
      </trkpt>
      <trkpt lat="44.88245" lon="5.51462">
        <ele>1723.8</ele>
        <time>2022-01-19T13:22:26Z</time>
      </trkpt>
      <trkpt lat="44.88245" lon="5.51462">
        <ele>1723.8</ele>
        <time>2022-01-19T13:22:27Z</time>
      </trkpt>
      <trkpt lat="44.88245" lon="5.51462">
        <ele>1723.8</ele>
        <time>2022-01-19T13:22:28Z</time>
      </trkpt>
      <trkpt lat="44.88245" lon="5.51463">
        <ele>1723.8</ele>
        <time>2022-01-19T13:22:29Z</time>
      </trkpt>
      <trkpt lat="44.88245" lon="5.51463">
        <ele>1723.8</ele>
        <time>2022-01-19T13:22:30Z</time>
      </trkpt>
      <trkpt lat="44.88245" lon="5.51463">
        <ele>1723.8</ele>
        <time>2022-01-19T13:22:31Z</time>
      </trkpt>
      <trkpt lat="44.88245" lon="5.51463">
        <ele>1723.8</ele>
        <time>2022-01-19T13:22:32Z</time>
      </trkpt>
      <trkpt lat="44.88245" lon="5.51463">
        <ele>1723.8</ele>
        <time>2022-01-19T13:22:33Z</time>
      </trkpt>
      <trkpt lat="44.88245" lon="5.51463">
        <ele>1723.8</ele>
        <time>2022-01-19T13:22:34Z</time>
      </trkpt>
      <trkpt lat="44.88245" lon="5.51463">
        <ele>1723.8</ele>
        <time>2022-01-19T13:22:35Z</time>
      </trkpt>
      <trkpt lat="44.88245" lon="5.51463">
        <ele>1723.8</ele>
        <time>2022-01-19T13:22:36Z</time>
      </trkpt>
      <trkpt lat="44.88245" lon="5.51463">
        <ele>1723.8</ele>
        <time>2022-01-19T13:22:37Z</time>
      </trkpt>
      <trkpt lat="44.88245" lon="5.51463">
        <ele>1723.8</ele>
        <time>2022-01-19T13:22:38Z</time>
      </trkpt>
      <trkpt lat="44.88245" lon="5.51463">
        <ele>1723.8</ele>
        <time>2022-01-19T13:22:39Z</time>
      </trkpt>
      <trkpt lat="44.88245" lon="5.51463">
        <ele>1723.8</ele>
        <time>2022-01-19T13:22:40Z</time>
      </trkpt>
      <trkpt lat="44.88245" lon="5.51463">
        <ele>1723.8</ele>
        <time>2022-01-19T13:22:41Z</time>
      </trkpt>
      <trkpt lat="44.88245" lon="5.51463">
        <ele>1723.8</ele>
        <time>2022-01-19T13:22:42Z</time>
      </trkpt>
      <trkpt lat="44.88245" lon="5.51463">
        <ele>1723.8</ele>
        <time>2022-01-19T13:22:43Z</time>
      </trkpt>
      <trkpt lat="44.88245" lon="5.51463">
        <ele>1723.8</ele>
        <time>2022-01-19T13:22:44Z</time>
      </trkpt>
      <trkpt lat="44.88245" lon="5.51463">
        <ele>1723.8</ele>
        <time>2022-01-19T13:22:45Z</time>
      </trkpt>
      <trkpt lat="44.88245" lon="5.51463">
        <ele>1723.8</ele>
        <time>2022-01-19T13:22:46Z</time>
      </trkpt>
      <trkpt lat="44.88245" lon="5.51463">
        <ele>1723.8</ele>
        <time>2022-01-19T13:22:47Z</time>
      </trkpt>
      <trkpt lat="44.88245" lon="5.51463">
        <ele>1723.8</ele>
        <time>2022-01-19T13:22:48Z</time>
      </trkpt>
      <trkpt lat="44.88245" lon="5.51463">
        <ele>1723.8</ele>
        <time>2022-01-19T13:22:49Z</time>
      </trkpt>
      <trkpt lat="44.88245" lon="5.51463">
        <ele>1723.9</ele>
        <time>2022-01-19T13:22:50Z</time>
      </trkpt>
      <trkpt lat="44.88245" lon="5.51463">
        <ele>1723.9</ele>
        <time>2022-01-19T13:22:51Z</time>
      </trkpt>
      <trkpt lat="44.88245" lon="5.51463">
        <ele>1723.9</ele>
        <time>2022-01-19T13:22:52Z</time>
      </trkpt>
      <trkpt lat="44.88245" lon="5.51463">
        <ele>1723.9</ele>
        <time>2022-01-19T13:22:53Z</time>
      </trkpt>
      <trkpt lat="44.88245" lon="5.51463">
        <ele>1723.9</ele>
        <time>2022-01-19T13:22:54Z</time>
      </trkpt>
      <trkpt lat="44.88245" lon="5.51463">
        <ele>1723.9</ele>
        <time>2022-01-19T13:22:55Z</time>
      </trkpt>
      <trkpt lat="44.88245" lon="5.51463">
        <ele>1723.9</ele>
        <time>2022-01-19T13:22:56Z</time>
      </trkpt>
      <trkpt lat="44.88245" lon="5.51463">
        <ele>1723.9</ele>
        <time>2022-01-19T13:22:57Z</time>
      </trkpt>
      <trkpt lat="44.88245" lon="5.51463">
        <ele>1723.9</ele>
        <time>2022-01-19T13:22:58Z</time>
      </trkpt>
      <trkpt lat="44.88245" lon="5.51463">
        <ele>1723.9</ele>
        <time>2022-01-19T13:22:59Z</time>
      </trkpt>
      <trkpt lat="44.88245" lon="5.51463">
        <ele>1723.9</ele>
        <time>2022-01-19T13:23:00Z</time>
      </trkpt>
      <trkpt lat="44.88245" lon="5.51463">
        <ele>1723.9</ele>
        <time>2022-01-19T13:23:01Z</time>
      </trkpt>
      <trkpt lat="44.88245" lon="5.51463">
        <ele>1723.9</ele>
        <time>2022-01-19T13:23:02Z</time>
      </trkpt>
      <trkpt lat="44.88245" lon="5.51463">
        <ele>1723.9</ele>
        <time>2022-01-19T13:23:03Z</time>
      </trkpt>
      <trkpt lat="44.88245" lon="5.51463">
        <ele>1723.9</ele>
        <time>2022-01-19T13:23:04Z</time>
      </trkpt>
      <trkpt lat="44.88245" lon="5.51463">
        <ele>1723.9</ele>
        <time>2022-01-19T13:23:05Z</time>
      </trkpt>
      <trkpt lat="44.88245" lon="5.51463">
        <ele>1723.9</ele>
        <time>2022-01-19T13:23:06Z</time>
      </trkpt>
      <trkpt lat="44.88245" lon="5.51463">
        <ele>1723.9</ele>
        <time>2022-01-19T13:23:07Z</time>
      </trkpt>
      <trkpt lat="44.88245" lon="5.51463">
        <ele>1723.9</ele>
        <time>2022-01-19T13:23:08Z</time>
      </trkpt>
      <trkpt lat="44.88245" lon="5.51464">
        <ele>1723.9</ele>
        <time>2022-01-19T13:23:09Z</time>
      </trkpt>
      <trkpt lat="44.88245" lon="5.51464">
        <ele>1723.9</ele>
        <time>2022-01-19T13:23:10Z</time>
      </trkpt>
      <trkpt lat="44.88245" lon="5.51464">
        <ele>1723.9</ele>
        <time>2022-01-19T13:23:11Z</time>
      </trkpt>
      <trkpt lat="44.88245" lon="5.51464">
        <ele>1723.9</ele>
        <time>2022-01-19T13:23:12Z</time>
      </trkpt>
      <trkpt lat="44.88246" lon="5.51464">
        <ele>1723.9</ele>
        <time>2022-01-19T13:23:13Z</time>
      </trkpt>
      <trkpt lat="44.88246" lon="5.51464">
        <ele>1723.9</ele>
        <time>2022-01-19T13:23:14Z</time>
      </trkpt>
      <trkpt lat="44.88246" lon="5.51464">
        <ele>1723.9</ele>
        <time>2022-01-19T13:23:15Z</time>
      </trkpt>
      <trkpt lat="44.88246" lon="5.51464">
        <ele>1723.9</ele>
        <time>2022-01-19T13:23:16Z</time>
      </trkpt>
      <trkpt lat="44.88246" lon="5.51464">
        <ele>1723.9</ele>
        <time>2022-01-19T13:23:17Z</time>
      </trkpt>
      <trkpt lat="44.88246" lon="5.51464">
        <ele>1723.9</ele>
        <time>2022-01-19T13:23:18Z</time>
      </trkpt>
      <trkpt lat="44.88246" lon="5.51464">
        <ele>1723.9</ele>
        <time>2022-01-19T13:23:19Z</time>
      </trkpt>
      <trkpt lat="44.88246" lon="5.51464">
        <ele>1723.9</ele>
        <time>2022-01-19T13:23:20Z</time>
      </trkpt>
      <trkpt lat="44.88246" lon="5.51464">
        <ele>1723.9</ele>
        <time>2022-01-19T13:23:21Z</time>
      </trkpt>
      <trkpt lat="44.88246" lon="5.51464">
        <ele>1723.9</ele>
        <time>2022-01-19T13:23:22Z</time>
      </trkpt>
      <trkpt lat="44.88246" lon="5.51464">
        <ele>1723.9</ele>
        <time>2022-01-19T13:23:23Z</time>
      </trkpt>
      <trkpt lat="44.88246" lon="5.51464">
        <ele>1723.9</ele>
        <time>2022-01-19T13:23:24Z</time>
      </trkpt>
      <trkpt lat="44.88246" lon="5.51464">
        <ele>1723.9</ele>
        <time>2022-01-19T13:23:25Z</time>
      </trkpt>
      <trkpt lat="44.88246" lon="5.51464">
        <ele>1723.9</ele>
        <time>2022-01-19T13:23:26Z</time>
      </trkpt>
      <trkpt lat="44.88246" lon="5.51464">
        <ele>1723.9</ele>
        <time>2022-01-19T13:23:27Z</time>
      </trkpt>
      <trkpt lat="44.88246" lon="5.51464">
        <ele>1723.9</ele>
        <time>2022-01-19T13:23:28Z</time>
      </trkpt>
      <trkpt lat="44.88246" lon="5.51464">
        <ele>1723.9</ele>
        <time>2022-01-19T13:23:29Z</time>
      </trkpt>
      <trkpt lat="44.88246" lon="5.51464">
        <ele>1723.9</ele>
        <time>2022-01-19T13:23:30Z</time>
      </trkpt>
      <trkpt lat="44.88246" lon="5.51464">
        <ele>1723.9</ele>
        <time>2022-01-19T13:23:31Z</time>
      </trkpt>
      <trkpt lat="44.88246" lon="5.51464">
        <ele>1723.9</ele>
        <time>2022-01-19T13:23:32Z</time>
      </trkpt>
      <trkpt lat="44.88246" lon="5.51464">
        <ele>1723.9</ele>
        <time>2022-01-19T13:23:33Z</time>
      </trkpt>
      <trkpt lat="44.88246" lon="5.51464">
        <ele>1723.9</ele>
        <time>2022-01-19T13:23:34Z</time>
      </trkpt>
      <trkpt lat="44.88246" lon="5.51464">
        <ele>1723.9</ele>
        <time>2022-01-19T13:23:35Z</time>
      </trkpt>
      <trkpt lat="44.88246" lon="5.51464">
        <ele>1723.9</ele>
        <time>2022-01-19T13:23:36Z</time>
      </trkpt>
      <trkpt lat="44.88246" lon="5.51464">
        <ele>1723.9</ele>
        <time>2022-01-19T13:23:37Z</time>
      </trkpt>
      <trkpt lat="44.88246" lon="5.51464">
        <ele>1723.9</ele>
        <time>2022-01-19T13:23:38Z</time>
      </trkpt>
      <trkpt lat="44.88246" lon="5.51464">
        <ele>1723.9</ele>
        <time>2022-01-19T13:23:39Z</time>
      </trkpt>
      <trkpt lat="44.88246" lon="5.51464">
        <ele>1723.9</ele>
        <time>2022-01-19T13:23:40Z</time>
      </trkpt>
      <trkpt lat="44.88246" lon="5.51464">
        <ele>1723.9</ele>
        <time>2022-01-19T13:23:41Z</time>
      </trkpt>
      <trkpt lat="44.88246" lon="5.51464">
        <ele>1723.9</ele>
        <time>2022-01-19T13:23:42Z</time>
      </trkpt>
      <trkpt lat="44.88246" lon="5.51464">
        <ele>1723.9</ele>
        <time>2022-01-19T13:23:43Z</time>
      </trkpt>
      <trkpt lat="44.88246" lon="5.51464">
        <ele>1723.9</ele>
        <time>2022-01-19T13:23:44Z</time>
      </trkpt>
      <trkpt lat="44.88246" lon="5.51464">
        <ele>1723.9</ele>
        <time>2022-01-19T13:23:45Z</time>
      </trkpt>
      <trkpt lat="44.88246" lon="5.51464">
        <ele>1723.9</ele>
        <time>2022-01-19T13:23:46Z</time>
      </trkpt>
      <trkpt lat="44.88246" lon="5.51464">
        <ele>1723.9</ele>
        <time>2022-01-19T13:23:47Z</time>
      </trkpt>
      <trkpt lat="44.88246" lon="5.51464">
        <ele>1723.9</ele>
        <time>2022-01-19T13:23:48Z</time>
      </trkpt>
      <trkpt lat="44.88246" lon="5.51464">
        <ele>1723.9</ele>
        <time>2022-01-19T13:23:49Z</time>
      </trkpt>
      <trkpt lat="44.88246" lon="5.51465">
        <ele>1723.9</ele>
        <time>2022-01-19T13:23:50Z</time>
      </trkpt>
      <trkpt lat="44.88246" lon="5.51465">
        <ele>1723.9</ele>
        <time>2022-01-19T13:23:51Z</time>
      </trkpt>
      <trkpt lat="44.88246" lon="5.51465">
        <ele>1723.9</ele>
        <time>2022-01-19T13:23:52Z</time>
      </trkpt>
      <trkpt lat="44.88246" lon="5.51465">
        <ele>1723.9</ele>
        <time>2022-01-19T13:23:53Z</time>
      </trkpt>
      <trkpt lat="44.88246" lon="5.51465">
        <ele>1723.9</ele>
        <time>2022-01-19T13:23:54Z</time>
      </trkpt>
      <trkpt lat="44.88246" lon="5.51465">
        <ele>1723.9</ele>
        <time>2022-01-19T13:23:55Z</time>
      </trkpt>
      <trkpt lat="44.88246" lon="5.51465">
        <ele>1723.9</ele>
        <time>2022-01-19T13:23:56Z</time>
      </trkpt>
      <trkpt lat="44.88246" lon="5.51465">
        <ele>1723.9</ele>
        <time>2022-01-19T13:23:57Z</time>
      </trkpt>
      <trkpt lat="44.88246" lon="5.51465">
        <ele>1723.9</ele>
        <time>2022-01-19T13:23:58Z</time>
      </trkpt>
      <trkpt lat="44.88246" lon="5.51465">
        <ele>1723.9</ele>
        <time>2022-01-19T13:23:59Z</time>
      </trkpt>
      <trkpt lat="44.88246" lon="5.51465">
        <ele>1723.9</ele>
        <time>2022-01-19T13:24:00Z</time>
      </trkpt>
      <trkpt lat="44.88246" lon="5.51465">
        <ele>1723.9</ele>
        <time>2022-01-19T13:24:01Z</time>
      </trkpt>
      <trkpt lat="44.88246" lon="5.51465">
        <ele>1723.9</ele>
        <time>2022-01-19T13:24:02Z</time>
      </trkpt>
      <trkpt lat="44.88246" lon="5.51465">
        <ele>1723.9</ele>
        <time>2022-01-19T13:24:03Z</time>
      </trkpt>
      <trkpt lat="44.88246" lon="5.51466">
        <ele>1723.9</ele>
        <time>2022-01-19T13:24:04Z</time>
      </trkpt>
      <trkpt lat="44.88244" lon="5.51468">
        <ele>1724.6</ele>
        <time>2022-01-19T13:24:05Z</time>
      </trkpt>
      <trkpt lat="44.88243" lon="5.51469">
        <ele>1724.6</ele>
        <time>2022-01-19T13:24:06Z</time>
      </trkpt>
      <trkpt lat="44.88242" lon="5.51471">
        <ele>1725.2</ele>
        <time>2022-01-19T13:24:07Z</time>
      </trkpt>
      <trkpt lat="44.8824" lon="5.51471">
        <ele>1725.2</ele>
        <time>2022-01-19T13:24:08Z</time>
      </trkpt>
      <trkpt lat="44.88239" lon="5.51471">
        <ele>1725.1</ele>
        <time>2022-01-19T13:24:09Z</time>
      </trkpt>
      <trkpt lat="44.88239" lon="5.51473">
        <ele>1725.1</ele>
        <time>2022-01-19T13:24:10Z</time>
      </trkpt>
      <trkpt lat="44.8824" lon="5.51475">
        <ele>1725.2</ele>
        <time>2022-01-19T13:24:11Z</time>
      </trkpt>
      <trkpt lat="44.88241" lon="5.51475">
        <ele>1725.2</ele>
        <time>2022-01-19T13:24:12Z</time>
      </trkpt>
      <trkpt lat="44.8824" lon="5.51475">
        <ele>1725.2</ele>
        <time>2022-01-19T13:24:13Z</time>
      </trkpt>
      <trkpt lat="44.88238" lon="5.51475">
        <ele>1725.1</ele>
        <time>2022-01-19T13:24:14Z</time>
      </trkpt>
      <trkpt lat="44.88238" lon="5.51475">
        <ele>1725.9</ele>
        <time>2022-01-19T13:24:15Z</time>
      </trkpt>
      <trkpt lat="44.88238" lon="5.51476">
        <ele>1725.9</ele>
        <time>2022-01-19T13:24:16Z</time>
      </trkpt>
      <trkpt lat="44.88237" lon="5.51477">
        <ele>1725.9</ele>
        <time>2022-01-19T13:24:17Z</time>
      </trkpt>
      <trkpt lat="44.88237" lon="5.51477">
        <ele>1725.9</ele>
        <time>2022-01-19T13:24:18Z</time>
      </trkpt>
      <trkpt lat="44.88237" lon="5.51478">
        <ele>1725.9</ele>
        <time>2022-01-19T13:24:19Z</time>
      </trkpt>
      <trkpt lat="44.88238" lon="5.51481">
        <ele>1726.8</ele>
        <time>2022-01-19T13:24:20Z</time>
      </trkpt>
      <trkpt lat="44.88236" lon="5.51481">
        <ele>1726.7</ele>
        <time>2022-01-19T13:24:21Z</time>
      </trkpt>
      <trkpt lat="44.88236" lon="5.51482">
        <ele>1726.7</ele>
        <time>2022-01-19T13:24:22Z</time>
      </trkpt>
      <trkpt lat="44.88236" lon="5.51483">
        <ele>1726.7</ele>
        <time>2022-01-19T13:24:23Z</time>
      </trkpt>
      <trkpt lat="44.88235" lon="5.51484">
        <ele>1726.7</ele>
        <time>2022-01-19T13:24:24Z</time>
      </trkpt>
      <trkpt lat="44.88235" lon="5.51484">
        <ele>1727.6</ele>
        <time>2022-01-19T13:24:25Z</time>
      </trkpt>
      <trkpt lat="44.88234" lon="5.51485">
        <ele>1727.6</ele>
        <time>2022-01-19T13:24:26Z</time>
      </trkpt>
      <trkpt lat="44.88234" lon="5.51486">
        <ele>1727.6</ele>
        <time>2022-01-19T13:24:27Z</time>
      </trkpt>
      <trkpt lat="44.88234" lon="5.51487">
        <ele>1727.6</ele>
        <time>2022-01-19T13:24:28Z</time>
      </trkpt>
      <trkpt lat="44.88234" lon="5.51488">
        <ele>1727.6</ele>
        <time>2022-01-19T13:24:29Z</time>
      </trkpt>
      <trkpt lat="44.88233" lon="5.51488">
        <ele>1728.5</ele>
        <time>2022-01-19T13:24:30Z</time>
      </trkpt>
      <trkpt lat="44.88233" lon="5.51489">
        <ele>1728.5</ele>
        <time>2022-01-19T13:24:31Z</time>
      </trkpt>
      <trkpt lat="44.88232" lon="5.51489">
        <ele>1728.5</ele>
        <time>2022-01-19T13:24:32Z</time>
      </trkpt>
      <trkpt lat="44.88232" lon="5.5149">
        <ele>1728.5</ele>
        <time>2022-01-19T13:24:33Z</time>
      </trkpt>
      <trkpt lat="44.88232" lon="5.5149">
        <ele>1728.5</ele>
        <time>2022-01-19T13:24:34Z</time>
      </trkpt>
      <trkpt lat="44.88231" lon="5.51491">
        <ele>1728.5</ele>
        <time>2022-01-19T13:24:35Z</time>
      </trkpt>
      <trkpt lat="44.88231" lon="5.51491">
        <ele>1728.5</ele>
        <time>2022-01-19T13:24:36Z</time>
      </trkpt>
      <trkpt lat="44.88231" lon="5.51492">
        <ele>1728.5</ele>
        <time>2022-01-19T13:24:37Z</time>
      </trkpt>
      <trkpt lat="44.8823" lon="5.51492">
        <ele>1728.5</ele>
        <time>2022-01-19T13:24:38Z</time>
      </trkpt>
      <trkpt lat="44.88229" lon="5.51492">
        <ele>1728.5</ele>
        <time>2022-01-19T13:24:39Z</time>
      </trkpt>
      <trkpt lat="44.88229" lon="5.51493">
        <ele>1729.5</ele>
        <time>2022-01-19T13:24:40Z</time>
      </trkpt>
      <trkpt lat="44.88229" lon="5.51493">
        <ele>1729.5</ele>
        <time>2022-01-19T13:24:41Z</time>
      </trkpt>
      <trkpt lat="44.88229" lon="5.51493">
        <ele>1729.5</ele>
        <time>2022-01-19T13:24:42Z</time>
      </trkpt>
      <trkpt lat="44.88229" lon="5.51494">
        <ele>1729.5</ele>
        <time>2022-01-19T13:24:43Z</time>
      </trkpt>
      <trkpt lat="44.88228" lon="5.51494">
        <ele>1729.5</ele>
        <time>2022-01-19T13:24:44Z</time>
      </trkpt>
      <trkpt lat="44.88228" lon="5.51494">
        <ele>1729.5</ele>
        <time>2022-01-19T13:24:45Z</time>
      </trkpt>
      <trkpt lat="44.88227" lon="5.51495">
        <ele>1729.5</ele>
        <time>2022-01-19T13:24:46Z</time>
      </trkpt>
      <trkpt lat="44.88227" lon="5.51495">
        <ele>1729.6</ele>
        <time>2022-01-19T13:24:47Z</time>
      </trkpt>
      <trkpt lat="44.88226" lon="5.51496">
        <ele>1729.6</ele>
        <time>2022-01-19T13:24:48Z</time>
      </trkpt>
      <trkpt lat="44.88226" lon="5.51496">
        <ele>1729.6</ele>
        <time>2022-01-19T13:24:49Z</time>
      </trkpt>
      <trkpt lat="44.88226" lon="5.51497">
        <ele>1730.6</ele>
        <time>2022-01-19T13:24:50Z</time>
      </trkpt>
      <trkpt lat="44.88225" lon="5.51498">
        <ele>1730.6</ele>
        <time>2022-01-19T13:24:51Z</time>
      </trkpt>
      <trkpt lat="44.88225" lon="5.51498">
        <ele>1730.6</ele>
        <time>2022-01-19T13:24:52Z</time>
      </trkpt>
      <trkpt lat="44.88225" lon="5.51499">
        <ele>1730.6</ele>
        <time>2022-01-19T13:24:53Z</time>
      </trkpt>
      <trkpt lat="44.88224" lon="5.515">
        <ele>1730.6</ele>
        <time>2022-01-19T13:24:54Z</time>
      </trkpt>
      <trkpt lat="44.88224" lon="5.51501">
        <ele>1730.6</ele>
        <time>2022-01-19T13:24:55Z</time>
      </trkpt>
      <trkpt lat="44.88224" lon="5.51501">
        <ele>1731.8</ele>
        <time>2022-01-19T13:24:56Z</time>
      </trkpt>
      <trkpt lat="44.88224" lon="5.51501">
        <ele>1731.8</ele>
        <time>2022-01-19T13:24:57Z</time>
      </trkpt>
      <trkpt lat="44.88223" lon="5.51502">
        <ele>1731.8</ele>
        <time>2022-01-19T13:24:58Z</time>
      </trkpt>
      <trkpt lat="44.88223" lon="5.51503">
        <ele>1731.8</ele>
        <time>2022-01-19T13:24:59Z</time>
      </trkpt>
      <trkpt lat="44.88223" lon="5.51503">
        <ele>1731.8</ele>
        <time>2022-01-19T13:25:00Z</time>
      </trkpt>
      <trkpt lat="44.88222" lon="5.51504">
        <ele>1731.8</ele>
        <time>2022-01-19T13:25:01Z</time>
      </trkpt>
      <trkpt lat="44.88222" lon="5.51504">
        <ele>1731.8</ele>
        <time>2022-01-19T13:25:02Z</time>
      </trkpt>
      <trkpt lat="44.88221" lon="5.51505">
        <ele>1731.8</ele>
        <time>2022-01-19T13:25:03Z</time>
      </trkpt>
      <trkpt lat="44.88221" lon="5.51505">
        <ele>1732.9</ele>
        <time>2022-01-19T13:25:04Z</time>
      </trkpt>
      <trkpt lat="44.8822" lon="5.51506">
        <ele>1732.9</ele>
        <time>2022-01-19T13:25:05Z</time>
      </trkpt>
      <trkpt lat="44.8822" lon="5.51506">
        <ele>1732.9</ele>
        <time>2022-01-19T13:25:06Z</time>
      </trkpt>
      <trkpt lat="44.8822" lon="5.51506">
        <ele>1732.9</ele>
        <time>2022-01-19T13:25:07Z</time>
      </trkpt>
      <trkpt lat="44.8822" lon="5.51507">
        <ele>1732.9</ele>
        <time>2022-01-19T13:25:08Z</time>
      </trkpt>
      <trkpt lat="44.88219" lon="5.51507">
        <ele>1732.9</ele>
        <time>2022-01-19T13:25:09Z</time>
      </trkpt>
      <trkpt lat="44.88219" lon="5.51508">
        <ele>1732.9</ele>
        <time>2022-01-19T13:25:10Z</time>
      </trkpt>
      <trkpt lat="44.88218" lon="5.51508">
        <ele>1732.9</ele>
        <time>2022-01-19T13:25:11Z</time>
      </trkpt>
      <trkpt lat="44.88218" lon="5.51509">
        <ele>1733</ele>
        <time>2022-01-19T13:25:12Z</time>
      </trkpt>
      <trkpt lat="44.88217" lon="5.5151">
        <ele>1734</ele>
        <time>2022-01-19T13:25:13Z</time>
      </trkpt>
      <trkpt lat="44.88217" lon="5.5151">
        <ele>1734</ele>
        <time>2022-01-19T13:25:14Z</time>
      </trkpt>
      <trkpt lat="44.88216" lon="5.51511">
        <ele>1734</ele>
        <time>2022-01-19T13:25:15Z</time>
      </trkpt>
      <trkpt lat="44.88216" lon="5.51511">
        <ele>1734</ele>
        <time>2022-01-19T13:25:16Z</time>
      </trkpt>
      <trkpt lat="44.88215" lon="5.51512">
        <ele>1734</ele>
        <time>2022-01-19T13:25:17Z</time>
      </trkpt>
      <trkpt lat="44.88215" lon="5.51512">
        <ele>1734</ele>
        <time>2022-01-19T13:25:18Z</time>
      </trkpt>
      <trkpt lat="44.88215" lon="5.51513">
        <ele>1734.1</ele>
        <time>2022-01-19T13:25:19Z</time>
      </trkpt>
      <trkpt lat="44.88214" lon="5.51514">
        <ele>1735.5</ele>
        <time>2022-01-19T13:25:20Z</time>
      </trkpt>
      <trkpt lat="44.88214" lon="5.51514">
        <ele>1735.5</ele>
        <time>2022-01-19T13:25:21Z</time>
      </trkpt>
      <trkpt lat="44.88213" lon="5.51515">
        <ele>1735.5</ele>
        <time>2022-01-19T13:25:22Z</time>
      </trkpt>
      <trkpt lat="44.88213" lon="5.51515">
        <ele>1735.5</ele>
        <time>2022-01-19T13:25:23Z</time>
      </trkpt>
      <trkpt lat="44.88212" lon="5.51515">
        <ele>1735.5</ele>
        <time>2022-01-19T13:25:24Z</time>
      </trkpt>
      <trkpt lat="44.88212" lon="5.51516">
        <ele>1735.5</ele>
        <time>2022-01-19T13:25:25Z</time>
      </trkpt>
      <trkpt lat="44.88211" lon="5.51516">
        <ele>1735.7</ele>
        <time>2022-01-19T13:25:26Z</time>
      </trkpt>
      <trkpt lat="44.88211" lon="5.51517">
        <ele>1735.7</ele>
        <time>2022-01-19T13:25:27Z</time>
      </trkpt>
      <trkpt lat="44.8821" lon="5.51517">
        <ele>1735.7</ele>
        <time>2022-01-19T13:25:28Z</time>
      </trkpt>
      <trkpt lat="44.8821" lon="5.51518">
        <ele>1736.6</ele>
        <time>2022-01-19T13:25:29Z</time>
      </trkpt>
      <trkpt lat="44.8821" lon="5.51519">
        <ele>1736.6</ele>
        <time>2022-01-19T13:25:30Z</time>
      </trkpt>
      <trkpt lat="44.88209" lon="5.5152">
        <ele>1736.6</ele>
        <time>2022-01-19T13:25:31Z</time>
      </trkpt>
      <trkpt lat="44.88209" lon="5.5152">
        <ele>1736.6</ele>
        <time>2022-01-19T13:25:32Z</time>
      </trkpt>
      <trkpt lat="44.88209" lon="5.5152">
        <ele>1736.6</ele>
        <time>2022-01-19T13:25:33Z</time>
      </trkpt>
      <trkpt lat="44.88209" lon="5.51521">
        <ele>1736.6</ele>
        <time>2022-01-19T13:25:34Z</time>
      </trkpt>
      <trkpt lat="44.88208" lon="5.51521">
        <ele>1736.7</ele>
        <time>2022-01-19T13:25:35Z</time>
      </trkpt>
      <trkpt lat="44.88208" lon="5.51522">
        <ele>1736.7</ele>
        <time>2022-01-19T13:25:36Z</time>
      </trkpt>
      <trkpt lat="44.88208" lon="5.51522">
        <ele>1737.6</ele>
        <time>2022-01-19T13:25:37Z</time>
      </trkpt>
      <trkpt lat="44.88208" lon="5.51523">
        <ele>1737.6</ele>
        <time>2022-01-19T13:25:38Z</time>
      </trkpt>
      <trkpt lat="44.88208" lon="5.51523">
        <ele>1737.6</ele>
        <time>2022-01-19T13:25:39Z</time>
      </trkpt>
      <trkpt lat="44.88207" lon="5.51524">
        <ele>1737.6</ele>
        <time>2022-01-19T13:25:40Z</time>
      </trkpt>
      <trkpt lat="44.88207" lon="5.51524">
        <ele>1737.6</ele>
        <time>2022-01-19T13:25:41Z</time>
      </trkpt>
      <trkpt lat="44.88207" lon="5.51525">
        <ele>1737.6</ele>
        <time>2022-01-19T13:25:42Z</time>
      </trkpt>
      <trkpt lat="44.88207" lon="5.51525">
        <ele>1737.6</ele>
        <time>2022-01-19T13:25:43Z</time>
      </trkpt>
      <trkpt lat="44.88207" lon="5.51526">
        <ele>1737.6</ele>
        <time>2022-01-19T13:25:44Z</time>
      </trkpt>
      <trkpt lat="44.88206" lon="5.51527">
        <ele>1737.6</ele>
        <time>2022-01-19T13:25:45Z</time>
      </trkpt>
      <trkpt lat="44.88206" lon="5.51527">
        <ele>1738.5</ele>
        <time>2022-01-19T13:25:46Z</time>
      </trkpt>
      <trkpt lat="44.88206" lon="5.51528">
        <ele>1738.5</ele>
        <time>2022-01-19T13:25:47Z</time>
      </trkpt>
      <trkpt lat="44.88205" lon="5.51528">
        <ele>1738.7</ele>
        <time>2022-01-19T13:25:48Z</time>
      </trkpt>
      <trkpt lat="44.88205" lon="5.51528">
        <ele>1738.7</ele>
        <time>2022-01-19T13:25:49Z</time>
      </trkpt>
      <trkpt lat="44.88205" lon="5.51529">
        <ele>1738.7</ele>
        <time>2022-01-19T13:25:50Z</time>
      </trkpt>
      <trkpt lat="44.88204" lon="5.51529">
        <ele>1738.7</ele>
        <time>2022-01-19T13:25:51Z</time>
      </trkpt>
      <trkpt lat="44.88204" lon="5.51529">
        <ele>1738.7</ele>
        <time>2022-01-19T13:25:52Z</time>
      </trkpt>
      <trkpt lat="44.88204" lon="5.5153">
        <ele>1738.7</ele>
        <time>2022-01-19T13:25:53Z</time>
      </trkpt>
      <trkpt lat="44.88203" lon="5.51531">
        <ele>1738.7</ele>
        <time>2022-01-19T13:25:54Z</time>
      </trkpt>
      <trkpt lat="44.88202" lon="5.51531">
        <ele>1739.8</ele>
        <time>2022-01-19T13:25:55Z</time>
      </trkpt>
      <trkpt lat="44.88202" lon="5.51532">
        <ele>1739.8</ele>
        <time>2022-01-19T13:25:56Z</time>
      </trkpt>
      <trkpt lat="44.88202" lon="5.51533">
        <ele>1739.8</ele>
        <time>2022-01-19T13:25:57Z</time>
      </trkpt>
      <trkpt lat="44.88201" lon="5.51533">
        <ele>1739.8</ele>
        <time>2022-01-19T13:25:58Z</time>
      </trkpt>
      <trkpt lat="44.882" lon="5.51534">
        <ele>1739.8</ele>
        <time>2022-01-19T13:25:59Z</time>
      </trkpt>
      <trkpt lat="44.882" lon="5.51535">
        <ele>1739.8</ele>
        <time>2022-01-19T13:26:00Z</time>
      </trkpt>
      <trkpt lat="44.882" lon="5.51536">
        <ele>1740.8</ele>
        <time>2022-01-19T13:26:01Z</time>
      </trkpt>
      <trkpt lat="44.882" lon="5.51536">
        <ele>1740.8</ele>
        <time>2022-01-19T13:26:02Z</time>
      </trkpt>
      <trkpt lat="44.88199" lon="5.51537">
        <ele>1741</ele>
        <time>2022-01-19T13:26:03Z</time>
      </trkpt>
      <trkpt lat="44.88199" lon="5.51537">
        <ele>1741</ele>
        <time>2022-01-19T13:26:04Z</time>
      </trkpt>
      <trkpt lat="44.88198" lon="5.51538">
        <ele>1741</ele>
        <time>2022-01-19T13:26:05Z</time>
      </trkpt>
      <trkpt lat="44.88197" lon="5.51538">
        <ele>1741</ele>
        <time>2022-01-19T13:26:06Z</time>
      </trkpt>
      <trkpt lat="44.88197" lon="5.51539">
        <ele>1741</ele>
        <time>2022-01-19T13:26:07Z</time>
      </trkpt>
      <trkpt lat="44.88196" lon="5.51539">
        <ele>1741.3</ele>
        <time>2022-01-19T13:26:08Z</time>
      </trkpt>
      <trkpt lat="44.88196" lon="5.51539">
        <ele>1741.3</ele>
        <time>2022-01-19T13:26:09Z</time>
      </trkpt>
      <trkpt lat="44.88196" lon="5.5154">
        <ele>1742.2</ele>
        <time>2022-01-19T13:26:10Z</time>
      </trkpt>
      <trkpt lat="44.88195" lon="5.5154">
        <ele>1742.2</ele>
        <time>2022-01-19T13:26:11Z</time>
      </trkpt>
      <trkpt lat="44.88195" lon="5.51541">
        <ele>1742.2</ele>
        <time>2022-01-19T13:26:12Z</time>
      </trkpt>
      <trkpt lat="44.88195" lon="5.51541">
        <ele>1742.2</ele>
        <time>2022-01-19T13:26:13Z</time>
      </trkpt>
      <trkpt lat="44.88194" lon="5.51541">
        <ele>1742.2</ele>
        <time>2022-01-19T13:26:14Z</time>
      </trkpt>
      <trkpt lat="44.88195" lon="5.51542">
        <ele>1742.2</ele>
        <time>2022-01-19T13:26:15Z</time>
      </trkpt>
      <trkpt lat="44.88195" lon="5.51543">
        <ele>1742.2</ele>
        <time>2022-01-19T13:26:16Z</time>
      </trkpt>
      <trkpt lat="44.88195" lon="5.51544">
        <ele>1743.2</ele>
        <time>2022-01-19T13:26:17Z</time>
      </trkpt>
      <trkpt lat="44.88195" lon="5.51545">
        <ele>1743.2</ele>
        <time>2022-01-19T13:26:18Z</time>
      </trkpt>
      <trkpt lat="44.88196" lon="5.51545">
        <ele>1743.2</ele>
        <time>2022-01-19T13:26:19Z</time>
      </trkpt>
      <trkpt lat="44.88196" lon="5.51546">
        <ele>1743.2</ele>
        <time>2022-01-19T13:26:20Z</time>
      </trkpt>
      <trkpt lat="44.88196" lon="5.51547">
        <ele>1743.2</ele>
        <time>2022-01-19T13:26:21Z</time>
      </trkpt>
      <trkpt lat="44.88197" lon="5.51547">
        <ele>1742.9</ele>
        <time>2022-01-19T13:26:22Z</time>
      </trkpt>
      <trkpt lat="44.88197" lon="5.51548">
        <ele>1743.8</ele>
        <time>2022-01-19T13:26:23Z</time>
      </trkpt>
      <trkpt lat="44.88197" lon="5.51549">
        <ele>1743.8</ele>
        <time>2022-01-19T13:26:24Z</time>
      </trkpt>
      <trkpt lat="44.88197" lon="5.51549">
        <ele>1743.8</ele>
        <time>2022-01-19T13:26:25Z</time>
      </trkpt>
      <trkpt lat="44.88197" lon="5.5155">
        <ele>1743.8</ele>
        <time>2022-01-19T13:26:26Z</time>
      </trkpt>
      <trkpt lat="44.88198" lon="5.51551">
        <ele>1743.8</ele>
        <time>2022-01-19T13:26:27Z</time>
      </trkpt>
      <trkpt lat="44.88198" lon="5.51551">
        <ele>1743.8</ele>
        <time>2022-01-19T13:26:28Z</time>
      </trkpt>
      <trkpt lat="44.88198" lon="5.51552">
        <ele>1743.8</ele>
        <time>2022-01-19T13:26:29Z</time>
      </trkpt>
      <trkpt lat="44.88199" lon="5.51553">
        <ele>1744.7</ele>
        <time>2022-01-19T13:26:30Z</time>
      </trkpt>
      <trkpt lat="44.88199" lon="5.51553">
        <ele>1744.7</ele>
        <time>2022-01-19T13:26:31Z</time>
      </trkpt>
      <trkpt lat="44.882" lon="5.51554">
        <ele>1744.4</ele>
        <time>2022-01-19T13:26:32Z</time>
      </trkpt>
      <trkpt lat="44.882" lon="5.51555">
        <ele>1744.4</ele>
        <time>2022-01-19T13:26:33Z</time>
      </trkpt>
      <trkpt lat="44.882" lon="5.51555">
        <ele>1744.4</ele>
        <time>2022-01-19T13:26:34Z</time>
      </trkpt>
      <trkpt lat="44.88201" lon="5.51555">
        <ele>1744.4</ele>
        <time>2022-01-19T13:26:35Z</time>
      </trkpt>
      <trkpt lat="44.88202" lon="5.51556">
        <ele>1744.4</ele>
        <time>2022-01-19T13:26:36Z</time>
      </trkpt>
      <trkpt lat="44.88202" lon="5.51556">
        <ele>1744.4</ele>
        <time>2022-01-19T13:26:37Z</time>
      </trkpt>
      <trkpt lat="44.88202" lon="5.51557">
        <ele>1745.3</ele>
        <time>2022-01-19T13:26:38Z</time>
      </trkpt>
      <trkpt lat="44.88203" lon="5.51557">
        <ele>1745</ele>
        <time>2022-01-19T13:26:39Z</time>
      </trkpt>
      <trkpt lat="44.88203" lon="5.51558">
        <ele>1745</ele>
        <time>2022-01-19T13:26:40Z</time>
      </trkpt>
      <trkpt lat="44.88203" lon="5.51558">
        <ele>1745</ele>
        <time>2022-01-19T13:26:41Z</time>
      </trkpt>
      <trkpt lat="44.88204" lon="5.51558">
        <ele>1745</ele>
        <time>2022-01-19T13:26:42Z</time>
      </trkpt>
      <trkpt lat="44.88205" lon="5.51559">
        <ele>1745</ele>
        <time>2022-01-19T13:26:43Z</time>
      </trkpt>
      <trkpt lat="44.88205" lon="5.51559">
        <ele>1745</ele>
        <time>2022-01-19T13:26:44Z</time>
      </trkpt>
      <trkpt lat="44.88206" lon="5.5156">
        <ele>1744.8</ele>
        <time>2022-01-19T13:26:45Z</time>
      </trkpt>
      <trkpt lat="44.88206" lon="5.5156">
        <ele>1744.8</ele>
        <time>2022-01-19T13:26:46Z</time>
      </trkpt>
      <trkpt lat="44.88207" lon="5.51561">
        <ele>1744.8</ele>
        <time>2022-01-19T13:26:47Z</time>
      </trkpt>
      <trkpt lat="44.88208" lon="5.51561">
        <ele>1744.8</ele>
        <time>2022-01-19T13:26:48Z</time>
      </trkpt>
      <trkpt lat="44.88208" lon="5.51561">
        <ele>1745.7</ele>
        <time>2022-01-19T13:26:49Z</time>
      </trkpt>
      <trkpt lat="44.88209" lon="5.51561">
        <ele>1745.5</ele>
        <time>2022-01-19T13:26:50Z</time>
      </trkpt>
      <trkpt lat="44.8821" lon="5.51561">
        <ele>1745.5</ele>
        <time>2022-01-19T13:26:51Z</time>
      </trkpt>
      <trkpt lat="44.8821" lon="5.51562">
        <ele>1745.5</ele>
        <time>2022-01-19T13:26:52Z</time>
      </trkpt>
      <trkpt lat="44.88211" lon="5.51562">
        <ele>1745.5</ele>
        <time>2022-01-19T13:26:53Z</time>
      </trkpt>
      <trkpt lat="44.88211" lon="5.51562">
        <ele>1745.5</ele>
        <time>2022-01-19T13:26:54Z</time>
      </trkpt>
      <trkpt lat="44.88212" lon="5.51562">
        <ele>1745.4</ele>
        <time>2022-01-19T13:26:55Z</time>
      </trkpt>
      <trkpt lat="44.88213" lon="5.51562">
        <ele>1745.4</ele>
        <time>2022-01-19T13:26:56Z</time>
      </trkpt>
      <trkpt lat="44.88214" lon="5.51563">
        <ele>1745.4</ele>
        <time>2022-01-19T13:26:57Z</time>
      </trkpt>
      <trkpt lat="44.88214" lon="5.51563">
        <ele>1745.4</ele>
        <time>2022-01-19T13:26:58Z</time>
      </trkpt>
      <trkpt lat="44.88215" lon="5.51563">
        <ele>1745.2</ele>
        <time>2022-01-19T13:26:59Z</time>
      </trkpt>
      <trkpt lat="44.88215" lon="5.51563">
        <ele>1745.2</ele>
        <time>2022-01-19T13:27:00Z</time>
      </trkpt>
      <trkpt lat="44.88216" lon="5.51563">
        <ele>1745.2</ele>
        <time>2022-01-19T13:27:01Z</time>
      </trkpt>
      <trkpt lat="44.88216" lon="5.51563">
        <ele>1745.2</ele>
        <time>2022-01-19T13:27:02Z</time>
      </trkpt>
      <trkpt lat="44.88217" lon="5.51564">
        <ele>1745.2</ele>
        <time>2022-01-19T13:27:03Z</time>
      </trkpt>
      <trkpt lat="44.88218" lon="5.51564">
        <ele>1745.2</ele>
        <time>2022-01-19T13:27:04Z</time>
      </trkpt>
      <trkpt lat="44.88218" lon="5.51564">
        <ele>1745.1</ele>
        <time>2022-01-19T13:27:05Z</time>
      </trkpt>
      <trkpt lat="44.88219" lon="5.51564">
        <ele>1745.1</ele>
        <time>2022-01-19T13:27:06Z</time>
      </trkpt>
      <trkpt lat="44.88219" lon="5.51565">
        <ele>1745.1</ele>
        <time>2022-01-19T13:27:07Z</time>
      </trkpt>
      <trkpt lat="44.8822" lon="5.51565">
        <ele>1745.1</ele>
        <time>2022-01-19T13:27:08Z</time>
      </trkpt>
      <trkpt lat="44.88221" lon="5.51565">
        <ele>1745.1</ele>
        <time>2022-01-19T13:27:09Z</time>
      </trkpt>
      <trkpt lat="44.88221" lon="5.51565">
        <ele>1746</ele>
        <time>2022-01-19T13:27:10Z</time>
      </trkpt>
      <trkpt lat="44.88222" lon="5.51566">
        <ele>1746</ele>
        <time>2022-01-19T13:27:11Z</time>
      </trkpt>
      <trkpt lat="44.88222" lon="5.51566">
        <ele>1746</ele>
        <time>2022-01-19T13:27:12Z</time>
      </trkpt>
      <trkpt lat="44.88223" lon="5.51566">
        <ele>1746</ele>
        <time>2022-01-19T13:27:13Z</time>
      </trkpt>
      <trkpt lat="44.88223" lon="5.51566">
        <ele>1746</ele>
        <time>2022-01-19T13:27:14Z</time>
      </trkpt>
      <trkpt lat="44.88224" lon="5.51566">
        <ele>1746</ele>
        <time>2022-01-19T13:27:15Z</time>
      </trkpt>
      <trkpt lat="44.88224" lon="5.51566">
        <ele>1745.9</ele>
        <time>2022-01-19T13:27:16Z</time>
      </trkpt>
      <trkpt lat="44.88225" lon="5.51567">
        <ele>1745.9</ele>
        <time>2022-01-19T13:27:17Z</time>
      </trkpt>
      <trkpt lat="44.88225" lon="5.51566">
        <ele>1745.9</ele>
        <time>2022-01-19T13:27:18Z</time>
      </trkpt>
      <trkpt lat="44.88226" lon="5.51567">
        <ele>1745.9</ele>
        <time>2022-01-19T13:27:19Z</time>
      </trkpt>
      <trkpt lat="44.88227" lon="5.51567">
        <ele>1745.9</ele>
        <time>2022-01-19T13:27:20Z</time>
      </trkpt>
      <trkpt lat="44.88227" lon="5.51567">
        <ele>1745.8</ele>
        <time>2022-01-19T13:27:21Z</time>
      </trkpt>
      <trkpt lat="44.88228" lon="5.51567">
        <ele>1745.8</ele>
        <time>2022-01-19T13:27:22Z</time>
      </trkpt>
      <trkpt lat="44.88228" lon="5.51567">
        <ele>1745.8</ele>
        <time>2022-01-19T13:27:23Z</time>
      </trkpt>
      <trkpt lat="44.88229" lon="5.51567">
        <ele>1745.8</ele>
        <time>2022-01-19T13:27:24Z</time>
      </trkpt>
      <trkpt lat="44.88229" lon="5.51568">
        <ele>1745.8</ele>
        <time>2022-01-19T13:27:25Z</time>
      </trkpt>
      <trkpt lat="44.8823" lon="5.51568">
        <ele>1745.7</ele>
        <time>2022-01-19T13:27:26Z</time>
      </trkpt>
      <trkpt lat="44.88231" lon="5.51568">
        <ele>1745.7</ele>
        <time>2022-01-19T13:27:27Z</time>
      </trkpt>
      <trkpt lat="44.88231" lon="5.51568">
        <ele>1745.7</ele>
        <time>2022-01-19T13:27:28Z</time>
      </trkpt>
      <trkpt lat="44.88232" lon="5.51568">
        <ele>1745.7</ele>
        <time>2022-01-19T13:27:29Z</time>
      </trkpt>
      <trkpt lat="44.88232" lon="5.51568">
        <ele>1745.7</ele>
        <time>2022-01-19T13:27:30Z</time>
      </trkpt>
      <trkpt lat="44.88233" lon="5.51569">
        <ele>1745.7</ele>
        <time>2022-01-19T13:27:31Z</time>
      </trkpt>
      <trkpt lat="44.88233" lon="5.51569">
        <ele>1745.7</ele>
        <time>2022-01-19T13:27:32Z</time>
      </trkpt>
      <trkpt lat="44.88234" lon="5.5157">
        <ele>1746.6</ele>
        <time>2022-01-19T13:27:33Z</time>
      </trkpt>
      <trkpt lat="44.88234" lon="5.5157">
        <ele>1746.6</ele>
        <time>2022-01-19T13:27:34Z</time>
      </trkpt>
      <trkpt lat="44.88233" lon="5.51571">
        <ele>1746.6</ele>
        <time>2022-01-19T13:27:35Z</time>
      </trkpt>
      <trkpt lat="44.88233" lon="5.51572">
        <ele>1746.6</ele>
        <time>2022-01-19T13:27:36Z</time>
      </trkpt>
      <trkpt lat="44.88233" lon="5.51573">
        <ele>1746.6</ele>
        <time>2022-01-19T13:27:37Z</time>
      </trkpt>
      <trkpt lat="44.88233" lon="5.51574">
        <ele>1746.7</ele>
        <time>2022-01-19T13:27:38Z</time>
      </trkpt>
      <trkpt lat="44.88232" lon="5.51575">
        <ele>1747.7</ele>
        <time>2022-01-19T13:27:39Z</time>
      </trkpt>
      <trkpt lat="44.88232" lon="5.51575">
        <ele>1747.7</ele>
        <time>2022-01-19T13:27:40Z</time>
      </trkpt>
      <trkpt lat="44.88232" lon="5.51576">
        <ele>1747.7</ele>
        <time>2022-01-19T13:27:41Z</time>
      </trkpt>
      <trkpt lat="44.88231" lon="5.51577">
        <ele>1747.7</ele>
        <time>2022-01-19T13:27:42Z</time>
      </trkpt>
      <trkpt lat="44.88231" lon="5.51577">
        <ele>1747.7</ele>
        <time>2022-01-19T13:27:43Z</time>
      </trkpt>
      <trkpt lat="44.8823" lon="5.51577">
        <ele>1747.7</ele>
        <time>2022-01-19T13:27:44Z</time>
      </trkpt>
      <trkpt lat="44.8823" lon="5.51578">
        <ele>1747.8</ele>
        <time>2022-01-19T13:27:45Z</time>
      </trkpt>
      <trkpt lat="44.88229" lon="5.51578">
        <ele>1748.9</ele>
        <time>2022-01-19T13:27:46Z</time>
      </trkpt>
      <trkpt lat="44.88229" lon="5.51579">
        <ele>1748.9</ele>
        <time>2022-01-19T13:27:47Z</time>
      </trkpt>
      <trkpt lat="44.88229" lon="5.51579">
        <ele>1748.9</ele>
        <time>2022-01-19T13:27:48Z</time>
      </trkpt>
      <trkpt lat="44.88229" lon="5.51579">
        <ele>1748.9</ele>
        <time>2022-01-19T13:27:49Z</time>
      </trkpt>
      <trkpt lat="44.88229" lon="5.51579">
        <ele>1748.9</ele>
        <time>2022-01-19T13:27:50Z</time>
      </trkpt>
      <trkpt lat="44.88229" lon="5.51579">
        <ele>1748.9</ele>
        <time>2022-01-19T13:27:51Z</time>
      </trkpt>
      <trkpt lat="44.88229" lon="5.51579">
        <ele>1748.9</ele>
        <time>2022-01-19T13:27:52Z</time>
      </trkpt>
      <trkpt lat="44.88229" lon="5.51579">
        <ele>1748.9</ele>
        <time>2022-01-19T13:27:53Z</time>
      </trkpt>
      <trkpt lat="44.88229" lon="5.51579">
        <ele>1748.9</ele>
        <time>2022-01-19T13:27:54Z</time>
      </trkpt>
      <trkpt lat="44.88229" lon="5.51579">
        <ele>1748.9</ele>
        <time>2022-01-19T13:27:55Z</time>
      </trkpt>
      <trkpt lat="44.88229" lon="5.51579">
        <ele>1748.9</ele>
        <time>2022-01-19T13:27:56Z</time>
      </trkpt>
      <trkpt lat="44.88229" lon="5.51579">
        <ele>1748.9</ele>
        <time>2022-01-19T13:27:57Z</time>
      </trkpt>
      <trkpt lat="44.88229" lon="5.51579">
        <ele>1748.9</ele>
        <time>2022-01-19T13:27:58Z</time>
      </trkpt>
      <trkpt lat="44.88229" lon="5.51579">
        <ele>1748.9</ele>
        <time>2022-01-19T13:27:59Z</time>
      </trkpt>
      <trkpt lat="44.88229" lon="5.51579">
        <ele>1748.9</ele>
        <time>2022-01-19T13:28:00Z</time>
      </trkpt>
      <trkpt lat="44.88229" lon="5.51579">
        <ele>1748.9</ele>
        <time>2022-01-19T13:28:01Z</time>
      </trkpt>
      <trkpt lat="44.88229" lon="5.51579">
        <ele>1748.9</ele>
        <time>2022-01-19T13:28:02Z</time>
      </trkpt>
      <trkpt lat="44.88229" lon="5.51579">
        <ele>1748.9</ele>
        <time>2022-01-19T13:28:03Z</time>
      </trkpt>
      <trkpt lat="44.88229" lon="5.51579">
        <ele>1748.9</ele>
        <time>2022-01-19T13:28:04Z</time>
      </trkpt>
      <trkpt lat="44.88229" lon="5.51579">
        <ele>1748.9</ele>
        <time>2022-01-19T13:28:05Z</time>
      </trkpt>
      <trkpt lat="44.88229" lon="5.51579">
        <ele>1748.9</ele>
        <time>2022-01-19T13:28:06Z</time>
      </trkpt>
      <trkpt lat="44.88229" lon="5.51579">
        <ele>1748.9</ele>
        <time>2022-01-19T13:28:07Z</time>
      </trkpt>
      <trkpt lat="44.88229" lon="5.51579">
        <ele>1748.9</ele>
        <time>2022-01-19T13:28:08Z</time>
      </trkpt>
      <trkpt lat="44.88229" lon="5.51579">
        <ele>1748.9</ele>
        <time>2022-01-19T13:28:09Z</time>
      </trkpt>
      <trkpt lat="44.88229" lon="5.51579">
        <ele>1748.9</ele>
        <time>2022-01-19T13:28:10Z</time>
      </trkpt>
      <trkpt lat="44.88229" lon="5.51579">
        <ele>1748.9</ele>
        <time>2022-01-19T13:28:11Z</time>
      </trkpt>
      <trkpt lat="44.88229" lon="5.51579">
        <ele>1748.9</ele>
        <time>2022-01-19T13:28:12Z</time>
      </trkpt>
      <trkpt lat="44.88229" lon="5.51579">
        <ele>1748.9</ele>
        <time>2022-01-19T13:28:13Z</time>
      </trkpt>
      <trkpt lat="44.88229" lon="5.51579">
        <ele>1748.9</ele>
        <time>2022-01-19T13:28:14Z</time>
      </trkpt>
      <trkpt lat="44.88229" lon="5.51579">
        <ele>1748.9</ele>
        <time>2022-01-19T13:28:15Z</time>
      </trkpt>
      <trkpt lat="44.88229" lon="5.51579">
        <ele>1748.9</ele>
        <time>2022-01-19T13:28:16Z</time>
      </trkpt>
      <trkpt lat="44.88229" lon="5.51579">
        <ele>1748.9</ele>
        <time>2022-01-19T13:28:17Z</time>
      </trkpt>
      <trkpt lat="44.88228" lon="5.51581">
        <ele>1748.9</ele>
        <time>2022-01-19T13:28:18Z</time>
      </trkpt>
      <trkpt lat="44.88227" lon="5.51582">
        <ele>1748.9</ele>
        <time>2022-01-19T13:28:19Z</time>
      </trkpt>
      <trkpt lat="44.88227" lon="5.51582">
        <ele>1749</ele>
        <time>2022-01-19T13:28:20Z</time>
      </trkpt>
      <trkpt lat="44.88226" lon="5.51582">
        <ele>1749</ele>
        <time>2022-01-19T13:28:21Z</time>
      </trkpt>
      <trkpt lat="44.88226" lon="5.51583">
        <ele>1750.1</ele>
        <time>2022-01-19T13:28:22Z</time>
      </trkpt>
      <trkpt lat="44.88226" lon="5.51583">
        <ele>1750.1</ele>
        <time>2022-01-19T13:28:23Z</time>
      </trkpt>
      <trkpt lat="44.88225" lon="5.51584">
        <ele>1750.1</ele>
        <time>2022-01-19T13:28:24Z</time>
      </trkpt>
      <trkpt lat="44.88225" lon="5.51584">
        <ele>1750.1</ele>
        <time>2022-01-19T13:28:25Z</time>
      </trkpt>
      <trkpt lat="44.88224" lon="5.51585">
        <ele>1750.1</ele>
        <time>2022-01-19T13:28:26Z</time>
      </trkpt>
      <trkpt lat="44.88224" lon="5.51585">
        <ele>1750.1</ele>
        <time>2022-01-19T13:28:27Z</time>
      </trkpt>
      <trkpt lat="44.88224" lon="5.51585">
        <ele>1750.2</ele>
        <time>2022-01-19T13:28:28Z</time>
      </trkpt>
      <trkpt lat="44.88223" lon="5.51586">
        <ele>1750.2</ele>
        <time>2022-01-19T13:28:29Z</time>
      </trkpt>
      <trkpt lat="44.88223" lon="5.51586">
        <ele>1750.2</ele>
        <time>2022-01-19T13:28:30Z</time>
      </trkpt>
      <trkpt lat="44.88222" lon="5.51587">
        <ele>1750.2</ele>
        <time>2022-01-19T13:28:31Z</time>
      </trkpt>
      <trkpt lat="44.88222" lon="5.51587">
        <ele>1751.3</ele>
        <time>2022-01-19T13:28:32Z</time>
      </trkpt>
      <trkpt lat="44.88221" lon="5.51588">
        <ele>1751.3</ele>
        <time>2022-01-19T13:28:33Z</time>
      </trkpt>
      <trkpt lat="44.88221" lon="5.51588">
        <ele>1751.3</ele>
        <time>2022-01-19T13:28:34Z</time>
      </trkpt>
      <trkpt lat="44.88221" lon="5.51589">
        <ele>1751.5</ele>
        <time>2022-01-19T13:28:35Z</time>
      </trkpt>
      <trkpt lat="44.8822" lon="5.51589">
        <ele>1751.5</ele>
        <time>2022-01-19T13:28:36Z</time>
      </trkpt>
      <trkpt lat="44.8822" lon="5.5159">
        <ele>1751.5</ele>
        <time>2022-01-19T13:28:37Z</time>
      </trkpt>
      <trkpt lat="44.88219" lon="5.5159">
        <ele>1751.5</ele>
        <time>2022-01-19T13:28:38Z</time>
      </trkpt>
      <trkpt lat="44.88219" lon="5.51591">
        <ele>1751.5</ele>
        <time>2022-01-19T13:28:39Z</time>
      </trkpt>
      <trkpt lat="44.88218" lon="5.51591">
        <ele>1751.5</ele>
        <time>2022-01-19T13:28:40Z</time>
      </trkpt>
      <trkpt lat="44.88217" lon="5.51591">
        <ele>1752.7</ele>
        <time>2022-01-19T13:28:41Z</time>
      </trkpt>
      <trkpt lat="44.88217" lon="5.51592">
        <ele>1752.7</ele>
        <time>2022-01-19T13:28:42Z</time>
      </trkpt>
      <trkpt lat="44.88217" lon="5.51592">
        <ele>1752.7</ele>
        <time>2022-01-19T13:28:43Z</time>
      </trkpt>
      <trkpt lat="44.88216" lon="5.51592">
        <ele>1752.7</ele>
        <time>2022-01-19T13:28:44Z</time>
      </trkpt>
      <trkpt lat="44.88215" lon="5.51592">
        <ele>1752.7</ele>
        <time>2022-01-19T13:28:45Z</time>
      </trkpt>
      <trkpt lat="44.88215" lon="5.51593">
        <ele>1752.7</ele>
        <time>2022-01-19T13:28:46Z</time>
      </trkpt>
      <trkpt lat="44.88215" lon="5.51593">
        <ele>1752.9</ele>
        <time>2022-01-19T13:28:47Z</time>
      </trkpt>
      <trkpt lat="44.88214" lon="5.51594">
        <ele>1752.9</ele>
        <time>2022-01-19T13:28:48Z</time>
      </trkpt>
      <trkpt lat="44.88213" lon="5.51594">
        <ele>1752.9</ele>
        <time>2022-01-19T13:28:49Z</time>
      </trkpt>
      <trkpt lat="44.88213" lon="5.51594">
        <ele>1752.9</ele>
        <time>2022-01-19T13:28:50Z</time>
      </trkpt>
      <trkpt lat="44.88212" lon="5.51595">
        <ele>1752.9</ele>
        <time>2022-01-19T13:28:51Z</time>
      </trkpt>
      <trkpt lat="44.88212" lon="5.51595">
        <ele>1753.2</ele>
        <time>2022-01-19T13:28:52Z</time>
      </trkpt>
      <trkpt lat="44.88211" lon="5.51596">
        <ele>1754.2</ele>
        <time>2022-01-19T13:28:53Z</time>
      </trkpt>
      <trkpt lat="44.88211" lon="5.51597">
        <ele>1754.2</ele>
        <time>2022-01-19T13:28:54Z</time>
      </trkpt>
      <trkpt lat="44.8821" lon="5.51597">
        <ele>1754.2</ele>
        <time>2022-01-19T13:28:55Z</time>
      </trkpt>
      <trkpt lat="44.8821" lon="5.51597">
        <ele>1754.2</ele>
        <time>2022-01-19T13:28:56Z</time>
      </trkpt>
      <trkpt lat="44.88209" lon="5.51598">
        <ele>1754.2</ele>
        <time>2022-01-19T13:28:57Z</time>
      </trkpt>
      <trkpt lat="44.88208" lon="5.51598">
        <ele>1754.4</ele>
        <time>2022-01-19T13:28:58Z</time>
      </trkpt>
      <trkpt lat="44.88208" lon="5.51599">
        <ele>1754.4</ele>
        <time>2022-01-19T13:28:59Z</time>
      </trkpt>
      <trkpt lat="44.88208" lon="5.51599">
        <ele>1754.4</ele>
        <time>2022-01-19T13:29:00Z</time>
      </trkpt>
      <trkpt lat="44.88207" lon="5.516">
        <ele>1755.5</ele>
        <time>2022-01-19T13:29:01Z</time>
      </trkpt>
      <trkpt lat="44.88207" lon="5.516">
        <ele>1755.5</ele>
        <time>2022-01-19T13:29:02Z</time>
      </trkpt>
      <trkpt lat="44.88206" lon="5.51601">
        <ele>1755.5</ele>
        <time>2022-01-19T13:29:03Z</time>
      </trkpt>
      <trkpt lat="44.88205" lon="5.51602">
        <ele>1755.7</ele>
        <time>2022-01-19T13:29:04Z</time>
      </trkpt>
      <trkpt lat="44.88204" lon="5.51603">
        <ele>1755.7</ele>
        <time>2022-01-19T13:29:05Z</time>
      </trkpt>
      <trkpt lat="44.88204" lon="5.51604">
        <ele>1755.7</ele>
        <time>2022-01-19T13:29:06Z</time>
      </trkpt>
      <trkpt lat="44.88204" lon="5.51604">
        <ele>1756.7</ele>
        <time>2022-01-19T13:29:07Z</time>
      </trkpt>
      <trkpt lat="44.88203" lon="5.51605">
        <ele>1756.8</ele>
        <time>2022-01-19T13:29:08Z</time>
      </trkpt>
      <trkpt lat="44.88202" lon="5.51605">
        <ele>1757.1</ele>
        <time>2022-01-19T13:29:09Z</time>
      </trkpt>
      <trkpt lat="44.88202" lon="5.51606">
        <ele>1757.2</ele>
        <time>2022-01-19T13:29:10Z</time>
      </trkpt>
      <trkpt lat="44.88201" lon="5.51607">
        <ele>1757.3</ele>
        <time>2022-01-19T13:29:11Z</time>
      </trkpt>
      <trkpt lat="44.882" lon="5.51607">
        <ele>1757.4</ele>
        <time>2022-01-19T13:29:12Z</time>
      </trkpt>
      <trkpt lat="44.882" lon="5.51607">
        <ele>1757.5</ele>
        <time>2022-01-19T13:29:13Z</time>
      </trkpt>
      <trkpt lat="44.88199" lon="5.51608">
        <ele>1757.8</ele>
        <time>2022-01-19T13:29:14Z</time>
      </trkpt>
      <trkpt lat="44.88199" lon="5.51608">
        <ele>1758.8</ele>
        <time>2022-01-19T13:29:15Z</time>
      </trkpt>
      <trkpt lat="44.88199" lon="5.51609">
        <ele>1758.9</ele>
        <time>2022-01-19T13:29:16Z</time>
      </trkpt>
      <trkpt lat="44.88198" lon="5.51609">
        <ele>1759</ele>
        <time>2022-01-19T13:29:17Z</time>
      </trkpt>
      <trkpt lat="44.88198" lon="5.5161">
        <ele>1759</ele>
        <time>2022-01-19T13:29:18Z</time>
      </trkpt>
      <trkpt lat="44.88197" lon="5.5161">
        <ele>1759.1</ele>
        <time>2022-01-19T13:29:19Z</time>
      </trkpt>
      <trkpt lat="44.88196" lon="5.51611">
        <ele>1759.4</ele>
        <time>2022-01-19T13:29:20Z</time>
      </trkpt>
      <trkpt lat="44.88196" lon="5.51612">
        <ele>1759.5</ele>
        <time>2022-01-19T13:29:21Z</time>
      </trkpt>
      <trkpt lat="44.88195" lon="5.51613">
        <ele>1760.5</ele>
        <time>2022-01-19T13:29:22Z</time>
      </trkpt>
      <trkpt lat="44.88195" lon="5.51614">
        <ele>1760.6</ele>
        <time>2022-01-19T13:29:23Z</time>
      </trkpt>
      <trkpt lat="44.88194" lon="5.51614">
        <ele>1760.7</ele>
        <time>2022-01-19T13:29:24Z</time>
      </trkpt>
      <trkpt lat="44.88194" lon="5.51615">
        <ele>1760.8</ele>
        <time>2022-01-19T13:29:25Z</time>
      </trkpt>
      <trkpt lat="44.88193" lon="5.51615">
        <ele>1761.1</ele>
        <time>2022-01-19T13:29:26Z</time>
      </trkpt>
      <trkpt lat="44.88192" lon="5.51615">
        <ele>1761.2</ele>
        <time>2022-01-19T13:29:27Z</time>
      </trkpt>
      <trkpt lat="44.88191" lon="5.51615">
        <ele>1761.2</ele>
        <time>2022-01-19T13:29:28Z</time>
      </trkpt>
      <trkpt lat="44.88191" lon="5.51616">
        <ele>1761.3</ele>
        <time>2022-01-19T13:29:29Z</time>
      </trkpt>
      <trkpt lat="44.88191" lon="5.51617">
        <ele>1762.2</ele>
        <time>2022-01-19T13:29:30Z</time>
      </trkpt>
      <trkpt lat="44.8819" lon="5.51617">
        <ele>1762.5</ele>
        <time>2022-01-19T13:29:31Z</time>
      </trkpt>
      <trkpt lat="44.8819" lon="5.51618">
        <ele>1762.6</ele>
        <time>2022-01-19T13:29:32Z</time>
      </trkpt>
      <trkpt lat="44.88189" lon="5.51618">
        <ele>1762.6</ele>
        <time>2022-01-19T13:29:33Z</time>
      </trkpt>
      <trkpt lat="44.88189" lon="5.51618">
        <ele>1762.7</ele>
        <time>2022-01-19T13:29:34Z</time>
      </trkpt>
      <trkpt lat="44.88189" lon="5.51619">
        <ele>1762.8</ele>
        <time>2022-01-19T13:29:35Z</time>
      </trkpt>
      <trkpt lat="44.88189" lon="5.5162">
        <ele>1762.9</ele>
        <time>2022-01-19T13:29:36Z</time>
      </trkpt>
      <trkpt lat="44.88189" lon="5.5162">
        <ele>1762.9</ele>
        <time>2022-01-19T13:29:37Z</time>
      </trkpt>
      <trkpt lat="44.88188" lon="5.51621">
        <ele>1763</ele>
        <time>2022-01-19T13:29:38Z</time>
      </trkpt>
      <trkpt lat="44.88188" lon="5.51621">
        <ele>1763.8</ele>
        <time>2022-01-19T13:29:39Z</time>
      </trkpt>
      <trkpt lat="44.88188" lon="5.51622">
        <ele>1763.9</ele>
        <time>2022-01-19T13:29:40Z</time>
      </trkpt>
      <trkpt lat="44.88188" lon="5.51623">
        <ele>1763.9</ele>
        <time>2022-01-19T13:29:41Z</time>
      </trkpt>
      <trkpt lat="44.88187" lon="5.51623">
        <ele>1764</ele>
        <time>2022-01-19T13:29:42Z</time>
      </trkpt>
      <trkpt lat="44.88187" lon="5.51624">
        <ele>1764.3</ele>
        <time>2022-01-19T13:29:43Z</time>
      </trkpt>
      <trkpt lat="44.88187" lon="5.51624">
        <ele>1764.4</ele>
        <time>2022-01-19T13:29:44Z</time>
      </trkpt>
      <trkpt lat="44.88186" lon="5.51624">
        <ele>1764.5</ele>
        <time>2022-01-19T13:29:45Z</time>
      </trkpt>
      <trkpt lat="44.88185" lon="5.51625">
        <ele>1764.6</ele>
        <time>2022-01-19T13:29:46Z</time>
      </trkpt>
      <trkpt lat="44.88185" lon="5.51625">
        <ele>1764.6</ele>
        <time>2022-01-19T13:29:47Z</time>
      </trkpt>
      <trkpt lat="44.88184" lon="5.51626">
        <ele>1765.4</ele>
        <time>2022-01-19T13:29:48Z</time>
      </trkpt>
      <trkpt lat="44.88184" lon="5.51626">
        <ele>1765.7</ele>
        <time>2022-01-19T13:29:49Z</time>
      </trkpt>
      <trkpt lat="44.88183" lon="5.51627">
        <ele>1765.7</ele>
        <time>2022-01-19T13:29:50Z</time>
      </trkpt>
      <trkpt lat="44.88183" lon="5.51626">
        <ele>1765.8</ele>
        <time>2022-01-19T13:29:51Z</time>
      </trkpt>
      <trkpt lat="44.88183" lon="5.51627">
        <ele>1765.8</ele>
        <time>2022-01-19T13:29:52Z</time>
      </trkpt>
      <trkpt lat="44.88183" lon="5.51628">
        <ele>1765.9</ele>
        <time>2022-01-19T13:29:53Z</time>
      </trkpt>
      <trkpt lat="44.88182" lon="5.51628">
        <ele>1766</ele>
        <time>2022-01-19T13:29:54Z</time>
      </trkpt>
      <trkpt lat="44.88182" lon="5.51629">
        <ele>1766</ele>
        <time>2022-01-19T13:29:55Z</time>
      </trkpt>
      <trkpt lat="44.88182" lon="5.5163">
        <ele>1766.7</ele>
        <time>2022-01-19T13:29:56Z</time>
      </trkpt>
      <trkpt lat="44.88182" lon="5.51631">
        <ele>1766.8</ele>
        <time>2022-01-19T13:29:57Z</time>
      </trkpt>
      <trkpt lat="44.88181" lon="5.51631">
        <ele>1766.8</ele>
        <time>2022-01-19T13:29:58Z</time>
      </trkpt>
      <trkpt lat="44.88181" lon="5.51632">
        <ele>1767</ele>
        <time>2022-01-19T13:29:59Z</time>
      </trkpt>
      <trkpt lat="44.88181" lon="5.51633">
        <ele>1767.1</ele>
        <time>2022-01-19T13:30:00Z</time>
      </trkpt>
      <trkpt lat="44.88181" lon="5.51634">
        <ele>1767.2</ele>
        <time>2022-01-19T13:30:01Z</time>
      </trkpt>
      <trkpt lat="44.88181" lon="5.51634">
        <ele>1767.7</ele>
        <time>2022-01-19T13:30:02Z</time>
      </trkpt>
      <trkpt lat="44.8818" lon="5.51635">
        <ele>1767.8</ele>
        <time>2022-01-19T13:30:03Z</time>
      </trkpt>
      <trkpt lat="44.8818" lon="5.51636">
        <ele>1767.8</ele>
        <time>2022-01-19T13:30:04Z</time>
      </trkpt>
      <trkpt lat="44.8818" lon="5.51637">
        <ele>1767.9</ele>
        <time>2022-01-19T13:30:05Z</time>
      </trkpt>
      <trkpt lat="44.8818" lon="5.51638">
        <ele>1768.4</ele>
        <time>2022-01-19T13:30:06Z</time>
      </trkpt>
      <trkpt lat="44.8818" lon="5.51639">
        <ele>1768.4</ele>
        <time>2022-01-19T13:30:07Z</time>
      </trkpt>
      <trkpt lat="44.8818" lon="5.5164">
        <ele>1768.5</ele>
        <time>2022-01-19T13:30:08Z</time>
      </trkpt>
      <trkpt lat="44.8818" lon="5.51641">
        <ele>1768.6</ele>
        <time>2022-01-19T13:30:09Z</time>
      </trkpt>
      <trkpt lat="44.8818" lon="5.51642">
        <ele>1768.7</ele>
        <time>2022-01-19T13:30:10Z</time>
      </trkpt>
      <trkpt lat="44.8818" lon="5.51643">
        <ele>1769.1</ele>
        <time>2022-01-19T13:30:11Z</time>
      </trkpt>
      <trkpt lat="44.8818" lon="5.51644">
        <ele>1769.1</ele>
        <time>2022-01-19T13:30:12Z</time>
      </trkpt>
      <trkpt lat="44.88179" lon="5.51645">
        <ele>1769.2</ele>
        <time>2022-01-19T13:30:13Z</time>
      </trkpt>
      <trkpt lat="44.88179" lon="5.51645">
        <ele>1769.3</ele>
        <time>2022-01-19T13:30:14Z</time>
      </trkpt>
      <trkpt lat="44.88179" lon="5.51646">
        <ele>1769.3</ele>
        <time>2022-01-19T13:30:15Z</time>
      </trkpt>
      <trkpt lat="44.88179" lon="5.51647">
        <ele>1769.4</ele>
        <time>2022-01-19T13:30:16Z</time>
      </trkpt>
      <trkpt lat="44.88179" lon="5.51647">
        <ele>1769.7</ele>
        <time>2022-01-19T13:30:17Z</time>
      </trkpt>
      <trkpt lat="44.88179" lon="5.51648">
        <ele>1769.8</ele>
        <time>2022-01-19T13:30:18Z</time>
      </trkpt>
      <trkpt lat="44.88179" lon="5.51649">
        <ele>1769.8</ele>
        <time>2022-01-19T13:30:19Z</time>
      </trkpt>
      <trkpt lat="44.88179" lon="5.51649">
        <ele>1769.8</ele>
        <time>2022-01-19T13:30:20Z</time>
      </trkpt>
      <trkpt lat="44.88178" lon="5.5165">
        <ele>1769.9</ele>
        <time>2022-01-19T13:30:21Z</time>
      </trkpt>
      <trkpt lat="44.88178" lon="5.5165">
        <ele>1770</ele>
        <time>2022-01-19T13:30:22Z</time>
      </trkpt>
      <trkpt lat="44.88178" lon="5.51651">
        <ele>1770.2</ele>
        <time>2022-01-19T13:30:23Z</time>
      </trkpt>
      <trkpt lat="44.88178" lon="5.51652">
        <ele>1770.4</ele>
        <time>2022-01-19T13:30:24Z</time>
      </trkpt>
      <trkpt lat="44.88178" lon="5.51653">
        <ele>1770.4</ele>
        <time>2022-01-19T13:30:25Z</time>
      </trkpt>
      <trkpt lat="44.88178" lon="5.51654">
        <ele>1770.6</ele>
        <time>2022-01-19T13:30:26Z</time>
      </trkpt>
      <trkpt lat="44.88178" lon="5.51655">
        <ele>1770.6</ele>
        <time>2022-01-19T13:30:27Z</time>
      </trkpt>
      <trkpt lat="44.88178" lon="5.51656">
        <ele>1770.8</ele>
        <time>2022-01-19T13:30:28Z</time>
      </trkpt>
      <trkpt lat="44.88178" lon="5.51657">
        <ele>1770.9</ele>
        <time>2022-01-19T13:30:29Z</time>
      </trkpt>
      <trkpt lat="44.88178" lon="5.51658">
        <ele>1771</ele>
        <time>2022-01-19T13:30:30Z</time>
      </trkpt>
      <trkpt lat="44.88178" lon="5.51659">
        <ele>1771</ele>
        <time>2022-01-19T13:30:31Z</time>
      </trkpt>
      <trkpt lat="44.88178" lon="5.5166">
        <ele>1771.2</ele>
        <time>2022-01-19T13:30:32Z</time>
      </trkpt>
      <trkpt lat="44.88178" lon="5.51661">
        <ele>1771.3</ele>
        <time>2022-01-19T13:30:33Z</time>
      </trkpt>
      <trkpt lat="44.88178" lon="5.51662">
        <ele>1771.4</ele>
        <time>2022-01-19T13:30:34Z</time>
      </trkpt>
      <trkpt lat="44.88178" lon="5.51663">
        <ele>1771.5</ele>
        <time>2022-01-19T13:30:35Z</time>
      </trkpt>
      <trkpt lat="44.88177" lon="5.51664">
        <ele>1771.7</ele>
        <time>2022-01-19T13:30:36Z</time>
      </trkpt>
      <trkpt lat="44.88177" lon="5.51665">
        <ele>1771.8</ele>
        <time>2022-01-19T13:30:37Z</time>
      </trkpt>
      <trkpt lat="44.88177" lon="5.51666">
        <ele>1771.9</ele>
        <time>2022-01-19T13:30:38Z</time>
      </trkpt>
      <trkpt lat="44.88177" lon="5.51667">
        <ele>1771.9</ele>
        <time>2022-01-19T13:30:39Z</time>
      </trkpt>
      <trkpt lat="44.88177" lon="5.51668">
        <ele>1772</ele>
        <time>2022-01-19T13:30:40Z</time>
      </trkpt>
      <trkpt lat="44.88177" lon="5.51669">
        <ele>1772.1</ele>
        <time>2022-01-19T13:30:41Z</time>
      </trkpt>
      <trkpt lat="44.88177" lon="5.5167">
        <ele>1772.2</ele>
        <time>2022-01-19T13:30:42Z</time>
      </trkpt>
      <trkpt lat="44.88177" lon="5.5167">
        <ele>1772.2</ele>
        <time>2022-01-19T13:30:43Z</time>
      </trkpt>
      <trkpt lat="44.88177" lon="5.51671">
        <ele>1772.3</ele>
        <time>2022-01-19T13:30:44Z</time>
      </trkpt>
      <trkpt lat="44.88178" lon="5.51672">
        <ele>1772.4</ele>
        <time>2022-01-19T13:30:45Z</time>
      </trkpt>
      <trkpt lat="44.88178" lon="5.51673">
        <ele>1772.4</ele>
        <time>2022-01-19T13:30:46Z</time>
      </trkpt>
      <trkpt lat="44.88178" lon="5.51674">
        <ele>1772.5</ele>
        <time>2022-01-19T13:30:47Z</time>
      </trkpt>
      <trkpt lat="44.88178" lon="5.51675">
        <ele>1772.7</ele>
        <time>2022-01-19T13:30:48Z</time>
      </trkpt>
      <trkpt lat="44.88178" lon="5.51676">
        <ele>1772.8</ele>
        <time>2022-01-19T13:30:49Z</time>
      </trkpt>
      <trkpt lat="44.88179" lon="5.51677">
        <ele>1772.9</ele>
        <time>2022-01-19T13:30:50Z</time>
      </trkpt>
      <trkpt lat="44.88179" lon="5.51678">
        <ele>1773</ele>
        <time>2022-01-19T13:30:51Z</time>
      </trkpt>
      <trkpt lat="44.88179" lon="5.51679">
        <ele>1773.1</ele>
        <time>2022-01-19T13:30:52Z</time>
      </trkpt>
      <trkpt lat="44.88179" lon="5.5168">
        <ele>1773.2</ele>
        <time>2022-01-19T13:30:53Z</time>
      </trkpt>
      <trkpt lat="44.88179" lon="5.51681">
        <ele>1773.3</ele>
        <time>2022-01-19T13:30:54Z</time>
      </trkpt>
      <trkpt lat="44.88179" lon="5.51682">
        <ele>1773.4</ele>
        <time>2022-01-19T13:30:55Z</time>
      </trkpt>
      <trkpt lat="44.88179" lon="5.51683">
        <ele>1773.6</ele>
        <time>2022-01-19T13:30:56Z</time>
      </trkpt>
      <trkpt lat="44.8818" lon="5.51684">
        <ele>1773.7</ele>
        <time>2022-01-19T13:30:57Z</time>
      </trkpt>
      <trkpt lat="44.8818" lon="5.51685">
        <ele>1773.8</ele>
        <time>2022-01-19T13:30:58Z</time>
      </trkpt>
      <trkpt lat="44.88181" lon="5.51685">
        <ele>1773.9</ele>
        <time>2022-01-19T13:30:59Z</time>
      </trkpt>
      <trkpt lat="44.88181" lon="5.51686">
        <ele>1774</ele>
        <time>2022-01-19T13:31:00Z</time>
      </trkpt>
      <trkpt lat="44.88181" lon="5.51687">
        <ele>1774.1</ele>
        <time>2022-01-19T13:31:01Z</time>
      </trkpt>
      <trkpt lat="44.88181" lon="5.51688">
        <ele>1774.2</ele>
        <time>2022-01-19T13:31:02Z</time>
      </trkpt>
      <trkpt lat="44.88182" lon="5.51688">
        <ele>1774.3</ele>
        <time>2022-01-19T13:31:03Z</time>
      </trkpt>
      <trkpt lat="44.88182" lon="5.51689">
        <ele>1774.4</ele>
        <time>2022-01-19T13:31:04Z</time>
      </trkpt>
      <trkpt lat="44.88182" lon="5.5169">
        <ele>1774.5</ele>
        <time>2022-01-19T13:31:05Z</time>
      </trkpt>
      <trkpt lat="44.88182" lon="5.51691">
        <ele>1774.6</ele>
        <time>2022-01-19T13:31:06Z</time>
      </trkpt>
      <trkpt lat="44.88182" lon="5.51692">
        <ele>1774.7</ele>
        <time>2022-01-19T13:31:07Z</time>
      </trkpt>
      <trkpt lat="44.88182" lon="5.51693">
        <ele>1774.8</ele>
        <time>2022-01-19T13:31:08Z</time>
      </trkpt>
      <trkpt lat="44.88183" lon="5.51694">
        <ele>1777.4</ele>
        <time>2022-01-19T13:31:09Z</time>
      </trkpt>
      <trkpt lat="44.88183" lon="5.51695">
        <ele>1777.5</ele>
        <time>2022-01-19T13:31:10Z</time>
      </trkpt>
      <trkpt lat="44.88184" lon="5.51696">
        <ele>1777.5</ele>
        <time>2022-01-19T13:31:11Z</time>
      </trkpt>
      <trkpt lat="44.88184" lon="5.51697">
        <ele>1777.6</ele>
        <time>2022-01-19T13:31:12Z</time>
      </trkpt>
      <trkpt lat="44.88185" lon="5.51697">
        <ele>1777.7</ele>
        <time>2022-01-19T13:31:13Z</time>
      </trkpt>
      <trkpt lat="44.88185" lon="5.51698">
        <ele>1777.7</ele>
        <time>2022-01-19T13:31:14Z</time>
      </trkpt>
      <trkpt lat="44.88186" lon="5.51699">
        <ele>1777.8</ele>
        <time>2022-01-19T13:31:15Z</time>
      </trkpt>
      <trkpt lat="44.88186" lon="5.517">
        <ele>1777.8</ele>
        <time>2022-01-19T13:31:16Z</time>
      </trkpt>
      <trkpt lat="44.88187" lon="5.51701">
        <ele>1777.9</ele>
        <time>2022-01-19T13:31:17Z</time>
      </trkpt>
      <trkpt lat="44.88187" lon="5.51701">
        <ele>1777.9</ele>
        <time>2022-01-19T13:31:18Z</time>
      </trkpt>
      <trkpt lat="44.88187" lon="5.51702">
        <ele>1778</ele>
        <time>2022-01-19T13:31:19Z</time>
      </trkpt>
      <trkpt lat="44.88187" lon="5.51703">
        <ele>1778.1</ele>
        <time>2022-01-19T13:31:20Z</time>
      </trkpt>
      <trkpt lat="44.88188" lon="5.51704">
        <ele>1778.1</ele>
        <time>2022-01-19T13:31:21Z</time>
      </trkpt>
      <trkpt lat="44.88188" lon="5.51705">
        <ele>1778.2</ele>
        <time>2022-01-19T13:31:22Z</time>
      </trkpt>
      <trkpt lat="44.88188" lon="5.51706">
        <ele>1778.3</ele>
        <time>2022-01-19T13:31:23Z</time>
      </trkpt>
      <trkpt lat="44.88188" lon="5.51707">
        <ele>1778.3</ele>
        <time>2022-01-19T13:31:24Z</time>
      </trkpt>
      <trkpt lat="44.88189" lon="5.51708">
        <ele>1778.4</ele>
        <time>2022-01-19T13:31:25Z</time>
      </trkpt>
      <trkpt lat="44.88189" lon="5.51709">
        <ele>1778.5</ele>
        <time>2022-01-19T13:31:26Z</time>
      </trkpt>
      <trkpt lat="44.88189" lon="5.51709">
        <ele>1778.5</ele>
        <time>2022-01-19T13:31:27Z</time>
      </trkpt>
      <trkpt lat="44.8819" lon="5.5171">
        <ele>1778.6</ele>
        <time>2022-01-19T13:31:28Z</time>
      </trkpt>
      <trkpt lat="44.8819" lon="5.51711">
        <ele>1778.7</ele>
        <time>2022-01-19T13:31:29Z</time>
      </trkpt>
      <trkpt lat="44.88191" lon="5.51712">
        <ele>1778.8</ele>
        <time>2022-01-19T13:31:30Z</time>
      </trkpt>
      <trkpt lat="44.88191" lon="5.51713">
        <ele>1778.8</ele>
        <time>2022-01-19T13:31:31Z</time>
      </trkpt>
      <trkpt lat="44.88191" lon="5.51714">
        <ele>1778.9</ele>
        <time>2022-01-19T13:31:32Z</time>
      </trkpt>
      <trkpt lat="44.88192" lon="5.51715">
        <ele>1779</ele>
        <time>2022-01-19T13:31:33Z</time>
      </trkpt>
      <trkpt lat="44.88192" lon="5.51715">
        <ele>1779</ele>
        <time>2022-01-19T13:31:34Z</time>
      </trkpt>
      <trkpt lat="44.88192" lon="5.51716">
        <ele>1779.1</ele>
        <time>2022-01-19T13:31:35Z</time>
      </trkpt>
      <trkpt lat="44.88192" lon="5.51716">
        <ele>1779.1</ele>
        <time>2022-01-19T13:31:36Z</time>
      </trkpt>
      <trkpt lat="44.88193" lon="5.51717">
        <ele>1779.2</ele>
        <time>2022-01-19T13:31:37Z</time>
      </trkpt>
      <trkpt lat="44.88193" lon="5.51717">
        <ele>1779.3</ele>
        <time>2022-01-19T13:31:38Z</time>
      </trkpt>
      <trkpt lat="44.88194" lon="5.51718">
        <ele>1779.4</ele>
        <time>2022-01-19T13:31:39Z</time>
      </trkpt>
      <trkpt lat="44.88194" lon="5.51719">
        <ele>1779.4</ele>
        <time>2022-01-19T13:31:40Z</time>
      </trkpt>
      <trkpt lat="44.88194" lon="5.51719">
        <ele>1779.5</ele>
        <time>2022-01-19T13:31:41Z</time>
      </trkpt>
      <trkpt lat="44.88195" lon="5.51719">
        <ele>1779.5</ele>
        <time>2022-01-19T13:31:42Z</time>
      </trkpt>
      <trkpt lat="44.88195" lon="5.5172">
        <ele>1779.6</ele>
        <time>2022-01-19T13:31:43Z</time>
      </trkpt>
      <trkpt lat="44.88195" lon="5.51721">
        <ele>1779.7</ele>
        <time>2022-01-19T13:31:44Z</time>
      </trkpt>
      <trkpt lat="44.88196" lon="5.51721">
        <ele>1779.8</ele>
        <time>2022-01-19T13:31:45Z</time>
      </trkpt>
      <trkpt lat="44.88196" lon="5.51722">
        <ele>1779.9</ele>
        <time>2022-01-19T13:31:46Z</time>
      </trkpt>
      <trkpt lat="44.88196" lon="5.51723">
        <ele>1779.9</ele>
        <time>2022-01-19T13:31:47Z</time>
      </trkpt>
      <trkpt lat="44.88197" lon="5.51723">
        <ele>1780</ele>
        <time>2022-01-19T13:31:48Z</time>
      </trkpt>
      <trkpt lat="44.88197" lon="5.51723">
        <ele>1780</ele>
        <time>2022-01-19T13:31:49Z</time>
      </trkpt>
      <trkpt lat="44.88197" lon="5.51723">
        <ele>1780.1</ele>
        <time>2022-01-19T13:31:50Z</time>
      </trkpt>
      <trkpt lat="44.88198" lon="5.51724">
        <ele>1780.2</ele>
        <time>2022-01-19T13:31:51Z</time>
      </trkpt>
      <trkpt lat="44.88198" lon="5.51724">
        <ele>1780.2</ele>
        <time>2022-01-19T13:31:52Z</time>
      </trkpt>
      <trkpt lat="44.88198" lon="5.51724">
        <ele>1780.3</ele>
        <time>2022-01-19T13:31:53Z</time>
      </trkpt>
      <trkpt lat="44.88198" lon="5.51725">
        <ele>1780.3</ele>
        <time>2022-01-19T13:31:54Z</time>
      </trkpt>
      <trkpt lat="44.88199" lon="5.51726">
        <ele>1780.4</ele>
        <time>2022-01-19T13:31:55Z</time>
      </trkpt>
      <trkpt lat="44.88199" lon="5.51726">
        <ele>1780.5</ele>
        <time>2022-01-19T13:31:56Z</time>
      </trkpt>
      <trkpt lat="44.88199" lon="5.51727">
        <ele>1780.6</ele>
        <time>2022-01-19T13:31:57Z</time>
      </trkpt>
      <trkpt lat="44.88199" lon="5.51728">
        <ele>1780.7</ele>
        <time>2022-01-19T13:31:58Z</time>
      </trkpt>
      <trkpt lat="44.882" lon="5.51729">
        <ele>1780.8</ele>
        <time>2022-01-19T13:31:59Z</time>
      </trkpt>
      <trkpt lat="44.882" lon="5.5173">
        <ele>1780.9</ele>
        <time>2022-01-19T13:32:00Z</time>
      </trkpt>
      <trkpt lat="44.882" lon="5.5173">
        <ele>1781</ele>
        <time>2022-01-19T13:32:01Z</time>
      </trkpt>
      <trkpt lat="44.882" lon="5.51731">
        <ele>1781.1</ele>
        <time>2022-01-19T13:32:02Z</time>
      </trkpt>
      <trkpt lat="44.882" lon="5.51733">
        <ele>1781.2</ele>
        <time>2022-01-19T13:32:03Z</time>
      </trkpt>
      <trkpt lat="44.882" lon="5.51734">
        <ele>1781.4</ele>
        <time>2022-01-19T13:32:04Z</time>
      </trkpt>
      <trkpt lat="44.882" lon="5.51735">
        <ele>1781.5</ele>
        <time>2022-01-19T13:32:05Z</time>
      </trkpt>
      <trkpt lat="44.88201" lon="5.51736">
        <ele>1781.7</ele>
        <time>2022-01-19T13:32:06Z</time>
      </trkpt>
      <trkpt lat="44.88201" lon="5.51738">
        <ele>1781.9</ele>
        <time>2022-01-19T13:32:07Z</time>
      </trkpt>
      <trkpt lat="44.88201" lon="5.51739">
        <ele>1782</ele>
        <time>2022-01-19T13:32:08Z</time>
      </trkpt>
      <trkpt lat="44.88201" lon="5.5174">
        <ele>1782.2</ele>
        <time>2022-01-19T13:32:09Z</time>
      </trkpt>
      <trkpt lat="44.88202" lon="5.51741">
        <ele>1782.3</ele>
        <time>2022-01-19T13:32:10Z</time>
      </trkpt>
      <trkpt lat="44.88202" lon="5.51742">
        <ele>1782.4</ele>
        <time>2022-01-19T13:32:11Z</time>
      </trkpt>
      <trkpt lat="44.88202" lon="5.51743">
        <ele>1782.6</ele>
        <time>2022-01-19T13:32:12Z</time>
      </trkpt>
      <trkpt lat="44.88202" lon="5.51744">
        <ele>1782.7</ele>
        <time>2022-01-19T13:32:13Z</time>
      </trkpt>
      <trkpt lat="44.88202" lon="5.51745">
        <ele>1782.9</ele>
        <time>2022-01-19T13:32:14Z</time>
      </trkpt>
      <trkpt lat="44.88203" lon="5.51745">
        <ele>1783</ele>
        <time>2022-01-19T13:32:15Z</time>
      </trkpt>
      <trkpt lat="44.88203" lon="5.51746">
        <ele>1783.1</ele>
        <time>2022-01-19T13:32:16Z</time>
      </trkpt>
      <trkpt lat="44.88203" lon="5.51747">
        <ele>1783.2</ele>
        <time>2022-01-19T13:32:17Z</time>
      </trkpt>
      <trkpt lat="44.88203" lon="5.51748">
        <ele>1783.4</ele>
        <time>2022-01-19T13:32:18Z</time>
      </trkpt>
      <trkpt lat="44.88203" lon="5.51749">
        <ele>1783.5</ele>
        <time>2022-01-19T13:32:19Z</time>
      </trkpt>
      <trkpt lat="44.88203" lon="5.5175">
        <ele>1783.6</ele>
        <time>2022-01-19T13:32:20Z</time>
      </trkpt>
      <trkpt lat="44.88203" lon="5.51751">
        <ele>1783.7</ele>
        <time>2022-01-19T13:32:21Z</time>
      </trkpt>
      <trkpt lat="44.88203" lon="5.51752">
        <ele>1783.9</ele>
        <time>2022-01-19T13:32:22Z</time>
      </trkpt>
      <trkpt lat="44.88203" lon="5.51753">
        <ele>1784</ele>
        <time>2022-01-19T13:32:23Z</time>
      </trkpt>
      <trkpt lat="44.88203" lon="5.51754">
        <ele>1784.1</ele>
        <time>2022-01-19T13:32:24Z</time>
      </trkpt>
      <trkpt lat="44.88203" lon="5.51754">
        <ele>1784.3</ele>
        <time>2022-01-19T13:32:25Z</time>
      </trkpt>
      <trkpt lat="44.88203" lon="5.51755">
        <ele>1784.4</ele>
        <time>2022-01-19T13:32:26Z</time>
      </trkpt>
      <trkpt lat="44.88203" lon="5.51757">
        <ele>1784.6</ele>
        <time>2022-01-19T13:32:27Z</time>
      </trkpt>
      <trkpt lat="44.88203" lon="5.51757">
        <ele>1784.7</ele>
        <time>2022-01-19T13:32:28Z</time>
      </trkpt>
      <trkpt lat="44.88203" lon="5.51758">
        <ele>1784.8</ele>
        <time>2022-01-19T13:32:29Z</time>
      </trkpt>
      <trkpt lat="44.88203" lon="5.51759">
        <ele>1784.9</ele>
        <time>2022-01-19T13:32:30Z</time>
      </trkpt>
      <trkpt lat="44.88204" lon="5.5176">
        <ele>1785</ele>
        <time>2022-01-19T13:32:31Z</time>
      </trkpt>
      <trkpt lat="44.88204" lon="5.5176">
        <ele>1785.1</ele>
        <time>2022-01-19T13:32:32Z</time>
      </trkpt>
      <trkpt lat="44.88204" lon="5.51761">
        <ele>1785.2</ele>
        <time>2022-01-19T13:32:33Z</time>
      </trkpt>
      <trkpt lat="44.88204" lon="5.51762">
        <ele>1785.3</ele>
        <time>2022-01-19T13:32:34Z</time>
      </trkpt>
      <trkpt lat="44.88204" lon="5.51763">
        <ele>1785.5</ele>
        <time>2022-01-19T13:32:35Z</time>
      </trkpt>
      <trkpt lat="44.88204" lon="5.51763">
        <ele>1785.6</ele>
        <time>2022-01-19T13:32:36Z</time>
      </trkpt>
      <trkpt lat="44.88204" lon="5.51764">
        <ele>1785.7</ele>
        <time>2022-01-19T13:32:37Z</time>
      </trkpt>
      <trkpt lat="44.88204" lon="5.51765">
        <ele>1785.8</ele>
        <time>2022-01-19T13:32:38Z</time>
      </trkpt>
      <trkpt lat="44.88204" lon="5.51766">
        <ele>1785.9</ele>
        <time>2022-01-19T13:32:39Z</time>
      </trkpt>
      <trkpt lat="44.88204" lon="5.51767">
        <ele>1786.1</ele>
        <time>2022-01-19T13:32:40Z</time>
      </trkpt>
      <trkpt lat="44.88204" lon="5.51768">
        <ele>1786.2</ele>
        <time>2022-01-19T13:32:41Z</time>
      </trkpt>
      <trkpt lat="44.88205" lon="5.51769">
        <ele>1786.3</ele>
        <time>2022-01-19T13:32:42Z</time>
      </trkpt>
      <trkpt lat="44.88205" lon="5.5177">
        <ele>1786.5</ele>
        <time>2022-01-19T13:32:43Z</time>
      </trkpt>
      <trkpt lat="44.88204" lon="5.51771">
        <ele>1786.6</ele>
        <time>2022-01-19T13:32:44Z</time>
      </trkpt>
      <trkpt lat="44.88204" lon="5.51772">
        <ele>1786.8</ele>
        <time>2022-01-19T13:32:45Z</time>
      </trkpt>
      <trkpt lat="44.88204" lon="5.51773">
        <ele>1786.9</ele>
        <time>2022-01-19T13:32:46Z</time>
      </trkpt>
      <trkpt lat="44.88204" lon="5.51774">
        <ele>1787.1</ele>
        <time>2022-01-19T13:32:47Z</time>
      </trkpt>
      <trkpt lat="44.88204" lon="5.51775">
        <ele>1787.2</ele>
        <time>2022-01-19T13:32:48Z</time>
      </trkpt>
      <trkpt lat="44.88203" lon="5.51776">
        <ele>1787.3</ele>
        <time>2022-01-19T13:32:49Z</time>
      </trkpt>
      <trkpt lat="44.88203" lon="5.51776">
        <ele>1787.4</ele>
        <time>2022-01-19T13:32:50Z</time>
      </trkpt>
      <trkpt lat="44.88203" lon="5.51777">
        <ele>1787.5</ele>
        <time>2022-01-19T13:32:51Z</time>
      </trkpt>
      <trkpt lat="44.88203" lon="5.51778">
        <ele>1787.6</ele>
        <time>2022-01-19T13:32:52Z</time>
      </trkpt>
      <trkpt lat="44.88203" lon="5.51779">
        <ele>1787.7</ele>
        <time>2022-01-19T13:32:53Z</time>
      </trkpt>
      <trkpt lat="44.88203" lon="5.51779">
        <ele>1787.8</ele>
        <time>2022-01-19T13:32:54Z</time>
      </trkpt>
      <trkpt lat="44.88203" lon="5.5178">
        <ele>1787.9</ele>
        <time>2022-01-19T13:32:55Z</time>
      </trkpt>
      <trkpt lat="44.88203" lon="5.5178">
        <ele>1788</ele>
        <time>2022-01-19T13:32:56Z</time>
      </trkpt>
      <trkpt lat="44.88202" lon="5.51781">
        <ele>1788.1</ele>
        <time>2022-01-19T13:32:57Z</time>
      </trkpt>
      <trkpt lat="44.88202" lon="5.51781">
        <ele>1788.1</ele>
        <time>2022-01-19T13:32:58Z</time>
      </trkpt>
      <trkpt lat="44.88202" lon="5.51782">
        <ele>1788.2</ele>
        <time>2022-01-19T13:32:59Z</time>
      </trkpt>
      <trkpt lat="44.88202" lon="5.51783">
        <ele>1788.4</ele>
        <time>2022-01-19T13:33:00Z</time>
      </trkpt>
      <trkpt lat="44.88202" lon="5.51784">
        <ele>1788.5</ele>
        <time>2022-01-19T13:33:01Z</time>
      </trkpt>
      <trkpt lat="44.88202" lon="5.51785">
        <ele>1788.6</ele>
        <time>2022-01-19T13:33:02Z</time>
      </trkpt>
      <trkpt lat="44.88202" lon="5.51785">
        <ele>1788.7</ele>
        <time>2022-01-19T13:33:03Z</time>
      </trkpt>
      <trkpt lat="44.88202" lon="5.51786">
        <ele>1788.8</ele>
        <time>2022-01-19T13:33:04Z</time>
      </trkpt>
      <trkpt lat="44.88202" lon="5.51787">
        <ele>1788.9</ele>
        <time>2022-01-19T13:33:05Z</time>
      </trkpt>
      <trkpt lat="44.88202" lon="5.51788">
        <ele>1789</ele>
        <time>2022-01-19T13:33:06Z</time>
      </trkpt>
      <trkpt lat="44.88202" lon="5.51788">
        <ele>1789.1</ele>
        <time>2022-01-19T13:33:07Z</time>
      </trkpt>
      <trkpt lat="44.88202" lon="5.51788">
        <ele>1789.1</ele>
        <time>2022-01-19T13:33:08Z</time>
      </trkpt>
      <trkpt lat="44.88202" lon="5.51788">
        <ele>1789.1</ele>
        <time>2022-01-19T13:33:09Z</time>
      </trkpt>
      <trkpt lat="44.88202" lon="5.51788">
        <ele>1789.1</ele>
        <time>2022-01-19T13:33:10Z</time>
      </trkpt>
      <trkpt lat="44.88202" lon="5.51788">
        <ele>1789.1</ele>
        <time>2022-01-19T13:33:11Z</time>
      </trkpt>
      <trkpt lat="44.88202" lon="5.51788">
        <ele>1789.1</ele>
        <time>2022-01-19T13:33:12Z</time>
      </trkpt>
      <trkpt lat="44.88202" lon="5.5179">
        <ele>1789.4</ele>
        <time>2022-01-19T13:33:13Z</time>
      </trkpt>
      <trkpt lat="44.88201" lon="5.51791">
        <ele>1789.5</ele>
        <time>2022-01-19T13:33:14Z</time>
      </trkpt>
      <trkpt lat="44.882" lon="5.51792">
        <ele>1789.8</ele>
        <time>2022-01-19T13:33:15Z</time>
      </trkpt>
      <trkpt lat="44.882" lon="5.51794">
        <ele>1789.9</ele>
        <time>2022-01-19T13:33:16Z</time>
      </trkpt>
      <trkpt lat="44.882" lon="5.51795">
        <ele>1790.1</ele>
        <time>2022-01-19T13:33:17Z</time>
      </trkpt>
      <trkpt lat="44.882" lon="5.51796">
        <ele>1790.2</ele>
        <time>2022-01-19T13:33:18Z</time>
      </trkpt>
      <trkpt lat="44.882" lon="5.51797">
        <ele>1790.4</ele>
        <time>2022-01-19T13:33:19Z</time>
      </trkpt>
      <trkpt lat="44.882" lon="5.51798">
        <ele>1790.6</ele>
        <time>2022-01-19T13:33:20Z</time>
      </trkpt>
      <trkpt lat="44.882" lon="5.51799">
        <ele>1790.6</ele>
        <time>2022-01-19T13:33:21Z</time>
      </trkpt>
      <trkpt lat="44.882" lon="5.518">
        <ele>1790.8</ele>
        <time>2022-01-19T13:33:22Z</time>
      </trkpt>
      <trkpt lat="44.882" lon="5.518">
        <ele>1790.9</ele>
        <time>2022-01-19T13:33:23Z</time>
      </trkpt>
      <trkpt lat="44.882" lon="5.51801">
        <ele>1791</ele>
        <time>2022-01-19T13:33:24Z</time>
      </trkpt>
      <trkpt lat="44.88199" lon="5.51802">
        <ele>1791.1</ele>
        <time>2022-01-19T13:33:25Z</time>
      </trkpt>
      <trkpt lat="44.88199" lon="5.51802">
        <ele>1791.2</ele>
        <time>2022-01-19T13:33:26Z</time>
      </trkpt>
      <trkpt lat="44.88199" lon="5.51803">
        <ele>1791.4</ele>
        <time>2022-01-19T13:33:27Z</time>
      </trkpt>
      <trkpt lat="44.88199" lon="5.51804">
        <ele>1791.5</ele>
        <time>2022-01-19T13:33:28Z</time>
      </trkpt>
      <trkpt lat="44.88199" lon="5.51805">
        <ele>1791.6</ele>
        <time>2022-01-19T13:33:29Z</time>
      </trkpt>
      <trkpt lat="44.88199" lon="5.51806">
        <ele>1791.7</ele>
        <time>2022-01-19T13:33:30Z</time>
      </trkpt>
      <trkpt lat="44.88198" lon="5.51806">
        <ele>1791.9</ele>
        <time>2022-01-19T13:33:31Z</time>
      </trkpt>
      <trkpt lat="44.88197" lon="5.51807">
        <ele>1792.1</ele>
        <time>2022-01-19T13:33:32Z</time>
      </trkpt>
      <trkpt lat="44.88197" lon="5.51808">
        <ele>1792.2</ele>
        <time>2022-01-19T13:33:33Z</time>
      </trkpt>
      <trkpt lat="44.88197" lon="5.51809">
        <ele>1792.3</ele>
        <time>2022-01-19T13:33:34Z</time>
      </trkpt>
      <trkpt lat="44.88197" lon="5.5181">
        <ele>1792.5</ele>
        <time>2022-01-19T13:33:35Z</time>
      </trkpt>
      <trkpt lat="44.88196" lon="5.5181">
        <ele>1792.6</ele>
        <time>2022-01-19T13:33:36Z</time>
      </trkpt>
      <trkpt lat="44.88196" lon="5.51811">
        <ele>1792.7</ele>
        <time>2022-01-19T13:33:37Z</time>
      </trkpt>
      <trkpt lat="44.88196" lon="5.51811">
        <ele>1792.8</ele>
        <time>2022-01-19T13:33:38Z</time>
      </trkpt>
      <trkpt lat="44.88195" lon="5.51811">
        <ele>1792.8</ele>
        <time>2022-01-19T13:33:39Z</time>
      </trkpt>
      <trkpt lat="44.88195" lon="5.51812">
        <ele>1792.9</ele>
        <time>2022-01-19T13:33:40Z</time>
      </trkpt>
      <trkpt lat="44.88195" lon="5.51812">
        <ele>1793</ele>
        <time>2022-01-19T13:33:41Z</time>
      </trkpt>
      <trkpt lat="44.88194" lon="5.51813">
        <ele>1793.2</ele>
        <time>2022-01-19T13:33:42Z</time>
      </trkpt>
      <trkpt lat="44.88194" lon="5.51814">
        <ele>1793.4</ele>
        <time>2022-01-19T13:33:43Z</time>
      </trkpt>
      <trkpt lat="44.88193" lon="5.51815">
        <ele>1793.6</ele>
        <time>2022-01-19T13:33:44Z</time>
      </trkpt>
      <trkpt lat="44.88192" lon="5.51816">
        <ele>1793.7</ele>
        <time>2022-01-19T13:33:45Z</time>
      </trkpt>
      <trkpt lat="44.88192" lon="5.51816">
        <ele>1793.8</ele>
        <time>2022-01-19T13:33:46Z</time>
      </trkpt>
      <trkpt lat="44.88192" lon="5.51817">
        <ele>1794</ele>
        <time>2022-01-19T13:33:47Z</time>
      </trkpt>
      <trkpt lat="44.88191" lon="5.51818">
        <ele>1794.2</ele>
        <time>2022-01-19T13:33:48Z</time>
      </trkpt>
      <trkpt lat="44.88191" lon="5.51819">
        <ele>1794.3</ele>
        <time>2022-01-19T13:33:49Z</time>
      </trkpt>
      <trkpt lat="44.88191" lon="5.5182">
        <ele>1794.4</ele>
        <time>2022-01-19T13:33:50Z</time>
      </trkpt>
      <trkpt lat="44.88191" lon="5.5182">
        <ele>1794.5</ele>
        <time>2022-01-19T13:33:51Z</time>
      </trkpt>
      <trkpt lat="44.8819" lon="5.51821">
        <ele>1794.7</ele>
        <time>2022-01-19T13:33:52Z</time>
      </trkpt>
      <trkpt lat="44.8819" lon="5.51822">
        <ele>1794.8</ele>
        <time>2022-01-19T13:33:53Z</time>
      </trkpt>
      <trkpt lat="44.88189" lon="5.51822">
        <ele>1795</ele>
        <time>2022-01-19T13:33:54Z</time>
      </trkpt>
      <trkpt lat="44.88189" lon="5.51823">
        <ele>1795.1</ele>
        <time>2022-01-19T13:33:55Z</time>
      </trkpt>
      <trkpt lat="44.88189" lon="5.51824">
        <ele>1795.2</ele>
        <time>2022-01-19T13:33:56Z</time>
      </trkpt>
      <trkpt lat="44.88188" lon="5.51825">
        <ele>1795.4</ele>
        <time>2022-01-19T13:33:57Z</time>
      </trkpt>
      <trkpt lat="44.88188" lon="5.51825">
        <ele>1795.5</ele>
        <time>2022-01-19T13:33:58Z</time>
      </trkpt>
      <trkpt lat="44.88187" lon="5.51826">
        <ele>1795.7</ele>
        <time>2022-01-19T13:33:59Z</time>
      </trkpt>
      <trkpt lat="44.88187" lon="5.51826">
        <ele>1795.8</ele>
        <time>2022-01-19T13:34:00Z</time>
      </trkpt>
      <trkpt lat="44.88186" lon="5.51827">
        <ele>1796</ele>
        <time>2022-01-19T13:34:01Z</time>
      </trkpt>
      <trkpt lat="44.88186" lon="5.51828">
        <ele>1796.1</ele>
        <time>2022-01-19T13:34:02Z</time>
      </trkpt>
      <trkpt lat="44.88186" lon="5.51828">
        <ele>1796.2</ele>
        <time>2022-01-19T13:34:03Z</time>
      </trkpt>
      <trkpt lat="44.88186" lon="5.51829">
        <ele>1796.3</ele>
        <time>2022-01-19T13:34:04Z</time>
      </trkpt>
      <trkpt lat="44.88185" lon="5.5183">
        <ele>1796.5</ele>
        <time>2022-01-19T13:34:05Z</time>
      </trkpt>
      <trkpt lat="44.88185" lon="5.51831">
        <ele>1796.7</ele>
        <time>2022-01-19T13:34:06Z</time>
      </trkpt>
      <trkpt lat="44.88185" lon="5.51832">
        <ele>1796.8</ele>
        <time>2022-01-19T13:34:07Z</time>
      </trkpt>
      <trkpt lat="44.88184" lon="5.51833">
        <ele>1796.9</ele>
        <time>2022-01-19T13:34:08Z</time>
      </trkpt>
      <trkpt lat="44.88184" lon="5.51833">
        <ele>1797.1</ele>
        <time>2022-01-19T13:34:09Z</time>
      </trkpt>
      <trkpt lat="44.88184" lon="5.51834">
        <ele>1797.2</ele>
        <time>2022-01-19T13:34:10Z</time>
      </trkpt>
      <trkpt lat="44.88184" lon="5.51835">
        <ele>1797.3</ele>
        <time>2022-01-19T13:34:11Z</time>
      </trkpt>
      <trkpt lat="44.88184" lon="5.51835">
        <ele>1797.4</ele>
        <time>2022-01-19T13:34:12Z</time>
      </trkpt>
      <trkpt lat="44.88183" lon="5.51836">
        <ele>1797.5</ele>
        <time>2022-01-19T13:34:13Z</time>
      </trkpt>
      <trkpt lat="44.88183" lon="5.51836">
        <ele>1797.6</ele>
        <time>2022-01-19T13:34:14Z</time>
      </trkpt>
      <trkpt lat="44.88183" lon="5.51837">
        <ele>1797.7</ele>
        <time>2022-01-19T13:34:15Z</time>
      </trkpt>
      <trkpt lat="44.88183" lon="5.51838">
        <ele>1797.8</ele>
        <time>2022-01-19T13:34:16Z</time>
      </trkpt>
      <trkpt lat="44.88183" lon="5.51838">
        <ele>1797.8</ele>
        <time>2022-01-19T13:34:17Z</time>
      </trkpt>
      <trkpt lat="44.88183" lon="5.51839">
        <ele>1797.8</ele>
        <time>2022-01-19T13:34:18Z</time>
      </trkpt>
      <trkpt lat="44.88183" lon="5.51839">
        <ele>1797.8</ele>
        <time>2022-01-19T13:34:19Z</time>
      </trkpt>
      <trkpt lat="44.88184" lon="5.5184">
        <ele>1797.8</ele>
        <time>2022-01-19T13:34:20Z</time>
      </trkpt>
      <trkpt lat="44.88183" lon="5.5184">
        <ele>1799.1</ele>
        <time>2022-01-19T13:34:21Z</time>
      </trkpt>
      <trkpt lat="44.88183" lon="5.51841">
        <ele>1799.1</ele>
        <time>2022-01-19T13:34:22Z</time>
      </trkpt>
      <trkpt lat="44.88184" lon="5.51841">
        <ele>1799.1</ele>
        <time>2022-01-19T13:34:23Z</time>
      </trkpt>
      <trkpt lat="44.88183" lon="5.51842">
        <ele>1799.1</ele>
        <time>2022-01-19T13:34:24Z</time>
      </trkpt>
      <trkpt lat="44.88183" lon="5.51842">
        <ele>1799.1</ele>
        <time>2022-01-19T13:34:25Z</time>
      </trkpt>
      <trkpt lat="44.88183" lon="5.51843">
        <ele>1799.1</ele>
        <time>2022-01-19T13:34:26Z</time>
      </trkpt>
      <trkpt lat="44.88182" lon="5.51843">
        <ele>1799.1</ele>
        <time>2022-01-19T13:34:27Z</time>
      </trkpt>
      <trkpt lat="44.88182" lon="5.51844">
        <ele>1799.1</ele>
        <time>2022-01-19T13:34:28Z</time>
      </trkpt>
      <trkpt lat="44.88182" lon="5.51845">
        <ele>1800.5</ele>
        <time>2022-01-19T13:34:29Z</time>
      </trkpt>
      <trkpt lat="44.88182" lon="5.51845">
        <ele>1800.5</ele>
        <time>2022-01-19T13:34:30Z</time>
      </trkpt>
      <trkpt lat="44.88181" lon="5.51846">
        <ele>1800.5</ele>
        <time>2022-01-19T13:34:31Z</time>
      </trkpt>
      <trkpt lat="44.88181" lon="5.51846">
        <ele>1800.5</ele>
        <time>2022-01-19T13:34:32Z</time>
      </trkpt>
      <trkpt lat="44.88181" lon="5.51846">
        <ele>1800.5</ele>
        <time>2022-01-19T13:34:33Z</time>
      </trkpt>
      <trkpt lat="44.88181" lon="5.51846">
        <ele>1800.5</ele>
        <time>2022-01-19T13:34:34Z</time>
      </trkpt>
      <trkpt lat="44.88181" lon="5.51846">
        <ele>1800.5</ele>
        <time>2022-01-19T13:34:35Z</time>
      </trkpt>
      <trkpt lat="44.8818" lon="5.51847">
        <ele>1800.2</ele>
        <time>2022-01-19T13:34:36Z</time>
      </trkpt>
      <trkpt lat="44.8818" lon="5.51848">
        <ele>1800.2</ele>
        <time>2022-01-19T13:34:37Z</time>
      </trkpt>
      <trkpt lat="44.8818" lon="5.51848">
        <ele>1800.2</ele>
        <time>2022-01-19T13:34:38Z</time>
      </trkpt>
      <trkpt lat="44.8818" lon="5.51849">
        <ele>1801.6</ele>
        <time>2022-01-19T13:34:39Z</time>
      </trkpt>
      <trkpt lat="44.8818" lon="5.51849">
        <ele>1801.6</ele>
        <time>2022-01-19T13:34:40Z</time>
      </trkpt>
      <trkpt lat="44.88179" lon="5.5185">
        <ele>1801.6</ele>
        <time>2022-01-19T13:34:41Z</time>
      </trkpt>
      <trkpt lat="44.88179" lon="5.51851">
        <ele>1801.6</ele>
        <time>2022-01-19T13:34:42Z</time>
      </trkpt>
      <trkpt lat="44.88179" lon="5.51852">
        <ele>1801.6</ele>
        <time>2022-01-19T13:34:43Z</time>
      </trkpt>
      <trkpt lat="44.88178" lon="5.51853">
        <ele>1803</ele>
        <time>2022-01-19T13:34:44Z</time>
      </trkpt>
      <trkpt lat="44.88178" lon="5.51855">
        <ele>1802.7</ele>
        <time>2022-01-19T13:34:45Z</time>
      </trkpt>
      <trkpt lat="44.88178" lon="5.51856">
        <ele>1802.7</ele>
        <time>2022-01-19T13:34:46Z</time>
      </trkpt>
      <trkpt lat="44.88177" lon="5.51857">
        <ele>1802.7</ele>
        <time>2022-01-19T13:34:47Z</time>
      </trkpt>
      <trkpt lat="44.88177" lon="5.51858">
        <ele>1804.1</ele>
        <time>2022-01-19T13:34:48Z</time>
      </trkpt>
      <trkpt lat="44.88176" lon="5.51858">
        <ele>1804.1</ele>
        <time>2022-01-19T13:34:49Z</time>
      </trkpt>
      <trkpt lat="44.88176" lon="5.51859">
        <ele>1804.1</ele>
        <time>2022-01-19T13:34:50Z</time>
      </trkpt>
      <trkpt lat="44.88176" lon="5.5186">
        <ele>1804.1</ele>
        <time>2022-01-19T13:34:51Z</time>
      </trkpt>
      <trkpt lat="44.88175" lon="5.51861">
        <ele>1803.9</ele>
        <time>2022-01-19T13:34:52Z</time>
      </trkpt>
      <trkpt lat="44.88175" lon="5.51862">
        <ele>1805.2</ele>
        <time>2022-01-19T13:34:53Z</time>
      </trkpt>
      <trkpt lat="44.88175" lon="5.51863">
        <ele>1805.2</ele>
        <time>2022-01-19T13:34:54Z</time>
      </trkpt>
      <trkpt lat="44.88174" lon="5.51863">
        <ele>1805.2</ele>
        <time>2022-01-19T13:34:55Z</time>
      </trkpt>
      <trkpt lat="44.88174" lon="5.51864">
        <ele>1805.2</ele>
        <time>2022-01-19T13:34:56Z</time>
      </trkpt>
      <trkpt lat="44.88174" lon="5.51865">
        <ele>1805.2</ele>
        <time>2022-01-19T13:34:57Z</time>
      </trkpt>
      <trkpt lat="44.88173" lon="5.51865">
        <ele>1805.2</ele>
        <time>2022-01-19T13:34:58Z</time>
      </trkpt>
      <trkpt lat="44.88173" lon="5.51866">
        <ele>1806.5</ele>
        <time>2022-01-19T13:34:59Z</time>
      </trkpt>
      <trkpt lat="44.88173" lon="5.51867">
        <ele>1806.5</ele>
        <time>2022-01-19T13:35:00Z</time>
      </trkpt>
      <trkpt lat="44.88172" lon="5.51867">
        <ele>1806.3</ele>
        <time>2022-01-19T13:35:01Z</time>
      </trkpt>
      <trkpt lat="44.88171" lon="5.51868">
        <ele>1806.3</ele>
        <time>2022-01-19T13:35:02Z</time>
      </trkpt>
      <trkpt lat="44.88171" lon="5.51868">
        <ele>1806.3</ele>
        <time>2022-01-19T13:35:03Z</time>
      </trkpt>
      <trkpt lat="44.88171" lon="5.51869">
        <ele>1806.3</ele>
        <time>2022-01-19T13:35:04Z</time>
      </trkpt>
      <trkpt lat="44.8817" lon="5.51869">
        <ele>1806.3</ele>
        <time>2022-01-19T13:35:05Z</time>
      </trkpt>
      <trkpt lat="44.8817" lon="5.51869">
        <ele>1806.3</ele>
        <time>2022-01-19T13:35:06Z</time>
      </trkpt>
      <trkpt lat="44.88169" lon="5.5187">
        <ele>1807.5</ele>
        <time>2022-01-19T13:35:07Z</time>
      </trkpt>
      <trkpt lat="44.88168" lon="5.5187">
        <ele>1807.5</ele>
        <time>2022-01-19T13:35:08Z</time>
      </trkpt>
      <trkpt lat="44.88168" lon="5.51871">
        <ele>1807.5</ele>
        <time>2022-01-19T13:35:09Z</time>
      </trkpt>
      <trkpt lat="44.88168" lon="5.51872">
        <ele>1807.5</ele>
        <time>2022-01-19T13:35:10Z</time>
      </trkpt>
      <trkpt lat="44.88167" lon="5.51872">
        <ele>1807.5</ele>
        <time>2022-01-19T13:35:11Z</time>
      </trkpt>
      <trkpt lat="44.88167" lon="5.51873">
        <ele>1807.5</ele>
        <time>2022-01-19T13:35:12Z</time>
      </trkpt>
      <trkpt lat="44.88167" lon="5.51873">
        <ele>1807.5</ele>
        <time>2022-01-19T13:35:13Z</time>
      </trkpt>
      <trkpt lat="44.88166" lon="5.51874">
        <ele>1807.5</ele>
        <time>2022-01-19T13:35:14Z</time>
      </trkpt>
      <trkpt lat="44.88166" lon="5.51874">
        <ele>1807.4</ele>
        <time>2022-01-19T13:35:15Z</time>
      </trkpt>
      <trkpt lat="44.88165" lon="5.51875">
        <ele>1808.6</ele>
        <time>2022-01-19T13:35:16Z</time>
      </trkpt>
      <trkpt lat="44.88165" lon="5.51875">
        <ele>1808.6</ele>
        <time>2022-01-19T13:35:17Z</time>
      </trkpt>
      <trkpt lat="44.88165" lon="5.51875">
        <ele>1808.6</ele>
        <time>2022-01-19T13:35:18Z</time>
      </trkpt>
      <trkpt lat="44.88164" lon="5.51876">
        <ele>1808.6</ele>
        <time>2022-01-19T13:35:19Z</time>
      </trkpt>
      <trkpt lat="44.88164" lon="5.51876">
        <ele>1808.6</ele>
        <time>2022-01-19T13:35:20Z</time>
      </trkpt>
      <trkpt lat="44.88163" lon="5.51877">
        <ele>1808.6</ele>
        <time>2022-01-19T13:35:21Z</time>
      </trkpt>
      <trkpt lat="44.88163" lon="5.51877">
        <ele>1808.5</ele>
        <time>2022-01-19T13:35:22Z</time>
      </trkpt>
      <trkpt lat="44.88163" lon="5.51878">
        <ele>1808.5</ele>
        <time>2022-01-19T13:35:23Z</time>
      </trkpt>
      <trkpt lat="44.88163" lon="5.51879">
        <ele>1809.8</ele>
        <time>2022-01-19T13:35:24Z</time>
      </trkpt>
      <trkpt lat="44.88163" lon="5.51879">
        <ele>1809.8</ele>
        <time>2022-01-19T13:35:25Z</time>
      </trkpt>
      <trkpt lat="44.88163" lon="5.51879">
        <ele>1809.8</ele>
        <time>2022-01-19T13:35:26Z</time>
      </trkpt>
      <trkpt lat="44.88162" lon="5.5188">
        <ele>1809.8</ele>
        <time>2022-01-19T13:35:27Z</time>
      </trkpt>
      <trkpt lat="44.88162" lon="5.5188">
        <ele>1809.8</ele>
        <time>2022-01-19T13:35:28Z</time>
      </trkpt>
      <trkpt lat="44.88162" lon="5.5188">
        <ele>1809.8</ele>
        <time>2022-01-19T13:35:29Z</time>
      </trkpt>
      <trkpt lat="44.88162" lon="5.5188">
        <ele>1809.8</ele>
        <time>2022-01-19T13:35:30Z</time>
      </trkpt>
      <trkpt lat="44.88162" lon="5.5188">
        <ele>1809.8</ele>
        <time>2022-01-19T13:35:31Z</time>
      </trkpt>
      <trkpt lat="44.88162" lon="5.5188">
        <ele>1809.8</ele>
        <time>2022-01-19T13:35:32Z</time>
      </trkpt>
      <trkpt lat="44.88162" lon="5.5188">
        <ele>1809.8</ele>
        <time>2022-01-19T13:35:33Z</time>
      </trkpt>
      <trkpt lat="44.88162" lon="5.5188">
        <ele>1809.8</ele>
        <time>2022-01-19T13:35:34Z</time>
      </trkpt>
      <trkpt lat="44.88162" lon="5.5188">
        <ele>1809.8</ele>
        <time>2022-01-19T13:35:35Z</time>
      </trkpt>
      <trkpt lat="44.88162" lon="5.5188">
        <ele>1809.8</ele>
        <time>2022-01-19T13:35:36Z</time>
      </trkpt>
      <trkpt lat="44.88162" lon="5.5188">
        <ele>1809.8</ele>
        <time>2022-01-19T13:35:37Z</time>
      </trkpt>
      <trkpt lat="44.88162" lon="5.5188">
        <ele>1809.8</ele>
        <time>2022-01-19T13:35:38Z</time>
      </trkpt>
      <trkpt lat="44.88162" lon="5.5188">
        <ele>1809.8</ele>
        <time>2022-01-19T13:35:39Z</time>
      </trkpt>
      <trkpt lat="44.88162" lon="5.5188">
        <ele>1809.8</ele>
        <time>2022-01-19T13:35:40Z</time>
      </trkpt>
      <trkpt lat="44.88162" lon="5.5188">
        <ele>1809.8</ele>
        <time>2022-01-19T13:35:41Z</time>
      </trkpt>
      <trkpt lat="44.88162" lon="5.5188">
        <ele>1809.8</ele>
        <time>2022-01-19T13:35:42Z</time>
      </trkpt>
      <trkpt lat="44.88159" lon="5.51883">
        <ele>1810.9</ele>
        <time>2022-01-19T13:35:43Z</time>
      </trkpt>
      <trkpt lat="44.88159" lon="5.51884">
        <ele>1810.9</ele>
        <time>2022-01-19T13:35:44Z</time>
      </trkpt>
      <trkpt lat="44.88158" lon="5.51884">
        <ele>1810.9</ele>
        <time>2022-01-19T13:35:45Z</time>
      </trkpt>
      <trkpt lat="44.88158" lon="5.51884">
        <ele>1810.9</ele>
        <time>2022-01-19T13:35:46Z</time>
      </trkpt>
      <trkpt lat="44.88158" lon="5.51884">
        <ele>1810.9</ele>
        <time>2022-01-19T13:35:47Z</time>
      </trkpt>
      <trkpt lat="44.88158" lon="5.51884">
        <ele>1810.9</ele>
        <time>2022-01-19T13:35:48Z</time>
      </trkpt>
      <trkpt lat="44.88158" lon="5.51884">
        <ele>1810.9</ele>
        <time>2022-01-19T13:35:49Z</time>
      </trkpt>
      <trkpt lat="44.88158" lon="5.51884">
        <ele>1810.9</ele>
        <time>2022-01-19T13:35:50Z</time>
      </trkpt>
      <trkpt lat="44.88158" lon="5.51884">
        <ele>1810.9</ele>
        <time>2022-01-19T13:35:51Z</time>
      </trkpt>
      <trkpt lat="44.88158" lon="5.51884">
        <ele>1810.9</ele>
        <time>2022-01-19T13:35:52Z</time>
      </trkpt>
      <trkpt lat="44.88158" lon="5.51884">
        <ele>1810.9</ele>
        <time>2022-01-19T13:35:53Z</time>
      </trkpt>
      <trkpt lat="44.88158" lon="5.51884">
        <ele>1810.9</ele>
        <time>2022-01-19T13:35:54Z</time>
      </trkpt>
      <trkpt lat="44.88158" lon="5.51884">
        <ele>1810.9</ele>
        <time>2022-01-19T13:35:55Z</time>
      </trkpt>
      <trkpt lat="44.88158" lon="5.51884">
        <ele>1810.9</ele>
        <time>2022-01-19T13:35:56Z</time>
      </trkpt>
      <trkpt lat="44.88158" lon="5.51884">
        <ele>1810.9</ele>
        <time>2022-01-19T13:35:57Z</time>
      </trkpt>
      <trkpt lat="44.88158" lon="5.51884">
        <ele>1810.9</ele>
        <time>2022-01-19T13:35:58Z</time>
      </trkpt>
      <trkpt lat="44.88158" lon="5.51884">
        <ele>1810.9</ele>
        <time>2022-01-19T13:35:59Z</time>
      </trkpt>
      <trkpt lat="44.88158" lon="5.51884">
        <ele>1810.9</ele>
        <time>2022-01-19T13:36:00Z</time>
      </trkpt>
      <trkpt lat="44.88158" lon="5.51884">
        <ele>1810.9</ele>
        <time>2022-01-19T13:36:01Z</time>
      </trkpt>
      <trkpt lat="44.88158" lon="5.51884">
        <ele>1810.9</ele>
        <time>2022-01-19T13:36:02Z</time>
      </trkpt>
      <trkpt lat="44.88158" lon="5.51884">
        <ele>1810.9</ele>
        <time>2022-01-19T13:36:03Z</time>
      </trkpt>
      <trkpt lat="44.88158" lon="5.51884">
        <ele>1810.9</ele>
        <time>2022-01-19T13:36:04Z</time>
      </trkpt>
      <trkpt lat="44.88158" lon="5.51884">
        <ele>1810.9</ele>
        <time>2022-01-19T13:36:05Z</time>
      </trkpt>
      <trkpt lat="44.88157" lon="5.51888">
        <ele>1812.2</ele>
        <time>2022-01-19T13:36:06Z</time>
      </trkpt>
      <trkpt lat="44.88158" lon="5.51889">
        <ele>1812.2</ele>
        <time>2022-01-19T13:36:07Z</time>
      </trkpt>
      <trkpt lat="44.88158" lon="5.5189">
        <ele>1812.2</ele>
        <time>2022-01-19T13:36:08Z</time>
      </trkpt>
      <trkpt lat="44.88158" lon="5.5189">
        <ele>1812.2</ele>
        <time>2022-01-19T13:36:09Z</time>
      </trkpt>
      <trkpt lat="44.88159" lon="5.51891">
        <ele>1812.2</ele>
        <time>2022-01-19T13:36:10Z</time>
      </trkpt>
      <trkpt lat="44.88159" lon="5.51891">
        <ele>1812.2</ele>
        <time>2022-01-19T13:36:11Z</time>
      </trkpt>
      <trkpt lat="44.8816" lon="5.51891">
        <ele>1812.2</ele>
        <time>2022-01-19T13:36:12Z</time>
      </trkpt>
      <trkpt lat="44.8816" lon="5.51891">
        <ele>1812.3</ele>
        <time>2022-01-19T13:36:13Z</time>
      </trkpt>
      <trkpt lat="44.88161" lon="5.51892">
        <ele>1813.5</ele>
        <time>2022-01-19T13:36:14Z</time>
      </trkpt>
      <trkpt lat="44.88161" lon="5.51892">
        <ele>1813.5</ele>
        <time>2022-01-19T13:36:15Z</time>
      </trkpt>
      <trkpt lat="44.88162" lon="5.51892">
        <ele>1813.5</ele>
        <time>2022-01-19T13:36:16Z</time>
      </trkpt>
      <trkpt lat="44.88163" lon="5.51893">
        <ele>1813.5</ele>
        <time>2022-01-19T13:36:17Z</time>
      </trkpt>
      <trkpt lat="44.88163" lon="5.51893">
        <ele>1813.5</ele>
        <time>2022-01-19T13:36:18Z</time>
      </trkpt>
      <trkpt lat="44.88164" lon="5.51893">
        <ele>1813.7</ele>
        <time>2022-01-19T13:36:19Z</time>
      </trkpt>
      <trkpt lat="44.88164" lon="5.51894">
        <ele>1813.7</ele>
        <time>2022-01-19T13:36:20Z</time>
      </trkpt>
      <trkpt lat="44.88165" lon="5.51894">
        <ele>1813.7</ele>
        <time>2022-01-19T13:36:21Z</time>
      </trkpt>
      <trkpt lat="44.88165" lon="5.51894">
        <ele>1813.7</ele>
        <time>2022-01-19T13:36:22Z</time>
      </trkpt>
      <trkpt lat="44.88166" lon="5.51895">
        <ele>1813.7</ele>
        <time>2022-01-19T13:36:23Z</time>
      </trkpt>
      <trkpt lat="44.88166" lon="5.51895">
        <ele>1813.7</ele>
        <time>2022-01-19T13:36:24Z</time>
      </trkpt>
      <trkpt lat="44.88166" lon="5.51895">
        <ele>1813.8</ele>
        <time>2022-01-19T13:36:25Z</time>
      </trkpt>
      <trkpt lat="44.88167" lon="5.51895">
        <ele>1813.8</ele>
        <time>2022-01-19T13:36:26Z</time>
      </trkpt>
      <trkpt lat="44.88168" lon="5.51895">
        <ele>1813.8</ele>
        <time>2022-01-19T13:36:27Z</time>
      </trkpt>
      <trkpt lat="44.88168" lon="5.51896">
        <ele>1813.8</ele>
        <time>2022-01-19T13:36:28Z</time>
      </trkpt>
      <trkpt lat="44.88168" lon="5.51896">
        <ele>1815.1</ele>
        <time>2022-01-19T13:36:29Z</time>
      </trkpt>
      <trkpt lat="44.88169" lon="5.51896">
        <ele>1815.1</ele>
        <time>2022-01-19T13:36:30Z</time>
      </trkpt>
      <trkpt lat="44.88169" lon="5.51896">
        <ele>1815.1</ele>
        <time>2022-01-19T13:36:31Z</time>
      </trkpt>
      <trkpt lat="44.88169" lon="5.51895">
        <ele>1814</ele>
        <time>2022-01-19T13:36:32Z</time>
      </trkpt>
      <trkpt lat="44.8817" lon="5.51895">
        <ele>1814</ele>
        <time>2022-01-19T13:36:33Z</time>
      </trkpt>
      <trkpt lat="44.8817" lon="5.51896">
        <ele>1814</ele>
        <time>2022-01-19T13:36:34Z</time>
      </trkpt>
      <trkpt lat="44.8817" lon="5.51896">
        <ele>1815.2</ele>
        <time>2022-01-19T13:36:35Z</time>
      </trkpt>
      <trkpt lat="44.88171" lon="5.51896">
        <ele>1814</ele>
        <time>2022-01-19T13:36:36Z</time>
      </trkpt>
      <trkpt lat="44.88171" lon="5.51897">
        <ele>1815.2</ele>
        <time>2022-01-19T13:36:37Z</time>
      </trkpt>
      <trkpt lat="44.88171" lon="5.51897">
        <ele>1815.2</ele>
        <time>2022-01-19T13:36:38Z</time>
      </trkpt>
      <trkpt lat="44.88171" lon="5.51897">
        <ele>1815.2</ele>
        <time>2022-01-19T13:36:39Z</time>
      </trkpt>
      <trkpt lat="44.88171" lon="5.51897">
        <ele>1815.2</ele>
        <time>2022-01-19T13:36:40Z</time>
      </trkpt>
      <trkpt lat="44.88171" lon="5.51897">
        <ele>1815.2</ele>
        <time>2022-01-19T13:36:41Z</time>
      </trkpt>
      <trkpt lat="44.88171" lon="5.51897">
        <ele>1815.2</ele>
        <time>2022-01-19T13:36:42Z</time>
      </trkpt>
      <trkpt lat="44.88171" lon="5.51897">
        <ele>1815.2</ele>
        <time>2022-01-19T13:36:43Z</time>
      </trkpt>
      <trkpt lat="44.88169" lon="5.51896">
        <ele>1815.1</ele>
        <time>2022-01-19T13:36:44Z</time>
      </trkpt>
      <trkpt lat="44.88167" lon="5.51897">
        <ele>1815.1</ele>
        <time>2022-01-19T13:36:45Z</time>
      </trkpt>
      <trkpt lat="44.88167" lon="5.51897">
        <ele>1815.1</ele>
        <time>2022-01-19T13:36:46Z</time>
      </trkpt>
      <trkpt lat="44.88166" lon="5.51897">
        <ele>1814.9</ele>
        <time>2022-01-19T13:36:47Z</time>
      </trkpt>
      <trkpt lat="44.88165" lon="5.51897">
        <ele>1814.9</ele>
        <time>2022-01-19T13:36:48Z</time>
      </trkpt>
      <trkpt lat="44.88165" lon="5.51898">
        <ele>1814.9</ele>
        <time>2022-01-19T13:36:49Z</time>
      </trkpt>
      <trkpt lat="44.88164" lon="5.51898">
        <ele>1814.9</ele>
        <time>2022-01-19T13:36:50Z</time>
      </trkpt>
      <trkpt lat="44.88164" lon="5.51899">
        <ele>1814.9</ele>
        <time>2022-01-19T13:36:51Z</time>
      </trkpt>
      <trkpt lat="44.88164" lon="5.519">
        <ele>1814.9</ele>
        <time>2022-01-19T13:36:52Z</time>
      </trkpt>
      <trkpt lat="44.88164" lon="5.519">
        <ele>1816</ele>
        <time>2022-01-19T13:36:53Z</time>
      </trkpt>
      <trkpt lat="44.88163" lon="5.51901">
        <ele>1816</ele>
        <time>2022-01-19T13:36:54Z</time>
      </trkpt>
      <trkpt lat="44.88163" lon="5.51902">
        <ele>1815.9</ele>
        <time>2022-01-19T13:36:55Z</time>
      </trkpt>
      <trkpt lat="44.88163" lon="5.51903">
        <ele>1815.9</ele>
        <time>2022-01-19T13:36:56Z</time>
      </trkpt>
      <trkpt lat="44.88162" lon="5.51904">
        <ele>1815.9</ele>
        <time>2022-01-19T13:36:57Z</time>
      </trkpt>
      <trkpt lat="44.88162" lon="5.51905">
        <ele>1816.9</ele>
        <time>2022-01-19T13:36:58Z</time>
      </trkpt>
      <trkpt lat="44.88162" lon="5.51905">
        <ele>1816.9</ele>
        <time>2022-01-19T13:36:59Z</time>
      </trkpt>
      <trkpt lat="44.88162" lon="5.51906">
        <ele>1816.9</ele>
        <time>2022-01-19T13:37:00Z</time>
      </trkpt>
      <trkpt lat="44.88161" lon="5.51906">
        <ele>1816.9</ele>
        <time>2022-01-19T13:37:01Z</time>
      </trkpt>
      <trkpt lat="44.88161" lon="5.51908">
        <ele>1816.9</ele>
        <time>2022-01-19T13:37:02Z</time>
      </trkpt>
      <trkpt lat="44.88161" lon="5.51909">
        <ele>1817.9</ele>
        <time>2022-01-19T13:37:03Z</time>
      </trkpt>
      <trkpt lat="44.88161" lon="5.51909">
        <ele>1817.9</ele>
        <time>2022-01-19T13:37:04Z</time>
      </trkpt>
      <trkpt lat="44.88161" lon="5.5191">
        <ele>1817.9</ele>
        <time>2022-01-19T13:37:05Z</time>
      </trkpt>
      <trkpt lat="44.88161" lon="5.51911">
        <ele>1817.9</ele>
        <time>2022-01-19T13:37:06Z</time>
      </trkpt>
      <trkpt lat="44.88162" lon="5.51912">
        <ele>1817.9</ele>
        <time>2022-01-19T13:37:07Z</time>
      </trkpt>
      <trkpt lat="44.88163" lon="5.51913">
        <ele>1818.8</ele>
        <time>2022-01-19T13:37:08Z</time>
      </trkpt>
      <trkpt lat="44.88163" lon="5.51914">
        <ele>1818.8</ele>
        <time>2022-01-19T13:37:09Z</time>
      </trkpt>
      <trkpt lat="44.88163" lon="5.51915">
        <ele>1818.8</ele>
        <time>2022-01-19T13:37:10Z</time>
      </trkpt>
      <trkpt lat="44.88163" lon="5.51916">
        <ele>1819</ele>
        <time>2022-01-19T13:37:11Z</time>
      </trkpt>
      <trkpt lat="44.88164" lon="5.51916">
        <ele>1819</ele>
        <time>2022-01-19T13:37:12Z</time>
      </trkpt>
      <trkpt lat="44.88165" lon="5.51917">
        <ele>1819</ele>
        <time>2022-01-19T13:37:13Z</time>
      </trkpt>
      <trkpt lat="44.88165" lon="5.51917">
        <ele>1819.9</ele>
        <time>2022-01-19T13:37:14Z</time>
      </trkpt>
      <trkpt lat="44.88165" lon="5.51919">
        <ele>1819.9</ele>
        <time>2022-01-19T13:37:15Z</time>
      </trkpt>
      <trkpt lat="44.88166" lon="5.51919">
        <ele>1819.9</ele>
        <time>2022-01-19T13:37:16Z</time>
      </trkpt>
      <trkpt lat="44.88167" lon="5.5192">
        <ele>1820.2</ele>
        <time>2022-01-19T13:37:17Z</time>
      </trkpt>
      <trkpt lat="44.88167" lon="5.5192">
        <ele>1820.2</ele>
        <time>2022-01-19T13:37:18Z</time>
      </trkpt>
      <trkpt lat="44.88168" lon="5.51921">
        <ele>1820.2</ele>
        <time>2022-01-19T13:37:19Z</time>
      </trkpt>
      <trkpt lat="44.88168" lon="5.51922">
        <ele>1821.1</ele>
        <time>2022-01-19T13:37:20Z</time>
      </trkpt>
      <trkpt lat="44.88168" lon="5.51922">
        <ele>1821.1</ele>
        <time>2022-01-19T13:37:21Z</time>
      </trkpt>
      <trkpt lat="44.88169" lon="5.51923">
        <ele>1821.1</ele>
        <time>2022-01-19T13:37:22Z</time>
      </trkpt>
      <trkpt lat="44.88169" lon="5.51924">
        <ele>1821.4</ele>
        <time>2022-01-19T13:37:23Z</time>
      </trkpt>
      <trkpt lat="44.88169" lon="5.51925">
        <ele>1821.1</ele>
        <time>2022-01-19T13:37:24Z</time>
      </trkpt>
      <trkpt lat="44.88169" lon="5.51927">
        <ele>1822</ele>
        <time>2022-01-19T13:37:25Z</time>
      </trkpt>
      <trkpt lat="44.88169" lon="5.51928">
        <ele>1822</ele>
        <time>2022-01-19T13:37:26Z</time>
      </trkpt>
      <trkpt lat="44.88169" lon="5.51928">
        <ele>1822</ele>
        <time>2022-01-19T13:37:27Z</time>
      </trkpt>
      <trkpt lat="44.88169" lon="5.51929">
        <ele>1822</ele>
        <time>2022-01-19T13:37:28Z</time>
      </trkpt>
      <trkpt lat="44.88169" lon="5.51931">
        <ele>1822.8</ele>
        <time>2022-01-19T13:37:29Z</time>
      </trkpt>
      <trkpt lat="44.88169" lon="5.51931">
        <ele>1822.8</ele>
        <time>2022-01-19T13:37:30Z</time>
      </trkpt>
      <trkpt lat="44.88169" lon="5.51932">
        <ele>1822.8</ele>
        <time>2022-01-19T13:37:31Z</time>
      </trkpt>
      <trkpt lat="44.88168" lon="5.51933">
        <ele>1822.8</ele>
        <time>2022-01-19T13:37:32Z</time>
      </trkpt>
      <trkpt lat="44.88168" lon="5.51934">
        <ele>1822.8</ele>
        <time>2022-01-19T13:37:33Z</time>
      </trkpt>
      <trkpt lat="44.88168" lon="5.51935">
        <ele>1823.8</ele>
        <time>2022-01-19T13:37:34Z</time>
      </trkpt>
      <trkpt lat="44.88168" lon="5.51935">
        <ele>1823.8</ele>
        <time>2022-01-19T13:37:35Z</time>
      </trkpt>
      <trkpt lat="44.88168" lon="5.51936">
        <ele>1823.8</ele>
        <time>2022-01-19T13:37:36Z</time>
      </trkpt>
      <trkpt lat="44.88168" lon="5.51936">
        <ele>1823.8</ele>
        <time>2022-01-19T13:37:37Z</time>
      </trkpt>
      <trkpt lat="44.88168" lon="5.51937">
        <ele>1823.8</ele>
        <time>2022-01-19T13:37:38Z</time>
      </trkpt>
      <trkpt lat="44.88168" lon="5.51938">
        <ele>1823.8</ele>
        <time>2022-01-19T13:37:39Z</time>
      </trkpt>
      <trkpt lat="44.88167" lon="5.51939">
        <ele>1824.7</ele>
        <time>2022-01-19T13:37:40Z</time>
      </trkpt>
      <trkpt lat="44.88167" lon="5.51939">
        <ele>1824.7</ele>
        <time>2022-01-19T13:37:41Z</time>
      </trkpt>
      <trkpt lat="44.88166" lon="5.51941">
        <ele>1824.3</ele>
        <time>2022-01-19T13:37:42Z</time>
      </trkpt>
      <trkpt lat="44.88166" lon="5.51942">
        <ele>1824.3</ele>
        <time>2022-01-19T13:37:43Z</time>
      </trkpt>
      <trkpt lat="44.88165" lon="5.51943">
        <ele>1825.3</ele>
        <time>2022-01-19T13:37:44Z</time>
      </trkpt>
      <trkpt lat="44.88165" lon="5.51944">
        <ele>1825.3</ele>
        <time>2022-01-19T13:37:45Z</time>
      </trkpt>
      <trkpt lat="44.88165" lon="5.51945">
        <ele>1825.3</ele>
        <time>2022-01-19T13:37:46Z</time>
      </trkpt>
      <trkpt lat="44.88165" lon="5.51946">
        <ele>1825.3</ele>
        <time>2022-01-19T13:37:47Z</time>
      </trkpt>
      <trkpt lat="44.88164" lon="5.51947">
        <ele>1825.3</ele>
        <time>2022-01-19T13:37:48Z</time>
      </trkpt>
      <trkpt lat="44.88163" lon="5.51948">
        <ele>1826.2</ele>
        <time>2022-01-19T13:37:49Z</time>
      </trkpt>
      <trkpt lat="44.88163" lon="5.51949">
        <ele>1825.8</ele>
        <time>2022-01-19T13:37:50Z</time>
      </trkpt>
      <trkpt lat="44.88163" lon="5.5195">
        <ele>1825.8</ele>
        <time>2022-01-19T13:37:51Z</time>
      </trkpt>
      <trkpt lat="44.88163" lon="5.51952">
        <ele>1826.7</ele>
        <time>2022-01-19T13:37:52Z</time>
      </trkpt>
      <trkpt lat="44.88163" lon="5.51952">
        <ele>1826.7</ele>
        <time>2022-01-19T13:37:53Z</time>
      </trkpt>
      <trkpt lat="44.88162" lon="5.51953">
        <ele>1826.7</ele>
        <time>2022-01-19T13:37:54Z</time>
      </trkpt>
      <trkpt lat="44.88162" lon="5.51955">
        <ele>1826.7</ele>
        <time>2022-01-19T13:37:55Z</time>
      </trkpt>
      <trkpt lat="44.88162" lon="5.51956">
        <ele>1827.5</ele>
        <time>2022-01-19T13:37:56Z</time>
      </trkpt>
      <trkpt lat="44.88162" lon="5.51957">
        <ele>1827.5</ele>
        <time>2022-01-19T13:37:57Z</time>
      </trkpt>
      <trkpt lat="44.88161" lon="5.51958">
        <ele>1827.5</ele>
        <time>2022-01-19T13:37:58Z</time>
      </trkpt>
      <trkpt lat="44.88161" lon="5.51959">
        <ele>1827.5</ele>
        <time>2022-01-19T13:37:59Z</time>
      </trkpt>
      <trkpt lat="44.88162" lon="5.5196">
        <ele>1828.3</ele>
        <time>2022-01-19T13:38:00Z</time>
      </trkpt>
      <trkpt lat="44.88162" lon="5.51962">
        <ele>1828.3</ele>
        <time>2022-01-19T13:38:01Z</time>
      </trkpt>
      <trkpt lat="44.88161" lon="5.51963">
        <ele>1828.3</ele>
        <time>2022-01-19T13:38:02Z</time>
      </trkpt>
      <trkpt lat="44.88161" lon="5.51963">
        <ele>1828.3</ele>
        <time>2022-01-19T13:38:03Z</time>
      </trkpt>
      <trkpt lat="44.88161" lon="5.51963">
        <ele>1828.3</ele>
        <time>2022-01-19T13:38:04Z</time>
      </trkpt>
      <trkpt lat="44.8816" lon="5.51964">
        <ele>1828.3</ele>
        <time>2022-01-19T13:38:05Z</time>
      </trkpt>
      <trkpt lat="44.8816" lon="5.51964">
        <ele>1828.3</ele>
        <time>2022-01-19T13:38:06Z</time>
      </trkpt>
      <trkpt lat="44.8816" lon="5.51964">
        <ele>1828.3</ele>
        <time>2022-01-19T13:38:07Z</time>
      </trkpt>
      <trkpt lat="44.8816" lon="5.51964">
        <ele>1828.3</ele>
        <time>2022-01-19T13:38:08Z</time>
      </trkpt>
      <trkpt lat="44.8816" lon="5.51965">
        <ele>1829.2</ele>
        <time>2022-01-19T13:38:09Z</time>
      </trkpt>
      <trkpt lat="44.8816" lon="5.51965">
        <ele>1829.2</ele>
        <time>2022-01-19T13:38:10Z</time>
      </trkpt>
      <trkpt lat="44.8816" lon="5.51966">
        <ele>1829.2</ele>
        <time>2022-01-19T13:38:11Z</time>
      </trkpt>
      <trkpt lat="44.88161" lon="5.51967">
        <ele>1829.2</ele>
        <time>2022-01-19T13:38:12Z</time>
      </trkpt>
      <trkpt lat="44.88161" lon="5.51967">
        <ele>1829.2</ele>
        <time>2022-01-19T13:38:13Z</time>
      </trkpt>
      <trkpt lat="44.88161" lon="5.51967">
        <ele>1829.2</ele>
        <time>2022-01-19T13:38:14Z</time>
      </trkpt>
      <trkpt lat="44.88162" lon="5.51968">
        <ele>1829.2</ele>
        <time>2022-01-19T13:38:15Z</time>
      </trkpt>
      <trkpt lat="44.88162" lon="5.51969">
        <ele>1830.1</ele>
        <time>2022-01-19T13:38:16Z</time>
      </trkpt>
      <trkpt lat="44.88162" lon="5.51969">
        <ele>1830.1</ele>
        <time>2022-01-19T13:38:17Z</time>
      </trkpt>
      <trkpt lat="44.88163" lon="5.51971">
        <ele>1830.1</ele>
        <time>2022-01-19T13:38:18Z</time>
      </trkpt>
      <trkpt lat="44.88163" lon="5.51972">
        <ele>1830.1</ele>
        <time>2022-01-19T13:38:19Z</time>
      </trkpt>
      <trkpt lat="44.88163" lon="5.51973">
        <ele>1831.1</ele>
        <time>2022-01-19T13:38:20Z</time>
      </trkpt>
      <trkpt lat="44.88163" lon="5.51974">
        <ele>1831.1</ele>
        <time>2022-01-19T13:38:21Z</time>
      </trkpt>
      <trkpt lat="44.88162" lon="5.51975">
        <ele>1831.1</ele>
        <time>2022-01-19T13:38:22Z</time>
      </trkpt>
      <trkpt lat="44.88162" lon="5.51976">
        <ele>1831.1</ele>
        <time>2022-01-19T13:38:23Z</time>
      </trkpt>
      <trkpt lat="44.88162" lon="5.51976">
        <ele>1831.1</ele>
        <time>2022-01-19T13:38:24Z</time>
      </trkpt>
      <trkpt lat="44.88162" lon="5.51976">
        <ele>1831.1</ele>
        <time>2022-01-19T13:38:25Z</time>
      </trkpt>
      <trkpt lat="44.88162" lon="5.51977">
        <ele>1831.1</ele>
        <time>2022-01-19T13:38:26Z</time>
      </trkpt>
      <trkpt lat="44.88162" lon="5.51977">
        <ele>1831.1</ele>
        <time>2022-01-19T13:38:27Z</time>
      </trkpt>
      <trkpt lat="44.8816" lon="5.51977">
        <ele>1832.1</ele>
        <time>2022-01-19T13:38:28Z</time>
      </trkpt>
      <trkpt lat="44.8816" lon="5.51978">
        <ele>1831.8</ele>
        <time>2022-01-19T13:38:29Z</time>
      </trkpt>
      <trkpt lat="44.8816" lon="5.51978">
        <ele>1831.8</ele>
        <time>2022-01-19T13:38:30Z</time>
      </trkpt>
      <trkpt lat="44.8816" lon="5.51979">
        <ele>1831.8</ele>
        <time>2022-01-19T13:38:31Z</time>
      </trkpt>
      <trkpt lat="44.8816" lon="5.51979">
        <ele>1831.8</ele>
        <time>2022-01-19T13:38:32Z</time>
      </trkpt>
      <trkpt lat="44.8816" lon="5.5198">
        <ele>1831.8</ele>
        <time>2022-01-19T13:38:33Z</time>
      </trkpt>
      <trkpt lat="44.8816" lon="5.51981">
        <ele>1831.8</ele>
        <time>2022-01-19T13:38:34Z</time>
      </trkpt>
      <trkpt lat="44.8816" lon="5.51982">
        <ele>1833</ele>
        <time>2022-01-19T13:38:35Z</time>
      </trkpt>
      <trkpt lat="44.8816" lon="5.51982">
        <ele>1833</ele>
        <time>2022-01-19T13:38:36Z</time>
      </trkpt>
      <trkpt lat="44.8816" lon="5.51983">
        <ele>1833</ele>
        <time>2022-01-19T13:38:37Z</time>
      </trkpt>
      <trkpt lat="44.8816" lon="5.51984">
        <ele>1833</ele>
        <time>2022-01-19T13:38:38Z</time>
      </trkpt>
      <trkpt lat="44.8816" lon="5.51985">
        <ele>1833</ele>
        <time>2022-01-19T13:38:39Z</time>
      </trkpt>
      <trkpt lat="44.8816" lon="5.51985">
        <ele>1833</ele>
        <time>2022-01-19T13:38:40Z</time>
      </trkpt>
      <trkpt lat="44.88159" lon="5.51986">
        <ele>1834.1</ele>
        <time>2022-01-19T13:38:41Z</time>
      </trkpt>
      <trkpt lat="44.88159" lon="5.51987">
        <ele>1834.1</ele>
        <time>2022-01-19T13:38:42Z</time>
      </trkpt>
      <trkpt lat="44.88159" lon="5.51988">
        <ele>1834.1</ele>
        <time>2022-01-19T13:38:43Z</time>
      </trkpt>
      <trkpt lat="44.88159" lon="5.51989">
        <ele>1834.1</ele>
        <time>2022-01-19T13:38:44Z</time>
      </trkpt>
      <trkpt lat="44.88159" lon="5.5199">
        <ele>1834.1</ele>
        <time>2022-01-19T13:38:45Z</time>
      </trkpt>
      <trkpt lat="44.88159" lon="5.5199">
        <ele>1835.3</ele>
        <time>2022-01-19T13:38:46Z</time>
      </trkpt>
      <trkpt lat="44.88159" lon="5.51992">
        <ele>1835.3</ele>
        <time>2022-01-19T13:38:47Z</time>
      </trkpt>
      <trkpt lat="44.88159" lon="5.51992">
        <ele>1835.3</ele>
        <time>2022-01-19T13:38:48Z</time>
      </trkpt>
      <trkpt lat="44.88159" lon="5.51993">
        <ele>1835.3</ele>
        <time>2022-01-19T13:38:49Z</time>
      </trkpt>
      <trkpt lat="44.88159" lon="5.51994">
        <ele>1835.3</ele>
        <time>2022-01-19T13:38:50Z</time>
      </trkpt>
      <trkpt lat="44.88159" lon="5.51994">
        <ele>1835.3</ele>
        <time>2022-01-19T13:38:51Z</time>
      </trkpt>
      <trkpt lat="44.88159" lon="5.51995">
        <ele>1836.5</ele>
        <time>2022-01-19T13:38:52Z</time>
      </trkpt>
      <trkpt lat="44.88159" lon="5.51996">
        <ele>1836.5</ele>
        <time>2022-01-19T13:38:53Z</time>
      </trkpt>
      <trkpt lat="44.88159" lon="5.51996">
        <ele>1836.5</ele>
        <time>2022-01-19T13:38:54Z</time>
      </trkpt>
      <trkpt lat="44.88159" lon="5.51997">
        <ele>1836.5</ele>
        <time>2022-01-19T13:38:55Z</time>
      </trkpt>
      <trkpt lat="44.88159" lon="5.51998">
        <ele>1836.5</ele>
        <time>2022-01-19T13:38:56Z</time>
      </trkpt>
      <trkpt lat="44.88159" lon="5.51998">
        <ele>1836.5</ele>
        <time>2022-01-19T13:38:57Z</time>
      </trkpt>
      <trkpt lat="44.88159" lon="5.51999">
        <ele>1837.7</ele>
        <time>2022-01-19T13:38:58Z</time>
      </trkpt>
      <trkpt lat="44.88158" lon="5.52">
        <ele>1837.7</ele>
        <time>2022-01-19T13:38:59Z</time>
      </trkpt>
      <trkpt lat="44.88158" lon="5.52001">
        <ele>1837.7</ele>
        <time>2022-01-19T13:39:00Z</time>
      </trkpt>
      <trkpt lat="44.88158" lon="5.52001">
        <ele>1837.7</ele>
        <time>2022-01-19T13:39:01Z</time>
      </trkpt>
      <trkpt lat="44.88157" lon="5.52002">
        <ele>1837.7</ele>
        <time>2022-01-19T13:39:02Z</time>
      </trkpt>
      <trkpt lat="44.88157" lon="5.52002">
        <ele>1837.7</ele>
        <time>2022-01-19T13:39:03Z</time>
      </trkpt>
      <trkpt lat="44.88158" lon="5.52003">
        <ele>1838.9</ele>
        <time>2022-01-19T13:39:04Z</time>
      </trkpt>
      <trkpt lat="44.88157" lon="5.52004">
        <ele>1838.9</ele>
        <time>2022-01-19T13:39:05Z</time>
      </trkpt>
      <trkpt lat="44.88157" lon="5.52005">
        <ele>1838.6</ele>
        <time>2022-01-19T13:39:06Z</time>
      </trkpt>
      <trkpt lat="44.88157" lon="5.52006">
        <ele>1838.6</ele>
        <time>2022-01-19T13:39:07Z</time>
      </trkpt>
      <trkpt lat="44.88157" lon="5.52007">
        <ele>1839.8</ele>
        <time>2022-01-19T13:39:08Z</time>
      </trkpt>
      <trkpt lat="44.88157" lon="5.52008">
        <ele>1839.8</ele>
        <time>2022-01-19T13:39:09Z</time>
      </trkpt>
      <trkpt lat="44.88156" lon="5.52009">
        <ele>1839.8</ele>
        <time>2022-01-19T13:39:10Z</time>
      </trkpt>
      <trkpt lat="44.88156" lon="5.5201">
        <ele>1839.8</ele>
        <time>2022-01-19T13:39:11Z</time>
      </trkpt>
      <trkpt lat="44.88156" lon="5.5201">
        <ele>1839.8</ele>
        <time>2022-01-19T13:39:12Z</time>
      </trkpt>
      <trkpt lat="44.88155" lon="5.52011">
        <ele>1839.8</ele>
        <time>2022-01-19T13:39:13Z</time>
      </trkpt>
      <trkpt lat="44.88155" lon="5.52012">
        <ele>1840.9</ele>
        <time>2022-01-19T13:39:14Z</time>
      </trkpt>
      <trkpt lat="44.88154" lon="5.52012">
        <ele>1840.9</ele>
        <time>2022-01-19T13:39:15Z</time>
      </trkpt>
      <trkpt lat="44.88154" lon="5.52013">
        <ele>1840.7</ele>
        <time>2022-01-19T13:39:16Z</time>
      </trkpt>
      <trkpt lat="44.88153" lon="5.52012">
        <ele>1840.7</ele>
        <time>2022-01-19T13:39:17Z</time>
      </trkpt>
      <trkpt lat="44.88152" lon="5.52012">
        <ele>1840.7</ele>
        <time>2022-01-19T13:39:18Z</time>
      </trkpt>
      <trkpt lat="44.88152" lon="5.52012">
        <ele>1840.7</ele>
        <time>2022-01-19T13:39:19Z</time>
      </trkpt>
      <trkpt lat="44.88152" lon="5.52012">
        <ele>1840.7</ele>
        <time>2022-01-19T13:39:20Z</time>
      </trkpt>
      <trkpt lat="44.88151" lon="5.52012">
        <ele>1840.7</ele>
        <time>2022-01-19T13:39:21Z</time>
      </trkpt>
      <trkpt lat="44.88151" lon="5.52011">
        <ele>1839.6</ele>
        <time>2022-01-19T13:39:22Z</time>
      </trkpt>
      <trkpt lat="44.88151" lon="5.52011">
        <ele>1839.6</ele>
        <time>2022-01-19T13:39:23Z</time>
      </trkpt>
      <trkpt lat="44.8815" lon="5.52011">
        <ele>1839.6</ele>
        <time>2022-01-19T13:39:24Z</time>
      </trkpt>
      <trkpt lat="44.88149" lon="5.52011">
        <ele>1839.6</ele>
        <time>2022-01-19T13:39:25Z</time>
      </trkpt>
      <trkpt lat="44.88147" lon="5.52011">
        <ele>1839.6</ele>
        <time>2022-01-19T13:39:26Z</time>
      </trkpt>
      <trkpt lat="44.88146" lon="5.52011">
        <ele>1839.6</ele>
        <time>2022-01-19T13:39:27Z</time>
      </trkpt>
      <trkpt lat="44.88145" lon="5.52011">
        <ele>1839.6</ele>
        <time>2022-01-19T13:39:28Z</time>
      </trkpt>
      <trkpt lat="44.88145" lon="5.5201">
        <ele>1839.8</ele>
        <time>2022-01-19T13:39:29Z</time>
      </trkpt>
      <trkpt lat="44.88144" lon="5.5201">
        <ele>1839.8</ele>
        <time>2022-01-19T13:39:30Z</time>
      </trkpt>
      <trkpt lat="44.88144" lon="5.52009">
        <ele>1839.8</ele>
        <time>2022-01-19T13:39:31Z</time>
      </trkpt>
      <trkpt lat="44.88143" lon="5.52009">
        <ele>1839.8</ele>
        <time>2022-01-19T13:39:32Z</time>
      </trkpt>
      <trkpt lat="44.88142" lon="5.52008">
        <ele>1839.8</ele>
        <time>2022-01-19T13:39:33Z</time>
      </trkpt>
      <trkpt lat="44.88142" lon="5.52008">
        <ele>1839.8</ele>
        <time>2022-01-19T13:39:34Z</time>
      </trkpt>
      <trkpt lat="44.88141" lon="5.52007">
        <ele>1840</ele>
        <time>2022-01-19T13:39:35Z</time>
      </trkpt>
      <trkpt lat="44.88141" lon="5.52007">
        <ele>1840</ele>
        <time>2022-01-19T13:39:36Z</time>
      </trkpt>
      <trkpt lat="44.88141" lon="5.52007">
        <ele>1839</ele>
        <time>2022-01-19T13:39:37Z</time>
      </trkpt>
      <trkpt lat="44.88141" lon="5.52007">
        <ele>1839</ele>
        <time>2022-01-19T13:39:38Z</time>
      </trkpt>
      <trkpt lat="44.88141" lon="5.52007">
        <ele>1839</ele>
        <time>2022-01-19T13:39:39Z</time>
      </trkpt>
      <trkpt lat="44.88141" lon="5.52007">
        <ele>1839</ele>
        <time>2022-01-19T13:39:40Z</time>
      </trkpt>
      <trkpt lat="44.88141" lon="5.52007">
        <ele>1839</ele>
        <time>2022-01-19T13:39:41Z</time>
      </trkpt>
      <trkpt lat="44.88141" lon="5.52007">
        <ele>1839</ele>
        <time>2022-01-19T13:39:42Z</time>
      </trkpt>
      <trkpt lat="44.88139" lon="5.52008">
        <ele>1840.4</ele>
        <time>2022-01-19T13:39:43Z</time>
      </trkpt>
      <trkpt lat="44.88139" lon="5.52009">
        <ele>1840.4</ele>
        <time>2022-01-19T13:39:44Z</time>
      </trkpt>
      <trkpt lat="44.88139" lon="5.52009">
        <ele>1840.4</ele>
        <time>2022-01-19T13:39:45Z</time>
      </trkpt>
      <trkpt lat="44.88139" lon="5.5201">
        <ele>1840.4</ele>
        <time>2022-01-19T13:39:46Z</time>
      </trkpt>
      <trkpt lat="44.88138" lon="5.5201">
        <ele>1840.4</ele>
        <time>2022-01-19T13:39:47Z</time>
      </trkpt>
      <trkpt lat="44.88138" lon="5.52011">
        <ele>1840.4</ele>
        <time>2022-01-19T13:39:48Z</time>
      </trkpt>
      <trkpt lat="44.88138" lon="5.52012">
        <ele>1841.3</ele>
        <time>2022-01-19T13:39:49Z</time>
      </trkpt>
      <trkpt lat="44.88138" lon="5.52012">
        <ele>1841.3</ele>
        <time>2022-01-19T13:39:50Z</time>
      </trkpt>
      <trkpt lat="44.88138" lon="5.52013">
        <ele>1841.3</ele>
        <time>2022-01-19T13:39:51Z</time>
      </trkpt>
      <trkpt lat="44.88138" lon="5.52014">
        <ele>1841.3</ele>
        <time>2022-01-19T13:39:52Z</time>
      </trkpt>
      <trkpt lat="44.88138" lon="5.52015">
        <ele>1841.3</ele>
        <time>2022-01-19T13:39:53Z</time>
      </trkpt>
      <trkpt lat="44.88138" lon="5.52017">
        <ele>1842.3</ele>
        <time>2022-01-19T13:39:54Z</time>
      </trkpt>
      <trkpt lat="44.88138" lon="5.52018">
        <ele>1842.3</ele>
        <time>2022-01-19T13:39:55Z</time>
      </trkpt>
      <trkpt lat="44.88138" lon="5.52019">
        <ele>1842.3</ele>
        <time>2022-01-19T13:39:56Z</time>
      </trkpt>
      <trkpt lat="44.88137" lon="5.52019">
        <ele>1842.3</ele>
        <time>2022-01-19T13:39:57Z</time>
      </trkpt>
      <trkpt lat="44.88137" lon="5.5202">
        <ele>1842.3</ele>
        <time>2022-01-19T13:39:58Z</time>
      </trkpt>
      <trkpt lat="44.88137" lon="5.5202">
        <ele>1843.3</ele>
        <time>2022-01-19T13:39:59Z</time>
      </trkpt>
      <trkpt lat="44.88137" lon="5.52021">
        <ele>1843.3</ele>
        <time>2022-01-19T13:40:00Z</time>
      </trkpt>
      <trkpt lat="44.88137" lon="5.52022">
        <ele>1843.3</ele>
        <time>2022-01-19T13:40:01Z</time>
      </trkpt>
      <trkpt lat="44.88137" lon="5.52023">
        <ele>1843.3</ele>
        <time>2022-01-19T13:40:02Z</time>
      </trkpt>
      <trkpt lat="44.88138" lon="5.52024">
        <ele>1843.3</ele>
        <time>2022-01-19T13:40:03Z</time>
      </trkpt>
      <trkpt lat="44.88138" lon="5.52025">
        <ele>1844.3</ele>
        <time>2022-01-19T13:40:04Z</time>
      </trkpt>
      <trkpt lat="44.88138" lon="5.52026">
        <ele>1844.3</ele>
        <time>2022-01-19T13:40:05Z</time>
      </trkpt>
      <trkpt lat="44.88138" lon="5.52027">
        <ele>1844.3</ele>
        <time>2022-01-19T13:40:06Z</time>
      </trkpt>
      <trkpt lat="44.88138" lon="5.52028">
        <ele>1844.3</ele>
        <time>2022-01-19T13:40:07Z</time>
      </trkpt>
      <trkpt lat="44.88139" lon="5.52029">
        <ele>1845.2</ele>
        <time>2022-01-19T13:40:08Z</time>
      </trkpt>
      <trkpt lat="44.88139" lon="5.5203">
        <ele>1845.2</ele>
        <time>2022-01-19T13:40:09Z</time>
      </trkpt>
      <trkpt lat="44.88139" lon="5.52031">
        <ele>1845.2</ele>
        <time>2022-01-19T13:40:10Z</time>
      </trkpt>
      <trkpt lat="44.88139" lon="5.52032">
        <ele>1845.2</ele>
        <time>2022-01-19T13:40:11Z</time>
      </trkpt>
      <trkpt lat="44.8814" lon="5.52033">
        <ele>1846.3</ele>
        <time>2022-01-19T13:40:12Z</time>
      </trkpt>
      <trkpt lat="44.88141" lon="5.52034">
        <ele>1846.3</ele>
        <time>2022-01-19T13:40:13Z</time>
      </trkpt>
      <trkpt lat="44.88141" lon="5.52035">
        <ele>1846.3</ele>
        <time>2022-01-19T13:40:14Z</time>
      </trkpt>
      <trkpt lat="44.88141" lon="5.52036">
        <ele>1846.3</ele>
        <time>2022-01-19T13:40:15Z</time>
      </trkpt>
      <trkpt lat="44.88142" lon="5.52037">
        <ele>1846.3</ele>
        <time>2022-01-19T13:40:16Z</time>
      </trkpt>
      <trkpt lat="44.88142" lon="5.52038">
        <ele>1847.3</ele>
        <time>2022-01-19T13:40:17Z</time>
      </trkpt>
      <trkpt lat="44.88143" lon="5.52039">
        <ele>1847.3</ele>
        <time>2022-01-19T13:40:18Z</time>
      </trkpt>
      <trkpt lat="44.88143" lon="5.5204">
        <ele>1847.3</ele>
        <time>2022-01-19T13:40:19Z</time>
      </trkpt>
      <trkpt lat="44.88143" lon="5.52041">
        <ele>1847.3</ele>
        <time>2022-01-19T13:40:20Z</time>
      </trkpt>
      <trkpt lat="44.88144" lon="5.52043">
        <ele>1848.2</ele>
        <time>2022-01-19T13:40:21Z</time>
      </trkpt>
      <trkpt lat="44.88145" lon="5.52042">
        <ele>1848.3</ele>
        <time>2022-01-19T13:40:22Z</time>
      </trkpt>
      <trkpt lat="44.88147" lon="5.52044">
        <ele>1848.3</ele>
        <time>2022-01-19T13:40:23Z</time>
      </trkpt>
      <trkpt lat="44.88147" lon="5.52045">
        <ele>1848.3</ele>
        <time>2022-01-19T13:40:24Z</time>
      </trkpt>
      <trkpt lat="44.88147" lon="5.52045">
        <ele>1848.3</ele>
        <time>2022-01-19T13:40:25Z</time>
      </trkpt>
      <trkpt lat="44.88148" lon="5.52046">
        <ele>1849.6</ele>
        <time>2022-01-19T13:40:26Z</time>
      </trkpt>
      <trkpt lat="44.88149" lon="5.52048">
        <ele>1849.6</ele>
        <time>2022-01-19T13:40:27Z</time>
      </trkpt>
      <trkpt lat="44.8815" lon="5.52048">
        <ele>1849.6</ele>
        <time>2022-01-19T13:40:28Z</time>
      </trkpt>
      <trkpt lat="44.8815" lon="5.52049">
        <ele>1849.6</ele>
        <time>2022-01-19T13:40:29Z</time>
      </trkpt>
      <trkpt lat="44.8815" lon="5.5205">
        <ele>1850.6</ele>
        <time>2022-01-19T13:40:30Z</time>
      </trkpt>
      <trkpt lat="44.8815" lon="5.52051">
        <ele>1850.6</ele>
        <time>2022-01-19T13:40:31Z</time>
      </trkpt>
      <trkpt lat="44.88151" lon="5.52052">
        <ele>1851.1</ele>
        <time>2022-01-19T13:40:32Z</time>
      </trkpt>
      <trkpt lat="44.88151" lon="5.52053">
        <ele>1851.1</ele>
        <time>2022-01-19T13:40:33Z</time>
      </trkpt>
      <trkpt lat="44.88151" lon="5.52054">
        <ele>1851.1</ele>
        <time>2022-01-19T13:40:34Z</time>
      </trkpt>
      <trkpt lat="44.88152" lon="5.52055">
        <ele>1852.1</ele>
        <time>2022-01-19T13:40:35Z</time>
      </trkpt>
      <trkpt lat="44.88152" lon="5.52056">
        <ele>1852.1</ele>
        <time>2022-01-19T13:40:36Z</time>
      </trkpt>
      <trkpt lat="44.88152" lon="5.52056">
        <ele>1852.1</ele>
        <time>2022-01-19T13:40:37Z</time>
      </trkpt>
      <trkpt lat="44.88153" lon="5.52056">
        <ele>1852.1</ele>
        <time>2022-01-19T13:40:38Z</time>
      </trkpt>
      <trkpt lat="44.88153" lon="5.52057">
        <ele>1852.1</ele>
        <time>2022-01-19T13:40:39Z</time>
      </trkpt>
      <trkpt lat="44.88153" lon="5.52057">
        <ele>1852.1</ele>
        <time>2022-01-19T13:40:40Z</time>
      </trkpt>
      <trkpt lat="44.88154" lon="5.52057">
        <ele>1852.1</ele>
        <time>2022-01-19T13:40:41Z</time>
      </trkpt>
      <trkpt lat="44.88154" lon="5.52057">
        <ele>1852.1</ele>
        <time>2022-01-19T13:40:42Z</time>
      </trkpt>
      <trkpt lat="44.88155" lon="5.52059">
        <ele>1853.9</ele>
        <time>2022-01-19T13:40:43Z</time>
      </trkpt>
      <trkpt lat="44.88155" lon="5.5206">
        <ele>1853.9</ele>
        <time>2022-01-19T13:40:44Z</time>
      </trkpt>
      <trkpt lat="44.88156" lon="5.52061">
        <ele>1853.9</ele>
        <time>2022-01-19T13:40:45Z</time>
      </trkpt>
      <trkpt lat="44.88157" lon="5.52062">
        <ele>1853.9</ele>
        <time>2022-01-19T13:40:46Z</time>
      </trkpt>
      <trkpt lat="44.88157" lon="5.52063">
        <ele>1853.9</ele>
        <time>2022-01-19T13:40:47Z</time>
      </trkpt>
      <trkpt lat="44.88158" lon="5.52063">
        <ele>1855.8</ele>
        <time>2022-01-19T13:40:48Z</time>
      </trkpt>
      <trkpt lat="44.88158" lon="5.52065">
        <ele>1855.8</ele>
        <time>2022-01-19T13:40:49Z</time>
      </trkpt>
      <trkpt lat="44.88158" lon="5.52065">
        <ele>1855.8</ele>
        <time>2022-01-19T13:40:50Z</time>
      </trkpt>
      <trkpt lat="44.88159" lon="5.52066">
        <ele>1855.8</ele>
        <time>2022-01-19T13:40:51Z</time>
      </trkpt>
      <trkpt lat="44.8816" lon="5.52067">
        <ele>1855.8</ele>
        <time>2022-01-19T13:40:52Z</time>
      </trkpt>
      <trkpt lat="44.8816" lon="5.52068">
        <ele>1857</ele>
        <time>2022-01-19T13:40:53Z</time>
      </trkpt>
      <trkpt lat="44.8816" lon="5.52068">
        <ele>1858.1</ele>
        <time>2022-01-19T13:40:54Z</time>
      </trkpt>
      <trkpt lat="44.8816" lon="5.52069">
        <ele>1858.1</ele>
        <time>2022-01-19T13:40:55Z</time>
      </trkpt>
      <trkpt lat="44.88161" lon="5.5207">
        <ele>1858.1</ele>
        <time>2022-01-19T13:40:56Z</time>
      </trkpt>
      <trkpt lat="44.88161" lon="5.52071">
        <ele>1858.1</ele>
        <time>2022-01-19T13:40:57Z</time>
      </trkpt>
      <trkpt lat="44.88161" lon="5.52072">
        <ele>1859.3</ele>
        <time>2022-01-19T13:40:58Z</time>
      </trkpt>
      <trkpt lat="44.88161" lon="5.52073">
        <ele>1859.3</ele>
        <time>2022-01-19T13:40:59Z</time>
      </trkpt>
      <trkpt lat="44.88161" lon="5.52073">
        <ele>1859.3</ele>
        <time>2022-01-19T13:41:00Z</time>
      </trkpt>
      <trkpt lat="44.88161" lon="5.52074">
        <ele>1859.3</ele>
        <time>2022-01-19T13:41:01Z</time>
      </trkpt>
      <trkpt lat="44.8816" lon="5.52074">
        <ele>1859.3</ele>
        <time>2022-01-19T13:41:02Z</time>
      </trkpt>
      <trkpt lat="44.8816" lon="5.52075">
        <ele>1859.3</ele>
        <time>2022-01-19T13:41:03Z</time>
      </trkpt>
      <trkpt lat="44.8816" lon="5.52075">
        <ele>1858.3</ele>
        <time>2022-01-19T13:41:04Z</time>
      </trkpt>
      <trkpt lat="44.8816" lon="5.52076">
        <ele>1859.5</ele>
        <time>2022-01-19T13:41:05Z</time>
      </trkpt>
      <trkpt lat="44.8816" lon="5.52077">
        <ele>1859.5</ele>
        <time>2022-01-19T13:41:06Z</time>
      </trkpt>
      <trkpt lat="44.88159" lon="5.52077">
        <ele>1859.5</ele>
        <time>2022-01-19T13:41:07Z</time>
      </trkpt>
      <trkpt lat="44.88159" lon="5.52078">
        <ele>1859.5</ele>
        <time>2022-01-19T13:41:08Z</time>
      </trkpt>
      <trkpt lat="44.88158" lon="5.52078">
        <ele>1859.5</ele>
        <time>2022-01-19T13:41:09Z</time>
      </trkpt>
      <trkpt lat="44.88157" lon="5.52079">
        <ele>1859.5</ele>
        <time>2022-01-19T13:41:10Z</time>
      </trkpt>
      <trkpt lat="44.88157" lon="5.52079">
        <ele>1858.6</ele>
        <time>2022-01-19T13:41:11Z</time>
      </trkpt>
      <trkpt lat="44.88156" lon="5.52079">
        <ele>1858.6</ele>
        <time>2022-01-19T13:41:12Z</time>
      </trkpt>
      <trkpt lat="44.88155" lon="5.52079">
        <ele>1858.6</ele>
        <time>2022-01-19T13:41:13Z</time>
      </trkpt>
      <trkpt lat="44.88155" lon="5.52079">
        <ele>1858.6</ele>
        <time>2022-01-19T13:41:14Z</time>
      </trkpt>
      <trkpt lat="44.88154" lon="5.52079">
        <ele>1857.8</ele>
        <time>2022-01-19T13:41:15Z</time>
      </trkpt>
      <trkpt lat="44.88154" lon="5.52079">
        <ele>1857.8</ele>
        <time>2022-01-19T13:41:16Z</time>
      </trkpt>
      <trkpt lat="44.88153" lon="5.52079">
        <ele>1857.8</ele>
        <time>2022-01-19T13:41:17Z</time>
      </trkpt>
      <trkpt lat="44.88152" lon="5.52079">
        <ele>1857.8</ele>
        <time>2022-01-19T13:41:18Z</time>
      </trkpt>
      <trkpt lat="44.88152" lon="5.52079">
        <ele>1857.8</ele>
        <time>2022-01-19T13:41:19Z</time>
      </trkpt>
      <trkpt lat="44.88151" lon="5.52079">
        <ele>1857.8</ele>
        <time>2022-01-19T13:41:20Z</time>
      </trkpt>
      <trkpt lat="44.8815" lon="5.52079">
        <ele>1857.2</ele>
        <time>2022-01-19T13:41:21Z</time>
      </trkpt>
      <trkpt lat="44.88149" lon="5.52079">
        <ele>1857.2</ele>
        <time>2022-01-19T13:41:22Z</time>
      </trkpt>
      <trkpt lat="44.88149" lon="5.5208">
        <ele>1857.2</ele>
        <time>2022-01-19T13:41:23Z</time>
      </trkpt>
      <trkpt lat="44.88148" lon="5.5208">
        <ele>1856.7</ele>
        <time>2022-01-19T13:41:24Z</time>
      </trkpt>
      <trkpt lat="44.88147" lon="5.52079">
        <ele>1856.7</ele>
        <time>2022-01-19T13:41:25Z</time>
      </trkpt>
      <trkpt lat="44.88146" lon="5.52079">
        <ele>1856.7</ele>
        <time>2022-01-19T13:41:26Z</time>
      </trkpt>
      <trkpt lat="44.88146" lon="5.52079">
        <ele>1856.7</ele>
        <time>2022-01-19T13:41:27Z</time>
      </trkpt>
      <trkpt lat="44.88145" lon="5.52079">
        <ele>1856.4</ele>
        <time>2022-01-19T13:41:28Z</time>
      </trkpt>
      <trkpt lat="44.88144" lon="5.52078">
        <ele>1856.4</ele>
        <time>2022-01-19T13:41:29Z</time>
      </trkpt>
      <trkpt lat="44.88144" lon="5.52079">
        <ele>1856.4</ele>
        <time>2022-01-19T13:41:30Z</time>
      </trkpt>
      <trkpt lat="44.88143" lon="5.52079">
        <ele>1856.4</ele>
        <time>2022-01-19T13:41:31Z</time>
      </trkpt>
      <trkpt lat="44.88143" lon="5.52079">
        <ele>1856.4</ele>
        <time>2022-01-19T13:41:32Z</time>
      </trkpt>
      <trkpt lat="44.88143" lon="5.52079">
        <ele>1856.4</ele>
        <time>2022-01-19T13:41:33Z</time>
      </trkpt>
      <trkpt lat="44.88143" lon="5.52079">
        <ele>1856.4</ele>
        <time>2022-01-19T13:41:34Z</time>
      </trkpt>
      <trkpt lat="44.88143" lon="5.52079">
        <ele>1856.4</ele>
        <time>2022-01-19T13:41:35Z</time>
      </trkpt>
      <trkpt lat="44.88143" lon="5.52079">
        <ele>1856.4</ele>
        <time>2022-01-19T13:41:36Z</time>
      </trkpt>
      <trkpt lat="44.88143" lon="5.52079">
        <ele>1856.4</ele>
        <time>2022-01-19T13:41:37Z</time>
      </trkpt>
      <trkpt lat="44.88143" lon="5.52079">
        <ele>1856.4</ele>
        <time>2022-01-19T13:41:38Z</time>
      </trkpt>
      <trkpt lat="44.88143" lon="5.52079">
        <ele>1856.4</ele>
        <time>2022-01-19T13:41:39Z</time>
      </trkpt>
      <trkpt lat="44.88143" lon="5.52079">
        <ele>1856.4</ele>
        <time>2022-01-19T13:41:40Z</time>
      </trkpt>
      <trkpt lat="44.88143" lon="5.52079">
        <ele>1856.4</ele>
        <time>2022-01-19T13:41:41Z</time>
      </trkpt>
      <trkpt lat="44.88143" lon="5.52079">
        <ele>1856.4</ele>
        <time>2022-01-19T13:41:42Z</time>
      </trkpt>
      <trkpt lat="44.88143" lon="5.52079">
        <ele>1856.4</ele>
        <time>2022-01-19T13:41:43Z</time>
      </trkpt>
      <trkpt lat="44.88143" lon="5.52079">
        <ele>1856.4</ele>
        <time>2022-01-19T13:41:44Z</time>
      </trkpt>
      <trkpt lat="44.88143" lon="5.52079">
        <ele>1856.4</ele>
        <time>2022-01-19T13:41:45Z</time>
      </trkpt>
      <trkpt lat="44.88143" lon="5.52079">
        <ele>1856.4</ele>
        <time>2022-01-19T13:41:46Z</time>
      </trkpt>
      <trkpt lat="44.88143" lon="5.52079">
        <ele>1856.4</ele>
        <time>2022-01-19T13:41:47Z</time>
      </trkpt>
      <trkpt lat="44.88143" lon="5.52079">
        <ele>1856.4</ele>
        <time>2022-01-19T13:41:48Z</time>
      </trkpt>
      <trkpt lat="44.88143" lon="5.52079">
        <ele>1856.4</ele>
        <time>2022-01-19T13:41:49Z</time>
      </trkpt>
      <trkpt lat="44.88143" lon="5.52079">
        <ele>1856.4</ele>
        <time>2022-01-19T13:41:50Z</time>
      </trkpt>
      <trkpt lat="44.88143" lon="5.52079">
        <ele>1856.4</ele>
        <time>2022-01-19T13:41:51Z</time>
      </trkpt>
      <trkpt lat="44.88143" lon="5.52079">
        <ele>1856.4</ele>
        <time>2022-01-19T13:41:52Z</time>
      </trkpt>
      <trkpt lat="44.88143" lon="5.52079">
        <ele>1856.4</ele>
        <time>2022-01-19T13:41:53Z</time>
      </trkpt>
      <trkpt lat="44.88143" lon="5.52079">
        <ele>1856.4</ele>
        <time>2022-01-19T13:41:54Z</time>
      </trkpt>
      <trkpt lat="44.88143" lon="5.52079">
        <ele>1856.4</ele>
        <time>2022-01-19T13:41:55Z</time>
      </trkpt>
      <trkpt lat="44.88143" lon="5.52079">
        <ele>1856.4</ele>
        <time>2022-01-19T13:41:56Z</time>
      </trkpt>
      <trkpt lat="44.88143" lon="5.52079">
        <ele>1856.4</ele>
        <time>2022-01-19T13:41:57Z</time>
      </trkpt>
      <trkpt lat="44.88143" lon="5.52079">
        <ele>1856.4</ele>
        <time>2022-01-19T13:41:58Z</time>
      </trkpt>
      <trkpt lat="44.88143" lon="5.52079">
        <ele>1856.4</ele>
        <time>2022-01-19T13:41:59Z</time>
      </trkpt>
      <trkpt lat="44.88143" lon="5.52079">
        <ele>1856.4</ele>
        <time>2022-01-19T13:42:00Z</time>
      </trkpt>
      <trkpt lat="44.88143" lon="5.52079">
        <ele>1856.4</ele>
        <time>2022-01-19T13:42:01Z</time>
      </trkpt>
      <trkpt lat="44.88143" lon="5.52079">
        <ele>1856.4</ele>
        <time>2022-01-19T13:42:02Z</time>
      </trkpt>
      <trkpt lat="44.88143" lon="5.52079">
        <ele>1856.4</ele>
        <time>2022-01-19T13:42:03Z</time>
      </trkpt>
      <trkpt lat="44.88143" lon="5.52079">
        <ele>1856.4</ele>
        <time>2022-01-19T13:42:04Z</time>
      </trkpt>
      <trkpt lat="44.88143" lon="5.52079">
        <ele>1856.4</ele>
        <time>2022-01-19T13:42:05Z</time>
      </trkpt>
      <trkpt lat="44.88143" lon="5.52079">
        <ele>1856.4</ele>
        <time>2022-01-19T13:42:06Z</time>
      </trkpt>
      <trkpt lat="44.88143" lon="5.52079">
        <ele>1856.4</ele>
        <time>2022-01-19T13:42:07Z</time>
      </trkpt>
      <trkpt lat="44.88137" lon="5.52082">
        <ele>1857.5</ele>
        <time>2022-01-19T13:42:08Z</time>
      </trkpt>
      <trkpt lat="44.88136" lon="5.52083">
        <ele>1857.7</ele>
        <time>2022-01-19T13:42:09Z</time>
      </trkpt>
      <trkpt lat="44.88136" lon="5.52084">
        <ele>1857.7</ele>
        <time>2022-01-19T13:42:10Z</time>
      </trkpt>
      <trkpt lat="44.88136" lon="5.52084">
        <ele>1857.7</ele>
        <time>2022-01-19T13:42:11Z</time>
      </trkpt>
      <trkpt lat="44.88136" lon="5.52085">
        <ele>1858.9</ele>
        <time>2022-01-19T13:42:12Z</time>
      </trkpt>
      <trkpt lat="44.88136" lon="5.52085">
        <ele>1858.7</ele>
        <time>2022-01-19T13:42:13Z</time>
      </trkpt>
      <trkpt lat="44.88136" lon="5.52085">
        <ele>1858.7</ele>
        <time>2022-01-19T13:42:14Z</time>
      </trkpt>
      <trkpt lat="44.88136" lon="5.52085">
        <ele>1858.7</ele>
        <time>2022-01-19T13:42:15Z</time>
      </trkpt>
      <trkpt lat="44.88136" lon="5.52085">
        <ele>1858.7</ele>
        <time>2022-01-19T13:42:16Z</time>
      </trkpt>
      <trkpt lat="44.88136" lon="5.52085">
        <ele>1858.7</ele>
        <time>2022-01-19T13:42:17Z</time>
      </trkpt>
      <trkpt lat="44.88136" lon="5.52085">
        <ele>1858.7</ele>
        <time>2022-01-19T13:42:18Z</time>
      </trkpt>
      <trkpt lat="44.88136" lon="5.52085">
        <ele>1858.7</ele>
        <time>2022-01-19T13:42:19Z</time>
      </trkpt>
      <trkpt lat="44.88136" lon="5.52085">
        <ele>1858.7</ele>
        <time>2022-01-19T13:42:20Z</time>
      </trkpt>
      <trkpt lat="44.88136" lon="5.52085">
        <ele>1858.7</ele>
        <time>2022-01-19T13:42:21Z</time>
      </trkpt>
      <trkpt lat="44.88136" lon="5.52085">
        <ele>1858.7</ele>
        <time>2022-01-19T13:42:22Z</time>
      </trkpt>
      <trkpt lat="44.88136" lon="5.52085">
        <ele>1858.7</ele>
        <time>2022-01-19T13:42:23Z</time>
      </trkpt>
      <trkpt lat="44.88136" lon="5.52085">
        <ele>1858.7</ele>
        <time>2022-01-19T13:42:24Z</time>
      </trkpt>
      <trkpt lat="44.88136" lon="5.52085">
        <ele>1858.7</ele>
        <time>2022-01-19T13:42:25Z</time>
      </trkpt>
      <trkpt lat="44.88136" lon="5.52085">
        <ele>1858.7</ele>
        <time>2022-01-19T13:42:26Z</time>
      </trkpt>
      <trkpt lat="44.88136" lon="5.52085">
        <ele>1858.7</ele>
        <time>2022-01-19T13:42:27Z</time>
      </trkpt>
      <trkpt lat="44.88136" lon="5.52085">
        <ele>1858.7</ele>
        <time>2022-01-19T13:42:28Z</time>
      </trkpt>
      <trkpt lat="44.88136" lon="5.52085">
        <ele>1858.7</ele>
        <time>2022-01-19T13:42:29Z</time>
      </trkpt>
      <trkpt lat="44.88136" lon="5.52085">
        <ele>1858.7</ele>
        <time>2022-01-19T13:42:30Z</time>
      </trkpt>
      <trkpt lat="44.88136" lon="5.52085">
        <ele>1858.7</ele>
        <time>2022-01-19T13:42:31Z</time>
      </trkpt>
      <trkpt lat="44.88136" lon="5.52085">
        <ele>1858.7</ele>
        <time>2022-01-19T13:42:32Z</time>
      </trkpt>
      <trkpt lat="44.88136" lon="5.52085">
        <ele>1858.7</ele>
        <time>2022-01-19T13:42:33Z</time>
      </trkpt>
      <trkpt lat="44.88136" lon="5.52085">
        <ele>1858.7</ele>
        <time>2022-01-19T13:42:34Z</time>
      </trkpt>
      <trkpt lat="44.88136" lon="5.52085">
        <ele>1858.7</ele>
        <time>2022-01-19T13:42:35Z</time>
      </trkpt>
      <trkpt lat="44.88136" lon="5.52085">
        <ele>1858.7</ele>
        <time>2022-01-19T13:42:36Z</time>
      </trkpt>
      <trkpt lat="44.88136" lon="5.52085">
        <ele>1858.7</ele>
        <time>2022-01-19T13:42:37Z</time>
      </trkpt>
      <trkpt lat="44.88136" lon="5.52085">
        <ele>1858.7</ele>
        <time>2022-01-19T13:42:38Z</time>
      </trkpt>
      <trkpt lat="44.88136" lon="5.52085">
        <ele>1858.7</ele>
        <time>2022-01-19T13:42:39Z</time>
      </trkpt>
      <trkpt lat="44.88136" lon="5.52085">
        <ele>1858.7</ele>
        <time>2022-01-19T13:42:40Z</time>
      </trkpt>
      <trkpt lat="44.88136" lon="5.52085">
        <ele>1858.7</ele>
        <time>2022-01-19T13:42:41Z</time>
      </trkpt>
      <trkpt lat="44.88136" lon="5.52085">
        <ele>1858.7</ele>
        <time>2022-01-19T13:42:42Z</time>
      </trkpt>
      <trkpt lat="44.88136" lon="5.52085">
        <ele>1858.7</ele>
        <time>2022-01-19T13:42:43Z</time>
      </trkpt>
      <trkpt lat="44.88136" lon="5.52085">
        <ele>1858.7</ele>
        <time>2022-01-19T13:42:44Z</time>
      </trkpt>
      <trkpt lat="44.88136" lon="5.52085">
        <ele>1858.7</ele>
        <time>2022-01-19T13:42:45Z</time>
      </trkpt>
      <trkpt lat="44.88136" lon="5.52085">
        <ele>1858.7</ele>
        <time>2022-01-19T13:42:46Z</time>
      </trkpt>
      <trkpt lat="44.88136" lon="5.52085">
        <ele>1858.7</ele>
        <time>2022-01-19T13:42:47Z</time>
      </trkpt>
      <trkpt lat="44.88137" lon="5.52088">
        <ele>1858.7</ele>
        <time>2022-01-19T13:42:48Z</time>
      </trkpt>
      <trkpt lat="44.88137" lon="5.52089">
        <ele>1858.7</ele>
        <time>2022-01-19T13:42:49Z</time>
      </trkpt>
      <trkpt lat="44.88138" lon="5.52089">
        <ele>1859.9</ele>
        <time>2022-01-19T13:42:50Z</time>
      </trkpt>
      <trkpt lat="44.88139" lon="5.5209">
        <ele>1860</ele>
        <time>2022-01-19T13:42:51Z</time>
      </trkpt>
      <trkpt lat="44.8814" lon="5.52091">
        <ele>1860</ele>
        <time>2022-01-19T13:42:52Z</time>
      </trkpt>
      <trkpt lat="44.8814" lon="5.52091">
        <ele>1860</ele>
        <time>2022-01-19T13:42:53Z</time>
      </trkpt>
      <trkpt lat="44.8814" lon="5.52092">
        <ele>1860</ele>
        <time>2022-01-19T13:42:54Z</time>
      </trkpt>
      <trkpt lat="44.88141" lon="5.52093">
        <ele>1860</ele>
        <time>2022-01-19T13:42:55Z</time>
      </trkpt>
      <trkpt lat="44.88141" lon="5.52094">
        <ele>1861.1</ele>
        <time>2022-01-19T13:42:56Z</time>
      </trkpt>
      <trkpt lat="44.88142" lon="5.52094">
        <ele>1861.1</ele>
        <time>2022-01-19T13:42:57Z</time>
      </trkpt>
      <trkpt lat="44.88142" lon="5.52095">
        <ele>1861.3</ele>
        <time>2022-01-19T13:42:58Z</time>
      </trkpt>
      <trkpt lat="44.88142" lon="5.52096">
        <ele>1861.3</ele>
        <time>2022-01-19T13:42:59Z</time>
      </trkpt>
      <trkpt lat="44.88143" lon="5.52097">
        <ele>1861.3</ele>
        <time>2022-01-19T13:43:00Z</time>
      </trkpt>
      <trkpt lat="44.88143" lon="5.52097">
        <ele>1861.3</ele>
        <time>2022-01-19T13:43:01Z</time>
      </trkpt>
      <trkpt lat="44.88144" lon="5.52098">
        <ele>1862.5</ele>
        <time>2022-01-19T13:43:02Z</time>
      </trkpt>
      <trkpt lat="44.88144" lon="5.52099">
        <ele>1862.5</ele>
        <time>2022-01-19T13:43:03Z</time>
      </trkpt>
      <trkpt lat="44.88145" lon="5.521">
        <ele>1862.5</ele>
        <time>2022-01-19T13:43:04Z</time>
      </trkpt>
      <trkpt lat="44.88145" lon="5.521">
        <ele>1862.5</ele>
        <time>2022-01-19T13:43:05Z</time>
      </trkpt>
      <trkpt lat="44.88145" lon="5.52101">
        <ele>1862.5</ele>
        <time>2022-01-19T13:43:06Z</time>
      </trkpt>
      <trkpt lat="44.88145" lon="5.52102">
        <ele>1863.7</ele>
        <time>2022-01-19T13:43:07Z</time>
      </trkpt>
      <trkpt lat="44.88145" lon="5.52103">
        <ele>1864</ele>
        <time>2022-01-19T13:43:08Z</time>
      </trkpt>
      <trkpt lat="44.88145" lon="5.52104">
        <ele>1864</ele>
        <time>2022-01-19T13:43:09Z</time>
      </trkpt>
      <trkpt lat="44.88145" lon="5.52105">
        <ele>1864</ele>
        <time>2022-01-19T13:43:10Z</time>
      </trkpt>
      <trkpt lat="44.88145" lon="5.52106">
        <ele>1864</ele>
        <time>2022-01-19T13:43:11Z</time>
      </trkpt>
      <trkpt lat="44.88146" lon="5.52107">
        <ele>1865.3</ele>
        <time>2022-01-19T13:43:12Z</time>
      </trkpt>
      <trkpt lat="44.88146" lon="5.52107">
        <ele>1865.3</ele>
        <time>2022-01-19T13:43:13Z</time>
      </trkpt>
      <trkpt lat="44.88146" lon="5.52108">
        <ele>1865.3</ele>
        <time>2022-01-19T13:43:14Z</time>
      </trkpt>
      <trkpt lat="44.88146" lon="5.52109">
        <ele>1865.3</ele>
        <time>2022-01-19T13:43:15Z</time>
      </trkpt>
      <trkpt lat="44.88147" lon="5.5211">
        <ele>1865.3</ele>
        <time>2022-01-19T13:43:16Z</time>
      </trkpt>
      <trkpt lat="44.88147" lon="5.52111">
        <ele>1866.7</ele>
        <time>2022-01-19T13:43:17Z</time>
      </trkpt>
      <trkpt lat="44.88147" lon="5.52111">
        <ele>1866.7</ele>
        <time>2022-01-19T13:43:18Z</time>
      </trkpt>
      <trkpt lat="44.88147" lon="5.52112">
        <ele>1866.7</ele>
        <time>2022-01-19T13:43:19Z</time>
      </trkpt>
      <trkpt lat="44.88147" lon="5.52113">
        <ele>1866.7</ele>
        <time>2022-01-19T13:43:20Z</time>
      </trkpt>
      <trkpt lat="44.88148" lon="5.52114">
        <ele>1867.1</ele>
        <time>2022-01-19T13:43:21Z</time>
      </trkpt>
      <trkpt lat="44.88149" lon="5.52115">
        <ele>1868.6</ele>
        <time>2022-01-19T13:43:22Z</time>
      </trkpt>
      <trkpt lat="44.88149" lon="5.52116">
        <ele>1868.6</ele>
        <time>2022-01-19T13:43:23Z</time>
      </trkpt>
      <trkpt lat="44.8815" lon="5.52116">
        <ele>1868.6</ele>
        <time>2022-01-19T13:43:24Z</time>
      </trkpt>
      <trkpt lat="44.8815" lon="5.52117">
        <ele>1868.6</ele>
        <time>2022-01-19T13:43:25Z</time>
      </trkpt>
      <trkpt lat="44.8815" lon="5.52118">
        <ele>1868.6</ele>
        <time>2022-01-19T13:43:26Z</time>
      </trkpt>
      <trkpt lat="44.88151" lon="5.52118">
        <ele>1869.1</ele>
        <time>2022-01-19T13:43:27Z</time>
      </trkpt>
      <trkpt lat="44.88151" lon="5.52118">
        <ele>1869.1</ele>
        <time>2022-01-19T13:43:28Z</time>
      </trkpt>
      <trkpt lat="44.88151" lon="5.52119">
        <ele>1869.1</ele>
        <time>2022-01-19T13:43:29Z</time>
      </trkpt>
      <trkpt lat="44.88152" lon="5.52119">
        <ele>1870.6</ele>
        <time>2022-01-19T13:43:30Z</time>
      </trkpt>
      <trkpt lat="44.88152" lon="5.5212">
        <ele>1870.6</ele>
        <time>2022-01-19T13:43:31Z</time>
      </trkpt>
      <trkpt lat="44.88153" lon="5.5212">
        <ele>1870.6</ele>
        <time>2022-01-19T13:43:32Z</time>
      </trkpt>
      <trkpt lat="44.88154" lon="5.5212">
        <ele>1870.6</ele>
        <time>2022-01-19T13:43:33Z</time>
      </trkpt>
      <trkpt lat="44.88155" lon="5.5212">
        <ele>1871.2</ele>
        <time>2022-01-19T13:43:34Z</time>
      </trkpt>
      <trkpt lat="44.88155" lon="5.52121">
        <ele>1871.2</ele>
        <time>2022-01-19T13:43:35Z</time>
      </trkpt>
      <trkpt lat="44.88155" lon="5.52121">
        <ele>1871.2</ele>
        <time>2022-01-19T13:43:36Z</time>
      </trkpt>
      <trkpt lat="44.88156" lon="5.52121">
        <ele>1871.2</ele>
        <time>2022-01-19T13:43:37Z</time>
      </trkpt>
      <trkpt lat="44.88157" lon="5.52121">
        <ele>1871.2</ele>
        <time>2022-01-19T13:43:38Z</time>
      </trkpt>
      <trkpt lat="44.88157" lon="5.52122">
        <ele>1871.2</ele>
        <time>2022-01-19T13:43:39Z</time>
      </trkpt>
      <trkpt lat="44.88157" lon="5.52122">
        <ele>1871.9</ele>
        <time>2022-01-19T13:43:40Z</time>
      </trkpt>
      <trkpt lat="44.88158" lon="5.52122">
        <ele>1871.9</ele>
        <time>2022-01-19T13:43:41Z</time>
      </trkpt>
      <trkpt lat="44.88158" lon="5.52122">
        <ele>1871.9</ele>
        <time>2022-01-19T13:43:42Z</time>
      </trkpt>
      <trkpt lat="44.88158" lon="5.52122">
        <ele>1871.9</ele>
        <time>2022-01-19T13:43:43Z</time>
      </trkpt>
      <trkpt lat="44.88159" lon="5.52122">
        <ele>1871.9</ele>
        <time>2022-01-19T13:43:44Z</time>
      </trkpt>
      <trkpt lat="44.8816" lon="5.52122">
        <ele>1871.9</ele>
        <time>2022-01-19T13:43:45Z</time>
      </trkpt>
      <trkpt lat="44.8816" lon="5.52121">
        <ele>1871.9</ele>
        <time>2022-01-19T13:43:46Z</time>
      </trkpt>
      <trkpt lat="44.8816" lon="5.52122">
        <ele>1872.8</ele>
        <time>2022-01-19T13:43:47Z</time>
      </trkpt>
      <trkpt lat="44.88161" lon="5.52121">
        <ele>1872.8</ele>
        <time>2022-01-19T13:43:48Z</time>
      </trkpt>
      <trkpt lat="44.88162" lon="5.52121">
        <ele>1872.8</ele>
        <time>2022-01-19T13:43:49Z</time>
      </trkpt>
      <trkpt lat="44.88162" lon="5.52121">
        <ele>1872.8</ele>
        <time>2022-01-19T13:43:50Z</time>
      </trkpt>
      <trkpt lat="44.88163" lon="5.52121">
        <ele>1872.8</ele>
        <time>2022-01-19T13:43:51Z</time>
      </trkpt>
      <trkpt lat="44.88163" lon="5.5212">
        <ele>1872.8</ele>
        <time>2022-01-19T13:43:52Z</time>
      </trkpt>
      <trkpt lat="44.88164" lon="5.5212">
        <ele>1873.8</ele>
        <time>2022-01-19T13:43:53Z</time>
      </trkpt>
      <trkpt lat="44.88164" lon="5.5212">
        <ele>1873.8</ele>
        <time>2022-01-19T13:43:54Z</time>
      </trkpt>
      <trkpt lat="44.88165" lon="5.5212">
        <ele>1873.8</ele>
        <time>2022-01-19T13:43:55Z</time>
      </trkpt>
      <trkpt lat="44.88165" lon="5.5212">
        <ele>1873.8</ele>
        <time>2022-01-19T13:43:56Z</time>
      </trkpt>
      <trkpt lat="44.88166" lon="5.5212">
        <ele>1873.8</ele>
        <time>2022-01-19T13:43:57Z</time>
      </trkpt>
      <trkpt lat="44.88166" lon="5.5212">
        <ele>1873.8</ele>
        <time>2022-01-19T13:43:58Z</time>
      </trkpt>
      <trkpt lat="44.88166" lon="5.5212">
        <ele>1873.8</ele>
        <time>2022-01-19T13:43:59Z</time>
      </trkpt>
      <trkpt lat="44.88167" lon="5.52121">
        <ele>1874.8</ele>
        <time>2022-01-19T13:44:00Z</time>
      </trkpt>
      <trkpt lat="44.88167" lon="5.52121">
        <ele>1874.8</ele>
        <time>2022-01-19T13:44:01Z</time>
      </trkpt>
      <trkpt lat="44.88168" lon="5.52121">
        <ele>1874.8</ele>
        <time>2022-01-19T13:44:02Z</time>
      </trkpt>
      <trkpt lat="44.88168" lon="5.52121">
        <ele>1874.8</ele>
        <time>2022-01-19T13:44:03Z</time>
      </trkpt>
      <trkpt lat="44.88168" lon="5.52122">
        <ele>1874.8</ele>
        <time>2022-01-19T13:44:04Z</time>
      </trkpt>
      <trkpt lat="44.88168" lon="5.52122">
        <ele>1874.8</ele>
        <time>2022-01-19T13:44:05Z</time>
      </trkpt>
      <trkpt lat="44.88169" lon="5.52122">
        <ele>1874.8</ele>
        <time>2022-01-19T13:44:06Z</time>
      </trkpt>
      <trkpt lat="44.88169" lon="5.52122">
        <ele>1874.8</ele>
        <time>2022-01-19T13:44:07Z</time>
      </trkpt>
      <trkpt lat="44.8817" lon="5.52122">
        <ele>1875.8</ele>
        <time>2022-01-19T13:44:08Z</time>
      </trkpt>
      <trkpt lat="44.8817" lon="5.52122">
        <ele>1875.8</ele>
        <time>2022-01-19T13:44:09Z</time>
      </trkpt>
      <trkpt lat="44.8817" lon="5.52122">
        <ele>1875.8</ele>
        <time>2022-01-19T13:44:10Z</time>
      </trkpt>
      <trkpt lat="44.88171" lon="5.52121">
        <ele>1875.8</ele>
        <time>2022-01-19T13:44:11Z</time>
      </trkpt>
      <trkpt lat="44.88171" lon="5.52122">
        <ele>1875.8</ele>
        <time>2022-01-19T13:44:12Z</time>
      </trkpt>
      <trkpt lat="44.88171" lon="5.52122">
        <ele>1875.8</ele>
        <time>2022-01-19T13:44:13Z</time>
      </trkpt>
      <trkpt lat="44.88172" lon="5.52122">
        <ele>1875.8</ele>
        <time>2022-01-19T13:44:14Z</time>
      </trkpt>
      <trkpt lat="44.88172" lon="5.52122">
        <ele>1875.8</ele>
        <time>2022-01-19T13:44:15Z</time>
      </trkpt>
      <trkpt lat="44.88172" lon="5.52122">
        <ele>1875.8</ele>
        <time>2022-01-19T13:44:16Z</time>
      </trkpt>
      <trkpt lat="44.88172" lon="5.52122">
        <ele>1875.8</ele>
        <time>2022-01-19T13:44:17Z</time>
      </trkpt>
      <trkpt lat="44.88172" lon="5.52122">
        <ele>1875.8</ele>
        <time>2022-01-19T13:44:18Z</time>
      </trkpt>
      <trkpt lat="44.88172" lon="5.52122">
        <ele>1875.8</ele>
        <time>2022-01-19T13:44:19Z</time>
      </trkpt>
      <trkpt lat="44.88172" lon="5.52122">
        <ele>1875.8</ele>
        <time>2022-01-19T13:44:20Z</time>
      </trkpt>
      <trkpt lat="44.88172" lon="5.52122">
        <ele>1875.8</ele>
        <time>2022-01-19T13:44:21Z</time>
      </trkpt>
      <trkpt lat="44.88172" lon="5.52122">
        <ele>1875.8</ele>
        <time>2022-01-19T13:44:22Z</time>
      </trkpt>
      <trkpt lat="44.88172" lon="5.52122">
        <ele>1875.8</ele>
        <time>2022-01-19T13:44:23Z</time>
      </trkpt>
      <trkpt lat="44.88172" lon="5.52122">
        <ele>1875.8</ele>
        <time>2022-01-19T13:44:24Z</time>
      </trkpt>
      <trkpt lat="44.88172" lon="5.52122">
        <ele>1875.8</ele>
        <time>2022-01-19T13:44:25Z</time>
      </trkpt>
      <trkpt lat="44.88172" lon="5.52122">
        <ele>1875.8</ele>
        <time>2022-01-19T13:44:26Z</time>
      </trkpt>
      <trkpt lat="44.88172" lon="5.52122">
        <ele>1875.8</ele>
        <time>2022-01-19T13:44:27Z</time>
      </trkpt>
      <trkpt lat="44.88172" lon="5.52122">
        <ele>1875.8</ele>
        <time>2022-01-19T13:44:28Z</time>
      </trkpt>
      <trkpt lat="44.8817" lon="5.52122">
        <ele>1875.8</ele>
        <time>2022-01-19T13:44:29Z</time>
      </trkpt>
      <trkpt lat="44.88169" lon="5.52122">
        <ele>1875.8</ele>
        <time>2022-01-19T13:44:30Z</time>
      </trkpt>
      <trkpt lat="44.88169" lon="5.52122">
        <ele>1874.8</ele>
        <time>2022-01-19T13:44:31Z</time>
      </trkpt>
      <trkpt lat="44.88168" lon="5.52123">
        <ele>1874.8</ele>
        <time>2022-01-19T13:44:32Z</time>
      </trkpt>
      <trkpt lat="44.88168" lon="5.52123">
        <ele>1874.8</ele>
        <time>2022-01-19T13:44:33Z</time>
      </trkpt>
      <trkpt lat="44.88168" lon="5.52123">
        <ele>1874.8</ele>
        <time>2022-01-19T13:44:34Z</time>
      </trkpt>
      <trkpt lat="44.88167" lon="5.52124">
        <ele>1876.1</ele>
        <time>2022-01-19T13:44:35Z</time>
      </trkpt>
      <trkpt lat="44.88167" lon="5.52124">
        <ele>1876.1</ele>
        <time>2022-01-19T13:44:36Z</time>
      </trkpt>
      <trkpt lat="44.88166" lon="5.52125">
        <ele>1875.1</ele>
        <time>2022-01-19T13:44:37Z</time>
      </trkpt>
      <trkpt lat="44.88165" lon="5.52125">
        <ele>1875.1</ele>
        <time>2022-01-19T13:44:38Z</time>
      </trkpt>
      <trkpt lat="44.88165" lon="5.52126">
        <ele>1875.1</ele>
        <time>2022-01-19T13:44:39Z</time>
      </trkpt>
      <trkpt lat="44.88165" lon="5.52126">
        <ele>1875.1</ele>
        <time>2022-01-19T13:44:40Z</time>
      </trkpt>
      <trkpt lat="44.88164" lon="5.52126">
        <ele>1875.1</ele>
        <time>2022-01-19T13:44:41Z</time>
      </trkpt>
      <trkpt lat="44.88163" lon="5.52126">
        <ele>1874.2</ele>
        <time>2022-01-19T13:44:42Z</time>
      </trkpt>
      <trkpt lat="44.88162" lon="5.52127">
        <ele>1874.2</ele>
        <time>2022-01-19T13:44:43Z</time>
      </trkpt>
      <trkpt lat="44.88162" lon="5.52127">
        <ele>1874.2</ele>
        <time>2022-01-19T13:44:44Z</time>
      </trkpt>
      <trkpt lat="44.88162" lon="5.52127">
        <ele>1874.2</ele>
        <time>2022-01-19T13:44:45Z</time>
      </trkpt>
      <trkpt lat="44.88161" lon="5.52128">
        <ele>1875.6</ele>
        <time>2022-01-19T13:44:46Z</time>
      </trkpt>
      <trkpt lat="44.8816" lon="5.52128">
        <ele>1875.6</ele>
        <time>2022-01-19T13:44:47Z</time>
      </trkpt>
      <trkpt lat="44.8816" lon="5.52129">
        <ele>1874.8</ele>
        <time>2022-01-19T13:44:48Z</time>
      </trkpt>
      <trkpt lat="44.8816" lon="5.52129">
        <ele>1874.8</ele>
        <time>2022-01-19T13:44:49Z</time>
      </trkpt>
      <trkpt lat="44.88159" lon="5.5213">
        <ele>1874.8</ele>
        <time>2022-01-19T13:44:50Z</time>
      </trkpt>
      <trkpt lat="44.88159" lon="5.5213">
        <ele>1874.8</ele>
        <time>2022-01-19T13:44:51Z</time>
      </trkpt>
      <trkpt lat="44.88159" lon="5.52131">
        <ele>1874.8</ele>
        <time>2022-01-19T13:44:52Z</time>
      </trkpt>
      <trkpt lat="44.88158" lon="5.52132">
        <ele>1874.8</ele>
        <time>2022-01-19T13:44:53Z</time>
      </trkpt>
      <trkpt lat="44.88158" lon="5.52132">
        <ele>1876.2</ele>
        <time>2022-01-19T13:44:54Z</time>
      </trkpt>
      <trkpt lat="44.88157" lon="5.52133">
        <ele>1875.5</ele>
        <time>2022-01-19T13:44:55Z</time>
      </trkpt>
      <trkpt lat="44.88156" lon="5.52134">
        <ele>1875.5</ele>
        <time>2022-01-19T13:44:56Z</time>
      </trkpt>
      <trkpt lat="44.88155" lon="5.52135">
        <ele>1875.5</ele>
        <time>2022-01-19T13:44:57Z</time>
      </trkpt>
      <trkpt lat="44.88155" lon="5.52135">
        <ele>1875.5</ele>
        <time>2022-01-19T13:44:58Z</time>
      </trkpt>
      <trkpt lat="44.88155" lon="5.52136">
        <ele>1877</ele>
        <time>2022-01-19T13:44:59Z</time>
      </trkpt>
      <trkpt lat="44.88154" lon="5.52137">
        <ele>1876.5</ele>
        <time>2022-01-19T13:45:00Z</time>
      </trkpt>
      <trkpt lat="44.88153" lon="5.52139">
        <ele>1876.5</ele>
        <time>2022-01-19T13:45:01Z</time>
      </trkpt>
      <trkpt lat="44.88153" lon="5.5214">
        <ele>1876.5</ele>
        <time>2022-01-19T13:45:02Z</time>
      </trkpt>
      <trkpt lat="44.88152" lon="5.52141">
        <ele>1877.9</ele>
        <time>2022-01-19T13:45:03Z</time>
      </trkpt>
      <trkpt lat="44.88152" lon="5.52142">
        <ele>1877.9</ele>
        <time>2022-01-19T13:45:04Z</time>
      </trkpt>
      <trkpt lat="44.88152" lon="5.52143">
        <ele>1877.9</ele>
        <time>2022-01-19T13:45:05Z</time>
      </trkpt>
      <trkpt lat="44.88151" lon="5.52144">
        <ele>1877.9</ele>
        <time>2022-01-19T13:45:06Z</time>
      </trkpt>
      <trkpt lat="44.88151" lon="5.52144">
        <ele>1877.5</ele>
        <time>2022-01-19T13:45:07Z</time>
      </trkpt>
      <trkpt lat="44.8815" lon="5.52145">
        <ele>1877.5</ele>
        <time>2022-01-19T13:45:08Z</time>
      </trkpt>
      <trkpt lat="44.8815" lon="5.52145">
        <ele>1879</ele>
        <time>2022-01-19T13:45:09Z</time>
      </trkpt>
      <trkpt lat="44.88149" lon="5.52146">
        <ele>1879</ele>
        <time>2022-01-19T13:45:10Z</time>
      </trkpt>
      <trkpt lat="44.88149" lon="5.52147">
        <ele>1879</ele>
        <time>2022-01-19T13:45:11Z</time>
      </trkpt>
      <trkpt lat="44.88148" lon="5.52147">
        <ele>1879</ele>
        <time>2022-01-19T13:45:12Z</time>
      </trkpt>
      <trkpt lat="44.88148" lon="5.52148">
        <ele>1878.7</ele>
        <time>2022-01-19T13:45:13Z</time>
      </trkpt>
      <trkpt lat="44.88147" lon="5.52148">
        <ele>1878.7</ele>
        <time>2022-01-19T13:45:14Z</time>
      </trkpt>
      <trkpt lat="44.88147" lon="5.52148">
        <ele>1878.7</ele>
        <time>2022-01-19T13:45:15Z</time>
      </trkpt>
      <trkpt lat="44.88146" lon="5.52148">
        <ele>1878.7</ele>
        <time>2022-01-19T13:45:16Z</time>
      </trkpt>
      <trkpt lat="44.88146" lon="5.52148">
        <ele>1878.7</ele>
        <time>2022-01-19T13:45:17Z</time>
      </trkpt>
      <trkpt lat="44.88146" lon="5.52149">
        <ele>1878.7</ele>
        <time>2022-01-19T13:45:18Z</time>
      </trkpt>
      <trkpt lat="44.88146" lon="5.52149">
        <ele>1880.1</ele>
        <time>2022-01-19T13:45:19Z</time>
      </trkpt>
      <trkpt lat="44.88146" lon="5.5215">
        <ele>1880.1</ele>
        <time>2022-01-19T13:45:20Z</time>
      </trkpt>
      <trkpt lat="44.88145" lon="5.5215">
        <ele>1880.1</ele>
        <time>2022-01-19T13:45:21Z</time>
      </trkpt>
      <trkpt lat="44.88145" lon="5.5215">
        <ele>1880.1</ele>
        <time>2022-01-19T13:45:22Z</time>
      </trkpt>
      <trkpt lat="44.88145" lon="5.5215">
        <ele>1880.1</ele>
        <time>2022-01-19T13:45:23Z</time>
      </trkpt>
      <trkpt lat="44.88145" lon="5.5215">
        <ele>1880.1</ele>
        <time>2022-01-19T13:45:24Z</time>
      </trkpt>
      <trkpt lat="44.88145" lon="5.5215">
        <ele>1880.1</ele>
        <time>2022-01-19T13:45:25Z</time>
      </trkpt>
      <trkpt lat="44.88145" lon="5.5215">
        <ele>1880.1</ele>
        <time>2022-01-19T13:45:26Z</time>
      </trkpt>
      <trkpt lat="44.88145" lon="5.5215">
        <ele>1880.1</ele>
        <time>2022-01-19T13:45:27Z</time>
      </trkpt>
      <trkpt lat="44.88145" lon="5.5215">
        <ele>1880.1</ele>
        <time>2022-01-19T13:45:28Z</time>
      </trkpt>
      <trkpt lat="44.88145" lon="5.5215">
        <ele>1880.1</ele>
        <time>2022-01-19T13:45:29Z</time>
      </trkpt>
      <trkpt lat="44.88145" lon="5.5215">
        <ele>1880.1</ele>
        <time>2022-01-19T13:45:30Z</time>
      </trkpt>
      <trkpt lat="44.88145" lon="5.5215">
        <ele>1880.1</ele>
        <time>2022-01-19T13:45:31Z</time>
      </trkpt>
      <trkpt lat="44.88145" lon="5.5215">
        <ele>1880.1</ele>
        <time>2022-01-19T13:45:32Z</time>
      </trkpt>
      <trkpt lat="44.88145" lon="5.5215">
        <ele>1880.1</ele>
        <time>2022-01-19T13:45:33Z</time>
      </trkpt>
      <trkpt lat="44.88145" lon="5.5215">
        <ele>1880.1</ele>
        <time>2022-01-19T13:45:34Z</time>
      </trkpt>
      <trkpt lat="44.88145" lon="5.5215">
        <ele>1880.1</ele>
        <time>2022-01-19T13:45:35Z</time>
      </trkpt>
      <trkpt lat="44.88145" lon="5.5215">
        <ele>1880.1</ele>
        <time>2022-01-19T13:45:36Z</time>
      </trkpt>
      <trkpt lat="44.88145" lon="5.5215">
        <ele>1880.1</ele>
        <time>2022-01-19T13:45:37Z</time>
      </trkpt>
      <trkpt lat="44.88141" lon="5.52155">
        <ele>1881.4</ele>
        <time>2022-01-19T13:45:38Z</time>
      </trkpt>
      <trkpt lat="44.8814" lon="5.52155">
        <ele>1881.4</ele>
        <time>2022-01-19T13:45:39Z</time>
      </trkpt>
      <trkpt lat="44.88139" lon="5.52155">
        <ele>1881.4</ele>
        <time>2022-01-19T13:45:40Z</time>
      </trkpt>
      <trkpt lat="44.88139" lon="5.52155">
        <ele>1881.4</ele>
        <time>2022-01-19T13:45:41Z</time>
      </trkpt>
      <trkpt lat="44.88139" lon="5.52155">
        <ele>1881.4</ele>
        <time>2022-01-19T13:45:42Z</time>
      </trkpt>
      <trkpt lat="44.88139" lon="5.52155">
        <ele>1881.4</ele>
        <time>2022-01-19T13:45:43Z</time>
      </trkpt>
      <trkpt lat="44.88136" lon="5.52155">
        <ele>1881.4</ele>
        <time>2022-01-19T13:45:44Z</time>
      </trkpt>
      <trkpt lat="44.88135" lon="5.52155">
        <ele>1881.6</ele>
        <time>2022-01-19T13:45:45Z</time>
      </trkpt>
      <trkpt lat="44.88134" lon="5.52155">
        <ele>1881.6</ele>
        <time>2022-01-19T13:45:46Z</time>
      </trkpt>
      <trkpt lat="44.88134" lon="5.52154">
        <ele>1881.6</ele>
        <time>2022-01-19T13:45:47Z</time>
      </trkpt>
      <trkpt lat="44.88133" lon="5.52154">
        <ele>1881.6</ele>
        <time>2022-01-19T13:45:48Z</time>
      </trkpt>
      <trkpt lat="44.88133" lon="5.52154">
        <ele>1881.8</ele>
        <time>2022-01-19T13:45:49Z</time>
      </trkpt>
      <trkpt lat="44.88132" lon="5.52154">
        <ele>1881.8</ele>
        <time>2022-01-19T13:45:50Z</time>
      </trkpt>
      <trkpt lat="44.88131" lon="5.52153">
        <ele>1881.8</ele>
        <time>2022-01-19T13:45:51Z</time>
      </trkpt>
      <trkpt lat="44.88131" lon="5.52153">
        <ele>1881.8</ele>
        <time>2022-01-19T13:45:52Z</time>
      </trkpt>
      <trkpt lat="44.88131" lon="5.52153">
        <ele>1880.4</ele>
        <time>2022-01-19T13:45:53Z</time>
      </trkpt>
      <trkpt lat="44.8813" lon="5.52153">
        <ele>1880.4</ele>
        <time>2022-01-19T13:45:54Z</time>
      </trkpt>
      <trkpt lat="44.88129" lon="5.52153">
        <ele>1880.8</ele>
        <time>2022-01-19T13:45:55Z</time>
      </trkpt>
      <trkpt lat="44.88129" lon="5.52153">
        <ele>1880.8</ele>
        <time>2022-01-19T13:45:56Z</time>
      </trkpt>
      <trkpt lat="44.88129" lon="5.52153">
        <ele>1880.8</ele>
        <time>2022-01-19T13:45:57Z</time>
      </trkpt>
      <trkpt lat="44.88129" lon="5.52153">
        <ele>1880.8</ele>
        <time>2022-01-19T13:45:58Z</time>
      </trkpt>
      <trkpt lat="44.88129" lon="5.52153">
        <ele>1880.8</ele>
        <time>2022-01-19T13:45:59Z</time>
      </trkpt>
      <trkpt lat="44.88129" lon="5.52153">
        <ele>1880.8</ele>
        <time>2022-01-19T13:46:00Z</time>
      </trkpt>
      <trkpt lat="44.88129" lon="5.52153">
        <ele>1880.8</ele>
        <time>2022-01-19T13:46:01Z</time>
      </trkpt>
      <trkpt lat="44.88129" lon="5.52153">
        <ele>1880.8</ele>
        <time>2022-01-19T13:46:02Z</time>
      </trkpt>
      <trkpt lat="44.88129" lon="5.52153">
        <ele>1880.8</ele>
        <time>2022-01-19T13:46:03Z</time>
      </trkpt>
      <trkpt lat="44.88129" lon="5.52153">
        <ele>1880.8</ele>
        <time>2022-01-19T13:46:04Z</time>
      </trkpt>
      <trkpt lat="44.88129" lon="5.52153">
        <ele>1880.8</ele>
        <time>2022-01-19T13:46:05Z</time>
      </trkpt>
      <trkpt lat="44.88129" lon="5.52153">
        <ele>1880.8</ele>
        <time>2022-01-19T13:46:06Z</time>
      </trkpt>
      <trkpt lat="44.88128" lon="5.52151">
        <ele>1880.8</ele>
        <time>2022-01-19T13:46:07Z</time>
      </trkpt>
      <trkpt lat="44.88127" lon="5.52151">
        <ele>1880.8</ele>
        <time>2022-01-19T13:46:08Z</time>
      </trkpt>
      <trkpt lat="44.88126" lon="5.52151">
        <ele>1881.2</ele>
        <time>2022-01-19T13:46:09Z</time>
      </trkpt>
      <trkpt lat="44.88126" lon="5.52151">
        <ele>1881.2</ele>
        <time>2022-01-19T13:46:10Z</time>
      </trkpt>
      <trkpt lat="44.88126" lon="5.52151">
        <ele>1881.2</ele>
        <time>2022-01-19T13:46:11Z</time>
      </trkpt>
      <trkpt lat="44.88126" lon="5.52151">
        <ele>1881.2</ele>
        <time>2022-01-19T13:46:12Z</time>
      </trkpt>
      <trkpt lat="44.88126" lon="5.52151">
        <ele>1881.2</ele>
        <time>2022-01-19T13:46:13Z</time>
      </trkpt>
      <trkpt lat="44.88126" lon="5.52151">
        <ele>1881.2</ele>
        <time>2022-01-19T13:46:14Z</time>
      </trkpt>
      <trkpt lat="44.88126" lon="5.52151">
        <ele>1881.2</ele>
        <time>2022-01-19T13:46:15Z</time>
      </trkpt>
      <trkpt lat="44.88126" lon="5.52151">
        <ele>1881.2</ele>
        <time>2022-01-19T13:46:16Z</time>
      </trkpt>
      <trkpt lat="44.88126" lon="5.52151">
        <ele>1881.2</ele>
        <time>2022-01-19T13:46:17Z</time>
      </trkpt>
      <trkpt lat="44.88126" lon="5.52151">
        <ele>1881.2</ele>
        <time>2022-01-19T13:46:18Z</time>
      </trkpt>
      <trkpt lat="44.88126" lon="5.52151">
        <ele>1881.2</ele>
        <time>2022-01-19T13:46:19Z</time>
      </trkpt>
      <trkpt lat="44.88126" lon="5.52153">
        <ele>1881.2</ele>
        <time>2022-01-19T13:46:20Z</time>
      </trkpt>
      <trkpt lat="44.88125" lon="5.52154">
        <ele>1882.5</ele>
        <time>2022-01-19T13:46:21Z</time>
      </trkpt>
      <trkpt lat="44.88125" lon="5.52155">
        <ele>1882.5</ele>
        <time>2022-01-19T13:46:22Z</time>
      </trkpt>
      <trkpt lat="44.88125" lon="5.52156">
        <ele>1882.5</ele>
        <time>2022-01-19T13:46:23Z</time>
      </trkpt>
      <trkpt lat="44.88126" lon="5.52157">
        <ele>1882.5</ele>
        <time>2022-01-19T13:46:24Z</time>
      </trkpt>
      <trkpt lat="44.88126" lon="5.52157">
        <ele>1882.5</ele>
        <time>2022-01-19T13:46:25Z</time>
      </trkpt>
      <trkpt lat="44.88127" lon="5.52158">
        <ele>1883.5</ele>
        <time>2022-01-19T13:46:26Z</time>
      </trkpt>
      <trkpt lat="44.88128" lon="5.52159">
        <ele>1883.5</ele>
        <time>2022-01-19T13:46:27Z</time>
      </trkpt>
      <trkpt lat="44.88128" lon="5.5216">
        <ele>1883.5</ele>
        <time>2022-01-19T13:46:28Z</time>
      </trkpt>
      <trkpt lat="44.88128" lon="5.5216">
        <ele>1883.5</ele>
        <time>2022-01-19T13:46:29Z</time>
      </trkpt>
      <trkpt lat="44.88129" lon="5.52161">
        <ele>1883.5</ele>
        <time>2022-01-19T13:46:30Z</time>
      </trkpt>
      <trkpt lat="44.88129" lon="5.52162">
        <ele>1883.5</ele>
        <time>2022-01-19T13:46:31Z</time>
      </trkpt>
      <trkpt lat="44.8813" lon="5.52162">
        <ele>1884.5</ele>
        <time>2022-01-19T13:46:32Z</time>
      </trkpt>
      <trkpt lat="44.8813" lon="5.52163">
        <ele>1884.5</ele>
        <time>2022-01-19T13:46:33Z</time>
      </trkpt>
      <trkpt lat="44.88131" lon="5.52164">
        <ele>1884.5</ele>
        <time>2022-01-19T13:46:34Z</time>
      </trkpt>
      <trkpt lat="44.88131" lon="5.52165">
        <ele>1884.5</ele>
        <time>2022-01-19T13:46:35Z</time>
      </trkpt>
      <trkpt lat="44.88132" lon="5.52165">
        <ele>1884.5</ele>
        <time>2022-01-19T13:46:36Z</time>
      </trkpt>
      <trkpt lat="44.88132" lon="5.52166">
        <ele>1884.5</ele>
        <time>2022-01-19T13:46:37Z</time>
      </trkpt>
      <trkpt lat="44.88133" lon="5.52166">
        <ele>1885.7</ele>
        <time>2022-01-19T13:46:38Z</time>
      </trkpt>
      <trkpt lat="44.88134" lon="5.52167">
        <ele>1885.7</ele>
        <time>2022-01-19T13:46:39Z</time>
      </trkpt>
      <trkpt lat="44.88134" lon="5.52167">
        <ele>1885.7</ele>
        <time>2022-01-19T13:46:40Z</time>
      </trkpt>
      <trkpt lat="44.88135" lon="5.52168">
        <ele>1885.7</ele>
        <time>2022-01-19T13:46:41Z</time>
      </trkpt>
      <trkpt lat="44.88135" lon="5.52168">
        <ele>1885.7</ele>
        <time>2022-01-19T13:46:42Z</time>
      </trkpt>
      <trkpt lat="44.88136" lon="5.52169">
        <ele>1885.6</ele>
        <time>2022-01-19T13:46:43Z</time>
      </trkpt>
      <trkpt lat="44.88137" lon="5.52169">
        <ele>1885.6</ele>
        <time>2022-01-19T13:46:44Z</time>
      </trkpt>
      <trkpt lat="44.88137" lon="5.5217">
        <ele>1885.6</ele>
        <time>2022-01-19T13:46:45Z</time>
      </trkpt>
      <trkpt lat="44.88138" lon="5.5217">
        <ele>1885.6</ele>
        <time>2022-01-19T13:46:46Z</time>
      </trkpt>
      <trkpt lat="44.88138" lon="5.5217">
        <ele>1885.6</ele>
        <time>2022-01-19T13:46:47Z</time>
      </trkpt>
      <trkpt lat="44.88139" lon="5.52171">
        <ele>1886.8</ele>
        <time>2022-01-19T13:46:48Z</time>
      </trkpt>
      <trkpt lat="44.88139" lon="5.52171">
        <ele>1886.8</ele>
        <time>2022-01-19T13:46:49Z</time>
      </trkpt>
      <trkpt lat="44.88139" lon="5.52172">
        <ele>1886.8</ele>
        <time>2022-01-19T13:46:50Z</time>
      </trkpt>
      <trkpt lat="44.8814" lon="5.52172">
        <ele>1886.8</ele>
        <time>2022-01-19T13:46:51Z</time>
      </trkpt>
      <trkpt lat="44.88141" lon="5.52172">
        <ele>1886.8</ele>
        <time>2022-01-19T13:46:52Z</time>
      </trkpt>
      <trkpt lat="44.88141" lon="5.52173">
        <ele>1886.8</ele>
        <time>2022-01-19T13:46:53Z</time>
      </trkpt>
      <trkpt lat="44.88142" lon="5.52173">
        <ele>1886.9</ele>
        <time>2022-01-19T13:46:54Z</time>
      </trkpt>
      <trkpt lat="44.88142" lon="5.52174">
        <ele>1886.9</ele>
        <time>2022-01-19T13:46:55Z</time>
      </trkpt>
      <trkpt lat="44.88143" lon="5.52174">
        <ele>1886.9</ele>
        <time>2022-01-19T13:46:56Z</time>
      </trkpt>
      <trkpt lat="44.88144" lon="5.52175">
        <ele>1888.1</ele>
        <time>2022-01-19T13:46:57Z</time>
      </trkpt>
      <trkpt lat="44.88144" lon="5.52175">
        <ele>1888.1</ele>
        <time>2022-01-19T13:46:58Z</time>
      </trkpt>
      <trkpt lat="44.88145" lon="5.52176">
        <ele>1888.1</ele>
        <time>2022-01-19T13:46:59Z</time>
      </trkpt>
      <trkpt lat="44.88145" lon="5.52176">
        <ele>1888.2</ele>
        <time>2022-01-19T13:47:00Z</time>
      </trkpt>
      <trkpt lat="44.88145" lon="5.52177">
        <ele>1888.2</ele>
        <time>2022-01-19T13:47:01Z</time>
      </trkpt>
      <trkpt lat="44.88146" lon="5.52177">
        <ele>1888.2</ele>
        <time>2022-01-19T13:47:02Z</time>
      </trkpt>
      <trkpt lat="44.88147" lon="5.52177">
        <ele>1888.2</ele>
        <time>2022-01-19T13:47:03Z</time>
      </trkpt>
      <trkpt lat="44.88147" lon="5.52178">
        <ele>1888.2</ele>
        <time>2022-01-19T13:47:04Z</time>
      </trkpt>
      <trkpt lat="44.88147" lon="5.52178">
        <ele>1888.2</ele>
        <time>2022-01-19T13:47:05Z</time>
      </trkpt>
      <trkpt lat="44.88148" lon="5.52178">
        <ele>1888.4</ele>
        <time>2022-01-19T13:47:06Z</time>
      </trkpt>
      <trkpt lat="44.88148" lon="5.52179">
        <ele>1888.4</ele>
        <time>2022-01-19T13:47:07Z</time>
      </trkpt>
      <trkpt lat="44.88149" lon="5.52179">
        <ele>1888.4</ele>
        <time>2022-01-19T13:47:08Z</time>
      </trkpt>
      <trkpt lat="44.8815" lon="5.52179">
        <ele>1888.4</ele>
        <time>2022-01-19T13:47:09Z</time>
      </trkpt>
      <trkpt lat="44.8815" lon="5.52178">
        <ele>1888.4</ele>
        <time>2022-01-19T13:47:10Z</time>
      </trkpt>
      <trkpt lat="44.8815" lon="5.52178">
        <ele>1888.4</ele>
        <time>2022-01-19T13:47:11Z</time>
      </trkpt>
      <trkpt lat="44.8815" lon="5.52178">
        <ele>1888.4</ele>
        <time>2022-01-19T13:47:12Z</time>
      </trkpt>
      <trkpt lat="44.8815" lon="5.52178">
        <ele>1888.4</ele>
        <time>2022-01-19T13:47:13Z</time>
      </trkpt>
      <trkpt lat="44.88152" lon="5.52177">
        <ele>1888.7</ele>
        <time>2022-01-19T13:47:14Z</time>
      </trkpt>
      <trkpt lat="44.88152" lon="5.52176">
        <ele>1888.7</ele>
        <time>2022-01-19T13:47:15Z</time>
      </trkpt>
      <trkpt lat="44.88153" lon="5.52176">
        <ele>1888.7</ele>
        <time>2022-01-19T13:47:16Z</time>
      </trkpt>
      <trkpt lat="44.88154" lon="5.52176">
        <ele>1888.7</ele>
        <time>2022-01-19T13:47:17Z</time>
      </trkpt>
      <trkpt lat="44.88155" lon="5.52176">
        <ele>1889</ele>
        <time>2022-01-19T13:47:18Z</time>
      </trkpt>
      <trkpt lat="44.88155" lon="5.52177">
        <ele>1889</ele>
        <time>2022-01-19T13:47:19Z</time>
      </trkpt>
      <trkpt lat="44.88155" lon="5.52177">
        <ele>1889</ele>
        <time>2022-01-19T13:47:20Z</time>
      </trkpt>
      <trkpt lat="44.88156" lon="5.52177">
        <ele>1889</ele>
        <time>2022-01-19T13:47:21Z</time>
      </trkpt>
      <trkpt lat="44.88157" lon="5.52178">
        <ele>1889</ele>
        <time>2022-01-19T13:47:22Z</time>
      </trkpt>
      <trkpt lat="44.88157" lon="5.52178">
        <ele>1889</ele>
        <time>2022-01-19T13:47:23Z</time>
      </trkpt>
      <trkpt lat="44.88157" lon="5.52178">
        <ele>1889</ele>
        <time>2022-01-19T13:47:24Z</time>
      </trkpt>
      <trkpt lat="44.88157" lon="5.52177">
        <ele>1889</ele>
        <time>2022-01-19T13:47:25Z</time>
      </trkpt>
      <trkpt lat="44.88157" lon="5.52177">
        <ele>1889</ele>
        <time>2022-01-19T13:47:26Z</time>
      </trkpt>
      <trkpt lat="44.88157" lon="5.52177">
        <ele>1889</ele>
        <time>2022-01-19T13:47:27Z</time>
      </trkpt>
      <trkpt lat="44.88157" lon="5.52177">
        <ele>1889</ele>
        <time>2022-01-19T13:47:28Z</time>
      </trkpt>
      <trkpt lat="44.88158" lon="5.52178">
        <ele>1889.4</ele>
        <time>2022-01-19T13:47:29Z</time>
      </trkpt>
      <trkpt lat="44.88159" lon="5.52178">
        <ele>1889.4</ele>
        <time>2022-01-19T13:47:30Z</time>
      </trkpt>
      <trkpt lat="44.88159" lon="5.52179">
        <ele>1890.5</ele>
        <time>2022-01-19T13:47:31Z</time>
      </trkpt>
      <trkpt lat="44.88159" lon="5.52179">
        <ele>1890.5</ele>
        <time>2022-01-19T13:47:32Z</time>
      </trkpt>
      <trkpt lat="44.88159" lon="5.52179">
        <ele>1890.5</ele>
        <time>2022-01-19T13:47:33Z</time>
      </trkpt>
      <trkpt lat="44.88159" lon="5.52179">
        <ele>1889.4</ele>
        <time>2022-01-19T13:47:34Z</time>
      </trkpt>
      <trkpt lat="44.88159" lon="5.52179">
        <ele>1889.4</ele>
        <time>2022-01-19T13:47:35Z</time>
      </trkpt>
      <trkpt lat="44.88159" lon="5.52179">
        <ele>1889.4</ele>
        <time>2022-01-19T13:47:36Z</time>
      </trkpt>
      <trkpt lat="44.88159" lon="5.52179">
        <ele>1889.4</ele>
        <time>2022-01-19T13:47:37Z</time>
      </trkpt>
      <trkpt lat="44.88159" lon="5.52179">
        <ele>1889.4</ele>
        <time>2022-01-19T13:47:38Z</time>
      </trkpt>
      <trkpt lat="44.88159" lon="5.52179">
        <ele>1889.4</ele>
        <time>2022-01-19T13:47:39Z</time>
      </trkpt>
      <trkpt lat="44.88159" lon="5.52179">
        <ele>1889.4</ele>
        <time>2022-01-19T13:47:40Z</time>
      </trkpt>
      <trkpt lat="44.88159" lon="5.52179">
        <ele>1889.4</ele>
        <time>2022-01-19T13:47:41Z</time>
      </trkpt>
      <trkpt lat="44.88159" lon="5.52179">
        <ele>1889.4</ele>
        <time>2022-01-19T13:47:42Z</time>
      </trkpt>
      <trkpt lat="44.88159" lon="5.52179">
        <ele>1889.4</ele>
        <time>2022-01-19T13:47:43Z</time>
      </trkpt>
      <trkpt lat="44.88159" lon="5.52179">
        <ele>1889.4</ele>
        <time>2022-01-19T13:47:44Z</time>
      </trkpt>
      <trkpt lat="44.88159" lon="5.52179">
        <ele>1889.4</ele>
        <time>2022-01-19T13:47:45Z</time>
      </trkpt>
      <trkpt lat="44.88159" lon="5.52179">
        <ele>1889.4</ele>
        <time>2022-01-19T13:47:46Z</time>
      </trkpt>
      <trkpt lat="44.88158" lon="5.52181">
        <ele>1890.5</ele>
        <time>2022-01-19T13:47:47Z</time>
      </trkpt>
      <trkpt lat="44.88158" lon="5.52182">
        <ele>1890.5</ele>
        <time>2022-01-19T13:47:48Z</time>
      </trkpt>
      <trkpt lat="44.88157" lon="5.52182">
        <ele>1890.5</ele>
        <time>2022-01-19T13:47:49Z</time>
      </trkpt>
      <trkpt lat="44.88157" lon="5.52183">
        <ele>1890.1</ele>
        <time>2022-01-19T13:47:50Z</time>
      </trkpt>
      <trkpt lat="44.88156" lon="5.52183">
        <ele>1890.1</ele>
        <time>2022-01-19T13:47:51Z</time>
      </trkpt>
      <trkpt lat="44.88156" lon="5.52183">
        <ele>1890.1</ele>
        <time>2022-01-19T13:47:52Z</time>
      </trkpt>
      <trkpt lat="44.88155" lon="5.52183">
        <ele>1890.1</ele>
        <time>2022-01-19T13:47:53Z</time>
      </trkpt>
      <trkpt lat="44.88155" lon="5.52184">
        <ele>1891.1</ele>
        <time>2022-01-19T13:47:54Z</time>
      </trkpt>
      <trkpt lat="44.88155" lon="5.52184">
        <ele>1891.1</ele>
        <time>2022-01-19T13:47:55Z</time>
      </trkpt>
      <trkpt lat="44.88155" lon="5.52185">
        <ele>1891.1</ele>
        <time>2022-01-19T13:47:56Z</time>
      </trkpt>
      <trkpt lat="44.88154" lon="5.52185">
        <ele>1890.7</ele>
        <time>2022-01-19T13:47:57Z</time>
      </trkpt>
      <trkpt lat="44.88154" lon="5.52186">
        <ele>1890.7</ele>
        <time>2022-01-19T13:47:58Z</time>
      </trkpt>
      <trkpt lat="44.88154" lon="5.52186">
        <ele>1890.7</ele>
        <time>2022-01-19T13:47:59Z</time>
      </trkpt>
      <trkpt lat="44.88153" lon="5.52187">
        <ele>1890.7</ele>
        <time>2022-01-19T13:48:00Z</time>
      </trkpt>
      <trkpt lat="44.88153" lon="5.52187">
        <ele>1890.7</ele>
        <time>2022-01-19T13:48:01Z</time>
      </trkpt>
      <trkpt lat="44.88153" lon="5.52187">
        <ele>1890.7</ele>
        <time>2022-01-19T13:48:02Z</time>
      </trkpt>
      <trkpt lat="44.88153" lon="5.52187">
        <ele>1890.7</ele>
        <time>2022-01-19T13:48:03Z</time>
      </trkpt>
      <trkpt lat="44.88153" lon="5.52187">
        <ele>1890.7</ele>
        <time>2022-01-19T13:48:04Z</time>
      </trkpt>
      <trkpt lat="44.88153" lon="5.52187">
        <ele>1890.7</ele>
        <time>2022-01-19T13:48:05Z</time>
      </trkpt>
      <trkpt lat="44.88153" lon="5.52187">
        <ele>1890.7</ele>
        <time>2022-01-19T13:48:06Z</time>
      </trkpt>
      <trkpt lat="44.88153" lon="5.52187">
        <ele>1890.7</ele>
        <time>2022-01-19T13:48:07Z</time>
      </trkpt>
      <trkpt lat="44.88153" lon="5.52187">
        <ele>1890.7</ele>
        <time>2022-01-19T13:48:08Z</time>
      </trkpt>
      <trkpt lat="44.88153" lon="5.52187">
        <ele>1890.7</ele>
        <time>2022-01-19T13:48:09Z</time>
      </trkpt>
      <trkpt lat="44.8815" lon="5.52189">
        <ele>1891.4</ele>
        <time>2022-01-19T13:48:10Z</time>
      </trkpt>
      <trkpt lat="44.88148" lon="5.5219">
        <ele>1891.4</ele>
        <time>2022-01-19T13:48:11Z</time>
      </trkpt>
      <trkpt lat="44.88147" lon="5.5219">
        <ele>1891.1</ele>
        <time>2022-01-19T13:48:12Z</time>
      </trkpt>
      <trkpt lat="44.88147" lon="5.5219">
        <ele>1891.1</ele>
        <time>2022-01-19T13:48:13Z</time>
      </trkpt>
      <trkpt lat="44.88146" lon="5.5219">
        <ele>1891.1</ele>
        <time>2022-01-19T13:48:14Z</time>
      </trkpt>
      <trkpt lat="44.88146" lon="5.5219">
        <ele>1891.1</ele>
        <time>2022-01-19T13:48:15Z</time>
      </trkpt>
      <trkpt lat="44.88145" lon="5.5219">
        <ele>1891</ele>
        <time>2022-01-19T13:48:16Z</time>
      </trkpt>
      <trkpt lat="44.88144" lon="5.5219">
        <ele>1891</ele>
        <time>2022-01-19T13:48:17Z</time>
      </trkpt>
      <trkpt lat="44.88143" lon="5.5219">
        <ele>1891</ele>
        <time>2022-01-19T13:48:18Z</time>
      </trkpt>
      <trkpt lat="44.88143" lon="5.5219">
        <ele>1891</ele>
        <time>2022-01-19T13:48:19Z</time>
      </trkpt>
      <trkpt lat="44.88142" lon="5.5219">
        <ele>1890.9</ele>
        <time>2022-01-19T13:48:20Z</time>
      </trkpt>
      <trkpt lat="44.88141" lon="5.5219">
        <ele>1890.9</ele>
        <time>2022-01-19T13:48:21Z</time>
      </trkpt>
      <trkpt lat="44.88141" lon="5.52191">
        <ele>1890.9</ele>
        <time>2022-01-19T13:48:22Z</time>
      </trkpt>
      <trkpt lat="44.8814" lon="5.5219">
        <ele>1890.9</ele>
        <time>2022-01-19T13:48:23Z</time>
      </trkpt>
      <trkpt lat="44.8814" lon="5.52191">
        <ele>1890.9</ele>
        <time>2022-01-19T13:48:24Z</time>
      </trkpt>
      <trkpt lat="44.88139" lon="5.52191">
        <ele>1890.9</ele>
        <time>2022-01-19T13:48:25Z</time>
      </trkpt>
      <trkpt lat="44.88139" lon="5.52191">
        <ele>1890.9</ele>
        <time>2022-01-19T13:48:26Z</time>
      </trkpt>
      <trkpt lat="44.88138" lon="5.5219">
        <ele>1890.9</ele>
        <time>2022-01-19T13:48:27Z</time>
      </trkpt>
      <trkpt lat="44.88138" lon="5.5219">
        <ele>1890.9</ele>
        <time>2022-01-19T13:48:28Z</time>
      </trkpt>
      <trkpt lat="44.88137" lon="5.5219">
        <ele>1890.9</ele>
        <time>2022-01-19T13:48:29Z</time>
      </trkpt>
      <trkpt lat="44.88136" lon="5.5219">
        <ele>1890.9</ele>
        <time>2022-01-19T13:48:30Z</time>
      </trkpt>
      <trkpt lat="44.88135" lon="5.5219">
        <ele>1890.9</ele>
        <time>2022-01-19T13:48:31Z</time>
      </trkpt>
      <trkpt lat="44.88134" lon="5.52189">
        <ele>1890.9</ele>
        <time>2022-01-19T13:48:32Z</time>
      </trkpt>
      <trkpt lat="44.88134" lon="5.52189">
        <ele>1890.9</ele>
        <time>2022-01-19T13:48:33Z</time>
      </trkpt>
      <trkpt lat="44.88133" lon="5.52189">
        <ele>1890.9</ele>
        <time>2022-01-19T13:48:34Z</time>
      </trkpt>
      <trkpt lat="44.88133" lon="5.52189">
        <ele>1891.1</ele>
        <time>2022-01-19T13:48:35Z</time>
      </trkpt>
      <trkpt lat="44.88133" lon="5.52189">
        <ele>1891.1</ele>
        <time>2022-01-19T13:48:36Z</time>
      </trkpt>
      <trkpt lat="44.88133" lon="5.52189">
        <ele>1891.1</ele>
        <time>2022-01-19T13:48:37Z</time>
      </trkpt>
      <trkpt lat="44.88133" lon="5.52189">
        <ele>1891.1</ele>
        <time>2022-01-19T13:48:38Z</time>
      </trkpt>
      <trkpt lat="44.88133" lon="5.52189">
        <ele>1891.1</ele>
        <time>2022-01-19T13:48:39Z</time>
      </trkpt>
      <trkpt lat="44.88133" lon="5.52189">
        <ele>1891.1</ele>
        <time>2022-01-19T13:48:40Z</time>
      </trkpt>
      <trkpt lat="44.88133" lon="5.52189">
        <ele>1891.1</ele>
        <time>2022-01-19T13:48:41Z</time>
      </trkpt>
      <trkpt lat="44.88133" lon="5.52189">
        <ele>1891.1</ele>
        <time>2022-01-19T13:48:42Z</time>
      </trkpt>
      <trkpt lat="44.88133" lon="5.52189">
        <ele>1891.1</ele>
        <time>2022-01-19T13:48:43Z</time>
      </trkpt>
      <trkpt lat="44.88133" lon="5.52189">
        <ele>1891.1</ele>
        <time>2022-01-19T13:48:44Z</time>
      </trkpt>
      <trkpt lat="44.88133" lon="5.52189">
        <ele>1891.1</ele>
        <time>2022-01-19T13:48:45Z</time>
      </trkpt>
      <trkpt lat="44.88133" lon="5.52189">
        <ele>1891.1</ele>
        <time>2022-01-19T13:48:46Z</time>
      </trkpt>
      <trkpt lat="44.88133" lon="5.52189">
        <ele>1891.1</ele>
        <time>2022-01-19T13:48:47Z</time>
      </trkpt>
      <trkpt lat="44.88133" lon="5.52189">
        <ele>1891.1</ele>
        <time>2022-01-19T13:48:48Z</time>
      </trkpt>
      <trkpt lat="44.88133" lon="5.52189">
        <ele>1891.1</ele>
        <time>2022-01-19T13:48:49Z</time>
      </trkpt>
      <trkpt lat="44.88133" lon="5.52189">
        <ele>1891.1</ele>
        <time>2022-01-19T13:48:50Z</time>
      </trkpt>
      <trkpt lat="44.88133" lon="5.52189">
        <ele>1891.1</ele>
        <time>2022-01-19T13:48:51Z</time>
      </trkpt>
      <trkpt lat="44.88133" lon="5.52189">
        <ele>1891.1</ele>
        <time>2022-01-19T13:48:52Z</time>
      </trkpt>
      <trkpt lat="44.88133" lon="5.52189">
        <ele>1891.1</ele>
        <time>2022-01-19T13:48:53Z</time>
      </trkpt>
      <trkpt lat="44.88133" lon="5.52189">
        <ele>1891.1</ele>
        <time>2022-01-19T13:48:54Z</time>
      </trkpt>
      <trkpt lat="44.88133" lon="5.52189">
        <ele>1891.1</ele>
        <time>2022-01-19T13:48:55Z</time>
      </trkpt>
      <trkpt lat="44.88133" lon="5.52189">
        <ele>1891.1</ele>
        <time>2022-01-19T13:48:56Z</time>
      </trkpt>
      <trkpt lat="44.88132" lon="5.52189">
        <ele>1891.1</ele>
        <time>2022-01-19T13:48:57Z</time>
      </trkpt>
      <trkpt lat="44.88132" lon="5.52189">
        <ele>1891.1</ele>
        <time>2022-01-19T13:48:58Z</time>
      </trkpt>
      <trkpt lat="44.88133" lon="5.5219">
        <ele>1890.9</ele>
        <time>2022-01-19T13:48:59Z</time>
      </trkpt>
      <trkpt lat="44.88134" lon="5.5219">
        <ele>1890.9</ele>
        <time>2022-01-19T13:49:00Z</time>
      </trkpt>
      <trkpt lat="44.88134" lon="5.5219">
        <ele>1890.9</ele>
        <time>2022-01-19T13:49:01Z</time>
      </trkpt>
      <trkpt lat="44.88134" lon="5.52191">
        <ele>1890.9</ele>
        <time>2022-01-19T13:49:02Z</time>
      </trkpt>
      <trkpt lat="44.88134" lon="5.52192">
        <ele>1891.8</ele>
        <time>2022-01-19T13:49:03Z</time>
      </trkpt>
      <trkpt lat="44.88134" lon="5.52193">
        <ele>1891.8</ele>
        <time>2022-01-19T13:49:04Z</time>
      </trkpt>
      <trkpt lat="44.88135" lon="5.52193">
        <ele>1891.8</ele>
        <time>2022-01-19T13:49:05Z</time>
      </trkpt>
      <trkpt lat="44.88135" lon="5.52194">
        <ele>1891.8</ele>
        <time>2022-01-19T13:49:06Z</time>
      </trkpt>
      <trkpt lat="44.88136" lon="5.52195">
        <ele>1891.8</ele>
        <time>2022-01-19T13:49:07Z</time>
      </trkpt>
      <trkpt lat="44.88136" lon="5.52195">
        <ele>1891.7</ele>
        <time>2022-01-19T13:49:08Z</time>
      </trkpt>
      <trkpt lat="44.88137" lon="5.52196">
        <ele>1891.7</ele>
        <time>2022-01-19T13:49:09Z</time>
      </trkpt>
      <trkpt lat="44.88137" lon="5.52196">
        <ele>1892.5</ele>
        <time>2022-01-19T13:49:10Z</time>
      </trkpt>
      <trkpt lat="44.88137" lon="5.52197">
        <ele>1892.5</ele>
        <time>2022-01-19T13:49:11Z</time>
      </trkpt>
      <trkpt lat="44.88137" lon="5.52198">
        <ele>1892.5</ele>
        <time>2022-01-19T13:49:12Z</time>
      </trkpt>
      <trkpt lat="44.88138" lon="5.52199">
        <ele>1892.5</ele>
        <time>2022-01-19T13:49:13Z</time>
      </trkpt>
      <trkpt lat="44.88138" lon="5.52199">
        <ele>1892.5</ele>
        <time>2022-01-19T13:49:14Z</time>
      </trkpt>
      <trkpt lat="44.88139" lon="5.522">
        <ele>1892.5</ele>
        <time>2022-01-19T13:49:15Z</time>
      </trkpt>
      <trkpt lat="44.88139" lon="5.522">
        <ele>1892.6</ele>
        <time>2022-01-19T13:49:16Z</time>
      </trkpt>
      <trkpt lat="44.88139" lon="5.52201">
        <ele>1893.3</ele>
        <time>2022-01-19T13:49:17Z</time>
      </trkpt>
      <trkpt lat="44.88139" lon="5.52201">
        <ele>1893.3</ele>
        <time>2022-01-19T13:49:18Z</time>
      </trkpt>
      <trkpt lat="44.88139" lon="5.52201">
        <ele>1893.3</ele>
        <time>2022-01-19T13:49:19Z</time>
      </trkpt>
      <trkpt lat="44.8814" lon="5.52201">
        <ele>1893.3</ele>
        <time>2022-01-19T13:49:20Z</time>
      </trkpt>
      <trkpt lat="44.8814" lon="5.52202">
        <ele>1893.3</ele>
        <time>2022-01-19T13:49:21Z</time>
      </trkpt>
      <trkpt lat="44.8814" lon="5.52202">
        <ele>1893.3</ele>
        <time>2022-01-19T13:49:22Z</time>
      </trkpt>
      <trkpt lat="44.8814" lon="5.52202">
        <ele>1893.3</ele>
        <time>2022-01-19T13:49:23Z</time>
      </trkpt>
      <trkpt lat="44.8814" lon="5.52202">
        <ele>1893.3</ele>
        <time>2022-01-19T13:49:24Z</time>
      </trkpt>
      <trkpt lat="44.8814" lon="5.52202">
        <ele>1893.3</ele>
        <time>2022-01-19T13:49:25Z</time>
      </trkpt>
      <trkpt lat="44.8814" lon="5.52202">
        <ele>1893.3</ele>
        <time>2022-01-19T13:49:26Z</time>
      </trkpt>
      <trkpt lat="44.8814" lon="5.52202">
        <ele>1893.4</ele>
        <time>2022-01-19T13:49:27Z</time>
      </trkpt>
      <trkpt lat="44.8814" lon="5.52202">
        <ele>1893.6</ele>
        <time>2022-01-19T13:49:28Z</time>
      </trkpt>
      <trkpt lat="44.8814" lon="5.52202">
        <ele>1893.7</ele>
        <time>2022-01-19T13:49:29Z</time>
      </trkpt>
      <trkpt lat="44.8814" lon="5.52202">
        <ele>1893.8</ele>
        <time>2022-01-19T13:49:30Z</time>
      </trkpt>
      <trkpt lat="44.8814" lon="5.52202">
        <ele>1893.9</ele>
        <time>2022-01-19T13:49:31Z</time>
      </trkpt>
      <trkpt lat="44.8814" lon="5.52202">
        <ele>1894.1</ele>
        <time>2022-01-19T13:49:32Z</time>
      </trkpt>
      <trkpt lat="44.8814" lon="5.52202">
        <ele>1894.2</ele>
        <time>2022-01-19T13:49:33Z</time>
      </trkpt>
      <trkpt lat="44.8814" lon="5.52202">
        <ele>1894.3</ele>
        <time>2022-01-19T13:49:34Z</time>
      </trkpt>
      <trkpt lat="44.8814" lon="5.52202">
        <ele>1894.4</ele>
        <time>2022-01-19T13:49:35Z</time>
      </trkpt>
      <trkpt lat="44.88137" lon="5.52203">
        <ele>1894.6</ele>
        <time>2022-01-19T13:49:36Z</time>
      </trkpt>
      <trkpt lat="44.88136" lon="5.52203">
        <ele>1894.7</ele>
        <time>2022-01-19T13:49:37Z</time>
      </trkpt>
      <trkpt lat="44.88136" lon="5.52203">
        <ele>1894.8</ele>
        <time>2022-01-19T13:49:38Z</time>
      </trkpt>
      <trkpt lat="44.88135" lon="5.52203">
        <ele>1895</ele>
        <time>2022-01-19T13:49:39Z</time>
      </trkpt>
      <trkpt lat="44.88134" lon="5.52203">
        <ele>1895.2</ele>
        <time>2022-01-19T13:49:40Z</time>
      </trkpt>
      <trkpt lat="44.88134" lon="5.52203">
        <ele>1895.3</ele>
        <time>2022-01-19T13:49:41Z</time>
      </trkpt>
      <trkpt lat="44.88134" lon="5.52203">
        <ele>1895.4</ele>
        <time>2022-01-19T13:49:42Z</time>
      </trkpt>
      <trkpt lat="44.88134" lon="5.52203">
        <ele>1895.5</ele>
        <time>2022-01-19T13:49:43Z</time>
      </trkpt>
      <trkpt lat="44.88134" lon="5.52203">
        <ele>1895.7</ele>
        <time>2022-01-19T13:49:44Z</time>
      </trkpt>
      <trkpt lat="44.88134" lon="5.52203">
        <ele>1895.8</ele>
        <time>2022-01-19T13:49:45Z</time>
      </trkpt>
      <trkpt lat="44.88134" lon="5.52203">
        <ele>1895.9</ele>
        <time>2022-01-19T13:49:46Z</time>
      </trkpt>
      <trkpt lat="44.88134" lon="5.52203">
        <ele>1896</ele>
        <time>2022-01-19T13:49:47Z</time>
      </trkpt>
      <trkpt lat="44.8813" lon="5.52204">
        <ele>1896.3</ele>
        <time>2022-01-19T13:49:48Z</time>
      </trkpt>
      <trkpt lat="44.88129" lon="5.52204">
        <ele>1896.6</ele>
        <time>2022-01-19T13:49:49Z</time>
      </trkpt>
      <trkpt lat="44.88129" lon="5.52204">
        <ele>1896.7</ele>
        <time>2022-01-19T13:49:50Z</time>
      </trkpt>
      <trkpt lat="44.88128" lon="5.52205">
        <ele>1896.9</ele>
        <time>2022-01-19T13:49:51Z</time>
      </trkpt>
      <trkpt lat="44.88127" lon="5.52205">
        <ele>1897.8</ele>
        <time>2022-01-19T13:49:52Z</time>
      </trkpt>
      <trkpt lat="44.88127" lon="5.52206">
        <ele>1897.9</ele>
        <time>2022-01-19T13:49:53Z</time>
      </trkpt>
      <trkpt lat="44.88126" lon="5.52206">
        <ele>1898.4</ele>
        <time>2022-01-19T13:49:54Z</time>
      </trkpt>
      <trkpt lat="44.88125" lon="5.52206">
        <ele>1898.5</ele>
        <time>2022-01-19T13:49:55Z</time>
      </trkpt>
      <trkpt lat="44.88125" lon="5.52207">
        <ele>1898.6</ele>
        <time>2022-01-19T13:49:56Z</time>
      </trkpt>
      <trkpt lat="44.88124" lon="5.52207">
        <ele>1898.7</ele>
        <time>2022-01-19T13:49:57Z</time>
      </trkpt>
      <trkpt lat="44.88123" lon="5.52207">
        <ele>1899.3</ele>
        <time>2022-01-19T13:49:58Z</time>
      </trkpt>
      <trkpt lat="44.88123" lon="5.52207">
        <ele>1899.5</ele>
        <time>2022-01-19T13:49:59Z</time>
      </trkpt>
      <trkpt lat="44.88122" lon="5.52208">
        <ele>1899.6</ele>
        <time>2022-01-19T13:50:00Z</time>
      </trkpt>
      <trkpt lat="44.88122" lon="5.52208">
        <ele>1899.7</ele>
        <time>2022-01-19T13:50:01Z</time>
      </trkpt>
      <trkpt lat="44.88121" lon="5.52208">
        <ele>1899.8</ele>
        <time>2022-01-19T13:50:02Z</time>
      </trkpt>
      <trkpt lat="44.8812" lon="5.52208">
        <ele>1900.5</ele>
        <time>2022-01-19T13:50:03Z</time>
      </trkpt>
      <trkpt lat="44.88119" lon="5.52208">
        <ele>1900.6</ele>
        <time>2022-01-19T13:50:04Z</time>
      </trkpt>
      <trkpt lat="44.88118" lon="5.52208">
        <ele>1900.8</ele>
        <time>2022-01-19T13:50:05Z</time>
      </trkpt>
      <trkpt lat="44.88118" lon="5.52208">
        <ele>1900.9</ele>
        <time>2022-01-19T13:50:06Z</time>
      </trkpt>
      <trkpt lat="44.88117" lon="5.52208">
        <ele>1901.7</ele>
        <time>2022-01-19T13:50:07Z</time>
      </trkpt>
      <trkpt lat="44.88117" lon="5.52208">
        <ele>1901.8</ele>
        <time>2022-01-19T13:50:08Z</time>
      </trkpt>
      <trkpt lat="44.88116" lon="5.52207">
        <ele>1902</ele>
        <time>2022-01-19T13:50:09Z</time>
      </trkpt>
      <trkpt lat="44.88115" lon="5.52208">
        <ele>1902.1</ele>
        <time>2022-01-19T13:50:10Z</time>
      </trkpt>
      <trkpt lat="44.88115" lon="5.52208">
        <ele>1902.2</ele>
        <time>2022-01-19T13:50:11Z</time>
      </trkpt>
      <trkpt lat="44.88115" lon="5.52208">
        <ele>1902.3</ele>
        <time>2022-01-19T13:50:12Z</time>
      </trkpt>
      <trkpt lat="44.88115" lon="5.52208">
        <ele>1902.5</ele>
        <time>2022-01-19T13:50:13Z</time>
      </trkpt>
      <trkpt lat="44.88115" lon="5.52208">
        <ele>1902.6</ele>
        <time>2022-01-19T13:50:14Z</time>
      </trkpt>
      <trkpt lat="44.88115" lon="5.52208">
        <ele>1902.7</ele>
        <time>2022-01-19T13:50:15Z</time>
      </trkpt>
      <trkpt lat="44.88115" lon="5.52208">
        <ele>1902.9</ele>
        <time>2022-01-19T13:50:16Z</time>
      </trkpt>
      <trkpt lat="44.88115" lon="5.52208">
        <ele>1903</ele>
        <time>2022-01-19T13:50:17Z</time>
      </trkpt>
      <trkpt lat="44.88115" lon="5.52208">
        <ele>1903.1</ele>
        <time>2022-01-19T13:50:18Z</time>
      </trkpt>
      <trkpt lat="44.88115" lon="5.52208">
        <ele>1903.2</ele>
        <time>2022-01-19T13:50:19Z</time>
      </trkpt>
      <trkpt lat="44.88115" lon="5.52208">
        <ele>1903.4</ele>
        <time>2022-01-19T13:50:20Z</time>
      </trkpt>
      <trkpt lat="44.88116" lon="5.5221">
        <ele>1904.2</ele>
        <time>2022-01-19T13:50:21Z</time>
      </trkpt>
      <trkpt lat="44.88117" lon="5.52211">
        <ele>1904.4</ele>
        <time>2022-01-19T13:50:22Z</time>
      </trkpt>
      <trkpt lat="44.88117" lon="5.52212">
        <ele>1904.5</ele>
        <time>2022-01-19T13:50:23Z</time>
      </trkpt>
      <trkpt lat="44.88118" lon="5.52212">
        <ele>1904</ele>
        <time>2022-01-19T13:50:24Z</time>
      </trkpt>
      <trkpt lat="44.88118" lon="5.52213">
        <ele>1904.1</ele>
        <time>2022-01-19T13:50:25Z</time>
      </trkpt>
      <trkpt lat="44.88119" lon="5.52213">
        <ele>1904.2</ele>
        <time>2022-01-19T13:50:26Z</time>
      </trkpt>
      <trkpt lat="44.88119" lon="5.52213">
        <ele>1905</ele>
        <time>2022-01-19T13:50:27Z</time>
      </trkpt>
      <trkpt lat="44.8812" lon="5.52214">
        <ele>1905.2</ele>
        <time>2022-01-19T13:50:28Z</time>
      </trkpt>
      <trkpt lat="44.88121" lon="5.52214">
        <ele>1904.7</ele>
        <time>2022-01-19T13:50:29Z</time>
      </trkpt>
      <trkpt lat="44.88121" lon="5.52215">
        <ele>1904.8</ele>
        <time>2022-01-19T13:50:30Z</time>
      </trkpt>
      <trkpt lat="44.88122" lon="5.52215">
        <ele>1905</ele>
        <time>2022-01-19T13:50:31Z</time>
      </trkpt>
      <trkpt lat="44.88122" lon="5.52216">
        <ele>1905.1</ele>
        <time>2022-01-19T13:50:32Z</time>
      </trkpt>
      <trkpt lat="44.88123" lon="5.52216">
        <ele>1905.2</ele>
        <time>2022-01-19T13:50:33Z</time>
      </trkpt>
      <trkpt lat="44.88123" lon="5.52217">
        <ele>1905.3</ele>
        <time>2022-01-19T13:50:34Z</time>
      </trkpt>
      <trkpt lat="44.88123" lon="5.52217">
        <ele>1905.5</ele>
        <time>2022-01-19T13:50:35Z</time>
      </trkpt>
      <trkpt lat="44.88123" lon="5.52218">
        <ele>1906.3</ele>
        <time>2022-01-19T13:50:36Z</time>
      </trkpt>
      <trkpt lat="44.88124" lon="5.52218">
        <ele>1905.9</ele>
        <time>2022-01-19T13:50:37Z</time>
      </trkpt>
      <trkpt lat="44.88124" lon="5.52219">
        <ele>1906</ele>
        <time>2022-01-19T13:50:38Z</time>
      </trkpt>
      <trkpt lat="44.88124" lon="5.52219">
        <ele>1906.2</ele>
        <time>2022-01-19T13:50:39Z</time>
      </trkpt>
      <trkpt lat="44.88124" lon="5.5222">
        <ele>1906.3</ele>
        <time>2022-01-19T13:50:40Z</time>
      </trkpt>
      <trkpt lat="44.88125" lon="5.52221">
        <ele>1906.4</ele>
        <time>2022-01-19T13:50:41Z</time>
      </trkpt>
      <trkpt lat="44.88125" lon="5.52221">
        <ele>1906.6</ele>
        <time>2022-01-19T13:50:42Z</time>
      </trkpt>
      <trkpt lat="44.88125" lon="5.52222">
        <ele>1906.7</ele>
        <time>2022-01-19T13:50:43Z</time>
      </trkpt>
      <trkpt lat="44.88126" lon="5.52222">
        <ele>1907.4</ele>
        <time>2022-01-19T13:50:44Z</time>
      </trkpt>
      <trkpt lat="44.88126" lon="5.52223">
        <ele>1907.6</ele>
        <time>2022-01-19T13:50:45Z</time>
      </trkpt>
      <trkpt lat="44.88126" lon="5.52223">
        <ele>1907.7</ele>
        <time>2022-01-19T13:50:46Z</time>
      </trkpt>
      <trkpt lat="44.88127" lon="5.52224">
        <ele>1907.4</ele>
        <time>2022-01-19T13:50:47Z</time>
      </trkpt>
      <trkpt lat="44.88127" lon="5.52224">
        <ele>1907.5</ele>
        <time>2022-01-19T13:50:48Z</time>
      </trkpt>
      <trkpt lat="44.88128" lon="5.52224">
        <ele>1907.6</ele>
        <time>2022-01-19T13:50:49Z</time>
      </trkpt>
      <trkpt lat="44.88128" lon="5.52225">
        <ele>1907.8</ele>
        <time>2022-01-19T13:50:50Z</time>
      </trkpt>
      <trkpt lat="44.88129" lon="5.52226">
        <ele>1907.9</ele>
        <time>2022-01-19T13:50:51Z</time>
      </trkpt>
      <trkpt lat="44.88129" lon="5.52226">
        <ele>1908.6</ele>
        <time>2022-01-19T13:50:52Z</time>
      </trkpt>
      <trkpt lat="44.88129" lon="5.52227">
        <ele>1908.7</ele>
        <time>2022-01-19T13:50:53Z</time>
      </trkpt>
      <trkpt lat="44.8813" lon="5.52227">
        <ele>1908.5</ele>
        <time>2022-01-19T13:50:54Z</time>
      </trkpt>
      <trkpt lat="44.88131" lon="5.52228">
        <ele>1908.6</ele>
        <time>2022-01-19T13:50:55Z</time>
      </trkpt>
      <trkpt lat="44.88131" lon="5.52228">
        <ele>1908.7</ele>
        <time>2022-01-19T13:50:56Z</time>
      </trkpt>
      <trkpt lat="44.88131" lon="5.52229">
        <ele>1908.9</ele>
        <time>2022-01-19T13:50:57Z</time>
      </trkpt>
      <trkpt lat="44.88132" lon="5.52229">
        <ele>1909</ele>
        <time>2022-01-19T13:50:58Z</time>
      </trkpt>
      <trkpt lat="44.88132" lon="5.5223">
        <ele>1909.1</ele>
        <time>2022-01-19T13:50:59Z</time>
      </trkpt>
      <trkpt lat="44.88133" lon="5.5223">
        <ele>1909.2</ele>
        <time>2022-01-19T13:51:00Z</time>
      </trkpt>
      <trkpt lat="44.88133" lon="5.52231">
        <ele>1909.6</ele>
        <time>2022-01-19T13:51:01Z</time>
      </trkpt>
      <trkpt lat="44.88133" lon="5.52231">
        <ele>1909.7</ele>
        <time>2022-01-19T13:51:02Z</time>
      </trkpt>
      <trkpt lat="44.88134" lon="5.52232">
        <ele>1909.8</ele>
        <time>2022-01-19T13:51:03Z</time>
      </trkpt>
      <trkpt lat="44.88134" lon="5.52232">
        <ele>1909.9</ele>
        <time>2022-01-19T13:51:04Z</time>
      </trkpt>
      <trkpt lat="44.88134" lon="5.52231">
        <ele>1910.1</ele>
        <time>2022-01-19T13:51:05Z</time>
      </trkpt>
      <trkpt lat="44.88135" lon="5.52231">
        <ele>1910.2</ele>
        <time>2022-01-19T13:51:06Z</time>
      </trkpt>
      <trkpt lat="44.88135" lon="5.52231">
        <ele>1910.2</ele>
        <time>2022-01-19T13:51:07Z</time>
      </trkpt>
      <trkpt lat="44.88135" lon="5.52231">
        <ele>1910.2</ele>
        <time>2022-01-19T13:51:08Z</time>
      </trkpt>
      <trkpt lat="44.88135" lon="5.52231">
        <ele>1910.2</ele>
        <time>2022-01-19T13:51:09Z</time>
      </trkpt>
      <trkpt lat="44.88135" lon="5.52231">
        <ele>1910.2</ele>
        <time>2022-01-19T13:51:10Z</time>
      </trkpt>
      <trkpt lat="44.88135" lon="5.52231">
        <ele>1910.2</ele>
        <time>2022-01-19T13:51:11Z</time>
      </trkpt>
      <trkpt lat="44.88135" lon="5.52231">
        <ele>1910.2</ele>
        <time>2022-01-19T13:51:12Z</time>
      </trkpt>
      <trkpt lat="44.88135" lon="5.52231">
        <ele>1910.2</ele>
        <time>2022-01-19T13:51:13Z</time>
      </trkpt>
      <trkpt lat="44.88135" lon="5.52231">
        <ele>1910.2</ele>
        <time>2022-01-19T13:51:14Z</time>
      </trkpt>
      <trkpt lat="44.88135" lon="5.52231">
        <ele>1910.2</ele>
        <time>2022-01-19T13:51:15Z</time>
      </trkpt>
      <trkpt lat="44.88135" lon="5.52231">
        <ele>1910.2</ele>
        <time>2022-01-19T13:51:16Z</time>
      </trkpt>
      <trkpt lat="44.88132" lon="5.52233">
        <ele>1910.5</ele>
        <time>2022-01-19T13:51:17Z</time>
      </trkpt>
      <trkpt lat="44.88132" lon="5.52233">
        <ele>1910.5</ele>
        <time>2022-01-19T13:51:18Z</time>
      </trkpt>
      <trkpt lat="44.88131" lon="5.52234">
        <ele>1910.5</ele>
        <time>2022-01-19T13:51:19Z</time>
      </trkpt>
      <trkpt lat="44.88131" lon="5.52234">
        <ele>1910.5</ele>
        <time>2022-01-19T13:51:20Z</time>
      </trkpt>
      <trkpt lat="44.8813" lon="5.52235">
        <ele>1910.9</ele>
        <time>2022-01-19T13:51:21Z</time>
      </trkpt>
      <trkpt lat="44.8813" lon="5.52236">
        <ele>1910.9</ele>
        <time>2022-01-19T13:51:22Z</time>
      </trkpt>
      <trkpt lat="44.8813" lon="5.52236">
        <ele>1910.9</ele>
        <time>2022-01-19T13:51:23Z</time>
      </trkpt>
      <trkpt lat="44.8813" lon="5.52236">
        <ele>1911.2</ele>
        <time>2022-01-19T13:51:24Z</time>
      </trkpt>
      <trkpt lat="44.88129" lon="5.52236">
        <ele>1911.2</ele>
        <time>2022-01-19T13:51:25Z</time>
      </trkpt>
      <trkpt lat="44.88129" lon="5.52236">
        <ele>1911.2</ele>
        <time>2022-01-19T13:51:26Z</time>
      </trkpt>
      <trkpt lat="44.88128" lon="5.52237">
        <ele>1911.2</ele>
        <time>2022-01-19T13:51:27Z</time>
      </trkpt>
      <trkpt lat="44.88128" lon="5.52237">
        <ele>1911.2</ele>
        <time>2022-01-19T13:51:28Z</time>
      </trkpt>
      <trkpt lat="44.88127" lon="5.52237">
        <ele>1911.2</ele>
        <time>2022-01-19T13:51:29Z</time>
      </trkpt>
      <trkpt lat="44.88127" lon="5.52238">
        <ele>1911.2</ele>
        <time>2022-01-19T13:51:30Z</time>
      </trkpt>
      <trkpt lat="44.88127" lon="5.52238">
        <ele>1911.2</ele>
        <time>2022-01-19T13:51:31Z</time>
      </trkpt>
      <trkpt lat="44.88126" lon="5.52239">
        <ele>1911.7</ele>
        <time>2022-01-19T13:51:32Z</time>
      </trkpt>
      <trkpt lat="44.88126" lon="5.52239">
        <ele>1911.7</ele>
        <time>2022-01-19T13:51:33Z</time>
      </trkpt>
      <trkpt lat="44.88126" lon="5.52239">
        <ele>1912.1</ele>
        <time>2022-01-19T13:51:34Z</time>
      </trkpt>
      <trkpt lat="44.88125" lon="5.5224">
        <ele>1912.1</ele>
        <time>2022-01-19T13:51:35Z</time>
      </trkpt>
      <trkpt lat="44.88125" lon="5.5224">
        <ele>1912.1</ele>
        <time>2022-01-19T13:51:36Z</time>
      </trkpt>
      <trkpt lat="44.88125" lon="5.52241">
        <ele>1912.1</ele>
        <time>2022-01-19T13:51:37Z</time>
      </trkpt>
      <trkpt lat="44.88124" lon="5.52241">
        <ele>1912.1</ele>
        <time>2022-01-19T13:51:38Z</time>
      </trkpt>
      <trkpt lat="44.88124" lon="5.52242">
        <ele>1912.1</ele>
        <time>2022-01-19T13:51:39Z</time>
      </trkpt>
      <trkpt lat="44.88124" lon="5.52242">
        <ele>1912.1</ele>
        <time>2022-01-19T13:51:40Z</time>
      </trkpt>
      <trkpt lat="44.88124" lon="5.52242">
        <ele>1912.1</ele>
        <time>2022-01-19T13:51:41Z</time>
      </trkpt>
      <trkpt lat="44.88124" lon="5.52243">
        <ele>1912.1</ele>
        <time>2022-01-19T13:51:42Z</time>
      </trkpt>
      <trkpt lat="44.88124" lon="5.52243">
        <ele>1912.1</ele>
        <time>2022-01-19T13:51:43Z</time>
      </trkpt>
      <trkpt lat="44.88125" lon="5.52244">
        <ele>1912.4</ele>
        <time>2022-01-19T13:51:44Z</time>
      </trkpt>
      <trkpt lat="44.88125" lon="5.52244">
        <ele>1912.4</ele>
        <time>2022-01-19T13:51:45Z</time>
      </trkpt>
      <trkpt lat="44.88125" lon="5.52245">
        <ele>1912.4</ele>
        <time>2022-01-19T13:51:46Z</time>
      </trkpt>
      <trkpt lat="44.88125" lon="5.52246">
        <ele>1912.4</ele>
        <time>2022-01-19T13:51:47Z</time>
      </trkpt>
      <trkpt lat="44.88126" lon="5.52246">
        <ele>1912.4</ele>
        <time>2022-01-19T13:51:48Z</time>
      </trkpt>
      <trkpt lat="44.88126" lon="5.52247">
        <ele>1912.4</ele>
        <time>2022-01-19T13:51:49Z</time>
      </trkpt>
      <trkpt lat="44.88126" lon="5.52248">
        <ele>1912.7</ele>
        <time>2022-01-19T13:51:50Z</time>
      </trkpt>
      <trkpt lat="44.88126" lon="5.52249">
        <ele>1912.7</ele>
        <time>2022-01-19T13:51:51Z</time>
      </trkpt>
      <trkpt lat="44.88126" lon="5.5225">
        <ele>1912.7</ele>
        <time>2022-01-19T13:51:52Z</time>
      </trkpt>
      <trkpt lat="44.88126" lon="5.5225">
        <ele>1912.7</ele>
        <time>2022-01-19T13:51:53Z</time>
      </trkpt>
      <trkpt lat="44.88127" lon="5.52251">
        <ele>1912.2</ele>
        <time>2022-01-19T13:51:54Z</time>
      </trkpt>
      <trkpt lat="44.88127" lon="5.52252">
        <ele>1912.2</ele>
        <time>2022-01-19T13:51:55Z</time>
      </trkpt>
      <trkpt lat="44.88127" lon="5.52252">
        <ele>1912.4</ele>
        <time>2022-01-19T13:51:56Z</time>
      </trkpt>
      <trkpt lat="44.88128" lon="5.52253">
        <ele>1912.4</ele>
        <time>2022-01-19T13:51:57Z</time>
      </trkpt>
      <trkpt lat="44.88128" lon="5.52254">
        <ele>1912.4</ele>
        <time>2022-01-19T13:51:58Z</time>
      </trkpt>
      <trkpt lat="44.88128" lon="5.52255">
        <ele>1912.4</ele>
        <time>2022-01-19T13:51:59Z</time>
      </trkpt>
      <trkpt lat="44.88128" lon="5.52255">
        <ele>1912.4</ele>
        <time>2022-01-19T13:52:00Z</time>
      </trkpt>
      <trkpt lat="44.88129" lon="5.52256">
        <ele>1912.4</ele>
        <time>2022-01-19T13:52:01Z</time>
      </trkpt>
      <trkpt lat="44.88129" lon="5.52256">
        <ele>1912.6</ele>
        <time>2022-01-19T13:52:02Z</time>
      </trkpt>
      <trkpt lat="44.8813" lon="5.52257">
        <ele>1912.1</ele>
        <time>2022-01-19T13:52:03Z</time>
      </trkpt>
      <trkpt lat="44.88131" lon="5.52258">
        <ele>1912.1</ele>
        <time>2022-01-19T13:52:04Z</time>
      </trkpt>
      <trkpt lat="44.88131" lon="5.52259">
        <ele>1912.1</ele>
        <time>2022-01-19T13:52:05Z</time>
      </trkpt>
      <trkpt lat="44.88131" lon="5.5226">
        <ele>1912.1</ele>
        <time>2022-01-19T13:52:06Z</time>
      </trkpt>
      <trkpt lat="44.88131" lon="5.5226">
        <ele>1912.1</ele>
        <time>2022-01-19T13:52:07Z</time>
      </trkpt>
      <trkpt lat="44.88131" lon="5.52261">
        <ele>1912.2</ele>
        <time>2022-01-19T13:52:08Z</time>
      </trkpt>
      <trkpt lat="44.88131" lon="5.52261">
        <ele>1912.2</ele>
        <time>2022-01-19T13:52:09Z</time>
      </trkpt>
      <trkpt lat="44.88131" lon="5.52261">
        <ele>1912.2</ele>
        <time>2022-01-19T13:52:10Z</time>
      </trkpt>
      <trkpt lat="44.88131" lon="5.52261">
        <ele>1912.2</ele>
        <time>2022-01-19T13:52:11Z</time>
      </trkpt>
      <trkpt lat="44.88131" lon="5.52261">
        <ele>1912.2</ele>
        <time>2022-01-19T13:52:12Z</time>
      </trkpt>
      <trkpt lat="44.88131" lon="5.52261">
        <ele>1912.2</ele>
        <time>2022-01-19T13:52:13Z</time>
      </trkpt>
      <trkpt lat="44.88131" lon="5.52261">
        <ele>1912.2</ele>
        <time>2022-01-19T13:52:14Z</time>
      </trkpt>
      <trkpt lat="44.88131" lon="5.52261">
        <ele>1912.2</ele>
        <time>2022-01-19T13:52:15Z</time>
      </trkpt>
      <trkpt lat="44.88131" lon="5.52261">
        <ele>1912.2</ele>
        <time>2022-01-19T13:52:16Z</time>
      </trkpt>
      <trkpt lat="44.88131" lon="5.52261">
        <ele>1912.2</ele>
        <time>2022-01-19T13:52:17Z</time>
      </trkpt>
      <trkpt lat="44.88131" lon="5.52261">
        <ele>1912.2</ele>
        <time>2022-01-19T13:52:18Z</time>
      </trkpt>
      <trkpt lat="44.88131" lon="5.52261">
        <ele>1912.2</ele>
        <time>2022-01-19T13:52:19Z</time>
      </trkpt>
      <trkpt lat="44.88131" lon="5.52261">
        <ele>1912.2</ele>
        <time>2022-01-19T13:52:20Z</time>
      </trkpt>
      <trkpt lat="44.88131" lon="5.52261">
        <ele>1912.2</ele>
        <time>2022-01-19T13:52:21Z</time>
      </trkpt>
      <trkpt lat="44.88131" lon="5.52261">
        <ele>1912.2</ele>
        <time>2022-01-19T13:52:22Z</time>
      </trkpt>
      <trkpt lat="44.88131" lon="5.52261">
        <ele>1912.2</ele>
        <time>2022-01-19T13:52:23Z</time>
      </trkpt>
      <trkpt lat="44.88131" lon="5.52261">
        <ele>1912.2</ele>
        <time>2022-01-19T13:52:24Z</time>
      </trkpt>
      <trkpt lat="44.88131" lon="5.52261">
        <ele>1912.2</ele>
        <time>2022-01-19T13:52:25Z</time>
      </trkpt>
      <trkpt lat="44.88131" lon="5.52261">
        <ele>1912.2</ele>
        <time>2022-01-19T13:52:26Z</time>
      </trkpt>
      <trkpt lat="44.88131" lon="5.52261">
        <ele>1912.2</ele>
        <time>2022-01-19T13:52:27Z</time>
      </trkpt>
      <trkpt lat="44.88131" lon="5.52261">
        <ele>1912.2</ele>
        <time>2022-01-19T13:52:28Z</time>
      </trkpt>
      <trkpt lat="44.88131" lon="5.52261">
        <ele>1912.2</ele>
        <time>2022-01-19T13:52:29Z</time>
      </trkpt>
      <trkpt lat="44.88131" lon="5.52261">
        <ele>1912.2</ele>
        <time>2022-01-19T13:52:30Z</time>
      </trkpt>
      <trkpt lat="44.88131" lon="5.52261">
        <ele>1912.2</ele>
        <time>2022-01-19T13:52:31Z</time>
      </trkpt>
      <trkpt lat="44.88131" lon="5.52261">
        <ele>1912.2</ele>
        <time>2022-01-19T13:52:32Z</time>
      </trkpt>
      <trkpt lat="44.88131" lon="5.52261">
        <ele>1912.2</ele>
        <time>2022-01-19T13:52:33Z</time>
      </trkpt>
      <trkpt lat="44.88131" lon="5.52261">
        <ele>1912.2</ele>
        <time>2022-01-19T13:52:34Z</time>
      </trkpt>
      <trkpt lat="44.88131" lon="5.52261">
        <ele>1912.2</ele>
        <time>2022-01-19T13:52:35Z</time>
      </trkpt>
      <trkpt lat="44.88131" lon="5.52261">
        <ele>1912.2</ele>
        <time>2022-01-19T13:52:36Z</time>
      </trkpt>
      <trkpt lat="44.88131" lon="5.52261">
        <ele>1912.2</ele>
        <time>2022-01-19T13:52:37Z</time>
      </trkpt>
      <trkpt lat="44.88131" lon="5.52261">
        <ele>1912.2</ele>
        <time>2022-01-19T13:52:38Z</time>
      </trkpt>
      <trkpt lat="44.88131" lon="5.52261">
        <ele>1912.2</ele>
        <time>2022-01-19T13:52:39Z</time>
      </trkpt>
      <trkpt lat="44.88131" lon="5.52261">
        <ele>1912.2</ele>
        <time>2022-01-19T13:52:40Z</time>
      </trkpt>
      <trkpt lat="44.88131" lon="5.52261">
        <ele>1912.2</ele>
        <time>2022-01-19T13:52:41Z</time>
      </trkpt>
      <trkpt lat="44.88131" lon="5.52261">
        <ele>1912.2</ele>
        <time>2022-01-19T13:52:42Z</time>
      </trkpt>
      <trkpt lat="44.88131" lon="5.52261">
        <ele>1912.2</ele>
        <time>2022-01-19T13:52:43Z</time>
      </trkpt>
      <trkpt lat="44.88131" lon="5.52261">
        <ele>1912.2</ele>
        <time>2022-01-19T13:52:44Z</time>
      </trkpt>
      <trkpt lat="44.88131" lon="5.52261">
        <ele>1912.2</ele>
        <time>2022-01-19T13:52:45Z</time>
      </trkpt>
      <trkpt lat="44.88131" lon="5.52261">
        <ele>1912.2</ele>
        <time>2022-01-19T13:52:46Z</time>
      </trkpt>
      <trkpt lat="44.88131" lon="5.52261">
        <ele>1912.2</ele>
        <time>2022-01-19T13:52:47Z</time>
      </trkpt>
      <trkpt lat="44.88131" lon="5.52261">
        <ele>1912.2</ele>
        <time>2022-01-19T13:52:48Z</time>
      </trkpt>
      <trkpt lat="44.88131" lon="5.52261">
        <ele>1912.2</ele>
        <time>2022-01-19T13:52:49Z</time>
      </trkpt>
      <trkpt lat="44.88131" lon="5.52261">
        <ele>1912.2</ele>
        <time>2022-01-19T13:52:50Z</time>
      </trkpt>
      <trkpt lat="44.88131" lon="5.52261">
        <ele>1912.2</ele>
        <time>2022-01-19T13:52:51Z</time>
      </trkpt>
      <trkpt lat="44.88131" lon="5.52261">
        <ele>1912.2</ele>
        <time>2022-01-19T13:52:52Z</time>
      </trkpt>
      <trkpt lat="44.88131" lon="5.52261">
        <ele>1912.2</ele>
        <time>2022-01-19T13:52:53Z</time>
      </trkpt>
      <trkpt lat="44.88131" lon="5.52261">
        <ele>1912.2</ele>
        <time>2022-01-19T13:52:54Z</time>
      </trkpt>
      <trkpt lat="44.88131" lon="5.52261">
        <ele>1912.2</ele>
        <time>2022-01-19T13:52:55Z</time>
      </trkpt>
      <trkpt lat="44.88131" lon="5.52261">
        <ele>1912.2</ele>
        <time>2022-01-19T13:52:56Z</time>
      </trkpt>
      <trkpt lat="44.88131" lon="5.52261">
        <ele>1912.2</ele>
        <time>2022-01-19T13:52:57Z</time>
      </trkpt>
      <trkpt lat="44.88131" lon="5.52261">
        <ele>1912.2</ele>
        <time>2022-01-19T13:52:58Z</time>
      </trkpt>
      <trkpt lat="44.88131" lon="5.52261">
        <ele>1912.2</ele>
        <time>2022-01-19T13:52:59Z</time>
      </trkpt>
      <trkpt lat="44.88131" lon="5.52261">
        <ele>1912.2</ele>
        <time>2022-01-19T13:53:00Z</time>
      </trkpt>
      <trkpt lat="44.88131" lon="5.52261">
        <ele>1912.2</ele>
        <time>2022-01-19T13:53:01Z</time>
      </trkpt>
      <trkpt lat="44.88131" lon="5.52261">
        <ele>1912.2</ele>
        <time>2022-01-19T13:53:02Z</time>
      </trkpt>
      <trkpt lat="44.88131" lon="5.52261">
        <ele>1912.2</ele>
        <time>2022-01-19T13:53:03Z</time>
      </trkpt>
      <trkpt lat="44.88131" lon="5.52261">
        <ele>1912.2</ele>
        <time>2022-01-19T13:53:04Z</time>
      </trkpt>
      <trkpt lat="44.88131" lon="5.52261">
        <ele>1912.2</ele>
        <time>2022-01-19T13:53:05Z</time>
      </trkpt>
      <trkpt lat="44.88131" lon="5.52261">
        <ele>1912.2</ele>
        <time>2022-01-19T13:53:06Z</time>
      </trkpt>
      <trkpt lat="44.88131" lon="5.52261">
        <ele>1912.2</ele>
        <time>2022-01-19T13:53:07Z</time>
      </trkpt>
      <trkpt lat="44.88131" lon="5.52261">
        <ele>1912.2</ele>
        <time>2022-01-19T13:53:08Z</time>
      </trkpt>
      <trkpt lat="44.88131" lon="5.52261">
        <ele>1912.2</ele>
        <time>2022-01-19T13:53:09Z</time>
      </trkpt>
      <trkpt lat="44.88131" lon="5.52261">
        <ele>1912.2</ele>
        <time>2022-01-19T13:53:10Z</time>
      </trkpt>
      <trkpt lat="44.88131" lon="5.52261">
        <ele>1912.2</ele>
        <time>2022-01-19T13:53:11Z</time>
      </trkpt>
      <trkpt lat="44.88131" lon="5.52261">
        <ele>1912.2</ele>
        <time>2022-01-19T13:53:12Z</time>
      </trkpt>
      <trkpt lat="44.88131" lon="5.52261">
        <ele>1912.2</ele>
        <time>2022-01-19T13:53:13Z</time>
      </trkpt>
      <trkpt lat="44.88131" lon="5.52261">
        <ele>1912.2</ele>
        <time>2022-01-19T13:53:14Z</time>
      </trkpt>
      <trkpt lat="44.88131" lon="5.52261">
        <ele>1912.2</ele>
        <time>2022-01-19T13:53:15Z</time>
      </trkpt>
      <trkpt lat="44.88131" lon="5.52261">
        <ele>1912.2</ele>
        <time>2022-01-19T13:53:16Z</time>
      </trkpt>
      <trkpt lat="44.88131" lon="5.52261">
        <ele>1912.2</ele>
        <time>2022-01-19T13:53:17Z</time>
      </trkpt>
      <trkpt lat="44.88131" lon="5.52261">
        <ele>1912.2</ele>
        <time>2022-01-19T13:53:18Z</time>
      </trkpt>
      <trkpt lat="44.88131" lon="5.52261">
        <ele>1912.2</ele>
        <time>2022-01-19T13:53:19Z</time>
      </trkpt>
      <trkpt lat="44.88131" lon="5.52261">
        <ele>1912.2</ele>
        <time>2022-01-19T13:53:20Z</time>
      </trkpt>
      <trkpt lat="44.88131" lon="5.52261">
        <ele>1912.2</ele>
        <time>2022-01-19T13:53:21Z</time>
      </trkpt>
      <trkpt lat="44.88131" lon="5.52261">
        <ele>1912.2</ele>
        <time>2022-01-19T13:53:22Z</time>
      </trkpt>
      <trkpt lat="44.88131" lon="5.52261">
        <ele>1912.2</ele>
        <time>2022-01-19T13:53:23Z</time>
      </trkpt>
      <trkpt lat="44.88131" lon="5.52261">
        <ele>1912.2</ele>
        <time>2022-01-19T13:53:24Z</time>
      </trkpt>
      <trkpt lat="44.88131" lon="5.52261">
        <ele>1912.2</ele>
        <time>2022-01-19T13:53:25Z</time>
      </trkpt>
      <trkpt lat="44.88131" lon="5.52261">
        <ele>1912.2</ele>
        <time>2022-01-19T13:53:26Z</time>
      </trkpt>
      <trkpt lat="44.88131" lon="5.52261">
        <ele>1912.2</ele>
        <time>2022-01-19T13:53:27Z</time>
      </trkpt>
      <trkpt lat="44.88131" lon="5.52261">
        <ele>1912.2</ele>
        <time>2022-01-19T13:53:28Z</time>
      </trkpt>
      <trkpt lat="44.88131" lon="5.52261">
        <ele>1912.2</ele>
        <time>2022-01-19T13:53:29Z</time>
      </trkpt>
      <trkpt lat="44.88131" lon="5.52261">
        <ele>1912.2</ele>
        <time>2022-01-19T13:53:30Z</time>
      </trkpt>
      <trkpt lat="44.88131" lon="5.52261">
        <ele>1912.2</ele>
        <time>2022-01-19T13:53:31Z</time>
      </trkpt>
      <trkpt lat="44.88131" lon="5.52261">
        <ele>1912.2</ele>
        <time>2022-01-19T13:53:32Z</time>
      </trkpt>
      <trkpt lat="44.88131" lon="5.52261">
        <ele>1912.2</ele>
        <time>2022-01-19T13:53:33Z</time>
      </trkpt>
      <trkpt lat="44.88131" lon="5.52261">
        <ele>1912.2</ele>
        <time>2022-01-19T13:53:34Z</time>
      </trkpt>
      <trkpt lat="44.88131" lon="5.52261">
        <ele>1912.2</ele>
        <time>2022-01-19T13:53:35Z</time>
      </trkpt>
      <trkpt lat="44.88131" lon="5.52261">
        <ele>1912.2</ele>
        <time>2022-01-19T13:53:36Z</time>
      </trkpt>
      <trkpt lat="44.88131" lon="5.52261">
        <ele>1912.2</ele>
        <time>2022-01-19T13:53:37Z</time>
      </trkpt>
      <trkpt lat="44.88131" lon="5.52261">
        <ele>1912.2</ele>
        <time>2022-01-19T13:53:38Z</time>
      </trkpt>
      <trkpt lat="44.88131" lon="5.52261">
        <ele>1912.2</ele>
        <time>2022-01-19T13:53:39Z</time>
      </trkpt>
      <trkpt lat="44.88131" lon="5.52261">
        <ele>1912.2</ele>
        <time>2022-01-19T13:53:40Z</time>
      </trkpt>
      <trkpt lat="44.88131" lon="5.52261">
        <ele>1912.2</ele>
        <time>2022-01-19T13:53:41Z</time>
      </trkpt>
      <trkpt lat="44.88131" lon="5.52261">
        <ele>1912.2</ele>
        <time>2022-01-19T13:53:42Z</time>
      </trkpt>
      <trkpt lat="44.88131" lon="5.52261">
        <ele>1912.2</ele>
        <time>2022-01-19T13:53:43Z</time>
      </trkpt>
      <trkpt lat="44.88131" lon="5.52261">
        <ele>1912.2</ele>
        <time>2022-01-19T13:53:44Z</time>
      </trkpt>
      <trkpt lat="44.88131" lon="5.52261">
        <ele>1912.2</ele>
        <time>2022-01-19T13:53:45Z</time>
      </trkpt>
      <trkpt lat="44.88131" lon="5.52261">
        <ele>1912.2</ele>
        <time>2022-01-19T13:53:46Z</time>
      </trkpt>
      <trkpt lat="44.88131" lon="5.52261">
        <ele>1912.2</ele>
        <time>2022-01-19T13:53:47Z</time>
      </trkpt>
      <trkpt lat="44.88131" lon="5.52261">
        <ele>1912.2</ele>
        <time>2022-01-19T13:53:48Z</time>
      </trkpt>
      <trkpt lat="44.88131" lon="5.52261">
        <ele>1912.2</ele>
        <time>2022-01-19T13:53:49Z</time>
      </trkpt>
      <trkpt lat="44.88131" lon="5.52261">
        <ele>1912.2</ele>
        <time>2022-01-19T13:53:50Z</time>
      </trkpt>
      <trkpt lat="44.88131" lon="5.52261">
        <ele>1912.2</ele>
        <time>2022-01-19T13:53:51Z</time>
      </trkpt>
      <trkpt lat="44.88131" lon="5.52261">
        <ele>1912.2</ele>
        <time>2022-01-19T13:53:52Z</time>
      </trkpt>
      <trkpt lat="44.88131" lon="5.52261">
        <ele>1912.2</ele>
        <time>2022-01-19T13:53:53Z</time>
      </trkpt>
      <trkpt lat="44.88131" lon="5.52261">
        <ele>1912.2</ele>
        <time>2022-01-19T13:53:54Z</time>
      </trkpt>
      <trkpt lat="44.88131" lon="5.52261">
        <ele>1912.2</ele>
        <time>2022-01-19T13:53:55Z</time>
      </trkpt>
      <trkpt lat="44.88131" lon="5.52261">
        <ele>1912.2</ele>
        <time>2022-01-19T13:53:56Z</time>
      </trkpt>
      <trkpt lat="44.88131" lon="5.52261">
        <ele>1912.2</ele>
        <time>2022-01-19T13:53:57Z</time>
      </trkpt>
      <trkpt lat="44.88131" lon="5.52261">
        <ele>1912.2</ele>
        <time>2022-01-19T13:53:58Z</time>
      </trkpt>
      <trkpt lat="44.88131" lon="5.52261">
        <ele>1912.2</ele>
        <time>2022-01-19T13:53:59Z</time>
      </trkpt>
      <trkpt lat="44.88131" lon="5.52261">
        <ele>1912.2</ele>
        <time>2022-01-19T13:54:00Z</time>
      </trkpt>
      <trkpt lat="44.88131" lon="5.52261">
        <ele>1912.2</ele>
        <time>2022-01-19T13:54:01Z</time>
      </trkpt>
      <trkpt lat="44.88131" lon="5.52261">
        <ele>1912.2</ele>
        <time>2022-01-19T13:54:02Z</time>
      </trkpt>
      <trkpt lat="44.88131" lon="5.52261">
        <ele>1912.2</ele>
        <time>2022-01-19T13:54:03Z</time>
      </trkpt>
      <trkpt lat="44.88131" lon="5.52261">
        <ele>1912.2</ele>
        <time>2022-01-19T13:54:04Z</time>
      </trkpt>
      <trkpt lat="44.88131" lon="5.52261">
        <ele>1912.2</ele>
        <time>2022-01-19T13:54:05Z</time>
      </trkpt>
      <trkpt lat="44.88131" lon="5.52261">
        <ele>1912.2</ele>
        <time>2022-01-19T13:54:06Z</time>
      </trkpt>
      <trkpt lat="44.88131" lon="5.52261">
        <ele>1912.2</ele>
        <time>2022-01-19T13:54:07Z</time>
      </trkpt>
      <trkpt lat="44.88131" lon="5.52261">
        <ele>1912.2</ele>
        <time>2022-01-19T13:54:08Z</time>
      </trkpt>
      <trkpt lat="44.88131" lon="5.52261">
        <ele>1912.2</ele>
        <time>2022-01-19T13:54:09Z</time>
      </trkpt>
      <trkpt lat="44.88131" lon="5.52261">
        <ele>1912.2</ele>
        <time>2022-01-19T13:54:10Z</time>
      </trkpt>
      <trkpt lat="44.88131" lon="5.52261">
        <ele>1912.2</ele>
        <time>2022-01-19T13:54:11Z</time>
      </trkpt>
      <trkpt lat="44.88131" lon="5.52261">
        <ele>1912.2</ele>
        <time>2022-01-19T13:54:12Z</time>
      </trkpt>
      <trkpt lat="44.88131" lon="5.52261">
        <ele>1912.2</ele>
        <time>2022-01-19T13:54:13Z</time>
      </trkpt>
      <trkpt lat="44.88131" lon="5.52261">
        <ele>1912.2</ele>
        <time>2022-01-19T13:54:14Z</time>
      </trkpt>
      <trkpt lat="44.88131" lon="5.52261">
        <ele>1912.2</ele>
        <time>2022-01-19T13:54:15Z</time>
      </trkpt>
      <trkpt lat="44.88131" lon="5.52261">
        <ele>1912.2</ele>
        <time>2022-01-19T13:54:16Z</time>
      </trkpt>
      <trkpt lat="44.88131" lon="5.52261">
        <ele>1912.2</ele>
        <time>2022-01-19T13:54:17Z</time>
      </trkpt>
      <trkpt lat="44.88131" lon="5.52261">
        <ele>1912.2</ele>
        <time>2022-01-19T13:54:18Z</time>
      </trkpt>
      <trkpt lat="44.88131" lon="5.52261">
        <ele>1912.2</ele>
        <time>2022-01-19T13:54:19Z</time>
      </trkpt>
      <trkpt lat="44.88131" lon="5.52261">
        <ele>1912.2</ele>
        <time>2022-01-19T13:54:20Z</time>
      </trkpt>
      <trkpt lat="44.88131" lon="5.52261">
        <ele>1912.2</ele>
        <time>2022-01-19T13:54:21Z</time>
      </trkpt>
      <trkpt lat="44.88131" lon="5.52261">
        <ele>1912.2</ele>
        <time>2022-01-19T13:54:22Z</time>
      </trkpt>
      <trkpt lat="44.88131" lon="5.52261">
        <ele>1912.2</ele>
        <time>2022-01-19T13:54:23Z</time>
      </trkpt>
      <trkpt lat="44.88131" lon="5.52261">
        <ele>1912.2</ele>
        <time>2022-01-19T13:54:24Z</time>
      </trkpt>
      <trkpt lat="44.88131" lon="5.52261">
        <ele>1912.2</ele>
        <time>2022-01-19T13:54:25Z</time>
      </trkpt>
      <trkpt lat="44.88131" lon="5.52261">
        <ele>1912.2</ele>
        <time>2022-01-19T13:54:26Z</time>
      </trkpt>
      <trkpt lat="44.88131" lon="5.52261">
        <ele>1912.2</ele>
        <time>2022-01-19T13:54:27Z</time>
      </trkpt>
      <trkpt lat="44.88131" lon="5.52261">
        <ele>1912.2</ele>
        <time>2022-01-19T13:54:28Z</time>
      </trkpt>
      <trkpt lat="44.88131" lon="5.52261">
        <ele>1912.2</ele>
        <time>2022-01-19T13:54:29Z</time>
      </trkpt>
      <trkpt lat="44.88131" lon="5.52261">
        <ele>1912.2</ele>
        <time>2022-01-19T13:54:30Z</time>
      </trkpt>
      <trkpt lat="44.88131" lon="5.52261">
        <ele>1912.2</ele>
        <time>2022-01-19T13:54:31Z</time>
      </trkpt>
      <trkpt lat="44.88131" lon="5.52261">
        <ele>1912.2</ele>
        <time>2022-01-19T13:54:32Z</time>
      </trkpt>
      <trkpt lat="44.88131" lon="5.52261">
        <ele>1912.2</ele>
        <time>2022-01-19T13:54:33Z</time>
      </trkpt>
      <trkpt lat="44.88131" lon="5.52261">
        <ele>1912.2</ele>
        <time>2022-01-19T13:54:34Z</time>
      </trkpt>
      <trkpt lat="44.88131" lon="5.52261">
        <ele>1912.2</ele>
        <time>2022-01-19T13:54:35Z</time>
      </trkpt>
      <trkpt lat="44.88131" lon="5.52261">
        <ele>1912.2</ele>
        <time>2022-01-19T13:54:36Z</time>
      </trkpt>
      <trkpt lat="44.88131" lon="5.52261">
        <ele>1912.2</ele>
        <time>2022-01-19T13:54:37Z</time>
      </trkpt>
      <trkpt lat="44.88131" lon="5.52261">
        <ele>1912.2</ele>
        <time>2022-01-19T13:54:38Z</time>
      </trkpt>
      <trkpt lat="44.88131" lon="5.52261">
        <ele>1912.2</ele>
        <time>2022-01-19T13:54:39Z</time>
      </trkpt>
      <trkpt lat="44.88131" lon="5.52261">
        <ele>1912.2</ele>
        <time>2022-01-19T13:54:40Z</time>
      </trkpt>
      <trkpt lat="44.88131" lon="5.52261">
        <ele>1912.2</ele>
        <time>2022-01-19T13:54:41Z</time>
      </trkpt>
      <trkpt lat="44.88131" lon="5.52261">
        <ele>1912.2</ele>
        <time>2022-01-19T13:54:42Z</time>
      </trkpt>
      <trkpt lat="44.88131" lon="5.52261">
        <ele>1912.2</ele>
        <time>2022-01-19T13:54:43Z</time>
      </trkpt>
      <trkpt lat="44.88131" lon="5.52261">
        <ele>1912.2</ele>
        <time>2022-01-19T13:54:44Z</time>
      </trkpt>
      <trkpt lat="44.88131" lon="5.52261">
        <ele>1912.2</ele>
        <time>2022-01-19T13:54:45Z</time>
      </trkpt>
      <trkpt lat="44.88131" lon="5.52261">
        <ele>1912.2</ele>
        <time>2022-01-19T13:54:46Z</time>
      </trkpt>
      <trkpt lat="44.88131" lon="5.52261">
        <ele>1912.2</ele>
        <time>2022-01-19T13:54:47Z</time>
      </trkpt>
      <trkpt lat="44.88131" lon="5.52261">
        <ele>1912.2</ele>
        <time>2022-01-19T13:54:48Z</time>
      </trkpt>
      <trkpt lat="44.88131" lon="5.52261">
        <ele>1912.2</ele>
        <time>2022-01-19T13:54:49Z</time>
      </trkpt>
      <trkpt lat="44.88131" lon="5.52261">
        <ele>1912.2</ele>
        <time>2022-01-19T13:54:50Z</time>
      </trkpt>
      <trkpt lat="44.88131" lon="5.52261">
        <ele>1912.2</ele>
        <time>2022-01-19T13:54:51Z</time>
      </trkpt>
      <trkpt lat="44.88131" lon="5.52261">
        <ele>1912.2</ele>
        <time>2022-01-19T13:54:52Z</time>
      </trkpt>
      <trkpt lat="44.88131" lon="5.52261">
        <ele>1912.2</ele>
        <time>2022-01-19T13:54:53Z</time>
      </trkpt>
      <trkpt lat="44.88131" lon="5.52261">
        <ele>1912.2</ele>
        <time>2022-01-19T13:54:54Z</time>
      </trkpt>
      <trkpt lat="44.88131" lon="5.52261">
        <ele>1912.2</ele>
        <time>2022-01-19T13:54:55Z</time>
      </trkpt>
      <trkpt lat="44.88131" lon="5.52261">
        <ele>1912.2</ele>
        <time>2022-01-19T13:54:56Z</time>
      </trkpt>
      <trkpt lat="44.88131" lon="5.52261">
        <ele>1912.2</ele>
        <time>2022-01-19T13:54:57Z</time>
      </trkpt>
      <trkpt lat="44.88131" lon="5.52261">
        <ele>1912.2</ele>
        <time>2022-01-19T13:54:58Z</time>
      </trkpt>
      <trkpt lat="44.88131" lon="5.52261">
        <ele>1912.2</ele>
        <time>2022-01-19T13:54:59Z</time>
      </trkpt>
      <trkpt lat="44.88131" lon="5.52261">
        <ele>1912.2</ele>
        <time>2022-01-19T13:55:00Z</time>
      </trkpt>
      <trkpt lat="44.88131" lon="5.52261">
        <ele>1912.2</ele>
        <time>2022-01-19T13:55:01Z</time>
      </trkpt>
      <trkpt lat="44.88131" lon="5.52261">
        <ele>1912.2</ele>
        <time>2022-01-19T13:55:02Z</time>
      </trkpt>
      <trkpt lat="44.88131" lon="5.52261">
        <ele>1912.2</ele>
        <time>2022-01-19T13:55:03Z</time>
      </trkpt>
      <trkpt lat="44.88131" lon="5.52261">
        <ele>1912.2</ele>
        <time>2022-01-19T13:55:04Z</time>
      </trkpt>
      <trkpt lat="44.88131" lon="5.52261">
        <ele>1912.2</ele>
        <time>2022-01-19T13:55:05Z</time>
      </trkpt>
      <trkpt lat="44.88131" lon="5.52261">
        <ele>1912.2</ele>
        <time>2022-01-19T13:55:06Z</time>
      </trkpt>
      <trkpt lat="44.88131" lon="5.52261">
        <ele>1912.2</ele>
        <time>2022-01-19T13:55:07Z</time>
      </trkpt>
      <trkpt lat="44.88131" lon="5.52261">
        <ele>1912.2</ele>
        <time>2022-01-19T13:55:08Z</time>
      </trkpt>
      <trkpt lat="44.88131" lon="5.52261">
        <ele>1912.2</ele>
        <time>2022-01-19T13:55:09Z</time>
      </trkpt>
      <trkpt lat="44.88131" lon="5.52261">
        <ele>1912.2</ele>
        <time>2022-01-19T13:55:10Z</time>
      </trkpt>
      <trkpt lat="44.88131" lon="5.52261">
        <ele>1912.2</ele>
        <time>2022-01-19T13:55:11Z</time>
      </trkpt>
      <trkpt lat="44.88131" lon="5.52261">
        <ele>1912.2</ele>
        <time>2022-01-19T13:55:12Z</time>
      </trkpt>
      <trkpt lat="44.88131" lon="5.52261">
        <ele>1912.2</ele>
        <time>2022-01-19T13:55:13Z</time>
      </trkpt>
      <trkpt lat="44.88131" lon="5.52261">
        <ele>1912.2</ele>
        <time>2022-01-19T13:55:14Z</time>
      </trkpt>
      <trkpt lat="44.88131" lon="5.52261">
        <ele>1912.2</ele>
        <time>2022-01-19T13:55:15Z</time>
      </trkpt>
      <trkpt lat="44.88131" lon="5.52261">
        <ele>1912.2</ele>
        <time>2022-01-19T13:55:16Z</time>
      </trkpt>
      <trkpt lat="44.88131" lon="5.52261">
        <ele>1912.2</ele>
        <time>2022-01-19T13:55:17Z</time>
      </trkpt>
      <trkpt lat="44.88131" lon="5.52261">
        <ele>1912.2</ele>
        <time>2022-01-19T13:55:18Z</time>
      </trkpt>
      <trkpt lat="44.88131" lon="5.52261">
        <ele>1912.2</ele>
        <time>2022-01-19T13:55:19Z</time>
      </trkpt>
      <trkpt lat="44.88131" lon="5.52261">
        <ele>1912.2</ele>
        <time>2022-01-19T13:55:20Z</time>
      </trkpt>
      <trkpt lat="44.88131" lon="5.52261">
        <ele>1912.2</ele>
        <time>2022-01-19T13:55:21Z</time>
      </trkpt>
      <trkpt lat="44.88131" lon="5.52261">
        <ele>1912.2</ele>
        <time>2022-01-19T13:55:22Z</time>
      </trkpt>
      <trkpt lat="44.88131" lon="5.52261">
        <ele>1912.2</ele>
        <time>2022-01-19T13:55:23Z</time>
      </trkpt>
      <trkpt lat="44.88131" lon="5.52261">
        <ele>1912.2</ele>
        <time>2022-01-19T13:55:24Z</time>
      </trkpt>
      <trkpt lat="44.88131" lon="5.52261">
        <ele>1912.2</ele>
        <time>2022-01-19T13:55:25Z</time>
      </trkpt>
      <trkpt lat="44.88131" lon="5.52261">
        <ele>1912.2</ele>
        <time>2022-01-19T13:55:26Z</time>
      </trkpt>
      <trkpt lat="44.88131" lon="5.52261">
        <ele>1912.2</ele>
        <time>2022-01-19T13:55:27Z</time>
      </trkpt>
      <trkpt lat="44.88131" lon="5.52261">
        <ele>1912.2</ele>
        <time>2022-01-19T13:55:28Z</time>
      </trkpt>
      <trkpt lat="44.88131" lon="5.52261">
        <ele>1912.2</ele>
        <time>2022-01-19T13:55:29Z</time>
      </trkpt>
      <trkpt lat="44.88131" lon="5.52261">
        <ele>1912.2</ele>
        <time>2022-01-19T13:55:30Z</time>
      </trkpt>
      <trkpt lat="44.88131" lon="5.52261">
        <ele>1912.2</ele>
        <time>2022-01-19T13:55:31Z</time>
      </trkpt>
      <trkpt lat="44.88131" lon="5.52261">
        <ele>1912.2</ele>
        <time>2022-01-19T13:55:32Z</time>
      </trkpt>
      <trkpt lat="44.88131" lon="5.52261">
        <ele>1912.2</ele>
        <time>2022-01-19T13:55:33Z</time>
      </trkpt>
      <trkpt lat="44.88131" lon="5.52261">
        <ele>1912.2</ele>
        <time>2022-01-19T13:55:34Z</time>
      </trkpt>
      <trkpt lat="44.88131" lon="5.52261">
        <ele>1912.2</ele>
        <time>2022-01-19T13:55:35Z</time>
      </trkpt>
      <trkpt lat="44.88131" lon="5.52261">
        <ele>1912.2</ele>
        <time>2022-01-19T13:55:36Z</time>
      </trkpt>
      <trkpt lat="44.88131" lon="5.52261">
        <ele>1912.2</ele>
        <time>2022-01-19T13:55:37Z</time>
      </trkpt>
      <trkpt lat="44.88131" lon="5.52261">
        <ele>1912.2</ele>
        <time>2022-01-19T13:55:38Z</time>
      </trkpt>
      <trkpt lat="44.88131" lon="5.52261">
        <ele>1912.2</ele>
        <time>2022-01-19T13:55:39Z</time>
      </trkpt>
      <trkpt lat="44.88131" lon="5.52261">
        <ele>1912.2</ele>
        <time>2022-01-19T13:55:40Z</time>
      </trkpt>
      <trkpt lat="44.88131" lon="5.52261">
        <ele>1912.2</ele>
        <time>2022-01-19T13:55:41Z</time>
      </trkpt>
      <trkpt lat="44.88131" lon="5.52261">
        <ele>1912.2</ele>
        <time>2022-01-19T13:55:42Z</time>
      </trkpt>
      <trkpt lat="44.88131" lon="5.52261">
        <ele>1912.2</ele>
        <time>2022-01-19T13:55:43Z</time>
      </trkpt>
      <trkpt lat="44.88131" lon="5.52261">
        <ele>1912.2</ele>
        <time>2022-01-19T13:55:44Z</time>
      </trkpt>
      <trkpt lat="44.88131" lon="5.52261">
        <ele>1912.2</ele>
        <time>2022-01-19T13:55:45Z</time>
      </trkpt>
      <trkpt lat="44.88131" lon="5.52261">
        <ele>1912.2</ele>
        <time>2022-01-19T13:55:46Z</time>
      </trkpt>
      <trkpt lat="44.88131" lon="5.52261">
        <ele>1912.2</ele>
        <time>2022-01-19T13:55:47Z</time>
      </trkpt>
      <trkpt lat="44.88131" lon="5.52261">
        <ele>1912.2</ele>
        <time>2022-01-19T13:55:48Z</time>
      </trkpt>
      <trkpt lat="44.88131" lon="5.52261">
        <ele>1912.2</ele>
        <time>2022-01-19T13:55:49Z</time>
      </trkpt>
      <trkpt lat="44.88131" lon="5.52261">
        <ele>1912.2</ele>
        <time>2022-01-19T13:55:50Z</time>
      </trkpt>
      <trkpt lat="44.88131" lon="5.52261">
        <ele>1912.2</ele>
        <time>2022-01-19T13:55:51Z</time>
      </trkpt>
      <trkpt lat="44.88131" lon="5.52261">
        <ele>1912.2</ele>
        <time>2022-01-19T13:55:52Z</time>
      </trkpt>
      <trkpt lat="44.88131" lon="5.52261">
        <ele>1912.2</ele>
        <time>2022-01-19T13:55:53Z</time>
      </trkpt>
      <trkpt lat="44.88131" lon="5.52261">
        <ele>1912.2</ele>
        <time>2022-01-19T13:55:54Z</time>
      </trkpt>
      <trkpt lat="44.88131" lon="5.52261">
        <ele>1912.2</ele>
        <time>2022-01-19T13:55:55Z</time>
      </trkpt>
      <trkpt lat="44.88131" lon="5.52261">
        <ele>1912.2</ele>
        <time>2022-01-19T13:55:56Z</time>
      </trkpt>
      <trkpt lat="44.88131" lon="5.52261">
        <ele>1912.2</ele>
        <time>2022-01-19T13:55:57Z</time>
      </trkpt>
      <trkpt lat="44.88131" lon="5.52261">
        <ele>1912.2</ele>
        <time>2022-01-19T13:55:58Z</time>
      </trkpt>
      <trkpt lat="44.88131" lon="5.52261">
        <ele>1912.2</ele>
        <time>2022-01-19T13:55:59Z</time>
      </trkpt>
      <trkpt lat="44.88131" lon="5.52261">
        <ele>1912.2</ele>
        <time>2022-01-19T13:56:00Z</time>
      </trkpt>
      <trkpt lat="44.88131" lon="5.52261">
        <ele>1912.2</ele>
        <time>2022-01-19T13:56:01Z</time>
      </trkpt>
      <trkpt lat="44.88131" lon="5.52261">
        <ele>1912.2</ele>
        <time>2022-01-19T13:56:02Z</time>
      </trkpt>
      <trkpt lat="44.88131" lon="5.52261">
        <ele>1912.2</ele>
        <time>2022-01-19T13:56:03Z</time>
      </trkpt>
      <trkpt lat="44.88131" lon="5.52261">
        <ele>1912.2</ele>
        <time>2022-01-19T13:56:04Z</time>
      </trkpt>
      <trkpt lat="44.88131" lon="5.52261">
        <ele>1912.2</ele>
        <time>2022-01-19T13:56:05Z</time>
      </trkpt>
      <trkpt lat="44.88131" lon="5.52261">
        <ele>1912.2</ele>
        <time>2022-01-19T13:56:06Z</time>
      </trkpt>
      <trkpt lat="44.88131" lon="5.52261">
        <ele>1912.2</ele>
        <time>2022-01-19T13:56:07Z</time>
      </trkpt>
      <trkpt lat="44.88131" lon="5.52261">
        <ele>1912.2</ele>
        <time>2022-01-19T13:56:08Z</time>
      </trkpt>
      <trkpt lat="44.88131" lon="5.52261">
        <ele>1912.2</ele>
        <time>2022-01-19T13:56:09Z</time>
      </trkpt>
      <trkpt lat="44.88131" lon="5.52261">
        <ele>1912.2</ele>
        <time>2022-01-19T13:56:10Z</time>
      </trkpt>
      <trkpt lat="44.88131" lon="5.52261">
        <ele>1912.2</ele>
        <time>2022-01-19T13:56:11Z</time>
      </trkpt>
      <trkpt lat="44.88131" lon="5.52261">
        <ele>1912.2</ele>
        <time>2022-01-19T13:56:12Z</time>
      </trkpt>
      <trkpt lat="44.88131" lon="5.52261">
        <ele>1912.2</ele>
        <time>2022-01-19T13:56:13Z</time>
      </trkpt>
      <trkpt lat="44.88131" lon="5.52261">
        <ele>1912.2</ele>
        <time>2022-01-19T13:56:14Z</time>
      </trkpt>
      <trkpt lat="44.88131" lon="5.52261">
        <ele>1912.2</ele>
        <time>2022-01-19T13:56:15Z</time>
      </trkpt>
      <trkpt lat="44.88131" lon="5.52261">
        <ele>1912.2</ele>
        <time>2022-01-19T13:56:16Z</time>
      </trkpt>
      <trkpt lat="44.88131" lon="5.52261">
        <ele>1912.2</ele>
        <time>2022-01-19T13:56:17Z</time>
      </trkpt>
      <trkpt lat="44.88131" lon="5.52261">
        <ele>1912.2</ele>
        <time>2022-01-19T13:56:18Z</time>
      </trkpt>
      <trkpt lat="44.88131" lon="5.52261">
        <ele>1912.2</ele>
        <time>2022-01-19T13:56:19Z</time>
      </trkpt>
      <trkpt lat="44.88131" lon="5.52261">
        <ele>1912.2</ele>
        <time>2022-01-19T13:56:20Z</time>
      </trkpt>
      <trkpt lat="44.88131" lon="5.52261">
        <ele>1912.2</ele>
        <time>2022-01-19T13:56:21Z</time>
      </trkpt>
      <trkpt lat="44.88131" lon="5.52261">
        <ele>1912.2</ele>
        <time>2022-01-19T13:56:22Z</time>
      </trkpt>
      <trkpt lat="44.88131" lon="5.52261">
        <ele>1912.2</ele>
        <time>2022-01-19T13:56:23Z</time>
      </trkpt>
      <trkpt lat="44.88131" lon="5.52261">
        <ele>1912.2</ele>
        <time>2022-01-19T13:56:24Z</time>
      </trkpt>
      <trkpt lat="44.88131" lon="5.52261">
        <ele>1912.2</ele>
        <time>2022-01-19T13:56:25Z</time>
      </trkpt>
      <trkpt lat="44.88131" lon="5.52261">
        <ele>1912.2</ele>
        <time>2022-01-19T13:56:26Z</time>
      </trkpt>
      <trkpt lat="44.88131" lon="5.52261">
        <ele>1912.2</ele>
        <time>2022-01-19T13:56:27Z</time>
      </trkpt>
      <trkpt lat="44.88131" lon="5.52261">
        <ele>1912.2</ele>
        <time>2022-01-19T13:56:28Z</time>
      </trkpt>
      <trkpt lat="44.88131" lon="5.52261">
        <ele>1912.2</ele>
        <time>2022-01-19T13:56:29Z</time>
      </trkpt>
      <trkpt lat="44.88131" lon="5.52261">
        <ele>1912.2</ele>
        <time>2022-01-19T13:56:30Z</time>
      </trkpt>
      <trkpt lat="44.88131" lon="5.52261">
        <ele>1912.2</ele>
        <time>2022-01-19T13:56:31Z</time>
      </trkpt>
      <trkpt lat="44.88131" lon="5.52261">
        <ele>1912.2</ele>
        <time>2022-01-19T13:56:32Z</time>
      </trkpt>
      <trkpt lat="44.88131" lon="5.52261">
        <ele>1912.2</ele>
        <time>2022-01-19T13:56:33Z</time>
      </trkpt>
      <trkpt lat="44.88131" lon="5.52261">
        <ele>1912.2</ele>
        <time>2022-01-19T13:56:34Z</time>
      </trkpt>
      <trkpt lat="44.88131" lon="5.52261">
        <ele>1912.2</ele>
        <time>2022-01-19T13:56:35Z</time>
      </trkpt>
      <trkpt lat="44.88131" lon="5.52261">
        <ele>1912.2</ele>
        <time>2022-01-19T13:56:36Z</time>
      </trkpt>
      <trkpt lat="44.88131" lon="5.52261">
        <ele>1912.2</ele>
        <time>2022-01-19T13:56:37Z</time>
      </trkpt>
      <trkpt lat="44.88131" lon="5.52261">
        <ele>1912.2</ele>
        <time>2022-01-19T13:56:38Z</time>
      </trkpt>
      <trkpt lat="44.88131" lon="5.52261">
        <ele>1912.2</ele>
        <time>2022-01-19T13:56:39Z</time>
      </trkpt>
      <trkpt lat="44.88131" lon="5.52261">
        <ele>1912.2</ele>
        <time>2022-01-19T13:56:40Z</time>
      </trkpt>
      <trkpt lat="44.88131" lon="5.52261">
        <ele>1912.2</ele>
        <time>2022-01-19T13:56:41Z</time>
      </trkpt>
      <trkpt lat="44.88131" lon="5.52261">
        <ele>1912.2</ele>
        <time>2022-01-19T13:56:42Z</time>
      </trkpt>
      <trkpt lat="44.88131" lon="5.52261">
        <ele>1912.2</ele>
        <time>2022-01-19T13:56:43Z</time>
      </trkpt>
      <trkpt lat="44.88131" lon="5.52261">
        <ele>1912.2</ele>
        <time>2022-01-19T13:56:44Z</time>
      </trkpt>
      <trkpt lat="44.88131" lon="5.52261">
        <ele>1912.2</ele>
        <time>2022-01-19T13:56:45Z</time>
      </trkpt>
      <trkpt lat="44.88131" lon="5.52261">
        <ele>1912.2</ele>
        <time>2022-01-19T13:56:46Z</time>
      </trkpt>
      <trkpt lat="44.88131" lon="5.52261">
        <ele>1912.2</ele>
        <time>2022-01-19T13:56:47Z</time>
      </trkpt>
      <trkpt lat="44.88131" lon="5.52261">
        <ele>1912.2</ele>
        <time>2022-01-19T13:56:48Z</time>
      </trkpt>
      <trkpt lat="44.88131" lon="5.52261">
        <ele>1912.2</ele>
        <time>2022-01-19T13:56:49Z</time>
      </trkpt>
      <trkpt lat="44.88131" lon="5.52261">
        <ele>1912.2</ele>
        <time>2022-01-19T13:56:50Z</time>
      </trkpt>
      <trkpt lat="44.88131" lon="5.52261">
        <ele>1912.2</ele>
        <time>2022-01-19T13:56:51Z</time>
      </trkpt>
      <trkpt lat="44.88131" lon="5.52261">
        <ele>1912.2</ele>
        <time>2022-01-19T13:56:52Z</time>
      </trkpt>
      <trkpt lat="44.88131" lon="5.52261">
        <ele>1912.2</ele>
        <time>2022-01-19T13:56:53Z</time>
      </trkpt>
      <trkpt lat="44.88131" lon="5.52261">
        <ele>1912.2</ele>
        <time>2022-01-19T13:56:54Z</time>
      </trkpt>
      <trkpt lat="44.88131" lon="5.52261">
        <ele>1912.2</ele>
        <time>2022-01-19T13:56:55Z</time>
      </trkpt>
      <trkpt lat="44.88131" lon="5.52261">
        <ele>1912.2</ele>
        <time>2022-01-19T13:56:56Z</time>
      </trkpt>
      <trkpt lat="44.88131" lon="5.52261">
        <ele>1912.2</ele>
        <time>2022-01-19T13:56:57Z</time>
      </trkpt>
      <trkpt lat="44.88131" lon="5.52261">
        <ele>1912.2</ele>
        <time>2022-01-19T13:56:58Z</time>
      </trkpt>
      <trkpt lat="44.88131" lon="5.52261">
        <ele>1912.2</ele>
        <time>2022-01-19T13:56:59Z</time>
      </trkpt>
      <trkpt lat="44.88131" lon="5.52261">
        <ele>1912.2</ele>
        <time>2022-01-19T13:57:00Z</time>
      </trkpt>
      <trkpt lat="44.88131" lon="5.52261">
        <ele>1912.2</ele>
        <time>2022-01-19T13:57:01Z</time>
      </trkpt>
      <trkpt lat="44.88131" lon="5.52261">
        <ele>1912.2</ele>
        <time>2022-01-19T13:57:02Z</time>
      </trkpt>
      <trkpt lat="44.88131" lon="5.52261">
        <ele>1912.2</ele>
        <time>2022-01-19T13:57:03Z</time>
      </trkpt>
      <trkpt lat="44.88131" lon="5.52261">
        <ele>1912.2</ele>
        <time>2022-01-19T13:57:04Z</time>
      </trkpt>
      <trkpt lat="44.88131" lon="5.52261">
        <ele>1912.2</ele>
        <time>2022-01-19T13:57:05Z</time>
      </trkpt>
      <trkpt lat="44.88131" lon="5.52261">
        <ele>1912.2</ele>
        <time>2022-01-19T13:57:06Z</time>
      </trkpt>
      <trkpt lat="44.88131" lon="5.52261">
        <ele>1912.2</ele>
        <time>2022-01-19T13:57:07Z</time>
      </trkpt>
      <trkpt lat="44.88131" lon="5.52261">
        <ele>1912.2</ele>
        <time>2022-01-19T13:57:08Z</time>
      </trkpt>
      <trkpt lat="44.88131" lon="5.52261">
        <ele>1912.2</ele>
        <time>2022-01-19T13:57:09Z</time>
      </trkpt>
      <trkpt lat="44.88131" lon="5.52261">
        <ele>1912.2</ele>
        <time>2022-01-19T13:57:10Z</time>
      </trkpt>
      <trkpt lat="44.88131" lon="5.52261">
        <ele>1912.2</ele>
        <time>2022-01-19T13:57:11Z</time>
      </trkpt>
      <trkpt lat="44.88131" lon="5.52261">
        <ele>1912.2</ele>
        <time>2022-01-19T13:57:12Z</time>
      </trkpt>
      <trkpt lat="44.88131" lon="5.52261">
        <ele>1912.2</ele>
        <time>2022-01-19T13:57:13Z</time>
      </trkpt>
      <trkpt lat="44.88131" lon="5.52261">
        <ele>1912.2</ele>
        <time>2022-01-19T13:57:14Z</time>
      </trkpt>
      <trkpt lat="44.88131" lon="5.52261">
        <ele>1912.2</ele>
        <time>2022-01-19T13:57:15Z</time>
      </trkpt>
      <trkpt lat="44.88131" lon="5.52261">
        <ele>1912.2</ele>
        <time>2022-01-19T13:57:16Z</time>
      </trkpt>
      <trkpt lat="44.88131" lon="5.52261">
        <ele>1912.2</ele>
        <time>2022-01-19T13:57:17Z</time>
      </trkpt>
      <trkpt lat="44.88131" lon="5.52261">
        <ele>1912.2</ele>
        <time>2022-01-19T13:57:18Z</time>
      </trkpt>
      <trkpt lat="44.88131" lon="5.52261">
        <ele>1912.2</ele>
        <time>2022-01-19T13:57:19Z</time>
      </trkpt>
      <trkpt lat="44.88131" lon="5.52261">
        <ele>1912.2</ele>
        <time>2022-01-19T13:57:20Z</time>
      </trkpt>
      <trkpt lat="44.88131" lon="5.52261">
        <ele>1912.2</ele>
        <time>2022-01-19T13:57:21Z</time>
      </trkpt>
      <trkpt lat="44.88131" lon="5.52261">
        <ele>1912.2</ele>
        <time>2022-01-19T13:57:22Z</time>
      </trkpt>
      <trkpt lat="44.88131" lon="5.52261">
        <ele>1912.2</ele>
        <time>2022-01-19T13:57:23Z</time>
      </trkpt>
      <trkpt lat="44.88131" lon="5.52261">
        <ele>1912.2</ele>
        <time>2022-01-19T13:57:24Z</time>
      </trkpt>
      <trkpt lat="44.88131" lon="5.52261">
        <ele>1912.2</ele>
        <time>2022-01-19T13:57:25Z</time>
      </trkpt>
      <trkpt lat="44.88131" lon="5.52261">
        <ele>1912.2</ele>
        <time>2022-01-19T13:57:26Z</time>
      </trkpt>
      <trkpt lat="44.88131" lon="5.52261">
        <ele>1912.2</ele>
        <time>2022-01-19T13:57:27Z</time>
      </trkpt>
      <trkpt lat="44.88131" lon="5.52261">
        <ele>1912.2</ele>
        <time>2022-01-19T13:57:28Z</time>
      </trkpt>
      <trkpt lat="44.88131" lon="5.52261">
        <ele>1912.2</ele>
        <time>2022-01-19T13:57:29Z</time>
      </trkpt>
      <trkpt lat="44.88131" lon="5.52261">
        <ele>1912.2</ele>
        <time>2022-01-19T13:57:30Z</time>
      </trkpt>
      <trkpt lat="44.88131" lon="5.52261">
        <ele>1912.2</ele>
        <time>2022-01-19T13:57:31Z</time>
      </trkpt>
      <trkpt lat="44.88131" lon="5.52261">
        <ele>1912.2</ele>
        <time>2022-01-19T13:57:32Z</time>
      </trkpt>
      <trkpt lat="44.88131" lon="5.52261">
        <ele>1912.2</ele>
        <time>2022-01-19T13:57:33Z</time>
      </trkpt>
      <trkpt lat="44.88131" lon="5.52261">
        <ele>1912.2</ele>
        <time>2022-01-19T13:57:34Z</time>
      </trkpt>
      <trkpt lat="44.88131" lon="5.52261">
        <ele>1912.2</ele>
        <time>2022-01-19T13:57:35Z</time>
      </trkpt>
      <trkpt lat="44.88131" lon="5.52261">
        <ele>1912.2</ele>
        <time>2022-01-19T13:57:36Z</time>
      </trkpt>
      <trkpt lat="44.88131" lon="5.52261">
        <ele>1912.2</ele>
        <time>2022-01-19T13:57:37Z</time>
      </trkpt>
      <trkpt lat="44.88131" lon="5.52261">
        <ele>1912.2</ele>
        <time>2022-01-19T13:57:38Z</time>
      </trkpt>
      <trkpt lat="44.88131" lon="5.52261">
        <ele>1912.2</ele>
        <time>2022-01-19T13:57:39Z</time>
      </trkpt>
      <trkpt lat="44.88131" lon="5.52261">
        <ele>1912.2</ele>
        <time>2022-01-19T13:57:40Z</time>
      </trkpt>
      <trkpt lat="44.88131" lon="5.52261">
        <ele>1912.2</ele>
        <time>2022-01-19T13:57:41Z</time>
      </trkpt>
      <trkpt lat="44.88131" lon="5.52261">
        <ele>1912.2</ele>
        <time>2022-01-19T13:57:42Z</time>
      </trkpt>
      <trkpt lat="44.88131" lon="5.52261">
        <ele>1912.2</ele>
        <time>2022-01-19T13:57:43Z</time>
      </trkpt>
      <trkpt lat="44.88131" lon="5.52261">
        <ele>1912.2</ele>
        <time>2022-01-19T13:57:44Z</time>
      </trkpt>
      <trkpt lat="44.88131" lon="5.52261">
        <ele>1912.2</ele>
        <time>2022-01-19T13:57:45Z</time>
      </trkpt>
      <trkpt lat="44.88131" lon="5.52261">
        <ele>1912.2</ele>
        <time>2022-01-19T13:57:46Z</time>
      </trkpt>
      <trkpt lat="44.88131" lon="5.52261">
        <ele>1912.2</ele>
        <time>2022-01-19T13:57:47Z</time>
      </trkpt>
      <trkpt lat="44.88131" lon="5.52261">
        <ele>1912.2</ele>
        <time>2022-01-19T13:57:48Z</time>
      </trkpt>
      <trkpt lat="44.88131" lon="5.52261">
        <ele>1912.2</ele>
        <time>2022-01-19T13:57:49Z</time>
      </trkpt>
      <trkpt lat="44.88131" lon="5.52261">
        <ele>1912.2</ele>
        <time>2022-01-19T13:57:50Z</time>
      </trkpt>
      <trkpt lat="44.88131" lon="5.52261">
        <ele>1912.2</ele>
        <time>2022-01-19T13:57:51Z</time>
      </trkpt>
      <trkpt lat="44.88131" lon="5.52261">
        <ele>1912.2</ele>
        <time>2022-01-19T13:57:52Z</time>
      </trkpt>
      <trkpt lat="44.88131" lon="5.52261">
        <ele>1912.2</ele>
        <time>2022-01-19T13:57:53Z</time>
      </trkpt>
      <trkpt lat="44.88131" lon="5.52261">
        <ele>1912.2</ele>
        <time>2022-01-19T13:57:54Z</time>
      </trkpt>
      <trkpt lat="44.88131" lon="5.52261">
        <ele>1912.2</ele>
        <time>2022-01-19T13:57:55Z</time>
      </trkpt>
      <trkpt lat="44.88131" lon="5.52261">
        <ele>1912.2</ele>
        <time>2022-01-19T13:57:56Z</time>
      </trkpt>
      <trkpt lat="44.88131" lon="5.52261">
        <ele>1912.2</ele>
        <time>2022-01-19T13:57:57Z</time>
      </trkpt>
      <trkpt lat="44.88131" lon="5.52261">
        <ele>1912.2</ele>
        <time>2022-01-19T13:57:58Z</time>
      </trkpt>
      <trkpt lat="44.88131" lon="5.52261">
        <ele>1912.2</ele>
        <time>2022-01-19T13:57:59Z</time>
      </trkpt>
      <trkpt lat="44.88131" lon="5.52261">
        <ele>1912.2</ele>
        <time>2022-01-19T13:58:00Z</time>
      </trkpt>
      <trkpt lat="44.88131" lon="5.52261">
        <ele>1912.2</ele>
        <time>2022-01-19T13:58:01Z</time>
      </trkpt>
      <trkpt lat="44.88131" lon="5.52261">
        <ele>1912.2</ele>
        <time>2022-01-19T13:58:02Z</time>
      </trkpt>
      <trkpt lat="44.88131" lon="5.52261">
        <ele>1912.2</ele>
        <time>2022-01-19T13:58:03Z</time>
      </trkpt>
      <trkpt lat="44.88131" lon="5.52261">
        <ele>1912.2</ele>
        <time>2022-01-19T13:58:04Z</time>
      </trkpt>
      <trkpt lat="44.88131" lon="5.52261">
        <ele>1912.2</ele>
        <time>2022-01-19T13:58:05Z</time>
      </trkpt>
      <trkpt lat="44.88131" lon="5.52261">
        <ele>1912.2</ele>
        <time>2022-01-19T13:58:06Z</time>
      </trkpt>
      <trkpt lat="44.88131" lon="5.52261">
        <ele>1912.2</ele>
        <time>2022-01-19T13:58:07Z</time>
      </trkpt>
      <trkpt lat="44.88131" lon="5.52261">
        <ele>1912.2</ele>
        <time>2022-01-19T13:58:08Z</time>
      </trkpt>
      <trkpt lat="44.88131" lon="5.52261">
        <ele>1912.2</ele>
        <time>2022-01-19T13:58:09Z</time>
      </trkpt>
      <trkpt lat="44.88131" lon="5.52261">
        <ele>1912.2</ele>
        <time>2022-01-19T13:58:10Z</time>
      </trkpt>
      <trkpt lat="44.88131" lon="5.52261">
        <ele>1912.2</ele>
        <time>2022-01-19T13:58:11Z</time>
      </trkpt>
      <trkpt lat="44.88131" lon="5.52261">
        <ele>1912.2</ele>
        <time>2022-01-19T13:58:12Z</time>
      </trkpt>
      <trkpt lat="44.88131" lon="5.52261">
        <ele>1912.2</ele>
        <time>2022-01-19T13:58:13Z</time>
      </trkpt>
      <trkpt lat="44.88131" lon="5.52261">
        <ele>1912.2</ele>
        <time>2022-01-19T13:58:14Z</time>
      </trkpt>
      <trkpt lat="44.88131" lon="5.52261">
        <ele>1912.2</ele>
        <time>2022-01-19T13:58:15Z</time>
      </trkpt>
      <trkpt lat="44.88131" lon="5.52261">
        <ele>1912.2</ele>
        <time>2022-01-19T13:58:16Z</time>
      </trkpt>
      <trkpt lat="44.88131" lon="5.52261">
        <ele>1912.2</ele>
        <time>2022-01-19T13:58:17Z</time>
      </trkpt>
      <trkpt lat="44.88131" lon="5.52261">
        <ele>1912.2</ele>
        <time>2022-01-19T13:58:18Z</time>
      </trkpt>
      <trkpt lat="44.88131" lon="5.52261">
        <ele>1912.2</ele>
        <time>2022-01-19T13:58:19Z</time>
      </trkpt>
      <trkpt lat="44.88131" lon="5.52261">
        <ele>1912.2</ele>
        <time>2022-01-19T13:58:20Z</time>
      </trkpt>
      <trkpt lat="44.88131" lon="5.52261">
        <ele>1912.2</ele>
        <time>2022-01-19T13:58:21Z</time>
      </trkpt>
      <trkpt lat="44.88131" lon="5.52261">
        <ele>1912.2</ele>
        <time>2022-01-19T13:58:22Z</time>
      </trkpt>
      <trkpt lat="44.88131" lon="5.52261">
        <ele>1912.2</ele>
        <time>2022-01-19T13:58:23Z</time>
      </trkpt>
      <trkpt lat="44.88131" lon="5.52261">
        <ele>1912.2</ele>
        <time>2022-01-19T13:58:24Z</time>
      </trkpt>
      <trkpt lat="44.88131" lon="5.52261">
        <ele>1912.2</ele>
        <time>2022-01-19T13:58:25Z</time>
      </trkpt>
      <trkpt lat="44.88131" lon="5.52261">
        <ele>1912.2</ele>
        <time>2022-01-19T13:58:26Z</time>
      </trkpt>
      <trkpt lat="44.88131" lon="5.52261">
        <ele>1912.2</ele>
        <time>2022-01-19T13:58:27Z</time>
      </trkpt>
      <trkpt lat="44.88131" lon="5.52261">
        <ele>1912.2</ele>
        <time>2022-01-19T13:58:28Z</time>
      </trkpt>
      <trkpt lat="44.88131" lon="5.52261">
        <ele>1912.2</ele>
        <time>2022-01-19T13:58:29Z</time>
      </trkpt>
      <trkpt lat="44.88131" lon="5.52261">
        <ele>1912.2</ele>
        <time>2022-01-19T13:58:30Z</time>
      </trkpt>
      <trkpt lat="44.88131" lon="5.52261">
        <ele>1912.2</ele>
        <time>2022-01-19T13:58:31Z</time>
      </trkpt>
      <trkpt lat="44.88131" lon="5.52261">
        <ele>1912.2</ele>
        <time>2022-01-19T13:58:32Z</time>
      </trkpt>
      <trkpt lat="44.88131" lon="5.52261">
        <ele>1912.2</ele>
        <time>2022-01-19T13:58:33Z</time>
      </trkpt>
      <trkpt lat="44.88131" lon="5.52261">
        <ele>1912.2</ele>
        <time>2022-01-19T13:58:34Z</time>
      </trkpt>
      <trkpt lat="44.88131" lon="5.52261">
        <ele>1912.2</ele>
        <time>2022-01-19T13:58:35Z</time>
      </trkpt>
      <trkpt lat="44.88131" lon="5.52261">
        <ele>1912.2</ele>
        <time>2022-01-19T13:58:36Z</time>
      </trkpt>
      <trkpt lat="44.88131" lon="5.52261">
        <ele>1912.2</ele>
        <time>2022-01-19T13:58:37Z</time>
      </trkpt>
      <trkpt lat="44.88131" lon="5.52261">
        <ele>1912.2</ele>
        <time>2022-01-19T13:58:38Z</time>
      </trkpt>
      <trkpt lat="44.88131" lon="5.52261">
        <ele>1912.2</ele>
        <time>2022-01-19T13:58:39Z</time>
      </trkpt>
      <trkpt lat="44.88131" lon="5.52261">
        <ele>1912.2</ele>
        <time>2022-01-19T13:58:40Z</time>
      </trkpt>
      <trkpt lat="44.88131" lon="5.52261">
        <ele>1912.2</ele>
        <time>2022-01-19T13:58:41Z</time>
      </trkpt>
      <trkpt lat="44.88131" lon="5.52261">
        <ele>1912.2</ele>
        <time>2022-01-19T13:58:42Z</time>
      </trkpt>
      <trkpt lat="44.88131" lon="5.52261">
        <ele>1912.2</ele>
        <time>2022-01-19T13:58:43Z</time>
      </trkpt>
      <trkpt lat="44.88131" lon="5.52261">
        <ele>1912.2</ele>
        <time>2022-01-19T13:58:44Z</time>
      </trkpt>
      <trkpt lat="44.88131" lon="5.52261">
        <ele>1912.2</ele>
        <time>2022-01-19T13:58:45Z</time>
      </trkpt>
      <trkpt lat="44.88131" lon="5.52261">
        <ele>1912.2</ele>
        <time>2022-01-19T13:58:46Z</time>
      </trkpt>
      <trkpt lat="44.88131" lon="5.52261">
        <ele>1912.2</ele>
        <time>2022-01-19T13:58:47Z</time>
      </trkpt>
      <trkpt lat="44.88131" lon="5.52261">
        <ele>1912.2</ele>
        <time>2022-01-19T13:58:48Z</time>
      </trkpt>
      <trkpt lat="44.88131" lon="5.52261">
        <ele>1912.2</ele>
        <time>2022-01-19T13:58:49Z</time>
      </trkpt>
      <trkpt lat="44.88131" lon="5.52261">
        <ele>1912.2</ele>
        <time>2022-01-19T13:58:50Z</time>
      </trkpt>
      <trkpt lat="44.88131" lon="5.52261">
        <ele>1912.2</ele>
        <time>2022-01-19T13:58:51Z</time>
      </trkpt>
      <trkpt lat="44.88131" lon="5.52261">
        <ele>1912.2</ele>
        <time>2022-01-19T13:58:52Z</time>
      </trkpt>
      <trkpt lat="44.88131" lon="5.52261">
        <ele>1912.2</ele>
        <time>2022-01-19T13:58:53Z</time>
      </trkpt>
      <trkpt lat="44.88131" lon="5.52261">
        <ele>1912.2</ele>
        <time>2022-01-19T13:58:54Z</time>
      </trkpt>
      <trkpt lat="44.88131" lon="5.52261">
        <ele>1912.2</ele>
        <time>2022-01-19T13:58:55Z</time>
      </trkpt>
      <trkpt lat="44.88131" lon="5.52261">
        <ele>1912.2</ele>
        <time>2022-01-19T13:58:56Z</time>
      </trkpt>
      <trkpt lat="44.88131" lon="5.52261">
        <ele>1912.2</ele>
        <time>2022-01-19T13:58:57Z</time>
      </trkpt>
      <trkpt lat="44.88131" lon="5.52261">
        <ele>1912.2</ele>
        <time>2022-01-19T13:58:58Z</time>
      </trkpt>
      <trkpt lat="44.88131" lon="5.52261">
        <ele>1912.2</ele>
        <time>2022-01-19T13:58:59Z</time>
      </trkpt>
      <trkpt lat="44.88131" lon="5.52261">
        <ele>1912.2</ele>
        <time>2022-01-19T13:59:00Z</time>
      </trkpt>
      <trkpt lat="44.88131" lon="5.52261">
        <ele>1912.2</ele>
        <time>2022-01-19T13:59:01Z</time>
      </trkpt>
      <trkpt lat="44.88131" lon="5.52261">
        <ele>1912.2</ele>
        <time>2022-01-19T13:59:02Z</time>
      </trkpt>
      <trkpt lat="44.88131" lon="5.52261">
        <ele>1912.2</ele>
        <time>2022-01-19T13:59:03Z</time>
      </trkpt>
      <trkpt lat="44.88131" lon="5.52261">
        <ele>1912.2</ele>
        <time>2022-01-19T13:59:04Z</time>
      </trkpt>
      <trkpt lat="44.88131" lon="5.52261">
        <ele>1912.2</ele>
        <time>2022-01-19T13:59:05Z</time>
      </trkpt>
      <trkpt lat="44.88131" lon="5.52261">
        <ele>1912.2</ele>
        <time>2022-01-19T13:59:06Z</time>
      </trkpt>
      <trkpt lat="44.88131" lon="5.52261">
        <ele>1912.2</ele>
        <time>2022-01-19T13:59:07Z</time>
      </trkpt>
      <trkpt lat="44.88131" lon="5.52261">
        <ele>1912.2</ele>
        <time>2022-01-19T13:59:08Z</time>
      </trkpt>
      <trkpt lat="44.88131" lon="5.52261">
        <ele>1912.2</ele>
        <time>2022-01-19T13:59:09Z</time>
      </trkpt>
      <trkpt lat="44.88131" lon="5.52261">
        <ele>1912.2</ele>
        <time>2022-01-19T13:59:10Z</time>
      </trkpt>
      <trkpt lat="44.88131" lon="5.52261">
        <ele>1912.2</ele>
        <time>2022-01-19T13:59:11Z</time>
      </trkpt>
      <trkpt lat="44.88131" lon="5.52261">
        <ele>1912.2</ele>
        <time>2022-01-19T13:59:12Z</time>
      </trkpt>
      <trkpt lat="44.88131" lon="5.52261">
        <ele>1912.2</ele>
        <time>2022-01-19T13:59:13Z</time>
      </trkpt>
      <trkpt lat="44.88131" lon="5.52261">
        <ele>1912.2</ele>
        <time>2022-01-19T13:59:14Z</time>
      </trkpt>
      <trkpt lat="44.88131" lon="5.52261">
        <ele>1912.2</ele>
        <time>2022-01-19T13:59:15Z</time>
      </trkpt>
      <trkpt lat="44.88131" lon="5.52261">
        <ele>1912.2</ele>
        <time>2022-01-19T13:59:16Z</time>
      </trkpt>
      <trkpt lat="44.88131" lon="5.52261">
        <ele>1912.2</ele>
        <time>2022-01-19T13:59:17Z</time>
      </trkpt>
      <trkpt lat="44.88131" lon="5.52261">
        <ele>1912.2</ele>
        <time>2022-01-19T13:59:18Z</time>
      </trkpt>
      <trkpt lat="44.88131" lon="5.52261">
        <ele>1912.2</ele>
        <time>2022-01-19T13:59:19Z</time>
      </trkpt>
      <trkpt lat="44.88131" lon="5.52261">
        <ele>1912.2</ele>
        <time>2022-01-19T13:59:20Z</time>
      </trkpt>
      <trkpt lat="44.88131" lon="5.52261">
        <ele>1912.2</ele>
        <time>2022-01-19T13:59:21Z</time>
      </trkpt>
      <trkpt lat="44.88131" lon="5.52261">
        <ele>1912.2</ele>
        <time>2022-01-19T13:59:22Z</time>
      </trkpt>
      <trkpt lat="44.88131" lon="5.52261">
        <ele>1912.2</ele>
        <time>2022-01-19T13:59:23Z</time>
      </trkpt>
      <trkpt lat="44.88131" lon="5.52261">
        <ele>1912.2</ele>
        <time>2022-01-19T13:59:24Z</time>
      </trkpt>
      <trkpt lat="44.88131" lon="5.52261">
        <ele>1912.2</ele>
        <time>2022-01-19T13:59:25Z</time>
      </trkpt>
      <trkpt lat="44.88131" lon="5.52261">
        <ele>1912.2</ele>
        <time>2022-01-19T13:59:26Z</time>
      </trkpt>
      <trkpt lat="44.88131" lon="5.52261">
        <ele>1912.2</ele>
        <time>2022-01-19T13:59:27Z</time>
      </trkpt>
      <trkpt lat="44.88131" lon="5.52261">
        <ele>1912.2</ele>
        <time>2022-01-19T13:59:28Z</time>
      </trkpt>
      <trkpt lat="44.88131" lon="5.52261">
        <ele>1912.2</ele>
        <time>2022-01-19T13:59:29Z</time>
      </trkpt>
      <trkpt lat="44.88131" lon="5.52261">
        <ele>1912.2</ele>
        <time>2022-01-19T13:59:30Z</time>
      </trkpt>
      <trkpt lat="44.88131" lon="5.52261">
        <ele>1912.2</ele>
        <time>2022-01-19T13:59:31Z</time>
      </trkpt>
      <trkpt lat="44.88131" lon="5.52261">
        <ele>1912.2</ele>
        <time>2022-01-19T13:59:32Z</time>
      </trkpt>
      <trkpt lat="44.88131" lon="5.52261">
        <ele>1912.2</ele>
        <time>2022-01-19T13:59:33Z</time>
      </trkpt>
      <trkpt lat="44.88131" lon="5.52261">
        <ele>1912.2</ele>
        <time>2022-01-19T13:59:34Z</time>
      </trkpt>
      <trkpt lat="44.88131" lon="5.52261">
        <ele>1912.2</ele>
        <time>2022-01-19T13:59:35Z</time>
      </trkpt>
      <trkpt lat="44.88131" lon="5.52261">
        <ele>1912.2</ele>
        <time>2022-01-19T13:59:36Z</time>
      </trkpt>
      <trkpt lat="44.88131" lon="5.52261">
        <ele>1912.2</ele>
        <time>2022-01-19T13:59:37Z</time>
      </trkpt>
      <trkpt lat="44.88131" lon="5.52261">
        <ele>1912.2</ele>
        <time>2022-01-19T13:59:38Z</time>
      </trkpt>
      <trkpt lat="44.88131" lon="5.52261">
        <ele>1912.2</ele>
        <time>2022-01-19T13:59:39Z</time>
      </trkpt>
      <trkpt lat="44.88131" lon="5.52261">
        <ele>1912.2</ele>
        <time>2022-01-19T13:59:40Z</time>
      </trkpt>
      <trkpt lat="44.88131" lon="5.52261">
        <ele>1912.2</ele>
        <time>2022-01-19T13:59:41Z</time>
      </trkpt>
      <trkpt lat="44.88131" lon="5.52261">
        <ele>1912.2</ele>
        <time>2022-01-19T13:59:42Z</time>
      </trkpt>
      <trkpt lat="44.88131" lon="5.52261">
        <ele>1912.2</ele>
        <time>2022-01-19T13:59:43Z</time>
      </trkpt>
      <trkpt lat="44.88131" lon="5.52261">
        <ele>1912.2</ele>
        <time>2022-01-19T13:59:44Z</time>
      </trkpt>
      <trkpt lat="44.88131" lon="5.52261">
        <ele>1912.2</ele>
        <time>2022-01-19T13:59:45Z</time>
      </trkpt>
      <trkpt lat="44.88131" lon="5.52261">
        <ele>1912.2</ele>
        <time>2022-01-19T13:59:46Z</time>
      </trkpt>
      <trkpt lat="44.88131" lon="5.52261">
        <ele>1912.2</ele>
        <time>2022-01-19T13:59:47Z</time>
      </trkpt>
      <trkpt lat="44.88131" lon="5.52261">
        <ele>1912.2</ele>
        <time>2022-01-19T13:59:48Z</time>
      </trkpt>
      <trkpt lat="44.88131" lon="5.52261">
        <ele>1912.2</ele>
        <time>2022-01-19T13:59:49Z</time>
      </trkpt>
      <trkpt lat="44.88131" lon="5.52261">
        <ele>1912.2</ele>
        <time>2022-01-19T13:59:50Z</time>
      </trkpt>
      <trkpt lat="44.88131" lon="5.52261">
        <ele>1912.2</ele>
        <time>2022-01-19T13:59:51Z</time>
      </trkpt>
      <trkpt lat="44.88131" lon="5.52261">
        <ele>1912.2</ele>
        <time>2022-01-19T13:59:52Z</time>
      </trkpt>
      <trkpt lat="44.88131" lon="5.52261">
        <ele>1912.2</ele>
        <time>2022-01-19T13:59:53Z</time>
      </trkpt>
      <trkpt lat="44.88131" lon="5.52261">
        <ele>1912.2</ele>
        <time>2022-01-19T13:59:54Z</time>
      </trkpt>
      <trkpt lat="44.88131" lon="5.52261">
        <ele>1912.2</ele>
        <time>2022-01-19T13:59:55Z</time>
      </trkpt>
      <trkpt lat="44.88131" lon="5.52261">
        <ele>1912.2</ele>
        <time>2022-01-19T13:59:56Z</time>
      </trkpt>
      <trkpt lat="44.88131" lon="5.52261">
        <ele>1912.2</ele>
        <time>2022-01-19T13:59:57Z</time>
      </trkpt>
      <trkpt lat="44.88131" lon="5.52261">
        <ele>1912.2</ele>
        <time>2022-01-19T13:59:58Z</time>
      </trkpt>
      <trkpt lat="44.88131" lon="5.52261">
        <ele>1912.2</ele>
        <time>2022-01-19T13:59:59Z</time>
      </trkpt>
      <trkpt lat="44.88131" lon="5.52261">
        <ele>1912.2</ele>
        <time>2022-01-19T14:00:00Z</time>
      </trkpt>
      <trkpt lat="44.88131" lon="5.52261">
        <ele>1912.2</ele>
        <time>2022-01-19T14:00:01Z</time>
      </trkpt>
      <trkpt lat="44.88131" lon="5.52261">
        <ele>1912.2</ele>
        <time>2022-01-19T14:00:02Z</time>
      </trkpt>
      <trkpt lat="44.88131" lon="5.52261">
        <ele>1912.2</ele>
        <time>2022-01-19T14:00:03Z</time>
      </trkpt>
      <trkpt lat="44.88131" lon="5.52261">
        <ele>1912.2</ele>
        <time>2022-01-19T14:00:04Z</time>
      </trkpt>
      <trkpt lat="44.88131" lon="5.52261">
        <ele>1912.2</ele>
        <time>2022-01-19T14:00:05Z</time>
      </trkpt>
      <trkpt lat="44.88131" lon="5.52261">
        <ele>1912.2</ele>
        <time>2022-01-19T14:00:06Z</time>
      </trkpt>
      <trkpt lat="44.88131" lon="5.52261">
        <ele>1912.2</ele>
        <time>2022-01-19T14:00:07Z</time>
      </trkpt>
      <trkpt lat="44.88131" lon="5.52261">
        <ele>1912.2</ele>
        <time>2022-01-19T14:00:08Z</time>
      </trkpt>
      <trkpt lat="44.88131" lon="5.52261">
        <ele>1912.2</ele>
        <time>2022-01-19T14:00:09Z</time>
      </trkpt>
      <trkpt lat="44.88131" lon="5.52261">
        <ele>1912.2</ele>
        <time>2022-01-19T14:00:10Z</time>
      </trkpt>
      <trkpt lat="44.88131" lon="5.52261">
        <ele>1912.2</ele>
        <time>2022-01-19T14:00:11Z</time>
      </trkpt>
      <trkpt lat="44.88131" lon="5.52261">
        <ele>1912.2</ele>
        <time>2022-01-19T14:00:12Z</time>
      </trkpt>
      <trkpt lat="44.88131" lon="5.52261">
        <ele>1912.2</ele>
        <time>2022-01-19T14:00:13Z</time>
      </trkpt>
      <trkpt lat="44.88131" lon="5.52261">
        <ele>1912.2</ele>
        <time>2022-01-19T14:00:14Z</time>
      </trkpt>
      <trkpt lat="44.88131" lon="5.52261">
        <ele>1912.2</ele>
        <time>2022-01-19T14:00:15Z</time>
      </trkpt>
      <trkpt lat="44.88131" lon="5.52261">
        <ele>1912.2</ele>
        <time>2022-01-19T14:00:16Z</time>
      </trkpt>
      <trkpt lat="44.88131" lon="5.52261">
        <ele>1912.2</ele>
        <time>2022-01-19T14:00:17Z</time>
      </trkpt>
      <trkpt lat="44.88131" lon="5.52261">
        <ele>1912.2</ele>
        <time>2022-01-19T14:00:18Z</time>
      </trkpt>
      <trkpt lat="44.88131" lon="5.52261">
        <ele>1912.2</ele>
        <time>2022-01-19T14:00:19Z</time>
      </trkpt>
      <trkpt lat="44.88131" lon="5.52261">
        <ele>1912.2</ele>
        <time>2022-01-19T14:00:20Z</time>
      </trkpt>
      <trkpt lat="44.88131" lon="5.52261">
        <ele>1912.2</ele>
        <time>2022-01-19T14:00:21Z</time>
      </trkpt>
      <trkpt lat="44.88131" lon="5.52261">
        <ele>1912.2</ele>
        <time>2022-01-19T14:00:22Z</time>
      </trkpt>
      <trkpt lat="44.88131" lon="5.52261">
        <ele>1912.2</ele>
        <time>2022-01-19T14:00:23Z</time>
      </trkpt>
      <trkpt lat="44.88131" lon="5.52261">
        <ele>1912.2</ele>
        <time>2022-01-19T14:00:24Z</time>
      </trkpt>
      <trkpt lat="44.88131" lon="5.52261">
        <ele>1912.2</ele>
        <time>2022-01-19T14:00:25Z</time>
      </trkpt>
      <trkpt lat="44.88131" lon="5.52261">
        <ele>1912.2</ele>
        <time>2022-01-19T14:00:26Z</time>
      </trkpt>
      <trkpt lat="44.88131" lon="5.52261">
        <ele>1912.2</ele>
        <time>2022-01-19T14:00:27Z</time>
      </trkpt>
      <trkpt lat="44.88131" lon="5.52261">
        <ele>1912.2</ele>
        <time>2022-01-19T14:00:28Z</time>
      </trkpt>
      <trkpt lat="44.88131" lon="5.52261">
        <ele>1912.2</ele>
        <time>2022-01-19T14:00:29Z</time>
      </trkpt>
      <trkpt lat="44.88131" lon="5.52261">
        <ele>1912.2</ele>
        <time>2022-01-19T14:00:30Z</time>
      </trkpt>
      <trkpt lat="44.88131" lon="5.52261">
        <ele>1912.2</ele>
        <time>2022-01-19T14:00:31Z</time>
      </trkpt>
      <trkpt lat="44.88131" lon="5.52261">
        <ele>1912.2</ele>
        <time>2022-01-19T14:00:32Z</time>
      </trkpt>
      <trkpt lat="44.88131" lon="5.52261">
        <ele>1912.2</ele>
        <time>2022-01-19T14:00:33Z</time>
      </trkpt>
      <trkpt lat="44.88131" lon="5.52261">
        <ele>1912.2</ele>
        <time>2022-01-19T14:00:34Z</time>
      </trkpt>
      <trkpt lat="44.88131" lon="5.52261">
        <ele>1912.2</ele>
        <time>2022-01-19T14:00:35Z</time>
      </trkpt>
      <trkpt lat="44.88131" lon="5.52261">
        <ele>1912.2</ele>
        <time>2022-01-19T14:00:36Z</time>
      </trkpt>
      <trkpt lat="44.88131" lon="5.52261">
        <ele>1912.2</ele>
        <time>2022-01-19T14:00:37Z</time>
      </trkpt>
      <trkpt lat="44.88131" lon="5.52261">
        <ele>1912.2</ele>
        <time>2022-01-19T14:00:38Z</time>
      </trkpt>
      <trkpt lat="44.88131" lon="5.52261">
        <ele>1912.2</ele>
        <time>2022-01-19T14:00:39Z</time>
      </trkpt>
      <trkpt lat="44.88128" lon="5.52262">
        <ele>1912.6</ele>
        <time>2022-01-19T14:00:40Z</time>
      </trkpt>
      <trkpt lat="44.88128" lon="5.52262">
        <ele>1912.6</ele>
        <time>2022-01-19T14:00:41Z</time>
      </trkpt>
      <trkpt lat="44.88128" lon="5.52262">
        <ele>1912.6</ele>
        <time>2022-01-19T14:00:42Z</time>
      </trkpt>
      <trkpt lat="44.88128" lon="5.52262">
        <ele>1912.6</ele>
        <time>2022-01-19T14:00:43Z</time>
      </trkpt>
      <trkpt lat="44.88128" lon="5.52262">
        <ele>1912.6</ele>
        <time>2022-01-19T14:00:44Z</time>
      </trkpt>
      <trkpt lat="44.88128" lon="5.52262">
        <ele>1912.6</ele>
        <time>2022-01-19T14:00:45Z</time>
      </trkpt>
      <trkpt lat="44.88128" lon="5.52262">
        <ele>1912.6</ele>
        <time>2022-01-19T14:00:46Z</time>
      </trkpt>
      <trkpt lat="44.88128" lon="5.52262">
        <ele>1912.6</ele>
        <time>2022-01-19T14:00:47Z</time>
      </trkpt>
      <trkpt lat="44.88128" lon="5.52262">
        <ele>1912.6</ele>
        <time>2022-01-19T14:00:48Z</time>
      </trkpt>
      <trkpt lat="44.88128" lon="5.52262">
        <ele>1912.6</ele>
        <time>2022-01-19T14:00:49Z</time>
      </trkpt>
      <trkpt lat="44.88128" lon="5.52262">
        <ele>1912.6</ele>
        <time>2022-01-19T14:00:50Z</time>
      </trkpt>
      <trkpt lat="44.88128" lon="5.52262">
        <ele>1912.6</ele>
        <time>2022-01-19T14:00:51Z</time>
      </trkpt>
      <trkpt lat="44.88128" lon="5.52262">
        <ele>1912.6</ele>
        <time>2022-01-19T14:00:52Z</time>
      </trkpt>
      <trkpt lat="44.88128" lon="5.52262">
        <ele>1912.6</ele>
        <time>2022-01-19T14:00:53Z</time>
      </trkpt>
      <trkpt lat="44.88128" lon="5.52262">
        <ele>1912.6</ele>
        <time>2022-01-19T14:00:54Z</time>
      </trkpt>
      <trkpt lat="44.88128" lon="5.52262">
        <ele>1912.6</ele>
        <time>2022-01-19T14:00:55Z</time>
      </trkpt>
      <trkpt lat="44.88128" lon="5.52262">
        <ele>1912.6</ele>
        <time>2022-01-19T14:00:56Z</time>
      </trkpt>
      <trkpt lat="44.88128" lon="5.52262">
        <ele>1912.6</ele>
        <time>2022-01-19T14:00:57Z</time>
      </trkpt>
      <trkpt lat="44.88128" lon="5.52262">
        <ele>1912.6</ele>
        <time>2022-01-19T14:00:58Z</time>
      </trkpt>
      <trkpt lat="44.88128" lon="5.52262">
        <ele>1912.6</ele>
        <time>2022-01-19T14:00:59Z</time>
      </trkpt>
      <trkpt lat="44.88128" lon="5.52262">
        <ele>1912.6</ele>
        <time>2022-01-19T14:01:00Z</time>
      </trkpt>
      <trkpt lat="44.88128" lon="5.52262">
        <ele>1912.6</ele>
        <time>2022-01-19T14:01:01Z</time>
      </trkpt>
      <trkpt lat="44.88128" lon="5.52262">
        <ele>1912.6</ele>
        <time>2022-01-19T14:01:02Z</time>
      </trkpt>
      <trkpt lat="44.88128" lon="5.52262">
        <ele>1912.6</ele>
        <time>2022-01-19T14:01:03Z</time>
      </trkpt>
      <trkpt lat="44.88128" lon="5.52262">
        <ele>1912.6</ele>
        <time>2022-01-19T14:01:04Z</time>
      </trkpt>
      <trkpt lat="44.88128" lon="5.52262">
        <ele>1912.6</ele>
        <time>2022-01-19T14:01:05Z</time>
      </trkpt>
      <trkpt lat="44.88128" lon="5.52262">
        <ele>1912.6</ele>
        <time>2022-01-19T14:01:06Z</time>
      </trkpt>
      <trkpt lat="44.88128" lon="5.52262">
        <ele>1912.6</ele>
        <time>2022-01-19T14:01:07Z</time>
      </trkpt>
      <trkpt lat="44.88128" lon="5.52262">
        <ele>1912.6</ele>
        <time>2022-01-19T14:01:08Z</time>
      </trkpt>
      <trkpt lat="44.88128" lon="5.52262">
        <ele>1912.6</ele>
        <time>2022-01-19T14:01:09Z</time>
      </trkpt>
      <trkpt lat="44.88128" lon="5.52262">
        <ele>1912.6</ele>
        <time>2022-01-19T14:01:10Z</time>
      </trkpt>
      <trkpt lat="44.88128" lon="5.52262">
        <ele>1912.6</ele>
        <time>2022-01-19T14:01:11Z</time>
      </trkpt>
      <trkpt lat="44.88128" lon="5.52262">
        <ele>1912.6</ele>
        <time>2022-01-19T14:01:12Z</time>
      </trkpt>
      <trkpt lat="44.88128" lon="5.52262">
        <ele>1912.6</ele>
        <time>2022-01-19T14:01:13Z</time>
      </trkpt>
      <trkpt lat="44.88128" lon="5.52262">
        <ele>1912.6</ele>
        <time>2022-01-19T14:01:14Z</time>
      </trkpt>
      <trkpt lat="44.88128" lon="5.52262">
        <ele>1912.6</ele>
        <time>2022-01-19T14:01:15Z</time>
      </trkpt>
      <trkpt lat="44.88128" lon="5.52262">
        <ele>1912.6</ele>
        <time>2022-01-19T14:01:16Z</time>
      </trkpt>
      <trkpt lat="44.88128" lon="5.52262">
        <ele>1912.6</ele>
        <time>2022-01-19T14:01:17Z</time>
      </trkpt>
      <trkpt lat="44.88128" lon="5.52262">
        <ele>1912.6</ele>
        <time>2022-01-19T14:01:18Z</time>
      </trkpt>
      <trkpt lat="44.88128" lon="5.52262">
        <ele>1912.6</ele>
        <time>2022-01-19T14:01:19Z</time>
      </trkpt>
      <trkpt lat="44.88128" lon="5.52262">
        <ele>1912.6</ele>
        <time>2022-01-19T14:01:20Z</time>
      </trkpt>
      <trkpt lat="44.88128" lon="5.52262">
        <ele>1912.6</ele>
        <time>2022-01-19T14:01:21Z</time>
      </trkpt>
      <trkpt lat="44.88128" lon="5.52262">
        <ele>1912.6</ele>
        <time>2022-01-19T14:01:22Z</time>
      </trkpt>
      <trkpt lat="44.88128" lon="5.52262">
        <ele>1912.6</ele>
        <time>2022-01-19T14:01:23Z</time>
      </trkpt>
      <trkpt lat="44.88128" lon="5.52262">
        <ele>1912.6</ele>
        <time>2022-01-19T14:01:24Z</time>
      </trkpt>
      <trkpt lat="44.88128" lon="5.52262">
        <ele>1912.6</ele>
        <time>2022-01-19T14:01:25Z</time>
      </trkpt>
      <trkpt lat="44.88128" lon="5.52262">
        <ele>1912.6</ele>
        <time>2022-01-19T14:01:26Z</time>
      </trkpt>
      <trkpt lat="44.88128" lon="5.52262">
        <ele>1912.6</ele>
        <time>2022-01-19T14:01:27Z</time>
      </trkpt>
      <trkpt lat="44.88128" lon="5.52262">
        <ele>1912.6</ele>
        <time>2022-01-19T14:01:28Z</time>
      </trkpt>
      <trkpt lat="44.88128" lon="5.52262">
        <ele>1912.6</ele>
        <time>2022-01-19T14:01:29Z</time>
      </trkpt>
      <trkpt lat="44.88128" lon="5.52262">
        <ele>1912.6</ele>
        <time>2022-01-19T14:01:30Z</time>
      </trkpt>
      <trkpt lat="44.88128" lon="5.52262">
        <ele>1912.6</ele>
        <time>2022-01-19T14:01:31Z</time>
      </trkpt>
      <trkpt lat="44.88128" lon="5.52262">
        <ele>1912.6</ele>
        <time>2022-01-19T14:01:32Z</time>
      </trkpt>
      <trkpt lat="44.88128" lon="5.52262">
        <ele>1912.6</ele>
        <time>2022-01-19T14:01:33Z</time>
      </trkpt>
      <trkpt lat="44.88128" lon="5.52262">
        <ele>1912.6</ele>
        <time>2022-01-19T14:01:34Z</time>
      </trkpt>
      <trkpt lat="44.88128" lon="5.52262">
        <ele>1912.6</ele>
        <time>2022-01-19T14:01:35Z</time>
      </trkpt>
      <trkpt lat="44.88128" lon="5.52262">
        <ele>1912.6</ele>
        <time>2022-01-19T14:01:36Z</time>
      </trkpt>
      <trkpt lat="44.88128" lon="5.52262">
        <ele>1912.6</ele>
        <time>2022-01-19T14:01:37Z</time>
      </trkpt>
      <trkpt lat="44.88128" lon="5.52262">
        <ele>1912.6</ele>
        <time>2022-01-19T14:01:38Z</time>
      </trkpt>
      <trkpt lat="44.88128" lon="5.52262">
        <ele>1912.6</ele>
        <time>2022-01-19T14:01:39Z</time>
      </trkpt>
      <trkpt lat="44.88128" lon="5.52262">
        <ele>1912.6</ele>
        <time>2022-01-19T14:01:40Z</time>
      </trkpt>
      <trkpt lat="44.88128" lon="5.52262">
        <ele>1912.6</ele>
        <time>2022-01-19T14:01:41Z</time>
      </trkpt>
      <trkpt lat="44.88128" lon="5.52262">
        <ele>1912.6</ele>
        <time>2022-01-19T14:01:42Z</time>
      </trkpt>
      <trkpt lat="44.88128" lon="5.52262">
        <ele>1912.6</ele>
        <time>2022-01-19T14:01:43Z</time>
      </trkpt>
      <trkpt lat="44.88128" lon="5.52262">
        <ele>1912.6</ele>
        <time>2022-01-19T14:01:44Z</time>
      </trkpt>
      <trkpt lat="44.88128" lon="5.52262">
        <ele>1912.6</ele>
        <time>2022-01-19T14:01:45Z</time>
      </trkpt>
      <trkpt lat="44.88128" lon="5.52262">
        <ele>1912.6</ele>
        <time>2022-01-19T14:01:46Z</time>
      </trkpt>
      <trkpt lat="44.88128" lon="5.52262">
        <ele>1912.6</ele>
        <time>2022-01-19T14:01:47Z</time>
      </trkpt>
      <trkpt lat="44.88128" lon="5.52262">
        <ele>1912.6</ele>
        <time>2022-01-19T14:01:48Z</time>
      </trkpt>
      <trkpt lat="44.88128" lon="5.52262">
        <ele>1912.6</ele>
        <time>2022-01-19T14:01:49Z</time>
      </trkpt>
      <trkpt lat="44.88128" lon="5.52262">
        <ele>1912.6</ele>
        <time>2022-01-19T14:01:50Z</time>
      </trkpt>
      <trkpt lat="44.88128" lon="5.52262">
        <ele>1912.6</ele>
        <time>2022-01-19T14:01:51Z</time>
      </trkpt>
      <trkpt lat="44.88128" lon="5.52262">
        <ele>1912.6</ele>
        <time>2022-01-19T14:01:52Z</time>
      </trkpt>
      <trkpt lat="44.88128" lon="5.52262">
        <ele>1912.6</ele>
        <time>2022-01-19T14:01:53Z</time>
      </trkpt>
      <trkpt lat="44.88128" lon="5.52262">
        <ele>1912.6</ele>
        <time>2022-01-19T14:01:54Z</time>
      </trkpt>
      <trkpt lat="44.88128" lon="5.52262">
        <ele>1912.6</ele>
        <time>2022-01-19T14:01:55Z</time>
      </trkpt>
      <trkpt lat="44.88128" lon="5.52262">
        <ele>1912.6</ele>
        <time>2022-01-19T14:01:56Z</time>
      </trkpt>
      <trkpt lat="44.88128" lon="5.52262">
        <ele>1912.6</ele>
        <time>2022-01-19T14:01:57Z</time>
      </trkpt>
      <trkpt lat="44.88128" lon="5.52262">
        <ele>1912.6</ele>
        <time>2022-01-19T14:01:58Z</time>
      </trkpt>
      <trkpt lat="44.88128" lon="5.52262">
        <ele>1912.6</ele>
        <time>2022-01-19T14:01:59Z</time>
      </trkpt>
      <trkpt lat="44.88128" lon="5.52262">
        <ele>1912.6</ele>
        <time>2022-01-19T14:02:00Z</time>
      </trkpt>
      <trkpt lat="44.88128" lon="5.52262">
        <ele>1912.6</ele>
        <time>2022-01-19T14:02:01Z</time>
      </trkpt>
      <trkpt lat="44.88128" lon="5.52262">
        <ele>1912.6</ele>
        <time>2022-01-19T14:02:02Z</time>
      </trkpt>
      <trkpt lat="44.88128" lon="5.52262">
        <ele>1912.6</ele>
        <time>2022-01-19T14:02:03Z</time>
      </trkpt>
      <trkpt lat="44.88128" lon="5.52262">
        <ele>1912.6</ele>
        <time>2022-01-19T14:02:04Z</time>
      </trkpt>
      <trkpt lat="44.88128" lon="5.52262">
        <ele>1912.6</ele>
        <time>2022-01-19T14:02:05Z</time>
      </trkpt>
      <trkpt lat="44.88128" lon="5.52262">
        <ele>1912.6</ele>
        <time>2022-01-19T14:02:06Z</time>
      </trkpt>
      <trkpt lat="44.88128" lon="5.52262">
        <ele>1912.6</ele>
        <time>2022-01-19T14:02:07Z</time>
      </trkpt>
      <trkpt lat="44.88128" lon="5.52262">
        <ele>1912.6</ele>
        <time>2022-01-19T14:02:08Z</time>
      </trkpt>
      <trkpt lat="44.88128" lon="5.52262">
        <ele>1912.6</ele>
        <time>2022-01-19T14:02:09Z</time>
      </trkpt>
      <trkpt lat="44.88128" lon="5.52262">
        <ele>1912.6</ele>
        <time>2022-01-19T14:02:10Z</time>
      </trkpt>
      <trkpt lat="44.88128" lon="5.52262">
        <ele>1912.6</ele>
        <time>2022-01-19T14:02:11Z</time>
      </trkpt>
      <trkpt lat="44.88128" lon="5.52262">
        <ele>1912.6</ele>
        <time>2022-01-19T14:02:12Z</time>
      </trkpt>
      <trkpt lat="44.88128" lon="5.52262">
        <ele>1912.6</ele>
        <time>2022-01-19T14:02:13Z</time>
      </trkpt>
      <trkpt lat="44.88128" lon="5.52262">
        <ele>1912.6</ele>
        <time>2022-01-19T14:02:14Z</time>
      </trkpt>
      <trkpt lat="44.88128" lon="5.52262">
        <ele>1912.6</ele>
        <time>2022-01-19T14:02:15Z</time>
      </trkpt>
      <trkpt lat="44.88128" lon="5.52262">
        <ele>1912.6</ele>
        <time>2022-01-19T14:02:16Z</time>
      </trkpt>
      <trkpt lat="44.88128" lon="5.52262">
        <ele>1912.6</ele>
        <time>2022-01-19T14:02:17Z</time>
      </trkpt>
      <trkpt lat="44.88128" lon="5.52262">
        <ele>1912.6</ele>
        <time>2022-01-19T14:02:18Z</time>
      </trkpt>
      <trkpt lat="44.88128" lon="5.52262">
        <ele>1912.6</ele>
        <time>2022-01-19T14:02:19Z</time>
      </trkpt>
      <trkpt lat="44.88128" lon="5.52262">
        <ele>1912.6</ele>
        <time>2022-01-19T14:02:20Z</time>
      </trkpt>
      <trkpt lat="44.88128" lon="5.52262">
        <ele>1912.6</ele>
        <time>2022-01-19T14:02:21Z</time>
      </trkpt>
      <trkpt lat="44.88128" lon="5.52262">
        <ele>1912.6</ele>
        <time>2022-01-19T14:02:22Z</time>
      </trkpt>
      <trkpt lat="44.88128" lon="5.52262">
        <ele>1912.6</ele>
        <time>2022-01-19T14:02:23Z</time>
      </trkpt>
      <trkpt lat="44.88128" lon="5.52262">
        <ele>1912.6</ele>
        <time>2022-01-19T14:02:24Z</time>
      </trkpt>
      <trkpt lat="44.88128" lon="5.52262">
        <ele>1912.6</ele>
        <time>2022-01-19T14:02:25Z</time>
      </trkpt>
      <trkpt lat="44.88128" lon="5.52262">
        <ele>1912.6</ele>
        <time>2022-01-19T14:02:26Z</time>
      </trkpt>
      <trkpt lat="44.88128" lon="5.52262">
        <ele>1912.6</ele>
        <time>2022-01-19T14:02:27Z</time>
      </trkpt>
      <trkpt lat="44.88128" lon="5.52262">
        <ele>1912.6</ele>
        <time>2022-01-19T14:02:28Z</time>
      </trkpt>
      <trkpt lat="44.88128" lon="5.52262">
        <ele>1912.6</ele>
        <time>2022-01-19T14:02:29Z</time>
      </trkpt>
      <trkpt lat="44.88128" lon="5.52262">
        <ele>1912.6</ele>
        <time>2022-01-19T14:02:30Z</time>
      </trkpt>
      <trkpt lat="44.88128" lon="5.52262">
        <ele>1912.6</ele>
        <time>2022-01-19T14:02:31Z</time>
      </trkpt>
      <trkpt lat="44.88128" lon="5.52262">
        <ele>1912.6</ele>
        <time>2022-01-19T14:02:32Z</time>
      </trkpt>
      <trkpt lat="44.88128" lon="5.52262">
        <ele>1912.6</ele>
        <time>2022-01-19T14:02:33Z</time>
      </trkpt>
      <trkpt lat="44.88128" lon="5.52262">
        <ele>1912.6</ele>
        <time>2022-01-19T14:02:34Z</time>
      </trkpt>
      <trkpt lat="44.88128" lon="5.52262">
        <ele>1912.6</ele>
        <time>2022-01-19T14:02:35Z</time>
      </trkpt>
      <trkpt lat="44.88128" lon="5.52262">
        <ele>1912.6</ele>
        <time>2022-01-19T14:02:36Z</time>
      </trkpt>
      <trkpt lat="44.88128" lon="5.52262">
        <ele>1912.6</ele>
        <time>2022-01-19T14:02:37Z</time>
      </trkpt>
      <trkpt lat="44.88128" lon="5.52262">
        <ele>1912.6</ele>
        <time>2022-01-19T14:02:38Z</time>
      </trkpt>
      <trkpt lat="44.88128" lon="5.52262">
        <ele>1912.6</ele>
        <time>2022-01-19T14:02:39Z</time>
      </trkpt>
      <trkpt lat="44.88128" lon="5.52262">
        <ele>1912.6</ele>
        <time>2022-01-19T14:02:40Z</time>
      </trkpt>
      <trkpt lat="44.88128" lon="5.52262">
        <ele>1912.6</ele>
        <time>2022-01-19T14:02:41Z</time>
      </trkpt>
      <trkpt lat="44.88128" lon="5.52262">
        <ele>1912.6</ele>
        <time>2022-01-19T14:02:42Z</time>
      </trkpt>
      <trkpt lat="44.88128" lon="5.52262">
        <ele>1912.6</ele>
        <time>2022-01-19T14:02:43Z</time>
      </trkpt>
      <trkpt lat="44.88128" lon="5.52262">
        <ele>1912.6</ele>
        <time>2022-01-19T14:02:44Z</time>
      </trkpt>
      <trkpt lat="44.88128" lon="5.52262">
        <ele>1912.6</ele>
        <time>2022-01-19T14:02:45Z</time>
      </trkpt>
      <trkpt lat="44.88128" lon="5.52262">
        <ele>1912.6</ele>
        <time>2022-01-19T14:02:46Z</time>
      </trkpt>
      <trkpt lat="44.88128" lon="5.52262">
        <ele>1912.6</ele>
        <time>2022-01-19T14:02:47Z</time>
      </trkpt>
      <trkpt lat="44.88128" lon="5.52262">
        <ele>1912.6</ele>
        <time>2022-01-19T14:02:48Z</time>
      </trkpt>
      <trkpt lat="44.88128" lon="5.52262">
        <ele>1912.6</ele>
        <time>2022-01-19T14:02:49Z</time>
      </trkpt>
      <trkpt lat="44.88128" lon="5.52262">
        <ele>1912.6</ele>
        <time>2022-01-19T14:02:50Z</time>
      </trkpt>
      <trkpt lat="44.88128" lon="5.52262">
        <ele>1912.6</ele>
        <time>2022-01-19T14:02:51Z</time>
      </trkpt>
      <trkpt lat="44.88128" lon="5.52262">
        <ele>1912.6</ele>
        <time>2022-01-19T14:02:52Z</time>
      </trkpt>
      <trkpt lat="44.88128" lon="5.52262">
        <ele>1912.6</ele>
        <time>2022-01-19T14:02:53Z</time>
      </trkpt>
      <trkpt lat="44.88128" lon="5.52262">
        <ele>1912.6</ele>
        <time>2022-01-19T14:02:54Z</time>
      </trkpt>
      <trkpt lat="44.88128" lon="5.52262">
        <ele>1912.6</ele>
        <time>2022-01-19T14:02:55Z</time>
      </trkpt>
      <trkpt lat="44.88128" lon="5.52262">
        <ele>1912.6</ele>
        <time>2022-01-19T14:02:56Z</time>
      </trkpt>
      <trkpt lat="44.88128" lon="5.52262">
        <ele>1912.6</ele>
        <time>2022-01-19T14:02:57Z</time>
      </trkpt>
      <trkpt lat="44.88128" lon="5.52262">
        <ele>1912.6</ele>
        <time>2022-01-19T14:02:58Z</time>
      </trkpt>
      <trkpt lat="44.88128" lon="5.52262">
        <ele>1912.6</ele>
        <time>2022-01-19T14:02:59Z</time>
      </trkpt>
      <trkpt lat="44.88128" lon="5.52262">
        <ele>1912.6</ele>
        <time>2022-01-19T14:03:00Z</time>
      </trkpt>
      <trkpt lat="44.88128" lon="5.52262">
        <ele>1912.6</ele>
        <time>2022-01-19T14:03:01Z</time>
      </trkpt>
      <trkpt lat="44.88128" lon="5.52262">
        <ele>1912.6</ele>
        <time>2022-01-19T14:03:02Z</time>
      </trkpt>
      <trkpt lat="44.88128" lon="5.52262">
        <ele>1912.6</ele>
        <time>2022-01-19T14:03:03Z</time>
      </trkpt>
      <trkpt lat="44.88128" lon="5.52262">
        <ele>1912.6</ele>
        <time>2022-01-19T14:03:04Z</time>
      </trkpt>
      <trkpt lat="44.88128" lon="5.52262">
        <ele>1912.6</ele>
        <time>2022-01-19T14:03:05Z</time>
      </trkpt>
      <trkpt lat="44.88128" lon="5.52262">
        <ele>1912.6</ele>
        <time>2022-01-19T14:03:06Z</time>
      </trkpt>
      <trkpt lat="44.88128" lon="5.52262">
        <ele>1912.6</ele>
        <time>2022-01-19T14:03:07Z</time>
      </trkpt>
      <trkpt lat="44.88128" lon="5.52262">
        <ele>1912.6</ele>
        <time>2022-01-19T14:03:08Z</time>
      </trkpt>
      <trkpt lat="44.88128" lon="5.52262">
        <ele>1912.6</ele>
        <time>2022-01-19T14:03:09Z</time>
      </trkpt>
      <trkpt lat="44.88128" lon="5.52262">
        <ele>1912.6</ele>
        <time>2022-01-19T14:03:10Z</time>
      </trkpt>
      <trkpt lat="44.88128" lon="5.52262">
        <ele>1912.6</ele>
        <time>2022-01-19T14:03:11Z</time>
      </trkpt>
      <trkpt lat="44.88128" lon="5.52262">
        <ele>1912.6</ele>
        <time>2022-01-19T14:03:12Z</time>
      </trkpt>
      <trkpt lat="44.88128" lon="5.52262">
        <ele>1912.6</ele>
        <time>2022-01-19T14:03:13Z</time>
      </trkpt>
      <trkpt lat="44.88128" lon="5.52262">
        <ele>1912.6</ele>
        <time>2022-01-19T14:03:14Z</time>
      </trkpt>
      <trkpt lat="44.88128" lon="5.52262">
        <ele>1912.6</ele>
        <time>2022-01-19T14:03:15Z</time>
      </trkpt>
      <trkpt lat="44.88128" lon="5.52262">
        <ele>1912.6</ele>
        <time>2022-01-19T14:03:16Z</time>
      </trkpt>
      <trkpt lat="44.88128" lon="5.52262">
        <ele>1912.6</ele>
        <time>2022-01-19T14:03:17Z</time>
      </trkpt>
      <trkpt lat="44.88128" lon="5.52262">
        <ele>1912.6</ele>
        <time>2022-01-19T14:03:18Z</time>
      </trkpt>
      <trkpt lat="44.88128" lon="5.52262">
        <ele>1912.6</ele>
        <time>2022-01-19T14:03:19Z</time>
      </trkpt>
      <trkpt lat="44.88128" lon="5.52262">
        <ele>1912.6</ele>
        <time>2022-01-19T14:03:20Z</time>
      </trkpt>
      <trkpt lat="44.88128" lon="5.52262">
        <ele>1912.6</ele>
        <time>2022-01-19T14:03:21Z</time>
      </trkpt>
      <trkpt lat="44.88128" lon="5.52262">
        <ele>1912.6</ele>
        <time>2022-01-19T14:03:22Z</time>
      </trkpt>
      <trkpt lat="44.88128" lon="5.52262">
        <ele>1912.6</ele>
        <time>2022-01-19T14:03:23Z</time>
      </trkpt>
      <trkpt lat="44.88128" lon="5.52262">
        <ele>1912.6</ele>
        <time>2022-01-19T14:03:24Z</time>
      </trkpt>
      <trkpt lat="44.88128" lon="5.52262">
        <ele>1912.6</ele>
        <time>2022-01-19T14:03:25Z</time>
      </trkpt>
      <trkpt lat="44.88128" lon="5.52262">
        <ele>1912.6</ele>
        <time>2022-01-19T14:03:26Z</time>
      </trkpt>
      <trkpt lat="44.88128" lon="5.52262">
        <ele>1912.6</ele>
        <time>2022-01-19T14:03:27Z</time>
      </trkpt>
      <trkpt lat="44.88128" lon="5.52262">
        <ele>1912.6</ele>
        <time>2022-01-19T14:03:28Z</time>
      </trkpt>
      <trkpt lat="44.88128" lon="5.52262">
        <ele>1912.6</ele>
        <time>2022-01-19T14:03:29Z</time>
      </trkpt>
      <trkpt lat="44.88128" lon="5.52262">
        <ele>1912.6</ele>
        <time>2022-01-19T14:03:30Z</time>
      </trkpt>
      <trkpt lat="44.88128" lon="5.52262">
        <ele>1912.6</ele>
        <time>2022-01-19T14:03:31Z</time>
      </trkpt>
      <trkpt lat="44.88128" lon="5.52262">
        <ele>1912.6</ele>
        <time>2022-01-19T14:03:32Z</time>
      </trkpt>
      <trkpt lat="44.88128" lon="5.52262">
        <ele>1912.6</ele>
        <time>2022-01-19T14:03:33Z</time>
      </trkpt>
      <trkpt lat="44.88128" lon="5.52262">
        <ele>1912.6</ele>
        <time>2022-01-19T14:03:34Z</time>
      </trkpt>
      <trkpt lat="44.88128" lon="5.52262">
        <ele>1912.6</ele>
        <time>2022-01-19T14:03:35Z</time>
      </trkpt>
      <trkpt lat="44.88128" lon="5.52262">
        <ele>1912.6</ele>
        <time>2022-01-19T14:03:36Z</time>
      </trkpt>
      <trkpt lat="44.88128" lon="5.52262">
        <ele>1912.6</ele>
        <time>2022-01-19T14:03:37Z</time>
      </trkpt>
      <trkpt lat="44.88128" lon="5.52262">
        <ele>1912.6</ele>
        <time>2022-01-19T14:03:38Z</time>
      </trkpt>
      <trkpt lat="44.88128" lon="5.52262">
        <ele>1912.6</ele>
        <time>2022-01-19T14:03:39Z</time>
      </trkpt>
      <trkpt lat="44.88128" lon="5.52262">
        <ele>1912.6</ele>
        <time>2022-01-19T14:03:40Z</time>
      </trkpt>
      <trkpt lat="44.88128" lon="5.52262">
        <ele>1912.6</ele>
        <time>2022-01-19T14:03:41Z</time>
      </trkpt>
      <trkpt lat="44.88128" lon="5.52262">
        <ele>1912.6</ele>
        <time>2022-01-19T14:03:42Z</time>
      </trkpt>
      <trkpt lat="44.88128" lon="5.52262">
        <ele>1912.6</ele>
        <time>2022-01-19T14:03:43Z</time>
      </trkpt>
      <trkpt lat="44.88131" lon="5.52263">
        <ele>1912.2</ele>
        <time>2022-01-19T14:03:44Z</time>
      </trkpt>
      <trkpt lat="44.88132" lon="5.52265">
        <ele>1912.2</ele>
        <time>2022-01-19T14:03:45Z</time>
      </trkpt>
      <trkpt lat="44.88131" lon="5.52267">
        <ele>1912.2</ele>
        <time>2022-01-19T14:03:46Z</time>
      </trkpt>
      <trkpt lat="44.88131" lon="5.5227">
        <ele>1912.1</ele>
        <time>2022-01-19T14:03:47Z</time>
      </trkpt>
      <trkpt lat="44.88131" lon="5.52272">
        <ele>1912.1</ele>
        <time>2022-01-19T14:03:48Z</time>
      </trkpt>
      <trkpt lat="44.8813" lon="5.52274">
        <ele>1912</ele>
        <time>2022-01-19T14:03:49Z</time>
      </trkpt>
      <trkpt lat="44.88131" lon="5.52277">
        <ele>1912</ele>
        <time>2022-01-19T14:03:50Z</time>
      </trkpt>
      <trkpt lat="44.88132" lon="5.52278">
        <ele>1911.9</ele>
        <time>2022-01-19T14:03:51Z</time>
      </trkpt>
      <trkpt lat="44.88133" lon="5.52279">
        <ele>1911.5</ele>
        <time>2022-01-19T14:03:52Z</time>
      </trkpt>
      <trkpt lat="44.88135" lon="5.5228">
        <ele>1911.5</ele>
        <time>2022-01-19T14:03:53Z</time>
      </trkpt>
      <trkpt lat="44.88136" lon="5.52281">
        <ele>1911.1</ele>
        <time>2022-01-19T14:03:54Z</time>
      </trkpt>
      <trkpt lat="44.88137" lon="5.52284">
        <ele>1910.9</ele>
        <time>2022-01-19T14:03:55Z</time>
      </trkpt>
      <trkpt lat="44.88138" lon="5.52285">
        <ele>1910.9</ele>
        <time>2022-01-19T14:03:56Z</time>
      </trkpt>
      <trkpt lat="44.88139" lon="5.52288">
        <ele>1910.3</ele>
        <time>2022-01-19T14:03:57Z</time>
      </trkpt>
      <trkpt lat="44.8814" lon="5.52291">
        <ele>1910</ele>
        <time>2022-01-19T14:03:58Z</time>
      </trkpt>
      <trkpt lat="44.88139" lon="5.52293">
        <ele>1910</ele>
        <time>2022-01-19T14:03:59Z</time>
      </trkpt>
      <trkpt lat="44.88139" lon="5.52297">
        <ele>1909.6</ele>
        <time>2022-01-19T14:04:00Z</time>
      </trkpt>
      <trkpt lat="44.8814" lon="5.52299">
        <ele>1909.6</ele>
        <time>2022-01-19T14:04:01Z</time>
      </trkpt>
      <trkpt lat="44.88142" lon="5.523">
        <ele>1908.9</ele>
        <time>2022-01-19T14:04:02Z</time>
      </trkpt>
      <trkpt lat="44.88143" lon="5.52301">
        <ele>1908.9</ele>
        <time>2022-01-19T14:04:03Z</time>
      </trkpt>
      <trkpt lat="44.88144" lon="5.52304">
        <ele>1908.4</ele>
        <time>2022-01-19T14:04:04Z</time>
      </trkpt>
      <trkpt lat="44.88144" lon="5.52307">
        <ele>1908.4</ele>
        <time>2022-01-19T14:04:05Z</time>
      </trkpt>
      <trkpt lat="44.88144" lon="5.5231">
        <ele>1907.9</ele>
        <time>2022-01-19T14:04:06Z</time>
      </trkpt>
      <trkpt lat="44.88145" lon="5.52313">
        <ele>1907.4</ele>
        <time>2022-01-19T14:04:07Z</time>
      </trkpt>
      <trkpt lat="44.88146" lon="5.52314">
        <ele>1907</ele>
        <time>2022-01-19T14:04:08Z</time>
      </trkpt>
      <trkpt lat="44.88148" lon="5.52316">
        <ele>1907</ele>
        <time>2022-01-19T14:04:09Z</time>
      </trkpt>
      <trkpt lat="44.88148" lon="5.52318">
        <ele>1906.2</ele>
        <time>2022-01-19T14:04:10Z</time>
      </trkpt>
      <trkpt lat="44.88149" lon="5.52321">
        <ele>1905.6</ele>
        <time>2022-01-19T14:04:11Z</time>
      </trkpt>
      <trkpt lat="44.88149" lon="5.52323">
        <ele>1905.6</ele>
        <time>2022-01-19T14:04:12Z</time>
      </trkpt>
      <trkpt lat="44.88148" lon="5.52325">
        <ele>1904.9</ele>
        <time>2022-01-19T14:04:13Z</time>
      </trkpt>
      <trkpt lat="44.88149" lon="5.52328">
        <ele>1904.9</ele>
        <time>2022-01-19T14:04:14Z</time>
      </trkpt>
      <trkpt lat="44.88151" lon="5.52329">
        <ele>1904.6</ele>
        <time>2022-01-19T14:04:15Z</time>
      </trkpt>
      <trkpt lat="44.88154" lon="5.5233">
        <ele>1903.9</ele>
        <time>2022-01-19T14:04:16Z</time>
      </trkpt>
      <trkpt lat="44.88156" lon="5.52331">
        <ele>1903.5</ele>
        <time>2022-01-19T14:04:17Z</time>
      </trkpt>
      <trkpt lat="44.88158" lon="5.52331">
        <ele>1903.2</ele>
        <time>2022-01-19T14:04:18Z</time>
      </trkpt>
      <trkpt lat="44.88159" lon="5.52333">
        <ele>1902.3</ele>
        <time>2022-01-19T14:04:19Z</time>
      </trkpt>
      <trkpt lat="44.88158" lon="5.52335">
        <ele>1902.3</ele>
        <time>2022-01-19T14:04:20Z</time>
      </trkpt>
      <trkpt lat="44.88157" lon="5.52335">
        <ele>1902.3</ele>
        <time>2022-01-19T14:04:21Z</time>
      </trkpt>
      <trkpt lat="44.88156" lon="5.52335">
        <ele>1902.7</ele>
        <time>2022-01-19T14:04:22Z</time>
      </trkpt>
      <trkpt lat="44.88155" lon="5.52336">
        <ele>1902.7</ele>
        <time>2022-01-19T14:04:23Z</time>
      </trkpt>
      <trkpt lat="44.88155" lon="5.52338">
        <ele>1902.7</ele>
        <time>2022-01-19T14:04:24Z</time>
      </trkpt>
      <trkpt lat="44.88156" lon="5.5234">
        <ele>1901.7</ele>
        <time>2022-01-19T14:04:25Z</time>
      </trkpt>
      <trkpt lat="44.88157" lon="5.52341">
        <ele>1901.3</ele>
        <time>2022-01-19T14:04:26Z</time>
      </trkpt>
      <trkpt lat="44.8816" lon="5.52341">
        <ele>1900.9</ele>
        <time>2022-01-19T14:04:27Z</time>
      </trkpt>
      <trkpt lat="44.88161" lon="5.52342">
        <ele>1900.9</ele>
        <time>2022-01-19T14:04:28Z</time>
      </trkpt>
      <trkpt lat="44.8816" lon="5.52346">
        <ele>1900.3</ele>
        <time>2022-01-19T14:04:29Z</time>
      </trkpt>
      <trkpt lat="44.88159" lon="5.52348">
        <ele>1899.1</ele>
        <time>2022-01-19T14:04:30Z</time>
      </trkpt>
      <trkpt lat="44.88159" lon="5.52352">
        <ele>1898</ele>
        <time>2022-01-19T14:04:31Z</time>
      </trkpt>
      <trkpt lat="44.88158" lon="5.52355">
        <ele>1898</ele>
        <time>2022-01-19T14:04:32Z</time>
      </trkpt>
      <trkpt lat="44.8816" lon="5.52357">
        <ele>1896.8</ele>
        <time>2022-01-19T14:04:33Z</time>
      </trkpt>
      <trkpt lat="44.88162" lon="5.52359">
        <ele>1896.2</ele>
        <time>2022-01-19T14:04:34Z</time>
      </trkpt>
      <trkpt lat="44.88163" lon="5.52361">
        <ele>1895</ele>
        <time>2022-01-19T14:04:35Z</time>
      </trkpt>
      <trkpt lat="44.88163" lon="5.52364">
        <ele>1893.1</ele>
        <time>2022-01-19T14:04:36Z</time>
      </trkpt>
      <trkpt lat="44.88162" lon="5.52366">
        <ele>1893.7</ele>
        <time>2022-01-19T14:04:37Z</time>
      </trkpt>
      <trkpt lat="44.88162" lon="5.52369">
        <ele>1892.5</ele>
        <time>2022-01-19T14:04:38Z</time>
      </trkpt>
      <trkpt lat="44.88162" lon="5.52372">
        <ele>1892.5</ele>
        <time>2022-01-19T14:04:39Z</time>
      </trkpt>
      <trkpt lat="44.88164" lon="5.52373">
        <ele>1890.4</ele>
        <time>2022-01-19T14:04:40Z</time>
      </trkpt>
      <trkpt lat="44.88166" lon="5.52372">
        <ele>1891.8</ele>
        <time>2022-01-19T14:04:41Z</time>
      </trkpt>
      <trkpt lat="44.88167" lon="5.5237">
        <ele>1891.1</ele>
        <time>2022-01-19T14:04:42Z</time>
      </trkpt>
      <trkpt lat="44.88168" lon="5.5237">
        <ele>1891.1</ele>
        <time>2022-01-19T14:04:43Z</time>
      </trkpt>
      <trkpt lat="44.88168" lon="5.5237">
        <ele>1891.1</ele>
        <time>2022-01-19T14:04:44Z</time>
      </trkpt>
      <trkpt lat="44.88168" lon="5.5237">
        <ele>1891.1</ele>
        <time>2022-01-19T14:04:45Z</time>
      </trkpt>
      <trkpt lat="44.88168" lon="5.52369">
        <ele>1891.1</ele>
        <time>2022-01-19T14:04:46Z</time>
      </trkpt>
      <trkpt lat="44.88168" lon="5.52369">
        <ele>1891.1</ele>
        <time>2022-01-19T14:04:47Z</time>
      </trkpt>
      <trkpt lat="44.88169" lon="5.52369">
        <ele>1891.1</ele>
        <time>2022-01-19T14:04:48Z</time>
      </trkpt>
      <trkpt lat="44.88169" lon="5.52369">
        <ele>1891.1</ele>
        <time>2022-01-19T14:04:49Z</time>
      </trkpt>
      <trkpt lat="44.88169" lon="5.52368">
        <ele>1891.1</ele>
        <time>2022-01-19T14:04:50Z</time>
      </trkpt>
      <trkpt lat="44.88169" lon="5.52368">
        <ele>1890.4</ele>
        <time>2022-01-19T14:04:51Z</time>
      </trkpt>
      <trkpt lat="44.8817" lon="5.52368">
        <ele>1890.4</ele>
        <time>2022-01-19T14:04:52Z</time>
      </trkpt>
      <trkpt lat="44.8817" lon="5.52368">
        <ele>1891.8</ele>
        <time>2022-01-19T14:04:53Z</time>
      </trkpt>
      <trkpt lat="44.8817" lon="5.52367">
        <ele>1891.8</ele>
        <time>2022-01-19T14:04:54Z</time>
      </trkpt>
      <trkpt lat="44.8817" lon="5.52367">
        <ele>1891.8</ele>
        <time>2022-01-19T14:04:55Z</time>
      </trkpt>
      <trkpt lat="44.8817" lon="5.52367">
        <ele>1891.8</ele>
        <time>2022-01-19T14:04:56Z</time>
      </trkpt>
      <trkpt lat="44.88171" lon="5.52367">
        <ele>1891.8</ele>
        <time>2022-01-19T14:04:57Z</time>
      </trkpt>
      <trkpt lat="44.88171" lon="5.52366">
        <ele>1891.8</ele>
        <time>2022-01-19T14:04:58Z</time>
      </trkpt>
      <trkpt lat="44.88171" lon="5.52366">
        <ele>1891.8</ele>
        <time>2022-01-19T14:04:59Z</time>
      </trkpt>
      <trkpt lat="44.88171" lon="5.52366">
        <ele>1891.8</ele>
        <time>2022-01-19T14:05:00Z</time>
      </trkpt>
      <trkpt lat="44.88172" lon="5.52366">
        <ele>1891.8</ele>
        <time>2022-01-19T14:05:01Z</time>
      </trkpt>
      <trkpt lat="44.88172" lon="5.52365">
        <ele>1891.8</ele>
        <time>2022-01-19T14:05:02Z</time>
      </trkpt>
      <trkpt lat="44.88172" lon="5.52365">
        <ele>1891.8</ele>
        <time>2022-01-19T14:05:03Z</time>
      </trkpt>
      <trkpt lat="44.88172" lon="5.52365">
        <ele>1891.8</ele>
        <time>2022-01-19T14:05:04Z</time>
      </trkpt>
      <trkpt lat="44.88172" lon="5.52365">
        <ele>1891.2</ele>
        <time>2022-01-19T14:05:05Z</time>
      </trkpt>
      <trkpt lat="44.88173" lon="5.52364">
        <ele>1891.2</ele>
        <time>2022-01-19T14:05:06Z</time>
      </trkpt>
      <trkpt lat="44.88173" lon="5.52364">
        <ele>1891.2</ele>
        <time>2022-01-19T14:05:07Z</time>
      </trkpt>
      <trkpt lat="44.88173" lon="5.52364">
        <ele>1891.2</ele>
        <time>2022-01-19T14:05:08Z</time>
      </trkpt>
      <trkpt lat="44.88173" lon="5.52363">
        <ele>1891.2</ele>
        <time>2022-01-19T14:05:09Z</time>
      </trkpt>
      <trkpt lat="44.88177" lon="5.52363">
        <ele>1892.2</ele>
        <time>2022-01-19T14:05:10Z</time>
      </trkpt>
      <trkpt lat="44.88179" lon="5.52365">
        <ele>1890.3</ele>
        <time>2022-01-19T14:05:11Z</time>
      </trkpt>
      <trkpt lat="44.88181" lon="5.52368">
        <ele>1888.8</ele>
        <time>2022-01-19T14:05:12Z</time>
      </trkpt>
      <trkpt lat="44.88179" lon="5.52371">
        <ele>1888.8</ele>
        <time>2022-01-19T14:05:13Z</time>
      </trkpt>
      <trkpt lat="44.88178" lon="5.52374">
        <ele>1887.8</ele>
        <time>2022-01-19T14:05:14Z</time>
      </trkpt>
      <trkpt lat="44.88177" lon="5.52377">
        <ele>1886.2</ele>
        <time>2022-01-19T14:05:15Z</time>
      </trkpt>
      <trkpt lat="44.88176" lon="5.5238">
        <ele>1886.2</ele>
        <time>2022-01-19T14:05:16Z</time>
      </trkpt>
      <trkpt lat="44.88174" lon="5.52383">
        <ele>1885.2</ele>
        <time>2022-01-19T14:05:17Z</time>
      </trkpt>
      <trkpt lat="44.88172" lon="5.52386">
        <ele>1883.4</ele>
        <time>2022-01-19T14:05:18Z</time>
      </trkpt>
      <trkpt lat="44.8817" lon="5.52389">
        <ele>1882.4</ele>
        <time>2022-01-19T14:05:19Z</time>
      </trkpt>
      <trkpt lat="44.88169" lon="5.52392">
        <ele>1883.2</ele>
        <time>2022-01-19T14:05:20Z</time>
      </trkpt>
      <trkpt lat="44.88167" lon="5.52394">
        <ele>1881.5</ele>
        <time>2022-01-19T14:05:21Z</time>
      </trkpt>
      <trkpt lat="44.88166" lon="5.52396">
        <ele>1882.4</ele>
        <time>2022-01-19T14:05:22Z</time>
      </trkpt>
      <trkpt lat="44.88164" lon="5.52398">
        <ele>1880.7</ele>
        <time>2022-01-19T14:05:23Z</time>
      </trkpt>
      <trkpt lat="44.88163" lon="5.524">
        <ele>1880.7</ele>
        <time>2022-01-19T14:05:24Z</time>
      </trkpt>
      <trkpt lat="44.88162" lon="5.52402">
        <ele>1881.7</ele>
        <time>2022-01-19T14:05:25Z</time>
      </trkpt>
      <trkpt lat="44.88162" lon="5.52404">
        <ele>1880.1</ele>
        <time>2022-01-19T14:05:26Z</time>
      </trkpt>
      <trkpt lat="44.88163" lon="5.52406">
        <ele>1878.5</ele>
        <time>2022-01-19T14:05:27Z</time>
      </trkpt>
      <trkpt lat="44.88166" lon="5.52409">
        <ele>1877.5</ele>
        <time>2022-01-19T14:05:28Z</time>
      </trkpt>
      <trkpt lat="44.88169" lon="5.5241">
        <ele>1875.5</ele>
        <time>2022-01-19T14:05:29Z</time>
      </trkpt>
      <trkpt lat="44.88173" lon="5.52411">
        <ele>1873</ele>
        <time>2022-01-19T14:05:30Z</time>
      </trkpt>
      <trkpt lat="44.88178" lon="5.52412">
        <ele>1872.2</ele>
        <time>2022-01-19T14:05:31Z</time>
      </trkpt>
      <trkpt lat="44.88182" lon="5.52412">
        <ele>1870.9</ele>
        <time>2022-01-19T14:05:32Z</time>
      </trkpt>
      <trkpt lat="44.88185" lon="5.52411">
        <ele>1870.3</ele>
        <time>2022-01-19T14:05:33Z</time>
      </trkpt>
      <trkpt lat="44.88186" lon="5.52412">
        <ele>1870.3</ele>
        <time>2022-01-19T14:05:34Z</time>
      </trkpt>
      <trkpt lat="44.88188" lon="5.52414">
        <ele>1869.7</ele>
        <time>2022-01-19T14:05:35Z</time>
      </trkpt>
      <trkpt lat="44.88187" lon="5.52417">
        <ele>1868.6</ele>
        <time>2022-01-19T14:05:36Z</time>
      </trkpt>
      <trkpt lat="44.88186" lon="5.5242">
        <ele>1867</ele>
        <time>2022-01-19T14:05:37Z</time>
      </trkpt>
      <trkpt lat="44.88183" lon="5.52424">
        <ele>1865.9</ele>
        <time>2022-01-19T14:05:38Z</time>
      </trkpt>
      <trkpt lat="44.88181" lon="5.52427">
        <ele>1866.5</ele>
        <time>2022-01-19T14:05:39Z</time>
      </trkpt>
      <trkpt lat="44.8818" lon="5.52429">
        <ele>1864.8</ele>
        <time>2022-01-19T14:05:40Z</time>
      </trkpt>
      <trkpt lat="44.88178" lon="5.52432">
        <ele>1864.8</ele>
        <time>2022-01-19T14:05:41Z</time>
      </trkpt>
      <trkpt lat="44.88179" lon="5.52435">
        <ele>1863.1</ele>
        <time>2022-01-19T14:05:42Z</time>
      </trkpt>
      <trkpt lat="44.8818" lon="5.52436">
        <ele>1863.1</ele>
        <time>2022-01-19T14:05:43Z</time>
      </trkpt>
      <trkpt lat="44.8818" lon="5.52439">
        <ele>1861.4</ele>
        <time>2022-01-19T14:05:44Z</time>
      </trkpt>
      <trkpt lat="44.88179" lon="5.52443">
        <ele>1859.7</ele>
        <time>2022-01-19T14:05:45Z</time>
      </trkpt>
      <trkpt lat="44.88178" lon="5.52448">
        <ele>1858.7</ele>
        <time>2022-01-19T14:05:46Z</time>
      </trkpt>
      <trkpt lat="44.88178" lon="5.52452">
        <ele>1857.2</ele>
        <time>2022-01-19T14:05:47Z</time>
      </trkpt>
      <trkpt lat="44.88178" lon="5.52456">
        <ele>1855.7</ele>
        <time>2022-01-19T14:05:48Z</time>
      </trkpt>
      <trkpt lat="44.88181" lon="5.52458">
        <ele>1855.1</ele>
        <time>2022-01-19T14:05:49Z</time>
      </trkpt>
      <trkpt lat="44.88184" lon="5.52458">
        <ele>1853</ele>
        <time>2022-01-19T14:05:50Z</time>
      </trkpt>
      <trkpt lat="44.88184" lon="5.5246">
        <ele>1853</ele>
        <time>2022-01-19T14:05:51Z</time>
      </trkpt>
      <trkpt lat="44.88184" lon="5.52463">
        <ele>1850.8</ele>
        <time>2022-01-19T14:05:52Z</time>
      </trkpt>
      <trkpt lat="44.88183" lon="5.52466">
        <ele>1849.9</ele>
        <time>2022-01-19T14:05:53Z</time>
      </trkpt>
      <trkpt lat="44.88181" lon="5.52469">
        <ele>1849.9</ele>
        <time>2022-01-19T14:05:54Z</time>
      </trkpt>
      <trkpt lat="44.8818" lon="5.52471">
        <ele>1849</ele>
        <time>2022-01-19T14:05:55Z</time>
      </trkpt>
      <trkpt lat="44.88178" lon="5.52472">
        <ele>1849.7</ele>
        <time>2022-01-19T14:05:56Z</time>
      </trkpt>
      <trkpt lat="44.88177" lon="5.52473">
        <ele>1849.7</ele>
        <time>2022-01-19T14:05:57Z</time>
      </trkpt>
      <trkpt lat="44.88175" lon="5.52475">
        <ele>1849.7</ele>
        <time>2022-01-19T14:05:58Z</time>
      </trkpt>
      <trkpt lat="44.88174" lon="5.52477">
        <ele>1848.8</ele>
        <time>2022-01-19T14:05:59Z</time>
      </trkpt>
      <trkpt lat="44.88173" lon="5.52478">
        <ele>1848.8</ele>
        <time>2022-01-19T14:06:00Z</time>
      </trkpt>
      <trkpt lat="44.88172" lon="5.5248">
        <ele>1848</ele>
        <time>2022-01-19T14:06:01Z</time>
      </trkpt>
      <trkpt lat="44.88173" lon="5.52483">
        <ele>1847.1</ele>
        <time>2022-01-19T14:06:02Z</time>
      </trkpt>
      <trkpt lat="44.88174" lon="5.52487">
        <ele>1845.4</ele>
        <time>2022-01-19T14:06:03Z</time>
      </trkpt>
      <trkpt lat="44.88175" lon="5.52489">
        <ele>1843.8</ele>
        <time>2022-01-19T14:06:04Z</time>
      </trkpt>
      <trkpt lat="44.88176" lon="5.52491">
        <ele>1842.9</ele>
        <time>2022-01-19T14:06:05Z</time>
      </trkpt>
      <trkpt lat="44.88178" lon="5.52493">
        <ele>1841.2</ele>
        <time>2022-01-19T14:06:06Z</time>
      </trkpt>
      <trkpt lat="44.8818" lon="5.52496">
        <ele>1840.4</ele>
        <time>2022-01-19T14:06:07Z</time>
      </trkpt>
      <trkpt lat="44.88181" lon="5.52496">
        <ele>1840.4</ele>
        <time>2022-01-19T14:06:08Z</time>
      </trkpt>
      <trkpt lat="44.88181" lon="5.52496">
        <ele>1840.4</ele>
        <time>2022-01-19T14:06:09Z</time>
      </trkpt>
      <trkpt lat="44.88181" lon="5.52496">
        <ele>1839.5</ele>
        <time>2022-01-19T14:06:10Z</time>
      </trkpt>
      <trkpt lat="44.88181" lon="5.52496">
        <ele>1839.5</ele>
        <time>2022-01-19T14:06:11Z</time>
      </trkpt>
      <trkpt lat="44.88181" lon="5.52496">
        <ele>1839.5</ele>
        <time>2022-01-19T14:06:12Z</time>
      </trkpt>
      <trkpt lat="44.88181" lon="5.52496">
        <ele>1839.5</ele>
        <time>2022-01-19T14:06:13Z</time>
      </trkpt>
      <trkpt lat="44.88181" lon="5.52496">
        <ele>1839.5</ele>
        <time>2022-01-19T14:06:14Z</time>
      </trkpt>
      <trkpt lat="44.88181" lon="5.52496">
        <ele>1839.5</ele>
        <time>2022-01-19T14:06:15Z</time>
      </trkpt>
      <trkpt lat="44.88181" lon="5.52496">
        <ele>1839.5</ele>
        <time>2022-01-19T14:06:16Z</time>
      </trkpt>
      <trkpt lat="44.88181" lon="5.52496">
        <ele>1839.5</ele>
        <time>2022-01-19T14:06:17Z</time>
      </trkpt>
      <trkpt lat="44.88181" lon="5.52496">
        <ele>1839.5</ele>
        <time>2022-01-19T14:06:18Z</time>
      </trkpt>
      <trkpt lat="44.88181" lon="5.52496">
        <ele>1839.5</ele>
        <time>2022-01-19T14:06:19Z</time>
      </trkpt>
      <trkpt lat="44.88181" lon="5.52496">
        <ele>1839.5</ele>
        <time>2022-01-19T14:06:20Z</time>
      </trkpt>
      <trkpt lat="44.88181" lon="5.52496">
        <ele>1839.5</ele>
        <time>2022-01-19T14:06:21Z</time>
      </trkpt>
      <trkpt lat="44.88181" lon="5.52496">
        <ele>1839.5</ele>
        <time>2022-01-19T14:06:22Z</time>
      </trkpt>
      <trkpt lat="44.88181" lon="5.52496">
        <ele>1839.5</ele>
        <time>2022-01-19T14:06:23Z</time>
      </trkpt>
      <trkpt lat="44.88181" lon="5.52496">
        <ele>1839.5</ele>
        <time>2022-01-19T14:06:24Z</time>
      </trkpt>
      <trkpt lat="44.88181" lon="5.52496">
        <ele>1839.5</ele>
        <time>2022-01-19T14:06:25Z</time>
      </trkpt>
      <trkpt lat="44.88181" lon="5.52496">
        <ele>1839.5</ele>
        <time>2022-01-19T14:06:26Z</time>
      </trkpt>
      <trkpt lat="44.88181" lon="5.52496">
        <ele>1839.5</ele>
        <time>2022-01-19T14:06:27Z</time>
      </trkpt>
      <trkpt lat="44.88182" lon="5.52494">
        <ele>1839.5</ele>
        <time>2022-01-19T14:06:28Z</time>
      </trkpt>
      <trkpt lat="44.88183" lon="5.52494">
        <ele>1839.5</ele>
        <time>2022-01-19T14:06:29Z</time>
      </trkpt>
      <trkpt lat="44.88184" lon="5.52495">
        <ele>1839.5</ele>
        <time>2022-01-19T14:06:30Z</time>
      </trkpt>
      <trkpt lat="44.88185" lon="5.52496">
        <ele>1838.7</ele>
        <time>2022-01-19T14:06:31Z</time>
      </trkpt>
      <trkpt lat="44.88189" lon="5.52496">
        <ele>1837.7</ele>
        <time>2022-01-19T14:06:32Z</time>
      </trkpt>
      <trkpt lat="44.88193" lon="5.52497">
        <ele>1835.1</ele>
        <time>2022-01-19T14:06:33Z</time>
      </trkpt>
      <trkpt lat="44.88198" lon="5.52498">
        <ele>1833.4</ele>
        <time>2022-01-19T14:06:34Z</time>
      </trkpt>
      <trkpt lat="44.88204" lon="5.52499">
        <ele>1831.9</ele>
        <time>2022-01-19T14:06:35Z</time>
      </trkpt>
      <trkpt lat="44.8821" lon="5.52501">
        <ele>1830.6</ele>
        <time>2022-01-19T14:06:36Z</time>
      </trkpt>
      <trkpt lat="44.88216" lon="5.52502">
        <ele>1827.7</ele>
        <time>2022-01-19T14:06:37Z</time>
      </trkpt>
      <trkpt lat="44.88223" lon="5.52504">
        <ele>1826.6</ele>
        <time>2022-01-19T14:06:38Z</time>
      </trkpt>
      <trkpt lat="44.88231" lon="5.52506">
        <ele>1823.6</ele>
        <time>2022-01-19T14:06:39Z</time>
      </trkpt>
      <trkpt lat="44.88239" lon="5.52508">
        <ele>1823</ele>
        <time>2022-01-19T14:06:40Z</time>
      </trkpt>
      <trkpt lat="44.88246" lon="5.5251">
        <ele>1820.9</ele>
        <time>2022-01-19T14:06:41Z</time>
      </trkpt>
      <trkpt lat="44.88252" lon="5.52512">
        <ele>1820.9</ele>
        <time>2022-01-19T14:06:42Z</time>
      </trkpt>
      <trkpt lat="44.88255" lon="5.52513">
        <ele>1821</ele>
        <time>2022-01-19T14:06:43Z</time>
      </trkpt>
      <trkpt lat="44.88259" lon="5.52515">
        <ele>1819.3</ele>
        <time>2022-01-19T14:06:44Z</time>
      </trkpt>
      <trkpt lat="44.88262" lon="5.52517">
        <ele>1819.5</ele>
        <time>2022-01-19T14:06:45Z</time>
      </trkpt>
      <trkpt lat="44.88265" lon="5.52519">
        <ele>1817.8</ele>
        <time>2022-01-19T14:06:46Z</time>
      </trkpt>
      <trkpt lat="44.88269" lon="5.5252">
        <ele>1818.1</ele>
        <time>2022-01-19T14:06:47Z</time>
      </trkpt>
      <trkpt lat="44.88272" lon="5.52522">
        <ele>1818.4</ele>
        <time>2022-01-19T14:06:48Z</time>
      </trkpt>
      <trkpt lat="44.88273" lon="5.52523">
        <ele>1816.7</ele>
        <time>2022-01-19T14:06:49Z</time>
      </trkpt>
      <trkpt lat="44.88272" lon="5.52524">
        <ele>1816.3</ele>
        <time>2022-01-19T14:06:50Z</time>
      </trkpt>
      <trkpt lat="44.8827" lon="5.52524">
        <ele>1816.3</ele>
        <time>2022-01-19T14:06:51Z</time>
      </trkpt>
      <trkpt lat="44.8827" lon="5.52527">
        <ele>1814.2</ele>
        <time>2022-01-19T14:06:52Z</time>
      </trkpt>
      <trkpt lat="44.88271" lon="5.52529">
        <ele>1814.2</ele>
        <time>2022-01-19T14:06:53Z</time>
      </trkpt>
      <trkpt lat="44.8827" lon="5.52533">
        <ele>1812</ele>
        <time>2022-01-19T14:06:54Z</time>
      </trkpt>
      <trkpt lat="44.88267" lon="5.52537">
        <ele>1809.7</ele>
        <time>2022-01-19T14:06:55Z</time>
      </trkpt>
      <trkpt lat="44.88263" lon="5.52537">
        <ele>1809.2</ele>
        <time>2022-01-19T14:06:56Z</time>
      </trkpt>
      <trkpt lat="44.8826" lon="5.52538">
        <ele>1809.1</ele>
        <time>2022-01-19T14:06:57Z</time>
      </trkpt>
      <trkpt lat="44.8826" lon="5.52542">
        <ele>1807.2</ele>
        <time>2022-01-19T14:06:58Z</time>
      </trkpt>
      <trkpt lat="44.88263" lon="5.52546">
        <ele>1805.5</ele>
        <time>2022-01-19T14:06:59Z</time>
      </trkpt>
      <trkpt lat="44.88266" lon="5.52551">
        <ele>1803.9</ele>
        <time>2022-01-19T14:07:00Z</time>
      </trkpt>
      <trkpt lat="44.88265" lon="5.52556">
        <ele>1802.1</ele>
        <time>2022-01-19T14:07:01Z</time>
      </trkpt>
      <trkpt lat="44.88262" lon="5.5256">
        <ele>1800.1</ele>
        <time>2022-01-19T14:07:02Z</time>
      </trkpt>
      <trkpt lat="44.88257" lon="5.52561">
        <ele>1798.3</ele>
        <time>2022-01-19T14:07:03Z</time>
      </trkpt>
      <trkpt lat="44.88251" lon="5.52561">
        <ele>1798.5</ele>
        <time>2022-01-19T14:07:04Z</time>
      </trkpt>
      <trkpt lat="44.88245" lon="5.52562">
        <ele>1798.7</ele>
        <time>2022-01-19T14:07:05Z</time>
      </trkpt>
      <trkpt lat="44.88245" lon="5.52566">
        <ele>1797.1</ele>
        <time>2022-01-19T14:07:06Z</time>
      </trkpt>
      <trkpt lat="44.88248" lon="5.52571">
        <ele>1795.1</ele>
        <time>2022-01-19T14:07:07Z</time>
      </trkpt>
      <trkpt lat="44.8825" lon="5.52577">
        <ele>1793.1</ele>
        <time>2022-01-19T14:07:08Z</time>
      </trkpt>
      <trkpt lat="44.88248" lon="5.52583">
        <ele>1789.9</ele>
        <time>2022-01-19T14:07:09Z</time>
      </trkpt>
      <trkpt lat="44.88245" lon="5.52588">
        <ele>1788.6</ele>
        <time>2022-01-19T14:07:10Z</time>
      </trkpt>
      <trkpt lat="44.88241" lon="5.52589">
        <ele>1788.8</ele>
        <time>2022-01-19T14:07:11Z</time>
      </trkpt>
      <trkpt lat="44.88237" lon="5.52591">
        <ele>1787.6</ele>
        <time>2022-01-19T14:07:12Z</time>
      </trkpt>
      <trkpt lat="44.88232" lon="5.52593">
        <ele>1788.3</ele>
        <time>2022-01-19T14:07:13Z</time>
      </trkpt>
      <trkpt lat="44.88229" lon="5.52596">
        <ele>1787.2</ele>
        <time>2022-01-19T14:07:14Z</time>
      </trkpt>
      <trkpt lat="44.88226" lon="5.526">
        <ele>1786.1</ele>
        <time>2022-01-19T14:07:15Z</time>
      </trkpt>
      <trkpt lat="44.88221" lon="5.52606">
        <ele>1784.9</ele>
        <time>2022-01-19T14:07:16Z</time>
      </trkpt>
      <trkpt lat="44.88217" lon="5.52613">
        <ele>1781.4</ele>
        <time>2022-01-19T14:07:17Z</time>
      </trkpt>
      <trkpt lat="44.88216" lon="5.52619">
        <ele>1779.7</ele>
        <time>2022-01-19T14:07:18Z</time>
      </trkpt>
      <trkpt lat="44.88216" lon="5.52624">
        <ele>1778.1</ele>
        <time>2022-01-19T14:07:19Z</time>
      </trkpt>
      <trkpt lat="44.88217" lon="5.52628">
        <ele>1776.6</ele>
        <time>2022-01-19T14:07:20Z</time>
      </trkpt>
      <trkpt lat="44.88218" lon="5.52631">
        <ele>1774.8</ele>
        <time>2022-01-19T14:07:21Z</time>
      </trkpt>
      <trkpt lat="44.8822" lon="5.52636">
        <ele>1773.4</ele>
        <time>2022-01-19T14:07:22Z</time>
      </trkpt>
      <trkpt lat="44.88221" lon="5.52638">
        <ele>1771.6</ele>
        <time>2022-01-19T14:07:23Z</time>
      </trkpt>
      <trkpt lat="44.88222" lon="5.52641">
        <ele>1771.6</ele>
        <time>2022-01-19T14:07:24Z</time>
      </trkpt>
      <trkpt lat="44.88223" lon="5.52643">
        <ele>1770.2</ele>
        <time>2022-01-19T14:07:25Z</time>
      </trkpt>
      <trkpt lat="44.88225" lon="5.52645">
        <ele>1769.9</ele>
        <time>2022-01-19T14:07:26Z</time>
      </trkpt>
      <trkpt lat="44.88226" lon="5.52647">
        <ele>1768.5</ele>
        <time>2022-01-19T14:07:27Z</time>
      </trkpt>
      <trkpt lat="44.88227" lon="5.52649">
        <ele>1768.5</ele>
        <time>2022-01-19T14:07:28Z</time>
      </trkpt>
      <trkpt lat="44.88227" lon="5.52649">
        <ele>1768.5</ele>
        <time>2022-01-19T14:07:29Z</time>
      </trkpt>
      <trkpt lat="44.88227" lon="5.52649">
        <ele>1768.2</ele>
        <time>2022-01-19T14:07:30Z</time>
      </trkpt>
      <trkpt lat="44.88227" lon="5.5265">
        <ele>1768.2</ele>
        <time>2022-01-19T14:07:31Z</time>
      </trkpt>
      <trkpt lat="44.88227" lon="5.5265">
        <ele>1768.2</ele>
        <time>2022-01-19T14:07:32Z</time>
      </trkpt>
      <trkpt lat="44.88227" lon="5.5265">
        <ele>1768.2</ele>
        <time>2022-01-19T14:07:33Z</time>
      </trkpt>
      <trkpt lat="44.88228" lon="5.5265">
        <ele>1768.2</ele>
        <time>2022-01-19T14:07:34Z</time>
      </trkpt>
      <trkpt lat="44.88228" lon="5.5265">
        <ele>1768.2</ele>
        <time>2022-01-19T14:07:35Z</time>
      </trkpt>
      <trkpt lat="44.88228" lon="5.5265">
        <ele>1768.2</ele>
        <time>2022-01-19T14:07:36Z</time>
      </trkpt>
      <trkpt lat="44.88228" lon="5.5265">
        <ele>1768.2</ele>
        <time>2022-01-19T14:07:37Z</time>
      </trkpt>
      <trkpt lat="44.88228" lon="5.5265">
        <ele>1768.2</ele>
        <time>2022-01-19T14:07:38Z</time>
      </trkpt>
      <trkpt lat="44.88228" lon="5.5265">
        <ele>1768.2</ele>
        <time>2022-01-19T14:07:39Z</time>
      </trkpt>
      <trkpt lat="44.88228" lon="5.5265">
        <ele>1768.2</ele>
        <time>2022-01-19T14:07:40Z</time>
      </trkpt>
      <trkpt lat="44.88228" lon="5.5265">
        <ele>1768.2</ele>
        <time>2022-01-19T14:07:41Z</time>
      </trkpt>
      <trkpt lat="44.88229" lon="5.5265">
        <ele>1768.2</ele>
        <time>2022-01-19T14:07:42Z</time>
      </trkpt>
      <trkpt lat="44.88229" lon="5.5265">
        <ele>1768.2</ele>
        <time>2022-01-19T14:07:43Z</time>
      </trkpt>
      <trkpt lat="44.88229" lon="5.5265">
        <ele>1768.2</ele>
        <time>2022-01-19T14:07:44Z</time>
      </trkpt>
      <trkpt lat="44.88229" lon="5.5265">
        <ele>1768.2</ele>
        <time>2022-01-19T14:07:45Z</time>
      </trkpt>
      <trkpt lat="44.88229" lon="5.5265">
        <ele>1768.2</ele>
        <time>2022-01-19T14:07:46Z</time>
      </trkpt>
      <trkpt lat="44.88229" lon="5.5265">
        <ele>1768.2</ele>
        <time>2022-01-19T14:07:47Z</time>
      </trkpt>
      <trkpt lat="44.88229" lon="5.5265">
        <ele>1768.2</ele>
        <time>2022-01-19T14:07:48Z</time>
      </trkpt>
      <trkpt lat="44.88229" lon="5.52651">
        <ele>1768.2</ele>
        <time>2022-01-19T14:07:49Z</time>
      </trkpt>
      <trkpt lat="44.88229" lon="5.52651">
        <ele>1768.2</ele>
        <time>2022-01-19T14:07:50Z</time>
      </trkpt>
      <trkpt lat="44.8823" lon="5.52651">
        <ele>1768.2</ele>
        <time>2022-01-19T14:07:51Z</time>
      </trkpt>
      <trkpt lat="44.8823" lon="5.52651">
        <ele>1768.2</ele>
        <time>2022-01-19T14:07:52Z</time>
      </trkpt>
      <trkpt lat="44.8823" lon="5.52651">
        <ele>1768.2</ele>
        <time>2022-01-19T14:07:53Z</time>
      </trkpt>
      <trkpt lat="44.8823" lon="5.52651">
        <ele>1768.2</ele>
        <time>2022-01-19T14:07:54Z</time>
      </trkpt>
      <trkpt lat="44.8823" lon="5.52651">
        <ele>1767.9</ele>
        <time>2022-01-19T14:07:55Z</time>
      </trkpt>
      <trkpt lat="44.8823" lon="5.52651">
        <ele>1767.9</ele>
        <time>2022-01-19T14:07:56Z</time>
      </trkpt>
      <trkpt lat="44.8823" lon="5.52651">
        <ele>1767.9</ele>
        <time>2022-01-19T14:07:57Z</time>
      </trkpt>
      <trkpt lat="44.8823" lon="5.52651">
        <ele>1766.5</ele>
        <time>2022-01-19T14:07:58Z</time>
      </trkpt>
      <trkpt lat="44.88231" lon="5.52651">
        <ele>1766.5</ele>
        <time>2022-01-19T14:07:59Z</time>
      </trkpt>
      <trkpt lat="44.88231" lon="5.52651">
        <ele>1766.5</ele>
        <time>2022-01-19T14:08:00Z</time>
      </trkpt>
      <trkpt lat="44.88231" lon="5.52651">
        <ele>1766.5</ele>
        <time>2022-01-19T14:08:01Z</time>
      </trkpt>
      <trkpt lat="44.88231" lon="5.52651">
        <ele>1766.5</ele>
        <time>2022-01-19T14:08:02Z</time>
      </trkpt>
      <trkpt lat="44.88231" lon="5.52651">
        <ele>1766.5</ele>
        <time>2022-01-19T14:08:03Z</time>
      </trkpt>
      <trkpt lat="44.88231" lon="5.52651">
        <ele>1766.5</ele>
        <time>2022-01-19T14:08:04Z</time>
      </trkpt>
      <trkpt lat="44.88231" lon="5.52651">
        <ele>1766.5</ele>
        <time>2022-01-19T14:08:05Z</time>
      </trkpt>
      <trkpt lat="44.88231" lon="5.52651">
        <ele>1766.5</ele>
        <time>2022-01-19T14:08:06Z</time>
      </trkpt>
      <trkpt lat="44.88231" lon="5.52652">
        <ele>1766.5</ele>
        <time>2022-01-19T14:08:07Z</time>
      </trkpt>
      <trkpt lat="44.88232" lon="5.52652">
        <ele>1766.5</ele>
        <time>2022-01-19T14:08:08Z</time>
      </trkpt>
      <trkpt lat="44.88232" lon="5.52652">
        <ele>1766.5</ele>
        <time>2022-01-19T14:08:09Z</time>
      </trkpt>
      <trkpt lat="44.88232" lon="5.52652">
        <ele>1766.5</ele>
        <time>2022-01-19T14:08:10Z</time>
      </trkpt>
      <trkpt lat="44.88232" lon="5.52652">
        <ele>1766.5</ele>
        <time>2022-01-19T14:08:11Z</time>
      </trkpt>
      <trkpt lat="44.88232" lon="5.52652">
        <ele>1766.5</ele>
        <time>2022-01-19T14:08:12Z</time>
      </trkpt>
      <trkpt lat="44.88234" lon="5.52653">
        <ele>1766.3</ele>
        <time>2022-01-19T14:08:13Z</time>
      </trkpt>
      <trkpt lat="44.88234" lon="5.52653">
        <ele>1766.3</ele>
        <time>2022-01-19T14:08:14Z</time>
      </trkpt>
      <trkpt lat="44.88236" lon="5.52652">
        <ele>1766.3</ele>
        <time>2022-01-19T14:08:15Z</time>
      </trkpt>
      <trkpt lat="44.88237" lon="5.52652">
        <ele>1766.1</ele>
        <time>2022-01-19T14:08:16Z</time>
      </trkpt>
      <trkpt lat="44.88238" lon="5.52652">
        <ele>1766.1</ele>
        <time>2022-01-19T14:08:17Z</time>
      </trkpt>
      <trkpt lat="44.88239" lon="5.52654">
        <ele>1765.9</ele>
        <time>2022-01-19T14:08:18Z</time>
      </trkpt>
      <trkpt lat="44.88241" lon="5.52655">
        <ele>1765.9</ele>
        <time>2022-01-19T14:08:19Z</time>
      </trkpt>
      <trkpt lat="44.88242" lon="5.52655">
        <ele>1765.7</ele>
        <time>2022-01-19T14:08:20Z</time>
      </trkpt>
      <trkpt lat="44.88244" lon="5.52654">
        <ele>1765.7</ele>
        <time>2022-01-19T14:08:21Z</time>
      </trkpt>
      <trkpt lat="44.88245" lon="5.52654">
        <ele>1765.7</ele>
        <time>2022-01-19T14:08:22Z</time>
      </trkpt>
      <trkpt lat="44.88245" lon="5.52656">
        <ele>1764.2</ele>
        <time>2022-01-19T14:08:23Z</time>
      </trkpt>
      <trkpt lat="44.88246" lon="5.52659">
        <ele>1764.2</ele>
        <time>2022-01-19T14:08:24Z</time>
      </trkpt>
      <trkpt lat="44.88246" lon="5.52661">
        <ele>1763</ele>
        <time>2022-01-19T14:08:25Z</time>
      </trkpt>
      <trkpt lat="44.88246" lon="5.52665">
        <ele>1761.8</ele>
        <time>2022-01-19T14:08:26Z</time>
      </trkpt>
      <trkpt lat="44.88246" lon="5.52669">
        <ele>1760.6</ele>
        <time>2022-01-19T14:08:27Z</time>
      </trkpt>
      <trkpt lat="44.88246" lon="5.52673">
        <ele>1759.6</ele>
        <time>2022-01-19T14:08:28Z</time>
      </trkpt>
      <trkpt lat="44.88246" lon="5.52677">
        <ele>1758.6</ele>
        <time>2022-01-19T14:08:29Z</time>
      </trkpt>
      <trkpt lat="44.88246" lon="5.52681">
        <ele>1758.6</ele>
        <time>2022-01-19T14:08:30Z</time>
      </trkpt>
      <trkpt lat="44.88247" lon="5.52685">
        <ele>1757.7</ele>
        <time>2022-01-19T14:08:31Z</time>
      </trkpt>
      <trkpt lat="44.88247" lon="5.5269">
        <ele>1755.7</ele>
        <time>2022-01-19T14:08:32Z</time>
      </trkpt>
      <trkpt lat="44.88246" lon="5.52694">
        <ele>1754.6</ele>
        <time>2022-01-19T14:08:33Z</time>
      </trkpt>
      <trkpt lat="44.88246" lon="5.52698">
        <ele>1754.6</ele>
        <time>2022-01-19T14:08:34Z</time>
      </trkpt>
      <trkpt lat="44.88245" lon="5.52702">
        <ele>1753.8</ele>
        <time>2022-01-19T14:08:35Z</time>
      </trkpt>
      <trkpt lat="44.88244" lon="5.52706">
        <ele>1752.7</ele>
        <time>2022-01-19T14:08:36Z</time>
      </trkpt>
      <trkpt lat="44.88245" lon="5.52709">
        <ele>1751.3</ele>
        <time>2022-01-19T14:08:37Z</time>
      </trkpt>
      <trkpt lat="44.88247" lon="5.52711">
        <ele>1751.3</ele>
        <time>2022-01-19T14:08:38Z</time>
      </trkpt>
      <trkpt lat="44.88248" lon="5.52711">
        <ele>1749.9</ele>
        <time>2022-01-19T14:08:39Z</time>
      </trkpt>
      <trkpt lat="44.8825" lon="5.52712">
        <ele>1749.9</ele>
        <time>2022-01-19T14:08:40Z</time>
      </trkpt>
      <trkpt lat="44.88251" lon="5.52716">
        <ele>1748.4</ele>
        <time>2022-01-19T14:08:41Z</time>
      </trkpt>
      <trkpt lat="44.88252" lon="5.52722">
        <ele>1747.3</ele>
        <time>2022-01-19T14:08:42Z</time>
      </trkpt>
      <trkpt lat="44.88251" lon="5.52728">
        <ele>1746.7</ele>
        <time>2022-01-19T14:08:43Z</time>
      </trkpt>
      <trkpt lat="44.8825" lon="5.52733">
        <ele>1744.6</ele>
        <time>2022-01-19T14:08:44Z</time>
      </trkpt>
      <trkpt lat="44.88251" lon="5.52738">
        <ele>1743.6</ele>
        <time>2022-01-19T14:08:45Z</time>
      </trkpt>
      <trkpt lat="44.88251" lon="5.52742">
        <ele>1742</ele>
        <time>2022-01-19T14:08:46Z</time>
      </trkpt>
      <trkpt lat="44.88253" lon="5.52746">
        <ele>1740.9</ele>
        <time>2022-01-19T14:08:47Z</time>
      </trkpt>
      <trkpt lat="44.88254" lon="5.52749">
        <ele>1740.9</ele>
        <time>2022-01-19T14:08:48Z</time>
      </trkpt>
      <trkpt lat="44.88255" lon="5.52751">
        <ele>1739.4</ele>
        <time>2022-01-19T14:08:49Z</time>
      </trkpt>
      <trkpt lat="44.88256" lon="5.52755">
        <ele>1738.3</ele>
        <time>2022-01-19T14:08:50Z</time>
      </trkpt>
      <trkpt lat="44.88258" lon="5.52757">
        <ele>1737.9</ele>
        <time>2022-01-19T14:08:51Z</time>
      </trkpt>
      <trkpt lat="44.8826" lon="5.52758">
        <ele>1737.9</ele>
        <time>2022-01-19T14:08:52Z</time>
      </trkpt>
      <trkpt lat="44.88261" lon="5.52761">
        <ele>1736.5</ele>
        <time>2022-01-19T14:08:53Z</time>
      </trkpt>
      <trkpt lat="44.88262" lon="5.52766">
        <ele>1735.5</ele>
        <time>2022-01-19T14:08:54Z</time>
      </trkpt>
      <trkpt lat="44.88262" lon="5.52772">
        <ele>1733.6</ele>
        <time>2022-01-19T14:08:55Z</time>
      </trkpt>
      <trkpt lat="44.88262" lon="5.52779">
        <ele>1732.7</ele>
        <time>2022-01-19T14:08:56Z</time>
      </trkpt>
      <trkpt lat="44.88261" lon="5.52785">
        <ele>1730.8</ele>
        <time>2022-01-19T14:08:57Z</time>
      </trkpt>
      <trkpt lat="44.88261" lon="5.52789">
        <ele>1729.8</ele>
        <time>2022-01-19T14:08:58Z</time>
      </trkpt>
      <trkpt lat="44.88261" lon="5.52794">
        <ele>1728.9</ele>
        <time>2022-01-19T14:08:59Z</time>
      </trkpt>
      <trkpt lat="44.88261" lon="5.52798">
        <ele>1727.9</ele>
        <time>2022-01-19T14:09:00Z</time>
      </trkpt>
      <trkpt lat="44.88261" lon="5.52801">
        <ele>1727.9</ele>
        <time>2022-01-19T14:09:01Z</time>
      </trkpt>
      <trkpt lat="44.8826" lon="5.52804">
        <ele>1727.4</ele>
        <time>2022-01-19T14:09:02Z</time>
      </trkpt>
      <trkpt lat="44.8826" lon="5.52806">
        <ele>1726.5</ele>
        <time>2022-01-19T14:09:03Z</time>
      </trkpt>
      <trkpt lat="44.8826" lon="5.52808">
        <ele>1726.5</ele>
        <time>2022-01-19T14:09:04Z</time>
      </trkpt>
      <trkpt lat="44.8826" lon="5.52809">
        <ele>1726.5</ele>
        <time>2022-01-19T14:09:05Z</time>
      </trkpt>
      <trkpt lat="44.8826" lon="5.52811">
        <ele>1725.7</ele>
        <time>2022-01-19T14:09:06Z</time>
      </trkpt>
      <trkpt lat="44.8826" lon="5.52813">
        <ele>1725.7</ele>
        <time>2022-01-19T14:09:07Z</time>
      </trkpt>
      <trkpt lat="44.88259" lon="5.52816">
        <ele>1724.8</ele>
        <time>2022-01-19T14:09:08Z</time>
      </trkpt>
      <trkpt lat="44.88259" lon="5.52817">
        <ele>1724.8</ele>
        <time>2022-01-19T14:09:09Z</time>
      </trkpt>
      <trkpt lat="44.88258" lon="5.52819">
        <ele>1723.9</ele>
        <time>2022-01-19T14:09:10Z</time>
      </trkpt>
      <trkpt lat="44.88258" lon="5.5282">
        <ele>1723.9</ele>
        <time>2022-01-19T14:09:11Z</time>
      </trkpt>
      <trkpt lat="44.88258" lon="5.52821">
        <ele>1723.9</ele>
        <time>2022-01-19T14:09:12Z</time>
      </trkpt>
      <trkpt lat="44.88258" lon="5.52821">
        <ele>1723.9</ele>
        <time>2022-01-19T14:09:13Z</time>
      </trkpt>
      <trkpt lat="44.88258" lon="5.52821">
        <ele>1723.9</ele>
        <time>2022-01-19T14:09:14Z</time>
      </trkpt>
      <trkpt lat="44.88258" lon="5.52821">
        <ele>1723.9</ele>
        <time>2022-01-19T14:09:15Z</time>
      </trkpt>
      <trkpt lat="44.88258" lon="5.52821">
        <ele>1723.9</ele>
        <time>2022-01-19T14:09:16Z</time>
      </trkpt>
      <trkpt lat="44.88258" lon="5.52821">
        <ele>1723.9</ele>
        <time>2022-01-19T14:09:17Z</time>
      </trkpt>
      <trkpt lat="44.88258" lon="5.52821">
        <ele>1723.9</ele>
        <time>2022-01-19T14:09:18Z</time>
      </trkpt>
      <trkpt lat="44.88258" lon="5.52821">
        <ele>1723.9</ele>
        <time>2022-01-19T14:09:19Z</time>
      </trkpt>
      <trkpt lat="44.88258" lon="5.52821">
        <ele>1723.9</ele>
        <time>2022-01-19T14:09:20Z</time>
      </trkpt>
      <trkpt lat="44.88258" lon="5.52821">
        <ele>1723.9</ele>
        <time>2022-01-19T14:09:21Z</time>
      </trkpt>
      <trkpt lat="44.88258" lon="5.52821">
        <ele>1723.9</ele>
        <time>2022-01-19T14:09:22Z</time>
      </trkpt>
      <trkpt lat="44.88258" lon="5.52821">
        <ele>1723.9</ele>
        <time>2022-01-19T14:09:23Z</time>
      </trkpt>
      <trkpt lat="44.88258" lon="5.52821">
        <ele>1723.9</ele>
        <time>2022-01-19T14:09:24Z</time>
      </trkpt>
      <trkpt lat="44.88258" lon="5.52821">
        <ele>1723.9</ele>
        <time>2022-01-19T14:09:25Z</time>
      </trkpt>
      <trkpt lat="44.88258" lon="5.52821">
        <ele>1723.9</ele>
        <time>2022-01-19T14:09:26Z</time>
      </trkpt>
      <trkpt lat="44.88258" lon="5.52821">
        <ele>1723.9</ele>
        <time>2022-01-19T14:09:27Z</time>
      </trkpt>
      <trkpt lat="44.88258" lon="5.52821">
        <ele>1723.9</ele>
        <time>2022-01-19T14:09:28Z</time>
      </trkpt>
      <trkpt lat="44.88258" lon="5.52821">
        <ele>1723.9</ele>
        <time>2022-01-19T14:09:29Z</time>
      </trkpt>
      <trkpt lat="44.88258" lon="5.52821">
        <ele>1723.9</ele>
        <time>2022-01-19T14:09:30Z</time>
      </trkpt>
      <trkpt lat="44.88258" lon="5.52821">
        <ele>1723.9</ele>
        <time>2022-01-19T14:09:31Z</time>
      </trkpt>
      <trkpt lat="44.88258" lon="5.52821">
        <ele>1723.9</ele>
        <time>2022-01-19T14:09:32Z</time>
      </trkpt>
      <trkpt lat="44.88258" lon="5.52821">
        <ele>1723.9</ele>
        <time>2022-01-19T14:09:33Z</time>
      </trkpt>
      <trkpt lat="44.88258" lon="5.52821">
        <ele>1723.9</ele>
        <time>2022-01-19T14:09:34Z</time>
      </trkpt>
      <trkpt lat="44.88258" lon="5.52821">
        <ele>1723.9</ele>
        <time>2022-01-19T14:09:35Z</time>
      </trkpt>
      <trkpt lat="44.88261" lon="5.52824">
        <ele>1722.7</ele>
        <time>2022-01-19T14:09:36Z</time>
      </trkpt>
      <trkpt lat="44.88263" lon="5.52825">
        <ele>1722.7</ele>
        <time>2022-01-19T14:09:37Z</time>
      </trkpt>
      <trkpt lat="44.88263" lon="5.52826">
        <ele>1722.7</ele>
        <time>2022-01-19T14:09:38Z</time>
      </trkpt>
      <trkpt lat="44.88264" lon="5.52829">
        <ele>1721.5</ele>
        <time>2022-01-19T14:09:39Z</time>
      </trkpt>
      <trkpt lat="44.88267" lon="5.5283">
        <ele>1721.2</ele>
        <time>2022-01-19T14:09:40Z</time>
      </trkpt>
      <trkpt lat="44.88268" lon="5.52834">
        <ele>1720.2</ele>
        <time>2022-01-19T14:09:41Z</time>
      </trkpt>
      <trkpt lat="44.88269" lon="5.52838">
        <ele>1719.1</ele>
        <time>2022-01-19T14:09:42Z</time>
      </trkpt>
      <trkpt lat="44.88267" lon="5.52842">
        <ele>1718</ele>
        <time>2022-01-19T14:09:43Z</time>
      </trkpt>
      <trkpt lat="44.88265" lon="5.52847">
        <ele>1717.1</ele>
        <time>2022-01-19T14:09:44Z</time>
      </trkpt>
      <trkpt lat="44.88262" lon="5.52852">
        <ele>1716.3</ele>
        <time>2022-01-19T14:09:45Z</time>
      </trkpt>
      <trkpt lat="44.8826" lon="5.5286">
        <ele>1714.2</ele>
        <time>2022-01-19T14:09:46Z</time>
      </trkpt>
      <trkpt lat="44.88258" lon="5.52866">
        <ele>1712</ele>
        <time>2022-01-19T14:09:47Z</time>
      </trkpt>
      <trkpt lat="44.88257" lon="5.5287">
        <ele>1711.2</ele>
        <time>2022-01-19T14:09:48Z</time>
      </trkpt>
      <trkpt lat="44.88257" lon="5.52873">
        <ele>1710.9</ele>
        <time>2022-01-19T14:09:49Z</time>
      </trkpt>
      <trkpt lat="44.88256" lon="5.52875">
        <ele>1709.7</ele>
        <time>2022-01-19T14:09:50Z</time>
      </trkpt>
      <trkpt lat="44.88254" lon="5.52878">
        <ele>1709.4</ele>
        <time>2022-01-19T14:09:51Z</time>
      </trkpt>
      <trkpt lat="44.88253" lon="5.52882">
        <ele>1708.6</ele>
        <time>2022-01-19T14:09:52Z</time>
      </trkpt>
      <trkpt lat="44.88251" lon="5.52886">
        <ele>1707.9</ele>
        <time>2022-01-19T14:09:53Z</time>
      </trkpt>
      <trkpt lat="44.88249" lon="5.52891">
        <ele>1706.6</ele>
        <time>2022-01-19T14:09:54Z</time>
      </trkpt>
      <trkpt lat="44.88247" lon="5.52895">
        <ele>1705.9</ele>
        <time>2022-01-19T14:09:55Z</time>
      </trkpt>
      <trkpt lat="44.88245" lon="5.52897">
        <ele>1705.3</ele>
        <time>2022-01-19T14:09:56Z</time>
      </trkpt>
      <trkpt lat="44.88242" lon="5.52898">
        <ele>1705</ele>
        <time>2022-01-19T14:09:57Z</time>
      </trkpt>
      <trkpt lat="44.8824" lon="5.529">
        <ele>1704.2</ele>
        <time>2022-01-19T14:09:58Z</time>
      </trkpt>
      <trkpt lat="44.88236" lon="5.52902">
        <ele>1704.3</ele>
        <time>2022-01-19T14:09:59Z</time>
      </trkpt>
      <trkpt lat="44.88234" lon="5.52903">
        <ele>1704.4</ele>
        <time>2022-01-19T14:10:00Z</time>
      </trkpt>
      <trkpt lat="44.88232" lon="5.52904">
        <ele>1704.5</ele>
        <time>2022-01-19T14:10:01Z</time>
      </trkpt>
      <trkpt lat="44.8823" lon="5.52904">
        <ele>1704.3</ele>
        <time>2022-01-19T14:10:02Z</time>
      </trkpt>
      <trkpt lat="44.88229" lon="5.52905">
        <ele>1703.4</ele>
        <time>2022-01-19T14:10:03Z</time>
      </trkpt>
      <trkpt lat="44.88226" lon="5.52906">
        <ele>1703.5</ele>
        <time>2022-01-19T14:10:04Z</time>
      </trkpt>
      <trkpt lat="44.88222" lon="5.52907">
        <ele>1703.6</ele>
        <time>2022-01-19T14:10:05Z</time>
      </trkpt>
      <trkpt lat="44.88218" lon="5.52909">
        <ele>1702.6</ele>
        <time>2022-01-19T14:10:06Z</time>
      </trkpt>
      <trkpt lat="44.88215" lon="5.52911">
        <ele>1702.5</ele>
        <time>2022-01-19T14:10:07Z</time>
      </trkpt>
      <trkpt lat="44.88214" lon="5.52913">
        <ele>1702.6</ele>
        <time>2022-01-19T14:10:08Z</time>
      </trkpt>
      <trkpt lat="44.88213" lon="5.52914">
        <ele>1701.2</ele>
        <time>2022-01-19T14:10:09Z</time>
      </trkpt>
      <trkpt lat="44.88214" lon="5.52917">
        <ele>1700.9</ele>
        <time>2022-01-19T14:10:10Z</time>
      </trkpt>
      <trkpt lat="44.88214" lon="5.52919">
        <ele>1699.5</ele>
        <time>2022-01-19T14:10:11Z</time>
      </trkpt>
      <trkpt lat="44.88213" lon="5.52921">
        <ele>1699.2</ele>
        <time>2022-01-19T14:10:12Z</time>
      </trkpt>
      <trkpt lat="44.88213" lon="5.52924">
        <ele>1697.7</ele>
        <time>2022-01-19T14:10:13Z</time>
      </trkpt>
      <trkpt lat="44.88212" lon="5.52926">
        <ele>1696.4</ele>
        <time>2022-01-19T14:10:14Z</time>
      </trkpt>
      <trkpt lat="44.8821" lon="5.52928">
        <ele>1696.2</ele>
        <time>2022-01-19T14:10:15Z</time>
      </trkpt>
      <trkpt lat="44.88209" lon="5.5293">
        <ele>1695.9</ele>
        <time>2022-01-19T14:10:16Z</time>
      </trkpt>
      <trkpt lat="44.88208" lon="5.52933">
        <ele>1694.6</ele>
        <time>2022-01-19T14:10:17Z</time>
      </trkpt>
      <trkpt lat="44.88208" lon="5.52936">
        <ele>1693</ele>
        <time>2022-01-19T14:10:18Z</time>
      </trkpt>
      <trkpt lat="44.8821" lon="5.52938">
        <ele>1692.5</ele>
        <time>2022-01-19T14:10:19Z</time>
      </trkpt>
      <trkpt lat="44.88211" lon="5.52939">
        <ele>1691</ele>
        <time>2022-01-19T14:10:20Z</time>
      </trkpt>
      <trkpt lat="44.88211" lon="5.5294">
        <ele>1690.7</ele>
        <time>2022-01-19T14:10:21Z</time>
      </trkpt>
      <trkpt lat="44.88209" lon="5.52943">
        <ele>1689.2</ele>
        <time>2022-01-19T14:10:22Z</time>
      </trkpt>
      <trkpt lat="44.88208" lon="5.52947">
        <ele>1688</ele>
        <time>2022-01-19T14:10:23Z</time>
      </trkpt>
      <trkpt lat="44.88208" lon="5.5295">
        <ele>1687.7</ele>
        <time>2022-01-19T14:10:24Z</time>
      </trkpt>
      <trkpt lat="44.88209" lon="5.52952">
        <ele>1686</ele>
        <time>2022-01-19T14:10:25Z</time>
      </trkpt>
      <trkpt lat="44.88211" lon="5.52952">
        <ele>1685.8</ele>
        <time>2022-01-19T14:10:26Z</time>
      </trkpt>
      <trkpt lat="44.88213" lon="5.52953">
        <ele>1685.3</ele>
        <time>2022-01-19T14:10:27Z</time>
      </trkpt>
      <trkpt lat="44.88213" lon="5.52955">
        <ele>1685</ele>
        <time>2022-01-19T14:10:28Z</time>
      </trkpt>
      <trkpt lat="44.88212" lon="5.52957">
        <ele>1683.6</ele>
        <time>2022-01-19T14:10:29Z</time>
      </trkpt>
      <trkpt lat="44.88212" lon="5.5296">
        <ele>1682.1</ele>
        <time>2022-01-19T14:10:30Z</time>
      </trkpt>
      <trkpt lat="44.88213" lon="5.52963">
        <ele>1681.8</ele>
        <time>2022-01-19T14:10:31Z</time>
      </trkpt>
      <trkpt lat="44.88217" lon="5.52964">
        <ele>1680</ele>
        <time>2022-01-19T14:10:32Z</time>
      </trkpt>
      <trkpt lat="44.88222" lon="5.52965">
        <ele>1679.1</ele>
        <time>2022-01-19T14:10:33Z</time>
      </trkpt>
      <trkpt lat="44.88226" lon="5.52966">
        <ele>1678.5</ele>
        <time>2022-01-19T14:10:34Z</time>
      </trkpt>
      <trkpt lat="44.8823" lon="5.52967">
        <ele>1678</ele>
        <time>2022-01-19T14:10:35Z</time>
      </trkpt>
      <trkpt lat="44.88232" lon="5.52971">
        <ele>1676</ele>
        <time>2022-01-19T14:10:36Z</time>
      </trkpt>
      <trkpt lat="44.88233" lon="5.52976">
        <ele>1674</ele>
        <time>2022-01-19T14:10:37Z</time>
      </trkpt>
      <trkpt lat="44.88233" lon="5.5298">
        <ele>1672.3</ele>
        <time>2022-01-19T14:10:38Z</time>
      </trkpt>
      <trkpt lat="44.88234" lon="5.52984">
        <ele>1670.7</ele>
        <time>2022-01-19T14:10:39Z</time>
      </trkpt>
      <trkpt lat="44.88235" lon="5.52987">
        <ele>1669.1</ele>
        <time>2022-01-19T14:10:40Z</time>
      </trkpt>
      <trkpt lat="44.88235" lon="5.52988">
        <ele>1668.8</ele>
        <time>2022-01-19T14:10:41Z</time>
      </trkpt>
      <trkpt lat="44.88235" lon="5.52988">
        <ele>1668.6</ele>
        <time>2022-01-19T14:10:42Z</time>
      </trkpt>
      <trkpt lat="44.88236" lon="5.52988">
        <ele>1668.3</ele>
        <time>2022-01-19T14:10:43Z</time>
      </trkpt>
      <trkpt lat="44.88236" lon="5.52988">
        <ele>1668</ele>
        <time>2022-01-19T14:10:44Z</time>
      </trkpt>
      <trkpt lat="44.88236" lon="5.52988">
        <ele>1667.8</ele>
        <time>2022-01-19T14:10:45Z</time>
      </trkpt>
      <trkpt lat="44.88236" lon="5.52988">
        <ele>1667.5</ele>
        <time>2022-01-19T14:10:46Z</time>
      </trkpt>
      <trkpt lat="44.88236" lon="5.52988">
        <ele>1667.2</ele>
        <time>2022-01-19T14:10:47Z</time>
      </trkpt>
      <trkpt lat="44.88236" lon="5.52988">
        <ele>1667</ele>
        <time>2022-01-19T14:10:48Z</time>
      </trkpt>
      <trkpt lat="44.88236" lon="5.52988">
        <ele>1666.7</ele>
        <time>2022-01-19T14:10:49Z</time>
      </trkpt>
      <trkpt lat="44.88236" lon="5.52988">
        <ele>1666.4</ele>
        <time>2022-01-19T14:10:50Z</time>
      </trkpt>
      <trkpt lat="44.88236" lon="5.52988">
        <ele>1666.2</ele>
        <time>2022-01-19T14:10:51Z</time>
      </trkpt>
      <trkpt lat="44.88236" lon="5.52988">
        <ele>1665.9</ele>
        <time>2022-01-19T14:10:52Z</time>
      </trkpt>
      <trkpt lat="44.88236" lon="5.52988">
        <ele>1665.6</ele>
        <time>2022-01-19T14:10:53Z</time>
      </trkpt>
      <trkpt lat="44.88236" lon="5.52988">
        <ele>1665.4</ele>
        <time>2022-01-19T14:10:54Z</time>
      </trkpt>
      <trkpt lat="44.88236" lon="5.52988">
        <ele>1665.1</ele>
        <time>2022-01-19T14:10:55Z</time>
      </trkpt>
      <trkpt lat="44.88236" lon="5.52988">
        <ele>1664.8</ele>
        <time>2022-01-19T14:10:56Z</time>
      </trkpt>
      <trkpt lat="44.88236" lon="5.52988">
        <ele>1664.6</ele>
        <time>2022-01-19T14:10:57Z</time>
      </trkpt>
      <trkpt lat="44.88236" lon="5.52988">
        <ele>1664.3</ele>
        <time>2022-01-19T14:10:58Z</time>
      </trkpt>
      <trkpt lat="44.88236" lon="5.52988">
        <ele>1664</ele>
        <time>2022-01-19T14:10:59Z</time>
      </trkpt>
      <trkpt lat="44.88236" lon="5.52988">
        <ele>1663.8</ele>
        <time>2022-01-19T14:11:00Z</time>
      </trkpt>
      <trkpt lat="44.88236" lon="5.52988">
        <ele>1663.5</ele>
        <time>2022-01-19T14:11:01Z</time>
      </trkpt>
      <trkpt lat="44.88236" lon="5.52988">
        <ele>1663.2</ele>
        <time>2022-01-19T14:11:02Z</time>
      </trkpt>
      <trkpt lat="44.88236" lon="5.52988">
        <ele>1663</ele>
        <time>2022-01-19T14:11:03Z</time>
      </trkpt>
      <trkpt lat="44.88236" lon="5.52988">
        <ele>1662.7</ele>
        <time>2022-01-19T14:11:04Z</time>
      </trkpt>
      <trkpt lat="44.88235" lon="5.52993">
        <ele>1661.2</ele>
        <time>2022-01-19T14:11:05Z</time>
      </trkpt>
      <trkpt lat="44.88235" lon="5.52997">
        <ele>1659.7</ele>
        <time>2022-01-19T14:11:06Z</time>
      </trkpt>
      <trkpt lat="44.88235" lon="5.53002">
        <ele>1658.1</ele>
        <time>2022-01-19T14:11:07Z</time>
      </trkpt>
      <trkpt lat="44.88235" lon="5.53009">
        <ele>1655.2</ele>
        <time>2022-01-19T14:11:08Z</time>
      </trkpt>
      <trkpt lat="44.88237" lon="5.53017">
        <ele>1651.8</ele>
        <time>2022-01-19T14:11:09Z</time>
      </trkpt>
      <trkpt lat="44.88238" lon="5.53023">
        <ele>1650</ele>
        <time>2022-01-19T14:11:10Z</time>
      </trkpt>
      <trkpt lat="44.8824" lon="5.53029">
        <ele>1646.4</ele>
        <time>2022-01-19T14:11:11Z</time>
      </trkpt>
      <trkpt lat="44.88238" lon="5.53035">
        <ele>1645.3</ele>
        <time>2022-01-19T14:11:12Z</time>
      </trkpt>
      <trkpt lat="44.88237" lon="5.53038">
        <ele>1643.8</ele>
        <time>2022-01-19T14:11:13Z</time>
      </trkpt>
      <trkpt lat="44.88236" lon="5.5304">
        <ele>1643.5</ele>
        <time>2022-01-19T14:11:14Z</time>
      </trkpt>
      <trkpt lat="44.88236" lon="5.53043">
        <ele>1642.5</ele>
        <time>2022-01-19T14:11:15Z</time>
      </trkpt>
      <trkpt lat="44.88234" lon="5.53046">
        <ele>1641</ele>
        <time>2022-01-19T14:11:16Z</time>
      </trkpt>
      <trkpt lat="44.88233" lon="5.5305">
        <ele>1640.7</ele>
        <time>2022-01-19T14:11:17Z</time>
      </trkpt>
      <trkpt lat="44.88233" lon="5.53053">
        <ele>1639.3</ele>
        <time>2022-01-19T14:11:18Z</time>
      </trkpt>
      <trkpt lat="44.88234" lon="5.53056">
        <ele>1637.7</ele>
        <time>2022-01-19T14:11:19Z</time>
      </trkpt>
      <trkpt lat="44.88235" lon="5.53057">
        <ele>1637.4</ele>
        <time>2022-01-19T14:11:20Z</time>
      </trkpt>
      <trkpt lat="44.88237" lon="5.53058">
        <ele>1636.7</ele>
        <time>2022-01-19T14:11:21Z</time>
      </trkpt>
      <trkpt lat="44.88238" lon="5.53058">
        <ele>1636.4</ele>
        <time>2022-01-19T14:11:22Z</time>
      </trkpt>
      <trkpt lat="44.88238" lon="5.53058">
        <ele>1636.1</ele>
        <time>2022-01-19T14:11:23Z</time>
      </trkpt>
      <trkpt lat="44.88238" lon="5.53058">
        <ele>1635.9</ele>
        <time>2022-01-19T14:11:24Z</time>
      </trkpt>
      <trkpt lat="44.88238" lon="5.53058">
        <ele>1635.6</ele>
        <time>2022-01-19T14:11:25Z</time>
      </trkpt>
      <trkpt lat="44.88238" lon="5.53058">
        <ele>1635.6</ele>
        <time>2022-01-19T14:11:26Z</time>
      </trkpt>
      <trkpt lat="44.88238" lon="5.53058">
        <ele>1635.6</ele>
        <time>2022-01-19T14:11:27Z</time>
      </trkpt>
      <trkpt lat="44.88239" lon="5.53058">
        <ele>1635.6</ele>
        <time>2022-01-19T14:11:28Z</time>
      </trkpt>
      <trkpt lat="44.88239" lon="5.53058">
        <ele>1635.6</ele>
        <time>2022-01-19T14:11:29Z</time>
      </trkpt>
      <trkpt lat="44.88239" lon="5.53058">
        <ele>1635.6</ele>
        <time>2022-01-19T14:11:30Z</time>
      </trkpt>
      <trkpt lat="44.88239" lon="5.53058">
        <ele>1635.6</ele>
        <time>2022-01-19T14:11:31Z</time>
      </trkpt>
      <trkpt lat="44.88239" lon="5.53058">
        <ele>1635.1</ele>
        <time>2022-01-19T14:11:32Z</time>
      </trkpt>
      <trkpt lat="44.88239" lon="5.53058">
        <ele>1635.1</ele>
        <time>2022-01-19T14:11:33Z</time>
      </trkpt>
      <trkpt lat="44.88239" lon="5.53058">
        <ele>1635.1</ele>
        <time>2022-01-19T14:11:34Z</time>
      </trkpt>
      <trkpt lat="44.88239" lon="5.53058">
        <ele>1635.1</ele>
        <time>2022-01-19T14:11:35Z</time>
      </trkpt>
      <trkpt lat="44.8824" lon="5.53058">
        <ele>1635.1</ele>
        <time>2022-01-19T14:11:36Z</time>
      </trkpt>
      <trkpt lat="44.8824" lon="5.53058">
        <ele>1635.1</ele>
        <time>2022-01-19T14:11:37Z</time>
      </trkpt>
      <trkpt lat="44.8824" lon="5.53058">
        <ele>1635.1</ele>
        <time>2022-01-19T14:11:38Z</time>
      </trkpt>
      <trkpt lat="44.8824" lon="5.53058">
        <ele>1635.1</ele>
        <time>2022-01-19T14:11:39Z</time>
      </trkpt>
      <trkpt lat="44.8824" lon="5.53058">
        <ele>1635.1</ele>
        <time>2022-01-19T14:11:40Z</time>
      </trkpt>
      <trkpt lat="44.8824" lon="5.53058">
        <ele>1635.1</ele>
        <time>2022-01-19T14:11:41Z</time>
      </trkpt>
      <trkpt lat="44.8824" lon="5.53057">
        <ele>1635.1</ele>
        <time>2022-01-19T14:11:42Z</time>
      </trkpt>
      <trkpt lat="44.8824" lon="5.53057">
        <ele>1635.1</ele>
        <time>2022-01-19T14:11:43Z</time>
      </trkpt>
      <trkpt lat="44.88241" lon="5.53057">
        <ele>1635.1</ele>
        <time>2022-01-19T14:11:44Z</time>
      </trkpt>
      <trkpt lat="44.88241" lon="5.53057">
        <ele>1635.1</ele>
        <time>2022-01-19T14:11:45Z</time>
      </trkpt>
      <trkpt lat="44.88241" lon="5.53057">
        <ele>1635.1</ele>
        <time>2022-01-19T14:11:46Z</time>
      </trkpt>
      <trkpt lat="44.88241" lon="5.53057">
        <ele>1635.1</ele>
        <time>2022-01-19T14:11:47Z</time>
      </trkpt>
      <trkpt lat="44.88241" lon="5.53057">
        <ele>1635.1</ele>
        <time>2022-01-19T14:11:48Z</time>
      </trkpt>
      <trkpt lat="44.88241" lon="5.53057">
        <ele>1635.1</ele>
        <time>2022-01-19T14:11:49Z</time>
      </trkpt>
      <trkpt lat="44.88241" lon="5.53057">
        <ele>1635.1</ele>
        <time>2022-01-19T14:11:50Z</time>
      </trkpt>
      <trkpt lat="44.88241" lon="5.53057">
        <ele>1635.1</ele>
        <time>2022-01-19T14:11:51Z</time>
      </trkpt>
      <trkpt lat="44.88242" lon="5.53057">
        <ele>1635.1</ele>
        <time>2022-01-19T14:11:52Z</time>
      </trkpt>
      <trkpt lat="44.88242" lon="5.53057">
        <ele>1635.1</ele>
        <time>2022-01-19T14:11:53Z</time>
      </trkpt>
      <trkpt lat="44.88242" lon="5.53057">
        <ele>1635.1</ele>
        <time>2022-01-19T14:11:54Z</time>
      </trkpt>
      <trkpt lat="44.88242" lon="5.53057">
        <ele>1635.1</ele>
        <time>2022-01-19T14:11:55Z</time>
      </trkpt>
      <trkpt lat="44.88242" lon="5.53057">
        <ele>1635.1</ele>
        <time>2022-01-19T14:11:56Z</time>
      </trkpt>
      <trkpt lat="44.88242" lon="5.53057">
        <ele>1635.1</ele>
        <time>2022-01-19T14:11:57Z</time>
      </trkpt>
      <trkpt lat="44.88242" lon="5.53057">
        <ele>1634.7</ele>
        <time>2022-01-19T14:11:58Z</time>
      </trkpt>
      <trkpt lat="44.88242" lon="5.53057">
        <ele>1634.7</ele>
        <time>2022-01-19T14:11:59Z</time>
      </trkpt>
      <trkpt lat="44.88243" lon="5.53057">
        <ele>1634.7</ele>
        <time>2022-01-19T14:12:00Z</time>
      </trkpt>
      <trkpt lat="44.88243" lon="5.53057">
        <ele>1634.7</ele>
        <time>2022-01-19T14:12:01Z</time>
      </trkpt>
      <trkpt lat="44.88243" lon="5.53057">
        <ele>1634.7</ele>
        <time>2022-01-19T14:12:02Z</time>
      </trkpt>
      <trkpt lat="44.88243" lon="5.53057">
        <ele>1634.7</ele>
        <time>2022-01-19T14:12:03Z</time>
      </trkpt>
      <trkpt lat="44.88243" lon="5.53057">
        <ele>1634.7</ele>
        <time>2022-01-19T14:12:04Z</time>
      </trkpt>
      <trkpt lat="44.88243" lon="5.53057">
        <ele>1634.7</ele>
        <time>2022-01-19T14:12:05Z</time>
      </trkpt>
      <trkpt lat="44.88243" lon="5.53057">
        <ele>1634.7</ele>
        <time>2022-01-19T14:12:06Z</time>
      </trkpt>
      <trkpt lat="44.88243" lon="5.53057">
        <ele>1634.7</ele>
        <time>2022-01-19T14:12:07Z</time>
      </trkpt>
      <trkpt lat="44.88244" lon="5.53057">
        <ele>1634.7</ele>
        <time>2022-01-19T14:12:08Z</time>
      </trkpt>
      <trkpt lat="44.88246" lon="5.53057">
        <ele>1634.2</ele>
        <time>2022-01-19T14:12:09Z</time>
      </trkpt>
      <trkpt lat="44.88246" lon="5.53058">
        <ele>1634.2</ele>
        <time>2022-01-19T14:12:10Z</time>
      </trkpt>
      <trkpt lat="44.88247" lon="5.53058">
        <ele>1634.2</ele>
        <time>2022-01-19T14:12:11Z</time>
      </trkpt>
      <trkpt lat="44.88248" lon="5.53058">
        <ele>1634.2</ele>
        <time>2022-01-19T14:12:12Z</time>
      </trkpt>
      <trkpt lat="44.88248" lon="5.53058">
        <ele>1633.6</ele>
        <time>2022-01-19T14:12:13Z</time>
      </trkpt>
      <trkpt lat="44.88249" lon="5.53058">
        <ele>1633.6</ele>
        <time>2022-01-19T14:12:14Z</time>
      </trkpt>
      <trkpt lat="44.8825" lon="5.53061">
        <ele>1632.3</ele>
        <time>2022-01-19T14:12:15Z</time>
      </trkpt>
      <trkpt lat="44.8825" lon="5.53064">
        <ele>1630.9</ele>
        <time>2022-01-19T14:12:16Z</time>
      </trkpt>
      <trkpt lat="44.88249" lon="5.53067">
        <ele>1629.5</ele>
        <time>2022-01-19T14:12:17Z</time>
      </trkpt>
      <trkpt lat="44.88248" lon="5.53071">
        <ele>1630.1</ele>
        <time>2022-01-19T14:12:18Z</time>
      </trkpt>
      <trkpt lat="44.8825" lon="5.53074">
        <ele>1628.2</ele>
        <time>2022-01-19T14:12:19Z</time>
      </trkpt>
      <trkpt lat="44.88251" lon="5.53078">
        <ele>1626.8</ele>
        <time>2022-01-19T14:12:20Z</time>
      </trkpt>
      <trkpt lat="44.8825" lon="5.53082">
        <ele>1625.4</ele>
        <time>2022-01-19T14:12:21Z</time>
      </trkpt>
      <trkpt lat="44.88249" lon="5.53088">
        <ele>1624.1</ele>
        <time>2022-01-19T14:12:22Z</time>
      </trkpt>
      <trkpt lat="44.88248" lon="5.53095">
        <ele>1621.8</ele>
        <time>2022-01-19T14:12:23Z</time>
      </trkpt>
      <trkpt lat="44.88247" lon="5.53102">
        <ele>1618.8</ele>
        <time>2022-01-19T14:12:24Z</time>
      </trkpt>
      <trkpt lat="44.88245" lon="5.53107">
        <ele>1617.8</ele>
        <time>2022-01-19T14:12:25Z</time>
      </trkpt>
      <trkpt lat="44.88243" lon="5.5311">
        <ele>1617.8</ele>
        <time>2022-01-19T14:12:26Z</time>
      </trkpt>
      <trkpt lat="44.88242" lon="5.53112">
        <ele>1616.8</ele>
        <time>2022-01-19T14:12:27Z</time>
      </trkpt>
      <trkpt lat="44.88241" lon="5.53116">
        <ele>1615.4</ele>
        <time>2022-01-19T14:12:28Z</time>
      </trkpt>
      <trkpt lat="44.8824" lon="5.5312">
        <ele>1614</ele>
        <time>2022-01-19T14:12:29Z</time>
      </trkpt>
      <trkpt lat="44.8824" lon="5.53124">
        <ele>1612.7</ele>
        <time>2022-01-19T14:12:30Z</time>
      </trkpt>
      <trkpt lat="44.8824" lon="5.53127">
        <ele>1612.7</ele>
        <time>2022-01-19T14:12:31Z</time>
      </trkpt>
      <trkpt lat="44.88242" lon="5.53129">
        <ele>1611.5</ele>
        <time>2022-01-19T14:12:32Z</time>
      </trkpt>
      <trkpt lat="44.88242" lon="5.53133">
        <ele>1610.2</ele>
        <time>2022-01-19T14:12:33Z</time>
      </trkpt>
      <trkpt lat="44.88243" lon="5.53136">
        <ele>1609.7</ele>
        <time>2022-01-19T14:12:34Z</time>
      </trkpt>
      <trkpt lat="44.88245" lon="5.53137">
        <ele>1608.5</ele>
        <time>2022-01-19T14:12:35Z</time>
      </trkpt>
      <trkpt lat="44.88246" lon="5.53139">
        <ele>1607.9</ele>
        <time>2022-01-19T14:12:36Z</time>
      </trkpt>
      <trkpt lat="44.88247" lon="5.53143">
        <ele>1606.6</ele>
        <time>2022-01-19T14:12:37Z</time>
      </trkpt>
      <trkpt lat="44.88246" lon="5.53148">
        <ele>1605.4</ele>
        <time>2022-01-19T14:12:38Z</time>
      </trkpt>
      <trkpt lat="44.88244" lon="5.53153">
        <ele>1603.3</ele>
        <time>2022-01-19T14:12:39Z</time>
      </trkpt>
      <trkpt lat="44.88241" lon="5.53158">
        <ele>1602.6</ele>
        <time>2022-01-19T14:12:40Z</time>
      </trkpt>
      <trkpt lat="44.88238" lon="5.53162">
        <ele>1602</ele>
        <time>2022-01-19T14:12:41Z</time>
      </trkpt>
      <trkpt lat="44.88236" lon="5.53167">
        <ele>1600.8</ele>
        <time>2022-01-19T14:12:42Z</time>
      </trkpt>
      <trkpt lat="44.88235" lon="5.53173">
        <ele>1600.3</ele>
        <time>2022-01-19T14:12:43Z</time>
      </trkpt>
      <trkpt lat="44.88233" lon="5.53178">
        <ele>1599.2</ele>
        <time>2022-01-19T14:12:44Z</time>
      </trkpt>
      <trkpt lat="44.88233" lon="5.53182">
        <ele>1598.8</ele>
        <time>2022-01-19T14:12:45Z</time>
      </trkpt>
      <trkpt lat="44.88232" lon="5.53185">
        <ele>1597.7</ele>
        <time>2022-01-19T14:12:46Z</time>
      </trkpt>
      <trkpt lat="44.88232" lon="5.53186">
        <ele>1597.7</ele>
        <time>2022-01-19T14:12:47Z</time>
      </trkpt>
      <trkpt lat="44.88232" lon="5.53187">
        <ele>1597.7</ele>
        <time>2022-01-19T14:12:48Z</time>
      </trkpt>
      <trkpt lat="44.88232" lon="5.53187">
        <ele>1597.7</ele>
        <time>2022-01-19T14:12:49Z</time>
      </trkpt>
      <trkpt lat="44.88232" lon="5.53187">
        <ele>1597.7</ele>
        <time>2022-01-19T14:12:50Z</time>
      </trkpt>
      <trkpt lat="44.88232" lon="5.53187">
        <ele>1597.7</ele>
        <time>2022-01-19T14:12:51Z</time>
      </trkpt>
      <trkpt lat="44.88232" lon="5.53188">
        <ele>1596.5</ele>
        <time>2022-01-19T14:12:52Z</time>
      </trkpt>
      <trkpt lat="44.88232" lon="5.53188">
        <ele>1596.5</ele>
        <time>2022-01-19T14:12:53Z</time>
      </trkpt>
      <trkpt lat="44.88232" lon="5.53188">
        <ele>1596.5</ele>
        <time>2022-01-19T14:12:54Z</time>
      </trkpt>
      <trkpt lat="44.88232" lon="5.53188">
        <ele>1596.5</ele>
        <time>2022-01-19T14:12:55Z</time>
      </trkpt>
      <trkpt lat="44.88232" lon="5.53188">
        <ele>1596.5</ele>
        <time>2022-01-19T14:12:56Z</time>
      </trkpt>
      <trkpt lat="44.88232" lon="5.53189">
        <ele>1596.5</ele>
        <time>2022-01-19T14:12:57Z</time>
      </trkpt>
      <trkpt lat="44.88232" lon="5.53189">
        <ele>1596.5</ele>
        <time>2022-01-19T14:12:58Z</time>
      </trkpt>
      <trkpt lat="44.88232" lon="5.53189">
        <ele>1596.5</ele>
        <time>2022-01-19T14:12:59Z</time>
      </trkpt>
      <trkpt lat="44.88232" lon="5.53189">
        <ele>1596.5</ele>
        <time>2022-01-19T14:13:00Z</time>
      </trkpt>
      <trkpt lat="44.88232" lon="5.5319">
        <ele>1596.5</ele>
        <time>2022-01-19T14:13:01Z</time>
      </trkpt>
      <trkpt lat="44.88232" lon="5.5319">
        <ele>1596.5</ele>
        <time>2022-01-19T14:13:02Z</time>
      </trkpt>
      <trkpt lat="44.88232" lon="5.5319">
        <ele>1596.5</ele>
        <time>2022-01-19T14:13:03Z</time>
      </trkpt>
      <trkpt lat="44.88232" lon="5.5319">
        <ele>1596.5</ele>
        <time>2022-01-19T14:13:04Z</time>
      </trkpt>
      <trkpt lat="44.88232" lon="5.53191">
        <ele>1596.5</ele>
        <time>2022-01-19T14:13:05Z</time>
      </trkpt>
      <trkpt lat="44.88232" lon="5.53191">
        <ele>1596.5</ele>
        <time>2022-01-19T14:13:06Z</time>
      </trkpt>
      <trkpt lat="44.88232" lon="5.53191">
        <ele>1596.5</ele>
        <time>2022-01-19T14:13:07Z</time>
      </trkpt>
      <trkpt lat="44.88232" lon="5.53191">
        <ele>1596.5</ele>
        <time>2022-01-19T14:13:08Z</time>
      </trkpt>
      <trkpt lat="44.88232" lon="5.53192">
        <ele>1596.5</ele>
        <time>2022-01-19T14:13:09Z</time>
      </trkpt>
      <trkpt lat="44.88232" lon="5.53192">
        <ele>1595.3</ele>
        <time>2022-01-19T14:13:10Z</time>
      </trkpt>
      <trkpt lat="44.88232" lon="5.53192">
        <ele>1595.3</ele>
        <time>2022-01-19T14:13:11Z</time>
      </trkpt>
      <trkpt lat="44.88232" lon="5.53192">
        <ele>1595.3</ele>
        <time>2022-01-19T14:13:12Z</time>
      </trkpt>
      <trkpt lat="44.88232" lon="5.53192">
        <ele>1595.3</ele>
        <time>2022-01-19T14:13:13Z</time>
      </trkpt>
      <trkpt lat="44.88232" lon="5.53193">
        <ele>1595.3</ele>
        <time>2022-01-19T14:13:14Z</time>
      </trkpt>
      <trkpt lat="44.88232" lon="5.53193">
        <ele>1595.3</ele>
        <time>2022-01-19T14:13:15Z</time>
      </trkpt>
      <trkpt lat="44.88232" lon="5.53193">
        <ele>1595.3</ele>
        <time>2022-01-19T14:13:16Z</time>
      </trkpt>
      <trkpt lat="44.88232" lon="5.53193">
        <ele>1595.3</ele>
        <time>2022-01-19T14:13:17Z</time>
      </trkpt>
      <trkpt lat="44.88232" lon="5.53194">
        <ele>1595.3</ele>
        <time>2022-01-19T14:13:18Z</time>
      </trkpt>
      <trkpt lat="44.88232" lon="5.53194">
        <ele>1595.3</ele>
        <time>2022-01-19T14:13:19Z</time>
      </trkpt>
      <trkpt lat="44.88232" lon="5.53194">
        <ele>1595.3</ele>
        <time>2022-01-19T14:13:20Z</time>
      </trkpt>
      <trkpt lat="44.88232" lon="5.53194">
        <ele>1595.3</ele>
        <time>2022-01-19T14:13:21Z</time>
      </trkpt>
      <trkpt lat="44.88232" lon="5.53195">
        <ele>1595.3</ele>
        <time>2022-01-19T14:13:22Z</time>
      </trkpt>
      <trkpt lat="44.88232" lon="5.53195">
        <ele>1595.3</ele>
        <time>2022-01-19T14:13:23Z</time>
      </trkpt>
      <trkpt lat="44.88232" lon="5.53195">
        <ele>1595.3</ele>
        <time>2022-01-19T14:13:24Z</time>
      </trkpt>
      <trkpt lat="44.88232" lon="5.53195">
        <ele>1595.3</ele>
        <time>2022-01-19T14:13:25Z</time>
      </trkpt>
      <trkpt lat="44.88232" lon="5.53196">
        <ele>1595.3</ele>
        <time>2022-01-19T14:13:26Z</time>
      </trkpt>
      <trkpt lat="44.88232" lon="5.53196">
        <ele>1595.3</ele>
        <time>2022-01-19T14:13:27Z</time>
      </trkpt>
      <trkpt lat="44.88232" lon="5.53196">
        <ele>1594</ele>
        <time>2022-01-19T14:13:28Z</time>
      </trkpt>
      <trkpt lat="44.88232" lon="5.53196">
        <ele>1594</ele>
        <time>2022-01-19T14:13:29Z</time>
      </trkpt>
      <trkpt lat="44.88232" lon="5.53196">
        <ele>1594</ele>
        <time>2022-01-19T14:13:30Z</time>
      </trkpt>
      <trkpt lat="44.88232" lon="5.53197">
        <ele>1594</ele>
        <time>2022-01-19T14:13:31Z</time>
      </trkpt>
      <trkpt lat="44.88232" lon="5.53197">
        <ele>1594</ele>
        <time>2022-01-19T14:13:32Z</time>
      </trkpt>
      <trkpt lat="44.88232" lon="5.53197">
        <ele>1594</ele>
        <time>2022-01-19T14:13:33Z</time>
      </trkpt>
      <trkpt lat="44.88232" lon="5.53197">
        <ele>1594</ele>
        <time>2022-01-19T14:13:34Z</time>
      </trkpt>
      <trkpt lat="44.88232" lon="5.53198">
        <ele>1594</ele>
        <time>2022-01-19T14:13:35Z</time>
      </trkpt>
      <trkpt lat="44.88232" lon="5.53198">
        <ele>1594</ele>
        <time>2022-01-19T14:13:36Z</time>
      </trkpt>
      <trkpt lat="44.88233" lon="5.53198">
        <ele>1594</ele>
        <time>2022-01-19T14:13:37Z</time>
      </trkpt>
      <trkpt lat="44.88233" lon="5.53198">
        <ele>1594</ele>
        <time>2022-01-19T14:13:38Z</time>
      </trkpt>
      <trkpt lat="44.88233" lon="5.53199">
        <ele>1594</ele>
        <time>2022-01-19T14:13:39Z</time>
      </trkpt>
      <trkpt lat="44.88233" lon="5.53199">
        <ele>1594</ele>
        <time>2022-01-19T14:13:40Z</time>
      </trkpt>
      <trkpt lat="44.88233" lon="5.53199">
        <ele>1594</ele>
        <time>2022-01-19T14:13:41Z</time>
      </trkpt>
      <trkpt lat="44.88233" lon="5.53199">
        <ele>1594</ele>
        <time>2022-01-19T14:13:42Z</time>
      </trkpt>
      <trkpt lat="44.88233" lon="5.532">
        <ele>1594</ele>
        <time>2022-01-19T14:13:43Z</time>
      </trkpt>
      <trkpt lat="44.88233" lon="5.532">
        <ele>1594</ele>
        <time>2022-01-19T14:13:44Z</time>
      </trkpt>
      <trkpt lat="44.88233" lon="5.532">
        <ele>1594</ele>
        <time>2022-01-19T14:13:45Z</time>
      </trkpt>
      <trkpt lat="44.88233" lon="5.532">
        <ele>1594</ele>
        <time>2022-01-19T14:13:46Z</time>
      </trkpt>
      <trkpt lat="44.88233" lon="5.53201">
        <ele>1592.7</ele>
        <time>2022-01-19T14:13:47Z</time>
      </trkpt>
      <trkpt lat="44.88233" lon="5.53201">
        <ele>1592.7</ele>
        <time>2022-01-19T14:13:48Z</time>
      </trkpt>
      <trkpt lat="44.88233" lon="5.53201">
        <ele>1592.7</ele>
        <time>2022-01-19T14:13:49Z</time>
      </trkpt>
      <trkpt lat="44.88233" lon="5.53201">
        <ele>1592.7</ele>
        <time>2022-01-19T14:13:50Z</time>
      </trkpt>
      <trkpt lat="44.88233" lon="5.53201">
        <ele>1592.7</ele>
        <time>2022-01-19T14:13:51Z</time>
      </trkpt>
      <trkpt lat="44.88233" lon="5.53202">
        <ele>1592.7</ele>
        <time>2022-01-19T14:13:52Z</time>
      </trkpt>
      <trkpt lat="44.88233" lon="5.53202">
        <ele>1592.7</ele>
        <time>2022-01-19T14:13:53Z</time>
      </trkpt>
      <trkpt lat="44.88233" lon="5.53202">
        <ele>1592.7</ele>
        <time>2022-01-19T14:13:54Z</time>
      </trkpt>
      <trkpt lat="44.88233" lon="5.53207">
        <ele>1590.8</ele>
        <time>2022-01-19T14:13:55Z</time>
      </trkpt>
      <trkpt lat="44.88233" lon="5.5321">
        <ele>1589.5</ele>
        <time>2022-01-19T14:13:56Z</time>
      </trkpt>
      <trkpt lat="44.88234" lon="5.53213">
        <ele>1589.5</ele>
        <time>2022-01-19T14:13:57Z</time>
      </trkpt>
      <trkpt lat="44.88234" lon="5.53214">
        <ele>1588.3</ele>
        <time>2022-01-19T14:13:58Z</time>
      </trkpt>
      <trkpt lat="44.88236" lon="5.53214">
        <ele>1587.7</ele>
        <time>2022-01-19T14:13:59Z</time>
      </trkpt>
      <trkpt lat="44.88238" lon="5.53212">
        <ele>1588.9</ele>
        <time>2022-01-19T14:14:00Z</time>
      </trkpt>
      <trkpt lat="44.8824" lon="5.5321">
        <ele>1588.3</ele>
        <time>2022-01-19T14:14:01Z</time>
      </trkpt>
      <trkpt lat="44.88241" lon="5.53209">
        <ele>1588.3</ele>
        <time>2022-01-19T14:14:02Z</time>
      </trkpt>
      <trkpt lat="44.88243" lon="5.53208">
        <ele>1588.9</ele>
        <time>2022-01-19T14:14:03Z</time>
      </trkpt>
      <trkpt lat="44.88244" lon="5.53208">
        <ele>1588.9</ele>
        <time>2022-01-19T14:14:04Z</time>
      </trkpt>
      <trkpt lat="44.88246" lon="5.53207">
        <ele>1588.2</ele>
        <time>2022-01-19T14:14:05Z</time>
      </trkpt>
      <trkpt lat="44.8825" lon="5.53206">
        <ele>1587.4</ele>
        <time>2022-01-19T14:14:06Z</time>
      </trkpt>
      <trkpt lat="44.8825" lon="5.53208">
        <ele>1587.4</ele>
        <time>2022-01-19T14:14:07Z</time>
      </trkpt>
      <trkpt lat="44.88249" lon="5.53212">
        <ele>1586.2</ele>
        <time>2022-01-19T14:14:08Z</time>
      </trkpt>
      <trkpt lat="44.88248" lon="5.53217">
        <ele>1585.7</ele>
        <time>2022-01-19T14:14:09Z</time>
      </trkpt>
      <trkpt lat="44.88246" lon="5.53221">
        <ele>1584.4</ele>
        <time>2022-01-19T14:14:10Z</time>
      </trkpt>
      <trkpt lat="44.88246" lon="5.53224">
        <ele>1583.1</ele>
        <time>2022-01-19T14:14:11Z</time>
      </trkpt>
      <trkpt lat="44.88247" lon="5.53226">
        <ele>1581.8</ele>
        <time>2022-01-19T14:14:12Z</time>
      </trkpt>
      <trkpt lat="44.88249" lon="5.53227">
        <ele>1581</ele>
        <time>2022-01-19T14:14:13Z</time>
      </trkpt>
      <trkpt lat="44.8825" lon="5.5323">
        <ele>1581</ele>
        <time>2022-01-19T14:14:14Z</time>
      </trkpt>
      <trkpt lat="44.8825" lon="5.53233">
        <ele>1579.6</ele>
        <time>2022-01-19T14:14:15Z</time>
      </trkpt>
      <trkpt lat="44.8825" lon="5.53236">
        <ele>1578.2</ele>
        <time>2022-01-19T14:14:16Z</time>
      </trkpt>
      <trkpt lat="44.88251" lon="5.53237">
        <ele>1578.2</ele>
        <time>2022-01-19T14:14:17Z</time>
      </trkpt>
      <trkpt lat="44.88253" lon="5.53237">
        <ele>1577.4</ele>
        <time>2022-01-19T14:14:18Z</time>
      </trkpt>
      <trkpt lat="44.88254" lon="5.53237">
        <ele>1577.4</ele>
        <time>2022-01-19T14:14:19Z</time>
      </trkpt>
      <trkpt lat="44.88256" lon="5.53237">
        <ele>1576.6</ele>
        <time>2022-01-19T14:14:20Z</time>
      </trkpt>
      <trkpt lat="44.88258" lon="5.53236">
        <ele>1575.8</ele>
        <time>2022-01-19T14:14:21Z</time>
      </trkpt>
      <trkpt lat="44.8826" lon="5.53235">
        <ele>1575.1</ele>
        <time>2022-01-19T14:14:22Z</time>
      </trkpt>
      <trkpt lat="44.88262" lon="5.53234">
        <ele>1576.5</ele>
        <time>2022-01-19T14:14:23Z</time>
      </trkpt>
      <trkpt lat="44.88262" lon="5.53234">
        <ele>1576.5</ele>
        <time>2022-01-19T14:14:24Z</time>
      </trkpt>
      <trkpt lat="44.88262" lon="5.53235">
        <ele>1575.1</ele>
        <time>2022-01-19T14:14:25Z</time>
      </trkpt>
      <trkpt lat="44.88262" lon="5.53236">
        <ele>1575.1</ele>
        <time>2022-01-19T14:14:26Z</time>
      </trkpt>
      <trkpt lat="44.88261" lon="5.53238">
        <ele>1575.1</ele>
        <time>2022-01-19T14:14:27Z</time>
      </trkpt>
      <trkpt lat="44.88259" lon="5.53241">
        <ele>1574.3</ele>
        <time>2022-01-19T14:14:28Z</time>
      </trkpt>
      <trkpt lat="44.88257" lon="5.53246">
        <ele>1573.6</ele>
        <time>2022-01-19T14:14:29Z</time>
      </trkpt>
      <trkpt lat="44.88255" lon="5.53249">
        <ele>1572</ele>
        <time>2022-01-19T14:14:30Z</time>
      </trkpt>
      <trkpt lat="44.88254" lon="5.53253">
        <ele>1571.4</ele>
        <time>2022-01-19T14:14:31Z</time>
      </trkpt>
      <trkpt lat="44.88253" lon="5.53258">
        <ele>1569.9</ele>
        <time>2022-01-19T14:14:32Z</time>
      </trkpt>
      <trkpt lat="44.88251" lon="5.53262">
        <ele>1569.4</ele>
        <time>2022-01-19T14:14:33Z</time>
      </trkpt>
      <trkpt lat="44.8825" lon="5.53265">
        <ele>1568.1</ele>
        <time>2022-01-19T14:14:34Z</time>
      </trkpt>
      <trkpt lat="44.88251" lon="5.53267">
        <ele>1568.1</ele>
        <time>2022-01-19T14:14:35Z</time>
      </trkpt>
      <trkpt lat="44.88252" lon="5.53268">
        <ele>1567.2</ele>
        <time>2022-01-19T14:14:36Z</time>
      </trkpt>
      <trkpt lat="44.88255" lon="5.53267">
        <ele>1566.4</ele>
        <time>2022-01-19T14:14:37Z</time>
      </trkpt>
      <trkpt lat="44.88257" lon="5.53266">
        <ele>1565.6</ele>
        <time>2022-01-19T14:14:38Z</time>
      </trkpt>
      <trkpt lat="44.88258" lon="5.53268">
        <ele>1565.6</ele>
        <time>2022-01-19T14:14:39Z</time>
      </trkpt>
      <trkpt lat="44.88257" lon="5.5327">
        <ele>1565</ele>
        <time>2022-01-19T14:14:40Z</time>
      </trkpt>
      <trkpt lat="44.88257" lon="5.53274">
        <ele>1563.6</ele>
        <time>2022-01-19T14:14:41Z</time>
      </trkpt>
      <trkpt lat="44.88257" lon="5.53278">
        <ele>1562.1</ele>
        <time>2022-01-19T14:14:42Z</time>
      </trkpt>
      <trkpt lat="44.88258" lon="5.53281">
        <ele>1561.4</ele>
        <time>2022-01-19T14:14:43Z</time>
      </trkpt>
      <trkpt lat="44.88261" lon="5.5328">
        <ele>1560.7</ele>
        <time>2022-01-19T14:14:44Z</time>
      </trkpt>
      <trkpt lat="44.88264" lon="5.53278">
        <ele>1560</ele>
        <time>2022-01-19T14:14:45Z</time>
      </trkpt>
      <trkpt lat="44.88264" lon="5.53279">
        <ele>1560</ele>
        <time>2022-01-19T14:14:46Z</time>
      </trkpt>
      <trkpt lat="44.88263" lon="5.53281">
        <ele>1560.7</ele>
        <time>2022-01-19T14:14:47Z</time>
      </trkpt>
      <trkpt lat="44.88263" lon="5.53284">
        <ele>1559.2</ele>
        <time>2022-01-19T14:14:48Z</time>
      </trkpt>
      <trkpt lat="44.88262" lon="5.53287">
        <ele>1557.7</ele>
        <time>2022-01-19T14:14:49Z</time>
      </trkpt>
      <trkpt lat="44.88262" lon="5.53288">
        <ele>1557.7</ele>
        <time>2022-01-19T14:14:50Z</time>
      </trkpt>
      <trkpt lat="44.88261" lon="5.53289">
        <ele>1557.7</ele>
        <time>2022-01-19T14:14:51Z</time>
      </trkpt>
      <trkpt lat="44.88261" lon="5.5329">
        <ele>1557.7</ele>
        <time>2022-01-19T14:14:52Z</time>
      </trkpt>
      <trkpt lat="44.88261" lon="5.53291">
        <ele>1556.3</ele>
        <time>2022-01-19T14:14:53Z</time>
      </trkpt>
      <trkpt lat="44.8826" lon="5.53293">
        <ele>1557</ele>
        <time>2022-01-19T14:14:54Z</time>
      </trkpt>
      <trkpt lat="44.88259" lon="5.53297">
        <ele>1555.6</ele>
        <time>2022-01-19T14:14:55Z</time>
      </trkpt>
      <trkpt lat="44.88258" lon="5.533">
        <ele>1554.3</ele>
        <time>2022-01-19T14:14:56Z</time>
      </trkpt>
      <trkpt lat="44.88259" lon="5.53303">
        <ele>1554.3</ele>
        <time>2022-01-19T14:14:57Z</time>
      </trkpt>
      <trkpt lat="44.8826" lon="5.53306">
        <ele>1553</ele>
        <time>2022-01-19T14:14:58Z</time>
      </trkpt>
      <trkpt lat="44.88261" lon="5.53307">
        <ele>1552.3</ele>
        <time>2022-01-19T14:14:59Z</time>
      </trkpt>
      <trkpt lat="44.88265" lon="5.53304">
        <ele>1551.6</ele>
        <time>2022-01-19T14:15:00Z</time>
      </trkpt>
      <trkpt lat="44.88268" lon="5.53302">
        <ele>1552.2</ele>
        <time>2022-01-19T14:15:01Z</time>
      </trkpt>
      <trkpt lat="44.8827" lon="5.53301">
        <ele>1551.4</ele>
        <time>2022-01-19T14:15:02Z</time>
      </trkpt>
      <trkpt lat="44.88271" lon="5.533">
        <ele>1551.4</ele>
        <time>2022-01-19T14:15:03Z</time>
      </trkpt>
      <trkpt lat="44.88274" lon="5.53299">
        <ele>1552</ele>
        <time>2022-01-19T14:15:04Z</time>
      </trkpt>
      <trkpt lat="44.88275" lon="5.53299">
        <ele>1552</ele>
        <time>2022-01-19T14:15:05Z</time>
      </trkpt>
      <trkpt lat="44.88277" lon="5.53301">
        <ele>1549.9</ele>
        <time>2022-01-19T14:15:06Z</time>
      </trkpt>
      <trkpt lat="44.88277" lon="5.53304">
        <ele>1548.6</ele>
        <time>2022-01-19T14:15:07Z</time>
      </trkpt>
      <trkpt lat="44.88277" lon="5.53307">
        <ele>1548.6</ele>
        <time>2022-01-19T14:15:08Z</time>
      </trkpt>
      <trkpt lat="44.88279" lon="5.53309">
        <ele>1547.4</ele>
        <time>2022-01-19T14:15:09Z</time>
      </trkpt>
      <trkpt lat="44.8828" lon="5.53309">
        <ele>1546.6</ele>
        <time>2022-01-19T14:15:10Z</time>
      </trkpt>
      <trkpt lat="44.88282" lon="5.53309">
        <ele>1546</ele>
        <time>2022-01-19T14:15:11Z</time>
      </trkpt>
      <trkpt lat="44.88283" lon="5.53312">
        <ele>1546</ele>
        <time>2022-01-19T14:15:12Z</time>
      </trkpt>
      <trkpt lat="44.88282" lon="5.53315">
        <ele>1544.7</ele>
        <time>2022-01-19T14:15:13Z</time>
      </trkpt>
      <trkpt lat="44.88281" lon="5.53318">
        <ele>1544.1</ele>
        <time>2022-01-19T14:15:14Z</time>
      </trkpt>
      <trkpt lat="44.88282" lon="5.53318">
        <ele>1544.1</ele>
        <time>2022-01-19T14:15:15Z</time>
      </trkpt>
      <trkpt lat="44.88282" lon="5.53319">
        <ele>1544.1</ele>
        <time>2022-01-19T14:15:16Z</time>
      </trkpt>
      <trkpt lat="44.88282" lon="5.5332">
        <ele>1543.5</ele>
        <time>2022-01-19T14:15:17Z</time>
      </trkpt>
      <trkpt lat="44.88282" lon="5.5332">
        <ele>1543.5</ele>
        <time>2022-01-19T14:15:18Z</time>
      </trkpt>
      <trkpt lat="44.88282" lon="5.53321">
        <ele>1542.2</ele>
        <time>2022-01-19T14:15:19Z</time>
      </trkpt>
      <trkpt lat="44.88282" lon="5.53322">
        <ele>1542.2</ele>
        <time>2022-01-19T14:15:20Z</time>
      </trkpt>
      <trkpt lat="44.88282" lon="5.53322">
        <ele>1542.2</ele>
        <time>2022-01-19T14:15:21Z</time>
      </trkpt>
      <trkpt lat="44.88282" lon="5.53325">
        <ele>1540.9</ele>
        <time>2022-01-19T14:15:22Z</time>
      </trkpt>
      <trkpt lat="44.88282" lon="5.53327">
        <ele>1540.9</ele>
        <time>2022-01-19T14:15:23Z</time>
      </trkpt>
      <trkpt lat="44.88282" lon="5.53328">
        <ele>1540.9</ele>
        <time>2022-01-19T14:15:24Z</time>
      </trkpt>
      <trkpt lat="44.88284" lon="5.53327">
        <ele>1540.9</ele>
        <time>2022-01-19T14:15:25Z</time>
      </trkpt>
      <trkpt lat="44.88286" lon="5.53326">
        <ele>1540.2</ele>
        <time>2022-01-19T14:15:26Z</time>
      </trkpt>
      <trkpt lat="44.88287" lon="5.53326">
        <ele>1540.2</ele>
        <time>2022-01-19T14:15:27Z</time>
      </trkpt>
      <trkpt lat="44.88289" lon="5.53327">
        <ele>1539.6</ele>
        <time>2022-01-19T14:15:28Z</time>
      </trkpt>
      <trkpt lat="44.88289" lon="5.5333">
        <ele>1538.2</ele>
        <time>2022-01-19T14:15:29Z</time>
      </trkpt>
      <trkpt lat="44.88289" lon="5.53333">
        <ele>1538.2</ele>
        <time>2022-01-19T14:15:30Z</time>
      </trkpt>
      <trkpt lat="44.88289" lon="5.53337">
        <ele>1536.8</ele>
        <time>2022-01-19T14:15:31Z</time>
      </trkpt>
      <trkpt lat="44.88289" lon="5.53342">
        <ele>1534.2</ele>
        <time>2022-01-19T14:15:32Z</time>
      </trkpt>
      <trkpt lat="44.88289" lon="5.53346">
        <ele>1532.9</ele>
        <time>2022-01-19T14:15:33Z</time>
      </trkpt>
      <trkpt lat="44.88289" lon="5.53349">
        <ele>1532.9</ele>
        <time>2022-01-19T14:15:34Z</time>
      </trkpt>
      <trkpt lat="44.88289" lon="5.5335">
        <ele>1532.9</ele>
        <time>2022-01-19T14:15:35Z</time>
      </trkpt>
      <trkpt lat="44.88289" lon="5.53353">
        <ele>1531.8</ele>
        <time>2022-01-19T14:15:36Z</time>
      </trkpt>
      <trkpt lat="44.88289" lon="5.53357">
        <ele>1530.6</ele>
        <time>2022-01-19T14:15:37Z</time>
      </trkpt>
      <trkpt lat="44.88288" lon="5.53361">
        <ele>1529.5</ele>
        <time>2022-01-19T14:15:38Z</time>
      </trkpt>
      <trkpt lat="44.88287" lon="5.53365">
        <ele>1528.9</ele>
        <time>2022-01-19T14:15:39Z</time>
      </trkpt>
      <trkpt lat="44.88287" lon="5.53369">
        <ele>1527.8</ele>
        <time>2022-01-19T14:15:40Z</time>
      </trkpt>
      <trkpt lat="44.88286" lon="5.53374">
        <ele>1526.6</ele>
        <time>2022-01-19T14:15:41Z</time>
      </trkpt>
      <trkpt lat="44.88285" lon="5.53379">
        <ele>1525.3</ele>
        <time>2022-01-19T14:15:42Z</time>
      </trkpt>
      <trkpt lat="44.88284" lon="5.53385">
        <ele>1523.5</ele>
        <time>2022-01-19T14:15:43Z</time>
      </trkpt>
      <trkpt lat="44.88284" lon="5.5339">
        <ele>1522.4</ele>
        <time>2022-01-19T14:15:44Z</time>
      </trkpt>
      <trkpt lat="44.88283" lon="5.53394">
        <ele>1521.3</ele>
        <time>2022-01-19T14:15:45Z</time>
      </trkpt>
      <trkpt lat="44.88283" lon="5.53398">
        <ele>1521.3</ele>
        <time>2022-01-19T14:15:46Z</time>
      </trkpt>
      <trkpt lat="44.88282" lon="5.53401">
        <ele>1520.3</ele>
        <time>2022-01-19T14:15:47Z</time>
      </trkpt>
      <trkpt lat="44.88282" lon="5.53404">
        <ele>1519.4</ele>
        <time>2022-01-19T14:15:48Z</time>
      </trkpt>
      <trkpt lat="44.88283" lon="5.53407">
        <ele>1518.5</ele>
        <time>2022-01-19T14:15:49Z</time>
      </trkpt>
      <trkpt lat="44.88283" lon="5.53409">
        <ele>1518.5</ele>
        <time>2022-01-19T14:15:50Z</time>
      </trkpt>
      <trkpt lat="44.88284" lon="5.5341">
        <ele>1518.5</ele>
        <time>2022-01-19T14:15:51Z</time>
      </trkpt>
      <trkpt lat="44.88284" lon="5.53409">
        <ele>1518.5</ele>
        <time>2022-01-19T14:15:52Z</time>
      </trkpt>
      <trkpt lat="44.88284" lon="5.53408">
        <ele>1518.5</ele>
        <time>2022-01-19T14:15:53Z</time>
      </trkpt>
      <trkpt lat="44.88284" lon="5.53408">
        <ele>1518.5</ele>
        <time>2022-01-19T14:15:54Z</time>
      </trkpt>
      <trkpt lat="44.88284" lon="5.53408">
        <ele>1518.5</ele>
        <time>2022-01-19T14:15:55Z</time>
      </trkpt>
      <trkpt lat="44.88284" lon="5.53408">
        <ele>1518.5</ele>
        <time>2022-01-19T14:15:56Z</time>
      </trkpt>
      <trkpt lat="44.88284" lon="5.53408">
        <ele>1518.5</ele>
        <time>2022-01-19T14:15:57Z</time>
      </trkpt>
      <trkpt lat="44.88284" lon="5.53408">
        <ele>1518.5</ele>
        <time>2022-01-19T14:15:58Z</time>
      </trkpt>
      <trkpt lat="44.88284" lon="5.53408">
        <ele>1518.5</ele>
        <time>2022-01-19T14:15:59Z</time>
      </trkpt>
      <trkpt lat="44.88284" lon="5.53408">
        <ele>1518.5</ele>
        <time>2022-01-19T14:16:00Z</time>
      </trkpt>
      <trkpt lat="44.88284" lon="5.53408">
        <ele>1518.5</ele>
        <time>2022-01-19T14:16:01Z</time>
      </trkpt>
      <trkpt lat="44.88284" lon="5.53408">
        <ele>1518.5</ele>
        <time>2022-01-19T14:16:02Z</time>
      </trkpt>
      <trkpt lat="44.88284" lon="5.53408">
        <ele>1518.5</ele>
        <time>2022-01-19T14:16:03Z</time>
      </trkpt>
      <trkpt lat="44.88284" lon="5.53408">
        <ele>1518.5</ele>
        <time>2022-01-19T14:16:04Z</time>
      </trkpt>
      <trkpt lat="44.88284" lon="5.53408">
        <ele>1518.5</ele>
        <time>2022-01-19T14:16:05Z</time>
      </trkpt>
      <trkpt lat="44.88284" lon="5.53408">
        <ele>1518.5</ele>
        <time>2022-01-19T14:16:06Z</time>
      </trkpt>
      <trkpt lat="44.88284" lon="5.53408">
        <ele>1518.5</ele>
        <time>2022-01-19T14:16:07Z</time>
      </trkpt>
      <trkpt lat="44.88284" lon="5.53408">
        <ele>1518.5</ele>
        <time>2022-01-19T14:16:08Z</time>
      </trkpt>
      <trkpt lat="44.88284" lon="5.53408">
        <ele>1518.5</ele>
        <time>2022-01-19T14:16:09Z</time>
      </trkpt>
      <trkpt lat="44.88284" lon="5.53408">
        <ele>1518.5</ele>
        <time>2022-01-19T14:16:10Z</time>
      </trkpt>
      <trkpt lat="44.88284" lon="5.53408">
        <ele>1518.5</ele>
        <time>2022-01-19T14:16:11Z</time>
      </trkpt>
      <trkpt lat="44.88284" lon="5.53408">
        <ele>1518.5</ele>
        <time>2022-01-19T14:16:12Z</time>
      </trkpt>
      <trkpt lat="44.88284" lon="5.53408">
        <ele>1518.5</ele>
        <time>2022-01-19T14:16:13Z</time>
      </trkpt>
      <trkpt lat="44.88284" lon="5.53408">
        <ele>1518.5</ele>
        <time>2022-01-19T14:16:14Z</time>
      </trkpt>
      <trkpt lat="44.88284" lon="5.53408">
        <ele>1518.5</ele>
        <time>2022-01-19T14:16:15Z</time>
      </trkpt>
      <trkpt lat="44.88284" lon="5.53408">
        <ele>1518.5</ele>
        <time>2022-01-19T14:16:16Z</time>
      </trkpt>
      <trkpt lat="44.88284" lon="5.53408">
        <ele>1518.5</ele>
        <time>2022-01-19T14:16:17Z</time>
      </trkpt>
      <trkpt lat="44.88284" lon="5.53408">
        <ele>1518.5</ele>
        <time>2022-01-19T14:16:18Z</time>
      </trkpt>
      <trkpt lat="44.88284" lon="5.53408">
        <ele>1518.5</ele>
        <time>2022-01-19T14:16:19Z</time>
      </trkpt>
      <trkpt lat="44.88284" lon="5.53408">
        <ele>1518.5</ele>
        <time>2022-01-19T14:16:20Z</time>
      </trkpt>
      <trkpt lat="44.88284" lon="5.53408">
        <ele>1518.5</ele>
        <time>2022-01-19T14:16:21Z</time>
      </trkpt>
      <trkpt lat="44.88284" lon="5.53408">
        <ele>1518.5</ele>
        <time>2022-01-19T14:16:22Z</time>
      </trkpt>
      <trkpt lat="44.88284" lon="5.53408">
        <ele>1518.5</ele>
        <time>2022-01-19T14:16:23Z</time>
      </trkpt>
      <trkpt lat="44.88284" lon="5.53408">
        <ele>1518.5</ele>
        <time>2022-01-19T14:16:24Z</time>
      </trkpt>
      <trkpt lat="44.88284" lon="5.53408">
        <ele>1518.5</ele>
        <time>2022-01-19T14:16:25Z</time>
      </trkpt>
      <trkpt lat="44.88284" lon="5.53408">
        <ele>1518.5</ele>
        <time>2022-01-19T14:16:26Z</time>
      </trkpt>
      <trkpt lat="44.88284" lon="5.53408">
        <ele>1518.5</ele>
        <time>2022-01-19T14:16:27Z</time>
      </trkpt>
      <trkpt lat="44.88284" lon="5.53408">
        <ele>1518.5</ele>
        <time>2022-01-19T14:16:28Z</time>
      </trkpt>
      <trkpt lat="44.88284" lon="5.53408">
        <ele>1518.5</ele>
        <time>2022-01-19T14:16:29Z</time>
      </trkpt>
      <trkpt lat="44.88284" lon="5.53408">
        <ele>1518.5</ele>
        <time>2022-01-19T14:16:30Z</time>
      </trkpt>
      <trkpt lat="44.88284" lon="5.53408">
        <ele>1518.5</ele>
        <time>2022-01-19T14:16:31Z</time>
      </trkpt>
      <trkpt lat="44.88284" lon="5.53408">
        <ele>1518.5</ele>
        <time>2022-01-19T14:16:32Z</time>
      </trkpt>
      <trkpt lat="44.88284" lon="5.53408">
        <ele>1518.5</ele>
        <time>2022-01-19T14:16:33Z</time>
      </trkpt>
      <trkpt lat="44.88284" lon="5.53408">
        <ele>1518.5</ele>
        <time>2022-01-19T14:16:34Z</time>
      </trkpt>
      <trkpt lat="44.88284" lon="5.53408">
        <ele>1518.5</ele>
        <time>2022-01-19T14:16:35Z</time>
      </trkpt>
      <trkpt lat="44.88284" lon="5.53408">
        <ele>1518.5</ele>
        <time>2022-01-19T14:16:36Z</time>
      </trkpt>
      <trkpt lat="44.88284" lon="5.53408">
        <ele>1518.5</ele>
        <time>2022-01-19T14:16:37Z</time>
      </trkpt>
      <trkpt lat="44.88285" lon="5.5341">
        <ele>1517.8</ele>
        <time>2022-01-19T14:16:38Z</time>
      </trkpt>
      <trkpt lat="44.88286" lon="5.53413">
        <ele>1516.9</ele>
        <time>2022-01-19T14:16:39Z</time>
      </trkpt>
      <trkpt lat="44.88287" lon="5.53416">
        <ele>1515.8</ele>
        <time>2022-01-19T14:16:40Z</time>
      </trkpt>
      <trkpt lat="44.88287" lon="5.53418">
        <ele>1515.8</ele>
        <time>2022-01-19T14:16:41Z</time>
      </trkpt>
      <trkpt lat="44.8829" lon="5.53418">
        <ele>1515.2</ele>
        <time>2022-01-19T14:16:42Z</time>
      </trkpt>
      <trkpt lat="44.88292" lon="5.53416">
        <ele>1514.6</ele>
        <time>2022-01-19T14:16:43Z</time>
      </trkpt>
      <trkpt lat="44.88294" lon="5.53414">
        <ele>1515.1</ele>
        <time>2022-01-19T14:16:44Z</time>
      </trkpt>
      <trkpt lat="44.88295" lon="5.53415">
        <ele>1514.1</ele>
        <time>2022-01-19T14:16:45Z</time>
      </trkpt>
      <trkpt lat="44.88296" lon="5.53419">
        <ele>1514.1</ele>
        <time>2022-01-19T14:16:46Z</time>
      </trkpt>
      <trkpt lat="44.88297" lon="5.53423">
        <ele>1513</ele>
        <time>2022-01-19T14:16:47Z</time>
      </trkpt>
      <trkpt lat="44.88297" lon="5.53426">
        <ele>1511.3</ele>
        <time>2022-01-19T14:16:48Z</time>
      </trkpt>
      <trkpt lat="44.88298" lon="5.53428">
        <ele>1510.1</ele>
        <time>2022-01-19T14:16:49Z</time>
      </trkpt>
      <trkpt lat="44.88298" lon="5.53428">
        <ele>1511.3</ele>
        <time>2022-01-19T14:16:50Z</time>
      </trkpt>
      <trkpt lat="44.883" lon="5.53426">
        <ele>1510.7</ele>
        <time>2022-01-19T14:16:51Z</time>
      </trkpt>
      <trkpt lat="44.88301" lon="5.53426">
        <ele>1510.7</ele>
        <time>2022-01-19T14:16:52Z</time>
      </trkpt>
      <trkpt lat="44.88303" lon="5.53427">
        <ele>1510.7</ele>
        <time>2022-01-19T14:16:53Z</time>
      </trkpt>
      <trkpt lat="44.88304" lon="5.53427">
        <ele>1510.1</ele>
        <time>2022-01-19T14:16:54Z</time>
      </trkpt>
      <trkpt lat="44.88306" lon="5.53426">
        <ele>1509.6</ele>
        <time>2022-01-19T14:16:55Z</time>
      </trkpt>
      <trkpt lat="44.88308" lon="5.53423">
        <ele>1510.8</ele>
        <time>2022-01-19T14:16:56Z</time>
      </trkpt>
      <trkpt lat="44.88311" lon="5.53419">
        <ele>1511.6</ele>
        <time>2022-01-19T14:16:57Z</time>
      </trkpt>
      <trkpt lat="44.88312" lon="5.53416">
        <ele>1511.2</ele>
        <time>2022-01-19T14:16:58Z</time>
      </trkpt>
      <trkpt lat="44.88314" lon="5.53412">
        <ele>1512.4</ele>
        <time>2022-01-19T14:16:59Z</time>
      </trkpt>
      <trkpt lat="44.88317" lon="5.53408">
        <ele>1513.2</ele>
        <time>2022-01-19T14:17:00Z</time>
      </trkpt>
      <trkpt lat="44.88318" lon="5.53406">
        <ele>1514.2</ele>
        <time>2022-01-19T14:17:01Z</time>
      </trkpt>
      <trkpt lat="44.8832" lon="5.53403">
        <ele>1513.9</ele>
        <time>2022-01-19T14:17:02Z</time>
      </trkpt>
      <trkpt lat="44.88321" lon="5.53401">
        <ele>1515</ele>
        <time>2022-01-19T14:17:03Z</time>
      </trkpt>
      <trkpt lat="44.88321" lon="5.53401">
        <ele>1514.7</ele>
        <time>2022-01-19T14:17:04Z</time>
      </trkpt>
      <trkpt lat="44.88321" lon="5.534">
        <ele>1514.7</ele>
        <time>2022-01-19T14:17:05Z</time>
      </trkpt>
      <trkpt lat="44.88322" lon="5.534">
        <ele>1514.7</ele>
        <time>2022-01-19T14:17:06Z</time>
      </trkpt>
      <trkpt lat="44.88322" lon="5.534">
        <ele>1514.7</ele>
        <time>2022-01-19T14:17:07Z</time>
      </trkpt>
      <trkpt lat="44.88322" lon="5.534">
        <ele>1514.7</ele>
        <time>2022-01-19T14:17:08Z</time>
      </trkpt>
      <trkpt lat="44.88322" lon="5.534">
        <ele>1514.7</ele>
        <time>2022-01-19T14:17:09Z</time>
      </trkpt>
      <trkpt lat="44.88322" lon="5.534">
        <ele>1514.7</ele>
        <time>2022-01-19T14:17:10Z</time>
      </trkpt>
      <trkpt lat="44.88322" lon="5.534">
        <ele>1514.7</ele>
        <time>2022-01-19T14:17:11Z</time>
      </trkpt>
      <trkpt lat="44.88322" lon="5.53403">
        <ele>1513.7</ele>
        <time>2022-01-19T14:17:12Z</time>
      </trkpt>
      <trkpt lat="44.88323" lon="5.53407">
        <ele>1512.6</ele>
        <time>2022-01-19T14:17:13Z</time>
      </trkpt>
      <trkpt lat="44.88323" lon="5.53409">
        <ele>1512.6</ele>
        <time>2022-01-19T14:17:14Z</time>
      </trkpt>
      <trkpt lat="44.88324" lon="5.53412">
        <ele>1511.5</ele>
        <time>2022-01-19T14:17:15Z</time>
      </trkpt>
      <trkpt lat="44.88325" lon="5.53412">
        <ele>1511.3</ele>
        <time>2022-01-19T14:17:16Z</time>
      </trkpt>
      <trkpt lat="44.88326" lon="5.53412">
        <ele>1511.3</ele>
        <time>2022-01-19T14:17:17Z</time>
      </trkpt>
      <trkpt lat="44.88326" lon="5.53413">
        <ele>1511.3</ele>
        <time>2022-01-19T14:17:18Z</time>
      </trkpt>
      <trkpt lat="44.88327" lon="5.53413">
        <ele>1511.3</ele>
        <time>2022-01-19T14:17:19Z</time>
      </trkpt>
      <trkpt lat="44.88327" lon="5.53413">
        <ele>1511</ele>
        <time>2022-01-19T14:17:20Z</time>
      </trkpt>
      <trkpt lat="44.88328" lon="5.53414">
        <ele>1511</ele>
        <time>2022-01-19T14:17:21Z</time>
      </trkpt>
      <trkpt lat="44.88329" lon="5.53414">
        <ele>1511</ele>
        <time>2022-01-19T14:17:22Z</time>
      </trkpt>
      <trkpt lat="44.88329" lon="5.53415">
        <ele>1511</ele>
        <time>2022-01-19T14:17:23Z</time>
      </trkpt>
      <trkpt lat="44.8833" lon="5.53415">
        <ele>1509.7</ele>
        <time>2022-01-19T14:17:24Z</time>
      </trkpt>
      <trkpt lat="44.88333" lon="5.53418">
        <ele>1509.5</ele>
        <time>2022-01-19T14:17:25Z</time>
      </trkpt>
      <trkpt lat="44.88335" lon="5.53422">
        <ele>1507.9</ele>
        <time>2022-01-19T14:17:26Z</time>
      </trkpt>
      <trkpt lat="44.88336" lon="5.53425">
        <ele>1506.5</ele>
        <time>2022-01-19T14:17:27Z</time>
      </trkpt>
      <trkpt lat="44.88337" lon="5.53427">
        <ele>1506.3</ele>
        <time>2022-01-19T14:17:28Z</time>
      </trkpt>
      <trkpt lat="44.88338" lon="5.53429">
        <ele>1504.9</ele>
        <time>2022-01-19T14:17:29Z</time>
      </trkpt>
      <trkpt lat="44.88339" lon="5.5343">
        <ele>1504.9</ele>
        <time>2022-01-19T14:17:30Z</time>
      </trkpt>
      <trkpt lat="44.88339" lon="5.5343">
        <ele>1504.9</ele>
        <time>2022-01-19T14:17:31Z</time>
      </trkpt>
      <trkpt lat="44.88339" lon="5.5343">
        <ele>1504.9</ele>
        <time>2022-01-19T14:17:32Z</time>
      </trkpt>
      <trkpt lat="44.88339" lon="5.5343">
        <ele>1504.9</ele>
        <time>2022-01-19T14:17:33Z</time>
      </trkpt>
      <trkpt lat="44.88339" lon="5.5343">
        <ele>1504.9</ele>
        <time>2022-01-19T14:17:34Z</time>
      </trkpt>
      <trkpt lat="44.88339" lon="5.5343">
        <ele>1504.9</ele>
        <time>2022-01-19T14:17:35Z</time>
      </trkpt>
      <trkpt lat="44.88339" lon="5.5343">
        <ele>1504.9</ele>
        <time>2022-01-19T14:17:36Z</time>
      </trkpt>
      <trkpt lat="44.88339" lon="5.5343">
        <ele>1504.9</ele>
        <time>2022-01-19T14:17:37Z</time>
      </trkpt>
      <trkpt lat="44.88339" lon="5.5343">
        <ele>1504.9</ele>
        <time>2022-01-19T14:17:38Z</time>
      </trkpt>
      <trkpt lat="44.88339" lon="5.5343">
        <ele>1504.9</ele>
        <time>2022-01-19T14:17:39Z</time>
      </trkpt>
      <trkpt lat="44.88339" lon="5.5343">
        <ele>1504.9</ele>
        <time>2022-01-19T14:17:40Z</time>
      </trkpt>
      <trkpt lat="44.88339" lon="5.5343">
        <ele>1504.9</ele>
        <time>2022-01-19T14:17:41Z</time>
      </trkpt>
      <trkpt lat="44.88339" lon="5.5343">
        <ele>1504.9</ele>
        <time>2022-01-19T14:17:42Z</time>
      </trkpt>
      <trkpt lat="44.88339" lon="5.5343">
        <ele>1504.9</ele>
        <time>2022-01-19T14:17:43Z</time>
      </trkpt>
      <trkpt lat="44.88339" lon="5.5343">
        <ele>1504.9</ele>
        <time>2022-01-19T14:17:44Z</time>
      </trkpt>
      <trkpt lat="44.88344" lon="5.53433">
        <ele>1503.3</ele>
        <time>2022-01-19T14:17:45Z</time>
      </trkpt>
      <trkpt lat="44.88345" lon="5.53433">
        <ele>1503.3</ele>
        <time>2022-01-19T14:17:46Z</time>
      </trkpt>
      <trkpt lat="44.88345" lon="5.53433">
        <ele>1503.3</ele>
        <time>2022-01-19T14:17:47Z</time>
      </trkpt>
      <trkpt lat="44.88345" lon="5.53434">
        <ele>1503.3</ele>
        <time>2022-01-19T14:17:48Z</time>
      </trkpt>
      <trkpt lat="44.88345" lon="5.53434">
        <ele>1503.3</ele>
        <time>2022-01-19T14:17:49Z</time>
      </trkpt>
      <trkpt lat="44.88345" lon="5.53434">
        <ele>1503.3</ele>
        <time>2022-01-19T14:17:50Z</time>
      </trkpt>
      <trkpt lat="44.88345" lon="5.53434">
        <ele>1503.3</ele>
        <time>2022-01-19T14:17:51Z</time>
      </trkpt>
      <trkpt lat="44.88345" lon="5.53434">
        <ele>1503.3</ele>
        <time>2022-01-19T14:17:52Z</time>
      </trkpt>
      <trkpt lat="44.88345" lon="5.53434">
        <ele>1503.3</ele>
        <time>2022-01-19T14:17:53Z</time>
      </trkpt>
      <trkpt lat="44.88345" lon="5.53434">
        <ele>1503.3</ele>
        <time>2022-01-19T14:17:54Z</time>
      </trkpt>
      <trkpt lat="44.88345" lon="5.53434">
        <ele>1503.3</ele>
        <time>2022-01-19T14:17:55Z</time>
      </trkpt>
      <trkpt lat="44.88345" lon="5.53434">
        <ele>1503.3</ele>
        <time>2022-01-19T14:17:56Z</time>
      </trkpt>
      <trkpt lat="44.88345" lon="5.53434">
        <ele>1503.3</ele>
        <time>2022-01-19T14:17:57Z</time>
      </trkpt>
      <trkpt lat="44.88345" lon="5.53434">
        <ele>1503.3</ele>
        <time>2022-01-19T14:17:58Z</time>
      </trkpt>
      <trkpt lat="44.88345" lon="5.53434">
        <ele>1503.3</ele>
        <time>2022-01-19T14:17:59Z</time>
      </trkpt>
      <trkpt lat="44.88345" lon="5.53434">
        <ele>1503.3</ele>
        <time>2022-01-19T14:18:00Z</time>
      </trkpt>
      <trkpt lat="44.88345" lon="5.53434">
        <ele>1503.3</ele>
        <time>2022-01-19T14:18:01Z</time>
      </trkpt>
      <trkpt lat="44.88345" lon="5.53434">
        <ele>1503.3</ele>
        <time>2022-01-19T14:18:02Z</time>
      </trkpt>
      <trkpt lat="44.88345" lon="5.53434">
        <ele>1503.3</ele>
        <time>2022-01-19T14:18:03Z</time>
      </trkpt>
      <trkpt lat="44.88354" lon="5.53436">
        <ele>1502.1</ele>
        <time>2022-01-19T14:18:04Z</time>
      </trkpt>
      <trkpt lat="44.88355" lon="5.53436">
        <ele>1503.6</ele>
        <time>2022-01-19T14:18:05Z</time>
      </trkpt>
      <trkpt lat="44.88355" lon="5.53436">
        <ele>1503.6</ele>
        <time>2022-01-19T14:18:06Z</time>
      </trkpt>
      <trkpt lat="44.88355" lon="5.53435">
        <ele>1503.6</ele>
        <time>2022-01-19T14:18:07Z</time>
      </trkpt>
      <trkpt lat="44.88355" lon="5.53435">
        <ele>1503.6</ele>
        <time>2022-01-19T14:18:08Z</time>
      </trkpt>
      <trkpt lat="44.88355" lon="5.53435">
        <ele>1503.6</ele>
        <time>2022-01-19T14:18:09Z</time>
      </trkpt>
      <trkpt lat="44.88355" lon="5.53435">
        <ele>1503.6</ele>
        <time>2022-01-19T14:18:10Z</time>
      </trkpt>
      <trkpt lat="44.88355" lon="5.53435">
        <ele>1503.6</ele>
        <time>2022-01-19T14:18:11Z</time>
      </trkpt>
      <trkpt lat="44.88355" lon="5.53435">
        <ele>1503.6</ele>
        <time>2022-01-19T14:18:12Z</time>
      </trkpt>
      <trkpt lat="44.88355" lon="5.53435">
        <ele>1503.6</ele>
        <time>2022-01-19T14:18:13Z</time>
      </trkpt>
      <trkpt lat="44.88355" lon="5.53435">
        <ele>1503.6</ele>
        <time>2022-01-19T14:18:14Z</time>
      </trkpt>
      <trkpt lat="44.88355" lon="5.53435">
        <ele>1503.6</ele>
        <time>2022-01-19T14:18:15Z</time>
      </trkpt>
      <trkpt lat="44.88355" lon="5.53435">
        <ele>1503.6</ele>
        <time>2022-01-19T14:18:16Z</time>
      </trkpt>
      <trkpt lat="44.88355" lon="5.53435">
        <ele>1503.6</ele>
        <time>2022-01-19T14:18:17Z</time>
      </trkpt>
      <trkpt lat="44.88355" lon="5.53435">
        <ele>1503.6</ele>
        <time>2022-01-19T14:18:18Z</time>
      </trkpt>
      <trkpt lat="44.88355" lon="5.53435">
        <ele>1503.6</ele>
        <time>2022-01-19T14:18:19Z</time>
      </trkpt>
      <trkpt lat="44.88355" lon="5.53435">
        <ele>1503.6</ele>
        <time>2022-01-19T14:18:20Z</time>
      </trkpt>
      <trkpt lat="44.88355" lon="5.53435">
        <ele>1503.6</ele>
        <time>2022-01-19T14:18:21Z</time>
      </trkpt>
      <trkpt lat="44.88355" lon="5.53435">
        <ele>1503.6</ele>
        <time>2022-01-19T14:18:22Z</time>
      </trkpt>
      <trkpt lat="44.88355" lon="5.53435">
        <ele>1503.6</ele>
        <time>2022-01-19T14:18:23Z</time>
      </trkpt>
      <trkpt lat="44.88355" lon="5.53435">
        <ele>1503.6</ele>
        <time>2022-01-19T14:18:24Z</time>
      </trkpt>
      <trkpt lat="44.88355" lon="5.53435">
        <ele>1503.6</ele>
        <time>2022-01-19T14:18:25Z</time>
      </trkpt>
      <trkpt lat="44.88355" lon="5.53435">
        <ele>1503.6</ele>
        <time>2022-01-19T14:18:26Z</time>
      </trkpt>
      <trkpt lat="44.88355" lon="5.53435">
        <ele>1503.6</ele>
        <time>2022-01-19T14:18:27Z</time>
      </trkpt>
      <trkpt lat="44.88355" lon="5.53435">
        <ele>1503.6</ele>
        <time>2022-01-19T14:18:28Z</time>
      </trkpt>
      <trkpt lat="44.88355" lon="5.53435">
        <ele>1503.6</ele>
        <time>2022-01-19T14:18:29Z</time>
      </trkpt>
      <trkpt lat="44.88363" lon="5.53428">
        <ele>1505.4</ele>
        <time>2022-01-19T14:18:30Z</time>
      </trkpt>
      <trkpt lat="44.88364" lon="5.53427">
        <ele>1507</ele>
        <time>2022-01-19T14:18:31Z</time>
      </trkpt>
      <trkpt lat="44.88365" lon="5.53427">
        <ele>1507</ele>
        <time>2022-01-19T14:18:32Z</time>
      </trkpt>
      <trkpt lat="44.88366" lon="5.53426">
        <ele>1507</ele>
        <time>2022-01-19T14:18:33Z</time>
      </trkpt>
      <trkpt lat="44.88366" lon="5.53426">
        <ele>1507</ele>
        <time>2022-01-19T14:18:34Z</time>
      </trkpt>
      <trkpt lat="44.88366" lon="5.53426">
        <ele>1507</ele>
        <time>2022-01-19T14:18:35Z</time>
      </trkpt>
      <trkpt lat="44.88366" lon="5.53426">
        <ele>1507</ele>
        <time>2022-01-19T14:18:36Z</time>
      </trkpt>
      <trkpt lat="44.88366" lon="5.53426">
        <ele>1507</ele>
        <time>2022-01-19T14:18:37Z</time>
      </trkpt>
      <trkpt lat="44.88366" lon="5.53426">
        <ele>1507</ele>
        <time>2022-01-19T14:18:38Z</time>
      </trkpt>
      <trkpt lat="44.88366" lon="5.53426">
        <ele>1507</ele>
        <time>2022-01-19T14:18:39Z</time>
      </trkpt>
      <trkpt lat="44.88366" lon="5.53426">
        <ele>1507</ele>
        <time>2022-01-19T14:18:40Z</time>
      </trkpt>
      <trkpt lat="44.88366" lon="5.53426">
        <ele>1507</ele>
        <time>2022-01-19T14:18:41Z</time>
      </trkpt>
      <trkpt lat="44.88366" lon="5.53426">
        <ele>1507</ele>
        <time>2022-01-19T14:18:42Z</time>
      </trkpt>
      <trkpt lat="44.88366" lon="5.53426">
        <ele>1507</ele>
        <time>2022-01-19T14:18:43Z</time>
      </trkpt>
      <trkpt lat="44.88366" lon="5.53426">
        <ele>1507</ele>
        <time>2022-01-19T14:18:44Z</time>
      </trkpt>
      <trkpt lat="44.88366" lon="5.53426">
        <ele>1507</ele>
        <time>2022-01-19T14:18:45Z</time>
      </trkpt>
      <trkpt lat="44.88366" lon="5.53426">
        <ele>1507</ele>
        <time>2022-01-19T14:18:46Z</time>
      </trkpt>
      <trkpt lat="44.88366" lon="5.53426">
        <ele>1507</ele>
        <time>2022-01-19T14:18:47Z</time>
      </trkpt>
      <trkpt lat="44.88366" lon="5.53426">
        <ele>1507</ele>
        <time>2022-01-19T14:18:48Z</time>
      </trkpt>
      <trkpt lat="44.88366" lon="5.53426">
        <ele>1507</ele>
        <time>2022-01-19T14:18:49Z</time>
      </trkpt>
      <trkpt lat="44.88366" lon="5.53426">
        <ele>1507</ele>
        <time>2022-01-19T14:18:50Z</time>
      </trkpt>
      <trkpt lat="44.88364" lon="5.53426">
        <ele>1507</ele>
        <time>2022-01-19T14:18:51Z</time>
      </trkpt>
      <trkpt lat="44.88366" lon="5.53428">
        <ele>1505.7</ele>
        <time>2022-01-19T14:18:52Z</time>
      </trkpt>
      <trkpt lat="44.88367" lon="5.53429">
        <ele>1506</ele>
        <time>2022-01-19T14:18:53Z</time>
      </trkpt>
      <trkpt lat="44.88369" lon="5.5343">
        <ele>1506</ele>
        <time>2022-01-19T14:18:54Z</time>
      </trkpt>
      <trkpt lat="44.8837" lon="5.53431">
        <ele>1506.4</ele>
        <time>2022-01-19T14:18:55Z</time>
      </trkpt>
      <trkpt lat="44.88372" lon="5.53433">
        <ele>1505.1</ele>
        <time>2022-01-19T14:18:56Z</time>
      </trkpt>
      <trkpt lat="44.88375" lon="5.53435">
        <ele>1505.6</ele>
        <time>2022-01-19T14:18:57Z</time>
      </trkpt>
      <trkpt lat="44.88377" lon="5.53438">
        <ele>1504.8</ele>
        <time>2022-01-19T14:18:58Z</time>
      </trkpt>
      <trkpt lat="44.8838" lon="5.53442">
        <ele>1504.2</ele>
        <time>2022-01-19T14:18:59Z</time>
      </trkpt>
      <trkpt lat="44.88384" lon="5.53445">
        <ele>1503.6</ele>
        <time>2022-01-19T14:19:00Z</time>
      </trkpt>
      <trkpt lat="44.88388" lon="5.5345">
        <ele>1503.8</ele>
        <time>2022-01-19T14:19:01Z</time>
      </trkpt>
      <trkpt lat="44.88392" lon="5.53454">
        <ele>1503.3</ele>
        <time>2022-01-19T14:19:02Z</time>
      </trkpt>
      <trkpt lat="44.88395" lon="5.53458">
        <ele>1502.8</ele>
        <time>2022-01-19T14:19:03Z</time>
      </trkpt>
      <trkpt lat="44.88397" lon="5.53463">
        <ele>1501.6</ele>
        <time>2022-01-19T14:19:04Z</time>
      </trkpt>
      <trkpt lat="44.88399" lon="5.53467">
        <ele>1500.9</ele>
        <time>2022-01-19T14:19:05Z</time>
      </trkpt>
      <trkpt lat="44.884" lon="5.5347">
        <ele>1500.9</ele>
        <time>2022-01-19T14:19:06Z</time>
      </trkpt>
      <trkpt lat="44.88401" lon="5.53472">
        <ele>1500.2</ele>
        <time>2022-01-19T14:19:07Z</time>
      </trkpt>
      <trkpt lat="44.88403" lon="5.53473">
        <ele>1500.2</ele>
        <time>2022-01-19T14:19:08Z</time>
      </trkpt>
      <trkpt lat="44.88404" lon="5.53475">
        <ele>1500.7</ele>
        <time>2022-01-19T14:19:09Z</time>
      </trkpt>
      <trkpt lat="44.88404" lon="5.53476">
        <ele>1499.4</ele>
        <time>2022-01-19T14:19:10Z</time>
      </trkpt>
      <trkpt lat="44.88406" lon="5.53479">
        <ele>1499.4</ele>
        <time>2022-01-19T14:19:11Z</time>
      </trkpt>
      <trkpt lat="44.88405" lon="5.53482">
        <ele>1498</ele>
        <time>2022-01-19T14:19:12Z</time>
      </trkpt>
      <trkpt lat="44.88405" lon="5.53484">
        <ele>1496.7</ele>
        <time>2022-01-19T14:19:13Z</time>
      </trkpt>
      <trkpt lat="44.88406" lon="5.53488">
        <ele>1496.7</ele>
        <time>2022-01-19T14:19:14Z</time>
      </trkpt>
      <trkpt lat="44.88407" lon="5.53491">
        <ele>1496</ele>
        <time>2022-01-19T14:19:15Z</time>
      </trkpt>
      <trkpt lat="44.88409" lon="5.53494">
        <ele>1494.8</ele>
        <time>2022-01-19T14:19:16Z</time>
      </trkpt>
      <trkpt lat="44.88411" lon="5.53496">
        <ele>1495.3</ele>
        <time>2022-01-19T14:19:17Z</time>
      </trkpt>
      <trkpt lat="44.88412" lon="5.53498">
        <ele>1494</ele>
        <time>2022-01-19T14:19:18Z</time>
      </trkpt>
      <trkpt lat="44.88412" lon="5.535">
        <ele>1494</ele>
        <time>2022-01-19T14:19:19Z</time>
      </trkpt>
      <trkpt lat="44.88413" lon="5.53502">
        <ele>1493.2</ele>
        <time>2022-01-19T14:19:20Z</time>
      </trkpt>
      <trkpt lat="44.88414" lon="5.53506">
        <ele>1491.8</ele>
        <time>2022-01-19T14:19:21Z</time>
      </trkpt>
      <trkpt lat="44.88415" lon="5.53511">
        <ele>1490.4</ele>
        <time>2022-01-19T14:19:22Z</time>
      </trkpt>
      <trkpt lat="44.88416" lon="5.53514">
        <ele>1489.6</ele>
        <time>2022-01-19T14:19:23Z</time>
      </trkpt>
      <trkpt lat="44.88417" lon="5.53518">
        <ele>1488.2</ele>
        <time>2022-01-19T14:19:24Z</time>
      </trkpt>
      <trkpt lat="44.88417" lon="5.53525">
        <ele>1486.8</ele>
        <time>2022-01-19T14:19:25Z</time>
      </trkpt>
      <trkpt lat="44.88417" lon="5.5353">
        <ele>1485.5</ele>
        <time>2022-01-19T14:19:26Z</time>
      </trkpt>
      <trkpt lat="44.88417" lon="5.53533">
        <ele>1484.2</ele>
        <time>2022-01-19T14:19:27Z</time>
      </trkpt>
      <trkpt lat="44.88417" lon="5.53535">
        <ele>1484.2</ele>
        <time>2022-01-19T14:19:28Z</time>
      </trkpt>
      <trkpt lat="44.88417" lon="5.53538">
        <ele>1482.9</ele>
        <time>2022-01-19T14:19:29Z</time>
      </trkpt>
      <trkpt lat="44.88416" lon="5.53541">
        <ele>1481.6</ele>
        <time>2022-01-19T14:19:30Z</time>
      </trkpt>
      <trkpt lat="44.88416" lon="5.53546">
        <ele>1480.3</ele>
        <time>2022-01-19T14:19:31Z</time>
      </trkpt>
      <trkpt lat="44.88416" lon="5.5355">
        <ele>1478.9</ele>
        <time>2022-01-19T14:19:32Z</time>
      </trkpt>
      <trkpt lat="44.88416" lon="5.53553">
        <ele>1477.5</ele>
        <time>2022-01-19T14:19:33Z</time>
      </trkpt>
      <trkpt lat="44.88416" lon="5.53557">
        <ele>1475.9</ele>
        <time>2022-01-19T14:19:34Z</time>
      </trkpt>
      <trkpt lat="44.88416" lon="5.53561">
        <ele>1474.4</ele>
        <time>2022-01-19T14:19:35Z</time>
      </trkpt>
      <trkpt lat="44.88417" lon="5.53565">
        <ele>1473</ele>
        <time>2022-01-19T14:19:36Z</time>
      </trkpt>
      <trkpt lat="44.88417" lon="5.53569">
        <ele>1473</ele>
        <time>2022-01-19T14:19:37Z</time>
      </trkpt>
      <trkpt lat="44.88417" lon="5.53574">
        <ele>1471.6</ele>
        <time>2022-01-19T14:19:38Z</time>
      </trkpt>
      <trkpt lat="44.88418" lon="5.53577">
        <ele>1470.3</ele>
        <time>2022-01-19T14:19:39Z</time>
      </trkpt>
      <trkpt lat="44.88418" lon="5.53578">
        <ele>1469</ele>
        <time>2022-01-19T14:19:40Z</time>
      </trkpt>
      <trkpt lat="44.88419" lon="5.5358">
        <ele>1469.5</ele>
        <time>2022-01-19T14:19:41Z</time>
      </trkpt>
      <trkpt lat="44.88419" lon="5.53583">
        <ele>1468.2</ele>
        <time>2022-01-19T14:19:42Z</time>
      </trkpt>
      <trkpt lat="44.8842" lon="5.53588">
        <ele>1466.8</ele>
        <time>2022-01-19T14:19:43Z</time>
      </trkpt>
      <trkpt lat="44.88421" lon="5.53592">
        <ele>1465.4</ele>
        <time>2022-01-19T14:19:44Z</time>
      </trkpt>
      <trkpt lat="44.88423" lon="5.53601">
        <ele>1462.8</ele>
        <time>2022-01-19T14:19:45Z</time>
      </trkpt>
      <trkpt lat="44.88425" lon="5.53607">
        <ele>1461.4</ele>
        <time>2022-01-19T14:19:46Z</time>
      </trkpt>
      <trkpt lat="44.88426" lon="5.53612">
        <ele>1460.4</ele>
        <time>2022-01-19T14:19:47Z</time>
      </trkpt>
      <trkpt lat="44.88427" lon="5.53616">
        <ele>1459.7</ele>
        <time>2022-01-19T14:19:48Z</time>
      </trkpt>
      <trkpt lat="44.88429" lon="5.53619">
        <ele>1459</ele>
        <time>2022-01-19T14:19:49Z</time>
      </trkpt>
      <trkpt lat="44.88431" lon="5.53622">
        <ele>1458.3</ele>
        <time>2022-01-19T14:19:50Z</time>
      </trkpt>
      <trkpt lat="44.88433" lon="5.53624">
        <ele>1457.6</ele>
        <time>2022-01-19T14:19:51Z</time>
      </trkpt>
      <trkpt lat="44.88435" lon="5.53626">
        <ele>1457</ele>
        <time>2022-01-19T14:19:52Z</time>
      </trkpt>
      <trkpt lat="44.88438" lon="5.53628">
        <ele>1456.4</ele>
        <time>2022-01-19T14:19:53Z</time>
      </trkpt>
      <trkpt lat="44.88439" lon="5.5363">
        <ele>1455.7</ele>
        <time>2022-01-19T14:19:54Z</time>
      </trkpt>
      <trkpt lat="44.88442" lon="5.53633">
        <ele>1455</ele>
        <time>2022-01-19T14:19:55Z</time>
      </trkpt>
      <trkpt lat="44.88444" lon="5.53633">
        <ele>1454.5</ele>
        <time>2022-01-19T14:19:56Z</time>
      </trkpt>
      <trkpt lat="44.88445" lon="5.53634">
        <ele>1454.2</ele>
        <time>2022-01-19T14:19:57Z</time>
      </trkpt>
      <trkpt lat="44.88446" lon="5.53637">
        <ele>1453.6</ele>
        <time>2022-01-19T14:19:58Z</time>
      </trkpt>
      <trkpt lat="44.88448" lon="5.53637">
        <ele>1453.2</ele>
        <time>2022-01-19T14:19:59Z</time>
      </trkpt>
      <trkpt lat="44.8845" lon="5.5364">
        <ele>1452.5</ele>
        <time>2022-01-19T14:20:00Z</time>
      </trkpt>
      <trkpt lat="44.88451" lon="5.5364">
        <ele>1452.1</ele>
        <time>2022-01-19T14:20:01Z</time>
      </trkpt>
      <trkpt lat="44.88453" lon="5.53641">
        <ele>1451.6</ele>
        <time>2022-01-19T14:20:02Z</time>
      </trkpt>
      <trkpt lat="44.88456" lon="5.53641">
        <ele>1450.9</ele>
        <time>2022-01-19T14:20:03Z</time>
      </trkpt>
      <trkpt lat="44.88457" lon="5.53641">
        <ele>1450.5</ele>
        <time>2022-01-19T14:20:04Z</time>
      </trkpt>
      <trkpt lat="44.8846" lon="5.53642">
        <ele>1449.9</ele>
        <time>2022-01-19T14:20:05Z</time>
      </trkpt>
      <trkpt lat="44.88462" lon="5.53644">
        <ele>1449.3</ele>
        <time>2022-01-19T14:20:06Z</time>
      </trkpt>
      <trkpt lat="44.88464" lon="5.53645">
        <ele>1448.7</ele>
        <time>2022-01-19T14:20:07Z</time>
      </trkpt>
      <trkpt lat="44.88465" lon="5.53646">
        <ele>1448.2</ele>
        <time>2022-01-19T14:20:08Z</time>
      </trkpt>
      <trkpt lat="44.88469" lon="5.53645">
        <ele>1447.2</ele>
        <time>2022-01-19T14:20:09Z</time>
      </trkpt>
      <trkpt lat="44.88471" lon="5.53646">
        <ele>1446.6</ele>
        <time>2022-01-19T14:20:10Z</time>
      </trkpt>
      <trkpt lat="44.88473" lon="5.53647">
        <ele>1446.1</ele>
        <time>2022-01-19T14:20:11Z</time>
      </trkpt>
      <trkpt lat="44.88475" lon="5.53649">
        <ele>1445.5</ele>
        <time>2022-01-19T14:20:12Z</time>
      </trkpt>
      <trkpt lat="44.88476" lon="5.53651">
        <ele>1444.8</ele>
        <time>2022-01-19T14:20:13Z</time>
      </trkpt>
      <trkpt lat="44.88479" lon="5.53653">
        <ele>1443.8</ele>
        <time>2022-01-19T14:20:14Z</time>
      </trkpt>
      <trkpt lat="44.88481" lon="5.53654">
        <ele>1443.2</ele>
        <time>2022-01-19T14:20:15Z</time>
      </trkpt>
      <trkpt lat="44.88483" lon="5.53656">
        <ele>1442.5</ele>
        <time>2022-01-19T14:20:16Z</time>
      </trkpt>
      <trkpt lat="44.88485" lon="5.5366">
        <ele>1441.5</ele>
        <time>2022-01-19T14:20:17Z</time>
      </trkpt>
      <trkpt lat="44.88487" lon="5.53661">
        <ele>1441</ele>
        <time>2022-01-19T14:20:18Z</time>
      </trkpt>
      <trkpt lat="44.88488" lon="5.53661">
        <ele>1440.6</ele>
        <time>2022-01-19T14:20:19Z</time>
      </trkpt>
      <trkpt lat="44.88489" lon="5.5366">
        <ele>1440.2</ele>
        <time>2022-01-19T14:20:20Z</time>
      </trkpt>
      <trkpt lat="44.88493" lon="5.53659">
        <ele>1438.9</ele>
        <time>2022-01-19T14:20:21Z</time>
      </trkpt>
      <trkpt lat="44.88493" lon="5.53659">
        <ele>1438.8</ele>
        <time>2022-01-19T14:20:22Z</time>
      </trkpt>
      <trkpt lat="44.88493" lon="5.53659">
        <ele>1438.8</ele>
        <time>2022-01-19T14:20:23Z</time>
      </trkpt>
      <trkpt lat="44.88493" lon="5.53659">
        <ele>1438.8</ele>
        <time>2022-01-19T14:20:24Z</time>
      </trkpt>
      <trkpt lat="44.88493" lon="5.53659">
        <ele>1438.8</ele>
        <time>2022-01-19T14:20:25Z</time>
      </trkpt>
      <trkpt lat="44.88493" lon="5.53659">
        <ele>1438.8</ele>
        <time>2022-01-19T14:20:26Z</time>
      </trkpt>
      <trkpt lat="44.88493" lon="5.53659">
        <ele>1438.8</ele>
        <time>2022-01-19T14:20:27Z</time>
      </trkpt>
      <trkpt lat="44.88493" lon="5.53659">
        <ele>1438.8</ele>
        <time>2022-01-19T14:20:28Z</time>
      </trkpt>
      <trkpt lat="44.88493" lon="5.53659">
        <ele>1438.8</ele>
        <time>2022-01-19T14:20:29Z</time>
      </trkpt>
      <trkpt lat="44.88493" lon="5.53659">
        <ele>1438.8</ele>
        <time>2022-01-19T14:20:30Z</time>
      </trkpt>
      <trkpt lat="44.88493" lon="5.53659">
        <ele>1438.8</ele>
        <time>2022-01-19T14:20:31Z</time>
      </trkpt>
      <trkpt lat="44.88493" lon="5.53659">
        <ele>1438.8</ele>
        <time>2022-01-19T14:20:32Z</time>
      </trkpt>
      <trkpt lat="44.88493" lon="5.53659">
        <ele>1438.8</ele>
        <time>2022-01-19T14:20:33Z</time>
      </trkpt>
      <trkpt lat="44.88493" lon="5.53659">
        <ele>1438.8</ele>
        <time>2022-01-19T14:20:34Z</time>
      </trkpt>
      <trkpt lat="44.88493" lon="5.53659">
        <ele>1438.8</ele>
        <time>2022-01-19T14:20:35Z</time>
      </trkpt>
      <trkpt lat="44.88493" lon="5.53659">
        <ele>1438.8</ele>
        <time>2022-01-19T14:20:36Z</time>
      </trkpt>
      <trkpt lat="44.88493" lon="5.53659">
        <ele>1438.8</ele>
        <time>2022-01-19T14:20:37Z</time>
      </trkpt>
      <trkpt lat="44.88493" lon="5.53659">
        <ele>1438.8</ele>
        <time>2022-01-19T14:20:38Z</time>
      </trkpt>
      <trkpt lat="44.88493" lon="5.53659">
        <ele>1438.8</ele>
        <time>2022-01-19T14:20:39Z</time>
      </trkpt>
      <trkpt lat="44.88493" lon="5.53659">
        <ele>1438.8</ele>
        <time>2022-01-19T14:20:40Z</time>
      </trkpt>
      <trkpt lat="44.88493" lon="5.53659">
        <ele>1438.8</ele>
        <time>2022-01-19T14:20:41Z</time>
      </trkpt>
      <trkpt lat="44.88493" lon="5.53659">
        <ele>1438.8</ele>
        <time>2022-01-19T14:20:42Z</time>
      </trkpt>
      <trkpt lat="44.88493" lon="5.53659">
        <ele>1438.8</ele>
        <time>2022-01-19T14:20:43Z</time>
      </trkpt>
      <trkpt lat="44.88493" lon="5.53659">
        <ele>1438.8</ele>
        <time>2022-01-19T14:20:44Z</time>
      </trkpt>
      <trkpt lat="44.88496" lon="5.53659">
        <ele>1437.9</ele>
        <time>2022-01-19T14:20:45Z</time>
      </trkpt>
      <trkpt lat="44.88498" lon="5.53661">
        <ele>1437.2</ele>
        <time>2022-01-19T14:20:46Z</time>
      </trkpt>
      <trkpt lat="44.885" lon="5.53663">
        <ele>1436.2</ele>
        <time>2022-01-19T14:20:47Z</time>
      </trkpt>
      <trkpt lat="44.88502" lon="5.53664">
        <ele>1435.4</ele>
        <time>2022-01-19T14:20:48Z</time>
      </trkpt>
      <trkpt lat="44.88504" lon="5.53667">
        <ele>1434.6</ele>
        <time>2022-01-19T14:20:49Z</time>
      </trkpt>
      <trkpt lat="44.88505" lon="5.53668">
        <ele>1434.1</ele>
        <time>2022-01-19T14:20:50Z</time>
      </trkpt>
      <trkpt lat="44.88507" lon="5.5367">
        <ele>1433.3</ele>
        <time>2022-01-19T14:20:51Z</time>
      </trkpt>
      <trkpt lat="44.88509" lon="5.53671">
        <ele>1432.6</ele>
        <time>2022-01-19T14:20:52Z</time>
      </trkpt>
      <trkpt lat="44.8851" lon="5.53673">
        <ele>1431.7</ele>
        <time>2022-01-19T14:20:53Z</time>
      </trkpt>
      <trkpt lat="44.88512" lon="5.53676">
        <ele>1430.9</ele>
        <time>2022-01-19T14:20:54Z</time>
      </trkpt>
      <trkpt lat="44.88513" lon="5.53679">
        <ele>1430</ele>
        <time>2022-01-19T14:20:55Z</time>
      </trkpt>
      <trkpt lat="44.88515" lon="5.53681">
        <ele>1429.1</ele>
        <time>2022-01-19T14:20:56Z</time>
      </trkpt>
      <trkpt lat="44.88517" lon="5.53685">
        <ele>1427.9</ele>
        <time>2022-01-19T14:20:57Z</time>
      </trkpt>
      <trkpt lat="44.88519" lon="5.53688">
        <ele>1427</ele>
        <time>2022-01-19T14:20:58Z</time>
      </trkpt>
      <trkpt lat="44.8852" lon="5.53691">
        <ele>1426.1</ele>
        <time>2022-01-19T14:20:59Z</time>
      </trkpt>
      <trkpt lat="44.88522" lon="5.53694">
        <ele>1425.5</ele>
        <time>2022-01-19T14:21:00Z</time>
      </trkpt>
      <trkpt lat="44.88523" lon="5.53695">
        <ele>1425</ele>
        <time>2022-01-19T14:21:01Z</time>
      </trkpt>
      <trkpt lat="44.88523" lon="5.53696">
        <ele>1424.8</ele>
        <time>2022-01-19T14:21:02Z</time>
      </trkpt>
      <trkpt lat="44.88524" lon="5.53696">
        <ele>1424.6</ele>
        <time>2022-01-19T14:21:03Z</time>
      </trkpt>
      <trkpt lat="44.88524" lon="5.53696">
        <ele>1424.5</ele>
        <time>2022-01-19T14:21:04Z</time>
      </trkpt>
      <trkpt lat="44.88525" lon="5.53697">
        <ele>1424.3</ele>
        <time>2022-01-19T14:21:05Z</time>
      </trkpt>
      <trkpt lat="44.88525" lon="5.53697">
        <ele>1424.1</ele>
        <time>2022-01-19T14:21:06Z</time>
      </trkpt>
      <trkpt lat="44.88526" lon="5.53697">
        <ele>1424</ele>
        <time>2022-01-19T14:21:07Z</time>
      </trkpt>
      <trkpt lat="44.88526" lon="5.53698">
        <ele>1423.8</ele>
        <time>2022-01-19T14:21:08Z</time>
      </trkpt>
      <trkpt lat="44.88527" lon="5.53698">
        <ele>1423.6</ele>
        <time>2022-01-19T14:21:09Z</time>
      </trkpt>
      <trkpt lat="44.88527" lon="5.53698">
        <ele>1423.5</ele>
        <time>2022-01-19T14:21:10Z</time>
      </trkpt>
      <trkpt lat="44.88528" lon="5.53699">
        <ele>1423.3</ele>
        <time>2022-01-19T14:21:11Z</time>
      </trkpt>
      <trkpt lat="44.88528" lon="5.53699">
        <ele>1423.1</ele>
        <time>2022-01-19T14:21:12Z</time>
      </trkpt>
      <trkpt lat="44.88529" lon="5.53699">
        <ele>1423</ele>
        <time>2022-01-19T14:21:13Z</time>
      </trkpt>
      <trkpt lat="44.88529" lon="5.53699">
        <ele>1422.8</ele>
        <time>2022-01-19T14:21:14Z</time>
      </trkpt>
      <trkpt lat="44.8853" lon="5.537">
        <ele>1422.6</ele>
        <time>2022-01-19T14:21:15Z</time>
      </trkpt>
      <trkpt lat="44.8853" lon="5.537">
        <ele>1422.5</ele>
        <time>2022-01-19T14:21:16Z</time>
      </trkpt>
      <trkpt lat="44.88531" lon="5.537">
        <ele>1422.3</ele>
        <time>2022-01-19T14:21:17Z</time>
      </trkpt>
      <trkpt lat="44.88531" lon="5.53701">
        <ele>1422.2</ele>
        <time>2022-01-19T14:21:18Z</time>
      </trkpt>
      <trkpt lat="44.88532" lon="5.53701">
        <ele>1422</ele>
        <time>2022-01-19T14:21:19Z</time>
      </trkpt>
      <trkpt lat="44.88532" lon="5.53701">
        <ele>1421.8</ele>
        <time>2022-01-19T14:21:20Z</time>
      </trkpt>
      <trkpt lat="44.88533" lon="5.53702">
        <ele>1421.7</ele>
        <time>2022-01-19T14:21:21Z</time>
      </trkpt>
      <trkpt lat="44.88533" lon="5.53702">
        <ele>1421.5</ele>
        <time>2022-01-19T14:21:22Z</time>
      </trkpt>
      <trkpt lat="44.88534" lon="5.53702">
        <ele>1421.3</ele>
        <time>2022-01-19T14:21:23Z</time>
      </trkpt>
      <trkpt lat="44.88534" lon="5.53703">
        <ele>1421.2</ele>
        <time>2022-01-19T14:21:24Z</time>
      </trkpt>
      <trkpt lat="44.88535" lon="5.53703">
        <ele>1421</ele>
        <time>2022-01-19T14:21:25Z</time>
      </trkpt>
      <trkpt lat="44.88535" lon="5.53703">
        <ele>1420.9</ele>
        <time>2022-01-19T14:21:26Z</time>
      </trkpt>
      <trkpt lat="44.88536" lon="5.53704">
        <ele>1420.7</ele>
        <time>2022-01-19T14:21:27Z</time>
      </trkpt>
      <trkpt lat="44.88536" lon="5.53704">
        <ele>1420.6</ele>
        <time>2022-01-19T14:21:28Z</time>
      </trkpt>
      <trkpt lat="44.88537" lon="5.53704">
        <ele>1420.4</ele>
        <time>2022-01-19T14:21:29Z</time>
      </trkpt>
      <trkpt lat="44.88537" lon="5.53705">
        <ele>1420.2</ele>
        <time>2022-01-19T14:21:30Z</time>
      </trkpt>
      <trkpt lat="44.88538" lon="5.53705">
        <ele>1420.1</ele>
        <time>2022-01-19T14:21:31Z</time>
      </trkpt>
      <trkpt lat="44.88538" lon="5.53705">
        <ele>1419.9</ele>
        <time>2022-01-19T14:21:32Z</time>
      </trkpt>
      <trkpt lat="44.88539" lon="5.53706">
        <ele>1419.7</ele>
        <time>2022-01-19T14:21:33Z</time>
      </trkpt>
      <trkpt lat="44.88539" lon="5.53706">
        <ele>1419.6</ele>
        <time>2022-01-19T14:21:34Z</time>
      </trkpt>
      <trkpt lat="44.8854" lon="5.53706">
        <ele>1419.4</ele>
        <time>2022-01-19T14:21:35Z</time>
      </trkpt>
      <trkpt lat="44.8854" lon="5.53707">
        <ele>1419.2</ele>
        <time>2022-01-19T14:21:36Z</time>
      </trkpt>
      <trkpt lat="44.88541" lon="5.53707">
        <ele>1419.1</ele>
        <time>2022-01-19T14:21:37Z</time>
      </trkpt>
      <trkpt lat="44.88541" lon="5.53707">
        <ele>1418.9</ele>
        <time>2022-01-19T14:21:38Z</time>
      </trkpt>
      <trkpt lat="44.88541" lon="5.53708">
        <ele>1418.8</ele>
        <time>2022-01-19T14:21:39Z</time>
      </trkpt>
      <trkpt lat="44.88542" lon="5.53708">
        <ele>1418.6</ele>
        <time>2022-01-19T14:21:40Z</time>
      </trkpt>
      <trkpt lat="44.88542" lon="5.53708">
        <ele>1418.5</ele>
        <time>2022-01-19T14:21:41Z</time>
      </trkpt>
      <trkpt lat="44.88543" lon="5.53708">
        <ele>1418.3</ele>
        <time>2022-01-19T14:21:42Z</time>
      </trkpt>
      <trkpt lat="44.88543" lon="5.53709">
        <ele>1418.1</ele>
        <time>2022-01-19T14:21:43Z</time>
      </trkpt>
      <trkpt lat="44.88544" lon="5.53709">
        <ele>1418</ele>
        <time>2022-01-19T14:21:44Z</time>
      </trkpt>
      <trkpt lat="44.88546" lon="5.53711">
        <ele>1417.2</ele>
        <time>2022-01-19T14:21:45Z</time>
      </trkpt>
      <trkpt lat="44.88548" lon="5.53712">
        <ele>1416.6</ele>
        <time>2022-01-19T14:21:46Z</time>
      </trkpt>
      <trkpt lat="44.8855" lon="5.53713">
        <ele>1416</ele>
        <time>2022-01-19T14:21:47Z</time>
      </trkpt>
      <trkpt lat="44.88554" lon="5.53718">
        <ele>1414.5</ele>
        <time>2022-01-19T14:21:48Z</time>
      </trkpt>
      <trkpt lat="44.88557" lon="5.53722">
        <ele>1413.3</ele>
        <time>2022-01-19T14:21:49Z</time>
      </trkpt>
      <trkpt lat="44.88559" lon="5.53725">
        <ele>1412.3</ele>
        <time>2022-01-19T14:21:50Z</time>
      </trkpt>
      <trkpt lat="44.88562" lon="5.53727">
        <ele>1411.5</ele>
        <time>2022-01-19T14:21:51Z</time>
      </trkpt>
      <trkpt lat="44.88563" lon="5.53729">
        <ele>1411</ele>
        <time>2022-01-19T14:21:52Z</time>
      </trkpt>
      <trkpt lat="44.88565" lon="5.53731">
        <ele>1410.4</ele>
        <time>2022-01-19T14:21:53Z</time>
      </trkpt>
      <trkpt lat="44.88566" lon="5.53733">
        <ele>1409.8</ele>
        <time>2022-01-19T14:21:54Z</time>
      </trkpt>
      <trkpt lat="44.88568" lon="5.53735">
        <ele>1409</ele>
        <time>2022-01-19T14:21:55Z</time>
      </trkpt>
      <trkpt lat="44.8857" lon="5.53738">
        <ele>1408.2</ele>
        <time>2022-01-19T14:21:56Z</time>
      </trkpt>
      <trkpt lat="44.88572" lon="5.53739">
        <ele>1407.5</ele>
        <time>2022-01-19T14:21:57Z</time>
      </trkpt>
      <trkpt lat="44.88574" lon="5.53741">
        <ele>1406.9</ele>
        <time>2022-01-19T14:21:58Z</time>
      </trkpt>
      <trkpt lat="44.88576" lon="5.53744">
        <ele>1406.2</ele>
        <time>2022-01-19T14:21:59Z</time>
      </trkpt>
      <trkpt lat="44.88578" lon="5.53746">
        <ele>1405.4</ele>
        <time>2022-01-19T14:22:00Z</time>
      </trkpt>
      <trkpt lat="44.88581" lon="5.53747">
        <ele>1404.5</ele>
        <time>2022-01-19T14:22:01Z</time>
      </trkpt>
      <trkpt lat="44.88584" lon="5.53749">
        <ele>1403.7</ele>
        <time>2022-01-19T14:22:02Z</time>
      </trkpt>
      <trkpt lat="44.88586" lon="5.5375">
        <ele>1403</ele>
        <time>2022-01-19T14:22:03Z</time>
      </trkpt>
      <trkpt lat="44.88588" lon="5.53751">
        <ele>1402.4</ele>
        <time>2022-01-19T14:22:04Z</time>
      </trkpt>
      <trkpt lat="44.88591" lon="5.53755">
        <ele>1401.3</ele>
        <time>2022-01-19T14:22:05Z</time>
      </trkpt>
      <trkpt lat="44.88594" lon="5.53756">
        <ele>1400.4</ele>
        <time>2022-01-19T14:22:06Z</time>
      </trkpt>
      <trkpt lat="44.88599" lon="5.53758">
        <ele>1399.1</ele>
        <time>2022-01-19T14:22:07Z</time>
      </trkpt>
      <trkpt lat="44.88604" lon="5.5376">
        <ele>1397.8</ele>
        <time>2022-01-19T14:22:08Z</time>
      </trkpt>
      <trkpt lat="44.88608" lon="5.53761">
        <ele>1396.8</ele>
        <time>2022-01-19T14:22:09Z</time>
      </trkpt>
      <trkpt lat="44.88611" lon="5.53762">
        <ele>1395.8</ele>
        <time>2022-01-19T14:22:10Z</time>
      </trkpt>
      <trkpt lat="44.88616" lon="5.53764">
        <ele>1394.7</ele>
        <time>2022-01-19T14:22:11Z</time>
      </trkpt>
      <trkpt lat="44.88619" lon="5.53768">
        <ele>1393.5</ele>
        <time>2022-01-19T14:22:12Z</time>
      </trkpt>
      <trkpt lat="44.88623" lon="5.53772">
        <ele>1392.4</ele>
        <time>2022-01-19T14:22:13Z</time>
      </trkpt>
      <trkpt lat="44.88623" lon="5.53775">
        <ele>1391.9</ele>
        <time>2022-01-19T14:22:14Z</time>
      </trkpt>
      <trkpt lat="44.88622" lon="5.53777">
        <ele>1391.4</ele>
        <time>2022-01-19T14:22:15Z</time>
      </trkpt>
      <trkpt lat="44.88623" lon="5.53783">
        <ele>1390.4</ele>
        <time>2022-01-19T14:22:16Z</time>
      </trkpt>
      <trkpt lat="44.88625" lon="5.53788">
        <ele>1389.4</ele>
        <time>2022-01-19T14:22:17Z</time>
      </trkpt>
      <trkpt lat="44.88627" lon="5.53793">
        <ele>1388.5</ele>
        <time>2022-01-19T14:22:18Z</time>
      </trkpt>
      <trkpt lat="44.88629" lon="5.53797">
        <ele>1387.7</ele>
        <time>2022-01-19T14:22:19Z</time>
      </trkpt>
      <trkpt lat="44.88631" lon="5.53802">
        <ele>1386.9</ele>
        <time>2022-01-19T14:22:20Z</time>
      </trkpt>
      <trkpt lat="44.88633" lon="5.53806">
        <ele>1386.2</ele>
        <time>2022-01-19T14:22:21Z</time>
      </trkpt>
      <trkpt lat="44.88634" lon="5.5381">
        <ele>1385.5</ele>
        <time>2022-01-19T14:22:22Z</time>
      </trkpt>
      <trkpt lat="44.88636" lon="5.53814">
        <ele>1384.8</ele>
        <time>2022-01-19T14:22:23Z</time>
      </trkpt>
      <trkpt lat="44.88638" lon="5.53818">
        <ele>1384.1</ele>
        <time>2022-01-19T14:22:24Z</time>
      </trkpt>
      <trkpt lat="44.8864" lon="5.53822">
        <ele>1383.5</ele>
        <time>2022-01-19T14:22:25Z</time>
      </trkpt>
      <trkpt lat="44.88642" lon="5.53825">
        <ele>1382.8</ele>
        <time>2022-01-19T14:22:26Z</time>
      </trkpt>
      <trkpt lat="44.88646" lon="5.53829">
        <ele>1381.9</ele>
        <time>2022-01-19T14:22:27Z</time>
      </trkpt>
      <trkpt lat="44.88648" lon="5.53832">
        <ele>1381.3</ele>
        <time>2022-01-19T14:22:28Z</time>
      </trkpt>
      <trkpt lat="44.88651" lon="5.53835">
        <ele>1380.6</ele>
        <time>2022-01-19T14:22:29Z</time>
      </trkpt>
      <trkpt lat="44.88655" lon="5.53839">
        <ele>1379.7</ele>
        <time>2022-01-19T14:22:30Z</time>
      </trkpt>
      <trkpt lat="44.88659" lon="5.53843">
        <ele>1378.8</ele>
        <time>2022-01-19T14:22:31Z</time>
      </trkpt>
      <trkpt lat="44.88661" lon="5.53848">
        <ele>1378.1</ele>
        <time>2022-01-19T14:22:32Z</time>
      </trkpt>
      <trkpt lat="44.88663" lon="5.53853">
        <ele>1377.4</ele>
        <time>2022-01-19T14:22:33Z</time>
      </trkpt>
      <trkpt lat="44.88663" lon="5.53857">
        <ele>1376.8</ele>
        <time>2022-01-19T14:22:34Z</time>
      </trkpt>
      <trkpt lat="44.88665" lon="5.53861">
        <ele>1376.3</ele>
        <time>2022-01-19T14:22:35Z</time>
      </trkpt>
      <trkpt lat="44.88667" lon="5.53864">
        <ele>1375.8</ele>
        <time>2022-01-19T14:22:36Z</time>
      </trkpt>
      <trkpt lat="44.88669" lon="5.53867">
        <ele>1375.2</ele>
        <time>2022-01-19T14:22:37Z</time>
      </trkpt>
      <trkpt lat="44.88673" lon="5.53869">
        <ele>1374.6</ele>
        <time>2022-01-19T14:22:38Z</time>
      </trkpt>
      <trkpt lat="44.88677" lon="5.53871">
        <ele>1373.9</ele>
        <time>2022-01-19T14:22:39Z</time>
      </trkpt>
      <trkpt lat="44.8868" lon="5.53873">
        <ele>1373.3</ele>
        <time>2022-01-19T14:22:40Z</time>
      </trkpt>
      <trkpt lat="44.88683" lon="5.53876">
        <ele>1372.7</ele>
        <time>2022-01-19T14:22:41Z</time>
      </trkpt>
      <trkpt lat="44.88683" lon="5.5388">
        <ele>1372.2</ele>
        <time>2022-01-19T14:22:42Z</time>
      </trkpt>
      <trkpt lat="44.88685" lon="5.53884">
        <ele>1371.6</ele>
        <time>2022-01-19T14:22:43Z</time>
      </trkpt>
      <trkpt lat="44.88686" lon="5.53887">
        <ele>1371.1</ele>
        <time>2022-01-19T14:22:44Z</time>
      </trkpt>
      <trkpt lat="44.88688" lon="5.53891">
        <ele>1370.6</ele>
        <time>2022-01-19T14:22:45Z</time>
      </trkpt>
      <trkpt lat="44.8869" lon="5.53894">
        <ele>1370</ele>
        <time>2022-01-19T14:22:46Z</time>
      </trkpt>
      <trkpt lat="44.88691" lon="5.53897">
        <ele>1369.5</ele>
        <time>2022-01-19T14:22:47Z</time>
      </trkpt>
      <trkpt lat="44.88693" lon="5.539">
        <ele>1369</ele>
        <time>2022-01-19T14:22:48Z</time>
      </trkpt>
      <trkpt lat="44.88694" lon="5.53903">
        <ele>1368.6</ele>
        <time>2022-01-19T14:22:49Z</time>
      </trkpt>
      <trkpt lat="44.88696" lon="5.53905">
        <ele>1368.1</ele>
        <time>2022-01-19T14:22:50Z</time>
      </trkpt>
      <trkpt lat="44.88698" lon="5.53906">
        <ele>1367.7</ele>
        <time>2022-01-19T14:22:51Z</time>
      </trkpt>
      <trkpt lat="44.887" lon="5.53907">
        <ele>1367.3</ele>
        <time>2022-01-19T14:22:52Z</time>
      </trkpt>
      <trkpt lat="44.88701" lon="5.53909">
        <ele>1367</ele>
        <time>2022-01-19T14:22:53Z</time>
      </trkpt>
      <trkpt lat="44.88701" lon="5.53909">
        <ele>1367</ele>
        <time>2022-01-19T14:22:54Z</time>
      </trkpt>
      <trkpt lat="44.88702" lon="5.53911">
        <ele>1366.7</ele>
        <time>2022-01-19T14:22:55Z</time>
      </trkpt>
      <trkpt lat="44.88703" lon="5.53914">
        <ele>1366.4</ele>
        <time>2022-01-19T14:22:56Z</time>
      </trkpt>
      <trkpt lat="44.88704" lon="5.53916">
        <ele>1366</ele>
        <time>2022-01-19T14:22:57Z</time>
      </trkpt>
      <trkpt lat="44.88706" lon="5.53918">
        <ele>1365.6</ele>
        <time>2022-01-19T14:22:58Z</time>
      </trkpt>
      <trkpt lat="44.88707" lon="5.5392">
        <ele>1365.2</ele>
        <time>2022-01-19T14:22:59Z</time>
      </trkpt>
      <trkpt lat="44.88709" lon="5.53921">
        <ele>1364.9</ele>
        <time>2022-01-19T14:23:00Z</time>
      </trkpt>
      <trkpt lat="44.88711" lon="5.53924">
        <ele>1364.3</ele>
        <time>2022-01-19T14:23:01Z</time>
      </trkpt>
      <trkpt lat="44.88712" lon="5.53926">
        <ele>1364.1</ele>
        <time>2022-01-19T14:23:02Z</time>
      </trkpt>
      <trkpt lat="44.88713" lon="5.53927">
        <ele>1363.8</ele>
        <time>2022-01-19T14:23:03Z</time>
      </trkpt>
      <trkpt lat="44.88714" lon="5.53929">
        <ele>1363.5</ele>
        <time>2022-01-19T14:23:04Z</time>
      </trkpt>
      <trkpt lat="44.88715" lon="5.5393">
        <ele>1363.3</ele>
        <time>2022-01-19T14:23:05Z</time>
      </trkpt>
      <trkpt lat="44.88718" lon="5.53933">
        <ele>1362.7</ele>
        <time>2022-01-19T14:23:06Z</time>
      </trkpt>
      <trkpt lat="44.8872" lon="5.53936">
        <ele>1362</ele>
        <time>2022-01-19T14:23:07Z</time>
      </trkpt>
      <trkpt lat="44.88723" lon="5.53939">
        <ele>1361.3</ele>
        <time>2022-01-19T14:23:08Z</time>
      </trkpt>
      <trkpt lat="44.88723" lon="5.53942">
        <ele>1360.9</ele>
        <time>2022-01-19T14:23:09Z</time>
      </trkpt>
      <trkpt lat="44.88724" lon="5.53944">
        <ele>1360.5</ele>
        <time>2022-01-19T14:23:10Z</time>
      </trkpt>
      <trkpt lat="44.88724" lon="5.53947">
        <ele>1360.2</ele>
        <time>2022-01-19T14:23:11Z</time>
      </trkpt>
      <trkpt lat="44.88724" lon="5.53949">
        <ele>1359.9</ele>
        <time>2022-01-19T14:23:12Z</time>
      </trkpt>
      <trkpt lat="44.88725" lon="5.5395">
        <ele>1359.7</ele>
        <time>2022-01-19T14:23:13Z</time>
      </trkpt>
      <trkpt lat="44.88725" lon="5.53951">
        <ele>1359.6</ele>
        <time>2022-01-19T14:23:14Z</time>
      </trkpt>
      <trkpt lat="44.88726" lon="5.53953">
        <ele>1359.1</ele>
        <time>2022-01-19T14:23:15Z</time>
      </trkpt>
      <trkpt lat="44.88727" lon="5.53958">
        <ele>1358.4</ele>
        <time>2022-01-19T14:23:16Z</time>
      </trkpt>
      <trkpt lat="44.88727" lon="5.53963">
        <ele>1357.6</ele>
        <time>2022-01-19T14:23:17Z</time>
      </trkpt>
      <trkpt lat="44.88727" lon="5.53967">
        <ele>1357</ele>
        <time>2022-01-19T14:23:18Z</time>
      </trkpt>
      <trkpt lat="44.88727" lon="5.53969">
        <ele>1356.7</ele>
        <time>2022-01-19T14:23:19Z</time>
      </trkpt>
      <trkpt lat="44.88726" lon="5.53973">
        <ele>1356.1</ele>
        <time>2022-01-19T14:23:20Z</time>
      </trkpt>
      <trkpt lat="44.88726" lon="5.53975">
        <ele>1355.8</ele>
        <time>2022-01-19T14:23:21Z</time>
      </trkpt>
      <trkpt lat="44.88727" lon="5.53976">
        <ele>1355.5</ele>
        <time>2022-01-19T14:23:22Z</time>
      </trkpt>
      <trkpt lat="44.88731" lon="5.53976">
        <ele>1354.5</ele>
        <time>2022-01-19T14:23:23Z</time>
      </trkpt>
      <trkpt lat="44.88734" lon="5.53977">
        <ele>1353.9</ele>
        <time>2022-01-19T14:23:24Z</time>
      </trkpt>
      <trkpt lat="44.88736" lon="5.53977">
        <ele>1353.4</ele>
        <time>2022-01-19T14:23:25Z</time>
      </trkpt>
      <trkpt lat="44.88737" lon="5.53978">
        <ele>1353.1</ele>
        <time>2022-01-19T14:23:26Z</time>
      </trkpt>
      <trkpt lat="44.88738" lon="5.53978">
        <ele>1353</ele>
        <time>2022-01-19T14:23:27Z</time>
      </trkpt>
      <trkpt lat="44.88739" lon="5.53978">
        <ele>1352.6</ele>
        <time>2022-01-19T14:23:28Z</time>
      </trkpt>
      <trkpt lat="44.88741" lon="5.53979">
        <ele>1352.3</ele>
        <time>2022-01-19T14:23:29Z</time>
      </trkpt>
      <trkpt lat="44.88743" lon="5.5398">
        <ele>1351.8</ele>
        <time>2022-01-19T14:23:30Z</time>
      </trkpt>
      <trkpt lat="44.88746" lon="5.5398">
        <ele>1351</ele>
        <time>2022-01-19T14:23:31Z</time>
      </trkpt>
      <trkpt lat="44.88748" lon="5.5398">
        <ele>1350.4</ele>
        <time>2022-01-19T14:23:32Z</time>
      </trkpt>
      <trkpt lat="44.88751" lon="5.5398">
        <ele>1349.8</ele>
        <time>2022-01-19T14:23:33Z</time>
      </trkpt>
      <trkpt lat="44.88755" lon="5.53981">
        <ele>1348.6</ele>
        <time>2022-01-19T14:23:34Z</time>
      </trkpt>
      <trkpt lat="44.88758" lon="5.53984">
        <ele>1347.6</ele>
        <time>2022-01-19T14:23:35Z</time>
      </trkpt>
      <trkpt lat="44.88762" lon="5.53986">
        <ele>1346.5</ele>
        <time>2022-01-19T14:23:36Z</time>
      </trkpt>
      <trkpt lat="44.88764" lon="5.53988">
        <ele>1345.8</ele>
        <time>2022-01-19T14:23:37Z</time>
      </trkpt>
      <trkpt lat="44.88768" lon="5.53993">
        <ele>1344.5</ele>
        <time>2022-01-19T14:23:38Z</time>
      </trkpt>
      <trkpt lat="44.88771" lon="5.53997">
        <ele>1343.4</ele>
        <time>2022-01-19T14:23:39Z</time>
      </trkpt>
      <trkpt lat="44.88774" lon="5.54">
        <ele>1342.5</ele>
        <time>2022-01-19T14:23:40Z</time>
      </trkpt>
      <trkpt lat="44.88777" lon="5.54002">
        <ele>1341.6</ele>
        <time>2022-01-19T14:23:41Z</time>
      </trkpt>
      <trkpt lat="44.88781" lon="5.54003">
        <ele>1340.7</ele>
        <time>2022-01-19T14:23:42Z</time>
      </trkpt>
      <trkpt lat="44.88785" lon="5.54005">
        <ele>1339.8</ele>
        <time>2022-01-19T14:23:43Z</time>
      </trkpt>
      <trkpt lat="44.88788" lon="5.54006">
        <ele>1339.1</ele>
        <time>2022-01-19T14:23:44Z</time>
      </trkpt>
      <trkpt lat="44.8879" lon="5.54007">
        <ele>1338.5</ele>
        <time>2022-01-19T14:23:45Z</time>
      </trkpt>
      <trkpt lat="44.88793" lon="5.54008">
        <ele>1337.9</ele>
        <time>2022-01-19T14:23:46Z</time>
      </trkpt>
      <trkpt lat="44.88794" lon="5.54009">
        <ele>1337.5</ele>
        <time>2022-01-19T14:23:47Z</time>
      </trkpt>
      <trkpt lat="44.88796" lon="5.54011">
        <ele>1337.1</ele>
        <time>2022-01-19T14:23:48Z</time>
      </trkpt>
      <trkpt lat="44.88798" lon="5.54013">
        <ele>1336.5</ele>
        <time>2022-01-19T14:23:49Z</time>
      </trkpt>
      <trkpt lat="44.88801" lon="5.54015">
        <ele>1335.8</ele>
        <time>2022-01-19T14:23:50Z</time>
      </trkpt>
      <trkpt lat="44.88804" lon="5.54018">
        <ele>1335.1</ele>
        <time>2022-01-19T14:23:51Z</time>
      </trkpt>
      <trkpt lat="44.88807" lon="5.5402">
        <ele>1334.5</ele>
        <time>2022-01-19T14:23:52Z</time>
      </trkpt>
      <trkpt lat="44.8881" lon="5.54021">
        <ele>1334</ele>
        <time>2022-01-19T14:23:53Z</time>
      </trkpt>
      <trkpt lat="44.88812" lon="5.5402">
        <ele>1333.6</ele>
        <time>2022-01-19T14:23:54Z</time>
      </trkpt>
      <trkpt lat="44.88815" lon="5.54021">
        <ele>1333.1</ele>
        <time>2022-01-19T14:23:55Z</time>
      </trkpt>
      <trkpt lat="44.88815" lon="5.54022">
        <ele>1332.9</ele>
        <time>2022-01-19T14:23:56Z</time>
      </trkpt>
      <trkpt lat="44.88816" lon="5.54023">
        <ele>1332.7</ele>
        <time>2022-01-19T14:23:57Z</time>
      </trkpt>
      <trkpt lat="44.88817" lon="5.54024">
        <ele>1332.5</ele>
        <time>2022-01-19T14:23:58Z</time>
      </trkpt>
      <trkpt lat="44.88818" lon="5.54025">
        <ele>1332.2</ele>
        <time>2022-01-19T14:23:59Z</time>
      </trkpt>
      <trkpt lat="44.88821" lon="5.54029">
        <ele>1331.6</ele>
        <time>2022-01-19T14:24:00Z</time>
      </trkpt>
      <trkpt lat="44.88822" lon="5.54032">
        <ele>1331</ele>
        <time>2022-01-19T14:24:01Z</time>
      </trkpt>
      <trkpt lat="44.88824" lon="5.54037">
        <ele>1330.3</ele>
        <time>2022-01-19T14:24:02Z</time>
      </trkpt>
      <trkpt lat="44.88827" lon="5.54042">
        <ele>1329.6</ele>
        <time>2022-01-19T14:24:03Z</time>
      </trkpt>
      <trkpt lat="44.8883" lon="5.54047">
        <ele>1328.8</ele>
        <time>2022-01-19T14:24:04Z</time>
      </trkpt>
      <trkpt lat="44.88833" lon="5.54052">
        <ele>1327.8</ele>
        <time>2022-01-19T14:24:05Z</time>
      </trkpt>
      <trkpt lat="44.88844" lon="5.54064">
        <ele>1325.5</ele>
        <time>2022-01-19T14:24:06Z</time>
      </trkpt>
      <trkpt lat="44.88855" lon="5.54077">
        <ele>1323</ele>
        <time>2022-01-19T14:24:07Z</time>
      </trkpt>
      <trkpt lat="44.88867" lon="5.5409">
        <ele>1320.7</ele>
        <time>2022-01-19T14:24:08Z</time>
      </trkpt>
      <trkpt lat="44.88868" lon="5.5409">
        <ele>1320.5</ele>
        <time>2022-01-19T14:24:09Z</time>
      </trkpt>
      <trkpt lat="44.88862" lon="5.54099">
        <ele>1319.2</ele>
        <time>2022-01-19T14:24:10Z</time>
      </trkpt>
      <trkpt lat="44.88864" lon="5.54102">
        <ele>1318.9</ele>
        <time>2022-01-19T14:24:11Z</time>
      </trkpt>
      <trkpt lat="44.88863" lon="5.54102">
        <ele>1318.9</ele>
        <time>2022-01-19T14:24:12Z</time>
      </trkpt>
      <trkpt lat="44.88863" lon="5.54102">
        <ele>1318.8</ele>
        <time>2022-01-19T14:24:13Z</time>
      </trkpt>
      <trkpt lat="44.88863" lon="5.54102">
        <ele>1318.8</ele>
        <time>2022-01-19T14:24:14Z</time>
      </trkpt>
      <trkpt lat="44.88863" lon="5.54102">
        <ele>1318.8</ele>
        <time>2022-01-19T14:24:15Z</time>
      </trkpt>
      <trkpt lat="44.88862" lon="5.54102">
        <ele>1318.7</ele>
        <time>2022-01-19T14:24:16Z</time>
      </trkpt>
      <trkpt lat="44.88862" lon="5.54102">
        <ele>1318.7</ele>
        <time>2022-01-19T14:24:17Z</time>
      </trkpt>
      <trkpt lat="44.88862" lon="5.54102">
        <ele>1318.7</ele>
        <time>2022-01-19T14:24:18Z</time>
      </trkpt>
      <trkpt lat="44.88862" lon="5.54102">
        <ele>1318.6</ele>
        <time>2022-01-19T14:24:19Z</time>
      </trkpt>
      <trkpt lat="44.88861" lon="5.54102">
        <ele>1318.6</ele>
        <time>2022-01-19T14:24:20Z</time>
      </trkpt>
      <trkpt lat="44.88861" lon="5.54102">
        <ele>1318.6</ele>
        <time>2022-01-19T14:24:21Z</time>
      </trkpt>
      <trkpt lat="44.88861" lon="5.54102">
        <ele>1318.6</ele>
        <time>2022-01-19T14:24:22Z</time>
      </trkpt>
      <trkpt lat="44.88861" lon="5.54102">
        <ele>1318.5</ele>
        <time>2022-01-19T14:24:23Z</time>
      </trkpt>
      <trkpt lat="44.88861" lon="5.54102">
        <ele>1318.5</ele>
        <time>2022-01-19T14:24:24Z</time>
      </trkpt>
      <trkpt lat="44.8886" lon="5.54102">
        <ele>1318.5</ele>
        <time>2022-01-19T14:24:25Z</time>
      </trkpt>
      <trkpt lat="44.8886" lon="5.54102">
        <ele>1318.4</ele>
        <time>2022-01-19T14:24:26Z</time>
      </trkpt>
      <trkpt lat="44.8886" lon="5.54102">
        <ele>1318.4</ele>
        <time>2022-01-19T14:24:27Z</time>
      </trkpt>
      <trkpt lat="44.8886" lon="5.54102">
        <ele>1318.4</ele>
        <time>2022-01-19T14:24:28Z</time>
      </trkpt>
      <trkpt lat="44.88859" lon="5.54102">
        <ele>1318.3</ele>
        <time>2022-01-19T14:24:29Z</time>
      </trkpt>
      <trkpt lat="44.88859" lon="5.54102">
        <ele>1318.3</ele>
        <time>2022-01-19T14:24:30Z</time>
      </trkpt>
      <trkpt lat="44.88859" lon="5.54102">
        <ele>1318.3</ele>
        <time>2022-01-19T14:24:31Z</time>
      </trkpt>
      <trkpt lat="44.88859" lon="5.54103">
        <ele>1318.2</ele>
        <time>2022-01-19T14:24:32Z</time>
      </trkpt>
      <trkpt lat="44.88858" lon="5.54103">
        <ele>1318.2</ele>
        <time>2022-01-19T14:24:33Z</time>
      </trkpt>
      <trkpt lat="44.88858" lon="5.54103">
        <ele>1318.2</ele>
        <time>2022-01-19T14:24:34Z</time>
      </trkpt>
      <trkpt lat="44.88858" lon="5.54103">
        <ele>1318.2</ele>
        <time>2022-01-19T14:24:35Z</time>
      </trkpt>
      <trkpt lat="44.88858" lon="5.54103">
        <ele>1318.1</ele>
        <time>2022-01-19T14:24:36Z</time>
      </trkpt>
      <trkpt lat="44.88858" lon="5.54103">
        <ele>1318.1</ele>
        <time>2022-01-19T14:24:37Z</time>
      </trkpt>
      <trkpt lat="44.88857" lon="5.54103">
        <ele>1318.1</ele>
        <time>2022-01-19T14:24:38Z</time>
      </trkpt>
      <trkpt lat="44.88857" lon="5.54103">
        <ele>1318</ele>
        <time>2022-01-19T14:24:39Z</time>
      </trkpt>
      <trkpt lat="44.88857" lon="5.54103">
        <ele>1318</ele>
        <time>2022-01-19T14:24:40Z</time>
      </trkpt>
      <trkpt lat="44.88857" lon="5.54103">
        <ele>1318</ele>
        <time>2022-01-19T14:24:41Z</time>
      </trkpt>
      <trkpt lat="44.88856" lon="5.54103">
        <ele>1318</ele>
        <time>2022-01-19T14:24:42Z</time>
      </trkpt>
      <trkpt lat="44.88856" lon="5.54103">
        <ele>1317.9</ele>
        <time>2022-01-19T14:24:43Z</time>
      </trkpt>
      <trkpt lat="44.88856" lon="5.54103">
        <ele>1317.9</ele>
        <time>2022-01-19T14:24:44Z</time>
      </trkpt>
      <trkpt lat="44.88856" lon="5.54103">
        <ele>1317.9</ele>
        <time>2022-01-19T14:24:45Z</time>
      </trkpt>
      <trkpt lat="44.88856" lon="5.54103">
        <ele>1317.8</ele>
        <time>2022-01-19T14:24:46Z</time>
      </trkpt>
      <trkpt lat="44.88855" lon="5.54103">
        <ele>1317.8</ele>
        <time>2022-01-19T14:24:47Z</time>
      </trkpt>
      <trkpt lat="44.88855" lon="5.54103">
        <ele>1317.8</ele>
        <time>2022-01-19T14:24:48Z</time>
      </trkpt>
      <trkpt lat="44.88855" lon="5.54103">
        <ele>1317.7</ele>
        <time>2022-01-19T14:24:49Z</time>
      </trkpt>
      <trkpt lat="44.88855" lon="5.54103">
        <ele>1317.7</ele>
        <time>2022-01-19T14:24:50Z</time>
      </trkpt>
      <trkpt lat="44.88854" lon="5.54103">
        <ele>1317.7</ele>
        <time>2022-01-19T14:24:51Z</time>
      </trkpt>
      <trkpt lat="44.88854" lon="5.54103">
        <ele>1317.6</ele>
        <time>2022-01-19T14:24:52Z</time>
      </trkpt>
      <trkpt lat="44.88854" lon="5.54103">
        <ele>1317.6</ele>
        <time>2022-01-19T14:24:53Z</time>
      </trkpt>
      <trkpt lat="44.88854" lon="5.54103">
        <ele>1317.6</ele>
        <time>2022-01-19T14:24:54Z</time>
      </trkpt>
      <trkpt lat="44.88853" lon="5.54103">
        <ele>1317.6</ele>
        <time>2022-01-19T14:24:55Z</time>
      </trkpt>
      <trkpt lat="44.88853" lon="5.54103">
        <ele>1317.5</ele>
        <time>2022-01-19T14:24:56Z</time>
      </trkpt>
      <trkpt lat="44.88853" lon="5.54103">
        <ele>1317.5</ele>
        <time>2022-01-19T14:24:57Z</time>
      </trkpt>
      <trkpt lat="44.88853" lon="5.54103">
        <ele>1317.5</ele>
        <time>2022-01-19T14:24:58Z</time>
      </trkpt>
      <trkpt lat="44.88853" lon="5.54103">
        <ele>1317.4</ele>
        <time>2022-01-19T14:24:59Z</time>
      </trkpt>
      <trkpt lat="44.88852" lon="5.54106">
        <ele>1317.1</ele>
        <time>2022-01-19T14:25:00Z</time>
      </trkpt>
      <trkpt lat="44.88851" lon="5.54109">
        <ele>1316.9</ele>
        <time>2022-01-19T14:25:01Z</time>
      </trkpt>
      <trkpt lat="44.88851" lon="5.5411">
        <ele>1316.8</ele>
        <time>2022-01-19T14:25:02Z</time>
      </trkpt>
      <trkpt lat="44.8885" lon="5.5411">
        <ele>1316.7</ele>
        <time>2022-01-19T14:25:03Z</time>
      </trkpt>
      <trkpt lat="44.8885" lon="5.5411">
        <ele>1316.7</ele>
        <time>2022-01-19T14:25:04Z</time>
      </trkpt>
      <trkpt lat="44.8885" lon="5.5411">
        <ele>1316.6</ele>
        <time>2022-01-19T14:25:05Z</time>
      </trkpt>
      <trkpt lat="44.8885" lon="5.5411">
        <ele>1316.6</ele>
        <time>2022-01-19T14:25:06Z</time>
      </trkpt>
      <trkpt lat="44.8885" lon="5.5411">
        <ele>1316.6</ele>
        <time>2022-01-19T14:25:07Z</time>
      </trkpt>
      <trkpt lat="44.8885" lon="5.5411">
        <ele>1316.6</ele>
        <time>2022-01-19T14:25:08Z</time>
      </trkpt>
      <trkpt lat="44.8885" lon="5.5411">
        <ele>1316.6</ele>
        <time>2022-01-19T14:25:09Z</time>
      </trkpt>
      <trkpt lat="44.8885" lon="5.5411">
        <ele>1316.6</ele>
        <time>2022-01-19T14:25:10Z</time>
      </trkpt>
      <trkpt lat="44.8885" lon="5.5411">
        <ele>1316.6</ele>
        <time>2022-01-19T14:25:11Z</time>
      </trkpt>
      <trkpt lat="44.8885" lon="5.5411">
        <ele>1316.6</ele>
        <time>2022-01-19T14:25:12Z</time>
      </trkpt>
      <trkpt lat="44.8885" lon="5.5411">
        <ele>1316.6</ele>
        <time>2022-01-19T14:25:13Z</time>
      </trkpt>
      <trkpt lat="44.8885" lon="5.5411">
        <ele>1316.6</ele>
        <time>2022-01-19T14:25:14Z</time>
      </trkpt>
      <trkpt lat="44.8885" lon="5.5411">
        <ele>1316.6</ele>
        <time>2022-01-19T14:25:15Z</time>
      </trkpt>
      <trkpt lat="44.8885" lon="5.5411">
        <ele>1316.6</ele>
        <time>2022-01-19T14:25:16Z</time>
      </trkpt>
      <trkpt lat="44.8885" lon="5.5411">
        <ele>1316.6</ele>
        <time>2022-01-19T14:25:17Z</time>
      </trkpt>
      <trkpt lat="44.8885" lon="5.5411">
        <ele>1316.6</ele>
        <time>2022-01-19T14:25:18Z</time>
      </trkpt>
      <trkpt lat="44.8885" lon="5.5411">
        <ele>1316.6</ele>
        <time>2022-01-19T14:25:19Z</time>
      </trkpt>
      <trkpt lat="44.8885" lon="5.5411">
        <ele>1316.6</ele>
        <time>2022-01-19T14:25:20Z</time>
      </trkpt>
      <trkpt lat="44.8885" lon="5.5411">
        <ele>1316.6</ele>
        <time>2022-01-19T14:25:21Z</time>
      </trkpt>
      <trkpt lat="44.8885" lon="5.5411">
        <ele>1316.6</ele>
        <time>2022-01-19T14:25:22Z</time>
      </trkpt>
      <trkpt lat="44.8885" lon="5.5411">
        <ele>1316.6</ele>
        <time>2022-01-19T14:25:23Z</time>
      </trkpt>
      <trkpt lat="44.8885" lon="5.5411">
        <ele>1316.6</ele>
        <time>2022-01-19T14:25:24Z</time>
      </trkpt>
      <trkpt lat="44.8885" lon="5.5411">
        <ele>1316.6</ele>
        <time>2022-01-19T14:25:25Z</time>
      </trkpt>
      <trkpt lat="44.8885" lon="5.5411">
        <ele>1316.6</ele>
        <time>2022-01-19T14:25:26Z</time>
      </trkpt>
      <trkpt lat="44.8885" lon="5.5411">
        <ele>1316.6</ele>
        <time>2022-01-19T14:25:27Z</time>
      </trkpt>
      <trkpt lat="44.8885" lon="5.5411">
        <ele>1316.6</ele>
        <time>2022-01-19T14:25:28Z</time>
      </trkpt>
      <trkpt lat="44.8885" lon="5.5411">
        <ele>1316.6</ele>
        <time>2022-01-19T14:25:29Z</time>
      </trkpt>
      <trkpt lat="44.8885" lon="5.5411">
        <ele>1316.6</ele>
        <time>2022-01-19T14:25:30Z</time>
      </trkpt>
      <trkpt lat="44.8885" lon="5.5411">
        <ele>1316.6</ele>
        <time>2022-01-19T14:25:31Z</time>
      </trkpt>
      <trkpt lat="44.8885" lon="5.5411">
        <ele>1316.6</ele>
        <time>2022-01-19T14:25:32Z</time>
      </trkpt>
      <trkpt lat="44.8885" lon="5.5411">
        <ele>1316.6</ele>
        <time>2022-01-19T14:25:33Z</time>
      </trkpt>
      <trkpt lat="44.8885" lon="5.5411">
        <ele>1316.6</ele>
        <time>2022-01-19T14:25:34Z</time>
      </trkpt>
      <trkpt lat="44.8885" lon="5.5411">
        <ele>1316.6</ele>
        <time>2022-01-19T14:25:35Z</time>
      </trkpt>
      <trkpt lat="44.8885" lon="5.5411">
        <ele>1316.6</ele>
        <time>2022-01-19T14:25:36Z</time>
      </trkpt>
      <trkpt lat="44.8885" lon="5.5411">
        <ele>1316.6</ele>
        <time>2022-01-19T14:25:37Z</time>
      </trkpt>
      <trkpt lat="44.8885" lon="5.5411">
        <ele>1316.6</ele>
        <time>2022-01-19T14:25:38Z</time>
      </trkpt>
      <trkpt lat="44.8885" lon="5.5411">
        <ele>1316.6</ele>
        <time>2022-01-19T14:25:39Z</time>
      </trkpt>
      <trkpt lat="44.8885" lon="5.5411">
        <ele>1316.6</ele>
        <time>2022-01-19T14:25:40Z</time>
      </trkpt>
      <trkpt lat="44.8885" lon="5.5411">
        <ele>1316.6</ele>
        <time>2022-01-19T14:25:41Z</time>
      </trkpt>
      <trkpt lat="44.8885" lon="5.5411">
        <ele>1316.6</ele>
        <time>2022-01-19T14:25:42Z</time>
      </trkpt>
      <trkpt lat="44.8885" lon="5.5411">
        <ele>1316.6</ele>
        <time>2022-01-19T14:25:43Z</time>
      </trkpt>
      <trkpt lat="44.8885" lon="5.5411">
        <ele>1316.6</ele>
        <time>2022-01-19T14:25:44Z</time>
      </trkpt>
      <trkpt lat="44.8885" lon="5.5411">
        <ele>1316.6</ele>
        <time>2022-01-19T14:25:45Z</time>
      </trkpt>
      <trkpt lat="44.8885" lon="5.5411">
        <ele>1316.6</ele>
        <time>2022-01-19T14:25:46Z</time>
      </trkpt>
      <trkpt lat="44.8885" lon="5.5411">
        <ele>1316.6</ele>
        <time>2022-01-19T14:25:47Z</time>
      </trkpt>
      <trkpt lat="44.8885" lon="5.5411">
        <ele>1316.6</ele>
        <time>2022-01-19T14:25:48Z</time>
      </trkpt>
      <trkpt lat="44.8885" lon="5.5411">
        <ele>1316.6</ele>
        <time>2022-01-19T14:25:49Z</time>
      </trkpt>
      <trkpt lat="44.8885" lon="5.5411">
        <ele>1316.6</ele>
        <time>2022-01-19T14:25:50Z</time>
      </trkpt>
      <trkpt lat="44.8885" lon="5.5411">
        <ele>1316.6</ele>
        <time>2022-01-19T14:25:51Z</time>
      </trkpt>
      <trkpt lat="44.8885" lon="5.5411">
        <ele>1316.6</ele>
        <time>2022-01-19T14:25:52Z</time>
      </trkpt>
      <trkpt lat="44.8885" lon="5.5411">
        <ele>1316.6</ele>
        <time>2022-01-19T14:25:53Z</time>
      </trkpt>
      <trkpt lat="44.8885" lon="5.5411">
        <ele>1316.6</ele>
        <time>2022-01-19T14:25:54Z</time>
      </trkpt>
      <trkpt lat="44.8885" lon="5.5411">
        <ele>1316.6</ele>
        <time>2022-01-19T14:25:55Z</time>
      </trkpt>
      <trkpt lat="44.8885" lon="5.5411">
        <ele>1316.6</ele>
        <time>2022-01-19T14:25:56Z</time>
      </trkpt>
      <trkpt lat="44.8885" lon="5.5411">
        <ele>1316.6</ele>
        <time>2022-01-19T14:25:57Z</time>
      </trkpt>
      <trkpt lat="44.8885" lon="5.5411">
        <ele>1316.6</ele>
        <time>2022-01-19T14:25:58Z</time>
      </trkpt>
      <trkpt lat="44.8885" lon="5.5411">
        <ele>1316.6</ele>
        <time>2022-01-19T14:25:59Z</time>
      </trkpt>
      <trkpt lat="44.8885" lon="5.5411">
        <ele>1316.6</ele>
        <time>2022-01-19T14:26:00Z</time>
      </trkpt>
      <trkpt lat="44.8885" lon="5.5411">
        <ele>1316.6</ele>
        <time>2022-01-19T14:26:01Z</time>
      </trkpt>
      <trkpt lat="44.8885" lon="5.5411">
        <ele>1316.6</ele>
        <time>2022-01-19T14:26:02Z</time>
      </trkpt>
      <trkpt lat="44.8885" lon="5.5411">
        <ele>1316.6</ele>
        <time>2022-01-19T14:26:03Z</time>
      </trkpt>
      <trkpt lat="44.8885" lon="5.5411">
        <ele>1316.6</ele>
        <time>2022-01-19T14:26:04Z</time>
      </trkpt>
      <trkpt lat="44.8885" lon="5.5411">
        <ele>1316.6</ele>
        <time>2022-01-19T14:26:05Z</time>
      </trkpt>
      <trkpt lat="44.8885" lon="5.5411">
        <ele>1316.6</ele>
        <time>2022-01-19T14:26:06Z</time>
      </trkpt>
      <trkpt lat="44.8885" lon="5.5411">
        <ele>1316.6</ele>
        <time>2022-01-19T14:26:07Z</time>
      </trkpt>
      <trkpt lat="44.8885" lon="5.5411">
        <ele>1316.6</ele>
        <time>2022-01-19T14:26:08Z</time>
      </trkpt>
      <trkpt lat="44.8885" lon="5.5411">
        <ele>1316.6</ele>
        <time>2022-01-19T14:26:09Z</time>
      </trkpt>
      <trkpt lat="44.8885" lon="5.5411">
        <ele>1316.6</ele>
        <time>2022-01-19T14:26:10Z</time>
      </trkpt>
      <trkpt lat="44.8885" lon="5.5411">
        <ele>1316.6</ele>
        <time>2022-01-19T14:26:11Z</time>
      </trkpt>
      <trkpt lat="44.8885" lon="5.5411">
        <ele>1316.6</ele>
        <time>2022-01-19T14:26:12Z</time>
      </trkpt>
      <trkpt lat="44.88849" lon="5.5411">
        <ele>1316.4</ele>
        <time>2022-01-19T14:26:13Z</time>
      </trkpt>
      <trkpt lat="44.88849" lon="5.5411">
        <ele>1316.4</ele>
        <time>2022-01-19T14:26:14Z</time>
      </trkpt>
      <trkpt lat="44.88849" lon="5.5411">
        <ele>1316.4</ele>
        <time>2022-01-19T14:26:15Z</time>
      </trkpt>
      <trkpt lat="44.88848" lon="5.5411">
        <ele>1316.3</ele>
        <time>2022-01-19T14:26:16Z</time>
      </trkpt>
      <trkpt lat="44.88848" lon="5.5411">
        <ele>1316.3</ele>
        <time>2022-01-19T14:26:17Z</time>
      </trkpt>
      <trkpt lat="44.88848" lon="5.5411">
        <ele>1316.3</ele>
        <time>2022-01-19T14:26:18Z</time>
      </trkpt>
      <trkpt lat="44.88848" lon="5.5411">
        <ele>1316.3</ele>
        <time>2022-01-19T14:26:19Z</time>
      </trkpt>
      <trkpt lat="44.88848" lon="5.5411">
        <ele>1316.3</ele>
        <time>2022-01-19T14:26:20Z</time>
      </trkpt>
      <trkpt lat="44.88848" lon="5.5411">
        <ele>1316.3</ele>
        <time>2022-01-19T14:26:21Z</time>
      </trkpt>
      <trkpt lat="44.88848" lon="5.5411">
        <ele>1316.3</ele>
        <time>2022-01-19T14:26:22Z</time>
      </trkpt>
      <trkpt lat="44.88848" lon="5.5411">
        <ele>1316.3</ele>
        <time>2022-01-19T14:26:23Z</time>
      </trkpt>
      <trkpt lat="44.88848" lon="5.5411">
        <ele>1316.3</ele>
        <time>2022-01-19T14:26:24Z</time>
      </trkpt>
      <trkpt lat="44.88848" lon="5.5411">
        <ele>1316.3</ele>
        <time>2022-01-19T14:26:25Z</time>
      </trkpt>
      <trkpt lat="44.88848" lon="5.5411">
        <ele>1316.3</ele>
        <time>2022-01-19T14:26:26Z</time>
      </trkpt>
      <trkpt lat="44.88848" lon="5.5411">
        <ele>1316.3</ele>
        <time>2022-01-19T14:26:27Z</time>
      </trkpt>
      <trkpt lat="44.88848" lon="5.5411">
        <ele>1316.3</ele>
        <time>2022-01-19T14:26:28Z</time>
      </trkpt>
      <trkpt lat="44.88848" lon="5.5411">
        <ele>1316.3</ele>
        <time>2022-01-19T14:26:29Z</time>
      </trkpt>
      <trkpt lat="44.88847" lon="5.54112">
        <ele>1316.1</ele>
        <time>2022-01-19T14:26:30Z</time>
      </trkpt>
      <trkpt lat="44.88847" lon="5.54114">
        <ele>1315.9</ele>
        <time>2022-01-19T14:26:31Z</time>
      </trkpt>
      <trkpt lat="44.88845" lon="5.54117">
        <ele>1315.5</ele>
        <time>2022-01-19T14:26:32Z</time>
      </trkpt>
      <trkpt lat="44.88845" lon="5.54122">
        <ele>1315</ele>
        <time>2022-01-19T14:26:33Z</time>
      </trkpt>
      <trkpt lat="44.88847" lon="5.54126">
        <ele>1314.5</ele>
        <time>2022-01-19T14:26:34Z</time>
      </trkpt>
      <trkpt lat="44.88847" lon="5.54131">
        <ele>1314</ele>
        <time>2022-01-19T14:26:35Z</time>
      </trkpt>
      <trkpt lat="44.88849" lon="5.54136">
        <ele>1313.4</ele>
        <time>2022-01-19T14:26:36Z</time>
      </trkpt>
      <trkpt lat="44.8885" lon="5.54142">
        <ele>1312.8</ele>
        <time>2022-01-19T14:26:37Z</time>
      </trkpt>
      <trkpt lat="44.88848" lon="5.54147">
        <ele>1312.2</ele>
        <time>2022-01-19T14:26:38Z</time>
      </trkpt>
      <trkpt lat="44.88849" lon="5.54153">
        <ele>1311.6</ele>
        <time>2022-01-19T14:26:39Z</time>
      </trkpt>
      <trkpt lat="44.88849" lon="5.54159">
        <ele>1310.9</ele>
        <time>2022-01-19T14:26:40Z</time>
      </trkpt>
      <trkpt lat="44.88849" lon="5.54165">
        <ele>1310.1</ele>
        <time>2022-01-19T14:26:41Z</time>
      </trkpt>
      <trkpt lat="44.88847" lon="5.54172">
        <ele>1309.4</ele>
        <time>2022-01-19T14:26:42Z</time>
      </trkpt>
      <trkpt lat="44.88847" lon="5.54178">
        <ele>1308.7</ele>
        <time>2022-01-19T14:26:43Z</time>
      </trkpt>
      <trkpt lat="44.88848" lon="5.54185">
        <ele>1307.9</ele>
        <time>2022-01-19T14:26:44Z</time>
      </trkpt>
      <trkpt lat="44.88847" lon="5.54191">
        <ele>1307.1</ele>
        <time>2022-01-19T14:26:45Z</time>
      </trkpt>
      <trkpt lat="44.88845" lon="5.54197">
        <ele>1306.3</ele>
        <time>2022-01-19T14:26:46Z</time>
      </trkpt>
      <trkpt lat="44.88843" lon="5.54204">
        <ele>1305.5</ele>
        <time>2022-01-19T14:26:47Z</time>
      </trkpt>
      <trkpt lat="44.88846" lon="5.54211">
        <ele>1304.6</ele>
        <time>2022-01-19T14:26:48Z</time>
      </trkpt>
      <trkpt lat="44.88849" lon="5.54217">
        <ele>1303.7</ele>
        <time>2022-01-19T14:26:49Z</time>
      </trkpt>
      <trkpt lat="44.88851" lon="5.54224">
        <ele>1302.8</ele>
        <time>2022-01-19T14:26:50Z</time>
      </trkpt>
      <trkpt lat="44.88851" lon="5.54232">
        <ele>1301.9</ele>
        <time>2022-01-19T14:26:51Z</time>
      </trkpt>
      <trkpt lat="44.88849" lon="5.54239">
        <ele>1300.9</ele>
        <time>2022-01-19T14:26:52Z</time>
      </trkpt>
      <trkpt lat="44.88849" lon="5.54246">
        <ele>1300</ele>
        <time>2022-01-19T14:26:53Z</time>
      </trkpt>
      <trkpt lat="44.8885" lon="5.54254">
        <ele>1299</ele>
        <time>2022-01-19T14:26:54Z</time>
      </trkpt>
      <trkpt lat="44.88851" lon="5.54263">
        <ele>1298.1</ele>
        <time>2022-01-19T14:26:55Z</time>
      </trkpt>
      <trkpt lat="44.88853" lon="5.5427">
        <ele>1297.2</ele>
        <time>2022-01-19T14:26:56Z</time>
      </trkpt>
      <trkpt lat="44.88857" lon="5.54277">
        <ele>1296.3</ele>
        <time>2022-01-19T14:26:57Z</time>
      </trkpt>
      <trkpt lat="44.8886" lon="5.54285">
        <ele>1295.4</ele>
        <time>2022-01-19T14:26:58Z</time>
      </trkpt>
      <trkpt lat="44.88864" lon="5.54292">
        <ele>1294.6</ele>
        <time>2022-01-19T14:26:59Z</time>
      </trkpt>
      <trkpt lat="44.88868" lon="5.54298">
        <ele>1293.8</ele>
        <time>2022-01-19T14:27:00Z</time>
      </trkpt>
      <trkpt lat="44.88874" lon="5.54303">
        <ele>1292.9</ele>
        <time>2022-01-19T14:27:01Z</time>
      </trkpt>
      <trkpt lat="44.88881" lon="5.54307">
        <ele>1292</ele>
        <time>2022-01-19T14:27:02Z</time>
      </trkpt>
      <trkpt lat="44.88887" lon="5.54311">
        <ele>1291</ele>
        <time>2022-01-19T14:27:03Z</time>
      </trkpt>
      <trkpt lat="44.88893" lon="5.54314">
        <ele>1289.8</ele>
        <time>2022-01-19T14:27:04Z</time>
      </trkpt>
      <trkpt lat="44.889" lon="5.54317">
        <ele>1288.7</ele>
        <time>2022-01-19T14:27:05Z</time>
      </trkpt>
      <trkpt lat="44.88905" lon="5.54319">
        <ele>1287.8</ele>
        <time>2022-01-19T14:27:06Z</time>
      </trkpt>
      <trkpt lat="44.8891" lon="5.5432">
        <ele>1287</ele>
        <time>2022-01-19T14:27:07Z</time>
      </trkpt>
      <trkpt lat="44.88916" lon="5.54322">
        <ele>1286.2</ele>
        <time>2022-01-19T14:27:08Z</time>
      </trkpt>
      <trkpt lat="44.88921" lon="5.54324">
        <ele>1285.5</ele>
        <time>2022-01-19T14:27:09Z</time>
      </trkpt>
      <trkpt lat="44.88926" lon="5.54326">
        <ele>1284.7</ele>
        <time>2022-01-19T14:27:10Z</time>
      </trkpt>
      <trkpt lat="44.88932" lon="5.54329">
        <ele>1283.8</ele>
        <time>2022-01-19T14:27:11Z</time>
      </trkpt>
      <trkpt lat="44.88939" lon="5.54331">
        <ele>1282.9</ele>
        <time>2022-01-19T14:27:12Z</time>
      </trkpt>
      <trkpt lat="44.88945" lon="5.54332">
        <ele>1282</ele>
        <time>2022-01-19T14:27:13Z</time>
      </trkpt>
      <trkpt lat="44.88951" lon="5.54332">
        <ele>1281.1</ele>
        <time>2022-01-19T14:27:14Z</time>
      </trkpt>
      <trkpt lat="44.88957" lon="5.54334">
        <ele>1280.4</ele>
        <time>2022-01-19T14:27:15Z</time>
      </trkpt>
      <trkpt lat="44.88962" lon="5.54336">
        <ele>1279.7</ele>
        <time>2022-01-19T14:27:16Z</time>
      </trkpt>
      <trkpt lat="44.88966" lon="5.54338">
        <ele>1279.1</ele>
        <time>2022-01-19T14:27:17Z</time>
      </trkpt>
      <trkpt lat="44.88969" lon="5.54342">
        <ele>1278.7</ele>
        <time>2022-01-19T14:27:18Z</time>
      </trkpt>
      <trkpt lat="44.88972" lon="5.54346">
        <ele>1278.2</ele>
        <time>2022-01-19T14:27:19Z</time>
      </trkpt>
      <trkpt lat="44.88975" lon="5.54351">
        <ele>1277.6</ele>
        <time>2022-01-19T14:27:20Z</time>
      </trkpt>
      <trkpt lat="44.88979" lon="5.54355">
        <ele>1277.1</ele>
        <time>2022-01-19T14:27:21Z</time>
      </trkpt>
      <trkpt lat="44.88983" lon="5.5436">
        <ele>1276.5</ele>
        <time>2022-01-19T14:27:22Z</time>
      </trkpt>
      <trkpt lat="44.88985" lon="5.54367">
        <ele>1275.9</ele>
        <time>2022-01-19T14:27:23Z</time>
      </trkpt>
      <trkpt lat="44.88989" lon="5.54373">
        <ele>1275.3</ele>
        <time>2022-01-19T14:27:24Z</time>
      </trkpt>
      <trkpt lat="44.88994" lon="5.5438">
        <ele>1274.5</ele>
        <time>2022-01-19T14:27:25Z</time>
      </trkpt>
      <trkpt lat="44.88998" lon="5.54386">
        <ele>1273.8</ele>
        <time>2022-01-19T14:27:26Z</time>
      </trkpt>
      <trkpt lat="44.89002" lon="5.54393">
        <ele>1273.1</ele>
        <time>2022-01-19T14:27:27Z</time>
      </trkpt>
      <trkpt lat="44.89006" lon="5.54401">
        <ele>1272.4</ele>
        <time>2022-01-19T14:27:28Z</time>
      </trkpt>
      <trkpt lat="44.89011" lon="5.54407">
        <ele>1271.8</ele>
        <time>2022-01-19T14:27:29Z</time>
      </trkpt>
      <trkpt lat="44.89016" lon="5.54414">
        <ele>1271.1</ele>
        <time>2022-01-19T14:27:30Z</time>
      </trkpt>
      <trkpt lat="44.8902" lon="5.54421">
        <ele>1270.5</ele>
        <time>2022-01-19T14:27:31Z</time>
      </trkpt>
      <trkpt lat="44.89026" lon="5.54427">
        <ele>1269.9</ele>
        <time>2022-01-19T14:27:32Z</time>
      </trkpt>
      <trkpt lat="44.89031" lon="5.54433">
        <ele>1269.2</ele>
        <time>2022-01-19T14:27:33Z</time>
      </trkpt>
      <trkpt lat="44.89035" lon="5.54441">
        <ele>1268.6</ele>
        <time>2022-01-19T14:27:34Z</time>
      </trkpt>
      <trkpt lat="44.8904" lon="5.5445">
        <ele>1267.9</ele>
        <time>2022-01-19T14:27:35Z</time>
      </trkpt>
      <trkpt lat="44.89045" lon="5.54459">
        <ele>1267.3</ele>
        <time>2022-01-19T14:27:36Z</time>
      </trkpt>
      <trkpt lat="44.89051" lon="5.54467">
        <ele>1266.8</ele>
        <time>2022-01-19T14:27:37Z</time>
      </trkpt>
      <trkpt lat="44.89057" lon="5.54474">
        <ele>1266.3</ele>
        <time>2022-01-19T14:27:38Z</time>
      </trkpt>
      <trkpt lat="44.89063" lon="5.54479">
        <ele>1265.8</ele>
        <time>2022-01-19T14:27:39Z</time>
      </trkpt>
      <trkpt lat="44.89068" lon="5.54484">
        <ele>1265.4</ele>
        <time>2022-01-19T14:27:40Z</time>
      </trkpt>
      <trkpt lat="44.89073" lon="5.54489">
        <ele>1265</ele>
        <time>2022-01-19T14:27:41Z</time>
      </trkpt>
      <trkpt lat="44.89078" lon="5.54494">
        <ele>1264.6</ele>
        <time>2022-01-19T14:27:42Z</time>
      </trkpt>
      <trkpt lat="44.89082" lon="5.54499">
        <ele>1264.3</ele>
        <time>2022-01-19T14:27:43Z</time>
      </trkpt>
      <trkpt lat="44.89087" lon="5.54505">
        <ele>1263.9</ele>
        <time>2022-01-19T14:27:44Z</time>
      </trkpt>
      <trkpt lat="44.89092" lon="5.5451">
        <ele>1263.5</ele>
        <time>2022-01-19T14:27:45Z</time>
      </trkpt>
      <trkpt lat="44.89097" lon="5.54515">
        <ele>1263.2</ele>
        <time>2022-01-19T14:27:46Z</time>
      </trkpt>
      <trkpt lat="44.89101" lon="5.54519">
        <ele>1262.8</ele>
        <time>2022-01-19T14:27:47Z</time>
      </trkpt>
      <trkpt lat="44.89105" lon="5.54523">
        <ele>1262.5</ele>
        <time>2022-01-19T14:27:48Z</time>
      </trkpt>
      <trkpt lat="44.89109" lon="5.54526">
        <ele>1262.3</ele>
        <time>2022-01-19T14:27:49Z</time>
      </trkpt>
      <trkpt lat="44.89113" lon="5.54529">
        <ele>1262</ele>
        <time>2022-01-19T14:27:50Z</time>
      </trkpt>
      <trkpt lat="44.89116" lon="5.54532">
        <ele>1261.8</ele>
        <time>2022-01-19T14:27:51Z</time>
      </trkpt>
      <trkpt lat="44.89119" lon="5.54535">
        <ele>1261.5</ele>
        <time>2022-01-19T14:27:52Z</time>
      </trkpt>
      <trkpt lat="44.89123" lon="5.54539">
        <ele>1261.3</ele>
        <time>2022-01-19T14:27:53Z</time>
      </trkpt>
      <trkpt lat="44.89126" lon="5.54542">
        <ele>1261</ele>
        <time>2022-01-19T14:27:54Z</time>
      </trkpt>
      <trkpt lat="44.89129" lon="5.54546">
        <ele>1260.8</ele>
        <time>2022-01-19T14:27:55Z</time>
      </trkpt>
      <trkpt lat="44.89132" lon="5.54551">
        <ele>1260.5</ele>
        <time>2022-01-19T14:27:56Z</time>
      </trkpt>
      <trkpt lat="44.89135" lon="5.54555">
        <ele>1260.3</ele>
        <time>2022-01-19T14:27:57Z</time>
      </trkpt>
      <trkpt lat="44.89138" lon="5.5456">
        <ele>1260</ele>
        <time>2022-01-19T14:27:58Z</time>
      </trkpt>
      <trkpt lat="44.89141" lon="5.54565">
        <ele>1259.8</ele>
        <time>2022-01-19T14:27:59Z</time>
      </trkpt>
      <trkpt lat="44.89144" lon="5.54569">
        <ele>1259.5</ele>
        <time>2022-01-19T14:28:00Z</time>
      </trkpt>
      <trkpt lat="44.89148" lon="5.54574">
        <ele>1259.3</ele>
        <time>2022-01-19T14:28:01Z</time>
      </trkpt>
      <trkpt lat="44.8915" lon="5.54579">
        <ele>1259</ele>
        <time>2022-01-19T14:28:02Z</time>
      </trkpt>
      <trkpt lat="44.89153" lon="5.54584">
        <ele>1258.8</ele>
        <time>2022-01-19T14:28:03Z</time>
      </trkpt>
      <trkpt lat="44.89155" lon="5.54589">
        <ele>1258.6</ele>
        <time>2022-01-19T14:28:04Z</time>
      </trkpt>
      <trkpt lat="44.89157" lon="5.54595">
        <ele>1258.3</ele>
        <time>2022-01-19T14:28:05Z</time>
      </trkpt>
      <trkpt lat="44.89159" lon="5.546">
        <ele>1258.1</ele>
        <time>2022-01-19T14:28:06Z</time>
      </trkpt>
      <trkpt lat="44.8916" lon="5.54605">
        <ele>1257.9</ele>
        <time>2022-01-19T14:28:07Z</time>
      </trkpt>
      <trkpt lat="44.89161" lon="5.5461">
        <ele>1257.7</ele>
        <time>2022-01-19T14:28:08Z</time>
      </trkpt>
      <trkpt lat="44.89162" lon="5.54614">
        <ele>1257.5</ele>
        <time>2022-01-19T14:28:09Z</time>
      </trkpt>
      <trkpt lat="44.89164" lon="5.54618">
        <ele>1257.4</ele>
        <time>2022-01-19T14:28:10Z</time>
      </trkpt>
      <trkpt lat="44.89164" lon="5.54623">
        <ele>1257.2</ele>
        <time>2022-01-19T14:28:11Z</time>
      </trkpt>
      <trkpt lat="44.89165" lon="5.54627">
        <ele>1257.1</ele>
        <time>2022-01-19T14:28:12Z</time>
      </trkpt>
      <trkpt lat="44.89167" lon="5.54632">
        <ele>1256.9</ele>
        <time>2022-01-19T14:28:13Z</time>
      </trkpt>
      <trkpt lat="44.89167" lon="5.54636">
        <ele>1256.7</ele>
        <time>2022-01-19T14:28:14Z</time>
      </trkpt>
      <trkpt lat="44.89168" lon="5.54641">
        <ele>1256.6</ele>
        <time>2022-01-19T14:28:15Z</time>
      </trkpt>
      <trkpt lat="44.89168" lon="5.54646">
        <ele>1256.4</ele>
        <time>2022-01-19T14:28:16Z</time>
      </trkpt>
      <trkpt lat="44.89169" lon="5.54651">
        <ele>1256.2</ele>
        <time>2022-01-19T14:28:17Z</time>
      </trkpt>
      <trkpt lat="44.89169" lon="5.54655">
        <ele>1256</ele>
        <time>2022-01-19T14:28:18Z</time>
      </trkpt>
      <trkpt lat="44.8917" lon="5.5466">
        <ele>1255.8</ele>
        <time>2022-01-19T14:28:19Z</time>
      </trkpt>
      <trkpt lat="44.8917" lon="5.54664">
        <ele>1255.7</ele>
        <time>2022-01-19T14:28:20Z</time>
      </trkpt>
      <trkpt lat="44.8917" lon="5.54668">
        <ele>1255.5</ele>
        <time>2022-01-19T14:28:21Z</time>
      </trkpt>
      <trkpt lat="44.89171" lon="5.54671">
        <ele>1255.4</ele>
        <time>2022-01-19T14:28:22Z</time>
      </trkpt>
      <trkpt lat="44.89172" lon="5.54675">
        <ele>1255.2</ele>
        <time>2022-01-19T14:28:23Z</time>
      </trkpt>
      <trkpt lat="44.89173" lon="5.54679">
        <ele>1255</ele>
        <time>2022-01-19T14:28:24Z</time>
      </trkpt>
      <trkpt lat="44.89174" lon="5.54683">
        <ele>1254.9</ele>
        <time>2022-01-19T14:28:25Z</time>
      </trkpt>
      <trkpt lat="44.89176" lon="5.54687">
        <ele>1254.7</ele>
        <time>2022-01-19T14:28:26Z</time>
      </trkpt>
      <trkpt lat="44.89177" lon="5.54691">
        <ele>1254.5</ele>
        <time>2022-01-19T14:28:27Z</time>
      </trkpt>
      <trkpt lat="44.89178" lon="5.54695">
        <ele>1254.3</ele>
        <time>2022-01-19T14:28:28Z</time>
      </trkpt>
      <trkpt lat="44.8918" lon="5.547">
        <ele>1254.1</ele>
        <time>2022-01-19T14:28:29Z</time>
      </trkpt>
      <trkpt lat="44.89182" lon="5.54705">
        <ele>1253.8</ele>
        <time>2022-01-19T14:28:30Z</time>
      </trkpt>
      <trkpt lat="44.89184" lon="5.5471">
        <ele>1253.6</ele>
        <time>2022-01-19T14:28:31Z</time>
      </trkpt>
      <trkpt lat="44.89186" lon="5.54716">
        <ele>1253.4</ele>
        <time>2022-01-19T14:28:32Z</time>
      </trkpt>
      <trkpt lat="44.89188" lon="5.54721">
        <ele>1253.2</ele>
        <time>2022-01-19T14:28:33Z</time>
      </trkpt>
      <trkpt lat="44.89191" lon="5.54725">
        <ele>1253</ele>
        <time>2022-01-19T14:28:34Z</time>
      </trkpt>
      <trkpt lat="44.89194" lon="5.54728">
        <ele>1252.9</ele>
        <time>2022-01-19T14:28:35Z</time>
      </trkpt>
      <trkpt lat="44.89197" lon="5.5473">
        <ele>1252.7</ele>
        <time>2022-01-19T14:28:36Z</time>
      </trkpt>
      <trkpt lat="44.892" lon="5.54732">
        <ele>1252.6</ele>
        <time>2022-01-19T14:28:37Z</time>
      </trkpt>
      <trkpt lat="44.89202" lon="5.54734">
        <ele>1252.5</ele>
        <time>2022-01-19T14:28:38Z</time>
      </trkpt>
      <trkpt lat="44.89204" lon="5.54737">
        <ele>1252.5</ele>
        <time>2022-01-19T14:28:39Z</time>
      </trkpt>
      <trkpt lat="44.89205" lon="5.54741">
        <ele>1252.2</ele>
        <time>2022-01-19T14:28:40Z</time>
      </trkpt>
      <trkpt lat="44.89207" lon="5.54745">
        <ele>1252</ele>
        <time>2022-01-19T14:28:41Z</time>
      </trkpt>
      <trkpt lat="44.89209" lon="5.54748">
        <ele>1251.8</ele>
        <time>2022-01-19T14:28:42Z</time>
      </trkpt>
      <trkpt lat="44.89211" lon="5.54752">
        <ele>1251.7</ele>
        <time>2022-01-19T14:28:43Z</time>
      </trkpt>
      <trkpt lat="44.89213" lon="5.54754">
        <ele>1251.6</ele>
        <time>2022-01-19T14:28:44Z</time>
      </trkpt>
      <trkpt lat="44.89213" lon="5.54756">
        <ele>1251.5</ele>
        <time>2022-01-19T14:28:45Z</time>
      </trkpt>
      <trkpt lat="44.89214" lon="5.54756">
        <ele>1251.5</ele>
        <time>2022-01-19T14:28:46Z</time>
      </trkpt>
      <trkpt lat="44.89214" lon="5.54756">
        <ele>1251.5</ele>
        <time>2022-01-19T14:28:47Z</time>
      </trkpt>
      <trkpt lat="44.89214" lon="5.54756">
        <ele>1251.5</ele>
        <time>2022-01-19T14:28:48Z</time>
      </trkpt>
      <trkpt lat="44.89214" lon="5.54756">
        <ele>1251.5</ele>
        <time>2022-01-19T14:28:49Z</time>
      </trkpt>
      <trkpt lat="44.89214" lon="5.54756">
        <ele>1251.5</ele>
        <time>2022-01-19T14:28:50Z</time>
      </trkpt>
      <trkpt lat="44.89214" lon="5.54756">
        <ele>1251.5</ele>
        <time>2022-01-19T14:28:51Z</time>
      </trkpt>
      <trkpt lat="44.89214" lon="5.54756">
        <ele>1251.5</ele>
        <time>2022-01-19T14:28:52Z</time>
      </trkpt>
      <trkpt lat="44.89214" lon="5.54756">
        <ele>1251.5</ele>
        <time>2022-01-19T14:28:53Z</time>
      </trkpt>
      <trkpt lat="44.89214" lon="5.54756">
        <ele>1251.5</ele>
        <time>2022-01-19T14:28:54Z</time>
      </trkpt>
      <trkpt lat="44.89214" lon="5.54756">
        <ele>1251.5</ele>
        <time>2022-01-19T14:28:55Z</time>
      </trkpt>
      <trkpt lat="44.89214" lon="5.54756">
        <ele>1251.5</ele>
        <time>2022-01-19T14:28:56Z</time>
      </trkpt>
      <trkpt lat="44.89214" lon="5.54756">
        <ele>1251.5</ele>
        <time>2022-01-19T14:28:57Z</time>
      </trkpt>
      <trkpt lat="44.89214" lon="5.54756">
        <ele>1251.5</ele>
        <time>2022-01-19T14:28:58Z</time>
      </trkpt>
      <trkpt lat="44.89214" lon="5.54756">
        <ele>1251.5</ele>
        <time>2022-01-19T14:28:59Z</time>
      </trkpt>
      <trkpt lat="44.89214" lon="5.54756">
        <ele>1251.5</ele>
        <time>2022-01-19T14:29:00Z</time>
      </trkpt>
      <trkpt lat="44.89214" lon="5.54756">
        <ele>1251.5</ele>
        <time>2022-01-19T14:29:01Z</time>
      </trkpt>
      <trkpt lat="44.89214" lon="5.54756">
        <ele>1251.5</ele>
        <time>2022-01-19T14:29:02Z</time>
      </trkpt>
      <trkpt lat="44.89214" lon="5.54756">
        <ele>1251.5</ele>
        <time>2022-01-19T14:29:03Z</time>
      </trkpt>
      <trkpt lat="44.89214" lon="5.54756">
        <ele>1251.5</ele>
        <time>2022-01-19T14:29:04Z</time>
      </trkpt>
      <trkpt lat="44.89214" lon="5.54756">
        <ele>1251.5</ele>
        <time>2022-01-19T14:29:05Z</time>
      </trkpt>
      <trkpt lat="44.89214" lon="5.54756">
        <ele>1251.5</ele>
        <time>2022-01-19T14:29:06Z</time>
      </trkpt>
      <trkpt lat="44.89214" lon="5.54756">
        <ele>1251.5</ele>
        <time>2022-01-19T14:29:07Z</time>
      </trkpt>
      <trkpt lat="44.89214" lon="5.54756">
        <ele>1251.5</ele>
        <time>2022-01-19T14:29:08Z</time>
      </trkpt>
      <trkpt lat="44.89214" lon="5.54756">
        <ele>1251.5</ele>
        <time>2022-01-19T14:29:09Z</time>
      </trkpt>
      <trkpt lat="44.89214" lon="5.54756">
        <ele>1251.5</ele>
        <time>2022-01-19T14:29:10Z</time>
      </trkpt>
      <trkpt lat="44.89214" lon="5.54756">
        <ele>1251.5</ele>
        <time>2022-01-19T14:29:11Z</time>
      </trkpt>
      <trkpt lat="44.89214" lon="5.54756">
        <ele>1251.5</ele>
        <time>2022-01-19T14:29:12Z</time>
      </trkpt>
      <trkpt lat="44.89214" lon="5.54756">
        <ele>1251.5</ele>
        <time>2022-01-19T14:29:13Z</time>
      </trkpt>
      <trkpt lat="44.89214" lon="5.54756">
        <ele>1251.5</ele>
        <time>2022-01-19T14:29:14Z</time>
      </trkpt>
      <trkpt lat="44.89214" lon="5.54756">
        <ele>1251.5</ele>
        <time>2022-01-19T14:29:15Z</time>
      </trkpt>
      <trkpt lat="44.89214" lon="5.54756">
        <ele>1251.5</ele>
        <time>2022-01-19T14:29:16Z</time>
      </trkpt>
      <trkpt lat="44.89214" lon="5.54756">
        <ele>1251.5</ele>
        <time>2022-01-19T14:29:17Z</time>
      </trkpt>
      <trkpt lat="44.89214" lon="5.54756">
        <ele>1251.5</ele>
        <time>2022-01-19T14:29:18Z</time>
      </trkpt>
      <trkpt lat="44.89214" lon="5.54756">
        <ele>1251.5</ele>
        <time>2022-01-19T14:29:19Z</time>
      </trkpt>
      <trkpt lat="44.89214" lon="5.54756">
        <ele>1251.5</ele>
        <time>2022-01-19T14:29:20Z</time>
      </trkpt>
      <trkpt lat="44.89214" lon="5.54756">
        <ele>1251.5</ele>
        <time>2022-01-19T14:29:21Z</time>
      </trkpt>
      <trkpt lat="44.89214" lon="5.54756">
        <ele>1251.5</ele>
        <time>2022-01-19T14:29:22Z</time>
      </trkpt>
      <trkpt lat="44.89214" lon="5.54756">
        <ele>1251.5</ele>
        <time>2022-01-19T14:29:23Z</time>
      </trkpt>
      <trkpt lat="44.89214" lon="5.54756">
        <ele>1251.5</ele>
        <time>2022-01-19T14:29:24Z</time>
      </trkpt>
      <trkpt lat="44.89214" lon="5.54756">
        <ele>1251.5</ele>
        <time>2022-01-19T14:29:25Z</time>
      </trkpt>
      <trkpt lat="44.89214" lon="5.54756">
        <ele>1251.5</ele>
        <time>2022-01-19T14:29:26Z</time>
      </trkpt>
      <trkpt lat="44.89214" lon="5.54756">
        <ele>1251.5</ele>
        <time>2022-01-19T14:29:27Z</time>
      </trkpt>
      <trkpt lat="44.89214" lon="5.54756">
        <ele>1251.5</ele>
        <time>2022-01-19T14:29:28Z</time>
      </trkpt>
      <trkpt lat="44.89214" lon="5.54756">
        <ele>1251.5</ele>
        <time>2022-01-19T14:29:29Z</time>
      </trkpt>
      <trkpt lat="44.89214" lon="5.54756">
        <ele>1251.5</ele>
        <time>2022-01-19T14:29:30Z</time>
      </trkpt>
      <trkpt lat="44.89214" lon="5.54756">
        <ele>1251.5</ele>
        <time>2022-01-19T14:29:31Z</time>
      </trkpt>
      <trkpt lat="44.89214" lon="5.54756">
        <ele>1251.5</ele>
        <time>2022-01-19T14:29:32Z</time>
      </trkpt>
      <trkpt lat="44.89214" lon="5.54756">
        <ele>1251.5</ele>
        <time>2022-01-19T14:29:33Z</time>
      </trkpt>
      <trkpt lat="44.89214" lon="5.54756">
        <ele>1251.5</ele>
        <time>2022-01-19T14:29:34Z</time>
      </trkpt>
      <trkpt lat="44.89214" lon="5.54756">
        <ele>1251.5</ele>
        <time>2022-01-19T14:29:35Z</time>
      </trkpt>
      <trkpt lat="44.89214" lon="5.54756">
        <ele>1251.5</ele>
        <time>2022-01-19T14:29:36Z</time>
      </trkpt>
      <trkpt lat="44.89214" lon="5.54756">
        <ele>1251.5</ele>
        <time>2022-01-19T14:29:37Z</time>
      </trkpt>
      <trkpt lat="44.89214" lon="5.54756">
        <ele>1251.5</ele>
        <time>2022-01-19T14:29:38Z</time>
      </trkpt>
      <trkpt lat="44.89214" lon="5.54756">
        <ele>1251.5</ele>
        <time>2022-01-19T14:29:39Z</time>
      </trkpt>
      <trkpt lat="44.89214" lon="5.54756">
        <ele>1251.5</ele>
        <time>2022-01-19T14:29:40Z</time>
      </trkpt>
      <trkpt lat="44.89214" lon="5.54756">
        <ele>1251.5</ele>
        <time>2022-01-19T14:29:41Z</time>
      </trkpt>
      <trkpt lat="44.89214" lon="5.54756">
        <ele>1251.5</ele>
        <time>2022-01-19T14:29:42Z</time>
      </trkpt>
      <trkpt lat="44.89214" lon="5.54756">
        <ele>1251.5</ele>
        <time>2022-01-19T14:29:43Z</time>
      </trkpt>
      <trkpt lat="44.89214" lon="5.54756">
        <ele>1251.5</ele>
        <time>2022-01-19T14:29:44Z</time>
      </trkpt>
      <trkpt lat="44.89214" lon="5.54756">
        <ele>1251.5</ele>
        <time>2022-01-19T14:29:45Z</time>
      </trkpt>
      <trkpt lat="44.89214" lon="5.54756">
        <ele>1251.5</ele>
        <time>2022-01-19T14:29:46Z</time>
      </trkpt>
      <trkpt lat="44.89214" lon="5.54756">
        <ele>1251.5</ele>
        <time>2022-01-19T14:29:47Z</time>
      </trkpt>
      <trkpt lat="44.89214" lon="5.54756">
        <ele>1251.5</ele>
        <time>2022-01-19T14:29:48Z</time>
      </trkpt>
      <trkpt lat="44.89214" lon="5.54756">
        <ele>1251.5</ele>
        <time>2022-01-19T14:29:49Z</time>
      </trkpt>
      <trkpt lat="44.89214" lon="5.54756">
        <ele>1251.5</ele>
        <time>2022-01-19T14:29:50Z</time>
      </trkpt>
      <trkpt lat="44.89214" lon="5.54756">
        <ele>1251.5</ele>
        <time>2022-01-19T14:29:51Z</time>
      </trkpt>
      <trkpt lat="44.89214" lon="5.54756">
        <ele>1251.5</ele>
        <time>2022-01-19T14:29:52Z</time>
      </trkpt>
      <trkpt lat="44.89214" lon="5.54756">
        <ele>1251.5</ele>
        <time>2022-01-19T14:29:53Z</time>
      </trkpt>
      <trkpt lat="44.89214" lon="5.54756">
        <ele>1251.5</ele>
        <time>2022-01-19T14:29:54Z</time>
      </trkpt>
      <trkpt lat="44.89214" lon="5.54756">
        <ele>1251.5</ele>
        <time>2022-01-19T14:29:55Z</time>
      </trkpt>
      <trkpt lat="44.89214" lon="5.54756">
        <ele>1251.5</ele>
        <time>2022-01-19T14:29:56Z</time>
      </trkpt>
      <trkpt lat="44.89214" lon="5.54756">
        <ele>1251.5</ele>
        <time>2022-01-19T14:29:57Z</time>
      </trkpt>
      <trkpt lat="44.89214" lon="5.54756">
        <ele>1251.5</ele>
        <time>2022-01-19T14:29:58Z</time>
      </trkpt>
      <trkpt lat="44.89214" lon="5.54756">
        <ele>1251.5</ele>
        <time>2022-01-19T14:29:59Z</time>
      </trkpt>
      <trkpt lat="44.89214" lon="5.54756">
        <ele>1251.5</ele>
        <time>2022-01-19T14:30:00Z</time>
      </trkpt>
      <trkpt lat="44.89214" lon="5.54756">
        <ele>1251.5</ele>
        <time>2022-01-19T14:30:01Z</time>
      </trkpt>
      <trkpt lat="44.89214" lon="5.54756">
        <ele>1251.5</ele>
        <time>2022-01-19T14:30:02Z</time>
      </trkpt>
      <trkpt lat="44.89214" lon="5.54756">
        <ele>1251.5</ele>
        <time>2022-01-19T14:30:03Z</time>
      </trkpt>
      <trkpt lat="44.89214" lon="5.54756">
        <ele>1251.5</ele>
        <time>2022-01-19T14:30:04Z</time>
      </trkpt>
      <trkpt lat="44.89214" lon="5.54756">
        <ele>1251.5</ele>
        <time>2022-01-19T14:30:05Z</time>
      </trkpt>
      <trkpt lat="44.89214" lon="5.54756">
        <ele>1251.5</ele>
        <time>2022-01-19T14:30:06Z</time>
      </trkpt>
      <trkpt lat="44.89214" lon="5.54756">
        <ele>1251.5</ele>
        <time>2022-01-19T14:30:07Z</time>
      </trkpt>
      <trkpt lat="44.89214" lon="5.54756">
        <ele>1251.5</ele>
        <time>2022-01-19T14:30:08Z</time>
      </trkpt>
      <trkpt lat="44.89214" lon="5.54756">
        <ele>1251.5</ele>
        <time>2022-01-19T14:30:09Z</time>
      </trkpt>
      <trkpt lat="44.89214" lon="5.54756">
        <ele>1251.5</ele>
        <time>2022-01-19T14:30:10Z</time>
      </trkpt>
      <trkpt lat="44.89214" lon="5.54756">
        <ele>1251.5</ele>
        <time>2022-01-19T14:30:11Z</time>
      </trkpt>
      <trkpt lat="44.89214" lon="5.54756">
        <ele>1251.5</ele>
        <time>2022-01-19T14:30:12Z</time>
      </trkpt>
      <trkpt lat="44.89214" lon="5.54756">
        <ele>1251.5</ele>
        <time>2022-01-19T14:30:13Z</time>
      </trkpt>
      <trkpt lat="44.89214" lon="5.54756">
        <ele>1251.5</ele>
        <time>2022-01-19T14:30:14Z</time>
      </trkpt>
      <trkpt lat="44.89214" lon="5.54756">
        <ele>1251.5</ele>
        <time>2022-01-19T14:30:15Z</time>
      </trkpt>
      <trkpt lat="44.89214" lon="5.54756">
        <ele>1251.5</ele>
        <time>2022-01-19T14:30:16Z</time>
      </trkpt>
    </trkseg>
  </trk>
</gpx>